
Distance (Route):
Temperature : 18.7°C
Humidity : 59.7%
Pressure : 940.3hPa| Receiver | Frames | First received | Last received |
|---|---|---|---|
| DK7TD | 780 | 2026-09-03 22:47:47 | 2026-09-04 00:52:18 |
| DM0DOS-11 | 366 | 2026-09-03 23:12:29 | 2026-09-04 00:40:12 |
| DO3MHA-12 | 317 | 2026-09-03 23:14:03 | 2026-09-04 01:01:03 |
| IW2NTF | 270 | 2026-09-03 23:35:17 | 2026-09-04 00:36:05 |
| DO3MHA-11 | 215 | 2026-09-03 23:13:32 | 2026-09-04 01:01:22 |
| BIOWL1-15 | 90 | 2026-09-03 23:10:05 | 2026-09-04 00:34:36 |
| DJ8HS-15 | 81 | 2026-09-03 23:18:23 | 2026-09-04 00:40:05 |
| DL1NUX | 73 | 2026-09-03 23:55:19 | 2026-09-04 00:30:11 |
| DB0ND-19 | 68 | 2026-09-03 22:54:47 | 2026-09-04 00:57:22 |
| DF3TZ-5 | 65 | 2026-09-03 22:46:35 | 2026-09-04 00:57:00 |
| DL1XH-west | 64 | 2026-09-04 00:07:43 | 2026-09-04 00:27:31 |
| NBG1-10 | 62 | 2026-09-03 23:15:54 | 2026-09-04 00:58:16 |
| DB0UT-7 | 60 | 2026-09-03 22:47:43 | 2026-09-04 00:55:43 |
| AZAK | 59 | 2026-09-03 22:45:21 | 2026-09-04 00:40:04 |
| PG1ADW-2 | 58 | 2026-09-03 23:29:09 | 2026-09-04 00:39:44 |
| DK5PH-5 | 57 | 2026-09-03 22:47:34 | 2026-09-04 00:53:07 |
| DF7PN | 57 | 2026-09-03 22:57:45 | 2026-09-04 00:41:50 |
| OE9MKV-15 | 57 | 2026-09-03 23:24:20 | 2026-09-04 00:36:29 |
| DL1ZP-14 | 56 | 2026-09-03 23:02:44 | 2026-09-04 00:44:46 |
| DB0NH | 53 | 2026-09-03 23:14:15 | 2026-09-04 00:56:23 |
| OE5DRO-10 | 52 | 2026-09-03 23:25:08 | 2026-09-04 00:40:14 |
| DL6DJ-15 | 49 | 2026-09-03 23:14:00 | 2026-09-04 00:52:55 |
| OE5MMP-10 | 45 | 2026-09-04 00:04:52 | 2026-09-04 00:30:26 |
| DM7RM-13 | 38 | 2026-09-03 23:15:57 | 2026-09-04 00:35:55 |
| BAUMI2-15 | 38 | 2026-09-04 00:06:44 | 2026-09-04 00:27:42 |
| DF1GD-15 | 37 | 2026-09-03 23:15:56 | 2026-09-04 00:35:38 |
| DL1XH1-15 | 36 | 2026-09-04 00:18:10 | 2026-09-04 00:26:41 |
| OE5DXL-15 | 33 | 2026-09-03 23:21:50 | 2026-09-04 00:33:50 |
| DO9LL-15 | 27 | 2026-09-03 23:44:52 | 2026-09-04 00:30:47 |
| SONCRA | 21 | 2026-09-03 23:47:41 | 2026-09-04 00:30:07 |
| OE3JTB-15 | 19 | 2026-09-03 23:22:18 | 2026-09-04 00:05:18 |
| DL8DAS-14 | 19 | 2026-09-04 00:07:26 | 2026-09-04 00:27:06 |
| SONDE2-11 | 18 | 2026-09-03 23:52:02 | 2026-09-04 00:28:17 |
| DN1GJH-1 | 16 | 2026-09-03 23:15:00 | 2026-09-03 23:44:49 |
| DJ2DS-15 | 16 | 2026-09-03 23:59:08 | 2026-09-04 00:27:16 |
| DH7VM-15 | 12 | 2026-09-03 23:22:32 | 2026-09-04 00:29:53 |
| PETON7-10 | 8 | 2026-09-04 00:21:49 | 2026-09-04 00:25:38 |
| DO9HM | 7 | 2026-09-03 23:30:06 | 2026-09-04 00:39:54 |
| DF2AP-13 | 7 | 2026-09-03 23:34:47 | 2026-09-04 00:34:57 |
| DJTTGO | 7 | 2026-09-03 23:52:56 | 2026-09-04 00:34:03 |
| SO1NDE-10 | 7 | 2026-09-03 23:58:46 | 2026-09-04 00:19:55 |
| KANTATE | 4 | 2026-09-04 00:01:12 | 2026-09-04 00:29:18 |
| BIOWL9-15 | 3 | 2026-09-03 23:18:27 | 2026-09-03 23:27:46 |
| DL8DAS-15 | 3 | 2026-09-04 00:14:03 | 2026-09-04 00:16:14 |
| OE5WHR-10 | 3 | 2026-09-04 00:22:51 | 2026-09-04 00:24:44 |
| DL4BBY-15 | 2 | 2026-09-04 00:23:45 | 2026-09-04 00:26:04 |
| BIOWL7-15 | 1 | 2026-09-03 23:14:01 | 2026-09-03 23:14:01 |
| HEMX73-6 | 1 | 2026-09-04 00:22:11 | 2026-09-04 00:22:11 |
| AM1SDL-15 | 1 | 2026-09-04 00:33:39 | 2026-09-04 00:33:39 |
| Receiver | Date | Latitude | Longitude | Direction | Speed | Altitude | Climb | Temperature | Humidity | Pressure | Voltage | Killtimer | Uptime | BKT | XDATA |
|---|---|---|---|---|---|---|---|---|---|---|---|---|---|---|---|
| DO3MHA-11 | 2026-09-04 01:01:22 | 48.23015 | 10.39698 | 62° | 29km/h | 750m | -7.1m/s | 18.7°C | 59.7% | 940.3hPa | 2.7V | 00:00:00 | 02:31:55 | 00:00:00 | |
| DO3MHA-11 | 2026-09-04 01:01:19 | 48.23005 | 10.39667 | 64° | 33km/h | 771m | -6.7m/s | 18.8°C | 58.6% | 937.9hPa | 2.7V | 00:00:00 | 02:31:52 | 00:00:00 | |
| DO3MHA-11 | 2026-09-04 01:01:17 | 48.22998 | 10.39644 | 68° | 37km/h | 783m | -7.1m/s | 18.7°C | 58.8% | 936.5hPa | 2.7V | 07:54:00 | 02:31:50 | 00:00:00 | |
| DO3MHA-11 | 2026-09-04 01:01:15 | 48.22992 | 10.39619 | 70° | 37km/h | 797m | -7.3m/s | 18.9°C | 57.4% | 935.0hPa | 2.7V | 00:00:00 | 02:31:48 | 00:00:00 | |
| DO3MHA-11 | 2026-09-04 01:01:12 | 48.22983 | 10.39579 | 75° | 38km/h | 817m | -7.1m/s | 19.3°C | 54.5% | 932.8hPa | 2.7V | 00:00:00 | 02:31:45 | 00:00:00 | |
| DO3MHA-11 | 2026-09-04 01:01:10 | 48.22977 | 10.39551 | 73° | 38km/h | 830m | -6.9m/s | 19.6°C | 51.9% | 931.3hPa | 2.7V | 00:00:00 | 02:31:43 | 00:00:00 | |
| DO3MHA-11 | 2026-09-04 01:01:05 | 48.22965 | 10.39482 | 78° | 37km/h | 864m | -7.2m/s | 19.7°C | 51.1% | 927.7hPa | 2.7V | 00:00:00 | 02:31:38 | 00:00:00 | |
| DO3MHA-11 | 2026-09-04 01:01:03 | 48.22961 | 10.39455 | 78° | 37km/h | 879m | -7.7m/s | 19.7°C | 51.2% | 926.2hPa | 2.7V | 00:00:00 | 02:31:36 | 00:00:00 | |
| DO3MHA-12 | 2026-09-04 01:01:03 | 48.22961 | 10.39455 | 78° | 37km/h | 879m | -7.7m/s | 19.7°C | 51.2% | 926.2hPa | 2.7V | 00:00:00 | 02:31:36 | 00:00:00 | |
| DO3MHA-11 | 2026-09-04 01:01:01 | 48.22957 | 10.39428 | 78° | 37km/h | 894m | -7.1m/s | 19.6°C | 51.3% | 924.8hPa | 2.6V | 00:00:00 | 02:31:34 | 00:00:00 | |
| DO3MHA-12 | 2026-09-04 01:01:01 | 48.22957 | 10.39428 | 78° | 37km/h | 894m | -7.1m/s | 19.6°C | 51.3% | 924.8hPa | 2.6V | 00:00:00 | 02:31:34 | 00:00:00 | |
| DO3MHA-11 | 2026-09-04 01:00:59 | 48.22954 | 10.39401 | 79° | 37km/h | 909m | -7.8m/s | 19.6°C | 51.6% | 923.3hPa | 2.6V | 00:00:00 | 02:31:32 | 00:00:00 | |
| DO3MHA-11 | 2026-09-04 01:00:57 | 48.22951 | 10.39374 | 82° | 37km/h | 924m | -6.2m/s | 19.5°C | 51.8% | 921.8hPa | 2.6V | 07:54:00 | 02:31:30 | 00:00:00 | |
| DO3MHA-12 | 2026-09-04 01:00:57 | 48.22951 | 10.39374 | 82° | 37km/h | 924m | -6.2m/s | 19.5°C | 51.8% | 921.8hPa | 2.6V | 00:00:00 | 02:31:30 | 00:00:00 | |
| DO3MHA-12 | 2026-09-04 01:00:55 | 48.22948 | 10.39347 | 85° | 35km/h | 937m | -7.4m/s | 19.4°C | 52.0% | 920.4hPa | 2.6V | 00:00:00 | 02:31:28 | 00:00:00 | |
| DO3MHA-11 | 2026-09-04 01:00:55 | 48.22948 | 10.39347 | 85° | 35km/h | 937m | -7.4m/s | 19.4°C | 52.0% | 920.4hPa | 2.6V | 00:00:00 | 02:31:28 | 00:00:00 | |
| DO3MHA-12 | 2026-09-04 01:00:53 | 48.22947 | 10.39320 | 84° | 35km/h | 950m | -6.4m/s | 19.3°C | 52.2% | 918.7hPa | 2.7V | 00:00:00 | 02:31:26 | 00:00:00 | |
| DO3MHA-11 | 2026-09-04 01:00:52 | 48.22946 | 10.39307 | 87° | 35km/h | 957m | -6.8m/s | 19.3°C | 52.4% | 918.1hPa | 2.7V | 00:00:00 | 02:31:25 | 00:00:00 | |
| DO3MHA-12 | 2026-09-04 01:00:51 | 48.22945 | 10.39294 | 84° | 35km/h | 964m | -6.9m/s | 19.2°C | 52.6% | 917.3hPa | 2.7V | 00:00:00 | 02:31:24 | 00:00:00 | |
| DO3MHA-11 | 2026-09-04 01:00:50 | 48.22944 | 10.39281 | 85° | 35km/h | 971m | -6.7m/s | 19.2°C | 52.8% | 916.7hPa | 2.7V | 00:00:00 | 02:31:23 | 00:00:00 | |
| DO3MHA-12 | 2026-09-04 01:00:49 | 48.22943 | 10.39268 | 88° | 33km/h | 978m | -6.9m/s | 19.1°C | 53.0% | 915.8hPa | 2.7V | 00:00:00 | 02:31:22 | 00:00:00 | |
| DO3MHA-12 | 2026-09-04 01:00:47 | 48.22942 | 10.39242 | 86° | 35km/h | 991m | -6.8m/s | 19.0°C | 53.4% | 914.4hPa | 2.7V | 07:55:00 | 02:31:20 | 00:00:00 | |
| DO3MHA-11 | 2026-09-04 01:00:47 | 48.22942 | 10.39242 | 86° | 35km/h | 991m | -6.8m/s | 19.0°C | 53.4% | 914.4hPa | 2.7V | 00:00:00 | 02:31:20 | 00:00:00 | |
| DO3MHA-11 | 2026-09-04 01:00:45 | 48.22941 | 10.39217 | 89° | 33km/h | 1006m | -8.4m/s | 18.9°C | 53.8% | 912.9hPa | 2.7V | 00:00:00 | 02:31:18 | 00:00:00 | |
| DO3MHA-12 | 2026-09-04 01:00:45 | 48.22941 | 10.39217 | 89° | 33km/h | 1006m | -8.4m/s | 18.9°C | 53.8% | 912.9hPa | 2.7V | 00:00:00 | 02:31:18 | 00:00:00 | |
| DO3MHA-12 | 2026-09-04 01:00:43 | 48.22941 | 10.39192 | 91° | 33km/h | 1021m | -6.8m/s | 18.7°C | 54.3% | 911.4hPa | 2.7V | 00:00:00 | 02:31:16 | 00:00:00 | |
| DO3MHA-11 | 2026-09-04 01:00:42 | 48.22941 | 10.39180 | 92° | 33km/h | 1028m | -7.4m/s | 18.7°C | 54.5% | 910.7hPa | 2.7V | 00:00:00 | 02:31:15 | 00:00:00 | |
| DO3MHA-12 | 2026-09-04 01:00:41 | 48.22941 | 10.39167 | 92° | 33km/h | 1035m | -7.3m/s | 18.6°C | 54.7% | 909.9hPa | 2.7V | 00:00:00 | 02:31:14 | 00:00:00 | |
| DO3MHA-12 | 2026-09-04 01:00:39 | 48.22941 | 10.39142 | 89° | 33km/h | 1049m | -7.8m/s | 18.5°C | 55.2% | 908.3hPa | 2.7V | 00:00:00 | 02:31:12 | 00:00:00 | |
| DO3MHA-11 | 2026-09-04 01:00:38 | 48.22941 | 10.39130 | 91° | 33km/h | 1058m | -8.5m/s | 18.4°C | 55.4% | 907.5hPa | 2.7V | 07:55:00 | 02:31:11 | 00:00:00 | |
| DO3MHA-12 | 2026-09-04 01:00:37 | 48.22941 | 10.39118 | 90° | 31km/h | 1066m | -8.5m/s | 18.4°C | 55.7% | 906.7hPa | 2.7V | 00:00:00 | 02:31:10 | 00:00:00 | |
| DO3MHA-12 | 2026-09-04 01:00:35 | 48.22942 | 10.39095 | 91° | 31km/h | 1082m | -7.4m/s | 18.3°C | 55.9% | 904.9hPa | 2.7V | 00:00:00 | 02:31:08 | 00:00:00 | |
| DO3MHA-11 | 2026-09-04 01:00:33 | 48.22942 | 10.39072 | 91° | 27km/h | 1097m | -7.1m/s | 18.2°C | 56.1% | 903.3hPa | 2.7V | 00:00:00 | 02:31:06 | 00:00:00 | |
| DO3MHA-12 | 2026-09-04 01:00:33 | 48.22942 | 10.39072 | 91° | 29km/h | 1097m | -7.1m/s | 18.2°C | 56.1% | 903.3hPa | 2.7V | 00:00:00 | 02:31:06 | 00:00:00 | |
| DO3MHA-12 | 2026-09-04 01:00:31 | 48.22943 | 10.39050 | 93° | 29km/h | 1112m | -6.7m/s | 18.0°C | 56.2% | 901.7hPa | 2.7V | 07:55:00 | 02:31:04 | 00:00:00 | |
| DO3MHA-11 | 2026-09-04 01:00:30 | 48.22943 | 10.39038 | 91° | 31km/h | 1119m | -6.9m/s | 18.0°C | 56.3% | 901.1hPa | 2.7V | 00:00:00 | 02:31:03 | 00:00:00 | |
| DO3MHA-12 | 2026-09-04 01:00:29 | 48.22943 | 10.39027 | 91° | 31km/h | 1126m | -7.6m/s | 17.9°C | 56.5% | 900.3hPa | 2.6V | 00:00:00 | 02:31:02 | 00:00:00 | |
| DO3MHA-11 | 2026-09-04 01:00:28 | 48.22943 | 10.39015 | 91° | 33km/h | 1134m | -7.4m/s | 17.9°C | 56.6% | 899.5hPa | 2.6V | 00:00:00 | 02:31:01 | 00:00:00 | |
| DO3MHA-12 | 2026-09-04 01:00:27 | 48.22943 | 10.39002 | 91° | 31km/h | 1141m | -7.9m/s | 17.8°C | 56.6% | 898.7hPa | 2.6V | 00:00:00 | 02:31:00 | 00:00:00 | |
| DO3MHA-11 | 2026-09-04 01:00:26 | 48.22943 | 10.38990 | 95° | 29km/h | 1149m | -6.9m/s | 17.7°C | 56.9% | 897.9hPa | 2.6V | 00:00:00 | 02:30:59 | 00:00:00 | |
| DO3MHA-12 | 2026-09-04 01:00:25 | 48.22944 | 10.38979 | 94° | 27km/h | 1156m | -7.3m/s | 17.6°C | 57.1% | 896.9hPa | 2.6V | 00:00:00 | 02:30:58 | 00:00:00 | |
| DO3MHA-11 | 2026-09-04 01:00:24 | 48.22944 | 10.38968 | 91° | 27km/h | 1163m | -7.9m/s | 17.6°C | 57.3% | 896.2hPa | 2.7V | 00:00:00 | 02:30:57 | 00:00:00 | |
| DO3MHA-12 | 2026-09-04 01:00:23 | 48.22944 | 10.38958 | 91° | 27km/h | 1171m | -8.4m/s | 17.5°C | 57.4% | 895.5hPa | 2.6V | 00:00:00 | 02:30:56 | 00:00:00 | |
| DO3MHA-11 | 2026-09-04 01:00:22 | 48.22944 | 10.38947 | 91° | 29km/h | 1179m | -8.6m/s | 17.5°C | 57.5% | 894.7hPa | 2.6V | 00:00:00 | 02:30:55 | 00:00:00 | |
| DO3MHA-12 | 2026-09-04 01:00:21 | 48.22945 | 10.38936 | 92° | 31km/h | 1188m | -7.8m/s | 17.4°C | 57.6% | 893.7hPa | 2.6V | 00:00:00 | 02:30:54 | 00:00:00 | |
| DO3MHA-11 | 2026-09-04 01:00:20 | 48.22945 | 10.38924 | 92° | 31km/h | 1195m | -7.4m/s | 17.3°C | 57.8% | 893.0hPa | 2.6V | 00:00:00 | 02:30:53 | 00:00:00 | |
| DO3MHA-12 | 2026-09-04 01:00:19 | 48.22945 | 10.38912 | 95° | 31km/h | 1203m | -7.7m/s | 17.3°C | 57.9% | 892.2hPa | 2.6V | 00:00:00 | 02:30:52 | 00:00:00 | |
| DO3MHA-11 | 2026-09-04 01:00:18 | 48.22946 | 10.38900 | 98° | 29km/h | 1211m | -8.0m/s | 17.2°C | 58.2% | 891.3hPa | 2.7V | 07:55:00 | 02:30:51 | 00:00:00 | |
| DO3MHA-12 | 2026-09-04 01:00:17 | 48.22947 | 10.38889 | 94° | 27km/h | 1219m | -7.8m/s | 17.1°C | 58.4% | 890.5hPa | 2.7V | 00:00:00 | 02:30:50 | 00:00:00 | |
| DO3MHA-11 | 2026-09-04 01:00:17 | 48.22947 | 10.38879 | 93° | 29km/h | 1227m | -8.7m/s | 17.1°C | 58.7% | 889.8hPa | 2.7V | 00:00:00 | 02:30:49 | 00:00:00 | |
| DO3MHA-12 | 2026-09-04 01:00:15 | 48.22947 | 10.38867 | 93° | 31km/h | 1235m | -7.9m/s | 17.0°C | 58.9% | 889.0hPa | 2.7V | 07:55:00 | 02:30:48 | 00:00:00 | |
| DO3MHA-11 | 2026-09-04 01:00:14 | 48.22948 | 10.38856 | 96° | 29km/h | 1243m | -8.1m/s | 16.9°C | 59.3% | 888.1hPa | 2.7V | 00:00:00 | 02:30:47 | 00:00:00 | |
| DO3MHA-12 | 2026-09-04 01:00:13 | 48.22949 | 10.38844 | 98° | 29km/h | 1251m | -8.2m/s | 16.9°C | 59.4% | 887.4hPa | 2.7V | 00:00:00 | 02:30:46 | 00:00:00 | |
| DO3MHA-11 | 2026-09-04 01:00:12 | 48.22949 | 10.38833 | 93° | 29km/h | 1259m | -8.2m/s | 16.8°C | 59.6% | 886.6hPa | 2.7V | 00:00:00 | 02:30:45 | 00:00:00 | |
| DO3MHA-12 | 2026-09-04 01:00:11 | 48.22949 | 10.38822 | 93° | 31km/h | 1267m | -7.8m/s | 16.7°C | 59.8% | 885.6hPa | 2.7V | 00:00:00 | 02:30:44 | 00:00:00 | |
| DO3MHA-11 | 2026-09-04 01:00:10 | 48.22950 | 10.38810 | 93° | 33km/h | 1274m | -7.0m/s | 16.7°C | 60.0% | 884.9hPa | 2.7V | 00:00:00 | 02:30:43 | 00:00:00 | |
| DO3MHA-12 | 2026-09-04 01:00:09 | 48.22950 | 10.38797 | 95° | 31km/h | 1282m | -7.8m/s | 16.6°C | 60.2% | 884.2hPa | 2.7V | 00:00:00 | 02:30:42 | 00:00:00 | |
| DO3MHA-11 | 2026-09-04 01:00:08 | 48.22951 | 10.38786 | 97° | 29km/h | 1289m | -6.9m/s | 16.5°C | 60.5% | 883.3hPa | 2.7V | 00:00:00 | 02:30:41 | 00:00:00 | |
| DO3MHA-12 | 2026-09-04 01:00:07 | 48.22952 | 10.38774 | 98° | 29km/h | 1296m | -7.4m/s | 16.5°C | 60.7% | 882.5hPa | 2.7V | 00:00:00 | 02:30:40 | 00:00:00 | |
| DO3MHA-11 | 2026-09-04 01:00:06 | 48.22953 | 10.38762 | 98° | 29km/h | 1304m | -8.1m/s | 16.4°C | 60.9% | 881.5hPa | 2.7V | 00:00:00 | 02:30:39 | 00:00:00 | |
| DO3MHA-12 | 2026-09-04 01:00:05 | 48.22954 | 10.38751 | 95° | 29km/h | 1311m | -7.6m/s | 16.3°C | 61.0% | 880.7hPa | 2.6V | 00:00:00 | 02:30:38 | 00:00:00 | |
| DO3MHA-11 | 2026-09-04 01:00:04 | 48.22955 | 10.38740 | 95° | 29km/h | 1319m | -7.6m/s | 16.3°C | 61.2% | 879.9hPa | 2.6V | 00:00:00 | 02:30:37 | 00:00:00 | |
| DO3MHA-11 | 2026-09-04 01:00:02 | 48.22956 | 10.38717 | 95° | 29km/h | 1334m | -7.7m/s | 16.2°C | 61.6% | 878.3hPa | 2.6V | 07:55:00 | 02:30:35 | 00:00:00 | |
| DO3MHA-12 | 2026-09-04 01:00:01 | 48.22957 | 10.38706 | 94° | 29km/h | 1342m | -8.5m/s | 16.1°C | 61.9% | 877.7hPa | 2.6V | 00:00:00 | 02:30:34 | 00:00:00 | |
| DO3MHA-11 | 2026-09-04 01:00:00 | 48.22957 | 10.38695 | 91° | 31km/h | 1350m | -8.6m/s | 16.0°C | 62.0% | 876.7hPa | 2.6V | 00:00:00 | 02:30:33 | 00:00:00 | |
| DO3MHA-12 | 2026-09-04 00:59:59 | 48.22957 | 10.38683 | 91° | 31km/h | 1358m | -8.7m/s | 16.0°C | 62.3% | 875.9hPa | 2.7V | 07:55:00 | 02:30:32 | 00:00:00 | |
| DO3MHA-11 | 2026-09-04 00:59:58 | 48.22957 | 10.38672 | 91° | 33km/h | 1368m | -8.1m/s | 15.9°C | 62.4% | 875.0hPa | 2.7V | 00:00:00 | 02:30:31 | 00:00:00 | |
| DO3MHA-12 | 2026-09-04 00:59:57 | 48.22957 | 10.38659 | 91° | 35km/h | 1376m | -8.3m/s | 15.9°C | 62.5% | 874.2hPa | 2.7V | 00:00:00 | 02:30:30 | 00:00:00 | |
| DO3MHA-11 | 2026-09-04 00:59:56 | 48.22958 | 10.38647 | 91° | 35km/h | 1384m | -8.3m/s | 15.8°C | 62.7% | 873.5hPa | 2.7V | 00:00:00 | 02:30:29 | 00:00:00 | |
| DO3MHA-12 | 2026-09-04 00:59:55 | 48.22958 | 10.38634 | 94° | 35km/h | 1393m | -7.6m/s | 15.8°C | 62.9% | 872.7hPa | 2.7V | 00:00:00 | 02:30:28 | 00:00:00 | |
| DO3MHA-12 | 2026-09-04 00:59:53 | 48.22959 | 10.38608 | 93° | 35km/h | 1408m | -8.2m/s | 15.7°C | 63.3% | 871.0hPa | 2.7V | 00:00:00 | 02:30:26 | 00:00:00 | |
| DO3MHA-11 | 2026-09-04 00:59:52 | 48.22959 | 10.38595 | 93° | 35km/h | 1417m | -7.7m/s | 15.6°C | 63.7% | 870.2hPa | 2.7V | 00:00:00 | 02:30:25 | 00:00:00 | |
| DO3MHA-12 | 2026-09-04 00:59:51 | 48.22959 | 10.38582 | 92° | 35km/h | 1424m | -7.8m/s | 15.5°C | 64.1% | 869.4hPa | 2.7V | 00:00:00 | 02:30:24 | 00:00:00 | |
| DO3MHA-11 | 2026-09-04 00:59:50 | 48.22960 | 10.38568 | 95° | 35km/h | 1432m | -7.2m/s | 15.5°C | 63.8% | 868.7hPa | 2.7V | 00:00:00 | 02:30:23 | 00:00:00 | |
| DO3MHA-12 | 2026-09-04 00:59:49 | 48.22960 | 10.38555 | 97° | 33km/h | 1439m | -7.9m/s | 15.4°C | 63.8% | 867.6hPa | 2.7V | 00:00:00 | 02:30:22 | 00:00:00 | |
| DO3MHA-11 | 2026-09-04 00:59:48 | 48.22962 | 10.38542 | 96° | 33km/h | 1447m | -7.8m/s | 15.3°C | 64.1% | 867.0hPa | 2.7V | 00:00:00 | 02:30:21 | 00:00:00 | |
| DO3MHA-12 | 2026-09-04 00:59:47 | 48.22962 | 10.38530 | 92° | 33km/h | 1454m | -7.6m/s | 15.3°C | 64.4% | 866.2hPa | 2.6V | 00:00:00 | 02:30:20 | 00:00:00 | |
| DO3MHA-11 | 2026-09-04 00:59:46 | 48.22963 | 10.38518 | 93° | 35km/h | 1462m | -8.3m/s | 15.2°C | 64.7% | 865.3hPa | 2.6V | 07:56:00 | 02:30:19 | 00:00:00 | |
| DO3MHA-11 | 2026-09-04 00:59:44 | 48.22964 | 10.38491 | 95° | 33km/h | 1479m | -8.3m/s | 15.0°C | 65.7% | 863.5hPa | 2.6V | 00:00:00 | 02:30:17 | 00:00:00 | |
| DO3MHA-11 | 2026-09-04 00:59:42 | 48.22964 | 10.38466 | 91° | 33km/h | 1494m | -7.0m/s | 14.9°C | 66.5% | 861.9hPa | 2.6V | 00:00:00 | 02:30:15 | 00:00:00 | |
| DO3MHA-12 | 2026-09-04 00:59:42 | 48.22964 | 10.38466 | 91° | 33km/h | 1494m | -7.0m/s | 14.9°C | 66.5% | 861.9hPa | 2.6V | 07:56:00 | 02:30:15 | 00:00:00 | |
| DO3MHA-11 | 2026-09-04 00:59:38 | 48.22966 | 10.38415 | 91° | 33km/h | 1524m | -8.6m/s | 14.6°C | 67.3% | 858.6hPa | 2.7V | 00:00:00 | 02:30:11 | 00:00:00 | |
| DO3MHA-12 | 2026-09-04 00:59:38 | 48.22966 | 10.38415 | 91° | 33km/h | 1524m | -8.6m/s | 14.6°C | 67.3% | 858.6hPa | 2.7V | 00:00:00 | 02:30:11 | 00:00:00 | |
| DO3MHA-11 | 2026-09-04 00:59:33 | 48.22967 | 10.38353 | 89° | 35km/h | 1570m | -9.2m/s | 14.2°C | 68.0% | 854.7hPa | 2.7V | 00:00:00 | 02:30:06 | 00:00:00 | |
| DO3MHA-12 | 2026-09-04 00:59:33 | 48.22967 | 10.38353 | 89° | 35km/h | 1570m | -9.2m/s | 14.2°C | 68.0% | 854.7hPa | 2.7V | 00:00:00 | 02:30:06 | 00:00:00 | |
| DO3MHA-11 | 2026-09-04 00:59:28 | 48.22967 | 10.38288 | 90° | 35km/h | 1610m | -8.2m/s | 13.9°C | 68.7% | 850.7hPa | 2.7V | 00:00:00 | 02:30:01 | 00:00:00 | |
| DO3MHA-12 | 2026-09-04 00:59:28 | 48.22967 | 10.38288 | 90° | 35km/h | 1610m | -8.2m/s | 13.9°C | 68.7% | 850.7hPa | 2.7V | 00:00:00 | 02:30:01 | 00:00:00 | |
| DO3MHA-11 | 2026-09-04 00:59:18 | 48.22971 | 10.38155 | 95° | 37km/h | 1690m | -7.8m/s | 13.1°C | 72.5% | 842.3hPa | 2.7V | 00:00:00 | 02:29:51 | 00:00:00 | |
| DO3MHA-12 | 2026-09-04 00:59:18 | 48.22971 | 10.38155 | 95° | 37km/h | 1690m | -7.8m/s | 13.1°C | 72.5% | 842.3hPa | 2.7V | 00:00:00 | 02:29:51 | 00:00:00 | |
| DO3MHA-11 | 2026-09-04 00:59:13 | 48.22977 | 10.38087 | 100° | 35km/h | 1731m | -8.1m/s | 12.8°C | 75.2% | 838.3hPa | 2.7V | 07:56:00 | 02:29:46 | 00:00:00 | |
| DO3MHA-12 | 2026-09-04 00:59:13 | 48.22977 | 10.38087 | 100° | 35km/h | 1731m | -8.1m/s | 12.8°C | 75.2% | 838.3hPa | 2.7V | 00:00:00 | 02:29:46 | 00:00:00 | |
| DO3MHA-11 | 2026-09-04 00:59:03 | 48.22997 | 10.37954 | 103° | 37km/h | 1811m | -8.8m/s | 12.1°C | 78.5% | 830.2hPa | 2.7V | 00:00:00 | 02:29:36 | 00:00:00 | |
| DO3MHA-12 | 2026-09-04 00:59:03 | 48.22997 | 10.37954 | 103° | 37km/h | 1811m | -8.8m/s | 12.1°C | 78.5% | 830.2hPa | 2.7V | 07:56:00 | 02:29:36 | 00:00:00 | |
| DO3MHA-11 | 2026-09-04 00:58:58 | 48.23008 | 10.37886 | 105° | 38km/h | 1855m | -8.5m/s | 11.7°C | 80.1% | 826.1hPa | 2.7V | 00:00:00 | 02:29:31 | 00:00:00 | |
| DO3MHA-12 | 2026-09-04 00:58:58 | 48.23008 | 10.37886 | 105° | 38km/h | 1855m | -8.5m/s | 11.7°C | 80.1% | 826.1hPa | 2.7V | 00:00:00 | 02:29:31 | 00:00:00 | |
| DO3MHA-11 | 2026-09-04 00:58:53 | 48.23022 | 10.37817 | 106° | 38km/h | 1895m | -8.2m/s | 11.4°C | 81.4% | 822.2hPa | 2.6V | 00:00:00 | 02:29:26 | 00:00:00 | |
| DO3MHA-12 | 2026-09-04 00:58:53 | 48.23022 | 10.37817 | 106° | 38km/h | 1895m | -8.2m/s | 11.4°C | 81.4% | 822.2hPa | 2.6V | 00:00:00 | 02:29:26 | 00:00:00 | |
| DO3MHA-11 | 2026-09-04 00:58:48 | 48.23034 | 10.37748 | 103° | 37km/h | 1934m | -6.9m/s | 11.1°C | 83.1% | 818.3hPa | 2.6V | 00:00:00 | 02:29:21 | 00:00:00 | |
| DO3MHA-12 | 2026-09-04 00:58:48 | 48.23034 | 10.37748 | 103° | 37km/h | 1934m | -6.9m/s | 11.1°C | 83.1% | 818.3hPa | 2.6V | 00:00:00 | 02:29:21 | 00:00:00 | |
| DO3MHA-11 | 2026-09-04 00:58:43 | 48.23045 | 10.37682 | 104° | 35km/h | 1971m | -8.6m/s | 10.8°C | 85.0% | 814.4hPa | 2.6V | 00:00:00 | 02:29:16 | 00:00:00 | |
| DO3MHA-12 | 2026-09-04 00:58:43 | 48.23045 | 10.37682 | 104° | 35km/h | 1971m | -8.6m/s | 10.8°C | 85.0% | 814.4hPa | 2.6V | 00:00:00 | 02:29:16 | 00:00:00 | |
| DO3MHA-12 | 2026-09-04 00:58:38 | 48.23056 | 10.37617 | 100° | 33km/h | 2013m | -8.0m/s | 10.5°C | 86.6% | 810.3hPa | 2.6V | 00:00:00 | 02:29:11 | 00:00:00 | |
| DO3MHA-12 | 2026-09-04 00:58:28 | 48.23063 | 10.37492 | 88° | 33km/h | 2097m | -7.9m/s | 10.1°C | 91.3% | 802.5hPa | 2.6V | 00:00:00 | 02:29:01 | 00:00:00 | |
| DO3MHA-12 | 2026-09-04 00:58:23 | 48.23062 | 10.37428 | 84° | 35km/h | 2137m | -9.2m/s | 9.7°C | 92.8% | 798.4hPa | 2.6V | 07:57:00 | 02:28:56 | 00:00:00 | |
| DO3MHA-12 | 2026-09-04 00:58:18 | 48.23056 | 10.37362 | 81° | 33km/h | 2181m | -8.9m/s | 9.6°C | 91.8% | 794.4hPa | 2.6V | 00:00:00 | 02:28:51 | 00:00:00 | |
| NBG1-10 | 2026-09-04 00:58:16 | 48.23053 | 10.37337 | 81° | 37km/h | 2199m | -8.8m/s | 9.4°C | 91.9% | 792.7hPa | 2.6V | 00:00:00 | 02:28:49 | 00:00:00 | |
| DO3MHA-12 | 2026-09-04 00:58:13 | 48.23050 | 10.37298 | 84° | 37km/h | 2226m | -8.3m/s | 9.2°C | 93.2% | 790.3hPa | 2.6V | 00:00:00 | 02:28:46 | 00:00:00 | |
| DO3MHA-12 | 2026-09-04 00:58:08 | 48.23044 | 10.37230 | 85° | 35km/h | 2266m | -8.4m/s | 8.8°C | 94.7% | 786.6hPa | 2.6V | 00:00:00 | 02:28:41 | 00:00:00 | |
| DO3MHA-11 | 2026-09-04 00:58:07 | 48.23043 | 10.37217 | 83° | 35km/h | 2275m | -9.0m/s | 8.7°C | 95.1% | 785.7hPa | 2.6V | 00:00:00 | 02:28:40 | 00:00:00 | |
| DO3MHA-12 | 2026-09-04 00:58:03 | 48.23038 | 10.37164 | 82° | 37km/h | 2309m | -8.6m/s | 8.4°C | 96.2% | 782.4hPa | 2.6V | 00:00:00 | 02:28:36 | 00:00:00 | |
| DO3MHA-11 | 2026-09-04 00:58:02 | 48.23037 | 10.37150 | 80° | 38km/h | 2317m | -7.8m/s | 8.3°C | 96.7% | 781.7hPa | 2.6V | 00:00:00 | 02:28:35 | 00:00:00 | |
| DO3MHA-12 | 2026-09-04 00:57:58 | 48.23029 | 10.37095 | 77° | 38km/h | 2350m | -8.4m/s | 8.1°C | 97.5% | 778.5hPa | 2.6V | 00:00:00 | 02:28:31 | 00:00:00 | |
| DO3MHA-11 | 2026-09-04 00:57:57 | 48.23027 | 10.37080 | 76° | 38km/h | 2358m | -8.1m/s | 8.0°C | 98.2% | 777.7hPa | 2.6V | 00:00:00 | 02:28:30 | 00:00:00 | |
| NBG1-10 | 2026-09-04 00:57:54 | 48.23021 | 10.37038 | 78° | 38km/h | 2383m | -8.8m/s | 7.8°C | 0% | 775.6hPa | 2.7V | 00:00:00 | 02:28:27 | 00:00:00 | |
| DO3MHA-12 | 2026-09-04 00:57:53 | 48.23019 | 10.37024 | 79° | 38km/h | 2391m | -8.8m/s | 7.7°C | 0% | 774.8hPa | 2.6V | 00:00:00 | 02:28:26 | 00:00:00 | |
| DO3MHA-11 | 2026-09-04 00:57:51 | 48.23015 | 10.36995 | 80° | 38km/h | 2408m | -8.1m/s | 7.5°C | 0% | 773.2hPa | 2.6V | 07:58:00 | 02:28:24 | 00:00:00 | |
| DO3MHA-12 | 2026-09-04 00:57:48 | 48.23010 | 10.36953 | 79° | 38km/h | 2432m | -7.8m/s | 7.4°C | 0% | 771.0hPa | 2.6V | 00:00:00 | 02:28:21 | 00:00:00 | |
| DO3MHA-11 | 2026-09-04 00:57:46 | 48.23007 | 10.36924 | 79° | 38km/h | 2449m | -8.4m/s | 7.3°C | 0% | 769.5hPa | 2.6V | 00:00:00 | 02:28:19 | 00:00:00 | |
| DO3MHA-12 | 2026-09-04 00:57:43 | 48.23002 | 10.36882 | 80° | 40km/h | 2474m | -9.1m/s | 7.2°C | 0% | 767.2hPa | 2.6V | 07:58:00 | 02:28:16 | 00:00:00 | |
| DO3MHA-11 | 2026-09-04 00:57:41 | 48.22999 | 10.36853 | 83° | 38km/h | 2492m | -8.4m/s | 7.2°C | 0% | 765.7hPa | 2.7V | 00:00:00 | 02:28:14 | 00:00:00 | |
| DO3MHA-12 | 2026-09-04 00:57:38 | 48.22996 | 10.36808 | 85° | 40km/h | 2517m | -8.5m/s | 7.1°C | 0% | 763.3hPa | 2.6V | 00:00:00 | 02:28:11 | 00:00:00 | |
| DO3MHA-11 | 2026-09-04 00:57:36 | 48.22994 | 10.36779 | 84° | 40km/h | 2534m | -8.2m/s | 7.0°C | 0% | 761.7hPa | 2.6V | 00:00:00 | 02:28:09 | 00:00:00 | |
| DO3MHA-12 | 2026-09-04 00:57:33 | 48.22991 | 10.36732 | 86° | 40km/h | 2557m | -7.5m/s | 6.9°C | 0% | 759.3hPa | 2.6V | 00:00:00 | 02:28:06 | 00:00:00 | |
| NBG1-10 | 2026-09-04 00:57:32 | 48.22991 | 10.36717 | 86° | 44km/h | 2565m | -9.1m/s | 6.8°C | 0% | 758.6hPa | 2.6V | 00:00:00 | 02:28:05 | 00:00:00 | |
| DO3MHA-11 | 2026-09-04 00:57:31 | 48.22990 | 10.36701 | 86° | 40km/h | 2574m | -8.9m/s | 6.8°C | 0% | 757.7hPa | 2.6V | 00:00:00 | 02:28:04 | 00:00:00 | |
| DO3MHA-12 | 2026-09-04 00:57:28 | 48.22987 | 10.36655 | 84° | 40km/h | 2601m | -9.3m/s | 6.7°C | 0% | 755.3hPa | 2.6V | 00:00:00 | 02:28:01 | 00:00:00 | |
| DO3MHA-11 | 2026-09-04 00:57:24 | 48.22985 | 10.36593 | 90° | 44km/h | 2636m | -9.0m/s | 6.6°C | 98.9% | 752.1hPa | 2.7V | 00:00:00 | 02:27:57 | 00:00:00 | |
| DO3MHA-12 | 2026-09-04 00:57:23 | 48.22985 | 10.36577 | 91° | 46km/h | 2645m | -8.4m/s | 6.5°C | 99.3% | 751.1hPa | 2.7V | 00:00:00 | 02:27:56 | 00:00:00 | |
| DB0ND-19 | 2026-09-04 00:57:22 | 48.22984 | 10.36508 | 85° | 46km/h | 2681m | -10.5m/s | 6.4°C | 97.8% | 748.1hPa | 2.7V | 00:00:00 | 00:00:00 | 00:00:00 | |
| DO3MHA-11 | 2026-09-04 00:57:19 | 48.22984 | 10.36508 | 86° | 46km/h | 2681m | -10.4m/s | 6.3°C | 99.4% | 748.0hPa | 2.7V | 00:00:00 | 02:27:52 | 00:00:00 | |
| DO3MHA-12 | 2026-09-04 00:57:18 | 48.22983 | 10.36490 | 89° | 46km/h | 2691m | -10.7m/s | 6.3°C | 97.6% | 747.1hPa | 2.7V | 00:00:00 | 02:27:51 | 00:00:00 | |
| DO3MHA-11 | 2026-09-04 00:57:14 | 48.22982 | 10.36419 | 90° | 46km/h | 2733m | -10.7m/s | 5.9°C | 0% | 743.2hPa | 2.7V | 00:00:00 | 02:27:47 | 00:00:00 | |
| DO3MHA-12 | 2026-09-04 00:57:13 | 48.22982 | 10.36402 | 91° | 46km/h | 2743m | -9.6m/s | 5.8°C | 0% | 742.2hPa | 2.7V | 00:00:00 | 02:27:46 | 00:00:00 | |
| NBG1-10 | 2026-09-04 00:57:10 | 48.22983 | 10.36348 | 89° | 46km/h | 2773m | -10.9m/s | 6.3°C | 0% | 739.4hPa | 2.6V | 00:00:00 | 02:27:43 | 00:00:00 | |
| DO3MHA-11 | 2026-09-04 00:57:09 | 48.22983 | 10.36330 | 89° | 44km/h | 2783m | -10.4m/s | 6.0°C | 0% | 738.4hPa | 2.6V | 07:58:00 | 02:27:42 | 00:00:00 | |
| DO3MHA-12 | 2026-09-04 00:57:08 | 48.22982 | 10.36313 | 89° | 44km/h | 2793m | -9.9m/s | 5.5°C | 0% | 737.5hPa | 2.7V | 00:00:00 | 02:27:41 | 00:00:00 | |
| DO3MHA-11 | 2026-09-04 00:57:04 | 48.22981 | 10.36245 | 90° | 46km/h | 2831m | -8.8m/s | 5.3°C | 0% | 734.1hPa | 2.7V | 00:00:00 | 02:27:37 | 00:00:00 | |
| DO3MHA-12 | 2026-09-04 00:57:03 | 48.22982 | 10.36227 | 91° | 47km/h | 2840m | -9.1m/s | 5.2°C | 0% | 733.2hPa | 2.7V | 07:58:00 | 02:27:36 | 00:00:00 | |
| DF3TZ-5 | 2026-09-04 00:57:00 | 48.22983 | 10.36155 | 89° | 46km/h | 2876m | -8.6m/s | 5.6°C | 92.5% | 730.0hPa | 2.7V | 00:00:00 | 00:00:00 | 00:00:00 | |
| DB0ND-19 | 2026-09-04 00:56:51 | 48.22988 | 10.36014 | 95° | 47km/h | 2952m | -10.8m/s | 6.5°C | 67.2% | 723.2hPa | 2.7V | 00:00:00 | 00:00:00 | 00:00:00 | |
| DO3MHA-12 | 2026-09-04 00:56:48 | 48.22992 | 10.35960 | 98° | 47km/h | 2983m | -9.8m/s | 6.3°C | 68.2% | 720.6hPa | 2.7V | 00:00:00 | 02:27:21 | 00:00:00 | |
| DO3MHA-12 | 2026-09-04 00:56:43 | 48.23000 | 10.35869 | 99° | 47km/h | 3034m | -10.0m/s | 6.0°C | 70.9% | 716.4hPa | 2.7V | 00:00:00 | 02:27:16 | 00:00:00 | |
| DO3MHA-12 | 2026-09-04 00:56:38 | 48.23010 | 10.35779 | 102° | 47km/h | 3082m | -9.4m/s | 5.6°C | 79.8% | 712.2hPa | 2.6V | 00:00:00 | 02:27:11 | 00:00:00 | |
| DO3MHA-12 | 2026-09-04 00:56:33 | 48.23021 | 10.35688 | 102° | 49km/h | 3129m | -9.3m/s | 5.4°C | 75.4% | 708.2hPa | 2.6V | 00:00:00 | 02:27:06 | 00:00:00 | |
| DO3MHA-12 | 2026-09-04 00:56:28 | 48.23035 | 10.35597 | 103° | 49km/h | 3174m | -9.3m/s | 5.0°C | 76.2% | 704.3hPa | 2.6V | 00:00:00 | 02:27:01 | 00:00:00 | |
| NBG1-10 | 2026-09-04 00:56:26 | 48.23042 | 10.35562 | 108° | 51km/h | 3193m | -9.7m/s | 4.9°C | 74.3% | 702.8hPa | 2.6V | 00:00:00 | 02:26:59 | 00:00:00 | |
| DB0NH | 2026-09-04 00:56:23 | 48.23054 | 10.35508 | 110° | 51km/h | 3221m | -9.8m/s | 4.7°C | 73.8% | 700.3hPa | 2.6V | 00:00:00 | 02:26:56 | 00:00:00 | |
| DB0ND-19 | 2026-09-04 00:56:20 | 48.23066 | 10.35454 | 109° | 47km/h | 3247m | -8.9m/s | 4.5°C | 78.3% | 697.9hPa | 2.6V | 00:00:00 | 00:00:00 | 00:00:00 | |
| DO3MHA-12 | 2026-09-04 00:56:18 | 48.23074 | 10.35419 | 110° | 51km/h | 3264m | -8.2m/s | 4.4°C | 87.3% | 696.3hPa | 2.6V | 00:00:00 | 02:26:51 | 00:00:00 | |
| DO3MHA-11 | 2026-09-04 00:56:13 | 48.23097 | 10.35328 | 111° | 51km/h | 3309m | -8.0m/s | 4.4°C | 72.1% | 692.6hPa | 2.6V | 00:00:00 | 02:26:46 | 00:00:00 | |
| DO3MHA-12 | 2026-09-04 00:56:08 | 48.23120 | 10.35237 | 111° | 53km/h | 3352m | -9.2m/s | 4.2°C | 73.5% | 688.8hPa | 2.6V | 00:00:00 | 02:26:41 | 00:00:00 | |
| DO3MHA-12 | 2026-09-04 00:56:03 | 48.23141 | 10.35143 | 107° | 53km/h | 3397m | -9.2m/s | 4.0°C | 74.0% | 685.3hPa | 2.6V | 00:00:00 | 02:26:36 | 00:00:00 | |
| DF3TZ-5 | 2026-09-04 00:55:58 | 48.23165 | 10.35027 | 107° | 51km/h | 3451m | -8.7m/s | 3.8°C | 72.6% | 680.7hPa | 2.6V | 00:00:00 | 00:00:00 | 00:00:00 | |
| DB0ND-19 | 2026-09-04 00:55:49 | 48.23198 | 10.34875 | 109° | 51km/h | 3520m | -9.0m/s | 3.4°C | 74.6% | 674.9hPa | 2.6V | 00:00:00 | 00:00:00 | 00:00:00 | |
| DO3MHA-12 | 2026-09-04 00:55:48 | 48.23202 | 10.34856 | 110° | 53km/h | 3529m | -9.5m/s | 3.3°C | 77.2% | 674.1hPa | 2.6V | 00:00:00 | 02:26:21 | 00:00:00 | |
| DB0UT-7 | 2026-09-04 00:55:43 | 48.23227 | 10.34764 | 113° | 55km/h | 3574m | -9.7m/s | 3.2°C | 73.6% | 670.6hPa | 2.6V | 00:00:00 | 02:26:16 | 00:00:00 | |
| DO3MHA-12 | 2026-09-04 00:55:38 | 48.23256 | 10.34677 | 120° | 53km/h | 3621m | -9.4m/s | 3.6°C | 46.2% | 666.7hPa | 2.6V | 00:00:00 | 02:26:11 | 00:00:00 | |
| DO3MHA-12 | 2026-09-04 00:55:33 | 48.23291 | 10.34592 | 123° | 55km/h | 3664m | -8.0m/s | 3.8°C | 34.8% | 663.0hPa | 2.6V | 00:00:00 | 02:26:06 | 00:00:00 | |
| DO3MHA-12 | 2026-09-04 00:55:28 | 48.23329 | 10.34505 | 126° | 57km/h | 3708m | -8.4m/s | 3.8°C | 25.9% | 659.6hPa | 2.6V | 00:00:00 | 02:26:01 | 00:00:00 | |
| DF3TZ-5 | 2026-09-04 00:55:26 | 48.23346 | 10.34470 | 124° | 57km/h | 3726m | -8.5m/s | 3.9°C | 18.3% | 658.0hPa | 2.6V | 00:00:00 | 00:00:00 | 00:00:00 | |
| DO3MHA-12 | 2026-09-04 00:55:23 | 48.23371 | 10.34420 | 127° | 57km/h | 3754m | -8.5m/s | 4.1°C | 6.5% | 655.9hPa | 2.6V | 00:00:00 | 02:25:56 | 00:00:00 | |
| DO3MHA-12 | 2026-09-04 00:55:18 | 48.23414 | 10.34333 | 127° | 58km/h | 3799m | -8.6m/s | 4.2°C | 5.3% | 652.3hPa | 2.6V | 00:00:00 | 02:25:51 | 00:00:00 | |
| DO3MHA-12 | 2026-09-04 00:55:13 | 48.23459 | 10.34244 | 129° | 58km/h | 3844m | -9.6m/s | 4.1°C | 5.2% | 648.6hPa | 2.6V | 08:00:00 | 02:25:46 | 00:00:00 | |
| DO3MHA-12 | 2026-09-04 00:55:08 | 48.23506 | 10.34157 | 131° | 58km/h | 3888m | -9.3m/s | 4.0°C | 4.4% | 645.2hPa | 2.6V | 00:00:00 | 02:25:41 | 00:00:00 | |
| DO3MHA-12 | 2026-09-04 00:55:03 | 48.23557 | 10.34075 | 135° | 58km/h | 3933m | -8.6m/s | 3.9°C | 8.4% | 641.7hPa | 2.6V | 00:00:00 | 02:25:36 | 00:00:00 | |
| DF3TZ-5 | 2026-09-04 00:54:55 | 48.23643 | 10.33951 | 137° | 55km/h | 4005m | -9.7m/s | 3.2°C | 19.3% | 636.0hPa | 2.6V | 00:00:00 | 00:00:00 | 00:00:00 | |
| DB0ND-19 | 2026-09-04 00:54:47 | 48.23730 | 10.33833 | 137° | 58km/h | 4079m | -9.5m/s | 2.3°C | 54.3% | 630.4hPa | 2.6V | 00:00:00 | 00:00:00 | 00:00:00 | |
| DB0UT-7 | 2026-09-04 00:54:43 | 48.23775 | 10.33770 | 137° | 58km/h | 4113m | -8.5m/s | 1.9°C | 57.7% | 627.5hPa | 2.6V | 00:00:00 | 02:25:16 | 00:00:00 | |
| DO3MHA-11 | 2026-09-04 00:54:38 | 48.23829 | 10.33689 | 138° | 57km/h | 4157m | -8.3m/s | 1.6°C | 59.7% | 624.1hPa | 2.6V | 08:01:00 | 02:25:11 | 00:00:00 | |
| DO3MHA-11 | 2026-09-04 00:54:33 | 48.23881 | 10.33612 | 135° | 57km/h | 4204m | -8.9m/s | 1.2°C | 59.4% | 620.5hPa | 2.6V | 00:00:00 | 02:25:06 | 00:00:00 | |
| DO3MHA-12 | 2026-09-04 00:54:29 | 48.23923 | 10.33552 | 139° | 57km/h | 4240m | -8.8m/s | 0.9°C | 58.5% | 617.9hPa | 2.6V | 00:00:00 | 02:25:02 | 00:00:00 | |
| DO3MHA-11 | 2026-09-04 00:54:27 | 48.23944 | 10.33522 | 137° | 57km/h | 4258m | -9.7m/s | 0.7°C | 59.0% | 616.4hPa | 2.6V | 00:00:00 | 02:25:00 | 00:00:00 | |
| DO3MHA-12 | 2026-09-04 00:54:24 | 48.23977 | 10.33479 | 139° | 57km/h | 4285m | -9.3m/s | 0.5°C | 61.1% | 614.3hPa | 2.6V | 00:00:00 | 02:24:57 | 00:00:00 | |
| DO3MHA-11 | 2026-09-04 00:54:22 | 48.23997 | 10.33450 | 137° | 57km/h | 4304m | -8.9m/s | 0.3°C | 63.5% | 612.9hPa | 2.6V | 00:00:00 | 02:24:55 | 00:00:00 | |
| NBG1-10 | 2026-09-04 00:54:21 | 48.24008 | 10.33435 | 137° | 60km/h | 4313m | -8.8m/s | 0.2°C | 64.2% | 612.2hPa | 2.6V | 00:00:00 | 02:24:54 | 00:00:00 | |
| DO3MHA-12 | 2026-09-04 00:54:19 | 48.24029 | 10.33406 | 136° | 58km/h | 4332m | -9.0m/s | 0.0°C | 64.9% | 610.8hPa | 2.6V | 08:01:00 | 02:24:52 | 00:00:00 | |
| DO3MHA-11 | 2026-09-04 00:54:17 | 48.24051 | 10.33375 | 137° | 58km/h | 4349m | -9.0m/s | -0.0°C | 65.6% | 609.5hPa | 2.5V | 00:00:00 | 02:24:50 | 00:00:00 | |
| DO3MHA-12 | 2026-09-04 00:54:14 | 48.24083 | 10.33328 | 137° | 58km/h | 4374m | -9.1m/s | -0.2°C | 67.8% | 607.5hPa | 2.5V | 00:00:00 | 02:24:47 | 00:00:00 | |
| DB0UT-7 | 2026-09-04 00:54:13 | 48.24094 | 10.33313 | 137° | 60km/h | 4383m | -9.4m/s | -0.3°C | 68.5% | 606.9hPa | 2.5V | 00:00:00 | 00:00:00 | 00:00:00 | |
| DO3MHA-11 | 2026-09-04 00:54:12 | 48.24105 | 10.33297 | 138° | 60km/h | 4392m | -8.4m/s | -0.3°C | 69.1% | 606.1hPa | 2.5V | 00:00:00 | 02:24:45 | 00:00:00 | |
| DO3MHA-12 | 2026-09-04 00:54:09 | 48.24138 | 10.33251 | 135° | 60km/h | 4418m | -8.8m/s | -0.5°C | 68.3% | 604.2hPa | 2.5V | 00:00:00 | 02:24:42 | 00:00:00 | |
| DO3MHA-11 | 2026-09-04 00:54:07 | 48.24160 | 10.33219 | 137° | 60km/h | 4435m | -8.7m/s | -0.6°C | 68.6% | 602.8hPa | 2.5V | 00:00:00 | 02:24:40 | 00:00:00 | |
| DO3MHA-12 | 2026-09-04 00:54:04 | 48.24193 | 10.33171 | 138° | 62km/h | 4463m | -9.5m/s | -0.7°C | 70.2% | 600.7hPa | 2.6V | 00:00:00 | 02:24:37 | 00:00:00 | |
| DO3MHA-11 | 2026-09-04 00:54:02 | 48.24216 | 10.33138 | 136° | 60km/h | 4481m | -9.3m/s | -0.8°C | 70.8% | 599.3hPa | 2.6V | 00:00:00 | 02:24:35 | 00:00:00 | |
| DF3TZ-5 | 2026-09-04 00:53:53 | 48.24316 | 10.32992 | 135° | 60km/h | 4564m | -8.3m/s | -1.1°C | 50.6% | 593.1hPa | 2.6V | 00:00:00 | 00:00:00 | 00:00:00 | |
| DB0ND-19 | 2026-09-04 00:53:46 | 48.24406 | 10.32857 | 133° | 62km/h | 4640m | -10.5m/s | -1.8°C | 59.8% | 587.7hPa | 2.6V | 00:00:00 | 00:00:00 | 00:00:00 | |
| DO3MHA-12 | 2026-09-04 00:53:44 | 48.24417 | 10.32840 | 136° | 66km/h | 4650m | -8.8m/s | -1.8°C | 62.1% | 587.0hPa | 2.6V | 00:00:00 | 02:24:17 | 00:00:00 | |
| DB0UT-7 | 2026-09-04 00:53:43 | 48.24429 | 10.32822 | 134° | 68km/h | 4659m | -9.4m/s | -1.9°C | 62.9% | 586.3hPa | 2.6V | 08:02:00 | 02:24:16 | 00:00:00 | |
| DO3MHA-11 | 2026-09-04 00:53:41 | 48.24451 | 10.32785 | 132° | 66km/h | 4678m | -8.8m/s | -2.0°C | 60.4% | 584.9hPa | 2.5V | 00:00:00 | 02:24:14 | 00:00:00 | |
| DO3MHA-12 | 2026-09-04 00:53:39 | 48.24473 | 10.32747 | 132° | 66km/h | 4697m | -10.0m/s | -2.1°C | 58.5% | 583.6hPa | 2.5V | 00:00:00 | 02:24:12 | 00:00:00 | |
| DO3MHA-11 | 2026-09-04 00:53:36 | 48.24506 | 10.32690 | 131° | 68km/h | 4726m | -10.2m/s | -2.4°C | 59.4% | 581.6hPa | 2.5V | 00:00:00 | 02:24:09 | 00:00:00 | |
| DO3MHA-12 | 2026-09-04 00:53:34 | 48.24528 | 10.32651 | 130° | 68km/h | 4747m | -8.4m/s | -2.5°C | 58.5% | 579.9hPa | 2.6V | 08:02:00 | 02:24:07 | 00:00:00 | |
| DO3MHA-11 | 2026-09-04 00:53:31 | 48.24561 | 10.32593 | 130° | 68km/h | 4774m | -9.7m/s | -2.7°C | 63.1% | 578.1hPa | 2.5V | 00:00:00 | 02:24:04 | 00:00:00 | |
| DO3MHA-12 | 2026-09-04 00:53:29 | 48.24582 | 10.32553 | 130° | 68km/h | 4793m | -8.6m/s | -2.8°C | 63.6% | 576.6hPa | 2.5V | 00:00:00 | 02:24:02 | 00:00:00 | |
| DB0NH | 2026-09-04 00:53:27 | 48.24603 | 10.32512 | 129° | 69km/h | 4811m | -8.7m/s | -2.9°C | 62.9% | 575.2hPa | 2.5V | 00:00:00 | 02:24:00 | 00:00:00 | |
| DO3MHA-11 | 2026-09-04 00:53:26 | 48.24615 | 10.32492 | 131° | 68km/h | 4819m | -9.2m/s | -3.0°C | 63.8% | 574.5hPa | 2.5V | 00:00:00 | 02:23:59 | 00:00:00 | |
| DO3MHA-12 | 2026-09-04 00:53:24 | 48.24636 | 10.32453 | 130° | 68km/h | 4838m | -9.7m/s | -3.1°C | 62.2% | 573.2hPa | 2.5V | 00:00:00 | 02:23:57 | 00:00:00 | |
| DF3TZ-5 | 2026-09-04 00:53:22 | 48.24658 | 10.32413 | 128° | 68km/h | 4858m | -10.6m/s | -3.2°C | 61.1% | 572.1hPa | 2.5V | 00:00:00 | 00:00:00 | 00:00:00 | |
| DO3MHA-11 | 2026-09-04 00:53:21 | 48.24669 | 10.32393 | 128° | 69km/h | 4867m | -8.3m/s | -3.2°C | 60.6% | 571.2hPa | 2.5V | 00:00:00 | 02:23:54 | 00:00:00 | |
| DO3MHA-12 | 2026-09-04 00:53:19 | 48.24690 | 10.32351 | 129° | 69km/h | 4884m | -9.0m/s | -3.3°C | 62.9% | 569.9hPa | 2.6V | 00:00:00 | 02:23:52 | 00:00:00 | |
| DO3MHA-11 | 2026-09-04 00:53:16 | 48.24724 | 10.32290 | 130° | 69km/h | 4912m | -10.5m/s | -3.5°C | 67.0% | 567.8hPa | 2.6V | 00:00:00 | 02:23:49 | 00:00:00 | |
| DO3MHA-12 | 2026-09-04 00:53:15 | 48.24747 | 10.32249 | 130° | 71km/h | 4931m | -9.4m/s | -3.6°C | 64.8% | 566.5hPa | 2.6V | 00:00:00 | 02:23:47 | 00:00:00 | |
| DB0UT-7 | 2026-09-04 00:53:13 | 48.24758 | 10.32228 | 132° | 71km/h | 4940m | -9.3m/s | -3.6°C | 58.7% | 565.9hPa | 2.6V | 00:00:00 | 00:00:00 | 00:00:00 | |
| DO3MHA-11 | 2026-09-04 00:53:11 | 48.24782 | 10.32188 | 131° | 71km/h | 4959m | -9.9m/s | -3.8°C | 55.1% | 564.5hPa | 2.6V | 00:00:00 | 02:23:44 | 00:00:00 | |
| DO3MHA-12 | 2026-09-04 00:53:09 | 48.24805 | 10.32148 | 131° | 71km/h | 4978m | -10.5m/s | -3.9°C | 53.2% | 563.1hPa | 2.6V | 00:00:00 | 02:23:42 | 00:00:00 | |
| DK5PH-5 | 2026-09-04 00:53:07 | 48.24829 | 10.32108 | 132° | 75km/h | 4998m | -9.7m/s | -4.0°C | 50.3% | 561.9hPa | 2.6V | 00:00:00 | 02:23:40 | 00:00:00 | |
| DO3MHA-11 | 2026-09-04 00:53:06 | 48.24841 | 10.32088 | 132° | 71km/h | 5007m | -8.6m/s | -4.0°C | 49.1% | 561.1hPa | 2.6V | 08:02:00 | 02:23:39 | 00:00:00 | |
| DO3MHA-12 | 2026-09-04 00:53:04 | 48.24865 | 10.32048 | 132° | 71km/h | 5024m | -9.5m/s | -4.1°C | 52.4% | 559.9hPa | 2.5V | 00:00:00 | 02:23:37 | 00:00:00 | |
| DL6DJ-15 | 2026-09-04 00:52:55 | 48.24987 | 10.31849 | 131° | 71km/h | 5119m | -9.2m/s | -4.7°C | 30.1% | 553.1hPa | 2.5V | 00:00:00 | 00:00:00 | 00:00:00 | |
| DF3TZ-5 | 2026-09-04 00:52:51 | 48.25023 | 10.31787 | 130° | 73km/h | 5145m | -10.2m/s | -4.9°C | 23.8% | 551.5hPa | 2.5V | 00:00:00 | 00:00:00 | 00:00:00 | |
| DO3MHA-11 | 2026-09-04 00:52:46 | 48.25085 | 10.31682 | 130° | 78km/h | 5194m | -8.9m/s | -5.2°C | 21.6% | 548.0hPa | 2.5V | 00:00:00 | 02:23:19 | 00:00:00 | |
| DO3MHA-12 | 2026-09-04 00:52:44 | 48.25110 | 10.31639 | 131° | 78km/h | 5211m | -9.6m/s | -5.3°C | 20.9% | 546.7hPa | 2.5V | 00:00:00 | 02:23:17 | 00:00:00 | |
| DB0UT-7 | 2026-09-04 00:52:43 | 48.25122 | 10.31618 | 132° | 82km/h | 5222m | -10.2m/s | -5.3°C | 18.5% | 546.1hPa | 2.5V | 00:00:00 | 02:23:16 | 00:00:00 | |
| NBG1-10 | 2026-09-04 00:52:42 | 48.25134 | 10.31596 | 131° | 82km/h | 5232m | -10.5m/s | -5.3°C | 20.0% | 545.5hPa | 2.5V | 00:00:00 | 02:23:15 | 00:00:00 | |
| DO3MHA-11 | 2026-09-04 00:52:36 | 48.25212 | 10.31462 | 132° | 82km/h | 5293m | -10.6m/s | -5.8°C | 28.0% | 541.2hPa | 2.5V | 00:00:00 | 02:23:09 | 00:00:00 | |
| DK7TD | 2026-09-04 00:52:18 | 48.25468 | 10.31050 | 131° | 86km/h | 5472m | -9.7m/s | -7°C | 32.6% | 528.8hPa | 2.6V | 08:04:28 | 02:22:51 | 00:00:00 | |
| DK7TD | 2026-09-04 00:52:04 | 48.25667 | 10.30709 | 131° | 86km/h | 5610m | -10.9m/s | -7.5°C | 25.7% | 519.7hPa | 2.5V | 08:04:28 | 02:22:37 | 00:00:00 | |
| DK7TD | 2026-09-04 00:51:53 | 48.25823 | 10.30435 | 130° | 88km/h | 5710m | -10.1m/s | -8.1°C | 25.4% | 513.1hPa | 2.5V | 08:04:28 | 02:22:26 | 00:00:00 | |
| DL6DJ-15 | 2026-09-04 00:51:52 | 48.25837 | 10.30409 | 128° | 88km/h | 5720m | -8.7m/s | -8.2°C | 21.0% | 512.4hPa | 2.6V | 00:00:00 | 00:00:00 | 00:00:00 | |
| DF3TZ-5 | 2026-09-04 00:51:49 | 48.25878 | 10.30331 | 129° | 86km/h | 5748m | -10.5m/s | -8.4°C | 24.1% | 510.7hPa | 2.6V | 00:00:00 | 00:00:00 | 00:00:00 | |
| DK7TD | 2026-09-04 00:51:43 | 48.25959 | 10.30175 | 129° | 84km/h | 5808m | -10.2m/s | -8.9°C | 32.5% | 506.7hPa | 2.6V | 08:04:28 | 02:22:16 | 00:00:00 | |
| DK7TD | 2026-09-04 00:51:32 | 48.26104 | 10.29890 | 126° | 84km/h | 5923m | -11m/s | -9.5°C | 22.4% | 499.2hPa | 2.6V | 08:04:28 | 02:22:05 | 00:00:00 | |
| DK7TD | 2026-09-04 00:51:22 | 48.26231 | 10.29635 | 128° | 82km/h | 6027m | -9.7m/s | -10.1°C | 25% | 492.5hPa | 2.5V | 08:05:19 | 02:21:55 | 00:00:00 | |
| DK7TD | 2026-09-04 00:51:12 | 48.26354 | 10.29387 | 127° | 80km/h | 6128m | -10m/s | -10.3°C | 21.2% | 486.1hPa | 2.5V | 08:05:19 | 02:21:45 | 00:00:00 | |
| DK7TD | 2026-09-04 00:51:01 | 48.26480 | 10.29110 | 122° | 80km/h | 6239m | -10.5m/s | -10.9°C | 37.4% | 479.1hPa | 2.5V | 08:05:19 | 02:21:34 | 00:00:00 | |
| DK7TD | 2026-09-04 00:50:50 | 48.26599 | 10.28834 | 122° | 77km/h | 6353m | -11m/s | -11.5°C | 35.5% | 472hPa | 2.5V | 08:05:19 | 02:21:23 | 00:00:00 | |
| DF3TZ-5 | 2026-09-04 00:50:47 | 48.26630 | 10.28760 | 121° | 77km/h | 6386m | -9.9m/s | -11.7°C | 33.0% | 470.1hPa | 2.5V | 00:00:00 | 00:00:00 | 00:00:00 | |
| DK7TD | 2026-09-04 00:50:39 | 48.26712 | 10.28567 | 123° | 73km/h | 6472m | -11.9m/s | -12°C | 50.1% | 464.8hPa | 2.5V | 08:05:19 | 02:21:12 | 00:00:00 | |
| DK7TD | 2026-09-04 00:50:29 | 48.26814 | 10.28327 | 122° | 77km/h | 6574m | -8.6m/s | -12.6°C | 49.2% | 458.5hPa | 2.6V | 08:06:10 | 02:21:02 | 00:00:00 | |
| DK7TD | 2026-09-04 00:50:19 | 48.26915 | 10.28090 | 123° | 73km/h | 6673m | -10.3m/s | -13.3°C | 44.4% | 452.5hPa | 2.6V | 08:06:10 | 02:20:52 | 00:00:00 | |
| DK7TD | 2026-09-04 00:50:08 | 48.27023 | 10.27834 | 122° | 73km/h | 6785m | -10m/s | -14°C | 46% | 445.9hPa | 2.5V | 08:06:10 | 02:20:41 | 00:00:00 | |
| DK7TD | 2026-09-04 00:49:58 | 48.27118 | 10.27598 | 120° | 73km/h | 6885m | -9.9m/s | -14.7°C | 45.3% | 440.1hPa | 2.5V | 08:06:10 | 02:20:31 | 00:00:00 | |
| DK7TD | 2026-09-04 00:49:47 | 48.27219 | 10.27344 | 124° | 71km/h | 6991m | -9.7m/s | -15.3°C | 46% | 434.1hPa | 2.5V | 08:06:10 | 02:20:20 | 00:00:00 | |
| DF3TZ-5 | 2026-09-04 00:49:45 | 48.27248 | 10.27276 | 122° | 69km/h | 7018m | -9.5m/s | -15.5°C | 41.3% | 432.4hPa | 2.6V | 00:00:00 | 00:00:00 | 00:00:00 | |
| DK7TD | 2026-09-04 00:49:36 | 48.27327 | 10.27092 | 123° | 73km/h | 7096m | -11.1m/s | -15.7°C | 36.4% | 428hPa | 2.6V | 08:07:01 | 02:20:09 | 00:00:00 | |
| DK7TD | 2026-09-04 00:49:25 | 48.27445 | 10.26841 | 124° | 75km/h | 7209m | -10m/s | -16.2°C | 28.9% | 421.8hPa | 2.5V | 08:07:01 | 02:19:58 | 00:00:00 | |
| DK7TD | 2026-09-04 00:49:14 | 48.27571 | 10.26586 | 128° | 80km/h | 7322m | -10.3m/s | -17°C | 29.1% | 415.4hPa | 2.5V | 08:07:01 | 02:19:47 | 00:00:00 | |
| DK7TD | 2026-09-04 00:49:04 | 48.27690 | 10.26345 | 126° | 80km/h | 7420m | -9m/s | -17.9°C | 32.8% | 410hPa | 2.6V | 08:07:01 | 02:19:37 | 00:00:00 | |
| DK7TD | 2026-09-04 00:48:53 | 48.27821 | 10.26076 | 126° | 78km/h | 7520m | -10.3m/s | -18.7°C | 33.7% | 404.5hPa | 2.5V | 08:07:01 | 02:19:26 | 00:00:00 | |
| DL6DJ-15 | 2026-09-04 00:48:46 | 48.27914 | 10.25881 | 126° | 78km/h | 7596m | -9.3m/s | -19.5°C | 29.1% | 400.3hPa | 2.6V | 00:00:00 | 00:00:00 | 00:00:00 | |
| DK7TD | 2026-09-04 00:48:43 | 48.27937 | 10.25833 | 125° | 77km/h | 7614m | -10.1m/s | -19.6°C | 35% | 399.3hPa | 2.6V | 08:07:52 | 02:19:16 | 00:00:00 | |
| DK7TD | 2026-09-04 00:48:33 | 48.28050 | 10.25581 | 123° | 78km/h | 7711m | -9.4m/s | -20.5°C | 41.5% | 394.1hPa | 2.6V | 08:07:52 | 02:19:06 | 00:00:00 | |
| DK7TD | 2026-09-04 00:48:22 | 48.28170 | 10.25289 | 121° | 84km/h | 7815m | -9.7m/s | -21.3°C | 55.8% | 388.6hPa | 2.6V | 08:07:52 | 02:18:55 | 00:00:00 | |
| DK7TD | 2026-09-04 00:48:11 | 48.28288 | 10.24996 | 120° | 82km/h | 7916m | -9m/s | -22.3°C | 61.7% | 383.1hPa | 2.5V | 08:07:52 | 02:18:44 | 00:00:00 | |
| DK7TD | 2026-09-04 00:48:01 | 48.28395 | 10.24732 | 120° | 80km/h | 8009m | -10.3m/s | -23.2°C | 67.3% | 378.5hPa | 2.5V | 08:07:52 | 02:18:34 | 00:00:00 | |
| DK7TD | 2026-09-04 00:47:50 | 48.28514 | 10.24446 | 124° | 80km/h | 8112m | -9.1m/s | -23.9°C | 68.9% | 373.2hPa | 2.6V | 08:08:43 | 02:18:23 | 00:00:00 | |
| DK7TD | 2026-09-04 00:47:40 | 48.28628 | 10.24188 | 125° | 84km/h | 8207m | -9.1m/s | -24.4°C | 65.2% | 368.4hPa | 2.5V | 08:08:43 | 02:18:13 | 00:00:00 | |
| DK7TD | 2026-09-04 00:47:30 | 48.28744 | 10.23928 | 122° | 84km/h | 8298m | -8.1m/s | -25.1°C | 64.2% | 363.7hPa | 2.6V | 08:08:43 | 02:18:03 | 00:00:00 | |
| DK7TD | 2026-09-04 00:47:20 | 48.28863 | 10.23664 | 124° | 84km/h | 8385m | -8.6m/s | -25.9°C | 66.8% | 359.3hPa | 2.5V | 08:08:43 | 02:17:53 | 00:00:00 | |
| DK7TD | 2026-09-04 00:47:09 | 48.28991 | 10.23373 | 124° | 84km/h | 8482m | -8.7m/s | -26.8°C | 68.3% | 354.5hPa | 2.5V | 08:08:43 | 02:17:42 | 00:00:00 | |
| DK7TD | 2026-09-04 00:46:59 | 48.29100 | 10.23113 | 120° | 82km/h | 8569m | -9.1m/s | -27.6°C | 69.2% | 350.2hPa | 2.6V | 08:09:34 | 02:17:32 | 00:00:00 | |
| DK7TD | 2026-09-04 00:46:49 | 48.29204 | 10.22840 | 120° | 82km/h | 8654m | -9m/s | -28.4°C | 66.9% | 346.1hPa | 2.6V | 08:09:34 | 02:17:22 | 00:00:00 | |
| DK7TD | 2026-09-04 00:46:38 | 48.29311 | 10.22546 | 118° | 78km/h | 8750m | -9.1m/s | -29.1°C | 65.3% | 341.5hPa | 2.5V | 08:09:34 | 02:17:11 | 00:00:00 | |
| DK7TD | 2026-09-04 00:46:27 | 48.29413 | 10.22266 | 120° | 75km/h | 8850m | -8.8m/s | -29.6°C | 57.3% | 336.9hPa | 2.5V | 08:09:34 | 02:17:00 | 00:00:00 | |
| DK7TD | 2026-09-04 00:46:16 | 48.29516 | 10.21998 | 118° | 73km/h | 8945m | -9m/s | -30.3°C | 54.6% | 332.4hPa | 2.5V | 08:10:25 | 02:16:49 | 00:00:00 | |
| DK7TD | 2026-09-04 00:46:05 | 48.29605 | 10.21736 | 118° | 69km/h | 9042m | -8.7m/s | -31°C | 49.2% | 327.9hPa | 2.5V | 08:10:25 | 02:16:38 | 00:00:00 | |
| DK7TD | 2026-09-04 00:45:55 | 48.29691 | 10.21514 | 123° | 69km/h | 9132m | -9.4m/s | -31.5°C | 38.4% | 323.8hPa | 2.5V | 08:10:25 | 02:16:28 | 00:00:00 | |
| DK7TD | 2026-09-04 00:45:44 | 48.29796 | 10.21273 | 125° | 71km/h | 9243m | -9.6m/s | -32.3°C | 42.2% | 318.8hPa | 2.6V | 08:10:25 | 02:16:17 | 00:00:00 | |
| DK7TD | 2026-09-04 00:45:33 | 48.29908 | 10.21030 | 124° | 73km/h | 9346m | -8.6m/s | -33.3°C | 41.4% | 314.1hPa | 2.6V | 08:10:25 | 02:16:06 | 00:00:00 | |
| DK7TD | 2026-09-04 00:45:23 | 48.30011 | 10.20810 | 124° | 71km/h | 9437m | -10.4m/s | -34.1°C | 44.2% | 310hPa | 2.6V | 08:11:16 | 02:15:56 | 00:00:00 | |
| DK7TD | 2026-09-04 00:45:12 | 48.30121 | 10.20569 | 125° | 69km/h | 9537m | -9.5m/s | -35.1°C | 47.6% | 305.7hPa | 2.6V | 08:11:16 | 02:15:45 | 00:00:00 | |
| DK7TD | 2026-09-04 00:45:02 | 48.30225 | 10.20352 | 125° | 73km/h | 9631m | -8.9m/s | -35.9°C | 48.3% | 301.5hPa | 2.6V | 08:11:16 | 02:15:35 | 00:00:00 | |
| DK7TD | 2026-09-04 00:44:51 | 48.30340 | 10.20099 | 126° | 73km/h | 9728m | -9.4m/s | -36.8°C | 54.3% | 297.3hPa | 2.6V | 08:11:16 | 02:15:24 | 00:00:00 | |
| DL1ZP-14 | 2026-09-04 00:44:46 | 48.30407 | 10.19964 | 126° | 71km/h | 9783m | -8.5m/s | -37.3°C | 45.3% | 294.9hPa | 2.6V | 00:00:00 | 00:00:00 | 00:00:00 | |
| DK7TD | 2026-09-04 00:44:41 | 48.30452 | 10.19878 | 130° | 71km/h | 9820m | -8.1m/s | -37.6°C | 53.4% | 293.4hPa | 2.5V | 08:11:16 | 02:15:14 | 00:00:00 | |
| DK7TD | 2026-09-04 00:44:30 | 48.30580 | 10.19644 | 130° | 71km/h | 9912m | -8.2m/s | -38.5°C | 58.2% | 289.4hPa | 2.5V | 08:12:07 | 02:15:03 | 00:00:00 | |
| DK7TD | 2026-09-04 00:44:19 | 48.30709 | 10.19412 | 130° | 73km/h | 10004m | -8.7m/s | -39.4°C | 62.8% | 285.6hPa | 2.5V | 08:12:07 | 02:14:52 | 00:00:00 | |
| DK7TD | 2026-09-04 00:44:09 | 48.30833 | 10.19196 | 130° | 75km/h | 10095m | -10m/s | -40.2°C | 68.3% | 281.9hPa | 2.5V | 08:12:07 | 02:14:42 | 00:00:00 | |
| DK7TD | 2026-09-04 00:43:59 | 48.30959 | 10.18984 | 133° | 75km/h | 10182m | -8.2m/s | -40.9°C | 72.6% | 278.3hPa | 2.6V | 08:12:07 | 02:14:32 | 00:00:00 | |
| DK7TD | 2026-09-04 00:43:48 | 48.31106 | 10.18757 | 134° | 75km/h | 10278m | -8.6m/s | -41.6°C | 76.1% | 274.4hPa | 2.6V | 08:12:07 | 02:14:21 | 00:00:00 | |
| DK7TD | 2026-09-04 00:43:37 | 48.31255 | 10.18525 | 136° | 78km/h | 10370m | -8.8m/s | -42.4°C | 78.1% | 270.8hPa | 2.6V | 08:12:58 | 02:14:10 | 00:00:00 | |
| DK7TD | 2026-09-04 00:43:27 | 48.31397 | 10.18316 | 136° | 78km/h | 10456m | -8.4m/s | -43.1°C | 78.3% | 267.3hPa | 2.5V | 08:12:58 | 02:14:00 | 00:00:00 | |
| DK7TD | 2026-09-04 00:43:16 | 48.31552 | 10.18088 | 138° | 77km/h | 10549m | -9.3m/s | -44°C | 80.1% | 263.7hPa | 2.5V | 08:12:58 | 02:13:49 | 00:00:00 | |
| DK7TD | 2026-09-04 00:43:06 | 48.31703 | 10.17882 | 138° | 84km/h | 10645m | -9.8m/s | -44.9°C | 78.2% | 259.9hPa | 2.5V | 08:12:58 | 02:13:39 | 00:00:00 | |
| DK7TD | 2026-09-04 00:42:55 | 48.31874 | 10.17645 | 138° | 82km/h | 10754m | -9m/s | -46°C | 81.5% | 255.7hPa | 2.6V | 08:12:58 | 02:13:28 | 00:00:00 | |
| DK7TD | 2026-09-04 00:42:44 | 48.32042 | 10.17405 | 135° | 84km/h | 10866m | -10.4m/s | -47°C | 82.7% | 251.4hPa | 2.6V | 08:13:49 | 02:13:17 | 00:00:00 | |
| DK7TD | 2026-09-04 00:42:34 | 48.32190 | 10.17181 | 134° | 84km/h | 10968m | -10.1m/s | -47.9°C | 85.8% | 247.6hPa | 2.5V | 08:13:49 | 02:13:07 | 00:00:00 | |
| DK7TD | 2026-09-04 00:42:23 | 48.32355 | 10.16938 | 135° | 84km/h | 11078m | -10.6m/s | -49°C | 86.8% | 243.6hPa | 2.5V | 08:13:49 | 02:12:56 | 00:00:00 | |
| DK7TD | 2026-09-04 00:42:13 | 48.32505 | 10.16719 | 134° | 82km/h | 11182m | -10.3m/s | -50°C | 88.4% | 239.7hPa | 2.6V | 08:13:49 | 02:12:46 | 00:00:00 | |
| DK7TD | 2026-09-04 00:42:03 | 48.32655 | 10.16498 | 137° | 84km/h | 11292m | -11.2m/s | -51.1°C | 83.9% | 235.7hPa | 2.5V | 08:13:49 | 02:12:36 | 00:00:00 | |
| DK7TD | 2026-09-04 00:41:52 | 48.32823 | 10.16255 | 136° | 86km/h | 11417m | -11m/s | -52.2°C | 72% | 231.2hPa | 2.5V | 08:14:40 | 02:12:25 | 00:00:00 | |
| DB0ND-19 | 2026-09-04 00:41:51 | 48.32839 | 10.16233 | 136° | 86km/h | 11429m | -12.4m/s | -52.3°C | 60.0% | 230.8hPa | 2.5V | 00:00:00 | 00:00:00 | 00:00:00 | |
| DF7PN | 2026-09-04 00:41:50 | 48.32855 | 10.16210 | 137° | 86km/h | 11441m | -12.1m/s | -52.4°C | 60.3% | 230.4hPa | 2.5V | 00:00:00 | 00:00:00 | 00:00:00 | |
| DK7TD | 2026-09-04 00:41:41 | 48.33003 | 10.16006 | 138° | 88km/h | 11537m | -10.9m/s | -53.3°C | 67.1% | 227hPa | 2.5V | 08:14:40 | 02:12:14 | 00:00:00 | |
| DK7TD | 2026-09-04 00:41:30 | 48.33186 | 10.15764 | 138° | 89km/h | 11655m | -11.3m/s | -54.2°C | 63.7% | 222.9hPa | 2.5V | 08:14:40 | 02:12:03 | 00:00:00 | |
| DK7TD | 2026-09-04 00:41:19 | 48.33373 | 10.15509 | 138° | 91km/h | 11791m | -11.5m/s | -55.3°C | 62.4% | 218.3hPa | 2.6V | 08:14:40 | 02:11:52 | 00:00:00 | |
| DK7TD | 2026-09-04 00:41:09 | 48.33545 | 10.15281 | 138° | 89km/h | 11903m | -11m/s | -56.3°C | 62.2% | 214.4hPa | 2.5V | 08:15:31 | 02:11:42 | 00:00:00 | |
| DK7TD | 2026-09-04 00:40:58 | 48.33731 | 10.15026 | 137° | 89km/h | 12021m | -11.5m/s | -57.3°C | 62% | 210.5hPa | 2.5V | 08:15:31 | 02:11:31 | 00:00:00 | |
| DK7TD | 2026-09-04 00:40:48 | 48.33899 | 10.14786 | 137° | 93km/h | 12131m | -10.2m/s | -58.3°C | 61.2% | 206.8hPa | 2.5V | 08:15:31 | 02:11:21 | 00:00:00 | |
| DF7PN | 2026-09-04 00:40:48 | 48.33917 | 10.14762 | 136° | 93km/h | 12142m | -10.4m/s | -58.3°C | 50.7% | 206.5hPa | 2.6V | 00:00:00 | 00:00:00 | 00:00:00 | |
| DK7TD | 2026-09-04 00:40:37 | 48.34089 | 10.14507 | 135° | 99km/h | 12248m | -10.4m/s | -59.3°C | 59.5% | 203hPa | 2.6V | 08:15:31 | 02:11:10 | 00:00:00 | |
| DK7TD | 2026-09-04 00:40:27 | 48.34262 | 10.14227 | 132° | 102km/h | 12361m | -11.3m/s | -60.2°C | 57.3% | 199.4hPa | 2.5V | 08:15:31 | 02:11:00 | 00:00:00 | |
| DK7TD | 2026-09-04 00:40:16 | 48.34458 | 10.13890 | 131° | 110km/h | 12490m | -12.3m/s | -61.2°C | 54.9% | 195.4hPa | 2.5V | 08:16:22 | 02:10:49 | 00:00:00 | |
| OE5DRO-10 | 2026-09-04 00:40:14 | 48.34493 | 10.13828 | 131° | 111km/h | 12514m | -11.7m/s | -61.4°C | 54.3% | 194.5hPa | 2.6V | 08:15:00 | 00:00:00 | 00:00:00 | |
| DB0UT-7 | 2026-09-04 00:40:13 | 48.34511 | 10.13797 | 132° | 111km/h | 12526m | -11.9m/s | -61.5°C | 54.1% | 194.2hPa | 2.6V | 08:15:00 | 00:00:00 | 00:00:00 | |
| DM0DOS-11 | 2026-09-04 00:40:12 | 48.34618 | 10.13613 | 130° | 108km/h | 12598m | -11.3m/s | -62.2°C | 52.6% | 191.9hPa | 2.6V | 08:15:45 | 02:10:40 | 00:00:00 | |
| DK7TD | 2026-09-04 00:40:06 | 48.34636 | 10.13582 | 131° | 110km/h | 12610m | -11.9m/s | -62.3°C | 51.9% | 191.6hPa | 2.5V | 08:16:22 | 02:10:39 | 00:00:00 | |
| DJ8HS-15 | 2026-09-04 00:40:05 | 48.34654 | 10.13550 | 131° | 113km/h | 12622m | -12.2m/s | -62.3°C | 52.3% | 191.2hPa | 2.6V | 00:00:00 | 02:10:38 | 00:00:00 | |
| AZAK | 2026-09-04 00:40:04 | 48.34672 | 10.13518 | 132° | 111km/h | 12634m | -11.4m/s | -62.5°C | 41.7% | 190.8hPa | 2.6V | 08:16:00 | 00:00:00 | 00:00:00 | |
| NBG1-10 | 2026-09-04 00:40:03 | 48.34691 | 10.13486 | 131° | 115km/h | 12645m | -11.6m/s | -62.5°C | 51.9% | 190.4hPa | 2.6V | 00:00:00 | 02:10:36 | 00:00:00 | |
| DM0DOS-11 | 2026-09-04 00:40:01 | 48.34824 | 10.13261 | 131° | 115km/h | 12729m | -11.7m/s | -63.2°C | 50.5% | 187.9hPa | 2.6V | 08:15:56 | 02:10:29 | 00:00:00 | |
| DK7TD | 2026-09-04 00:39:55 | 48.34844 | 10.13228 | 132° | 115km/h | 12741m | -11.7m/s | -63.2°C | 48.5% | 187.6hPa | 2.6V | 08:16:22 | 02:10:28 | 00:00:00 | |
| DF3TZ-5 | 2026-09-04 00:39:55 | 48.34863 | 10.13195 | 131° | 115km/h | 12752m | -11.0m/s | -63.2°C | 39.1% | 187.2hPa | 2.5V | 00:00:00 | 00:00:00 | 00:00:00 | |
| DO9HM | 2026-09-04 00:39:54 | 48.34843 | 10.13228 | 133° | 115km/h | 12741m | -11.7m/s | -63.2°C | 39.6% | 187.6hPa | 2.5V | 00:00:00 | 00:00:00 | 00:00:00 | |
| DM0DOS-11 | 2026-09-04 00:39:51 | 48.35020 | 10.12943 | 133° | 113km/h | 12845m | -12.2m/s | -63.9°C | 47.2% | 184.4hPa | 2.5V | 08:16:06 | 02:10:19 | 00:00:00 | |
| DK7TD | 2026-09-04 00:39:45 | 48.35039 | 10.12913 | 134° | 113km/h | 12857m | -11.5m/s | -64°C | 45.1% | 184hPa | 2.5V | 08:16:22 | 02:10:18 | 00:00:00 | |
| DJ8HS-15 | 2026-09-04 00:39:45 | 48.35039 | 10.12913 | 134° | 115km/h | 12857m | -11.4m/s | -64.0°C | 47.1% | 184.0hPa | 2.5V | 00:00:00 | 02:10:18 | 00:00:00 | |
| PG1ADW-2 | 2026-09-04 00:39:44 | 48.35059 | 10.12882 | 135° | 117km/h | 12869m | -11.4m/s | -64.1°C | 46.9% | 183.7hPa | 2.5V | 00:00:00 | 02:10:17 | 00:00:00 | |
| AZAK | 2026-09-04 00:39:43 | 48.35079 | 10.12851 | 135° | 113km/h | 12880m | -11.6m/s | -64.2°C | 36.0% | 183.4hPa | 2.5V | 08:16:00 | 00:00:00 | 00:00:00 | |
| DM0DOS-11 | 2026-09-04 00:39:41 | 48.35223 | 10.12635 | 135° | 117km/h | 12964m | -11.6m/s | -64.8°C | 44.8% | 180.8hPa | 2.5V | 08:16:16 | 02:10:09 | 00:00:00 | |
| DK7TD | 2026-09-04 00:39:34 | 48.35265 | 10.12573 | 136° | 117km/h | 12987m | -11.3m/s | -65°C | 41.4% | 180.2hPa | 2.5V | 08:16:22 | 02:10:07 | 00:00:00 | |
| DO3MHA-12 | 2026-09-04 00:39:31 | 48.35330 | 10.12482 | 138° | 117km/h | 13022m | -11.8m/s | -65.2°C | 44.1% | 179.1hPa | 2.6V | 00:00:00 | 02:10:04 | 00:00:00 | |
| NBG1-10 | 2026-09-04 00:39:30 | 48.35351 | 10.12453 | 139° | 113km/h | 13034m | -11.8m/s | -65.3°C | 44.2% | 178.8hPa | 2.6V | 00:00:00 | 02:10:03 | 00:00:00 | |
| DM0DOS-11 | 2026-09-04 00:39:29 | 48.35441 | 10.12336 | 140° | 117km/h | 13079m | -12.1m/s | -65.5°C | 43.9% | 177.4hPa | 2.6V | 08:16:26 | 02:09:59 | 00:00:00 | |
| DK7TD | 2026-09-04 00:39:23 | 48.35511 | 10.12252 | 142° | 119km/h | 13114m | -11.1m/s | -65.7°C | 38.7% | 176.5hPa | 2.5V | 08:17:13 | 02:09:56 | 00:00:00 | |
| DK7TD | 2026-09-04 00:39:12 | 48.35781 | 10.11971 | 148° | 117km/h | 13248m | -12.1m/s | -65.8°C | 35.9% | 172.6hPa | 2.5V | 08:17:13 | 02:09:45 | 00:00:00 | |
| DK7TD | 2026-09-04 00:39:02 | 48.36023 | 10.11750 | 148° | 106km/h | 13368m | -12.4m/s | -65.7°C | 30.3% | 169.2hPa | 2.6V | 08:17:13 | 02:09:35 | 00:00:00 | |
| DK7TD | 2026-09-04 00:38:51 | 48.36249 | 10.11509 | 140° | 99km/h | 13499m | -11.9m/s | -65.1°C | 24% | 165.6hPa | 2.6V | 08:17:13 | 02:09:24 | 00:00:00 | |
| DB0ND-19 | 2026-09-04 00:38:45 | 48.36382 | 10.11333 | 139° | 102km/h | 13588m | -11.9m/s | -65.1°C | 17.2% | 163.2hPa | 2.5V | 00:00:00 | 00:00:00 | 00:00:00 | |
| DK7TD | 2026-09-04 00:38:41 | 48.36440 | 10.11257 | 138° | 100km/h | 13625m | -12.8m/s | -65.3°C | 19.1% | 162.3hPa | 2.5V | 08:17:13 | 02:09:14 | 00:00:00 | |
| DK7TD | 2026-09-04 00:38:31 | 48.36623 | 10.11007 | 138° | 93km/h | 13756m | -12.4m/s | -63.8°C | 13.8% | 158.9hPa | 2.5V | 08:18:04 | 02:09:04 | 00:00:00 | |
| DK7TD | 2026-09-04 00:38:20 | 48.36788 | 10.10762 | 131° | 78km/h | 13899m | -12.8m/s | -63.3°C | 10.6% | 155.2hPa | 2.5V | 08:18:04 | 02:08:53 | 00:00:00 | |
| DK7TD | 2026-09-04 00:38:10 | 48.36924 | 10.10519 | 131° | 89km/h | 14029m | -12.3m/s | -63.1°C | 8.4% | 151.9hPa | 2.5V | 08:18:04 | 02:08:43 | 00:00:00 | |
| DK7TD | 2026-09-04 00:37:59 | 48.37090 | 10.10247 | 134° | 80km/h | 14175m | -14.2m/s | -62.7°C | 6.8% | 148.4hPa | 2.5V | 08:18:04 | 02:08:32 | 00:00:00 | |
| DK7TD | 2026-09-04 00:37:49 | 48.37229 | 10.10040 | 134° | 73km/h | 14309m | -14.9m/s | -61.5°C | 5.9% | 145.2hPa | 2.6V | 08:18:04 | 02:08:22 | 00:00:00 | |
| DK7TD | 2026-09-04 00:37:39 | 48.37343 | 10.09827 | 125° | 71km/h | 14444m | -13.1m/s | -61.8°C | 5.8% | 142.1hPa | 2.5V | 08:18:55 | 02:08:12 | 00:00:00 | |
| DK7TD | 2026-09-04 00:37:28 | 48.37467 | 10.09597 | 130° | 71km/h | 14592m | -16.8m/s | -62°C | 5.2% | 138.8hPa | 2.5V | 08:18:55 | 02:08:01 | 00:00:00 | |
| DK7TD | 2026-09-04 00:37:17 | 48.37583 | 10.09364 | 124° | 73km/h | 14742m | -13.7m/s | -61.7°C | 4.6% | 135.4hPa | 2.5V | 08:18:55 | 02:07:50 | 00:00:00 | |
| DK7TD | 2026-09-04 00:37:07 | 48.37696 | 10.09138 | 128° | 69km/h | 14881m | -14.7m/s | -62.3°C | 4.1% | 132.5hPa | 2.5V | 08:18:55 | 02:07:40 | 00:00:00 | |
| DM0DOS-11 | 2026-09-04 00:37:06 | 48.37728 | 10.09075 | 127° | 69km/h | 14923m | -14.2m/s | -62.2°C | 8.3% | 131.5hPa | 2.6V | 08:18:48 | 02:07:37 | 00:00:00 | |
| DK7TD | 2026-09-04 00:36:57 | 48.37803 | 10.08926 | 128° | 75km/h | 15018m | -13.8m/s | -61.6°C | 3.5% | 129.5hPa | 2.5V | 08:18:55 | 02:07:30 | 00:00:00 | |
| DK7TD | 2026-09-04 00:36:46 | 48.37927 | 10.08651 | 124° | 84km/h | 15171m | -14.2m/s | -60.5°C | 3.2% | 126.4hPa | 2.5V | 08:19:46 | 02:07:19 | 00:00:00 | |
| DO3MHA-11 | 2026-09-04 00:36:46 | 48.37927 | 10.08651 | 124° | 84km/h | 15171m | -14.1m/s | -60.4°C | 7.0% | 126.3hPa | 2.5V | 00:00:00 | 02:07:19 | 00:00:00 | |
| DJ8HS-15 | 2026-09-04 00:36:45 | 48.37939 | 10.08625 | 125° | 80km/h | 15185m | -13.6m/s | -60.4°C | 7.1% | 126.1hPa | 2.5V | 00:00:00 | 02:07:18 | 00:00:00 | |
| PG1ADW-2 | 2026-09-04 00:36:44 | 48.37951 | 10.08598 | 126° | 78km/h | 15198m | -13.8m/s | -60.5°C | 7.1% | 125.8hPa | 2.5V | 00:00:00 | 00:00:00 | 00:00:00 | |
| DB0UT-7 | 2026-09-04 00:36:43 | 48.37964 | 10.08572 | 128° | 77km/h | 15212m | -13.2m/s | -60.5°C | 7.2% | 125.5hPa | 2.5V | 00:00:00 | 02:07:16 | 00:00:00 | |
| DB0ND-19 | 2026-09-04 00:36:41 | 48.38005 | 10.08497 | 131° | 82km/h | 15250m | -13.3m/s | -60.7°C | 3.1% | 124.7hPa | 2.5V | 00:00:00 | 00:00:00 | 00:00:00 | |
| DM0DOS-11 | 2026-09-04 00:36:40 | 48.38061 | 10.08406 | 132° | 78km/h | 15304m | -14.2m/s | -60.6°C | 7.1% | 123.7hPa | 2.5V | 08:19:16 | 02:07:09 | 00:00:00 | |
| DK7TD | 2026-09-04 00:36:35 | 48.38074 | 10.08385 | 132° | 77km/h | 15319m | -14.5m/s | -60.7°C | 3.2% | 123.4hPa | 2.5V | 08:19:46 | 02:07:08 | 00:00:00 | |
| DK5PH-5 | 2026-09-04 00:36:35 | 48.38074 | 10.08384 | 132° | 69km/h | 15319m | -14.5m/s | -60.6°C | 7.1% | 123.4hPa | 2.6V | 00:00:00 | 02:07:08 | 00:00:00 | |
| DO3MHA-12 | 2026-09-04 00:36:31 | 48.38124 | 10.08294 | 129° | 77km/h | 15377m | -14.6m/s | -60.6°C | 7.2% | 122.3hPa | 2.6V | 00:00:00 | 02:07:04 | 00:00:00 | |
| OE9MKV-15 | 2026-09-04 00:36:29 | 48.38148 | 10.08249 | 128° | 66km/h | 15406m | -14.4m/s | -60.1°C | 6.8% | 121.7hPa | 2.5V | 00:00:00 | 02:07:02 | 00:00:00 | |
| DM0DOS-11 | 2026-09-04 00:36:28 | 48.38184 | 10.08182 | 128° | 75km/h | 15448m | -14.6m/s | -59.9°C | 6.7% | 120.9hPa | 2.6V | 08:19:26 | 02:06:59 | 00:00:00 | |
| DK7TD | 2026-09-04 00:36:25 | 48.38196 | 10.08160 | 129° | 75km/h | 15462m | -13.2m/s | -59.9°C | 3% | 120.6hPa | 2.5V | 08:19:46 | 02:06:58 | 00:00:00 | |
| DK7TD | 2026-09-04 00:36:14 | 48.38330 | 10.07934 | 133° | 64km/h | 15612m | -12.8m/s | -59.9°C | 2.9% | 117.7hPa | 2.5V | 08:19:46 | 02:06:47 | 00:00:00 | |
| DB0UT-7 | 2026-09-04 00:36:13 | 48.38341 | 10.07917 | 132° | 62km/h | 15625m | -12.1m/s | -59.8°C | 6.6% | 117.4hPa | 2.5V | 00:00:00 | 00:00:00 | 00:00:00 | |
| NBG1-10 | 2026-09-04 00:36:12 | 48.38351 | 10.07899 | 131° | 62km/h | 15637m | -12.5m/s | -59.8°C | 6.6% | 117.2hPa | 2.5V | 00:00:00 | 02:06:45 | 00:00:00 | |
| DO3MHA-12 | 2026-09-04 00:36:11 | 48.38361 | 10.07881 | 129° | 58km/h | 15650m | -13.4m/s | -59.8°C | 6.6% | 117.0hPa | 2.5V | 00:00:00 | 02:06:44 | 00:00:00 | |
| DM0DOS-11 | 2026-09-04 00:36:10 | 48.38403 | 10.07790 | 121° | 57km/h | 15719m | -15.3m/s | -59.7°C | 6.4% | 115.8hPa | 2.5V | 08:19:46 | 02:06:39 | 00:00:00 | |
| DB0ND-19 | 2026-09-04 00:36:10 | 48.38379 | 10.07845 | 124° | 58km/h | 15676m | -14.2m/s | -60.0°C | 2.7% | 116.5hPa | 2.5V | 00:00:00 | 00:00:00 | 00:00:00 | |
| DF7PN | 2026-09-04 00:36:08 | 48.38387 | 10.07827 | 123° | 58km/h | 15690m | -14.1m/s | -59.9°C | 2.7% | 116.3hPa | 2.5V | 00:00:00 | 00:00:00 | 00:00:00 | |
| OE5DRO-10 | 2026-09-04 00:36:07 | 48.38395 | 10.07808 | 122° | 64km/h | 15705m | -14.1m/s | -59.7°C | 6.5% | 116.0hPa | 2.5V | 00:00:00 | 00:00:00 | 00:00:00 | |
| DO3MHA-11 | 2026-09-04 00:36:06 | 48.38403 | 10.07790 | 122° | 58km/h | 15719m | -15.3m/s | -59.6°C | 6.4% | 115.7hPa | 2.5V | 00:00:00 | 02:06:39 | 00:00:00 | |
| IW2NTF | 2026-09-04 00:36:05 | 48.38438 | 10.07694 | 118° | 58km/h | 15794m | -14.6m/s | -60°C | 6.6% | 114.4hPa | 2.5V | 08:19:51 | 02:06:34 | 00:00:00 | |
| DK7TD | 2026-09-04 00:36:04 | 48.38417 | 10.07752 | 119° | 57km/h | 15749m | -14.4m/s | -59.8°C | 2.8% | 115.2hPa | 2.6V | 08:20:37 | 02:06:37 | 00:00:00 | |
| PG1ADW-2 | 2026-09-04 00:36:04 | 48.38417 | 10.07752 | 119° | 64km/h | 15749m | -14.4m/s | -59.7°C | 6.4% | 115.2hPa | 2.6V | 00:00:00 | 00:00:00 | 00:00:00 | |
| DL1ZP-14 | 2026-09-04 00:35:57 | 48.38469 | 10.07615 | 122° | 64km/h | 15850m | -14.3m/s | -60.1°C | 2.7% | 113.4hPa | 2.5V | 00:00:00 | 00:00:00 | 00:00:00 | |
| AZAK | 2026-09-04 00:35:56 | 48.38478 | 10.07594 | 125° | 66km/h | 15864m | -14.7m/s | -60.0°C | 2.6% | 113.1hPa | 2.5V | 08:20:00 | 00:00:00 | 00:00:00 | |
| DM7RM-13 | 2026-09-04 00:35:55 | 48.38478 | 10.07594 | 125° | 66km/h | 15864m | -14.7m/s | -60.0°C | 2.7% | 113.1hPa | 2.5V | 08:20:00 | 00:00:00 | 00:00:00 | |
| IW2NTF | 2026-09-04 00:35:54 | 48.38529 | 10.07486 | 126° | 71km/h | 15938m | -13.8m/s | -60.3°C | 6.7% | 111.7hPa | 2.5V | 08:20:01 | 02:06:24 | 00:00:00 | |
| DK7TD | 2026-09-04 00:35:53 | 48.38508 | 10.07530 | 126° | 69km/h | 15908m | -15.8m/s | -60.1°C | 2.8% | 112.3hPa | 2.6V | 08:20:37 | 02:06:26 | 00:00:00 | |
| DL6DJ-15 | 2026-09-04 00:35:49 | 48.38550 | 10.07444 | 125° | 68km/h | 15967m | -15.0m/s | -60.4°C | 2.7% | 111.3hPa | 2.6V | 00:00:00 | 00:00:00 | 00:00:00 | |
| DB0NH | 2026-09-04 00:35:48 | 48.38560 | 10.07423 | 127° | 64km/h | 15982m | -15.1m/s | -60.3°C | 6.7% | 111.0hPa | 2.6V | 08:20:00 | 02:06:21 | 00:00:00 | |
| IW2NTF | 2026-09-04 00:35:47 | 48.38628 | 10.07290 | 127° | 62km/h | 16089m | -15.6m/s | -59.8°C | 6.2% | 109.1hPa | 2.5V | 08:20:11 | 02:06:14 | 00:00:00 | |
| DK7TD | 2026-09-04 00:35:42 | 48.38618 | 10.07309 | 127° | 62km/h | 16074m | -15.1m/s | -59.8°C | 2.5% | 109.4hPa | 2.6V | 08:20:37 | 02:06:15 | 00:00:00 | |
| DM0DOS-11 | 2026-09-04 00:35:41 | 48.38665 | 10.07217 | 126° | 60km/h | 16155m | -17.1m/s | -59.9°C | 6.2% | 108hPa | 2.6V | 08:20:15 | 02:06:10 | 00:00:00 | |
| DO3MHA-12 | 2026-09-04 00:35:41 | 48.38628 | 10.07290 | 128° | 60km/h | 16090m | -15.6m/s | -59.7°C | 6.2% | 109.1hPa | 2.5V | 00:00:00 | 02:06:14 | 00:00:00 | |
| NBG1-10 | 2026-09-04 00:35:39 | 48.38647 | 10.07253 | 128° | 66km/h | 16123m | -16.8m/s | -59.7°C | 6.2% | 108.5hPa | 2.5V | 00:00:00 | 02:06:12 | 00:00:00 | |
| DF1GD-15 | 2026-09-04 00:35:38 | 48.38647 | 10.07253 | 129° | 60km/h | 16123m | -16.9m/s | -59.7°C | 2.4% | 108.6hPa | 2.5V | 08:20:00 | 00:00:00 | 00:00:00 | |
| DF7PN | 2026-09-04 00:35:37 | 48.38665 | 10.07217 | 126° | 60km/h | 16155m | -17.1m/s | -59.9°C | 2.4% | 108.0hPa | 2.5V | 00:00:00 | 00:00:00 | 00:00:00 | |
| DO3MHA-11 | 2026-09-04 00:35:36 | 48.38674 | 10.07198 | 127° | 60km/h | 16172m | -16.9m/s | -59.8°C | 6.2% | 107.7hPa | 2.5V | 00:00:00 | 02:06:09 | 00:00:00 | |
| AZAK | 2026-09-04 00:35:35 | 48.38683 | 10.07180 | 126° | 60km/h | 16189m | -16.4m/s | -60.0°C | 2.4% | 107.4hPa | 2.5V | 08:20:00 | 00:00:00 | 00:00:00 | |
| IW2NTF | 2026-09-04 00:35:34 | 48.38715 | 10.07104 | 119° | 60km/h | 16252m | -14.7m/s | -60°C | 6.3% | 106.2hPa | 2.5V | 08:20:21 | 02:06:04 | 00:00:00 | |
| DK7TD | 2026-09-04 00:35:32 | 48.38707 | 10.07123 | 121° | 60km/h | 16237m | -15.4m/s | -60°C | 2.5% | 106.5hPa | 2.6V | 08:20:37 | 02:06:05 | 00:00:00 | |
| DO3MHA-12 | 2026-09-04 00:35:31 | 48.38715 | 10.07104 | 120° | 66km/h | 16252m | -14.6m/s | -60.0°C | 6.3% | 106.2hPa | 2.5V | 00:00:00 | 02:06:04 | 00:00:00 | |
| OE5DRO-10 | 2026-09-04 00:35:29 | 48.38730 | 10.07063 | 119° | 69km/h | 16282m | -14.7m/s | -60.0°C | 6.3% | 105.7hPa | 2.5V | 00:00:00 | 00:00:00 | 00:00:00 | |
| DL1ZP-14 | 2026-09-04 00:35:27 | 48.38753 | 10.06999 | 119° | 66km/h | 16328m | -16.2m/s | -60.2°C | 2.4% | 105.0hPa | 2.6V | 00:00:00 | 00:00:00 | 00:00:00 | |
| DO3MHA-11 | 2026-09-04 00:35:26 | 48.38753 | 10.06999 | 120° | 69km/h | 16328m | -16.1m/s | -60.2°C | 6.3% | 105.0hPa | 2.6V | 00:00:00 | 02:05:59 | 00:00:00 | |
| IW2NTF | 2026-09-04 00:35:25 | 48.38798 | 10.06886 | 121° | 69km/h | 16407m | -14.6m/s | -60.5°C | 6.6% | 103.7hPa | 2.6V | 08:20:31 | 02:05:54 | 00:00:00 | |
| DK7TD | 2026-09-04 00:35:22 | 48.38788 | 10.06909 | 122° | 71km/h | 16392m | -16m/s | -60.4°C | 2.4% | 104hPa | 2.5V | 08:20:37 | 02:05:55 | 00:00:00 | |
| DO3MHA-12 | 2026-09-04 00:35:21 | 48.38798 | 10.06886 | 122° | 69km/h | 16407m | -14.6m/s | -60.5°C | 6.6% | 103.6hPa | 2.6V | 00:00:00 | 02:05:54 | 00:00:00 | |
| DB0NH | 2026-09-04 00:35:18 | 48.38825 | 10.06818 | 119° | 68km/h | 16453m | -15.9m/s | -60.6°C | 6.6% | 102.9hPa | 2.6V | 00:00:00 | 02:05:51 | 00:00:00 | |
| DF1GD-15 | 2026-09-04 00:35:17 | 48.38825 | 10.06818 | 120° | 68km/h | 16453m | -15.9m/s | -60.7°C | 2.5% | 103.0hPa | 2.6V | 08:20:00 | 00:00:00 | 00:00:00 | |
| IW2NTF | 2026-09-04 00:35:16 | 48.38879 | 10.06653 | 112° | 71km/h | 16566m | -16.4m/s | -60.5°C | 6.7% | 101.1hPa | 2.6V | 08:20:41 | 02:05:44 | 00:00:00 | |
| DK7TD | 2026-09-04 00:35:11 | 48.38879 | 10.06653 | 113° | 71km/h | 16566m | -16.4m/s | -60.5°C | 2.3% | 101.1hPa | 2.6V | 08:21:28 | 02:05:44 | 00:00:00 | |
| DM0DOS-11 | 2026-09-04 00:35:11 | 48.38922 | 10.06507 | 115° | 71km/h | 16657m | -16.3m/s | -60.4°C | 6.7% | 99.6hPa | 2.6V | 08:20:47 | 02:05:38 | 00:00:00 | |
| OE5DRO-10 | 2026-09-04 00:35:10 | 48.38886 | 10.06628 | 113° | 69km/h | 16582m | -15.8m/s | -60.5°C | 6.8% | 100.8hPa | 2.6V | 00:00:00 | 00:00:00 | 00:00:00 | |
| DB0ND-19 | 2026-09-04 00:35:08 | 48.38907 | 10.06555 | 114° | 68km/h | 16626m | -14.5m/s | -60.6°C | 2.4% | 100.1hPa | 2.6V | 00:00:00 | 00:00:00 | 00:00:00 | |
| DO3MHA-11 | 2026-09-04 00:35:06 | 48.38914 | 10.06531 | 116° | 71km/h | 16641m | -14.9m/s | -60.5°C | 6.7% | 99.8hPa | 2.6V | 00:00:00 | 02:05:39 | 00:00:00 | |
| DJ8HS-15 | 2026-09-04 00:35:05 | 48.38922 | 10.06507 | 116° | 66km/h | 16657m | -16.2m/s | -60.4°C | 6.7% | 99.6hPa | 2.6V | 00:00:00 | 02:05:38 | 00:00:00 | |
| PG1ADW-2 | 2026-09-04 00:35:04 | 48.38930 | 10.06482 | 116° | 64km/h | 16673m | -17.0m/s | -60.4°C | 6.7% | 99.3hPa | 2.6V | 08:20:00 | 00:00:00 | 00:00:00 | |
| IW2NTF | 2026-09-04 00:35:03 | 48.38954 | 10.06408 | 116° | 73km/h | 16725m | -17.1m/s | -59.5°C | 6.2% | 98.6hPa | 2.5V | 08:20:51 | 02:05:34 | 00:00:00 | |
| DK7TD | 2026-09-04 00:35:01 | 48.38954 | 10.06408 | 117° | 73km/h | 16725m | -17.1m/s | -59.5°C | 2% | 98.6hPa | 2.5V | 08:21:28 | 02:05:34 | 00:00:00 | |
| DO3MHA-12 | 2026-09-04 00:35:01 | 48.38954 | 10.06408 | 117° | 68km/h | 16725m | -17.0m/s | -59.4°C | 6.2% | 98.5hPa | 2.5V | 00:00:00 | 02:05:34 | 00:00:00 | |
| OE9MKV-15 | 2026-09-04 00:34:59 | 48.38971 | 10.06360 | 120° | 60km/h | 16758m | -15.9m/s | -59.3°C | 6.2% | 98.0hPa | 2.5V | 00:00:00 | 02:05:32 | 00:00:00 | |
| DF2AP-13 | 2026-09-04 00:34:57 | 48.38989 | 10.06315 | 123° | 58km/h | 16789m | -14.5m/s | -58.9°C | 6.0% | 97.5hPa | 2.6V | 00:00:00 | 02:05:30 | 00:00:00 | |
| DO3MHA-11 | 2026-09-04 00:34:56 | 48.38999 | 10.06293 | 126° | 60km/h | 16804m | -14.7m/s | -58.8°C | 5.9% | 97.3hPa | 2.5V | 08:20:00 | 02:05:29 | 00:00:00 | |
| DM0DOS-11 | 2026-09-04 00:34:55 | 48.39030 | 10.06235 | 130° | 62km/h | 16849m | -15.4m/s | -58.4°C | 5.6% | 96.6hPa | 2.5V | 08:20:59 | 02:05:26 | 00:00:00 | |
| DK7TD | 2026-09-04 00:34:50 | 48.39059 | 10.06185 | 131° | 57km/h | 16895m | -14.7m/s | -58.2°C | 1.7% | 95.9hPa | 2.6V | 08:21:28 | 02:05:23 | 00:00:00 | |
| DL6DJ-15 | 2026-09-04 00:34:47 | 48.39087 | 10.06139 | 133° | 55km/h | 16944m | -17.3m/s | -58.0°C | 1.9% | 95.2hPa | 2.6V | 00:00:00 | 00:00:00 | 00:00:00 | |
| DO3MHA-11 | 2026-09-04 00:34:46 | 48.39097 | 10.06123 | 134° | 58km/h | 16961m | -16.5m/s | -57.8°C | 5.4% | 94.9hPa | 2.6V | 00:00:00 | 02:05:19 | 00:00:00 | |
| DM0DOS-11 | 2026-09-04 00:34:45 | 48.39126 | 10.06076 | 131° | 58km/h | 17007m | -15.1m/s | -57.7°C | 5.3% | 94.2hPa | 2.6V | 08:21:09 | 02:05:16 | 00:00:00 | |
| DF3TZ-5 | 2026-09-04 00:34:44 | 48.39116 | 10.06092 | 133° | 57km/h | 16993m | -15.1m/s | -57.7°C | 1.9% | 94.5hPa | 2.5V | 00:00:00 | 00:00:00 | 00:00:00 | |
| DK7TD | 2026-09-04 00:34:40 | 48.39156 | 10.06025 | 131° | 60km/h | 17052m | -15m/s | -57.8°C | 1.6% | 93.5hPa | 2.5V | 08:21:28 | 02:05:13 | 00:00:00 | |
| BIOWL1-15 | 2026-09-04 00:34:36 | 48.39203 | 10.05939 | 125° | 58km/h | 17128m | -15m/s | -58.2°C | 1.7% | 0hPa | 2.5V | 18:12:15 | 02:05:08 | 00:00:00 | |
| DO3MHA-11 | 2026-09-04 00:34:36 | 48.39194 | 10.05957 | 127° | 55km/h | 17113m | -15.9m/s | -58.1°C | 5.5% | 92.6hPa | 2.6V | 00:00:00 | 02:05:09 | 00:00:00 | |
| DK5PH-5 | 2026-09-04 00:34:35 | 48.39203 | 10.05939 | 126° | 47km/h | 17129m | -14.9m/s | -58.2°C | 5.6% | 92.4hPa | 2.6V | 00:00:00 | 02:05:08 | 00:00:00 | |
| NBG1-10 | 2026-09-04 00:34:33 | 48.39220 | 10.05903 | 128° | 46km/h | 17159m | -16.0m/s | -58.1°C | 5.6% | 91.9hPa | 2.6V | 00:00:00 | 02:05:06 | 00:00:00 | |
| IW2NTF | 2026-09-04 00:34:32 | 48.39237 | 10.05871 | 130° | 55km/h | 17192m | -17.5m/s | -57.7°C | 5.3% | 91.5hPa | 2.6V | 08:21:21 | 02:05:04 | 00:00:00 | |
| DK7TD | 2026-09-04 00:34:30 | 48.39246 | 10.05856 | 132° | 53km/h | 17211m | -19.8m/s | -57.7°C | 1.5% | 91.3hPa | 2.6V | 08:21:28 | 02:05:03 | 00:00:00 | |
| DM0DOS-11 | 2026-09-04 00:34:29 | 48.39272 | 10.05814 | 134° | 47km/h | 17263m | -17.1m/s | -57.9°C | 5.4% | 90.5hPa | 2.5V | 08:21:25 | 02:05:00 | 00:00:00 | |
| BIOWL1-15 | 2026-09-04 00:34:25 | 48.39288 | 10.05789 | 133° | 42km/h | 17296m | -15.6m/s | 0°C | 0% | 0hPa | 2.5V | 18:12:15 | 02:04:58 | 00:00:00 | |
| DJ8HS-15 | 2026-09-04 00:34:25 | 48.39288 | 10.05789 | 133° | 44km/h | 17296m | -15.5m/s | -57.9°C | 5.4% | 90.0hPa | 2.5V | 08:21:00 | 02:04:58 | 00:00:00 | |
| PG1ADW-2 | 2026-09-04 00:34:24 | 48.39295 | 10.05777 | 128° | 44km/h | 17312m | -17.2m/s | -57.9°C | 5.5% | 89.8hPa | 2.5V | 00:00:00 | 02:04:57 | 00:00:00 | |
| IW2NTF | 2026-09-04 00:34:23 | 48.39312 | 10.05742 | 123° | 37km/h | 17361m | -15.9m/s | -58°C | 5.6% | 89.1hPa | 2.5V | 08:21:31 | 02:04:54 | 00:00:00 | |
| DK7TD | 2026-09-04 00:34:19 | 48.39322 | 10.05719 | 123° | 38km/h | 17392m | -14.4m/s | -57.9°C | 1.7% | 88.6hPa | 2.5V | 08:22:19 | 02:04:52 | 00:00:00 | |
| DM0DOS-11 | 2026-09-04 00:34:18 | 48.39333 | 10.05695 | 125° | 40km/h | 17421m | -14.9m/s | -57.9°C | 5.7% | 88.2hPa | 2.6V | 08:21:35 | 02:04:50 | 00:00:00 | |
| DB0NH | 2026-09-04 00:34:18 | 48.39328 | 10.05707 | 125° | 37km/h | 17407m | -14.6m/s | -57.9°C | 5.6% | 88.4hPa | 2.6V | 00:00:00 | 02:04:51 | 00:00:00 | |
| DF1GD-15 | 2026-09-04 00:34:17 | 48.39327 | 10.05707 | 126° | 38km/h | 17407m | -14.6m/s | -58.0°C | 1.9% | 88.4hPa | 2.6V | 08:22:00 | 00:00:00 | 00:00:00 | |
| DO3MHA-11 | 2026-09-04 00:34:16 | 48.39340 | 10.05682 | 127° | 49km/h | 17436m | -15.0m/s | -57.9°C | 5.7% | 88.0hPa | 2.6V | 00:00:00 | 02:04:49 | 00:00:00 | |
| IW2NTF | 2026-09-04 00:34:13 | 48.39379 | 10.05608 | 130° | 53km/h | 17513m | -16.7m/s | -57.4°C | 5.3% | 87hPa | 2.6V | 08:21:41 | 02:04:44 | 00:00:00 | |
| DO3MHA-12 | 2026-09-04 00:34:11 | 48.39379 | 10.05608 | 131° | 46km/h | 17514m | -16.6m/s | -57.3°C | 5.3% | 86.9hPa | 2.5V | 00:00:00 | 02:04:44 | 00:00:00 | |
| DM0DOS-11 | 2026-09-04 00:34:08 | 48.39413 | 10.05549 | 131° | 51km/h | 17582m | -18m/s | -57.2°C | 5.2% | 86.1hPa | 2.5V | 08:21:45 | 02:04:40 | 00:00:00 | |
| DK7TD | 2026-09-04 00:34:08 | 48.39405 | 10.05563 | 132° | 51km/h | 17565m | -17.7m/s | -57.3°C | 1.5% | 86.3hPa | 2.5V | 08:22:19 | 02:04:41 | 00:00:00 | |
| DO3MHA-11 | 2026-09-04 00:34:06 | 48.39421 | 10.05535 | 134° | 35km/h | 17601m | -18.6m/s | -57.1°C | 5.1% | 85.8hPa | 2.6V | 00:00:00 | 02:04:39 | 00:00:00 | |
| DJ8HS-15 | 2026-09-04 00:34:05 | 48.39429 | 10.05523 | 133° | 27km/h | 17620m | -19.0m/s | -56.9°C | 5.0% | 85.5hPa | 2.6V | 00:00:00 | 02:04:38 | 00:00:00 | |
| PG1ADW-2 | 2026-09-04 00:34:04 | 48.39436 | 10.05511 | 135° | 27km/h | 17640m | -20.6m/s | -56.7°C | 4.9% | 85.3hPa | 2.6V | 00:00:00 | 00:00:00 | 00:00:00 | |
| DJTTGO | 2026-09-04 00:34:03 | 48.39436 | 10.05511 | 136° | 42km/h | 17640m | -20.6m/s | -56.8°C | 1.6% | 85.3hPa | 2.5V | 00:00:00 | 00:00:00 | 00:00:00 | |
| IW2NTF | 2026-09-04 00:34:02 | 48.39455 | 10.05480 | 128° | 33km/h | 17699m | -20.3m/s | -56.5°C | 4.8% | 84.5hPa | 2.5V | 08:21:51 | 02:04:34 | 00:00:00 | |
| DO3MHA-12 | 2026-09-04 00:34:01 | 48.39455 | 10.05480 | 129° | 27km/h | 17699m | -20.2m/s | -56.4°C | 4.8% | 84.5hPa | 2.5V | 00:00:00 | 02:04:34 | 00:00:00 | |
| NBG1-10 | 2026-09-04 00:34:00 | 48.39460 | 10.05470 | 134° | 33km/h | 17719m | -21.0m/s | -56.4°C | 4.7% | 84.2hPa | 2.5V | 00:00:00 | 02:04:33 | 00:00:00 | |
| OE9MKV-15 | 2026-09-04 00:33:59 | 48.39465 | 10.05461 | 129° | 33km/h | 17740m | -20.8m/s | -56.3°C | 4.7% | 84.0hPa | 2.6V | 00:00:00 | 02:04:32 | 00:00:00 | |
| DM0DOS-11 | 2026-09-04 00:33:58 | 48.39474 | 10.05445 | 128° | 27km/h | 17780m | -19.8m/s | -56.4°C | 4.7% | 83.4hPa | 2.6V | 08:21:55 | 02:04:30 | 00:00:00 | |
| DK7TD | 2026-09-04 00:33:58 | 48.39469 | 10.05453 | 130° | 26km/h | 17760m | -20.3m/s | -56.4°C | 1.2% | 83.7hPa | 2.6V | 08:22:19 | 02:04:31 | 00:00:00 | |
| DL1ZP-14 | 2026-09-04 00:33:54 | 48.39490 | 10.05418 | 136° | 24km/h | 17853m | -17.4m/s | -56.7°C | 1.6% | 82.4hPa | 2.6V | 00:00:00 | 00:00:00 | 00:00:00 | |
| IW2NTF | 2026-09-04 00:33:52 | 48.39497 | 10.05404 | 124° | 22km/h | 17888m | -17.4m/s | -56.8°C | 4.9% | 82hPa | 2.5V | 08:22:01 | 02:04:24 | 00:00:00 | |
| DM7RM-13 | 2026-09-04 00:33:52 | 48.39494 | 10.05411 | 130° | 24km/h | 17871m | -17.7m/s | -56.7°C | 1.6% | 82.2hPa | 2.6V | 08:22:00 | 00:00:00 | 00:00:00 | |
| DO3MHA-12 | 2026-09-04 00:33:51 | 48.39497 | 10.05404 | 125° | 26km/h | 17888m | -17.4m/s | -56.7°C | 4.9% | 82.0hPa | 2.6V | 00:00:00 | 02:04:24 | 00:00:00 | |
| OE5DXL-15 | 2026-09-04 00:33:50 | 48.39500 | 10.05397 | 125° | 33km/h | 17906m | -17.1m/s | -56.8°C | 4.9% | 81.8hPa | 2.6V | 00:00:00 | 00:00:00 | 00:00:00 | |
| DM0DOS-11 | 2026-09-04 00:33:48 | 48.39507 | 10.05372 | 97° | 24km/h | 17961m | -19.8m/s | -57.2°C | 5.1% | 81.1hPa | 2.6V | 08:22:05 | 02:04:20 | 00:00:00 | |
| DK7TD | 2026-09-04 00:33:48 | 48.39507 | 10.05372 | 98° | 24km/h | 17961m | -19.8m/s | -57.2°C | 1.4% | 81.1hPa | 2.6V | 08:22:19 | 02:04:20 | 00:00:00 | |
| DB0NH | 2026-09-04 00:33:47 | 48.39507 | 10.05372 | 98° | 38km/h | 17962m | -19.7m/s | -57.1°C | 5.1% | 81.1hPa | 2.6V | 00:00:00 | 02:04:20 | 00:00:00 | |
| DO3MHA-11 | 2026-09-04 00:33:46 | 48.39508 | 10.05363 | 100° | 33km/h | 17981m | -19.1m/s | -57.2°C | 5.1% | 80.8hPa | 2.6V | 00:00:00 | 02:04:19 | 00:00:00 | |
| DJ8HS-15 | 2026-09-04 00:33:45 | 48.39509 | 10.05353 | 97° | 40km/h | 18000m | -18.4m/s | -57.3°C | 5.1% | 80.5hPa | 2.6V | 00:00:00 | 02:04:18 | 00:00:00 | |
| PG1ADW-2 | 2026-09-04 00:33:44 | 48.39510 | 10.05343 | 96° | 40km/h | 18018m | -18.3m/s | -57.4°C | 5.1% | 80.3hPa | 2.6V | 00:00:00 | 00:00:00 | 00:00:00 | |
| IW2NTF | 2026-09-04 00:33:43 | 48.39515 | 10.05298 | 107° | 35km/h | 18097m | -20.6m/s | -57.6°C | 5.2% | 79.4hPa | 2.6V | 08:22:12 | 02:04:13 | 00:00:00 | |
| DF3TZ-5 | 2026-09-04 00:33:42 | 48.39511 | 10.05322 | 100° | 27km/h | 18058m | -19.9m/s | -57.6°C | 1.7% | 79.9hPa | 2.5V | 00:00:00 | 00:00:00 | 00:00:00 | |
| DO3MHA-12 | 2026-09-04 00:33:41 | 48.39513 | 10.05310 | 105° | 42km/h | 18077m | -19.0m/s | -57.6°C | 5.2% | 79.6hPa | 2.5V | 00:00:00 | 02:04:14 | 00:00:00 | |
| AM1SDL-15 | 2026-09-04 00:33:39 | 48.39518 | 10.05285 | 110° | 44km/h | 18119m | -22.3m/s | 0°C | 0% | 0hPa | 2.5V | 08:22:00 | 02:04:12 | 00:00:00 | |
| DM0DOS-11 | 2026-09-04 00:33:38 | 48.39526 | 10.05257 | 112° | 42km/h | 18160m | -20.1m/s | -57.4°C | 5.1% | 78.6hPa | 2.5V | 08:22:15 | 02:04:10 | 00:00:00 | |
| DK7TD | 2026-09-04 00:33:36 | 48.39530 | 10.05242 | 116° | 42km/h | 18180m | -19.4m/s | -57.4°C | 1.4% | 78.3hPa | 2.5V | 08:22:19 | 02:04:09 | 00:00:00 | |
| DO3MHA-11 | 2026-09-04 00:33:36 | 48.39530 | 10.05242 | 116° | 46km/h | 18180m | -19.3m/s | -57.3°C | 5.1% | 78.3hPa | 2.5V | 00:00:00 | 02:04:09 | 00:00:00 | |
| DB0ND-19 | 2026-09-04 00:33:35 | 48.39540 | 10.05211 | 117° | 46km/h | 18220m | -21.1m/s | -57.4°C | 1.6% | 77.9hPa | 2.5V | 00:00:00 | 00:00:00 | 00:00:00 | |
| DF7PN | 2026-09-04 00:33:33 | 48.39552 | 10.05180 | 119° | 46km/h | 18263m | -20.7m/s | -57.5°C | 1.6% | 77.4hPa | 2.5V | 00:00:00 | 00:00:00 | 00:00:00 | |
| DM7RM-13 | 2026-09-04 00:33:32 | 48.39551 | 10.05180 | 120° | 46km/h | 18263m | -20.7m/s | -57.5°C | 1.7% | 77.4hPa | 2.5V | 08:23:00 | 00:00:00 | 00:00:00 | |
| DO3MHA-12 | 2026-09-04 00:33:31 | 48.39558 | 10.05165 | 122° | 44km/h | 18284m | -21.3m/s | -57.5°C | 5.1% | 77.0hPa | 2.5V | 00:00:00 | 02:04:04 | 00:00:00 | |
| AZAK | 2026-09-04 00:33:30 | 48.39558 | 10.05165 | 122° | 46km/h | 18284m | -21.4m/s | -57.5°C | 1.7% | 77.1hPa | 2.6V | 08:23:00 | 00:00:00 | 00:00:00 | |
| OE9MKV-15 | 2026-09-04 00:33:29 | 48.39569 | 10.05135 | 122° | 35km/h | 18326m | -19.5m/s | -57.5°C | 5.2% | 76.5hPa | 2.6V | 08:22:00 | 02:04:02 | 00:00:00 | |
| DM0DOS-11 | 2026-09-04 00:33:28 | 48.39582 | 10.05106 | 123° | 46km/h | 18364m | -18.4m/s | -57.3°C | 5% | 76.1hPa | 2.6V | 08:22:25 | 02:04:00 | 00:00:00 | |
| DK7TD | 2026-09-04 00:33:25 | 48.39596 | 10.05079 | 129° | 44km/h | 18403m | -18.9m/s | -57.4°C | 1.4% | 75.6hPa | 2.5V | 08:23:10 | 02:03:58 | 00:00:00 | |
| DJ8HS-15 | 2026-09-04 00:33:25 | 48.39596 | 10.05079 | 130° | 31km/h | 18403m | -18.9m/s | -57.4°C | 5.1% | 75.6hPa | 2.5V | 00:00:00 | 02:03:58 | 00:00:00 | |
| PG1ADW-2 | 2026-09-04 00:33:24 | 48.39603 | 10.05067 | 131° | 35km/h | 18422m | -17.9m/s | -57.5°C | 5.1% | 75.4hPa | 2.6V | 00:00:00 | 00:00:00 | 00:00:00 | |
| IW2NTF | 2026-09-04 00:33:23 | 48.39642 | 10.04991 | 116° | 29km/h | 18545m | -18.1m/s | -57.9°C | 5.4% | 73.9hPa | 2.6V | 08:22:35 | 02:03:50 | 00:00:00 | |
| DL1ZP-14 | 2026-09-04 00:33:22 | 48.39616 | 10.05043 | 130° | 38km/h | 18457m | -17.5m/s | -57.8°C | 1.7% | 75.0hPa | 2.6V | 00:00:00 | 00:00:00 | 00:00:00 | |
| DO3MHA-12 | 2026-09-04 00:33:21 | 48.39623 | 10.05032 | 130° | 29km/h | 18475m | -16.8m/s | -57.8°C | 5.3% | 74.7hPa | 2.6V | 00:00:00 | 02:03:54 | 00:00:00 | |
| DM0DOS-11 | 2026-09-04 00:33:17 | 48.39645 | 10.04981 | 111° | 27km/h | 18563m | -18m/s | -57.8°C | 5.4% | 73.7hPa | 2.6V | 08:22:36 | 02:03:49 | 00:00:00 | |
| DK7TD | 2026-09-04 00:33:14 | 48.39649 | 10.04962 | 104° | 24km/h | 18600m | -17.9m/s | -57.4°C | 1.4% | 73.3hPa | 2.5V | 08:23:10 | 02:03:47 | 00:00:00 | |
| DL6DJ-15 | 2026-09-04 00:33:14 | 48.39650 | 10.04953 | 102° | 24km/h | 18618m | -18.5m/s | -57.3°C | 1.6% | 73.1hPa | 2.5V | 00:00:00 | 00:00:00 | 00:00:00 | |
| DB0UT-7 | 2026-09-04 00:33:13 | 48.39650 | 10.04953 | 103° | 33km/h | 18618m | -18.4m/s | -57.3°C | 5.0% | 73.1hPa | 2.5V | 00:00:00 | 00:00:00 | 00:00:00 | |
| IW2NTF | 2026-09-04 00:33:11 | 48.39662 | 10.04895 | 109° | 29km/h | 18726m | -16.2m/s | -57.4°C | 5.1% | 71.8hPa | 2.5V | 08:22:45 | 02:03:40 | 00:00:00 | |
| DM7RM-13 | 2026-09-04 00:33:11 | 48.39654 | 10.04935 | 105° | 26km/h | 18657m | -18.7m/s | -57.4°C | 1.7% | 72.7hPa | 2.6V | 08:23:00 | 00:00:00 | 00:00:00 | |
| DM0DOS-11 | 2026-09-04 00:33:08 | 48.39664 | 10.04884 | 108° | 31km/h | 18742m | -16.8m/s | -57.3°C | 5.1% | 71.6hPa | 2.6V | 08:22:46 | 02:03:39 | 00:00:00 | |
| DK7TD | 2026-09-04 00:33:04 | 48.39670 | 10.04861 | 111° | 33km/h | 18779m | -19.7m/s | -57.3°C | 1.4% | 71.2hPa | 2.6V | 08:23:10 | 02:03:37 | 00:00:00 | |
| PG1ADW-2 | 2026-09-04 00:33:04 | 48.39670 | 10.04861 | 111° | 29km/h | 18779m | -19.6m/s | -57.2°C | 5.1% | 71.2hPa | 2.6V | 00:00:00 | 02:03:37 | 00:00:00 | |
| DB0ND-19 | 2026-09-04 00:33:03 | 48.39673 | 10.04849 | 114° | 35km/h | 18799m | -19.8m/s | -57.3°C | 1.6% | 71.1hPa | 2.5V | 00:00:00 | 00:00:00 | 00:00:00 | |
| DF7PN | 2026-09-04 00:33:02 | 48.39680 | 10.04824 | 116° | 35km/h | 18838m | -19.3m/s | -57.5°C | 1.7% | 70.6hPa | 2.5V | 00:00:00 | 00:00:00 | 00:00:00 | |
| DO3MHA-12 | 2026-09-04 00:33:01 | 48.39680 | 10.04824 | 117° | 33km/h | 18838m | -19.2m/s | -57.4°C | 5.2% | 70.5hPa | 2.5V | 08:22:00 | 02:03:34 | 00:00:00 | |
| OE9MKV-15 | 2026-09-04 00:32:59 | 48.39688 | 10.04800 | 120° | 29km/h | 18876m | -17.9m/s | -57.7°C | 5.4% | 70.1hPa | 2.5V | 00:00:00 | 02:03:32 | 00:00:00 | |
| DM0DOS-11 | 2026-09-04 00:32:57 | 48.39702 | 10.04768 | 125° | 31km/h | 18934m | -19.2m/s | -57.9°C | 5.6% | 69.6hPa | 2.5V | 08:22:56 | 02:03:29 | 00:00:00 | |
| DK7TD | 2026-09-04 00:32:53 | 48.39716 | 10.04740 | 127° | 31km/h | 18991m | -18.7m/s | -58°C | 1.7% | 68.9hPa | 2.6V | 08:23:10 | 02:03:26 | 00:00:00 | |
| DO3MHA-12 | 2026-09-04 00:32:51 | 48.39725 | 10.04721 | 130° | 38km/h | 19028m | -18.7m/s | -57.9°C | 5.7% | 68.4hPa | 2.5V | 00:00:00 | 02:03:24 | 00:00:00 | |
| AZAK | 2026-09-04 00:32:50 | 48.39731 | 10.04710 | 129° | 38km/h | 19047m | -19.4m/s | -57.8°C | 1.8% | 68.3hPa | 2.5V | 08:23:00 | 00:00:00 | 00:00:00 | |
| DM0DOS-11 | 2026-09-04 00:32:47 | 48.39758 | 10.04663 | 134° | 42km/h | 19117m | -17.3m/s | -57.2°C | 5.4% | 67.5hPa | 2.5V | 08:23:06 | 02:03:19 | 00:00:00 | |
| DK7TD | 2026-09-04 00:32:43 | 48.39780 | 10.04631 | 135° | 38km/h | 19173m | -18.9m/s | -57.1°C | 1.5% | 67hPa | 2.6V | 08:23:10 | 02:03:16 | 00:00:00 | |
| DL6DJ-15 | 2026-09-04 00:32:43 | 48.39787 | 10.04622 | 137° | 33km/h | 19192m | -17.6m/s | -57.0°C | 1.7% | 66.8hPa | 2.6V | 00:00:00 | 00:00:00 | 00:00:00 | |
| DO3MHA-12 | 2026-09-04 00:32:41 | 48.39793 | 10.04614 | 139° | 22km/h | 19210m | -18.0m/s | -56.8°C | 5.2% | 66.5hPa | 2.6V | 00:00:00 | 02:03:14 | 00:00:00 | |
| DF3TZ-5 | 2026-09-04 00:32:40 | 48.39804 | 10.04601 | 147° | 24km/h | 19246m | -18.5m/s | -56.0°C | 1.5% | 66.2hPa | 2.6V | 00:00:00 | 00:00:00 | 00:00:00 | |
| OE5DRO-10 | 2026-09-04 00:32:38 | 48.39809 | 10.04596 | 151° | 11km/h | 19264m | -18.4m/s | -55.6°C | 4.7% | 65.9hPa | 2.6V | 00:00:00 | 00:00:00 | 00:00:00 | |
| DM0DOS-11 | 2026-09-04 00:32:37 | 48.39818 | 10.04591 | 170° | 16km/h | 19301m | -19.3m/s | -55.1°C | 4.4% | 65.6hPa | 2.5V | 08:23:16 | 02:03:09 | 00:00:00 | |
| DK7TD | 2026-09-04 00:32:33 | 48.39831 | 10.04589 | 183° | 15km/h | 19358m | -19.3m/s | -55.1°C | 1% | 65hPa | 2.6V | 08:24:01 | 02:03:06 | 00:00:00 | |
| DB0ND-19 | 2026-09-04 00:32:32 | 48.39835 | 10.04589 | 175° | 15km/h | 19377m | -18.2m/s | -55.2°C | 1.4% | 64.8hPa | 2.6V | 00:00:00 | 00:00:00 | 00:00:00 | |
| DO3MHA-12 | 2026-09-04 00:32:31 | 48.39839 | 10.04589 | 181° | 7km/h | 19394m | -16.2m/s | -55.3°C | 4.5% | 64.6hPa | 2.6V | 00:00:00 | 02:03:04 | 00:00:00 | |
| DM7RM-13 | 2026-09-04 00:32:30 | 48.39839 | 10.04589 | 181° | 15km/h | 19394m | -16.2m/s | -55.4°C | 1.4% | 64.6hPa | 2.6V | 08:24:00 | 00:00:00 | 00:00:00 | |
| AZAK | 2026-09-04 00:32:29 | 48.39845 | 10.04588 | 184° | 11km/h | 19427m | -17.7m/s | -55.5°C | 1.4% | 64.3hPa | 2.6V | 08:24:00 | 00:00:00 | 00:00:00 | |
| DM0DOS-11 | 2026-09-04 00:32:27 | 48.39851 | 10.04590 | 192° | 5km/h | 19482m | -18.8m/s | -56°C | 4.7% | 63.7hPa | 2.6V | 08:23:26 | 02:02:59 | 00:00:00 | |
| DK7TD | 2026-09-04 00:32:22 | 48.39855 | 10.04593 | 191° | 4km/h | 19555m | -18m/s | -56.4°C | 1.3% | 63hPa | 2.5V | 08:24:01 | 02:02:55 | 00:00:00 | |
| DK7TD | 2026-09-04 00:32:12 | 48.39872 | 10.04543 | 113° | 29km/h | 19741m | -20m/s | -56.8°C | 1.4% | 61.2hPa | 2.5V | 08:24:01 | 02:02:45 | 00:00:00 | |
| DK7TD | 2026-09-04 00:32:01 | 48.39928 | 10.04458 | 143° | 27km/h | 19977m | -22.7m/s | -56.3°C | 1.5% | 59hPa | 2.6V | 08:24:01 | 02:02:34 | 00:00:00 | |
| BIOWL1-15 | 2026-09-04 00:32:00 | 48.39934 | 10.04451 | 143° | 31km/h | 20000m | -22.5m/s | -56.2°C | 1.5% | 0hPa | 2.6V | 08:24:01 | 02:02:33 | 00:00:00 | |
| OE5DRO-10 | 2026-09-04 00:32:00 | 48.39934 | 10.04451 | 144° | 22km/h | 20000m | -22.4m/s | -56.1°C | 5.3% | 58.8hPa | 2.6V | 00:00:00 | 00:00:00 | 00:00:00 | |
| DM0DOS-11 | 2026-09-04 00:31:59 | 48.39960 | 10.04427 | 153° | 31km/h | 20081m | -21m/s | -55.7°C | 5.1% | 58hPa | 2.6V | 08:23:56 | 02:02:29 | 00:00:00 | |
| DK7TD | 2026-09-04 00:31:50 | 48.39998 | 10.04414 | 180° | 22km/h | 20211m | -18.6m/s | -54.5°C | 1.2% | 56.9hPa | 2.6V | 08:24:52 | 02:02:23 | 00:00:00 | |
| DM7RM-13 | 2026-09-04 00:31:50 | 48.39998 | 10.04414 | 181° | 22km/h | 20212m | -18.6m/s | -54.5°C | 1.5% | 56.9hPa | 2.6V | 08:24:00 | 00:00:00 | 00:00:00 | |
| DM0DOS-11 | 2026-09-04 00:31:49 | 48.40017 | 10.04415 | 190° | 15km/h | 20278m | -16.1m/s | -54°C | 4.4% | 56.2hPa | 2.6V | 08:24:06 | 02:02:19 | 00:00:00 | |
| BIOWL1-15 | 2026-09-04 00:31:49 | 48.40004 | 10.04413 | 179° | 20km/h | 20229m | -17.1m/s | 0°C | 0% | 0hPa | 2.5V | 18:12:15 | 02:02:22 | 00:00:00 | |
| DK7TD | 2026-09-04 00:31:39 | 48.40036 | 10.04425 | 203° | 13km/h | 20415m | -18.1m/s | -53.2°C | 0.8% | 55.1hPa | 2.5V | 08:24:52 | 02:02:12 | 00:00:00 | |
| DM0DOS-11 | 2026-09-04 00:31:38 | 48.40043 | 10.04431 | 212° | 9km/h | 20465m | -16.4m/s | -53.5°C | 4% | 54.6hPa | 2.6V | 08:24:16 | 02:02:09 | 00:00:00 | |
| DF3TZ-5 | 2026-09-04 00:31:38 | 48.40041 | 10.04429 | 214° | 9km/h | 20448m | -18.2m/s | -53.4°C | 1.2% | 54.8hPa | 2.6V | 00:00:00 | 00:00:00 | 00:00:00 | |
| DO3MHA-11 | 2026-09-04 00:31:36 | 48.40044 | 10.04433 | 233° | 5km/h | 20485m | -20.9m/s | -53.6°C | 4.0% | 54.5hPa | 2.6V | 00:00:00 | 02:02:08 | 00:00:00 | |
| DK5PH-5 | 2026-09-04 00:31:35 | 48.40044 | 10.04433 | 233° | 7km/h | 20485m | -20.9m/s | -53.6°C | 4.0% | 54.5hPa | 2.6V | 00:00:00 | 02:02:08 | 00:00:00 | |
| PG1ADW-2 | 2026-09-04 00:31:34 | 48.40046 | 10.04436 | 231° | 7km/h | 20526m | -23.2m/s | -53.9°C | 4.1% | 54.2hPa | 2.6V | 00:00:00 | 02:02:06 | 00:00:00 | |
| DO3MHA-12 | 2026-09-04 00:31:31 | 48.40046 | 10.04436 | 1° | 9km/h | 20569m | -20.2m/s | -54.3°C | 4.3% | 53.7hPa | 2.6V | 08:24:00 | 02:02:04 | 00:00:00 | |
| DB0ND-19 | 2026-09-04 00:31:30 | 48.40045 | 10.04436 | 27° | 4km/h | 20590m | -20.1m/s | -54.5°C | 1.3% | 53.7hPa | 2.6V | 00:00:00 | 00:00:00 | 00:00:00 | |
| OE9MKV-15 | 2026-09-04 00:31:29 | 48.40045 | 10.04435 | 51° | 7km/h | 20609m | -19.4m/s | -54.6°C | 4.4% | 53.4hPa | 2.6V | 00:00:00 | 02:02:02 | 00:00:00 | |
| DM0DOS-11 | 2026-09-04 00:31:28 | 48.40040 | 10.04429 | 39° | 11km/h | 20669m | -21.3m/s | -55°C | 4.6% | 53hPa | 2.6V | 08:24:26 | 02:01:59 | 00:00:00 | |
| DK7TD | 2026-09-04 00:31:28 | 48.40043 | 10.04434 | 37° | 7km/h | 20629m | -19.2m/s | -54.8°C | 1.1% | 53.3hPa | 2.5V | 08:24:52 | 02:02:01 | 00:00:00 | |
| DK7TD | 2026-09-04 00:31:19 | 48.40033 | 10.04399 | 93° | 11km/h | 20856m | -23.5m/s | -55.6°C | 1.2% | 51.5hPa | 2.5V | 08:24:52 | 02:01:51 | 00:00:00 | |
| DL1ZP-14 | 2026-09-04 00:31:18 | 48.40033 | 10.04399 | 93° | 11km/h | 20856m | -23.5m/s | -55.6°C | 1.4% | 51.5hPa | 2.5V | 00:00:00 | 00:00:00 | 00:00:00 | |
| DM0DOS-11 | 2026-09-04 00:31:17 | 48.40034 | 10.04392 | 112° | 5km/h | 20903m | -23.8m/s | -55.4°C | 4.9% | 51.1hPa | 2.6V | 08:24:36 | 02:01:49 | 00:00:00 | |
| DK7TD | 2026-09-04 00:31:08 | 48.40033 | 10.04377 | 60° | 5km/h | 21089m | -24.5m/s | -55.3°C | 1.3% | 49.6hPa | 2.5V | 08:24:52 | 02:01:41 | 00:00:00 | |
| DM0DOS-11 | 2026-09-04 00:31:07 | 48.40032 | 10.04373 | 73° | 7km/h | 21137m | -23.4m/s | -55.3°C | 4.9% | 49.2hPa | 2.6V | 08:24:46 | 02:01:39 | 00:00:00 | |
| DF3TZ-5 | 2026-09-04 00:31:07 | 48.40032 | 10.04373 | 73° | 5km/h | 21137m | -23.4m/s | -55.3°C | 1.5% | 49.2hPa | 2.5V | 00:00:00 | 00:00:00 | 00:00:00 | |
| IW2NTF | 2026-09-04 00:31:05 | 48.40031 | 10.04368 | 101° | 9km/h | 21183m | -23.1m/s | -55.3°C | 5% | 48.9hPa | 2.5V | 08:24:48 | 02:01:37 | 00:00:00 | |
| DJ8HS-15 | 2026-09-04 00:31:05 | 48.40031 | 10.04371 | 92° | 7km/h | 21160m | -22.9m/s | -55.3°C | 5.0% | 49.0hPa | 2.6V | 00:00:00 | 02:01:38 | 00:00:00 | |
| OE5DRO-10 | 2026-09-04 00:31:03 | 48.40032 | 10.04365 | 105° | 7km/h | 21205m | -21.9m/s | -55.1°C | 5.0% | 48.6hPa | 2.6V | 00:00:00 | 00:00:00 | 00:00:00 | |
| DM0DOS-11 | 2026-09-04 00:31:01 | 48.40041 | 10.04341 | 127° | 9km/h | 21372m | -25.7m/s | -54.2°C | 4.5% | 47.5hPa | 2.6V | 08:24:56 | 02:01:29 | 00:00:00 | |
| DO3MHA-12 | 2026-09-04 00:31:01 | 48.40033 | 10.04359 | 110° | 9km/h | 21249m | -22.3m/s | -54.8°C | 4.8% | 48.3hPa | 2.6V | 00:00:00 | 02:01:34 | 00:00:00 | |
| IW2NTF | 2026-09-04 00:30:59 | 48.40044 | 10.04336 | 136° | 7km/h | 21423m | -25.1m/s | -54.1°C | 4.4% | 47.1hPa | 2.5V | 08:24:58 | 02:01:27 | 00:00:00 | |
| DK7TD | 2026-09-04 00:30:57 | 48.40040 | 10.04344 | 127° | 9km/h | 21345m | -26.1m/s | -54.5°C | 1.2% | 47.7hPa | 2.5V | 08:25:43 | 02:01:30 | 00:00:00 | |
| DO3MHA-11 | 2026-09-04 00:30:55 | 48.40042 | 10.04338 | 130° | 5km/h | 21398m | -25.1m/s | -54.0°C | 4.4% | 47.3hPa | 2.6V | 00:00:00 | 02:01:28 | 00:00:00 | |
| PG1ADW-2 | 2026-09-04 00:30:54 | 48.40043 | 10.04336 | 137° | 7km/h | 21423m | -25.0m/s | -54.0°C | 4.4% | 47.1hPa | 2.5V | 00:00:00 | 00:00:00 | 00:00:00 | |
| DM0DOS-11 | 2026-09-04 00:30:51 | 48.40047 | 10.04344 | 308° | 5km/h | 21622m | -25.3m/s | -53.2°C | 4.1% | 45.7hPa | 2.6V | 08:25:06 | 02:01:19 | 00:00:00 | |
| DK7TD | 2026-09-04 00:30:47 | 48.40047 | 10.04342 | 281° | 7km/h | 21597m | -25.9m/s | -53.2°C | 0.8% | 45.9hPa | 2.5V | 08:25:43 | 02:01:20 | 00:00:00 | |
| DO9LL-15 | 2026-09-04 00:30:47 | 48.40047 | 10.04342 | 281° | 9km/h | 21597m | -25.9m/s | -53.2°C | 4.1% | 45.8hPa | 2.5V | 00:00:00 | 02:01:20 | 00:00:00 | |
| IW2NTF | 2026-09-04 00:30:45 | 48.40045 | 10.04346 | 340° | 2km/h | 21672m | -25.3m/s | -53.5°C | 4.2% | 45.4hPa | 2.5V | 08:25:08 | 02:01:17 | 00:00:00 | |
| DJ8HS-15 | 2026-09-04 00:30:45 | 48.40046 | 10.04345 | 329° | 13km/h | 21648m | -25.4m/s | -53.2°C | 4.1% | 45.5hPa | 2.5V | 00:00:00 | 02:01:18 | 00:00:00 | |
| OE5DRO-10 | 2026-09-04 00:30:44 | 48.40045 | 10.04345 | 341° | 13km/h | 21673m | -25.2m/s | -53.5°C | 4.2% | 45.3hPa | 2.5V | 00:00:00 | 00:00:00 | 00:00:00 | |
| DB0UT-7 | 2026-09-04 00:30:43 | 48.40044 | 10.04346 | 343° | 11km/h | 21697m | -24.4m/s | -53.6°C | 4.3% | 45.1hPa | 2.5V | 00:00:00 | 02:01:16 | 00:00:00 | |
| NBG1-10 | 2026-09-04 00:30:42 | 48.40043 | 10.04346 | 55° | 11km/h | 21722m | -24.5m/s | -53.8°C | 4.4% | 44.9hPa | 2.5V | 00:00:00 | 02:01:15 | 00:00:00 | |
| DO3MHA-12 | 2026-09-04 00:30:41 | 48.40043 | 10.04344 | 75° | 13km/h | 21746m | -24.0m/s | -54.0°C | 4.5% | 44.7hPa | 2.5V | 00:00:00 | 02:01:14 | 00:00:00 | |
| IW2NTF | 2026-09-04 00:30:39 | 48.40041 | 10.04300 | 109° | 20km/h | 21949m | -21.6m/s | -54.6°C | 4.8% | 43.4hPa | 2.5V | 08:25:20 | 02:01:05 | 00:00:00 | |
| DL6DJ-15 | 2026-09-04 00:30:39 | 48.40041 | 10.04336 | 76° | 11km/h | 21818m | -23.1m/s | -54.4°C | 1.4% | 44.3hPa | 2.6V | 00:00:00 | 00:00:00 | 00:00:00 | |
| DM0DOS-11 | 2026-09-04 00:30:38 | 48.40039 | 10.04328 | 79° | 15km/h | 21862m | -21.9m/s | -54.4°C | 4.7% | 44hPa | 2.6V | 08:25:16 | 02:01:09 | 00:00:00 | |
| DK7TD | 2026-09-04 00:30:36 | 48.40039 | 10.04328 | 80° | 15km/h | 21862m | -21.9m/s | -54.4°C | 1.2% | 44hPa | 2.6V | 08:25:43 | 02:01:09 | 00:00:00 | |
| DF3TZ-5 | 2026-09-04 00:30:36 | 48.40039 | 10.04322 | 91° | 16km/h | 21885m | -22.0m/s | -54.4°C | 1.4% | 43.8hPa | 2.6V | 00:00:00 | 00:00:00 | 00:00:00 | |
| PG1ADW-2 | 2026-09-04 00:30:35 | 48.40039 | 10.04315 | 91° | 11km/h | 21906m | -21.5m/s | -54.4°C | 4.7% | 43.6hPa | 2.6V | 00:00:00 | 00:00:00 | 00:00:00 | |
| DO3MHA-12 | 2026-09-04 00:30:31 | 48.40043 | 10.04293 | 115° | 15km/h | 21972m | -23.7m/s | -54.6°C | 4.9% | 43.2hPa | 2.6V | 00:00:00 | 02:01:04 | 00:00:00 | |
| DM0DOS-11 | 2026-09-04 00:30:30 | 48.40060 | 10.04270 | 164° | 16km/h | 22082m | -21.4m/s | -53.9°C | 4.6% | 42.5hPa | 2.6V | 08:25:26 | 02:00:59 | 00:00:00 | |
| DK7TD | 2026-09-04 00:30:26 | 48.40060 | 10.04270 | 165° | 16km/h | 22082m | -21.4m/s | -53.9°C | 1.2% | 42.5hPa | 2.6V | 08:25:43 | 02:00:59 | 00:00:00 | |
| OE5MMP-10 | 2026-09-04 00:30:26 | 48.40060 | 10.04270 | 165° | 13km/h | 22082m | -21.4m/s | -53.9°C | 4.6% | 42.4hPa | 2.6V | 00:00:00 | 02:00:59 | 00:00:00 | |
| IW2NTF | 2026-09-04 00:30:25 | 48.40067 | 10.04269 | 193° | 11km/h | 22125m | -22.6m/s | -53.6°C | 4.5% | 42.2hPa | 2.5V | 08:25:28 | 02:00:57 | 00:00:00 | |
| DJ8HS-15 | 2026-09-04 00:30:25 | 48.40063 | 10.04269 | 179° | 7km/h | 22104m | -21.5m/s | -53.7°C | 4.6% | 42.3hPa | 2.6V | 00:00:00 | 02:00:58 | 00:00:00 | |
| DO3MHA-12 | 2026-09-04 00:30:21 | 48.40071 | 10.04273 | 227° | 5km/h | 22193m | -24.2m/s | -53.2°C | 4.4% | 41.7hPa | 2.5V | 00:00:00 | 02:00:54 | 00:00:00 | |
| IW2NTF | 2026-09-04 00:30:19 | 48.40067 | 10.04262 | 85° | 13km/h | 22409m | -23.1m/s | -52.8°C | 4.1% | 40.4hPa | 2.5V | 08:25:40 | 02:00:45 | 00:00:00 | |
| DM0DOS-11 | 2026-09-04 00:30:18 | 48.40069 | 10.04274 | 29° | 4km/h | 22317m | -23.6m/s | -52.4°C | 4% | 40.9hPa | 2.6V | 08:25:36 | 02:00:49 | 00:00:00 | |
| DK7TD | 2026-09-04 00:30:15 | 48.40068 | 10.04272 | 66° | 7km/h | 22340m | -22.2m/s | -52.4°C | 0.8% | 40.8hPa | 2.6V | 08:25:43 | 02:00:48 | 00:00:00 | |
| DO3MHA-11 | 2026-09-04 00:30:15 | 48.40068 | 10.04272 | 67° | 11km/h | 22340m | -22.2m/s | -52.4°C | 4.0% | 40.7hPa | 2.5V | 00:00:00 | 02:00:48 | 00:00:00 | |
| PG1ADW-2 | 2026-09-04 00:30:14 | 48.40067 | 10.04269 | 64° | 15km/h | 22362m | -23.0m/s | -52.5°C | 4.0% | 40.6hPa | 2.5V | 00:00:00 | 02:00:47 | 00:00:00 | |
| DB0UT-7 | 2026-09-04 00:30:13 | 48.40067 | 10.04266 | 81° | 13km/h | 22386m | -23.5m/s | -52.6°C | 4.0% | 40.5hPa | 2.5V | 00:00:00 | 00:00:00 | 00:00:00 | |
| DL1NUX | 2026-09-04 00:30:11 | 48.40068 | 10.04245 | 118° | 11km/h | 22505m | -24m/s | -53.2°C | 4.2% | 39.8hPa | 2.5V | 08:25:44 | 02:00:41 | 00:00:00 | |
| DO3MHA-12 | 2026-09-04 00:30:11 | 48.40067 | 10.04257 | 86° | 15km/h | 22432m | -23.5m/s | -52.9°C | 4.2% | 40.2hPa | 2.6V | 00:00:00 | 02:00:44 | 00:00:00 | |
| DM0DOS-11 | 2026-09-04 00:30:10 | 48.40072 | 10.04239 | 146° | 15km/h | 22554m | -24.6m/s | -53.2°C | 4.2% | 39.5hPa | 2.6V | 08:25:46 | 02:00:39 | 00:00:00 | |
| DF1GD-15 | 2026-09-04 00:30:10 | 48.40067 | 10.04252 | 88° | 11km/h | 22456m | -24.6m/s | -53.0°C | 1.3% | 40.2hPa | 2.5V | 08:25:00 | 00:00:00 | 00:00:00 | |
| NBG1-10 | 2026-09-04 00:30:09 | 48.40067 | 10.04249 | 102° | 15km/h | 22481m | -25.0m/s | -53.0°C | 4.2% | 39.9hPa | 2.5V | 00:00:00 | 02:00:42 | 00:00:00 | |
| SONCRA | 2026-09-04 00:30:07 | 48.40070 | 10.04242 | 138° | 9km/h | 22530m | -23.9m/s | -53.2°C | 1.2% | 39.7hPa | 2.5V | 00:00:00 | 00:00:00 | 00:00:00 | |
| IW2NTF | 2026-09-04 00:30:06 | 48.40088 | 10.04235 | 176° | 20km/h | 22652m | -23.4m/s | -52.7°C | 4% | 38.9hPa | 2.5V | 08:25:50 | 02:00:35 | 00:00:00 | |
| DK7TD | 2026-09-04 00:30:06 | 48.40075 | 10.04237 | 169° | 16km/h | 22578m | -25.3m/s | -53.1°C | 0.9% | 39.4hPa | 2.6V | 08:26:34 | 02:00:38 | 00:00:00 | |
| DF3TZ-5 | 2026-09-04 00:30:05 | 48.40079 | 10.04236 | 175° | 16km/h | 22603m | -25.3m/s | -52.9°C | 1.2% | 39.2hPa | 2.5V | 00:00:00 | 00:00:00 | 00:00:00 | |
| DL1NUX | 2026-09-04 00:30:02 | 48.40107 | 10.04239 | 204° | 15km/h | 22746m | -24.3m/s | -52.8°C | 4% | 38.3hPa | 2.5V | 08:25:54 | 02:00:31 | 00:00:00 | |
| DO3MHA-12 | 2026-09-04 00:30:01 | 48.40093 | 10.04234 | 181° | 13km/h | 22675m | -23.0m/s | -52.7°C | 4.0% | 38.7hPa | 2.6V | 08:25:00 | 02:00:34 | 00:00:00 | |
| OE5MMP-10 | 2026-09-04 00:30:00 | 48.40098 | 10.04235 | 195° | 11km/h | 22699m | -24.0m/s | -52.7°C | 4.0% | 38.6hPa | 2.6V | 00:00:00 | 02:00:33 | 00:00:00 | |
| OE9MKV-15 | 2026-09-04 00:29:59 | 48.40103 | 10.04237 | 196° | 15km/h | 22723m | -24.5m/s | -52.7°C | 4.0% | 38.4hPa | 2.6V | 00:00:00 | 02:00:32 | 00:00:00 | |
| DM0DOS-11 | 2026-09-04 00:29:58 | 48.40113 | 10.04243 | 210° | 15km/h | 22794m | -23.8m/s | -52.8°C | 4% | 38hPa | 2.6V | 08:25:56 | 02:00:29 | 00:00:00 | |
| IW2NTF | 2026-09-04 00:29:57 | 48.40118 | 10.04253 | 251° | 7km/h | 22895m | -24.3m/s | -53.5°C | 4.2% | 37.4hPa | 2.5V | 08:26:00 | 02:00:25 | 00:00:00 | |
| DK7TD | 2026-09-04 00:29:55 | 48.40115 | 10.04246 | 233° | 11km/h | 22819m | -26.3m/s | -52.9°C | 0.8% | 37.9hPa | 2.6V | 08:26:34 | 02:00:28 | 00:00:00 | |
| DO3MHA-11 | 2026-09-04 00:29:55 | 48.40115 | 10.04246 | 233° | 11km/h | 22819m | -26.3m/s | -52.8°C | 4.0% | 37.9hPa | 2.6V | 00:00:00 | 02:00:28 | 00:00:00 | |
| PG1ADW-2 | 2026-09-04 00:29:54 | 48.40116 | 10.04249 | 247° | 13km/h | 22845m | -24.9m/s | -53.0°C | 4.1% | 37.7hPa | 2.5V | 00:00:00 | 00:00:00 | 00:00:00 | |
| DH7VM-15 | 2026-09-04 00:29:53 | 48.40117 | 10.04251 | 245° | 5km/h | 22870m | -26.1m/s | -53.2°C | 1.2% | 37.6hPa | 2.6V | 00:00:00 | 00:00:00 | 00:00:00 | |
| DM0DOS-11 | 2026-09-04 00:29:51 | 48.40103 | 10.04267 | 8° | 16km/h | 23063m | -24.2m/s | -54.2°C | 4.6% | 36.5hPa | 2.6V | 08:26:07 | 02:00:18 | 00:00:00 | |
| DO3MHA-12 | 2026-09-04 00:29:51 | 48.40118 | 10.04256 | 286° | 13km/h | 22919m | -24.5m/s | -53.6°C | 4.3% | 37.3hPa | 2.5V | 00:00:00 | 02:00:24 | 00:00:00 | |
| OE5MMP-10 | 2026-09-04 00:29:50 | 48.40117 | 10.04259 | 306° | 15km/h | 22944m | -24.3m/s | -53.8°C | 4.4% | 37.1hPa | 2.5V | 00:00:00 | 02:00:23 | 00:00:00 | |
| DF1GD-15 | 2026-09-04 00:29:48 | 48.40115 | 10.04262 | 325° | 11km/h | 22968m | -24.6m/s | -54.0°C | 1.3% | 37.0hPa | 2.5V | 08:26:00 | 00:00:00 | 00:00:00 | |
| DB0NH | 2026-09-04 00:29:47 | 48.40110 | 10.04266 | 341° | 16km/h | 23015m | -24.0m/s | -54.1°C | 4.5% | 36.7hPa | 2.5V | 00:00:00 | 02:00:20 | 00:00:00 | |
| IW2NTF | 2026-09-04 00:29:46 | 48.40091 | 10.04260 | 39° | 16km/h | 23139m | -25.7m/s | -54°C | 4.5% | 36.1hPa | 2.5V | 08:26:10 | 02:00:15 | 00:00:00 | |
| DK7TD | 2026-09-04 00:29:46 | 48.40103 | 10.04267 | 9° | 16km/h | 23063m | -24.2m/s | -54.2°C | 1.1% | 36.5hPa | 2.6V | 08:26:34 | 02:00:18 | 00:00:00 | |
| DJ8HS-15 | 2026-09-04 00:29:45 | 48.40103 | 10.04267 | 9° | 16km/h | 23063m | -24.2m/s | -54.1°C | 4.6% | 36.4hPa | 2.5V | 00:00:00 | 02:00:18 | 00:00:00 | |
| OE5DXL-15 | 2026-09-04 00:29:44 | 48.40099 | 10.04266 | 17° | 16km/h | 23088m | -25.2m/s | -54.0°C | 4.5% | 36.3hPa | 2.5V | 00:00:00 | 00:00:00 | 00:00:00 | |
| DB0UT-7 | 2026-09-04 00:29:43 | 48.40095 | 10.04263 | 27° | 18km/h | 23114m | -26.2m/s | -53.9°C | 4.4% | 36.2hPa | 2.5V | 00:00:00 | 02:00:16 | 00:00:00 | |
| DO9LL-15 | 2026-09-04 00:29:42 | 48.40091 | 10.04260 | 40° | 13km/h | 23140m | -25.6m/s | -54.0°C | 4.5% | 36.0hPa | 2.5V | 00:00:00 | 02:00:15 | 00:00:00 | |
| DO3MHA-12 | 2026-09-04 00:29:41 | 48.40088 | 10.04256 | 46° | 16km/h | 23166m | -26.4m/s | -54.1°C | 4.5% | 35.9hPa | 2.6V | 00:00:00 | 02:00:14 | 00:00:00 | |
| DM0DOS-11 | 2026-09-04 00:29:40 | 48.40083 | 10.04230 | 103° | 16km/h | 23289m | -24.1m/s | -54.1°C | 4.6% | 35.2hPa | 2.6V | 08:26:16 | 02:00:09 | 00:00:00 | |
| DK7TD | 2026-09-04 00:29:34 | 48.40086 | 10.04218 | 118° | 18km/h | 23339m | -25m/s | -53.7°C | 1.1% | 35hPa | 2.5V | 08:26:34 | 02:00:07 | 00:00:00 | |
| PG1ADW-2 | 2026-09-04 00:29:34 | 48.40086 | 10.04218 | 119° | 18km/h | 23339m | -25.0m/s | -53.6°C | 4.5% | 34.9hPa | 2.5V | 00:00:00 | 00:00:00 | 00:00:00 | |
| IW2NTF | 2026-09-04 00:29:33 | 48.40091 | 10.04206 | 131° | 18km/h | 23389m | -25.2m/s | -53.5°C | 4.4% | 34.7hPa | 2.5V | 08:26:20 | 02:00:05 | 00:00:00 | |
| DO3MHA-12 | 2026-09-04 00:29:31 | 48.40095 | 10.04201 | 136° | 15km/h | 23415m | -24.8m/s | -53.6°C | 4.4% | 34.5hPa | 2.6V | 00:00:00 | 02:00:04 | 00:00:00 | |
| OE5MMP-10 | 2026-09-04 00:29:30 | 48.40098 | 10.04195 | 139° | 13km/h | 23439m | -23.3m/s | -53.7°C | 4.5% | 34.4hPa | 2.6V | 00:00:00 | 02:00:03 | 00:00:00 | |
| OE9MKV-15 | 2026-09-04 00:29:29 | 48.40101 | 10.04192 | 141° | 22km/h | 23464m | -27.4m/s | -53.8°C | 4.5% | 34.3hPa | 2.6V | 00:00:00 | 02:00:02 | 00:00:00 | |
| DM0DOS-11 | 2026-09-04 00:29:28 | 48.40110 | 10.04183 | 136° | 9km/h | 23541m | -25.8m/s | -53.8°C | 4.5% | 33.8hPa | 2.6V | 08:26:26 | 01:59:59 | 00:00:00 | |
| IW2NTF | 2026-09-04 00:29:26 | 48.40115 | 10.04166 | 111° | 16km/h | 23646m | -25.7m/s | -53.8°C | 4.6% | 33.3hPa | 2.5V | 08:26:30 | 01:59:55 | 00:00:00 | |
| DK7TD | 2026-09-04 00:29:24 | 48.40112 | 10.04177 | 102° | 13km/h | 23594m | -26m/s | -54°C | 1.2% | 33.6hPa | 2.5V | 08:26:34 | 01:59:57 | 00:00:00 | |
| DM0DOS-11 | 2026-09-04 00:29:21 | 48.40135 | 10.04128 | 148° | 26km/h | 23801m | -24.9m/s | -53.4°C | 4.6% | 32.5hPa | 2.5V | 08:26:36 | 01:59:49 | 00:00:00 | |
| DO3MHA-12 | 2026-09-04 00:29:21 | 48.40117 | 10.04160 | 117° | 26km/h | 23673m | -26.6m/s | -53.7°C | 4.6% | 33.1hPa | 2.5V | 00:00:00 | 01:59:54 | 00:00:00 | |
| OE5MMP-10 | 2026-09-04 00:29:20 | 48.40119 | 10.04153 | 120° | 27km/h | 23699m | -26.3m/s | -53.7°C | 4.6% | 33.0hPa | 2.5V | 00:00:00 | 01:59:53 | 00:00:00 | |
| KANTATE | 2026-09-04 00:29:18 | 48.40125 | 10.04139 | 133° | 26km/h | 23751m | -25.6m/s | -53.5°C | 1.3% | 32.8hPa | 2.5V | 08:26:00 | 00:00:00 | 00:00:00 | |
| DB0NH | 2026-09-04 00:29:17 | 48.40130 | 10.04133 | 145° | 26km/h | 23776m | -25.1m/s | -53.3°C | 4.5% | 32.6hPa | 2.5V | 00:00:00 | 01:59:50 | 00:00:00 | |
| DO3MHA-11 | 2026-09-04 00:29:15 | 48.40141 | 10.04123 | 156° | 33km/h | 23826m | -24.4m/s | -53.3°C | 4.6% | 32.3hPa | 2.5V | 00:00:00 | 01:59:48 | 00:00:00 | |
| IW2NTF | 2026-09-04 00:29:14 | 48.40164 | 10.04116 | 179° | 33km/h | 23901m | -25.6m/s | -52.8°C | 4.4% | 32hPa | 2.5V | 08:26:40 | 01:59:45 | 00:00:00 | |
| DK7TD | 2026-09-04 00:29:13 | 48.40156 | 10.04117 | 173° | 35km/h | 23875m | -25.8m/s | -53°C | 1.1% | 32.1hPa | 2.6V | 08:27:25 | 01:59:46 | 00:00:00 | |
| DB0UT-7 | 2026-09-04 00:29:13 | 48.40156 | 10.04117 | 174° | 24km/h | 23875m | -25.8m/s | -52.9°C | 4.4% | 32.1hPa | 2.5V | 00:00:00 | 00:00:00 | 00:00:00 | |
| DM0DOS-11 | 2026-09-04 00:29:11 | 48.40211 | 10.04124 | 198° | 24km/h | 24047m | -22.8m/s | -52.6°C | 4.4% | 31.3hPa | 2.5V | 08:26:46 | 01:59:39 | 00:00:00 | |
| DO3MHA-12 | 2026-09-04 00:29:11 | 48.40172 | 10.04116 | 181° | 24km/h | 23926m | -25.4m/s | -52.9°C | 4.4% | 31.8hPa | 2.5V | 00:00:00 | 01:59:44 | 00:00:00 | |
| OE5MMP-10 | 2026-09-04 00:29:10 | 48.40181 | 10.04116 | 184° | 22km/h | 23952m | -25.5m/s | -52.9°C | 4.4% | 31.7hPa | 2.5V | 08:26:00 | 01:59:43 | 00:00:00 | |
| OE5DRO-10 | 2026-09-04 00:29:09 | 48.40189 | 10.04118 | 189° | 29km/h | 23978m | -24.6m/s | -52.9°C | 4.4% | 31.6hPa | 2.5V | 00:00:00 | 00:00:00 | 00:00:00 | |
| IW2NTF | 2026-09-04 00:29:08 | 48.40228 | 10.04133 | 226° | 11km/h | 24139m | -23.1m/s | -52°C | 4.1% | 30.9hPa | 2.5V | 08:26:50 | 01:59:35 | 00:00:00 | |
| DK7TD | 2026-09-04 00:29:02 | 48.40228 | 10.04133 | 226° | 11km/h | 24139m | -23.1m/s | -52°C | 0.9% | 30.9hPa | 2.5V | 08:27:25 | 01:59:35 | 00:00:00 | |
| DO3MHA-12 | 2026-09-04 00:29:01 | 48.40230 | 10.04135 | 219° | 20km/h | 24162m | -23.3m/s | -51.9°C | 4.1% | 30.7hPa | 2.5V | 00:00:00 | 01:59:34 | 00:00:00 | |
| DM0DOS-11 | 2026-09-04 00:28:59 | 48.40243 | 10.04155 | 227° | 22km/h | 24276m | -23.3m/s | -51.9°C | 4.2% | 30.2hPa | 2.5V | 08:26:56 | 01:59:29 | 00:00:00 | |
| IW2NTF | 2026-09-04 00:28:56 | 48.40263 | 10.04183 | 227° | 33km/h | 24372m | -23.7m/s | -51.5°C | 4% | 29.8hPa | 2.6V | 08:27:00 | 01:59:25 | 00:00:00 | |
| DK7TD | 2026-09-04 00:28:51 | 48.40269 | 10.04192 | 227° | 31km/h | 24395m | -23m/s | -51.4°C | 0.9% | 29.6hPa | 2.6V | 08:27:25 | 01:59:24 | 00:00:00 | |
| DM0DOS-11 | 2026-09-04 00:28:51 | 48.40292 | 10.04231 | 230° | 20km/h | 24514m | -24.3m/s | -51.3°C | 4% | 29.1hPa | 2.6V | 08:27:06 | 01:59:19 | 00:00:00 | |
| OE5MMP-10 | 2026-09-04 00:28:50 | 48.40274 | 10.04201 | 228° | 20km/h | 24419m | -23.8m/s | -51.3°C | 4.0% | 29.5hPa | 2.6V | 00:00:00 | 01:59:23 | 00:00:00 | |
| DB0NH | 2026-09-04 00:28:47 | 48.40289 | 10.04225 | 228° | 13km/h | 24491m | -24.3m/s | -51.4°C | 4.1% | 29.2hPa | 2.6V | 00:00:00 | 01:59:20 | 00:00:00 | |
| IW2NTF | 2026-09-04 00:28:46 | 48.40303 | 10.04249 | 246° | 13km/h | 24611m | -25.5m/s | -51.5°C | 4% | 28.7hPa | 2.6V | 08:27:10 | 01:59:15 | 00:00:00 | |
| DK7TD | 2026-09-04 00:28:41 | 48.40304 | 10.04253 | 256° | 11km/h | 24637m | -26.2m/s | -51.5°C | 0.8% | 28.6hPa | 2.6V | 08:27:25 | 01:59:14 | 00:00:00 | |
| DO3MHA-12 | 2026-09-04 00:28:41 | 48.40304 | 10.04253 | 257° | 16km/h | 24637m | -26.1m/s | -51.4°C | 4.0% | 28.5hPa | 2.5V | 00:00:00 | 01:59:14 | 00:00:00 | |
| OE5MMP-10 | 2026-09-04 00:28:40 | 48.40303 | 10.04258 | 282° | 16km/h | 24666m | -29.8m/s | -51.4°C | 4.0% | 28.4hPa | 2.5V | 00:00:00 | 01:59:13 | 00:00:00 | |
| DM0DOS-11 | 2026-09-04 00:28:38 | 48.40291 | 10.04280 | 327° | 20km/h | 24801m | -26.5m/s | -51.2°C | 4% | 27.9hPa | 2.5V | 08:27:17 | 01:59:08 | 00:00:00 | |
| IW2NTF | 2026-09-04 00:28:35 | 48.40278 | 10.04291 | 332° | 18km/h | 24878m | -23.8m/s | -51.3°C | 4% | 27.5hPa | 2.5V | 08:27:20 | 01:59:05 | 00:00:00 | |
| DK7TD | 2026-09-04 00:28:31 | 48.40275 | 10.04294 | 338° | 13km/h | 24902m | -23.8m/s | -51.3°C | 0.9% | 27.4hPa | 2.6V | 08:27:25 | 01:59:04 | 00:00:00 | |
| DM0DOS-11 | 2026-09-04 00:28:31 | 48.40263 | 10.04294 | 59° | 9km/h | 25046m | -24.7m/s | -51.1°C | 4.1% | 26.8hPa | 2.6V | 08:27:27 | 01:58:58 | 00:00:00 | |
| OE5MMP-10 | 2026-09-04 00:28:30 | 48.40272 | 10.04295 | 334° | 9km/h | 24926m | -22.7m/s | -51.2°C | 4.1% | 27.3hPa | 2.5V | 00:00:00 | 01:59:03 | 00:00:00 | |
| OE9MKV-15 | 2026-09-04 00:28:29 | 48.40269 | 10.04297 | 339° | 7km/h | 24949m | -23.7m/s | -51.2°C | 4.1% | 27.2hPa | 2.5V | 00:00:00 | 01:59:02 | 00:00:00 | |
| IW2NTF | 2026-09-04 00:28:25 | 48.40258 | 10.04286 | 43° | 11km/h | 25119m | -24.6m/s | -50.9°C | 4.1% | 26.5hPa | 2.5V | 08:27:30 | 01:58:55 | 00:00:00 | |
| DK7TD | 2026-09-04 00:28:21 | 48.40256 | 10.04284 | 40° | 9km/h | 25144m | -23.1m/s | -50.9°C | 0.9% | 26.4hPa | 2.5V | 08:28:16 | 01:58:54 | 00:00:00 | |
| DO3MHA-12 | 2026-09-04 00:28:21 | 48.40256 | 10.04284 | 41° | 5km/h | 25144m | -23.0m/s | -50.8°C | 4.1% | 26.3hPa | 2.6V | 00:00:00 | 01:58:54 | 00:00:00 | |
| SONDE2-11 | 2026-09-04 00:28:17 | 48.40246 | 10.04282 | 327° | 4km/h | 25271m | -27.4m/s | -50.6°C | 1.1% | 25.9hPa | 2.6V | 00:00:00 | 00:00:00 | 00:00:00 | |
| IW2NTF | 2026-09-04 00:28:16 | 48.40244 | 10.04286 | 258° | 5km/h | 25397m | -31m/s | -50.6°C | 4% | 25.4hPa | 2.6V | 08:27:40 | 01:58:45 | 00:00:00 | |
| OE5MMP-10 | 2026-09-04 00:28:16 | 48.40246 | 10.04282 | 328° | 4km/h | 25271m | -27.3m/s | -50.6°C | 4.0% | 25.8hPa | 2.6V | 00:00:00 | 01:58:49 | 00:00:00 | |
| PG1ADW-2 | 2026-09-04 00:28:14 | 48.40245 | 10.04284 | 290° | 7km/h | 25332m | -32.6m/s | -50.5°C | 3.9% | 25.7hPa | 2.6V | 00:00:00 | 00:00:00 | 00:00:00 | |
| DB0UT-7 | 2026-09-04 00:28:13 | 48.40244 | 10.04285 | 253° | 7km/h | 25365m | -33.2m/s | -50.5°C | 4.0% | 25.5hPa | 2.6V | 00:00:00 | 00:00:00 | 00:00:00 | |
| DM0DOS-11 | 2026-09-04 00:28:11 | 48.40241 | 10.04288 | 343° | 5km/h | 25616m | -31.5m/s | -50°C | 3.8% | 24.6hPa | 2.5V | 08:27:47 | 01:58:38 | 00:00:00 | |
| DK7TD | 2026-09-04 00:28:10 | 48.40245 | 10.04289 | 217° | 0km/h | 25458m | -29.2m/s | -50.5°C | 0.8% | 25.2hPa | 2.5V | 08:28:16 | 01:58:43 | 00:00:00 | |
| DH7VM-15 | 2026-09-04 00:28:09 | 48.40245 | 10.04289 | 0° | 0km/h | 25488m | -31.5m/s | -50.3°C | 1.1% | 25.1hPa | 2.6V | 00:00:00 | 00:00:00 | 00:00:00 | |
| KANTATE | 2026-09-04 00:28:08 | 48.40245 | 10.04289 | 0° | 0km/h | 25488m | -31.5m/s | -50.3°C | 1.1% | 25.1hPa | 2.6V | 00:00:00 | 00:00:00 | 00:00:00 | |
| IW2NTF | 2026-09-04 00:28:05 | 48.40237 | 10.04292 | 312° | 11km/h | 25714m | -32.5m/s | -50°C | 3.8% | 24.2hPa | 2.6V | 08:27:50 | 01:58:35 | 00:00:00 | |
| DF1GD-15 | 2026-09-04 00:28:05 | 48.40242 | 10.04288 | 7° | 4km/h | 25585m | -31.3m/s | -50.1°C | 1.2% | 24.8hPa | 2.6V | 08:28:00 | 00:00:00 | 00:00:00 | |
| DL6DJ-15 | 2026-09-04 00:28:03 | 48.40238 | 10.04290 | 328° | 5km/h | 25682m | -32.5m/s | -50.1°C | 1.1% | 24.4hPa | 2.6V | 00:00:00 | 00:00:00 | 00:00:00 | |
| DM7RM-13 | 2026-09-04 00:28:02 | 48.40238 | 10.04290 | 330° | 5km/h | 25682m | -32.5m/s | -50.1°C | 1.1% | 24.4hPa | 2.6V | 08:28:00 | 00:00:00 | 00:00:00 | |
| DM0DOS-11 | 2026-09-04 00:28:01 | 48.40221 | 10.04317 | 330° | 13km/h | 25933m | -31m/s | -49.5°C | 3.6% | 23.4hPa | 2.6V | 08:27:57 | 01:58:28 | 00:00:00 | |
| BIOWL1-15 | 2026-09-04 00:28:01 | 48.40232 | 10.04299 | 309° | 13km/h | 25776m | -29.6m/s | 0°C | 0% | 0hPa | 2.5V | 18:12:15 | 01:58:33 | 00:00:00 | |
| DK7TD | 2026-09-04 00:27:59 | 48.40231 | 10.04303 | 308° | 13km/h | 25806m | -30.8m/s | -49.9°C | 0.7% | 23.9hPa | 2.5V | 08:28:16 | 01:58:32 | 00:00:00 | |
| OE9MKV-15 | 2026-09-04 00:27:59 | 48.40231 | 10.04303 | 309° | 7km/h | 25806m | -30.8m/s | -49.8°C | 3.8% | 23.8hPa | 2.5V | 00:00:00 | 01:58:32 | 00:00:00 | |
| IW2NTF | 2026-09-04 00:27:57 | 48.40213 | 10.04323 | 338° | 9km/h | 26021m | -29.5m/s | -49.6°C | 3.7% | 23.1hPa | 2.5V | 08:28:00 | 01:58:25 | 00:00:00 | |
| BIOWL1-15 | 2026-09-04 00:27:50 | 48.40210 | 10.04326 | 328° | 5km/h | 26081m | -29.7m/s | 0°C | 0% | 0hPa | 2.6V | 18:12:15 | 01:58:23 | 00:00:00 | |
| DM0DOS-11 | 2026-09-04 00:27:49 | 48.40208 | 10.04329 | 183° | 2km/h | 26237m | -31.4m/s | -50°C | 4% | 22.4hPa | 2.6V | 08:28:07 | 01:58:18 | 00:00:00 | |
| DK7TD | 2026-09-04 00:27:48 | 48.40208 | 10.04328 | 294° | 4km/h | 26143m | -31.6m/s | -49.9°C | 0.7% | 22.7hPa | 2.5V | 08:28:16 | 01:58:21 | 00:00:00 | |
| DB0NH | 2026-09-04 00:27:47 | 48.40207 | 10.04329 | 289° | 5km/h | 26175m | -31.6m/s | -49.9°C | 3.9% | 22.5hPa | 2.5V | 00:00:00 | 01:58:20 | 00:00:00 | |
| DJ8HS-15 | 2026-09-04 00:27:45 | 48.40208 | 10.04329 | 184° | 4km/h | 26238m | -31.3m/s | -50.0°C | 4.0% | 22.3hPa | 2.5V | 00:00:00 | 01:58:18 | 00:00:00 | |
| IW2NTF | 2026-09-04 00:27:44 | 48.40211 | 10.04325 | 133° | 5km/h | 26330m | -31.5m/s | -50.1°C | 4.1% | 22hPa | 2.5V | 08:28:10 | 01:58:15 | 00:00:00 | |
| DM7RM-13 | 2026-09-04 00:27:43 | 48.40210 | 10.04327 | 118° | 4km/h | 26300m | -30.7m/s | -50.1°C | 1.2% | 22.1hPa | 2.6V | 08:28:00 | 00:00:00 | 00:00:00 | |
| BAUMI2-15 | 2026-09-04 00:27:42 | 48.40210 | 10.04325 | 134° | 5km/h | 26330m | -31.4m/s | -50.0°C | 4.1% | 22.0hPa | 2.6V | 00:00:00 | 01:58:15 | 00:00:00 | |
| DO3MHA-12 | 2026-09-04 00:27:41 | 48.40211 | 10.04323 | 109° | 5km/h | 26362m | -30.6m/s | -49.9°C | 4.0% | 21.9hPa | 2.6V | 00:00:00 | 01:58:14 | 00:00:00 | |
| DM0DOS-11 | 2026-09-04 00:27:40 | 48.40213 | 10.04312 | 58° | 5km/h | 26545m | -32.1m/s | -49.5°C | 3.9% | 21.4hPa | 2.6V | 08:28:17 | 01:58:08 | 00:00:00 | |
| DK7TD | 2026-09-04 00:27:38 | 48.40213 | 10.04318 | 104° | 4km/h | 26454m | -29m/s | -49.7°C | 0.8% | 21.6hPa | 2.5V | 08:28:16 | 01:58:11 | 00:00:00 | |
| IW2NTF | 2026-09-04 00:27:37 | 48.40211 | 10.04307 | 13° | 4km/h | 26676m | -34.1m/s | -49.2°C | 3.9% | 20.9hPa | 2.5V | 08:28:21 | 01:58:04 | 00:00:00 | |
| DL1XH-west | 2026-09-04 00:27:31 | 48.40211 | 10.04307 | 13° | 4km/h | 26676m | -34.1m/s | -49.2°C | 0.8% | 20.9hPa | 2.5V | 08:29:07 | 01:58:04 | 00:00:00 | |
| DO3MHA-12 | 2026-09-04 00:27:31 | 48.40211 | 10.04307 | 14° | 4km/h | 26677m | -34.1m/s | -49.1°C | 3.9% | 20.9hPa | 2.5V | 00:00:00 | 01:58:04 | 00:00:00 | |
| DM0DOS-11 | 2026-09-04 00:27:30 | 48.40209 | 10.04305 | 41° | 4km/h | 26878m | -35.8m/s | -48.5°C | 3.8% | 20.3hPa | 2.5V | 08:28:27 | 01:57:58 | 00:00:00 | |
| DK7TD | 2026-09-04 00:27:28 | 48.40210 | 10.04307 | 356° | 2km/h | 26777m | -33.1m/s | -49°C | 0.8% | 20.6hPa | 2.6V | 08:29:07 | 01:58:01 | 00:00:00 | |
| OE5MMP-10 | 2026-09-04 00:27:27 | 48.40209 | 10.04307 | 50° | 9km/h | 26811m | -34.0m/s | -48.8°C | 3.9% | 20.4hPa | 2.5V | 08:28:00 | 01:58:00 | 00:00:00 | |
| OE5DRO-10 | 2026-09-04 00:27:26 | 48.40209 | 10.04306 | 86° | 9km/h | 26844m | -32.8m/s | -48.7°C | 3.9% | 20.3hPa | 2.5V | 08:28:00 | 00:00:00 | 00:00:00 | |
| IW2NTF | 2026-09-04 00:27:24 | 48.40204 | 10.04295 | 57° | 13km/h | 27015m | -33.2m/s | -47.9°C | 3.6% | 19.9hPa | 2.5V | 08:28:31 | 01:57:54 | 00:00:00 | |
| BAUMI2-15 | 2026-09-04 00:27:23 | 48.40207 | 10.04301 | 62° | 11km/h | 26949m | -34.6m/s | -48.0°C | 3.7% | 20.0hPa | 2.6V | 08:28:00 | 01:57:56 | 00:00:00 | |
| AZAK | 2026-09-04 00:27:22 | 48.40206 | 10.04298 | 46° | 11km/h | 26982m | -34.0m/s | -48.0°C | 1.0% | 20.0hPa | 2.5V | 08:29:00 | 00:00:00 | 00:00:00 | |
| DM0DOS-11 | 2026-09-04 00:27:21 | 48.40200 | 10.04268 | 110° | 13km/h | 27212m | -33m/s | -46.9°C | 3.4% | 19.3hPa | 2.5V | 08:28:37 | 01:57:48 | 00:00:00 | |
| DL1XH-west | 2026-09-04 00:27:20 | 48.40202 | 10.04290 | 63° | 13km/h | 27047m | -31.6m/s | -47.8°C | 0.6% | 19.8hPa | 2.5V | 08:29:07 | 01:57:53 | 00:00:00 | |
| DK7TD | 2026-09-04 00:27:17 | 48.40199 | 10.04277 | 88° | 13km/h | 27145m | -33.8m/s | -47.3°C | 0.6% | 19.5hPa | 2.6V | 08:29:07 | 01:57:50 | 00:00:00 | |
| DB0NH | 2026-09-04 00:27:17 | 48.40199 | 10.04277 | 89° | 9km/h | 27145m | -33.7m/s | -47.3°C | 3.5% | 19.4hPa | 2.6V | 00:00:00 | 01:57:50 | 00:00:00 | |
| IW2NTF | 2026-09-04 00:27:16 | 48.40204 | 10.04254 | 122° | 7km/h | 27348m | -35.4m/s | -46.6°C | 3.3% | 18.9hPa | 2.6V | 08:28:41 | 01:57:44 | 00:00:00 | |
| DJ2DS-15 | 2026-09-04 00:27:16 | 48.40199 | 10.04273 | 97° | 7km/h | 27179m | -33.9m/s | -47.1°C | 3.5% | 19.3hPa | 2.6V | 08:28:00 | 01:57:49 | 00:00:00 | |
| PG1ADW-2 | 2026-09-04 00:27:14 | 48.40201 | 10.04264 | 107° | 9km/h | 27245m | -33.0m/s | -46.6°C | 3.3% | 19.1hPa | 2.5V | 00:00:00 | 00:00:00 | 00:00:00 | |
| DB0UT-7 | 2026-09-04 00:27:13 | 48.40202 | 10.04260 | 122° | 9km/h | 27280m | -34.4m/s | -46.5°C | 3.3% | 19.0hPa | 2.5V | 00:00:00 | 00:00:00 | 00:00:00 | |
| DO3MHA-12 | 2026-09-04 00:27:11 | 48.40204 | 10.04254 | 123° | 7km/h | 27348m | -35.4m/s | -46.6°C | 3.3% | 18.8hPa | 2.5V | 00:00:00 | 01:57:44 | 00:00:00 | |
| DM0DOS-11 | 2026-09-04 00:27:10 | 48.40210 | 10.04241 | 107° | 7km/h | 27559m | -33.9m/s | -46.6°C | 3.4% | 18.3hPa | 2.5V | 08:28:47 | 01:57:38 | 00:00:00 | |
| DL1XH-west | 2026-09-04 00:27:10 | 48.40208 | 10.04247 | 136° | 7km/h | 27454m | -36.7m/s | -46.6°C | 0.5% | 18.6hPa | 2.5V | 08:29:07 | 01:57:41 | 00:00:00 | |
| DK7TD | 2026-09-04 00:27:07 | 48.40209 | 10.04245 | 117° | 5km/h | 27490m | -35.7m/s | -46.7°C | 0.5% | 18.5hPa | 2.6V | 08:29:07 | 01:57:40 | 00:00:00 | |
| OE5MMP-10 | 2026-09-04 00:27:07 | 48.40209 | 10.04245 | 117° | 9km/h | 27491m | -35.6m/s | -46.6°C | 3.4% | 18.4hPa | 2.6V | 00:00:00 | 01:57:40 | 00:00:00 | |
| DL8DAS-14 | 2026-09-04 00:27:06 | 48.40210 | 10.04241 | 107° | 7km/h | 27559m | -33.9m/s | -46.6°C | 1.0% | 18.3hPa | 2.6V | 00:00:00 | 00:00:00 | 00:00:00 | |
| DK5PH-5 | 2026-09-04 00:27:05 | 48.40210 | 10.04241 | 108° | 9km/h | 27560m | -33.9m/s | -46.5°C | 3.4% | 18.2hPa | 2.6V | 00:00:00 | 01:57:38 | 00:00:00 | |
| IW2NTF | 2026-09-04 00:27:04 | 48.40214 | 10.04226 | 110° | 15km/h | 27697m | -35.6m/s | -46.5°C | 3.4% | 17.9hPa | 2.6V | 08:28:51 | 01:57:34 | 00:00:00 | |
| DK7TD | 2026-09-04 00:26:57 | 48.40220 | 10.04209 | 121° | 11km/h | 27840m | -35.9m/s | -46.2°C | 0.4% | 17.5hPa | 2.5V | 08:29:07 | 01:57:30 | 00:00:00 | |
| OE5MMP-10 | 2026-09-04 00:26:57 | 48.40219 | 10.04209 | 122° | 9km/h | 27840m | -35.9m/s | -46.1°C | 3.3% | 17.5hPa | 2.5V | 00:00:00 | 01:57:30 | 00:00:00 | |
| PG1ADW-2 | 2026-09-04 00:26:54 | 48.40225 | 10.04200 | 141° | 7km/h | 27948m | -36.5m/s | -46.2°C | 3.3% | 17.2hPa | 2.6V | 00:00:00 | 00:00:00 | 00:00:00 | |
| BAUMI2-15 | 2026-09-04 00:26:53 | 48.40227 | 10.04198 | 151° | 7km/h | 27984m | -36.1m/s | -46.3°C | 3.3% | 17.1hPa | 2.5V | 00:00:00 | 01:57:26 | 00:00:00 | |
| DO3MHA-12 | 2026-09-04 00:26:51 | 48.40230 | 10.04196 | 166° | 5km/h | 28059m | -38.5m/s | -46.2°C | 3.3% | 16.9hPa | 2.6V | 00:00:00 | 01:57:24 | 00:00:00 | |
| DM0DOS-11 | 2026-09-04 00:26:50 | 48.40233 | 10.04195 | 163° | 9km/h | 28135m | -38.1m/s | -46.1°C | 3.3% | 16.7hPa | 2.6V | 08:29:03 | 01:57:22 | 00:00:00 | |
| DK7TD | 2026-09-04 00:26:46 | 48.40238 | 10.04194 | 189° | 4km/h | 28246m | -37.3m/s | -45.7°C | 0.3% | 16.5hPa | 2.5V | 08:29:07 | 01:57:19 | 00:00:00 | |
| DJ8HS-15 | 2026-09-04 00:26:45 | 48.40238 | 10.04195 | 299° | 5km/h | 28285m | -37.5m/s | -45.6°C | 3.2% | 16.4hPa | 2.6V | 00:00:00 | 01:57:18 | 00:00:00 | |
| DM0DOS-11 | 2026-09-04 00:26:43 | 48.40228 | 10.04200 | 354° | 11km/h | 28498m | -34.2m/s | -45.3°C | 3.2% | 15.8hPa | 2.6V | 08:29:13 | 01:57:12 | 00:00:00 | |
| DL1XH-west | 2026-09-04 00:26:43 | 48.40237 | 10.04196 | 330° | 7km/h | 28359m | -36.7m/s | -45.3°C | 0.3% | 16.2hPa | 2.5V | 08:29:58 | 01:57:16 | 00:00:00 | |
| DB0UT-7 | 2026-09-04 00:26:43 | 48.40237 | 10.04196 | 330° | 7km/h | 28359m | -36.6m/s | -45.2°C | 3.2% | 16.1hPa | 2.5V | 08:29:00 | 01:57:16 | 00:00:00 | |
| DH7VM-15 | 2026-09-04 00:26:42 | 48.40235 | 10.04197 | 349° | 9km/h | 28395m | -35.5m/s | -45.2°C | 0.9% | 16.1hPa | 2.6V | 00:00:00 | 00:00:00 | 00:00:00 | |
| DL1XH1-15 | 2026-09-04 00:26:41 | 48.40230 | 10.04199 | 355° | 9km/h | 28463m | -33.9m/s | -45.3°C | 3.2% | 15.9hPa | 2.6V | 08:29:12 | 01:57:13 | 00:00:00 | |
| AZAK | 2026-09-04 00:26:41 | 48.40232 | 10.04198 | 344° | 11km/h | 28430m | -32.9m/s | -45.3°C | 0.9% | 16.0hPa | 2.5V | 08:29:00 | 00:00:00 | 00:00:00 | |
| BAUMI2-15 | 2026-09-04 00:26:38 | 48.40226 | 10.04199 | 8° | 5km/h | 28532m | -33.3m/s | -45.2°C | 3.2% | 15.7hPa | 2.5V | 08:29:00 | 01:57:11 | 00:00:00 | |
| IW2NTF | 2026-09-04 00:26:37 | 48.40228 | 10.04195 | 217° | 5km/h | 28787m | -35.5m/s | -45.1°C | 3.1% | 15.2hPa | 2.5V | 08:30:00 | 01:57:04 | 00:00:00 | |
| DK7TD | 2026-09-04 00:26:35 | 48.40224 | 10.04197 | 100° | 2km/h | 28638m | -36.6m/s | -45.3°C | 0.3% | 15.5hPa | 2.6V | 08:29:58 | 01:57:08 | 00:00:00 | |
| DL1XH-west | 2026-09-04 00:26:32 | 48.40227 | 10.04195 | 174° | 5km/h | 28750m | -37.3m/s | -45.2°C | 0.3% | 15.3hPa | 2.5V | 08:29:58 | 01:57:05 | 00:00:00 | |
| DJ2DS-15 | 2026-09-04 00:26:31 | 48.40228 | 10.04195 | 218° | 11km/h | 28787m | -35.5m/s | -45.0°C | 3.1% | 15.1hPa | 2.6V | 00:00:00 | 01:57:04 | 00:00:00 | |
| DM0DOS-11 | 2026-09-04 00:26:30 | 48.40229 | 10.04198 | 297° | 5km/h | 28859m | -36.4m/s | -44.8°C | 3.1% | 15hPa | 2.6V | 08:29:23 | 01:57:02 | 00:00:00 | |
| SONCRA | 2026-09-04 00:26:30 | 48.40229 | 10.04198 | 297° | 4km/h | 28859m | -36.4m/s | -44.8°C | 0.8% | 15.0hPa | 2.5V | 00:00:00 | 00:00:00 | 00:00:00 | |
| DL1NUX | 2026-09-04 00:26:29 | 48.40223 | 10.04204 | 330° | 7km/h | 29041m | -36.6m/s | -44.6°C | 3% | 14.6hPa | 2.5V | 08:29:28 | 01:56:57 | 00:00:00 | |
| OE5DRO-10 | 2026-09-04 00:26:29 | 48.40229 | 10.04198 | 298° | 9km/h | 28859m | -36.4m/s | -44.8°C | 3.1% | 15.0hPa | 2.6V | 00:00:00 | 00:00:00 | 00:00:00 | |
| BAUMI2-15 | 2026-09-04 00:26:28 | 48.40228 | 10.04199 | 329° | 5km/h | 28896m | -36.4m/s | -44.8°C | 3.1% | 14.9hPa | 2.5V | 00:00:00 | 01:57:01 | 00:00:00 | |
| IW2NTF | 2026-09-04 00:26:27 | 48.40217 | 10.04204 | 15° | 9km/h | 29153m | -37.6m/s | -44.5°C | 3% | 14.4hPa | 2.5V | 08:30:00 | 01:56:54 | 00:00:00 | |
| DK7TD | 2026-09-04 00:26:25 | 48.40225 | 10.04202 | 324° | 7km/h | 29004m | -36.9m/s | -44.6°C | 0.2% | 14.7hPa | 2.5V | 08:29:58 | 01:56:58 | 00:00:00 | |
| DJ8HS-15 | 2026-09-04 00:26:25 | 48.40225 | 10.04202 | 324° | 13km/h | 29004m | -36.9m/s | -44.6°C | 3.0% | 14.6hPa | 2.5V | 00:00:00 | 01:56:58 | 00:00:00 | |
| DM0DOS-11 | 2026-09-04 00:26:23 | 48.40210 | 10.04198 | 38° | 11km/h | 29265m | -37.1m/s | -44.4°C | 3% | 14.1hPa | 2.6V | 08:29:34 | 01:56:51 | 00:00:00 | |
| DL1XH-west | 2026-09-04 00:26:21 | 48.40217 | 10.04204 | 15° | 9km/h | 29153m | -37.7m/s | -44.5°C | 0.2% | 14.4hPa | 2.5V | 08:29:58 | 01:56:54 | 00:00:00 | |
| DO3MHA-12 | 2026-09-04 00:26:21 | 48.40217 | 10.04204 | 16° | 13km/h | 29154m | -37.6m/s | -44.4°C | 3.0% | 14.3hPa | 2.6V | 00:00:00 | 01:56:54 | 00:00:00 | |
| DB0ND-19 | 2026-09-04 00:26:20 | 48.40215 | 10.04203 | 26° | 9km/h | 29190m | -36.0m/s | -44.4°C | 0.8% | 14.3hPa | 2.6V | 00:00:00 | 00:00:00 | 00:00:00 | |
| DL1NUX | 2026-09-04 00:26:18 | 48.40199 | 10.04181 | 52° | 13km/h | 29447m | -36.6m/s | -44.1°C | 3% | 13.7hPa | 2.6V | 08:29:39 | 01:56:46 | 00:00:00 | |
| DL1XH1-15 | 2026-09-04 00:26:18 | 48.40208 | 10.04195 | 45° | 13km/h | 29302m | -36.2m/s | -44.3°C | 3% | 14hPa | 2.6V | 08:29:35 | 01:56:50 | 00:00:00 | |
| DK7TD | 2026-09-04 00:26:14 | 48.40201 | 10.04185 | 59° | 13km/h | 29411m | -35.9m/s | -44.2°C | 0.1% | 13.8hPa | 2.5V | 08:29:58 | 01:56:47 | 00:00:00 | |
| DB0UT-7 | 2026-09-04 00:26:13 | 48.40199 | 10.04180 | 53° | 16km/h | 29448m | -36.5m/s | -44.1°C | 3.0% | 13.7hPa | 2.5V | 00:00:00 | 00:00:00 | 00:00:00 | |
| IW2NTF | 2026-09-04 00:26:11 | 48.40191 | 10.04161 | 54° | 16km/h | 29599m | -37.1m/s | -44.1°C | 2.9% | 13.4hPa | 2.5V | 08:30:00 | 01:56:42 | 00:00:00 | |
| DL1XH-west | 2026-09-04 00:26:11 | 48.40195 | 10.04172 | 63° | 15km/h | 29522m | -39.2m/s | -44°C | 0.1% | 13.6hPa | 2.5V | 08:29:58 | 01:56:44 | 00:00:00 | |
| DO3MHA-12 | 2026-09-04 00:26:11 | 48.40195 | 10.04171 | 63° | 16km/h | 29522m | -39.1m/s | -44.0°C | 2.9% | 13.5hPa | 2.5V | 00:00:00 | 01:56:44 | 00:00:00 | |
| OE5DRO-10 | 2026-09-04 00:26:10 | 48.40193 | 10.04166 | 66° | 16km/h | 29561m | -39.4m/s | -44.0°C | 2.9% | 13.5hPa | 2.5V | 00:00:00 | 00:00:00 | 00:00:00 | |
| DL1XH1-15 | 2026-09-04 00:26:08 | 48.40184 | 10.04145 | 59° | 15km/h | 29711m | -37.3m/s | -44.2°C | 3% | 13.2hPa | 2.5V | 08:29:46 | 01:56:39 | 00:00:00 | |
| BAUMI2-15 | 2026-09-04 00:26:08 | 48.40189 | 10.04155 | 62° | 16km/h | 29637m | -38.0m/s | -44.1°C | 2.9% | 13.3hPa | 2.6V | 00:00:00 | 01:56:41 | 00:00:00 | |
| OE5MMP-10 | 2026-09-04 00:26:07 | 48.40187 | 10.04150 | 52° | 16km/h | 29674m | -36.7m/s | -44.1°C | 3.0% | 13.2hPa | 2.6V | 00:00:00 | 01:56:40 | 00:00:00 | |
| DL1NUX | 2026-09-04 00:26:05 | 48.40179 | 10.04112 | 97° | 18km/h | 29934m | -38.5m/s | -44.3°C | 3% | 12.8hPa | 2.6V | 08:29:52 | 01:56:33 | 00:00:00 | |
| DJ8HS-15 | 2026-09-04 00:26:05 | 48.40183 | 10.04140 | 64° | 16km/h | 29748m | -36.7m/s | -44.3°C | 3.0% | 13.0hPa | 2.5V | 00:00:00 | 01:56:38 | 00:00:00 | |
| IW2NTF | 2026-09-04 00:26:04 | 48.40180 | 10.04106 | 98° | 16km/h | 29972m | -36.7m/s | -44.4°C | 3% | 12.7hPa | 2.5V | 08:30:00 | 01:56:32 | 00:00:00 | |
| DL4BBY-15 | 2026-09-04 00:26:04 | 48.40181 | 10.04135 | 64° | 16km/h | 29785m | -36.9m/s | -44.7°C | 0% | 0hPa | 2.5V | 00:00:00 | 00:00:00 | 00:00:00 | |
| DM0DOS-11 | 2026-09-04 00:26:03 | 48.40181 | 10.04100 | 107° | 15km/h | 30009m | -36.5m/s | -44.4°C | 3.1% | 12.6hPa | 2.5V | 08:29:54 | 01:56:31 | 00:00:00 | |
| DK7TD | 2026-09-04 00:26:03 | 48.40179 | 10.04130 | 66° | 15km/h | 29821m | -35.7m/s | -44.5°C | 0.2% | 13hPa | 2.5V | 08:29:58 | 01:56:36 | 00:00:00 | |
| DL1XH-west | 2026-09-04 00:26:00 | 48.40179 | 10.04112 | 97° | 18km/h | 29934m | -38.5m/s | -44.3°C | 0.2% | 12.8hPa | 2.6V | 08:29:58 | 01:56:33 | 00:00:00 | |
| DM7RM-13 | 2026-09-04 00:26:00 | 48.40179 | 10.04112 | 98° | 18km/h | 29935m | -38.5m/s | -44.3°C | 0.9% | 12.8hPa | 2.5V | 08:29:00 | 00:00:00 | 00:00:00 | |
| OE9MKV-15 | 2026-09-04 00:25:59 | 48.40180 | 10.04106 | 99° | 15km/h | 29973m | -36.6m/s | -44.3°C | 3.0% | 12.6hPa | 2.5V | 00:00:00 | 01:56:32 | 00:00:00 | |
| DL1XH1-15 | 2026-09-04 00:25:58 | 48.40188 | 10.04076 | 121° | 13km/h | 30183m | -33.1m/s | -44.5°C | 3.1% | 12.2hPa | 2.5V | 08:30:00 | 01:56:26 | 00:00:00 | |
| DF3TZ-5 | 2026-09-04 00:25:56 | 48.40183 | 10.04090 | 116° | 13km/h | 30079m | -33.9m/s | -44.5°C | 0.9% | 12.5hPa | 2.6V | 00:00:00 | 00:00:00 | 00:00:00 | |
| DL1NUX | 2026-09-04 00:25:54 | 48.40195 | 10.04061 | 127° | 18km/h | 30287m | -36m/s | -44.3°C | 3.1% | 12.1hPa | 2.6V | 08:30:00 | 01:56:23 | 00:00:00 | |
| DK7TD | 2026-09-04 00:25:52 | 48.40190 | 10.04071 | 125° | 18km/h | 30216m | -34.1m/s | -44.5°C | 0.3% | 12.2hPa | 2.5V | 18:12:15 | 01:56:25 | 00:00:00 | |
| IW2NTF | 2026-09-04 00:25:52 | 48.40197 | 10.04056 | 122° | 20km/h | 30323m | -36.5m/s | -44.2°C | 3.1% | 12hPa | 2.5V | 08:30:00 | 01:56:22 | 00:00:00 | |
| DL1XH-west | 2026-09-04 00:25:50 | 48.40198 | 10.04056 | 122° | 20km/h | 30323m | -36.5m/s | -44.2°C | 0.3% | 12hPa | 2.5V | 18:12:15 | 01:56:22 | 00:00:00 | |
| DM0DOS-11 | 2026-09-04 00:25:50 | 48.40200 | 10.04049 | 118° | 20km/h | 30359m | -36.2m/s | -44.1°C | 3.1% | 11.9hPa | 2.5V | 08:30:00 | 01:56:21 | 00:00:00 | |
| DB0ND-19 | 2026-09-04 00:25:50 | 48.40198 | 10.04056 | 122° | 18km/h | 30323m | -36.5m/s | -44.2°C | 0.9% | 12.0hPa | 2.6V | 00:00:00 | 00:00:00 | 00:00:00 | |
| DF7PN | 2026-09-04 00:25:47 | 48.40205 | 10.04036 | 116° | 18km/h | 30429m | -36.0m/s | -43.8°C | 0.8% | 11.8hPa | 2.6V | 00:00:00 | 00:00:00 | 00:00:00 | |
| DJ2DS-15 | 2026-09-04 00:25:46 | 48.40205 | 10.04036 | 117° | 26km/h | 30429m | -35.9m/s | -43.7°C | 3.0% | 11.8hPa | 2.6V | 00:00:00 | 01:56:19 | 00:00:00 | |
| DJ8HS-15 | 2026-09-04 00:25:45 | 48.40206 | 10.04030 | 118° | 18km/h | 30466m | -36.5m/s | -43.6°C | 2.9% | 11.7hPa | 2.5V | 00:00:00 | 01:56:18 | 00:00:00 | |
| IW2NTF | 2026-09-04 00:25:44 | 48.40209 | 10.04006 | 65° | 11km/h | 30680m | -34.3m/s | -43.6°C | 2.9% | 11.4hPa | 2.5V | 08:30:00 | 01:56:12 | 00:00:00 | |
| DM0DOS-11 | 2026-09-04 00:25:43 | 48.40207 | 10.04002 | 54° | 15km/h | 30713m | -33.2m/s | -43.5°C | 2.9% | 11.3hPa | 2.5V | 08:30:00 | 01:56:11 | 00:00:00 | |
| DK7TD | 2026-09-04 00:25:42 | 48.40210 | 10.04014 | 82° | 9km/h | 30610m | -36m/s | -43.5°C | 0.1% | 11.5hPa | 2.6V | 18:12:15 | 01:56:14 | 00:00:00 | |
| DL1NUX | 2026-09-04 00:25:40 | 48.40210 | 10.04010 | 75° | 11km/h | 30645m | -34.7m/s | -43.5°C | 2.9% | 11.4hPa | 2.6V | 08:30:00 | 01:56:13 | 00:00:00 | |
| DL1XH-west | 2026-09-04 00:25:39 | 48.40207 | 10.04002 | 54° | 15km/h | 30713m | -33.2m/s | -43.5°C | 0.1% | 11.3hPa | 2.5V | 18:12:15 | 01:56:11 | 00:00:00 | |
| PETON7-10 | 2026-09-04 00:25:38 | 48.40207 | 10.04002 | 55° | 26km/h | 30713m | -33.2m/s | -43.5°C | 2.9% | 11.3hPa | 2.5V | 00:00:00 | 00:00:00 | 00:00:00 | |
| OE5MMP-10 | 2026-09-04 00:25:37 | 48.40205 | 10.03998 | 56° | 18km/h | 30745m | -30.6m/s | -43.4°C | 2.9% | 11.2hPa | 2.6V | 00:00:00 | 01:56:10 | 00:00:00 | |
| DL1ZP-14 | 2026-09-04 00:25:36 | 48.40203 | 10.03993 | 53° | 15km/h | 30775m | -29.5m/s | -43.2°C | 0.8% | 11.2hPa | 2.6V | 00:00:00 | 00:00:00 | 00:00:00 | |
| DK5PH-5 | 2026-09-04 00:25:35 | 48.40201 | 10.03988 | 57° | 26km/h | 30804m | -27.6m/s | -43.0°C | 2.8% | 11.1hPa | 2.6V | 00:00:00 | 01:56:08 | 00:00:00 | |
| DL1XH1-15 | 2026-09-04 00:25:34 | 48.40198 | 10.03980 | 77° | 13km/h | 30858m | -27.5m/s | -43°C | 2.8% | 11hPa | 2.6V | 08:30:00 | 01:56:06 | 00:00:00 | |
| DK7TD | 2026-09-04 00:25:31 | 48.40199 | 10.03968 | 108° | 20km/h | 30914m | -26.9m/s | -43°C | 0% | 10.9hPa | 2.5V | 18:12:15 | 01:56:04 | 00:00:00 | |
| DM0DOS-11 | 2026-09-04 00:25:30 | 48.40206 | 10.03942 | 113° | 31km/h | 30980m | -17.7m/s | -43.1°C | 2.8% | 10.8hPa | 2.6V | 08:30:00 | 01:56:01 | 00:00:00 | |
| DL1NUX | 2026-09-04 00:25:30 | 48.40203 | 10.03952 | 113° | 26km/h | 30961m | -19.5m/s | -43.1°C | 2.8% | 10.8hPa | 2.6V | 08:30:00 | 01:56:02 | 00:00:00 | |
| DO3MHA-12 | 2026-09-04 00:25:30 | 48.40201 | 10.03960 | 112° | 33km/h | 30940m | -23.9m/s | -43.0°C | 2.8% | 10.8hPa | 2.5V | 00:00:00 | 01:56:03 | 08:30:00 | |
| OE9MKV-15 | 2026-09-04 00:25:29 | 48.40203 | 10.03952 | 114° | 27km/h | 30962m | -19.5m/s | -43.1°C | 2.8% | 10.8hPa | 2.6V | 00:00:00 | 01:56:02 | 00:00:00 | |
| DL1XH1-15 | 2026-09-04 00:25:28 | 48.40212 | 10.03880 | 84° | 35km/h | 31081m | -15m/s | -43.2°C | 2.8% | 10.6hPa | 2.6V | 08:30:00 | 01:55:56 | 00:00:00 | |
| DL1XH-west | 2026-09-04 00:25:28 | 48.40209 | 10.03931 | 111° | 33km/h | 30998m | -17.7m/s | -43.1°C | 0% | 10.8hPa | 2.5V | 18:12:15 | 01:56:00 | 00:00:00 | |
| SONCRA | 2026-09-04 00:25:28 | 48.40209 | 10.03931 | 111° | 33km/h | 30998m | -17.7m/s | -43.1°C | 0.8% | 10.8hPa | 2.5V | 00:00:00 | 00:00:00 | 00:00:00 | |
| OE5MMP-10 | 2026-09-04 00:25:27 | 48.40209 | 10.03930 | 112° | 33km/h | 30998m | -17.7m/s | -43.0°C | 2.8% | 10.7hPa | 2.5V | 00:00:00 | 01:56:00 | 00:00:00 | |
| DJ2DS-15 | 2026-09-04 00:25:25 | 48.40213 | 10.03906 | 97° | 27km/h | 31040m | -21.6m/s | -43.0°C | 2.8% | 10.7hPa | 2.6V | 00:00:00 | 01:55:58 | 00:00:00 | |
| DM0DOS-11 | 2026-09-04 00:25:24 | 48.40207 | 10.03820 | 81° | 24km/h | 31075m | 5.6m/s | -43.3°C | 2.8% | 10.6hPa | 2.6V | 08:30:00 | 01:55:51 | 00:00:00 | |
| PETON7-10 | 2026-09-04 00:25:22 | 48.40211 | 10.03866 | 84° | 26km/h | 31092m | -5.5m/s | -43.2°C | 2.9% | 10.5hPa | 2.5V | 00:00:00 | 00:00:00 | 00:00:00 | |
| DO3MHA-11 | 2026-09-04 00:25:21 | 48.40210 | 10.03853 | 84° | 27km/h | 31093m | 4.1m/s | -43.2°C | 2.8% | 10.6hPa | 2.5V | 00:00:00 | 01:55:54 | 00:00:00 | |
| DL1NUX | 2026-09-04 00:25:20 | 48.40206 | 10.03803 | 88° | 22km/h | 31064m | 5.3m/s | -43.2°C | 2.9% | 10.7hPa | 2.5V | 08:30:00 | 01:55:49 | 00:00:00 | |
| DK7TD | 2026-09-04 00:25:20 | 48.40209 | 10.03841 | 83° | 33km/h | 31087m | 5.7m/s | -43.3°C | 0% | 10.6hPa | 2.5V | 18:12:15 | 01:55:53 | 00:00:00 | |
| DO3MHA-12 | 2026-09-04 00:25:20 | 48.40209 | 10.03840 | 83° | 27km/h | 31087m | 5.7m/s | -43.2°C | 2.8% | 10.6hPa | 2.5V | 00:00:00 | 01:55:53 | 00:00:00 | |
| IW2NTF | 2026-09-04 00:25:19 | 48.40207 | 10.03811 | 85° | 22km/h | 31069m | 5.2m/s | -43.3°C | 2.9% | 10.6hPa | 2.5V | 08:30:00 | 01:55:50 | 00:00:00 | |
| DL1XH-west | 2026-09-04 00:25:16 | 48.40206 | 10.03803 | 89° | 22km/h | 31064m | 5.4m/s | -43.2°C | 0.1% | 10.7hPa | 2.5V | 18:12:15 | 01:55:49 | 00:00:00 | |
| DF7PN | 2026-09-04 00:25:16 | 48.40206 | 10.03794 | 91° | 24km/h | 31059m | 6.5m/s | -43.2°C | 0.8% | 10.7hPa | 2.6V | 00:00:00 | 00:00:00 | 00:00:00 | |
| DL1XH1-15 | 2026-09-04 00:25:14 | 48.40207 | 10.03772 | 89° | 31km/h | 31047m | 5.2m/s | -43.2°C | 2.8% | 10.7hPa | 2.6V | 08:30:00 | 01:55:46 | 00:00:00 | |
| IW2NTF | 2026-09-04 00:25:13 | 48.40203 | 10.03716 | 88° | 24km/h | 31013m | 6.4m/s | -43.2°C | 2.8% | 10.7hPa | 2.5V | 08:30:00 | 01:55:40 | 00:00:00 | |
| NBG1-10 | 2026-09-04 00:25:12 | 48.40206 | 10.03761 | 88° | 22km/h | 31042m | 4.9m/s | -43.2°C | 2.8% | 10.6hPa | 2.5V | 00:00:00 | 01:55:45 | 00:00:00 | |
| DO3MHA-11 | 2026-09-04 00:25:11 | 48.40206 | 10.03750 | 86° | 24km/h | 31036m | 6.3m/s | -43.2°C | 2.8% | 10.7hPa | 2.5V | 00:00:00 | 01:55:44 | 00:00:00 | |
| DL1NUX | 2026-09-04 00:25:10 | 48.40203 | 10.03706 | 94° | 26km/h | 31007m | 6.4m/s | -43.2°C | 2.8% | 10.8hPa | 2.5V | 08:30:00 | 01:55:39 | 00:00:00 | |
| DM0DOS-11 | 2026-09-04 00:25:10 | 48.40203 | 10.03724 | 83° | 22km/h | 31019m | 4.9m/s | -43.2°C | 2.8% | 10.7hPa | 2.6V | 08:30:00 | 01:55:41 | 00:00:00 | |
| DK7TD | 2026-09-04 00:25:09 | 48.40204 | 10.03732 | 81° | 22km/h | 31024m | 5.4m/s | -43.2°C | 0.1% | 10.7hPa | 2.6V | 18:12:15 | 01:55:42 | 00:00:00 | |
| DL1XH1-15 | 2026-09-04 00:25:08 | 48.40208 | 10.03678 | 111° | 24km/h | 30990m | 6.3m/s | -43.2°C | 2.8% | 10.8hPa | 2.6V | 08:30:00 | 01:55:36 | 00:00:00 | |
| DL1XH-west | 2026-09-04 00:25:05 | 48.40204 | 10.03696 | 100° | 27km/h | 31001m | 5.4m/s | -43.3°C | 0% | 10.8hPa | 2.5V | 18:12:15 | 01:55:38 | 00:00:00 | |
| DJ2DS-15 | 2026-09-04 00:25:05 | 48.40204 | 10.03696 | 100° | 18km/h | 31001m | 5.4m/s | -43.2°C | 2.8% | 10.7hPa | 2.6V | 00:00:00 | 01:55:38 | 00:00:00 | |
| DM0DOS-11 | 2026-09-04 00:25:03 | 48.40217 | 10.03646 | 99° | 22km/h | 30960m | 6.4m/s | -43.2°C | 2.9% | 10.8hPa | 2.6V | 08:30:00 | 01:55:31 | 00:00:00 | |
| DL8DAS-14 | 2026-09-04 00:25:02 | 48.40217 | 10.03646 | 99° | 20km/h | 30960m | 6.4m/s | -43.2°C | 0.8% | 10.8hPa | 2.5V | 00:00:00 | 00:00:00 | 00:00:00 | |
| IW2NTF | 2026-09-04 00:25:01 | 48.40218 | 10.03637 | 91° | 26km/h | 30954m | 5.3m/s | -43.2°C | 2.9% | 10.8hPa | 2.5V | 08:30:00 | 01:55:30 | 00:00:00 | |
| DO3MHA-11 | 2026-09-04 00:25:01 | 48.40212 | 10.03665 | 123° | 20km/h | 30977m | 5.5m/s | -43.2°C | 2.8% | 10.7hPa | 2.5V | 00:00:00 | 01:55:34 | 00:00:00 | |
| DL1NUX | 2026-09-04 00:25:00 | 48.40216 | 10.03618 | 79° | 24km/h | 30944m | 5.5m/s | -43.2°C | 2.9% | 10.9hPa | 2.5V | 08:30:00 | 01:55:28 | 00:00:00 | |
| DK7TD | 2026-09-04 00:24:59 | 48.40216 | 10.03654 | 109° | 18km/h | 30966m | 6m/s | -43.2°C | 0.1% | 10.8hPa | 2.6V | 18:12:15 | 01:55:32 | 00:00:00 | |
| BIOWL1-15 | 2026-09-04 00:24:58 | 48.40217 | 10.03628 | 85° | 26km/h | 30949m | 4.9m/s | 0°C | 0% | 0hPa | 2.5V | 18:12:15 | 01:55:29 | 00:00:00 | |
| DL1XH-west | 2026-09-04 00:24:55 | 48.40216 | 10.03618 | 80° | 24km/h | 30944m | 5.5m/s | -43.2°C | 0.1% | 10.9hPa | 2.5V | 18:12:15 | 01:55:28 | 00:00:00 | |
| DL1XH1-15 | 2026-09-04 00:24:54 | 48.40214 | 10.03603 | 68° | 16km/h | 30931m | 6.4m/s | -43.2°C | 2.8% | 10.9hPa | 2.6V | 08:30:00 | 01:55:26 | 00:00:00 | |
| OE5DRO-10 | 2026-09-04 00:24:54 | 48.40215 | 10.03610 | 75° | 18km/h | 30938m | 6.5m/s | -43.2°C | 2.9% | 10.8hPa | 2.5V | 00:00:00 | 00:00:00 | 00:00:00 | |
| DO3MHA-11 | 2026-09-04 00:24:52 | 48.40211 | 10.03593 | 71° | 18km/h | 30920m | 5.4m/s | -43.2°C | 2.9% | 10.8hPa | 2.5V | 00:00:00 | 01:55:24 | 00:00:00 | |
| DM0DOS-11 | 2026-09-04 00:24:52 | 48.40209 | 10.03573 | 87° | 24km/h | 30902m | 5.8m/s | -43.3°C | 2.9% | 10.9hPa | 2.6V | 08:30:00 | 01:55:21 | 00:00:00 | |
| PETON7-10 | 2026-09-04 00:24:51 | 48.40211 | 10.03593 | 71° | 18km/h | 30920m | 5.4m/s | -43.2°C | 2.9% | 10.8hPa | 2.5V | 00:00:00 | 00:00:00 | 00:00:00 | |
| DL1NUX | 2026-09-04 00:24:50 | 48.40207 | 10.03546 | 73° | 20km/h | 30885m | 6.7m/s | -43.2°C | 2.8% | 10.9hPa | 2.5V | 08:30:00 | 01:55:18 | 00:00:00 | |
| DO3MHA-12 | 2026-09-04 00:24:50 | 48.40210 | 10.03587 | 80° | 20km/h | 30914m | 5.6m/s | -43.3°C | 2.8% | 10.8hPa | 2.5V | 00:00:00 | 01:55:23 | 00:00:00 | |
| DL1XH1-15 | 2026-09-04 00:24:48 | 48.40203 | 10.03536 | 40° | 15km/h | 30873m | 5.6m/s | -43.2°C | 2.8% | 11hPa | 2.5V | 08:30:00 | 01:55:16 | 00:00:00 | |
| DK7TD | 2026-09-04 00:24:48 | 48.40209 | 10.03573 | 88° | 24km/h | 30902m | 5.8m/s | -43.3°C | 0.1% | 10.9hPa | 2.6V | 18:12:15 | 01:55:21 | 00:00:00 | |
| DL1XH-west | 2026-09-04 00:24:44 | 48.40205 | 10.03540 | 59° | 16km/h | 30879m | 6.5m/s | -43.2°C | 0% | 11hPa | 2.5V | 18:12:15 | 01:55:17 | 00:00:00 | |
| OE5WHR-10 | 2026-09-04 00:24:44 | 48.40205 | 10.03540 | 59° | 13km/h | 30879m | 6.5m/s | 0°C | 0% | 0hPa | 2.6V | 00:00:00 | 01:55:17 | 00:00:00 | |
| DM0DOS-11 | 2026-09-04 00:24:43 | 48.40184 | 10.03504 | 65° | 18km/h | 30839m | 5.1m/s | -43.3°C | 2.8% | 11hPa | 2.6V | 08:30:00 | 01:55:10 | 00:00:00 | |
| OE5DXL-15 | 2026-09-04 00:24:43 | 48.40203 | 10.03536 | 41° | 11km/h | 30873m | 5.6m/s | -43.1°C | 2.8% | 10.9hPa | 2.5V | 00:00:00 | 00:00:00 | 00:00:00 | |
| DO3MHA-11 | 2026-09-04 00:24:41 | 48.40196 | 10.03528 | 36° | 15km/h | 30863m | 5.5m/s | -43.1°C | 2.7% | 10.9hPa | 2.5V | 00:00:00 | 01:55:14 | 00:00:00 | |
| DL1NUX | 2026-09-04 00:24:40 | 48.40181 | 10.03494 | 64° | 9km/h | 30827m | 6.3m/s | -43.4°C | 2.8% | 11hPa | 2.5V | 08:30:00 | 01:55:08 | 00:00:00 | |
| DK7TD | 2026-09-04 00:24:38 | 48.40187 | 10.03511 | 63° | 22km/h | 30844m | 5.1m/s | -43.3°C | 0% | 11hPa | 2.5V | 18:12:15 | 01:55:11 | 00:00:00 | |
| DL1XH-west | 2026-09-04 00:24:34 | 48.40181 | 10.03491 | 75° | 5km/h | 30821m | 5.3m/s | -43.4°C | 0% | 11.1hPa | 2.5V | 18:12:15 | 01:55:07 | 00:00:00 | |
| IW2NTF | 2026-09-04 00:24:31 | 48.40177 | 10.03483 | 5° | 11km/h | 30774m | 5m/s | -43.8°C | 2.9% | 11.1hPa | 2.6V | 08:30:00 | 01:54:59 | 00:00:00 | |
| DL8DAS-14 | 2026-09-04 00:24:31 | 48.40182 | 10.03484 | 115° | 2km/h | 30798m | 5.1m/s | -43.5°C | 0.8% | 11.1hPa | 2.5V | 00:00:00 | 00:00:00 | 00:00:00 | |
| DM0DOS-11 | 2026-09-04 00:24:30 | 48.40181 | 10.03483 | 347° | 5km/h | 30785m | 6.6m/s | -43.6°C | 2.9% | 11.1hPa | 2.5V | 08:30:00 | 01:55:01 | 00:00:00 | |
| DL1NUX | 2026-09-04 00:24:30 | 48.40174 | 10.03482 | 25° | 15km/h | 30769m | 5.1m/s | -43.8°C | 2.9% | 11.1hPa | 2.5V | 08:30:00 | 01:54:58 | 00:00:00 | |
| DO3MHA-12 | 2026-09-04 00:24:30 | 48.40182 | 10.03484 | 116° | 11km/h | 30798m | 5.0m/s | -43.5°C | 2.8% | 11.1hPa | 2.5V | 00:00:00 | 01:55:03 | 00:00:00 | |
| OE9MKV-15 | 2026-09-04 00:24:29 | 48.40182 | 10.03483 | 46° | 13km/h | 30792m | 5.9m/s | -43.5°C | 2.9% | 11.0hPa | 2.5V | 00:00:00 | 01:55:02 | 08:30:00 | |
| DL1XH1-15 | 2026-09-04 00:24:28 | 48.40168 | 10.03473 | 59° | 20km/h | 30756m | 6.5m/s | -44°C | 3% | 11.2hPa | 2.5V | 08:30:00 | 01:54:56 | 00:00:00 | |
| DK7TD | 2026-09-04 00:24:28 | 48.40181 | 10.03483 | 347° | 5km/h | 30785m | 6.6m/s | -43.7°C | 0.1% | 11.1hPa | 2.5V | 18:12:15 | 01:55:01 | 00:00:00 | |
| DL1XH-west | 2026-09-04 00:24:23 | 48.40168 | 10.03473 | 60° | 20km/h | 30756m | 6.5m/s | -44°C | 0.2% | 11.2hPa | 2.5V | 18:12:15 | 01:54:56 | 00:00:00 | |
| DO3MHA-11 | 2026-09-04 00:24:21 | 48.40164 | 10.03460 | 75° | 5km/h | 30745m | 4.8m/s | -43.9°C | 3.0% | 11.1hPa | 2.6V | 00:00:00 | 01:54:54 | 08:30:00 | |
| DL1NUX | 2026-09-04 00:24:20 | 48.40165 | 10.03457 | 224° | 2km/h | 30708m | 6.2m/s | -44°C | 3% | 11.2hPa | 2.5V | 08:30:00 | 01:54:48 | 00:00:00 | |
| PETON7-10 | 2026-09-04 00:24:20 | 48.40164 | 10.03455 | 79° | 9km/h | 30740m | 6.3m/s | -43.9°C | 3.0% | 11.1hPa | 2.6V | 00:00:00 | 01:54:53 | 00:00:00 | |
| IW2NTF | 2026-09-04 00:24:19 | 48.40165 | 10.03456 | 240° | 5km/h | 30714m | 6.8m/s | -44°C | 3% | 11.2hPa | 2.6V | 08:30:00 | 01:54:49 | 00:00:00 | |
| DL1XH1-15 | 2026-09-04 00:24:18 | 48.40165 | 10.03456 | 46° | 4km/h | 30696m | 6.2m/s | -44°C | 3% | 11.2hPa | 2.6V | 08:30:00 | 01:54:46 | 00:00:00 | |
| DK7TD | 2026-09-04 00:24:17 | 48.40164 | 10.03454 | 246° | 5km/h | 30721m | 5.8m/s | -44°C | 0.2% | 11.2hPa | 2.6V | 18:12:15 | 01:54:50 | 00:00:00 | |
| DL1XH-west | 2026-09-04 00:24:13 | 48.40165 | 10.03456 | 47° | 4km/h | 30696m | 6.2m/s | -44°C | 0.2% | 11.2hPa | 2.6V | 18:12:15 | 01:54:46 | 00:00:00 | |
| DB0UT-7 | 2026-09-04 00:24:13 | 48.40164 | 10.03456 | 47° | 16km/h | 30696m | 6.2m/s | -43.9°C | 3.0% | 11.2hPa | 2.6V | 00:00:00 | 00:00:00 | 00:00:00 | |
| IW2NTF | 2026-09-04 00:24:12 | 48.40157 | 10.03411 | 103° | 24km/h | 30655m | 4.1m/s | -43.8°C | 2.9% | 11.3hPa | 2.6V | 08:30:00 | 01:54:39 | 00:00:00 | |
| DM0DOS-11 | 2026-09-04 00:24:11 | 48.40157 | 10.03431 | 84° | 27km/h | 30665m | 6.8m/s | -43.9°C | 2.9% | 11.3hPa | 2.5V | 08:30:00 | 01:54:41 | 00:00:00 | |
| DL1NUX | 2026-09-04 00:24:10 | 48.40159 | 10.03404 | 115° | 18km/h | 30650m | 6.4m/s | -43.8°C | 2.9% | 11.3hPa | 2.5V | 08:30:00 | 01:54:38 | 00:00:00 | |
| DO3MHA-12 | 2026-09-04 00:24:10 | 48.40160 | 10.03447 | 64° | 16km/h | 30679m | 5.1m/s | -43.9°C | 3.0% | 11.2hPa | 2.6V | 00:00:00 | 01:54:43 | 00:00:00 | |
| DL1XH1-15 | 2026-09-04 00:24:08 | 48.40164 | 10.03398 | 186° | 11km/h | 30637m | 6.2m/s | -43.8°C | 2.9% | 11.4hPa | 2.6V | 08:30:00 | 01:54:36 | 00:00:00 | |
| DK7TD | 2026-09-04 00:24:06 | 48.40157 | 10.03411 | 104° | 24km/h | 30655m | 4.1m/s | -43.8°C | 0.1% | 11.3hPa | 2.6V | 18:12:15 | 01:54:39 | 00:00:00 | |
| NBG1-10 | 2026-09-04 00:24:06 | 48.40157 | 10.03411 | 104° | 18km/h | 30656m | 4.1m/s | -43.8°C | 2.9% | 11.3hPa | 2.6V | 00:00:00 | 01:54:39 | 00:00:00 | |
| PETON7-10 | 2026-09-04 00:24:05 | 48.40159 | 10.03403 | 116° | 15km/h | 30650m | 6.3m/s | -43.8°C | 2.9% | 11.3hPa | 2.5V | 00:00:00 | 00:00:00 | 08:30:00 | |
| DM0DOS-11 | 2026-09-04 00:24:03 | 48.40177 | 10.03400 | 126° | 15km/h | 30608m | 5.5m/s | -43.8°C | 2.9% | 11.4hPa | 2.5V | 08:30:00 | 01:54:31 | 00:00:00 | |
| DL1XH-west | 2026-09-04 00:24:02 | 48.40167 | 10.03400 | 208° | 13km/h | 30631m | 5.8m/s | -43.8°C | 0.1% | 11.4hPa | 2.6V | 18:12:15 | 01:54:35 | 00:00:00 | |
| DO3MHA-11 | 2026-09-04 00:24:01 | 48.40169 | 10.03402 | 210° | 16km/h | 30625m | 5.6m/s | -43.8°C | 2.9% | 11.3hPa | 2.5V | 00:00:00 | 01:54:34 | 00:00:00 | |
| DL1NUX | 2026-09-04 00:24:00 | 48.40180 | 10.03380 | 90° | 20km/h | 30591m | 6.8m/s | -43.8°C | 2.9% | 11.4hPa | 2.5V | 08:30:00 | 01:54:28 | 00:00:00 | |
| DO3MHA-12 | 2026-09-04 00:24:00 | 48.40172 | 10.03403 | 191° | 16km/h | 30620m | 5.4m/s | -43.8°C | 2.9% | 11.4hPa | 2.5V | 00:00:00 | 01:54:33 | 08:30:00 | |
| OE9MKV-15 | 2026-09-04 00:23:59 | 48.40174 | 10.03403 | 155° | 20km/h | 30614m | 5.6m/s | -43.7°C | 2.9% | 11.4hPa | 2.5V | 00:00:00 | 01:54:32 | 00:00:00 | |
| DL1XH1-15 | 2026-09-04 00:23:58 | 48.40179 | 10.03365 | 75° | 18km/h | 30578m | 5.8m/s | -43.8°C | 2.9% | 11.4hPa | 2.5V | 08:30:00 | 01:54:26 | 00:00:00 | |
| DJ2DS-15 | 2026-09-04 00:23:58 | 48.40177 | 10.03400 | 127° | 18km/h | 30609m | 5.5m/s | -43.7°C | 2.9% | 11.4hPa | 2.6V | 00:00:00 | 01:54:31 | 00:00:00 | |
| IW2NTF | 2026-09-04 00:23:57 | 48.40176 | 10.03351 | 80° | 18km/h | 30567m | 5.4m/s | -43.7°C | 2.9% | 11.5hPa | 2.6V | 08:30:00 | 01:54:24 | 00:00:00 | |
| DK7TD | 2026-09-04 00:23:55 | 48.40180 | 10.03380 | 91° | 20km/h | 30591m | 6.8m/s | -43.8°C | 0.1% | 11.4hPa | 2.5V | 18:12:15 | 01:54:28 | 00:00:00 | |
| SONCRA | 2026-09-04 00:23:55 | 48.40180 | 10.03372 | 81° | 18km/h | 30585m | 6.4m/s | -43.8°C | 0.8% | 11.4hPa | 2.6V | 00:00:00 | 00:00:00 | 00:00:00 | |
| DF3TZ-5 | 2026-09-04 00:23:52 | 48.40177 | 10.03358 | 75° | 18km/h | 30573m | 5.5m/s | -43.7°C | 0.8% | 11.5hPa | 2.6V | 00:00:00 | 00:00:00 | 00:00:00 | |
| DO3MHA-11 | 2026-09-04 00:23:51 | 48.40176 | 10.03351 | 81° | 18km/h | 30567m | 5.3m/s | -43.7°C | 2.9% | 11.4hPa | 2.6V | 00:00:00 | 01:54:24 | 00:00:00 | |
| DL1XH-west | 2026-09-04 00:23:51 | 48.40176 | 10.03351 | 81° | 18km/h | 30567m | 5.4m/s | -43.7°C | 0.1% | 11.5hPa | 2.6V | 18:12:15 | 01:54:24 | 00:00:00 | |
| DM0DOS-11 | 2026-09-04 00:23:50 | 48.40178 | 10.03327 | 106° | 24km/h | 30549m | 5.4m/s | -43.8°C | 2.9% | 11.5hPa | 2.5V | 08:30:00 | 01:54:21 | 00:00:00 | |
| DL1NUX | 2026-09-04 00:23:50 | 48.40182 | 10.03307 | 113° | 13km/h | 30531m | 6.4m/s | -43.8°C | 2.9% | 11.6hPa | 2.5V | 08:30:00 | 01:54:18 | 00:00:00 | |
| DO3MHA-12 | 2026-09-04 00:23:50 | 48.40176 | 10.03343 | 90° | 18km/h | 30562m | 6.5m/s | -43.7°C | 2.9% | 11.4hPa | 2.5V | 00:00:00 | 01:54:23 | 00:00:00 | |
| DL1XH1-15 | 2026-09-04 00:23:48 | 48.40185 | 10.03300 | 119° | 13km/h | 30519m | 5.4m/s | -43.9°C | 2.9% | 11.6hPa | 2.5V | 08:30:00 | 01:54:16 | 00:00:00 | |
| DK7TD | 2026-09-04 00:23:45 | 48.40183 | 10.03307 | 113° | 13km/h | 30531m | 6.4m/s | -43.9°C | 0.1% | 11.6hPa | 2.5V | 18:12:15 | 01:54:18 | 00:00:00 | |
| DL4BBY-15 | 2026-09-04 00:23:45 | 48.40182 | 10.03307 | 114° | 18km/h | 30531m | 6.3m/s | 0°C | 0% | 0hPa | 2.6V | 00:00:00 | 00:00:00 | 00:00:00 | |
| IW2NTF | 2026-09-04 00:23:44 | 48.40189 | 10.03289 | 120° | 20km/h | 30507m | 6.2m/s | -44°C | 2.9% | 11.6hPa | 2.6V | 08:30:00 | 01:54:14 | 00:00:00 | |
| DM0DOS-11 | 2026-09-04 00:23:43 | 48.40196 | 10.03266 | 106° | 22km/h | 30489m | 6.8m/s | -44.1°C | 2.9% | 11.6hPa | 2.5V | 08:30:00 | 01:54:11 | 00:00:00 | |
| DL1XH-west | 2026-09-04 00:23:41 | 48.40189 | 10.03289 | 120° | 20km/h | 30507m | 6.2m/s | -44°C | 0.1% | 11.6hPa | 2.6V | 18:12:15 | 01:54:14 | 00:00:00 | |
| OE5WHR-10 | 2026-09-04 00:23:41 | 48.40189 | 10.03289 | 121° | 15km/h | 30507m | 6.2m/s | 0°C | 0% | 0hPa | 2.6V | 00:00:00 | 01:54:14 | 00:00:00 | |
| DO3MHA-12 | 2026-09-04 00:23:40 | 48.40192 | 10.03282 | 117° | 22km/h | 30501m | 5.3m/s | -44.0°C | 2.9% | 11.6hPa | 2.6V | 00:00:00 | 01:54:13 | 00:00:00 | |
| DL1XH1-15 | 2026-09-04 00:23:38 | 48.40206 | 10.03229 | 129° | 26km/h | 30460m | 6.6m/s | -44.3°C | 2.9% | 11.7hPa | 2.6V | 08:30:00 | 01:54:06 | 00:00:00 | |
| DK7TD | 2026-09-04 00:23:35 | 48.40200 | 10.03243 | 112° | 20km/h | 30472m | 4.8m/s | -44.2°C | 0.1% | 11.6hPa | 2.5V | 18:12:15 | 01:54:08 | 00:00:00 | |
| DL1XH-west | 2026-09-04 00:23:31 | 48.40215 | 10.03216 | 142° | 24km/h | 30449m | 5m/s | -44.3°C | 0.1% | 11.7hPa | 2.6V | 18:12:15 | 01:54:04 | 00:00:00 | |
| DM0DOS-11 | 2026-09-04 00:23:31 | 48.40224 | 10.03206 | 137° | 4km/h | 30431m | 6.3m/s | -44.4°C | 2.9% | 11.7hPa | 2.5V | 08:30:00 | 01:54:01 | 00:00:00 | |
| DO3MHA-12 | 2026-09-04 00:23:30 | 48.40220 | 10.03211 | 146° | 11km/h | 30444m | 5.2m/s | -44.3°C | 2.9% | 11.7hPa | 2.5V | 00:00:00 | 01:54:03 | 00:00:00 | |
| OE9MKV-15 | 2026-09-04 00:23:29 | 48.40223 | 10.03208 | 147° | 15km/h | 30438m | 6.8m/s | -44.3°C | 2.9% | 11.7hPa | 2.6V | 00:00:00 | 01:54:02 | 00:00:00 | |
| DL8DAS-14 | 2026-09-04 00:23:28 | 48.40225 | 10.03206 | 137° | 4km/h | 30431m | 6.3m/s | -44.4°C | 0.8% | 11.7hPa | 2.6V | 00:00:00 | 00:00:00 | 00:00:00 | |
| DL1XH1-15 | 2026-09-04 00:23:27 | 48.40223 | 10.03193 | 100° | 16km/h | 30401m | 6m/s | -44.5°C | 3% | 11.8hPa | 2.6V | 08:30:00 | 01:53:56 | 00:00:00 | |
| OE5MMP-10 | 2026-09-04 00:23:27 | 48.40225 | 10.03205 | 46° | 15km/h | 30425m | 5.1m/s | -44.4°C | 3.0% | 11.7hPa | 2.6V | 00:00:00 | 01:54:00 | 00:00:00 | |
| BAUMI2-15 | 2026-09-04 00:23:26 | 48.40224 | 10.03204 | 43° | 13km/h | 30420m | 5.2m/s | -44.4°C | 3.0% | 11.7hPa | 2.5V | 00:00:00 | 01:53:59 | 00:00:00 | |
| IW2NTF | 2026-09-04 00:23:25 | 48.40227 | 10.03172 | 105° | 20km/h | 30383m | 5.9m/s | -44.6°C | 3% | 11.8hPa | 2.5V | 08:30:00 | 01:53:53 | 00:00:00 | |
| DK7TD | 2026-09-04 00:23:24 | 48.40223 | 10.03199 | 92° | 13km/h | 30407m | 6.1m/s | -44.5°C | 0.1% | 11.8hPa | 2.5V | 18:12:15 | 01:53:57 | 00:00:00 | |
| DL6DJ-15 | 2026-09-04 00:23:24 | 48.40223 | 10.03193 | 100° | 16km/h | 30402m | 6.0m/s | -44.5°C | 0.8% | 11.8hPa | 2.5V | 00:00:00 | 00:00:00 | 00:00:00 | |
| DM0DOS-11 | 2026-09-04 00:23:23 | 48.40231 | 10.03158 | 122° | 20km/h | 30372m | 5.3m/s | -44.6°C | 3% | 11.8hPa | 2.5V | 08:30:00 | 01:53:51 | 00:00:00 | |
| DL1XH-west | 2026-09-04 00:23:21 | 48.40225 | 10.03179 | 105° | 20km/h | 30389m | 6.8m/s | -44.6°C | 0.2% | 11.8hPa | 2.6V | 18:12:15 | 01:53:54 | 00:00:00 | |
| BAUMI2-15 | 2026-09-04 00:23:21 | 48.40225 | 10.03179 | 105° | 20km/h | 30390m | 6.7m/s | -44.5°C | 3.0% | 11.7hPa | 2.6V | 00:00:00 | 01:53:54 | 00:00:00 | |
| DO3MHA-12 | 2026-09-04 00:23:20 | 48.40227 | 10.03172 | 106° | 16km/h | 30383m | 5.9m/s | -44.6°C | 3.0% | 11.8hPa | 2.5V | 00:00:00 | 01:53:53 | 00:00:00 | |
| PETON7-10 | 2026-09-04 00:23:19 | 48.40228 | 10.03165 | 114° | 18km/h | 30378m | 5.1m/s | 0°C | 0% | 0hPa | 2.5V | 00:00:00 | 00:00:00 | 00:00:00 | |
| DJ2DS-15 | 2026-09-04 00:23:18 | 48.40231 | 10.03158 | 123° | 16km/h | 30373m | 5.3m/s | -44.6°C | 3.0% | 11.8hPa | 2.5V | 00:00:00 | 01:53:51 | 08:30:00 | |
| OE5MMP-10 | 2026-09-04 00:23:17 | 48.40234 | 10.03152 | 131° | 15km/h | 30366m | 7.0m/s | -44.6°C | 3.0% | 11.8hPa | 2.5V | 00:00:00 | 01:53:50 | 00:00:00 | |
| BAUMI2-15 | 2026-09-04 00:23:16 | 48.40238 | 10.03146 | 138° | 16km/h | 30360m | 6.2m/s | -44.6°C | 3.0% | 11.8hPa | 2.5V | 00:00:00 | 01:53:49 | 00:00:00 | |
| DL1XH1-15 | 2026-09-04 00:23:15 | 48.40248 | 10.03132 | 126° | 11km/h | 30342m | 6.8m/s | -44.7°C | 3% | 11.9hPa | 2.5V | 08:30:00 | 01:53:46 | 00:00:00 | |
| DK7TD | 2026-09-04 00:23:14 | 48.40246 | 10.03136 | 138° | 16km/h | 30348m | 5.6m/s | -44.7°C | 0.2% | 11.9hPa | 2.5V | 18:12:15 | 01:53:47 | 00:00:00 | |
| AZAK | 2026-09-04 00:23:14 | 48.40246 | 10.03136 | 139° | 16km/h | 30349m | 5.6m/s | -44.7°C | 0.9% | 11.9hPa | 2.5V | 00:00:00 | 00:00:00 | 00:00:00 | |
| DB0UT-7 | 2026-09-04 00:23:13 | 48.40248 | 10.03132 | 127° | 15km/h | 30342m | 6.8m/s | -44.7°C | 3.0% | 11.8hPa | 2.5V | 00:00:00 | 00:00:00 | 00:00:00 | |
| IW2NTF | 2026-09-04 00:23:11 | 48.40250 | 10.03111 | 112° | 20km/h | 30313m | 6m/s | -44.8°C | 3.1% | 11.9hPa | 2.5V | 08:30:00 | 01:53:41 | 00:00:00 | |
| DM0DOS-11 | 2026-09-04 00:23:11 | 48.40255 | 10.03097 | 119° | 24km/h | 30302m | 5.2m/s | -44.8°C | 3.1% | 11.9hPa | 2.6V | 08:30:00 | 01:53:39 | 00:00:00 | |
| DL1XH-west | 2026-09-04 00:23:10 | 48.40248 | 10.03122 | 88° | 11km/h | 30325m | 5.4m/s | -44.8°C | 0.2% | 11.9hPa | 2.5V | 18:12:15 | 01:53:43 | 00:00:00 | |
| DO3MHA-12 | 2026-09-04 00:23:10 | 48.40248 | 10.03122 | 88° | 18km/h | 30325m | 5.3m/s | -44.7°C | 3.1% | 11.9hPa | 2.5V | 00:00:00 | 01:53:43 | 00:00:00 | |
| OE5MMP-10 | 2026-09-04 00:23:07 | 48.40252 | 10.03104 | 119° | 18km/h | 30307m | 5.2m/s | -44.7°C | 3.1% | 11.9hPa | 2.5V | 00:00:00 | 01:53:40 | 00:00:00 | |
| DL1XH1-15 | 2026-09-04 00:23:06 | 48.40261 | 10.03076 | 106° | 16km/h | 30283m | 5.8m/s | -44.8°C | 3.1% | 12hPa | 2.5V | 08:30:00 | 01:53:36 | 00:00:00 | |
| DK7TD | 2026-09-04 00:23:03 | 48.40261 | 10.03076 | 106° | 16km/h | 30283m | 5.8m/s | -44.8°C | 0.3% | 12hPa | 2.5V | 18:12:15 | 01:53:36 | 00:00:00 | |
| DL1XH-west | 2026-09-04 00:23:00 | 48.40265 | 10.03060 | 114° | 16km/h | 30265m | 6.3m/s | -44.8°C | 0.2% | 12hPa | 2.5V | 18:12:15 | 01:53:33 | 00:00:00 | |
| DL8DAS-14 | 2026-09-04 00:22:58 | 48.40268 | 10.03045 | 95° | 11km/h | 30248m | 6.9m/s | -44.8°C | 0.8% | 12.1hPa | 2.6V | 00:00:00 | 00:00:00 | 00:00:00 | |
| OE5MMP-10 | 2026-09-04 00:22:57 | 48.40268 | 10.03045 | 96° | 16km/h | 30248m | 6.9m/s | -44.8°C | 3.0% | 12.0hPa | 2.6V | 00:00:00 | 01:53:30 | 08:30:00 | |
| BAUMI2-15 | 2026-09-04 00:22:56 | 48.40268 | 10.03040 | 81° | 13km/h | 30241m | 6.1m/s | -44.8°C | 3.1% | 12.0hPa | 2.6V | 00:00:00 | 01:53:29 | 00:00:00 | |
| DL1XH1-15 | 2026-09-04 00:22:54 | 48.40269 | 10.03028 | 113° | 16km/h | 30224m | 6.9m/s | -44.8°C | 3.1% | 12.1hPa | 2.6V | 08:30:00 | 01:53:26 | 00:00:00 | |
| DK7TD | 2026-09-04 00:22:53 | 48.40269 | 10.03028 | 113° | 16km/h | 30224m | 6.9m/s | -44.8°C | 0.2% | 12.1hPa | 2.6V | 18:12:15 | 01:53:26 | 00:00:00 | |
| DL6DJ-15 | 2026-09-04 00:22:53 | 48.40271 | 10.03022 | 122° | 20km/h | 30218m | 6.3m/s | -44.8°C | 0.8% | 12.1hPa | 2.5V | 00:00:00 | 00:00:00 | 00:00:00 | |
| SONCRA | 2026-09-04 00:22:52 | 48.40271 | 10.03022 | 122° | 20km/h | 30218m | 6.3m/s | -44.8°C | 0.8% | 12.1hPa | 2.5V | 00:00:00 | 00:00:00 | 00:00:00 | |
| OE5WHR-10 | 2026-09-04 00:22:51 | 48.40275 | 10.03015 | 125° | 13km/h | 30212m | 5.4m/s | 0°C | 0% | 0hPa | 2.5V | 00:00:00 | 00:00:00 | 00:00:00 | |
| DM0DOS-11 | 2026-09-04 00:22:50 | 48.40284 | 10.02979 | 100° | 11km/h | 30177m | 6.2m/s | -44.9°C | 3.1% | 12.2hPa | 2.5V | 08:30:00 | 01:53:18 | 00:00:00 | |
| DL1XH-west | 2026-09-04 00:22:49 | 48.40280 | 10.03001 | 116° | 20km/h | 30200m | 6.3m/s | -44.8°C | 0.2% | 12.2hPa | 2.5V | 18:12:15 | 01:53:22 | 00:00:00 | |
| PETON7-10 | 2026-09-04 00:22:49 | 48.40280 | 10.03001 | 117° | 16km/h | 30200m | 6.2m/s | 0°C | 0% | 0hPa | 2.5V | 00:00:00 | 01:53:22 | 00:00:00 | |
| DL1XH1-15 | 2026-09-04 00:22:48 | 48.40285 | 10.02972 | 94° | 7km/h | 30166m | 5.4m/s | -44.9°C | 3.1% | 12.2hPa | 2.5V | 08:30:00 | 01:53:16 | 00:00:00 | |
| DK7TD | 2026-09-04 00:22:42 | 48.40285 | 10.02969 | 76° | 7km/h | 30160m | 6.7m/s | -44.9°C | 0.2% | 12.2hPa | 2.6V | 18:12:15 | 01:53:15 | 00:00:00 | |
| DL1XH-west | 2026-09-04 00:22:39 | 48.40284 | 10.02959 | 98° | 15km/h | 30143m | 5.5m/s | -44.8°C | 0.2% | 12.3hPa | 2.5V | 18:12:15 | 01:53:12 | 00:00:00 | |
| DJ2DS-15 | 2026-09-04 00:22:38 | 48.40285 | 10.02953 | 110° | 18km/h | 30137m | 6.8m/s | -44.8°C | 3.1% | 12.2hPa | 2.5V | 00:00:00 | 01:53:11 | 00:00:00 | |
| OE5MMP-10 | 2026-09-04 00:22:37 | 48.40288 | 10.02945 | 116° | 22km/h | 30131m | 5.9m/s | -44.8°C | 3.1% | 12.2hPa | 2.5V | 00:00:00 | 01:53:10 | 00:00:00 | |
| DM0DOS-11 | 2026-09-04 00:22:36 | 48.40294 | 10.02924 | 114° | 31km/h | 30120m | 4.5m/s | -44.8°C | 3.1% | 12.3hPa | 2.5V | 08:30:00 | 01:53:08 | 00:00:00 | |
| DK7TD | 2026-09-04 00:22:32 | 48.40298 | 10.02896 | 75° | 20km/h | 30104m | 5.7m/s | -44.9°C | 0.3% | 12.3hPa | 2.6V | 18:12:15 | 01:53:05 | 00:00:00 | |
| IW2NTF | 2026-09-04 00:22:32 | 48.40291 | 10.02874 | 89° | 11km/h | 30080m | 5.8m/s | -44.8°C | 3.1% | 12.4hPa | 2.5V | 08:30:00 | 01:53:01 | 00:00:00 | |
| DM0DOS-11 | 2026-09-04 00:22:31 | 48.40295 | 10.02863 | 132° | 11km/h | 30063m | 6.7m/s | -44.8°C | 3% | 12.4hPa | 2.5V | 08:30:00 | 01:52:58 | 00:00:00 | |
| DL1XH-west | 2026-09-04 00:22:28 | 48.40291 | 10.02874 | 90° | 11km/h | 30080m | 5.8m/s | -44.8°C | 0.2% | 12.4hPa | 2.5V | 18:12:15 | 01:53:01 | 00:00:00 | |
| DK7TD | 2026-09-04 00:22:22 | 48.40300 | 10.02852 | 118° | 16km/h | 30046m | 5.5m/s | -44.8°C | 0.2% | 12.4hPa | 2.6V | 18:12:15 | 01:52:55 | 00:00:00 | |
| DL6DJ-15 | 2026-09-04 00:22:22 | 48.40302 | 10.02846 | 114° | 18km/h | 30040m | 6.6m/s | -44.7°C | 0.9% | 12.4hPa | 2.5V | 00:00:00 | 00:00:00 | 00:00:00 | |
| SONCRA | 2026-09-04 00:22:21 | 48.40302 | 10.02846 | 114° | 18km/h | 30040m | 6.6m/s | -44.7°C | 0.9% | 12.4hPa | 2.5V | 00:00:00 | 00:00:00 | 00:00:00 | |
| IW2NTF | 2026-09-04 00:22:20 | 48.40305 | 10.02824 | 77° | 18km/h | 30024m | 6.1m/s | -44.7°C | 3% | 12.5hPa | 2.5V | 08:30:00 | 01:52:51 | 00:00:00 | |
| DL1XH-west | 2026-09-04 00:22:18 | 48.40303 | 10.02818 | 56° | 18km/h | 30018m | 6.7m/s | -44.6°C | 0.2% | 12.5hPa | 2.6V | 18:12:15 | 01:52:50 | 00:00:00 | |
| DM0DOS-11 | 2026-09-04 00:22:17 | 48.40296 | 10.02810 | 24° | 16km/h | 30007m | 4.5m/s | -44.7°C | 3% | 12.5hPa | 2.5V | 08:30:00 | 01:52:48 | 00:00:00 | |
| OE5MMP-10 | 2026-09-04 00:22:17 | 48.40303 | 10.02818 | 56° | 13km/h | 30018m | 6.6m/s | -44.6°C | 3.0% | 12.4hPa | 2.5V | 00:00:00 | 01:52:50 | 00:00:00 | |
| KANTATE | 2026-09-04 00:22:15 | 48.40299 | 10.02813 | 36° | 18km/h | 30012m | 5.4m/s | -44.7°C | 0.8% | 12.5hPa | 2.5V | 00:00:00 | 00:00:00 | 00:00:00 | |
| OE5DXL-15 | 2026-09-04 00:22:13 | 48.40290 | 10.02806 | 52° | 16km/h | 29997m | 5.8m/s | -44.7°C | 3.0% | 12.5hPa | 2.5V | 00:00:00 | 00:00:00 | 00:00:00 | |
| IW2NTF | 2026-09-04 00:22:12 | 48.40295 | 10.02785 | 103° | 11km/h | 29969m | 5.8m/s | -44.8°C | 3% | 12.6hPa | 2.5V | 08:30:00 | 01:52:41 | 00:00:00 | |
| DK7TD | 2026-09-04 00:22:11 | 48.40291 | 10.02799 | 118° | 13km/h | 29985m | 5.1m/s | -44.8°C | 0.2% | 12.6hPa | 2.6V | 18:12:15 | 01:52:44 | 00:00:00 | |
| HEMX73-6 | 2026-09-04 00:22:11 | 48.40291 | 10.02799 | 119° | 16km/h | 29985m | 5.1m/s | 0°C | 0% | 0hPa | 2.5V | 00:00:00 | 01:52:44 | 00:00:00 | |
| DM0DOS-11 | 2026-09-04 00:22:10 | 48.40293 | 10.02776 | 34° | 11km/h | 29952m | 5.1m/s | -44.8°C | 3.1% | 12.6hPa | 2.5V | 08:30:00 | 01:52:38 | 00:00:00 | |
| DL1XH-west | 2026-09-04 00:22:07 | 48.40296 | 10.02781 | 80° | 9km/h | 29963m | 6m/s | -44.8°C | 0.3% | 12.6hPa | 2.6V | 18:12:15 | 01:52:40 | 00:00:00 | |
| DK7TD | 2026-09-04 00:22:00 | 48.40283 | 10.02749 | 81° | 20km/h | 29926m | 4.9m/s | -44.9°C | 0.3% | 12.7hPa | 2.5V | 18:12:15 | 01:52:33 | 00:00:00 | |
| DO3MHA-12 | 2026-09-04 00:22:00 | 48.40283 | 10.02749 | 81° | 18km/h | 29926m | 4.9m/s | -44.9°C | 3.1% | 12.6hPa | 2.5V | 00:00:00 | 01:52:33 | 00:00:00 | |
| IW2NTF | 2026-09-04 00:21:59 | 48.40281 | 10.02737 | 75° | 13km/h | 29914m | 6m/s | -45°C | 3.1% | 12.7hPa | 2.5V | 08:30:00 | 01:52:31 | 00:00:00 | |
| OE9MKV-15 | 2026-09-04 00:21:59 | 48.40282 | 10.02743 | 81° | 20km/h | 29920m | 6.2m/s | -44.9°C | 3.1% | 12.6hPa | 2.5V | 00:00:00 | 01:52:32 | 00:00:00 | |
| DM0DOS-11 | 2026-09-04 00:21:58 | 48.40277 | 10.02724 | 64° | 16km/h | 29898m | 6.4m/s | -45°C | 3.1% | 12.7hPa | 2.5V | 08:30:00 | 01:52:28 | 00:00:00 | |
| DL1XH-west | 2026-09-04 00:21:57 | 48.40280 | 10.02733 | 68° | 11km/h | 29909m | 5.2m/s | -45°C | 0.2% | 12.7hPa | 2.6V | 18:12:15 | 01:52:30 | 00:00:00 | |
| DL8DAS-14 | 2026-09-04 00:21:55 | 48.40277 | 10.02724 | 64° | 15km/h | 29898m | 6.4m/s | -45.0°C | 0.9% | 12.7hPa | 2.5V | 00:00:00 | 00:00:00 | 00:00:00 | |
| DL1XH1-15 | 2026-09-04 00:21:54 | 48.40273 | 10.02711 | 56° | 22km/h | 29886m | 5m/s | -45°C | 3.1% | 12.7hPa | 2.5V | 08:30:00 | 01:52:26 | 00:00:00 | |
| NBG1-10 | 2026-09-04 00:21:54 | 48.40275 | 10.02718 | 63° | 20km/h | 29892m | 5.7m/s | -44.9°C | 3.1% | 12.7hPa | 2.5V | 00:00:00 | 01:52:27 | 00:00:00 | |
| IW2NTF | 2026-09-04 00:21:53 | 48.40251 | 10.02681 | 46° | 22km/h | 29860m | 5.4m/s | -45°C | 3.1% | 12.8hPa | 2.5V | 08:30:00 | 01:52:21 | 00:00:00 | |
| BAUMI2-15 | 2026-09-04 00:21:52 | 48.40269 | 10.02704 | 48° | 22km/h | 29881m | 5.4m/s | -44.9°C | 3.1% | 12.7hPa | 2.5V | 00:00:00 | 01:52:25 | 00:00:00 | |
| DM0DOS-11 | 2026-09-04 00:21:51 | 48.40245 | 10.02658 | 89° | 26km/h | 29843m | 4.8m/s | -45°C | 3.1% | 12.8hPa | 2.5V | 08:30:00 | 01:52:18 | 00:00:00 | |
| DK7TD | 2026-09-04 00:21:50 | 48.40260 | 10.02692 | 34° | 24km/h | 29869m | 5m/s | -45°C | 0.3% | 12.8hPa | 2.5V | 18:12:15 | 01:52:23 | 00:00:00 | |
| DO3MHA-12 | 2026-09-04 00:21:50 | 48.40260 | 10.02692 | 35° | 22km/h | 29869m | 4.9m/s | -44.9°C | 3.1% | 12.7hPa | 2.5V | 00:00:00 | 01:52:23 | 00:00:00 | |
| PETON7-10 | 2026-09-04 00:21:49 | 48.40255 | 10.02687 | 38° | 18km/h | 29865m | 4.2m/s | 0°C | 0% | 0hPa | 2.5V | 00:00:00 | 00:00:00 | 00:00:00 | |
| DL1XH1-15 | 2026-09-04 00:21:48 | 48.40245 | 10.02640 | 85° | 20km/h | 29833m | 5.4m/s | -45°C | 3.1% | 12.8hPa | 2.5V | 08:30:00 | 01:52:16 | 00:00:00 | |
| DL1XH-west | 2026-09-04 00:21:47 | 48.40248 | 10.02675 | 65° | 22km/h | 29854m | 6.4m/s | -45°C | 0.3% | 12.8hPa | 2.6V | 18:12:15 | 01:52:20 | 00:00:00 | |
| DK7TD | 2026-09-04 00:21:40 | 48.40241 | 10.02625 | 32° | 13km/h | 29816m | 5m/s | -45°C | 0.3% | 12.9hPa | 2.5V | 18:12:15 | 01:52:13 | 00:00:00 | |
| DO3MHA-12 | 2026-09-04 00:21:40 | 48.40241 | 10.02625 | 32° | 22km/h | 29816m | 5.0m/s | -44.9°C | 3.1% | 12.8hPa | 2.5V | 00:00:00 | 01:52:13 | 00:00:00 | |
| IW2NTF | 2026-09-04 00:21:39 | 48.40235 | 10.02620 | 40° | 16km/h | 29807m | 5.2m/s | -45°C | 3.1% | 12.9hPa | 2.5V | 08:30:00 | 01:52:11 | 00:00:00 | |
| DL1XH1-15 | 2026-09-04 00:21:38 | 48.40222 | 10.02576 | 67° | 29km/h | 29778m | 6.4m/s | -44.8°C | 3.1% | 12.9hPa | 2.6V | 08:30:00 | 01:52:06 | 00:00:00 | |
| DM0DOS-11 | 2026-09-04 00:21:37 | 48.40227 | 10.02598 | 70° | 29km/h | 29789m | 5.3m/s | -44.9°C | 3.1% | 12.9hPa | 2.5V | 08:30:00 | 01:52:08 | 00:00:00 | |
| DL1XH-west | 2026-09-04 00:21:36 | 48.40229 | 10.02607 | 67° | 26km/h | 29795m | 6.2m/s | -44.9°C | 0.3% | 12.9hPa | 2.6V | 18:12:15 | 01:52:09 | 00:00:00 | |
| DK5PH-5 | 2026-09-04 00:21:35 | 48.40227 | 10.02597 | 71° | 18km/h | 29790m | 5.2m/s | -44.8°C | 3.1% | 12.9hPa | 2.5V | 00:00:00 | 01:52:08 | 00:00:00 | |
| DF1GD-15 | 2026-09-04 00:21:34 | 48.40227 | 10.02597 | 72° | 29km/h | 29790m | 5.3m/s | -44.9°C | 0.9% | 12.9hPa | 2.5V | 00:00:00 | 00:00:00 | 00:00:00 | |
| IW2NTF | 2026-09-04 00:21:33 | 48.40213 | 10.02539 | 87° | 15km/h | 29749m | 5.2m/s | -44.6°C | 3.1% | 13hPa | 2.5V | 08:30:00 | 01:52:01 | 00:00:00 | |
| DK7TD | 2026-09-04 00:21:30 | 48.40214 | 10.02551 | 72° | 18km/h | 29761m | 6.2m/s | -44.7°C | 0.2% | 13hPa | 2.5V | 18:12:15 | 01:52:03 | 00:00:00 | |
| DL1XH-west | 2026-09-04 00:21:26 | 48.40212 | 10.02529 | 67° | 11km/h | 29738m | 6.5m/s | -44.6°C | 0.2% | 13hPa | 2.6V | 18:12:15 | 01:51:59 | 00:00:00 | |
| DL1XH1-15 | 2026-09-04 00:21:25 | 48.40205 | 10.02517 | 54° | 18km/h | 29722m | 5.3m/s | -44.6°C | 3% | 13.1hPa | 2.6V | 08:30:00 | 01:51:56 | 00:00:00 | |
| DK7TD | 2026-09-04 00:21:20 | 48.40198 | 10.02493 | 71° | 26km/h | 29704m | 5.1m/s | -44.7°C | 0.3% | 13.1hPa | 2.5V | 18:12:15 | 01:51:53 | 00:00:00 | |
| DO3MHA-12 | 2026-09-04 00:21:20 | 48.40198 | 10.02493 | 71° | 16km/h | 29704m | 5.1m/s | -44.6°C | 3.1% | 13.1hPa | 2.5V | 00:00:00 | 01:51:53 | 00:00:00 | |
| IW2NTF | 2026-09-04 00:21:19 | 48.40193 | 10.02476 | 57° | 24km/h | 29692m | 6.3m/s | -44.7°C | 3.1% | 13.1hPa | 2.5V | 08:30:00 | 01:51:51 | 00:00:00 | |
| SONCRA | 2026-09-04 00:21:19 | 48.40196 | 10.02484 | 66° | 26km/h | 29698m | 5.9m/s | -44.7°C | 0.9% | 13.1hPa | 2.5V | 00:00:00 | 00:00:00 | 00:00:00 | |
| DO3MHA-11 | 2026-09-04 00:21:18 | 48.40193 | 10.02475 | 58° | 15km/h | 29692m | 6.3m/s | -44.6°C | 3.1% | 13.1hPa | 2.5V | 00:00:00 | 01:51:51 | 08:30:00 | |
| DF3TZ-5 | 2026-09-04 00:21:17 | 48.40186 | 10.02463 | 44° | 16km/h | 29681m | 4.9m/s | -44.7°C | 0.9% | 13.1hPa | 2.6V | 00:00:00 | 00:00:00 | 00:00:00 | |
| DL1XH1-15 | 2026-09-04 00:21:16 | 48.40176 | 10.02451 | 359° | 9km/h | 29652m | 6.4m/s | -44.6°C | 3% | 13.2hPa | 2.6V | 08:30:00 | 01:51:44 | 00:00:00 | |
| DL1XH-west | 2026-09-04 00:21:15 | 48.40183 | 10.02459 | 49° | 15km/h | 29675m | 6.7m/s | -44.7°C | 0.2% | 13.2hPa | 2.5V | 18:12:15 | 01:51:48 | 00:00:00 | |
| IW2NTF | 2026-09-04 00:21:14 | 48.40167 | 10.02447 | 38° | 15km/h | 29635m | 6.4m/s | -44.6°C | 3% | 13.2hPa | 2.5V | 08:30:00 | 01:51:41 | 00:00:00 | |
| DB0UT-7 | 2026-09-04 00:21:13 | 48.40180 | 10.02452 | 44° | 15km/h | 29664m | 5.1m/s | -44.6°C | 3.0% | 13.1hPa | 2.5V | 00:00:00 | 00:00:00 | 00:00:00 | |
| DM0DOS-11 | 2026-09-04 00:21:10 | 48.40160 | 10.02427 | 68° | 24km/h | 29618m | 4.8m/s | -44.6°C | 3% | 13.3hPa | 2.5V | 08:30:00 | 01:51:38 | 00:00:00 | |
| DK7TD | 2026-09-04 00:21:09 | 48.40170 | 10.02450 | 18° | 13km/h | 29641m | 4.8m/s | -44.6°C | 0.2% | 13.2hPa | 2.5V | 18:12:15 | 01:51:42 | 00:00:00 | |
| DL1XH-west | 2026-09-04 00:21:05 | 48.40160 | 10.02427 | 68° | 24km/h | 29618m | 4.8m/s | -44.6°C | 0.2% | 13.3hPa | 2.5V | 18:12:15 | 01:51:38 | 00:00:00 | |
| DK5PH-5 | 2026-09-04 00:21:05 | 48.40160 | 10.02427 | 69° | 15km/h | 29618m | 4.8m/s | -44.5°C | 3.0% | 13.2hPa | 2.6V | 00:00:00 | 01:51:38 | 00:00:00 | |
| DL1XH1-15 | 2026-09-04 00:21:04 | 48.40150 | 10.02402 | 45° | 11km/h | 29595m | 4.8m/s | -44.6°C | 3% | 13.3hPa | 2.6V | 08:30:00 | 01:51:34 | 00:00:00 | |
| SONDE2-11 | 2026-09-04 00:21:02 | 48.40150 | 10.02402 | 45° | 11km/h | 29596m | 4.8m/s | -44.6°C | 0.9% | 13.3hPa | 2.5V | 00:00:00 | 00:00:00 | 00:00:00 | |
| DO3MHA-12 | 2026-09-04 00:21:00 | 48.40148 | 10.02399 | 51° | 11km/h | 29591m | 5.4m/s | -44.5°C | 3.0% | 13.3hPa | 2.5V | 00:00:00 | 01:51:33 | 08:30:00 | |
| IW2NTF | 2026-09-04 00:20:59 | 48.40147 | 10.02393 | 86° | 9km/h | 29578m | 5.8m/s | -44.5°C | 3% | 13.3hPa | 2.5V | 08:30:00 | 01:51:31 | 00:00:00 | |
| DK7TD | 2026-09-04 00:20:59 | 48.40147 | 10.02396 | 71° | 9km/h | 29584m | 6.6m/s | -44.6°C | 0.2% | 13.3hPa | 2.5V | 18:12:15 | 01:51:32 | 00:00:00 | |
| OE9MKV-15 | 2026-09-04 00:20:59 | 48.40147 | 10.02396 | 71° | 15km/h | 29585m | 6.5m/s | -44.5°C | 3.0% | 13.3hPa | 2.5V | 00:00:00 | 01:51:32 | 00:00:00 | |
| DM0DOS-11 | 2026-09-04 00:20:58 | 48.40145 | 10.02383 | 48° | 11km/h | 29561m | 6.6m/s | -44.5°C | 3% | 13.4hPa | 2.5V | 08:30:00 | 01:51:28 | 00:00:00 | |
| OE5MMP-10 | 2026-09-04 00:20:57 | 48.40147 | 10.02389 | 85° | 15km/h | 29573m | 4.9m/s | -44.5°C | 3.1% | 13.3hPa | 2.6V | 00:00:00 | 01:51:30 | 00:00:00 | |
| DL1XH1-15 | 2026-09-04 00:20:56 | 48.40135 | 10.02368 | 58° | 18km/h | 29538m | 6.1m/s | -44.5°C | 3% | 13.4hPa | 2.6V | 08:30:00 | 01:51:24 | 00:00:00 | |
| DL1XH-west | 2026-09-04 00:20:54 | 48.40143 | 10.02380 | 34° | 13km/h | 29556m | 5.5m/s | -44.5°C | 0.2% | 13.4hPa | 2.5V | 18:12:15 | 01:51:27 | 00:00:00 | |
| IW2NTF | 2026-09-04 00:20:54 | 48.40127 | 10.02348 | 55° | 22km/h | 29521m | 6.6m/s | -44.6°C | 3% | 13.5hPa | 2.5V | 08:30:00 | 01:51:21 | 00:00:00 | |
| DL8DAS-14 | 2026-09-04 00:20:53 | 48.40140 | 10.02377 | 36° | 13km/h | 29550m | 5.0m/s | -44.5°C | 0.9% | 13.4hPa | 2.5V | 00:00:00 | 00:00:00 | 00:00:00 | |
| DF1GD-15 | 2026-09-04 00:20:52 | 48.40140 | 10.02377 | 37° | 15km/h | 29551m | 5.0m/s | -44.5°C | 0.9% | 13.4hPa | 2.5V | 00:00:00 | 00:00:00 | 00:00:00 | |
| DM0DOS-11 | 2026-09-04 00:20:50 | 48.40117 | 10.02330 | 53° | 18km/h | 29505m | 5.3m/s | -44.5°C | 3% | 13.5hPa | 2.5V | 08:30:00 | 01:51:18 | 00:00:00 | |
| DK7TD | 2026-09-04 00:20:48 | 48.40127 | 10.02348 | 55° | 22km/h | 29522m | 6.6m/s | -44.6°C | 0.2% | 13.5hPa | 2.5V | 18:12:15 | 01:51:21 | 00:00:00 | |
| DL1XH-west | 2026-09-04 00:20:44 | 48.40115 | 10.02324 | 65° | 18km/h | 29499m | 6.5m/s | -44.5°C | 0.2% | 13.5hPa | 2.5V | 18:12:15 | 01:51:17 | 00:00:00 | |
| IW2NTF | 2026-09-04 00:20:44 | 48.40107 | 10.02294 | 47° | 13km/h | 29464m | 5.2m/s | -44.6°C | 3% | 13.6hPa | 2.6V | 08:30:00 | 01:51:11 | 00:00:00 | |
| DL1NUX | 2026-09-04 00:20:43 | 48.40112 | 10.02307 | 77° | 15km/h | 29482m | 6.4m/s | -44.5°C | 3% | 13.6hPa | 2.6V | 08:30:00 | 01:51:14 | 00:00:00 | |
| DK7TD | 2026-09-04 00:20:38 | 48.40107 | 10.02294 | 48° | 13km/h | 29464m | 5.2m/s | -44.6°C | 0.2% | 13.6hPa | 2.6V | 18:12:15 | 01:51:11 | 00:00:00 | |
| DO3MHA-11 | 2026-09-04 00:20:38 | 48.40107 | 10.02294 | 48° | 15km/h | 29464m | 5.2m/s | -44.5°C | 3.0% | 13.5hPa | 2.5V | 00:00:00 | 01:51:11 | 00:00:00 | |
| DM0DOS-11 | 2026-09-04 00:20:37 | 48.40101 | 10.02283 | 45° | 13km/h | 29447m | 4.9m/s | -44.6°C | 3.1% | 13.6hPa | 2.5V | 08:30:00 | 01:51:08 | 00:00:00 | |
| DJ2DS-15 | 2026-09-04 00:20:37 | 48.40105 | 10.02290 | 53° | 18km/h | 29459m | 6.5m/s | -44.5°C | 3.0% | 13.5hPa | 2.6V | 00:00:00 | 01:51:10 | 00:00:00 | |
| DL1XH1-15 | 2026-09-04 00:20:36 | 48.40086 | 10.02272 | 26° | 18km/h | 29424m | 5m/s | -44.7°C | 3% | 0hPa | 2.6V | 00:00:00 | 01:51:04 | 00:00:00 | |
| DL1XH-west | 2026-09-04 00:20:34 | 48.40098 | 10.02280 | 34° | 15km/h | 29441m | 6.3m/s | -44.7°C | 0.2% | 13.6hPa | 2.5V | 18:12:15 | 01:51:07 | 00:00:00 | |
| IW2NTF | 2026-09-04 00:20:33 | 48.40078 | 10.02260 | 58° | 15km/h | 29406m | 4.9m/s | -44.7°C | 3% | 13.7hPa | 2.5V | 08:30:00 | 01:51:01 | 00:00:00 | |
| DM0DOS-11 | 2026-09-04 00:20:31 | 48.40070 | 10.02244 | 45° | 22km/h | 29390m | 5.5m/s | -44.8°C | 3.1% | 13.8hPa | 2.5V | 08:30:00 | 01:50:58 | 00:00:00 | |
| DK7TD | 2026-09-04 00:20:27 | 48.40076 | 10.02255 | 55° | 16km/h | 29401m | 5.3m/s | -44.8°C | 0.2% | 13.7hPa | 2.6V | 18:12:15 | 01:51:00 | 00:00:00 | |
| OE5MMP-10 | 2026-09-04 00:20:27 | 48.40076 | 10.02255 | 55° | 16km/h | 29402m | 5.3m/s | -44.7°C | 3.1% | 13.7hPa | 2.6V | 00:00:00 | 01:51:00 | 00:00:00 | |
| DL1ZP-14 | 2026-09-04 00:20:26 | 48.40070 | 10.02245 | 45° | 22km/h | 29390m | 5.5m/s | -44.8°C | 0.9% | 13.8hPa | 2.5V | 00:00:00 | 00:00:00 | 00:00:00 | |
| DJ8HS-15 | 2026-09-04 00:20:25 | 48.40069 | 10.02245 | 46° | 15km/h | 29391m | 5.5m/s | -44.7°C | 3.1% | 13.7hPa | 2.5V | 00:00:00 | 01:50:58 | 00:00:00 | |
| DL1XH1-15 | 2026-09-04 00:20:24 | 48.40054 | 10.02218 | 57° | 16km/h | 29370m | 5.6m/s | -44.8°C | 3% | 0hPa | 2.6V | 00:00:00 | 01:50:54 | 00:00:00 | |
| DL1XH-west | 2026-09-04 00:20:24 | 48.40065 | 10.02238 | 46° | 26km/h | 29385m | 5.2m/s | -44.8°C | 0.2% | 13.7hPa | 2.5V | 18:12:15 | 01:50:57 | 00:00:00 | |
| DL8DAS-14 | 2026-09-04 00:20:22 | 48.40057 | 10.02224 | 54° | 22km/h | 29375m | 5.2m/s | -44.8°C | 0.9% | 13.8hPa | 2.5V | 00:00:00 | 00:00:00 | 00:00:00 | |
| DL1NUX | 2026-09-04 00:20:20 | 48.40051 | 10.02212 | 11° | 5km/h | 29358m | 5.7m/s | -44.8°C | 3.1% | 13.8hPa | 2.5V | 08:30:00 | 01:50:52 | 00:00:00 | |
| DO3MHA-12 | 2026-09-04 00:20:20 | 48.40053 | 10.02213 | 56° | 13km/h | 29364m | 5.8m/s | -44.8°C | 3.1% | 13.8hPa | 2.5V | 00:00:00 | 01:50:53 | 00:00:00 | |
| DM0DOS-11 | 2026-09-04 00:20:18 | 48.40041 | 10.02216 | 10° | 15km/h | 29337m | 6m/s | -44.8°C | 3% | 13.8hPa | 2.5V | 08:30:00 | 01:50:48 | 00:00:00 | |
| DK7TD | 2026-09-04 00:20:17 | 48.40048 | 10.02214 | 331° | 11km/h | 29348m | 4.9m/s | -44.8°C | 0.2% | 13.8hPa | 2.6V | 18:12:15 | 01:50:50 | 00:00:00 | |
| DL1XH1-15 | 2026-09-04 00:20:17 | 48.40029 | 10.02197 | 65° | 16km/h | 29314m | 5.5m/s | -44.9°C | 3.1% | 0hPa | 2.6V | 00:00:00 | 01:50:44 | 00:00:00 | |
| OE5MMP-10 | 2026-09-04 00:20:17 | 48.40048 | 10.02214 | 331° | 13km/h | 29348m | 4.9m/s | -44.8°C | 3.1% | 13.8hPa | 2.5V | 00:00:00 | 01:50:50 | 00:00:00 | |
| DL1NUX | 2026-09-04 00:20:15 | 48.40026 | 10.02189 | 41° | 7km/h | 29303m | 6.2m/s | -45°C | 3.1% | 13.9hPa | 2.5V | 08:30:00 | 01:50:42 | 00:00:00 | |
| IW2NTF | 2026-09-04 00:20:15 | 48.40025 | 10.02189 | 345° | 5km/h | 29296m | 6.1m/s | -45°C | 3% | 13.9hPa | 2.6V | 08:30:00 | 01:50:41 | 00:00:00 | |
| DL1XH-west | 2026-09-04 00:20:13 | 48.40034 | 10.02209 | 50° | 20km/h | 29325m | 5.8m/s | -44.8°C | 0.2% | 13.9hPa | 2.6V | 18:12:15 | 01:50:46 | 00:00:00 | |
| DB0UT-7 | 2026-09-04 00:20:13 | 48.40034 | 10.02209 | 50° | 9km/h | 29325m | 5.8m/s | -44.8°C | 3.0% | 13.8hPa | 2.5V | 00:00:00 | 00:00:00 | 00:00:00 | |
| DM0DOS-11 | 2026-09-04 00:20:10 | 48.40021 | 10.02193 | 324° | 5km/h | 29279m | 6.5m/s | -45°C | 3.1% | 14hPa | 2.5V | 08:30:00 | 01:50:38 | 00:00:00 | |
| DK7TD | 2026-09-04 00:20:06 | 48.40022 | 10.02192 | 317° | 7km/h | 29285m | 5.8m/s | -45°C | 0.3% | 13.9hPa | 2.6V | 18:12:15 | 01:50:39 | 00:00:00 | |
| DJ8HS-15 | 2026-09-04 00:20:05 | 48.40021 | 10.02193 | 325° | 7km/h | 29279m | 6.5m/s | -45.0°C | 3.1% | 13.9hPa | 2.5V | 00:00:00 | 01:50:38 | 00:00:00 | |
| DL1NUX | 2026-09-04 00:20:04 | 48.40014 | 10.02197 | 348° | 5km/h | 29244m | 4.8m/s | -45°C | 3.1% | 14.1hPa | 2.5V | 08:30:00 | 01:50:32 | 00:00:00 | |
| IW2NTF | 2026-09-04 00:20:04 | 48.40012 | 10.02197 | 22° | 5km/h | 29238m | 6.1m/s | -45°C | 3.1% | 14hPa | 2.6V | 08:30:00 | 01:50:31 | 00:00:00 | |
| DL1XH-west | 2026-09-04 00:20:02 | 48.40018 | 10.02195 | 345° | 4km/h | 29261m | 6.3m/s | -45°C | 0.3% | 14hPa | 2.6V | 18:12:15 | 01:50:35 | 00:00:00 | |
| DJTTGO | 2026-09-04 00:20:02 | 48.40018 | 10.02195 | 346° | 4km/h | 29261m | 6.3m/s | -45.0°C | 0.9% | 14.0hPa | 2.5V | 00:00:00 | 00:00:00 | 00:00:00 | |
| DO3MHA-12 | 2026-09-04 00:20:00 | 48.40015 | 10.02197 | 334° | 7km/h | 29249m | 5.4m/s | -45.0°C | 3.1% | 14.0hPa | 2.5V | 00:00:00 | 01:50:33 | 00:00:00 | |
| OE9MKV-15 | 2026-09-04 00:19:59 | 48.40014 | 10.02197 | 349° | 9km/h | 29244m | 4.8m/s | -45.0°C | 3.1% | 14.0hPa | 2.5V | 00:00:00 | 01:50:32 | 08:30:00 | |
| DM0DOS-11 | 2026-09-04 00:19:58 | 48.40010 | 10.02191 | 69° | 5km/h | 29221m | 5.1m/s | -45°C | 3.1% | 14.1hPa | 2.5V | 08:30:00 | 01:50:28 | 00:00:00 | |
| DK7TD | 2026-09-04 00:19:56 | 48.40010 | 10.02193 | 71° | 7km/h | 29226m | 5.4m/s | -45°C | 0.3% | 14.1hPa | 2.6V | 18:12:15 | 01:50:29 | 00:00:00 | |
| SO1NDE-10 | 2026-09-04 00:19:55 | 48.40010 | 10.02191 | 70° | 9km/h | 29221m | 5.1m/s | -45.0°C | 3.1% | 14.1hPa | 2.5V | 00:00:00 | 01:50:28 | 00:00:00 | |
| PG1ADW-2 | 2026-09-04 00:19:54 | 48.40009 | 10.02190 | 30° | 11km/h | 29215m | 6.5m/s | -45.0°C | 3.0% | 14.0hPa | 2.5V | 00:00:00 | 00:00:00 | 00:00:00 | |
| DM0DOS-11 | 2026-09-04 00:19:51 | 48.40024 | 10.02213 | 197° | 7km/h | 29160m | 5.9m/s | -45.4°C | 3.2% | 14.2hPa | 2.5V | 08:30:00 | 01:50:18 | 00:00:00 | |
| DL1XH-west | 2026-09-04 00:19:51 | 48.40010 | 10.02198 | 253° | 13km/h | 29196m | 5.8m/s | -45.1°C | 0.2% | 14.2hPa | 2.6V | 18:12:15 | 01:50:24 | 00:00:00 | |
| DO3MHA-12 | 2026-09-04 00:19:50 | 48.40011 | 10.02203 | 239° | 11km/h | 29190m | 6.5m/s | -45.0°C | 3.0% | 14.1hPa | 2.6V | 00:00:00 | 01:50:23 | 00:00:00 | |
| DL1NUX | 2026-09-04 00:19:49 | 48.40017 | 10.02209 | 203° | 13km/h | 29178m | 5.4m/s | -45.2°C | 3.1% | 14.2hPa | 2.6V | 08:30:00 | 01:50:21 | 00:00:00 | |
| DK7TD | 2026-09-04 00:19:45 | 48.40024 | 10.02213 | 198° | 7km/h | 29160m | 5.9m/s | -45.4°C | 0.3% | 14.2hPa | 2.5V | 18:12:15 | 01:50:18 | 00:00:00 | |
| DJ8HS-15 | 2026-09-04 00:19:45 | 48.40024 | 10.02213 | 198° | 9km/h | 29161m | 5.8m/s | -45.4°C | 3.2% | 14.2hPa | 2.6V | 00:00:00 | 01:50:18 | 00:00:00 | |
| OE5DXL-15 | 2026-09-04 00:19:43 | 48.40026 | 10.02212 | 82° | 11km/h | 29149m | 6.4m/s | -45.3°C | 3.2% | 14.2hPa | 2.6V | 00:00:00 | 00:00:00 | 00:00:00 | |
| BAUMI2-15 | 2026-09-04 00:19:42 | 48.40025 | 10.02209 | 67° | 15km/h | 29142m | 7.0m/s | -45.3°C | 3.1% | 14.2hPa | 2.6V | 00:00:00 | 01:50:15 | 00:00:00 | |
| DO3MHA-12 | 2026-09-04 00:19:40 | 48.40021 | 10.02201 | 41° | 11km/h | 29130m | 5.4m/s | -45.3°C | 3.1% | 14.2hPa | 2.6V | 00:00:00 | 01:50:13 | 00:00:00 | |
| DL1NUX | 2026-09-04 00:19:39 | 48.40014 | 10.02198 | 354° | 15km/h | 29118m | 6.4m/s | -45.3°C | 3.1% | 14.3hPa | 2.6V | 08:30:00 | 01:50:11 | 00:00:00 | |
| DM0DOS-11 | 2026-09-04 00:19:38 | 48.40005 | 10.02204 | 325° | 9km/h | 29102m | 6.1m/s | -45.2°C | 3.1% | 14.3hPa | 2.5V | 08:30:00 | 01:50:08 | 00:00:00 | |
| DK7TD | 2026-09-04 00:19:34 | 48.40003 | 10.02206 | 324° | 4km/h | 29095m | 7m/s | -45.2°C | 0.3% | 14.4hPa | 2.5V | 18:12:15 | 01:50:07 | 00:00:00 | |
| DF7PN | 2026-09-04 00:19:34 | 48.40003 | 10.02206 | 146° | 4km/h | 29088m | 6.6m/s | -45.2°C | 0.9% | 14.4hPa | 2.5V | 00:00:00 | 00:00:00 | 00:00:00 | |
| OE5DRO-10 | 2026-09-04 00:19:31 | 48.40007 | 10.02203 | 156° | 11km/h | 29077m | 5.6m/s | -45.2°C | 3.1% | 14.3hPa | 2.5V | 00:00:00 | 00:00:00 | 00:00:00 | |
| DM0DOS-11 | 2026-09-04 00:19:30 | 48.40000 | 10.02204 | 2° | 16km/h | 29041m | 5.8m/s | -45.4°C | 3.1% | 14.5hPa | 2.5V | 08:30:00 | 01:49:58 | 00:00:00 | |
| DO3MHA-12 | 2026-09-04 00:19:30 | 48.40008 | 10.02202 | 166° | 11km/h | 29071m | 6.0m/s | -45.2°C | 3.1% | 14.4hPa | 2.5V | 00:00:00 | 01:50:03 | 08:30:00 | |
| DL1NUX | 2026-09-04 00:19:29 | 48.40009 | 10.02203 | 329° | 5km/h | 29059m | 5m/s | -45.3°C | 3.1% | 14.5hPa | 2.6V | 08:30:00 | 01:50:01 | 00:00:00 | |
| DL1XH-west | 2026-09-04 00:19:28 | 48.40009 | 10.02203 | 330° | 5km/h | 29059m | 5m/s | -45.3°C | 0.3% | 14.5hPa | 2.6V | 18:12:15 | 01:50:01 | 00:00:00 | |
| DK7TD | 2026-09-04 00:19:23 | 48.39993 | 10.02205 | 335° | 9km/h | 29031m | 5.8m/s | -45.4°C | 0.3% | 14.5hPa | 2.6V | 18:12:15 | 01:49:56 | 00:00:00 | |
| BAUMI2-15 | 2026-09-04 00:19:22 | 48.39992 | 10.02207 | 287° | 15km/h | 29025m | 6.5m/s | -45.5°C | 3.2% | 14.5hPa | 2.6V | 00:00:00 | 01:49:55 | 00:00:00 | |
| DL1NUX | 2026-09-04 00:19:20 | 48.39996 | 10.02229 | 248° | 15km/h | 29000m | 5.8m/s | -45.4°C | 3.2% | 14.6hPa | 2.6V | 08:30:00 | 01:49:51 | 00:00:00 | |
| DL1XH-west | 2026-09-04 00:19:18 | 48.39997 | 10.02233 | 240° | 11km/h | 28994m | 5.4m/s | -45.4°C | 0.2% | 14.6hPa | 2.6V | 18:12:15 | 01:49:50 | 00:00:00 | |
| DM0DOS-11 | 2026-09-04 00:19:17 | 48.40000 | 10.02236 | 165° | 7km/h | 28982m | 7.2m/s | -45.3°C | 3.1% | 14.6hPa | 2.5V | 08:30:00 | 01:49:48 | 00:00:00 | |
| DK7TD | 2026-09-04 00:19:13 | 48.40004 | 10.02232 | 146° | 9km/h | 28968m | 5.6m/s | -45.3°C | 0.3% | 14.6hPa | 2.6V | 18:12:15 | 01:49:46 | 00:00:00 | |
| DF3TZ-5 | 2026-09-04 00:19:13 | 48.40006 | 10.02231 | 156° | 5km/h | 28964m | 4.9m/s | -45.4°C | 0.9% | 14.7hPa | 2.5V | 00:00:00 | 00:00:00 | 00:00:00 | |
| BAUMI2-15 | 2026-09-04 00:19:12 | 48.40006 | 10.02231 | 157° | 9km/h | 28964m | 4.8m/s | -45.3°C | 3.1% | 14.6hPa | 2.5V | 00:00:00 | 01:49:45 | 00:00:00 | |
| PG1ADW-2 | 2026-09-04 00:19:11 | 48.40007 | 10.02231 | 222° | 13km/h | 28958m | 7.0m/s | -45.3°C | 3.1% | 14.6hPa | 2.5V | 00:00:00 | 00:00:00 | 00:00:00 | |
| DM0DOS-11 | 2026-09-04 00:19:10 | 48.40014 | 10.02258 | 205° | 18km/h | 28920m | 5.8m/s | -45.5°C | 3.2% | 14.8hPa | 2.5V | 08:30:00 | 01:49:38 | 00:00:00 | |
| DL1XH-west | 2026-09-04 00:19:07 | 48.40008 | 10.02249 | 247° | 18km/h | 28933m | 6.9m/s | -45.5°C | 0.3% | 14.7hPa | 2.6V | 18:12:15 | 01:49:40 | 00:00:00 | |
| DK7TD | 2026-09-04 00:19:03 | 48.40023 | 10.02260 | 174° | 16km/h | 28908m | 6.3m/s | -45.5°C | 0.3% | 14.8hPa | 2.6V | 18:12:15 | 01:49:36 | 00:00:00 | |
| DF7PN | 2026-09-04 00:19:03 | 48.40027 | 10.02259 | 158° | 15km/h | 28902m | 6.9m/s | -45.5°C | 0.9% | 14.8hPa | 2.6V | 00:00:00 | 00:00:00 | 00:00:00 | |
| IW2NTF | 2026-09-04 00:19:02 | 48.40045 | 10.02242 | 171° | 11km/h | 28865m | 5.8m/s | -45.2°C | 3.1% | 14.9hPa | 2.6V | 08:30:00 | 01:49:29 | 00:00:00 | |
| DL1XH-west | 2026-09-04 00:18:56 | 48.40045 | 10.02242 | 171° | 11km/h | 28865m | 5.8m/s | -45.3°C | 0.2% | 14.9hPa | 2.6V | 18:12:15 | 01:49:29 | 00:00:00 | |
| DK7TD | 2026-09-04 00:18:52 | 48.40051 | 10.02249 | 227° | 11km/h | 28839m | 6.7m/s | -45.2°C | 0.2% | 14.9hPa | 2.6V | 18:12:15 | 01:49:25 | 00:00:00 | |
| BAUMI2-15 | 2026-09-04 00:18:52 | 48.40051 | 10.02249 | 227° | 11km/h | 28839m | 6.7m/s | -45.2°C | 3.0% | 14.9hPa | 2.6V | 00:00:00 | 01:49:25 | 00:00:00 | |
| IW2NTF | 2026-09-04 00:18:51 | 48.40064 | 10.02249 | 88° | 9km/h | 28802m | 6.1m/s | -45.4°C | 3.1% | 15hPa | 2.6V | 08:30:00 | 01:49:19 | 00:00:00 | |
| DM0DOS-11 | 2026-09-04 00:18:51 | 48.40064 | 10.02246 | 85° | 11km/h | 28797m | 5.3m/s | -45.5°C | 3.1% | 15hPa | 2.6V | 08:30:00 | 01:49:18 | 00:00:00 | |
| PG1ADW-2 | 2026-09-04 00:18:51 | 48.40053 | 10.02252 | 212° | 9km/h | 28833m | 6.3m/s | -45.2°C | 3.1% | 14.9hPa | 2.5V | 00:00:00 | 00:00:00 | 00:00:00 | |
| DL1XH1-15 | 2026-09-04 00:18:50 | 48.40059 | 10.02254 | 180° | 11km/h | 28821m | 4.9m/s | -45.3°C | 3.1% | 0hPa | 2.5V | 00:00:00 | 01:49:22 | 00:00:00 | |
| DL1XH-west | 2026-09-04 00:18:46 | 48.40064 | 10.02249 | 89° | 9km/h | 28802m | 6.1m/s | -45.4°C | 0.3% | 15hPa | 2.6V | 18:12:15 | 01:49:19 | 00:00:00 | |
| SONCRA | 2026-09-04 00:18:44 | 48.40064 | 10.02242 | 97° | 11km/h | 28791m | 6.0m/s | -45.5°C | 0.9% | 15.1hPa | 2.6V | 00:00:00 | 00:00:00 | 00:00:00 | |
| DL1XH1-15 | 2026-09-04 00:18:44 | 48.40073 | 10.02230 | 195° | 5km/h | 28762m | 6.7m/s | -45.6°C | 3.1% | 0hPa | 2.6V | 00:00:00 | 01:49:12 | 00:00:00 | |
| DK7TD | 2026-09-04 00:18:42 | 48.40066 | 10.02234 | 137° | 13km/h | 28779m | 5m/s | -45.6°C | 0.3% | 15.1hPa | 2.6V | 18:12:15 | 01:49:15 | 00:00:00 | |
| BAUMI2-15 | 2026-09-04 00:18:42 | 48.40066 | 10.02234 | 137° | 7km/h | 28780m | 5.0m/s | -45.5°C | 3.1% | 15.0hPa | 2.6V | 00:00:00 | 01:49:15 | 00:00:00 | |
| IW2NTF | 2026-09-04 00:18:41 | 48.40074 | 10.02232 | 171° | 2km/h | 28745m | 5.4m/s | -45.7°C | 3.2% | 15.2hPa | 2.6V | 08:30:00 | 01:49:09 | 00:00:00 | |
| DF3TZ-5 | 2026-09-04 00:18:41 | 48.40069 | 10.02231 | 153° | 9km/h | 28774m | 4.7m/s | -45.6°C | 0.9% | 15.1hPa | 2.5V | 00:00:00 | 00:00:00 | 00:00:00 | |
| DO3MHA-12 | 2026-09-04 00:18:40 | 48.40071 | 10.02230 | 170° | 7km/h | 28769m | 6.1m/s | -45.5°C | 3.1% | 15.0hPa | 2.5V | 00:00:00 | 01:49:13 | 00:00:00 | |
| DM7RM-13 | 2026-09-04 00:18:38 | 48.40073 | 10.02231 | 235° | 4km/h | 28756m | 6.0m/s | -45.6°C | 0.9% | 15.1hPa | 2.5V | 00:00:00 | 00:00:00 | 00:00:00 | |
| DM0DOS-11 | 2026-09-04 00:18:37 | 48.40075 | 10.02232 | 144° | 5km/h | 28739m | 6.7m/s | -45.8°C | 3.2% | 15.2hPa | 2.5V | 08:30:00 | 01:49:08 | 00:00:00 | |
| DL1XH-west | 2026-09-04 00:18:36 | 48.40074 | 10.02232 | 172° | 2km/h | 28745m | 5.4m/s | -45.7°C | 0.3% | 15.2hPa | 2.6V | 18:12:15 | 01:49:09 | 00:00:00 | |
| DK7TD | 2026-09-04 00:18:32 | 48.40080 | 10.02222 | 112° | 15km/h | 28722m | 5.2m/s | -45.8°C | 0.4% | 15.2hPa | 2.6V | 18:12:15 | 01:49:05 | 00:00:00 | |
| DF7PN | 2026-09-04 00:18:32 | 48.40080 | 10.02217 | 96° | 13km/h | 28716m | 6.5m/s | -45.8°C | 0.9% | 15.2hPa | 2.6V | 00:00:00 | 00:00:00 | 00:00:00 | |
| PG1ADW-2 | 2026-09-04 00:18:31 | 48.40080 | 10.02217 | 97° | 11km/h | 28717m | 6.4m/s | -45.8°C | 3.3% | 15.2hPa | 2.6V | 00:00:00 | 00:00:00 | 00:00:00 | |
| DM0DOS-11 | 2026-09-04 00:18:30 | 48.40073 | 10.02195 | 101° | 4km/h | 28680m | 5.7m/s | -45.8°C | 3.2% | 15.3hPa | 2.5V | 08:30:00 | 01:48:58 | 00:00:00 | |
| DL1XH1-15 | 2026-09-04 00:18:30 | 48.40079 | 10.02208 | 54° | 15km/h | 28704m | 5.8m/s | -45.8°C | 0% | 0hPa | 2.6V | 00:00:00 | 01:49:02 | 00:00:00 | |
| DL1NUX | 2026-09-04 00:18:30 | 48.40074 | 10.02200 | 47° | 11km/h | 28693m | 5.8m/s | -45.8°C | 3.2% | 15.3hPa | 2.6V | 08:30:00 | 01:49:00 | 00:00:00 | |
| OE9MKV-15 | 2026-09-04 00:18:29 | 48.40079 | 10.02208 | 55° | 11km/h | 28704m | 5.8m/s | -45.8°C | 3.3% | 15.2hPa | 2.6V | 00:00:00 | 01:49:02 | 00:00:00 | |
| DO3MHA-11 | 2026-09-04 00:18:28 | 48.40076 | 10.02203 | 47° | 7km/h | 28699m | 5.0m/s | -45.8°C | 3.3% | 15.2hPa | 2.6V | 00:00:00 | 01:49:01 | 00:00:00 | |
| OE5MMP-10 | 2026-09-04 00:18:27 | 48.40074 | 10.02200 | 48° | 5km/h | 28693m | 5.7m/s | -45.7°C | 3.2% | 15.2hPa | 2.6V | 00:00:00 | 01:49:00 | 08:30:00 | |
| SONDE2-11 | 2026-09-04 00:18:26 | 48.40073 | 10.02197 | 65° | 7km/h | 28687m | 6.7m/s | -45.8°C | 0.9% | 15.3hPa | 2.5V | 00:00:00 | 00:00:00 | 00:00:00 | |
| DJ8HS-15 | 2026-09-04 00:18:25 | 48.40073 | 10.02195 | 102° | 9km/h | 28681m | 5.6m/s | -45.7°C | 3.2% | 15.3hPa | 2.5V | 00:00:00 | 01:48:58 | 00:00:00 | |
| DL1XH-west | 2026-09-04 00:18:25 | 48.40073 | 10.02195 | 102° | 4km/h | 28680m | 5.7m/s | -45.8°C | 0.4% | 15.3hPa | 2.5V | 18:12:15 | 01:48:58 | 00:00:00 | |
| DL1XH1-15 | 2026-09-04 00:18:24 | 48.40070 | 10.02204 | 347° | 5km/h | 28638m | 6m/s | 0°C | 0% | 0hPa | 2.6V | 00:00:00 | 01:48:51 | 00:00:00 | |
| DK7TD | 2026-09-04 00:18:21 | 48.40073 | 10.02198 | 299° | 9km/h | 28656m | 5.8m/s | -45.7°C | 0.4% | 15.4hPa | 2.6V | 18:12:15 | 01:48:54 | 00:00:00 | |
| DO3MHA-12 | 2026-09-04 00:18:20 | 48.40072 | 10.02201 | 309° | 11km/h | 28651m | 5.2m/s | -45.6°C | 3.2% | 15.3hPa | 2.6V | 00:00:00 | 01:48:53 | 00:00:00 | |
| DL1NUX | 2026-09-04 00:18:19 | 48.40068 | 10.02204 | 14° | 7km/h | 28633m | 5.2m/s | -45.6°C | 3.1% | 15.4hPa | 2.6V | 08:30:00 | 01:48:50 | 00:00:00 | |
| DO3MHA-11 | 2026-09-04 00:18:18 | 48.40069 | 10.02204 | 348° | 9km/h | 28639m | 5.9m/s | -45.6°C | 3.2% | 15.4hPa | 2.6V | 00:00:00 | 01:48:51 | 08:30:00 | |
| DM0DOS-11 | 2026-09-04 00:18:17 | 48.40062 | 10.02201 | 18° | 15km/h | 28621m | 7m/s | -45.5°C | 3.1% | 15.4hPa | 2.5V | 08:30:00 | 01:48:48 | 00:00:00 | |
| DL1XH-west | 2026-09-04 00:18:15 | 48.40062 | 10.02201 | 19° | 15km/h | 28621m | 7m/s | -45.5°C | 0.3% | 15.4hPa | 2.5V | 18:12:15 | 01:48:48 | 00:00:00 | |
| OE5DRO-10 | 2026-09-04 00:18:15 | 48.40062 | 10.02201 | 19° | 13km/h | 28621m | 7.0m/s | -45.5°C | 3.1% | 15.4hPa | 2.6V | 00:00:00 | 00:00:00 | 00:00:00 | |
| DB0UT-7 | 2026-09-04 00:18:13 | 48.40054 | 10.02197 | 21° | 11km/h | 28609m | 5.1m/s | -45.5°C | 3.2% | 15.4hPa | 2.6V | 00:00:00 | 00:00:00 | 00:00:00 | |
| IW2NTF | 2026-09-04 00:18:12 | 48.40043 | 10.02197 | 318° | 16km/h | 28568m | 6.1m/s | -45.5°C | 3.1% | 15.6hPa | 2.6V | 08:30:00 | 01:48:39 | 00:00:00 | |
| DK7TD | 2026-09-04 00:18:10 | 48.40047 | 10.02191 | 51° | 4km/h | 28591m | 5.5m/s | -45.6°C | 0.3% | 15.5hPa | 2.5V | 18:12:15 | 01:48:43 | 00:00:00 | |
| DL1XH1-15 | 2026-09-04 00:18:10 | 48.40046 | 10.02191 | 285° | 5km/h | 28581m | 5.4m/s | 0°C | 0% | 0hPa | 2.6V | 00:00:00 | 01:48:41 | 00:00:00 | |
| DO3MHA-12 | 2026-09-04 00:18:10 | 48.40047 | 10.02190 | 51° | 13km/h | 28591m | 5.5m/s | -45.5°C | 3.2% | 15.5hPa | 2.6V | 00:00:00 | 01:48:43 | 00:00:00 | |
| DL1NUX | 2026-09-04 00:18:09 | 48.40045 | 10.02194 | 303° | 9km/h | 28575m | 6.7m/s | -45.5°C | 3.1% | 15.6hPa | 2.6V | 08:30:00 | 01:48:40 | 00:00:00 | |
| DL1XH-west | 2026-09-04 00:18:04 | 48.40035 | 10.02204 | 341° | 20km/h | 28558m | 5m/s | -45.5°C | 0.3% | 15.6hPa | 2.6V | 18:12:15 | 01:48:37 | 00:00:00 | |
| AZAK | 2026-09-04 00:18:04 | 48.40034 | 10.02204 | 342° | 20km/h | 28558m | 5.0m/s | -45.5°C | 0.9% | 15.6hPa | 2.6V | 00:00:00 | 00:00:00 | 00:00:00 | |
| NBG1-10 | 2026-09-04 00:18:03 | 48.40030 | 10.02206 | 353° | 9km/h | 28552m | 5.8m/s | -45.5°C | 3.2% | 15.5hPa | 2.6V | 00:00:00 | 01:48:36 | 00:00:00 | |
| BAUMI2-15 | 2026-09-04 00:18:02 | 48.40025 | 10.02206 | 10° | 15km/h | 28546m | 6.4m/s | -45.5°C | 3.1% | 15.5hPa | 2.6V | 00:00:00 | 01:48:35 | 08:30:00 | |
| IW2NTF | 2026-09-04 00:18:01 | 48.40006 | 10.02194 | 348° | 16km/h | 28512m | 5.8m/s | -45.5°C | 3.1% | 15.7hPa | 2.6V | 08:30:00 | 01:48:29 | 00:00:00 | |
| DK7TD | 2026-09-04 00:18:00 | 48.40019 | 10.02201 | 40° | 15km/h | 28535m | 4.7m/s | -45.5°C | 0.3% | 15.6hPa | 2.5V | 18:12:15 | 01:48:33 | 00:00:00 | |
| DO3MHA-12 | 2026-09-04 00:18:00 | 48.40019 | 10.02201 | 40° | 13km/h | 28535m | 4.7m/s | -45.5°C | 3.1% | 15.6hPa | 2.5V | 00:00:00 | 01:48:33 | 08:30:00 | |
| DL1NUX | 2026-09-04 00:17:59 | 48.40010 | 10.02194 | 3° | 15km/h | 28518m | 6.3m/s | -45.5°C | 3.1% | 15.7hPa | 2.6V | 08:30:00 | 01:48:30 | 00:00:00 | |
| OE9MKV-15 | 2026-09-04 00:17:59 | 48.40016 | 10.02197 | 40° | 7km/h | 28530m | 4.7m/s | -45.5°C | 3.2% | 15.6hPa | 2.6V | 00:00:00 | 01:48:32 | 00:00:00 | |
| DO3MHA-11 | 2026-09-04 00:17:58 | 48.40013 | 10.02195 | 25° | 11km/h | 28525m | 5.9m/s | -45.5°C | 3.1% | 15.6hPa | 2.6V | 00:00:00 | 01:48:31 | 00:00:00 | |
| DM0DOS-11 | 2026-09-04 00:17:57 | 48.40002 | 10.02196 | 341° | 16km/h | 28507m | 5.5m/s | -45.5°C | 3.1% | 15.7hPa | 2.6V | 08:30:00 | 01:48:28 | 00:00:00 | |
| DL1XH-west | 2026-09-04 00:17:54 | 48.39998 | 10.02198 | 342° | 16km/h | 28501m | 6m/s | -45.5°C | 0.3% | 15.7hPa | 2.6V | 18:12:15 | 01:48:27 | 00:00:00 | |
| BAUMI2-15 | 2026-09-04 00:17:52 | 48.39992 | 10.02200 | 357° | 7km/h | 28489m | 5.6m/s | -45.5°C | 3.2% | 15.7hPa | 2.6V | 00:00:00 | 01:48:25 | 00:00:00 | |
| IW2NTF | 2026-09-04 00:17:51 | 48.39986 | 10.02207 | 261° | 4km/h | 28454m | 6.6m/s | -45.5°C | 3.1% | 15.8hPa | 2.6V | 08:30:00 | 01:48:19 | 00:00:00 | |
| PG1ADW-2 | 2026-09-04 00:17:51 | 48.39990 | 10.02200 | 354° | 5km/h | 28484m | 5.1m/s | -45.5°C | 3.2% | 15.7hPa | 2.6V | 00:00:00 | 00:00:00 | 00:00:00 | |
| DM0DOS-11 | 2026-09-04 00:17:50 | 48.39986 | 10.02208 | 171° | 2km/h | 28447m | 6.6m/s | -45.5°C | 3.1% | 15.8hPa | 2.6V | 08:30:00 | 01:48:18 | 00:00:00 | |
| DL1NUX | 2026-09-04 00:17:50 | 48.39986 | 10.02206 | 286° | 5km/h | 28460m | 5.4m/s | -45.5°C | 3.2% | 15.8hPa | 2.6V | 08:30:00 | 01:48:20 | 00:00:00 | |
| DK7TD | 2026-09-04 00:17:50 | 48.39988 | 10.02202 | 310° | 5km/h | 28471m | 6.7m/s | -45.5°C | 0.3% | 15.8hPa | 2.6V | 18:12:15 | 01:48:22 | 00:00:00 | |
| DL8DAS-14 | 2026-09-04 00:17:47 | 48.39986 | 10.02206 | 286° | 4km/h | 28460m | 5.4m/s | -45.5°C | 0.9% | 15.8hPa | 2.5V | 00:00:00 | 00:00:00 | 00:00:00 | |
| DL1XH-west | 2026-09-04 00:17:43 | 48.39987 | 10.02207 | 19° | 2km/h | 28436m | 5.3m/s | -45.5°C | 0.3% | 15.9hPa | 2.5V | 18:12:15 | 01:48:16 | 00:00:00 | |
| AZAK | 2026-09-04 00:17:43 | 48.39987 | 10.02207 | 0° | 0km/h | 28436m | 5.3m/s | -45.5°C | 0.9% | 15.9hPa | 2.6V | 00:00:00 | 00:00:00 | 00:00:00 | |
| IW2NTF | 2026-09-04 00:17:42 | 48.39985 | 10.02222 | 183° | 4km/h | 28396m | 4.9m/s | -45.5°C | 3.1% | 15.9hPa | 2.6V | 08:30:00 | 01:48:09 | 00:00:00 | |
| DO3MHA-12 | 2026-09-04 00:17:40 | 48.39984 | 10.02212 | 295° | 5km/h | 28419m | 4.4m/s | -45.4°C | 3.1% | 15.9hPa | 2.5V | 00:00:00 | 01:48:13 | 00:00:00 | |
| DL1NUX | 2026-09-04 00:17:39 | 48.39984 | 10.02221 | 225° | 5km/h | 28402m | 6.1m/s | -45.5°C | 3.1% | 15.9hPa | 2.5V | 08:30:00 | 01:48:10 | 00:00:00 | |
| DK7TD | 2026-09-04 00:17:38 | 48.39983 | 10.02219 | 264° | 7km/h | 28408m | 6.4m/s | -45.5°C | 0.3% | 16hPa | 2.6V | 18:12:15 | 01:48:11 | 00:00:00 | |
| DO3MHA-11 | 2026-09-04 00:17:38 | 48.39983 | 10.02219 | 265° | 5km/h | 28408m | 6.3m/s | -45.4°C | 3.1% | 15.9hPa | 2.6V | 00:00:00 | 01:48:11 | 00:00:00 | |
| DM0DOS-11 | 2026-09-04 00:17:37 | 48.39986 | 10.02222 | 159° | 4km/h | 28391m | 5.4m/s | -45.5°C | 3.1% | 16hPa | 2.6V | 08:30:00 | 01:48:08 | 00:00:00 | |
| DL1XH-west | 2026-09-04 00:17:33 | 48.39987 | 10.02221 | 198° | 2km/h | 28380m | 5.3m/s | -45.5°C | 0.3% | 16hPa | 2.6V | 18:12:15 | 01:48:06 | 00:00:00 | |
| DB0ND-19 | 2026-09-04 00:17:32 | 48.39993 | 10.02225 | 182° | 9km/h | 28358m | 5.6m/s | -45.5°C | 0.9% | 16.1hPa | 2.6V | 00:00:00 | 00:00:00 | 00:00:00 | |
| IW2NTF | 2026-09-04 00:17:31 | 48.39998 | 10.02223 | 160° | 2km/h | 28342m | 5.6m/s | -45.7°C | 3.1% | 16.1hPa | 2.6V | 08:30:00 | 01:47:59 | 00:00:00 | |
| DM0DOS-11 | 2026-09-04 00:17:31 | 48.39998 | 10.02224 | 274° | 4km/h | 28336m | 5.5m/s | -45.7°C | 3.2% | 16.1hPa | 2.6V | 08:30:00 | 01:47:58 | 00:00:00 | |
| DF7PN | 2026-09-04 00:17:30 | 48.39993 | 10.02225 | 182° | 9km/h | 28358m | 5.6m/s | -45.5°C | 0.9% | 16.1hPa | 2.6V | 00:00:00 | 00:00:00 | 00:00:00 | |
| OE9MKV-15 | 2026-09-04 00:17:29 | 48.39993 | 10.02225 | 183° | 11km/h | 28358m | 5.6m/s | -45.5°C | 3.1% | 16.0hPa | 2.6V | 00:00:00 | 01:48:02 | 00:00:00 | |
| DL1NUX | 2026-09-04 00:17:28 | 48.39999 | 10.02229 | 247° | 11km/h | 28326m | 5.5m/s | -45.8°C | 3.2% | 16.2hPa | 2.6V | 08:30:00 | 01:47:56 | 00:00:00 | |
| DK7TD | 2026-09-04 00:17:27 | 48.39997 | 10.02224 | 159° | 5km/h | 28347m | 5m/s | -45.6°C | 0.3% | 16.1hPa | 2.5V | 18:12:15 | 01:48:00 | 00:00:00 | |
| DL1XH-west | 2026-09-04 00:17:23 | 48.39999 | 10.02229 | 248° | 11km/h | 28326m | 5.5m/s | -45.8°C | 0.3% | 16.2hPa | 2.6V | 18:12:15 | 01:47:56 | 00:00:00 | |
| AZAK | 2026-09-04 00:17:23 | 48.39999 | 10.02229 | 249° | 11km/h | 28326m | 5.5m/s | -45.8°C | 0.9% | 16.2hPa | 2.6V | 00:00:00 | 00:00:00 | 00:00:00 | |
| IW2NTF | 2026-09-04 00:17:22 | 48.40020 | 10.02223 | 127° | 13km/h | 28287m | 5.5m/s | -45.9°C | 3.2% | 16.3hPa | 2.6V | 08:30:00 | 01:47:49 | 00:00:00 | |
| DO3MHA-12 | 2026-09-04 00:17:20 | 48.40006 | 10.02236 | 181° | 13km/h | 28310m | 5.8m/s | -45.8°C | 3.2% | 16.2hPa | 2.6V | 00:00:00 | 01:47:53 | 00:00:00 | |
| DL1ZP-14 | 2026-09-04 00:17:19 | 48.40011 | 10.02235 | 158° | 16km/h | 28304m | 6.1m/s | -45.9°C | 0.9% | 16.2hPa | 2.6V | 00:00:00 | 00:00:00 | 00:00:00 | |
| DO3MHA-11 | 2026-09-04 00:17:18 | 48.40014 | 10.02232 | 142° | 11km/h | 28298m | 5.6m/s | -45.9°C | 3.2% | 16.2hPa | 2.6V | 00:00:00 | 01:47:51 | 00:00:00 | |
| DM0DOS-11 | 2026-09-04 00:17:17 | 48.40022 | 10.02220 | 143° | 7km/h | 28281m | 6m/s | -45.9°C | 3.2% | 16.3hPa | 2.6V | 08:30:00 | 01:47:48 | 00:00:00 | |
| DK7TD | 2026-09-04 00:17:17 | 48.40017 | 10.02227 | 131° | 16km/h | 28292m | 5.4m/s | -45.9°C | 0.3% | 16.2hPa | 2.5V | 18:12:15 | 01:47:50 | 00:00:00 | |
| DL8DAS-14 | 2026-09-04 00:17:17 | 48.40020 | 10.02223 | 127° | 11km/h | 28287m | 5.5m/s | -45.9°C | 0.9% | 16.3hPa | 2.6V | 00:00:00 | 00:00:00 | 00:00:00 | |
| DL1NUX | 2026-09-04 00:17:16 | 48.40028 | 10.02225 | 204° | 9km/h | 28258m | 6.2m/s | -45.9°C | 3.1% | 16.3hPa | 2.6V | 08:30:00 | 01:47:44 | 00:00:00 | |
| DL1XH-west | 2026-09-04 00:17:12 | 48.40026 | 10.02223 | 218° | 9km/h | 28264m | 5.8m/s | -45.9°C | 0.3% | 0hPa | 2.6V | 18:12:15 | 01:47:45 | 00:00:00 | |
| IW2NTF | 2026-09-04 00:17:12 | 48.40039 | 10.02229 | 187° | 9km/h | 28230m | 4.9m/s | -45.9°C | 3.1% | 16.4hPa | 2.6V | 08:30:00 | 01:47:39 | 00:00:00 | |
| PG1ADW-2 | 2026-09-04 00:17:11 | 48.40028 | 10.02225 | 205° | 9km/h | 28259m | 6.1m/s | -45.9°C | 3.1% | 16.3hPa | 2.6V | 00:00:00 | 00:00:00 | 00:00:00 | |
| DM0DOS-11 | 2026-09-04 00:17:10 | 48.40041 | 10.02229 | 167° | 11km/h | 28224m | 6m/s | -45.9°C | 3.1% | 16.4hPa | 2.6V | 08:30:00 | 01:47:38 | 00:00:00 | |
| DK7TD | 2026-09-04 00:17:06 | 48.40039 | 10.02229 | 187° | 9km/h | 28230m | 4.9m/s | -45.9°C | 0.3% | 16.4hPa | 2.6V | 18:12:15 | 01:47:39 | 00:00:00 | |
| DK5PH-5 | 2026-09-04 00:17:05 | 48.40041 | 10.02229 | 168° | 9km/h | 28224m | 6.0m/s | -45.9°C | 3.1% | 16.3hPa | 2.6V | 00:00:00 | 01:47:38 | 00:00:00 | |
| DL1NUX | 2026-09-04 00:17:03 | 48.40055 | 10.02215 | 145° | 7km/h | 28194m | 6.4m/s | -46.1°C | 3.2% | 16.5hPa | 2.6V | 08:30:00 | 01:47:33 | 00:00:00 | |
| IW2NTF | 2026-09-04 00:17:02 | 48.40060 | 10.02211 | 153° | 5km/h | 28170m | 5.4m/s | -46.3°C | 3.2% | 16.6hPa | 2.6V | 08:30:00 | 01:47:29 | 00:00:00 | |
| DL1XH-west | 2026-09-04 00:17:01 | 48.40053 | 10.02218 | 144° | 13km/h | 28200m | 6.6m/s | -46.1°C | 0.3% | 0hPa | 2.6V | 18:12:15 | 01:47:34 | 00:00:00 | |
| DO3MHA-12 | 2026-09-04 00:17:00 | 48.40055 | 10.02215 | 146° | 7km/h | 28194m | 6.3m/s | -46.1°C | 3.2% | 16.4hPa | 2.6V | 00:00:00 | 01:47:33 | 00:00:00 | |
| OE9MKV-15 | 2026-09-04 00:16:59 | 48.40057 | 10.02214 | 149° | 11km/h | 28188m | 5.3m/s | -46.2°C | 3.2% | 16.5hPa | 2.6V | 00:00:00 | 01:47:32 | 00:00:00 | |
| DM0DOS-11 | 2026-09-04 00:16:58 | 48.40062 | 10.02210 | 171° | 5km/h | 28165m | 5.3m/s | -46.3°C | 3.2% | 16.5hPa | 2.6V | 08:30:00 | 01:47:28 | 00:00:00 | |
| DK7TD | 2026-09-04 00:16:56 | 48.40060 | 10.02211 | 153° | 5km/h | 28170m | 5.4m/s | -46.3°C | 0.4% | 16.6hPa | 2.6V | 18:12:15 | 01:47:29 | 00:00:00 | |
| DL1NUX | 2026-09-04 00:16:55 | 48.40072 | 10.02211 | 159° | 15km/h | 28135m | 6.1m/s | -46.4°C | 3.3% | 16.6hPa | 2.6V | 08:30:00 | 01:47:23 | 00:00:00 | |
| SONDE2-11 | 2026-09-04 00:16:53 | 48.40066 | 10.02212 | 192° | 9km/h | 28148m | 5.1m/s | -46.4°C | 0.9% | 16.6hPa | 2.5V | 00:00:00 | 00:00:00 | 00:00:00 | |
| IW2NTF | 2026-09-04 00:16:51 | 48.40083 | 10.02201 | 126° | 7km/h | 28112m | 5.1m/s | -46.5°C | 3.3% | 16.7hPa | 2.5V | 08:30:00 | 01:47:19 | 00:00:00 | |
| PG1ADW-2 | 2026-09-04 00:16:51 | 48.40069 | 10.02212 | 176° | 11km/h | 28142m | 6.6m/s | -46.4°C | 3.3% | 16.5hPa | 2.6V | 00:00:00 | 01:47:24 | 00:00:00 | |
| DO3MHA-12 | 2026-09-04 00:16:50 | 48.40072 | 10.02211 | 160° | 9km/h | 28136m | 6.0m/s | -46.4°C | 3.3% | 16.6hPa | 2.6V | 00:00:00 | 01:47:23 | 00:00:00 | |
| DM0DOS-11 | 2026-09-04 00:16:49 | 48.40083 | 10.02199 | 109° | 5km/h | 28107m | 4.8m/s | -46.5°C | 3.3% | 16.7hPa | 2.6V | 08:30:00 | 01:47:18 | 00:00:00 | |
| DL1XH-west | 2026-09-04 00:16:47 | 48.40081 | 10.02203 | 138° | 11km/h | 28117m | 6.3m/s | -46.5°C | 0.4% | 0hPa | 2.5V | 18:12:15 | 01:47:20 | 00:00:00 | |
| DK7TD | 2026-09-04 00:16:45 | 48.40083 | 10.02198 | 109° | 5km/h | 28107m | 4.8m/s | -46.5°C | 0.4% | 16.7hPa | 2.6V | 18:12:15 | 01:47:18 | 00:00:00 | |
| DJ8HS-15 | 2026-09-04 00:16:45 | 48.40083 | 10.02198 | 110° | 11km/h | 28107m | 4.8m/s | -46.5°C | 3.3% | 16.6hPa | 2.6V | 00:00:00 | 01:47:18 | 00:00:00 | |
| DL1NUX | 2026-09-04 00:16:44 | 48.40090 | 10.02193 | 200° | 11km/h | 28079m | 6.1m/s | -46.6°C | 3.3% | 16.8hPa | 2.6V | 08:30:00 | 01:47:13 | 00:00:00 | |
| DB0UT-7 | 2026-09-04 00:16:43 | 48.40084 | 10.02195 | 126° | 13km/h | 28096m | 5.9m/s | -46.5°C | 3.3% | 16.6hPa | 2.6V | 00:00:00 | 01:47:16 | 00:00:00 | |
| IW2NTF | 2026-09-04 00:16:42 | 48.40100 | 10.02203 | 191° | 9km/h | 28058m | 5.3m/s | -46.6°C | 3.3% | 16.8hPa | 2.6V | 08:30:00 | 01:47:09 | 00:00:00 | |
| AZAK | 2026-09-04 00:16:42 | 48.40086 | 10.02193 | 153° | 7km/h | 28090m | 5.0m/s | -46.5°C | 0.9% | 16.7hPa | 2.5V | 00:00:00 | 00:00:00 | 00:00:00 | |
| DO3MHA-12 | 2026-09-04 00:16:40 | 48.40090 | 10.02193 | 201° | 13km/h | 28080m | 6.0m/s | -46.5°C | 3.3% | 16.7hPa | 2.5V | 00:00:00 | 01:47:13 | 00:00:00 | |
| DO3MHA-11 | 2026-09-04 00:16:38 | 48.40095 | 10.02198 | 226° | 13km/h | 28068m | 4.8m/s | -46.5°C | 3.3% | 16.7hPa | 2.5V | 00:00:00 | 01:47:11 | 00:00:00 | |
| DM0DOS-11 | 2026-09-04 00:16:37 | 48.40103 | 10.02203 | 155° | 11km/h | 28052m | 6.5m/s | -46.6°C | 3.3% | 16.8hPa | 2.5V | 08:30:00 | 01:47:08 | 00:00:00 | |
| DL1XH-west | 2026-09-04 00:16:37 | 48.40100 | 10.02203 | 192° | 9km/h | 28058m | 5.3m/s | 0°C | 0% | 0hPa | 2.6V | 18:12:15 | 01:47:09 | 00:00:00 | |
| DK7TD | 2026-09-04 00:16:35 | 48.40103 | 10.02203 | 156° | 11km/h | 28052m | 6.6m/s | -46.6°C | 0.4% | 16.8hPa | 2.5V | 18:12:15 | 01:47:08 | 00:00:00 | |
| DK5PH-5 | 2026-09-04 00:16:35 | 48.40103 | 10.02203 | 156° | 11km/h | 28053m | 6.5m/s | -46.6°C | 3.3% | 16.8hPa | 2.6V | 00:00:00 | 01:47:08 | 00:00:00 | |
| IW2NTF | 2026-09-04 00:16:32 | 48.40124 | 10.02171 | 168° | 15km/h | 28001m | 5m/s | -46.7°C | 3.3% | 17hPa | 2.6V | 08:30:00 | 01:46:59 | 00:00:00 | |
| PG1ADW-2 | 2026-09-04 00:16:31 | 48.40113 | 10.02180 | 128° | 13km/h | 28024m | 5.2m/s | -46.6°C | 3.3% | 16.8hPa | 2.6V | 00:00:00 | 00:00:00 | 00:00:00 | |
| DO3MHA-12 | 2026-09-04 00:16:30 | 48.40113 | 10.02180 | 128° | 11km/h | 28024m | 5.2m/s | -46.6°C | 3.3% | 16.8hPa | 2.6V | 00:00:00 | 01:47:03 | 08:30:00 | |
| OE9MKV-15 | 2026-09-04 00:16:29 | 48.40115 | 10.02177 | 142° | 13km/h | 28018m | 5.0m/s | -46.6°C | 3.3% | 16.9hPa | 2.6V | 00:00:00 | 01:47:02 | 00:00:00 | |
| DO3MHA-11 | 2026-09-04 00:16:28 | 48.40117 | 10.02174 | 152° | 11km/h | 28013m | 6.4m/s | -46.6°C | 3.3% | 16.9hPa | 2.6V | 00:00:00 | 01:47:01 | 00:00:00 | |
| DM0DOS-11 | 2026-09-04 00:16:27 | 48.40128 | 10.02170 | 179° | 13km/h | 27995m | 5.8m/s | -46.7°C | 3.3% | 17hPa | 2.6V | 08:30:00 | 01:46:58 | 00:00:00 | |
| DL1XH-west | 2026-09-04 00:16:26 | 48.40124 | 10.02171 | 169° | 15km/h | 28001m | 5m/s | 0°C | 0% | 0hPa | 2.6V | 18:12:15 | 01:46:59 | 00:00:00 | |
| DK7TD | 2026-09-04 00:16:25 | 48.40127 | 10.02170 | 179° | 13km/h | 27995m | 5.8m/s | -46.7°C | 0.4% | 17hPa | 2.6V | 18:12:15 | 01:46:58 | 00:00:00 | |
| DJ8HS-15 | 2026-09-04 00:16:25 | 48.40127 | 10.02170 | 180° | 11km/h | 27996m | 5.8m/s | -46.6°C | 3.3% | 16.9hPa | 2.6V | 00:00:00 | 01:46:58 | 08:30:00 | |
| NBG1-10 | 2026-09-04 00:16:24 | 48.40130 | 10.02171 | 194° | 13km/h | 27989m | 6.2m/s | -46.7°C | 3.3% | 17.0hPa | 2.6V | 00:00:00 | 01:46:57 | 00:00:00 | |
| SONDE2-11 | 2026-09-04 00:16:22 | 48.40136 | 10.02171 | 141° | 7km/h | 27973m | 6.4m/s | -46.7°C | 0.9% | 17.0hPa | 2.6V | 00:00:00 | 00:00:00 | 00:00:00 | |
| IW2NTF | 2026-09-04 00:16:21 | 48.40144 | 10.02147 | 108° | 11km/h | 27944m | 5.2m/s | -46.6°C | 3.3% | 17.1hPa | 2.6V | 08:30:00 | 01:46:49 | 00:00:00 | |
| AZAK | 2026-09-04 00:16:21 | 48.40136 | 10.02171 | 142° | 9km/h | 27974m | 6.4m/s | -46.7°C | 0.9% | 17.0hPa | 2.6V | 00:00:00 | 00:00:00 | 00:00:00 | |
| DO3MHA-12 | 2026-09-04 00:16:20 | 48.40138 | 10.02167 | 126° | 13km/h | 27967m | 6.2m/s | -46.6°C | 3.3% | 17.0hPa | 2.6V | 00:00:00 | 01:46:53 | 00:00:00 | |
| DM0DOS-11 | 2026-09-04 00:16:19 | 48.40145 | 10.02143 | 116° | 11km/h | 27938m | 5.4m/s | -46.6°C | 3.3% | 17.1hPa | 2.6V | 08:30:00 | 01:46:48 | 00:00:00 | |
| DO3MHA-11 | 2026-09-04 00:16:18 | 48.40141 | 10.02157 | 112° | 11km/h | 27956m | 5.6m/s | -46.6°C | 3.3% | 17.0hPa | 2.6V | 00:00:00 | 01:46:51 | 00:00:00 | |
| OE5MMP-10 | 2026-09-04 00:16:17 | 48.40143 | 10.02151 | 108° | 11km/h | 27950m | 6.2m/s | -46.5°C | 3.3% | 17.1hPa | 2.6V | 00:00:00 | 01:46:50 | 00:00:00 | |
| DL1NUX | 2026-09-04 00:16:15 | 48.40156 | 10.02133 | 192° | 9km/h | 27911m | 6.4m/s | -46.8°C | 3.3% | 17.2hPa | 2.6V | 08:30:00 | 01:46:43 | 00:00:00 | |
| DK7TD | 2026-09-04 00:16:14 | 48.40146 | 10.02139 | 129° | 11km/h | 27932m | 6.5m/s | -46.7°C | 0.5% | 17.1hPa | 2.5V | 18:12:15 | 01:46:47 | 00:00:00 | |
| DL8DAS-15 | 2026-09-04 00:16:14 | 48.40146 | 10.02139 | 130° | 11km/h | 27933m | 6.5m/s | -46.7°C | 0% | 0hPa | 2.6V | 00:00:00 | 00:00:00 | 00:00:00 | |
| OE5DXL-15 | 2026-09-04 00:16:13 | 48.40149 | 10.02136 | 144° | 13km/h | 27927m | 5.4m/s | -46.7°C | 3.4% | 17.1hPa | 2.6V | 00:00:00 | 00:00:00 | 00:00:00 | |
| IW2NTF | 2026-09-04 00:16:12 | 48.40163 | 10.02131 | 128° | 13km/h | 27889m | 6.2m/s | -46.7°C | 3.3% | 17.2hPa | 2.6V | 08:30:00 | 01:46:39 | 00:00:00 | |
| DM7RM-13 | 2026-09-04 00:16:12 | 48.40151 | 10.02134 | 158° | 13km/h | 27922m | 4.7m/s | -46.7°C | 1.0% | 17.2hPa | 2.6V | 00:00:00 | 00:00:00 | 00:00:00 | |
| PG1ADW-2 | 2026-09-04 00:16:11 | 48.40154 | 10.02133 | 174° | 13km/h | 27917m | 5.0m/s | -46.7°C | 3.3% | 17.1hPa | 2.6V | 00:00:00 | 00:00:00 | 00:00:00 | |
| DO3MHA-12 | 2026-09-04 00:16:10 | 48.40156 | 10.02133 | 193° | 15km/h | 27911m | 6.4m/s | -46.7°C | 3.3% | 17.2hPa | 2.6V | 00:00:00 | 01:46:43 | 00:00:00 | |
| SONCRA | 2026-09-04 00:16:09 | 48.40159 | 10.02135 | 187° | 4km/h | 27900m | 4.8m/s | -46.7°C | 0.9% | 17.2hPa | 2.6V | 00:00:00 | 00:00:00 | 00:00:00 | |
| DM0DOS-11 | 2026-09-04 00:16:08 | 48.40165 | 10.02126 | 121° | 20km/h | 27883m | 5.8m/s | -46.7°C | 3.3% | 17.3hPa | 2.6V | 08:30:00 | 01:46:38 | 00:00:00 | |
| BIOWL1-15 | 2026-09-04 00:16:04 | 48.40168 | 10.02118 | 115° | 24km/h | 27878m | 5.1m/s | 0°C | 0% | 0hPa | 2.5V | 18:12:15 | 01:46:37 | 00:00:00 | |
| DK7TD | 2026-09-04 00:16:03 | 48.40170 | 10.02110 | 111° | 24km/h | 27872m | 6.3m/s | -46.6°C | 0.4% | 17.3hPa | 2.6V | 18:12:15 | 01:46:36 | 00:00:00 | |
| DL1NUX | 2026-09-04 00:16:03 | 48.40174 | 10.02087 | 102° | 20km/h | 27855m | 5.6m/s | -46.6°C | 3.3% | 17.4hPa | 2.6V | 08:30:00 | 01:46:33 | 00:00:00 | |
| OE5DRO-10 | 2026-09-04 00:16:02 | 48.40172 | 10.02102 | 106° | 13km/h | 27866m | 5.9m/s | -46.6°C | 3.3% | 17.3hPa | 2.6V | 00:00:00 | 00:00:00 | 08:30:00 | |
| DO3MHA-12 | 2026-09-04 00:16:00 | 48.40174 | 10.02086 | 103° | 11km/h | 27855m | 5.5m/s | -46.5°C | 3.3% | 17.3hPa | 2.6V | 00:00:00 | 01:46:33 | 00:00:00 | |
| OE9MKV-15 | 2026-09-04 00:15:59 | 48.40175 | 10.02080 | 107° | 11km/h | 27849m | 6.2m/s | -46.5°C | 3.2% | 17.3hPa | 2.6V | 00:00:00 | 01:46:32 | 00:00:00 | |
| DO3MHA-11 | 2026-09-04 00:15:58 | 48.40177 | 10.02073 | 111° | 9km/h | 27843m | 5.1m/s | -46.5°C | 3.2% | 17.3hPa | 2.6V | 00:00:00 | 01:46:31 | 00:00:00 | |
| DM0DOS-11 | 2026-09-04 00:15:57 | 48.40179 | 10.02066 | 177° | 2km/h | 27826m | 5.9m/s | -46.5°C | 3.2% | 17.4hPa | 2.6V | 08:30:00 | 01:46:28 | 00:00:00 | |
| DK7TD | 2026-09-04 00:15:53 | 48.40181 | 10.02066 | 172° | 5km/h | 27815m | 6.5m/s | -46.5°C | 0.3% | 17.5hPa | 2.6V | 18:12:15 | 01:46:26 | 00:00:00 | |
| SONDE2-11 | 2026-09-04 00:15:51 | 48.40188 | 10.02058 | 130° | 15km/h | 27798m | 5.3m/s | -46.5°C | 0.9% | 17.5hPa | 2.6V | 00:00:00 | 00:00:00 | 00:00:00 | |
| DO3MHA-12 | 2026-09-04 00:15:50 | 48.40188 | 10.02058 | 131° | 15km/h | 27798m | 5.3m/s | -46.4°C | 3.2% | 17.4hPa | 2.6V | 00:00:00 | 01:46:23 | 00:00:00 | |
| DO3MHA-11 | 2026-09-04 00:15:48 | 48.40192 | 10.02049 | 112° | 13km/h | 27786m | 5.5m/s | -46.5°C | 3.2% | 17.5hPa | 2.6V | 00:00:00 | 01:46:21 | 00:00:00 | |
| DM0DOS-11 | 2026-09-04 00:15:47 | 48.40196 | 10.02033 | 113° | 15km/h | 27771m | 6.1m/s | -46.9°C | 3.3% | 17.6hPa | 2.6V | 08:30:00 | 01:46:18 | 00:00:00 | |
| BIOWL1-15 | 2026-09-04 00:15:45 | 48.40196 | 10.02033 | 113° | 15km/h | 27771m | 6.1m/s | 0°C | 0% | 0hPa | 2.6V | 18:12:15 | 01:46:18 | 00:00:00 | |
| DK7TD | 2026-09-04 00:15:43 | 48.40200 | 10.02023 | 124° | 15km/h | 27759m | 4.6m/s | -47°C | 0.4% | 17.6hPa | 2.6V | 18:12:15 | 01:46:16 | 00:00:00 | |
| DB0UT-7 | 2026-09-04 00:15:43 | 48.40199 | 10.02023 | 125° | 9km/h | 27760m | 4.5m/s | -47.0°C | 3.3% | 17.5hPa | 2.5V | 00:00:00 | 01:46:16 | 00:00:00 | |
| BAUMI2-15 | 2026-09-04 00:15:42 | 48.40201 | 10.02019 | 123° | 7km/h | 27755m | 4.6m/s | -47.0°C | 3.3% | 17.6hPa | 2.5V | 00:00:00 | 01:46:15 | 00:00:00 | |
| DJTTGO | 2026-09-04 00:15:41 | 48.40202 | 10.02016 | 107° | 7km/h | 27750m | 6.2m/s | -47.1°C | 1.0% | 17.6hPa | 2.5V | 00:00:00 | 00:00:00 | 00:00:00 | |
| DO3MHA-12 | 2026-09-04 00:15:40 | 48.40203 | 10.02013 | 75° | 7km/h | 27744m | 5.9m/s | -47.1°C | 3.4% | 17.6hPa | 2.5V | 00:00:00 | 01:46:13 | 00:00:00 | |
| SONCRA | 2026-09-04 00:15:38 | 48.40201 | 10.02007 | 91° | 5km/h | 27726m | 6.1m/s | -47.2°C | 1.0% | 17.7hPa | 2.5V | 00:00:00 | 00:00:00 | 00:00:00 | |
| DM0DOS-11 | 2026-09-04 00:15:37 | 48.40202 | 10.02001 | 96° | 7km/h | 27715m | 5.9m/s | -47.2°C | 3.4% | 17.7hPa | 2.5V | 08:30:00 | 01:46:08 | 00:00:00 | |
| BIOWL1-15 | 2026-09-04 00:15:34 | 48.40202 | 10.01998 | 85° | 7km/h | 27709m | 6.1m/s | 0°C | 0% | 0hPa | 2.6V | 18:12:15 | 01:46:07 | 00:00:00 | |
| DK7TD | 2026-09-04 00:15:32 | 48.40202 | 10.01993 | 107° | 7km/h | 27698m | 5.4m/s | -47.3°C | 0.5% | 17.8hPa | 2.6V | 18:12:15 | 01:46:05 | 00:00:00 | |
| BAUMI2-15 | 2026-09-04 00:15:32 | 48.40201 | 10.01993 | 108° | 7km/h | 27699m | 5.3m/s | -47.2°C | 3.4% | 17.7hPa | 2.6V | 00:00:00 | 01:46:05 | 00:00:00 | |
| PG1ADW-2 | 2026-09-04 00:15:31 | 48.40203 | 10.01990 | 127° | 7km/h | 27693m | 6.5m/s | -47.3°C | 3.4% | 17.7hPa | 2.5V | 00:00:00 | 01:46:04 | 00:00:00 | |
| IW2NTF | 2026-09-04 00:15:30 | 48.40206 | 10.01981 | 62° | 5km/h | 27659m | 4.8m/s | -47.3°C | 3.4% | 17.9hPa | 2.6V | 08:30:00 | 01:45:58 | 00:00:00 | |
| OE9MKV-15 | 2026-09-04 00:15:29 | 48.40206 | 10.01986 | 144° | 9km/h | 27682m | 4.8m/s | -47.2°C | 3.4% | 17.8hPa | 2.6V | 00:00:00 | 01:46:02 | 08:30:00 | |
| DB0ND-19 | 2026-09-04 00:15:28 | 48.40207 | 10.01985 | 131° | 4km/h | 27676m | 6.2m/s | -47.3°C | 0.9% | 17.8hPa | 2.6V | 00:00:00 | 00:00:00 | 00:00:00 | |
| OE5MMP-10 | 2026-09-04 00:15:27 | 48.40207 | 10.01984 | 74° | 9km/h | 27670m | 6.0m/s | -47.2°C | 3.4% | 17.8hPa | 2.6V | 00:00:00 | 01:46:00 | 08:30:00 | |
| DJ8HS-15 | 2026-09-04 00:15:25 | 48.40206 | 10.01981 | 63° | 9km/h | 27659m | 4.8m/s | -47.2°C | 3.4% | 17.8hPa | 2.6V | 00:00:00 | 01:45:58 | 00:00:00 | |
| DL1NUX | 2026-09-04 00:15:24 | 48.40210 | 10.01971 | 145° | 13km/h | 27636m | 5.3m/s | -47.2°C | 3.4% | 17.9hPa | 2.6V | 08:30:00 | 01:45:54 | 00:00:00 | |
| DH7VM-15 | 2026-09-04 00:15:23 | 48.40205 | 10.01979 | 91° | 7km/h | 27654m | 6.3m/s | -47.3°C | 1.0% | 17.9hPa | 2.6V | 00:00:00 | 00:00:00 | 00:00:00 | |
| DM0DOS-11 | 2026-09-04 00:15:22 | 48.40213 | 10.01968 | 152° | 11km/h | 27630m | 6.5m/s | -47.2°C | 3.4% | 17.9hPa | 2.6V | 08:30:00 | 01:45:53 | 00:00:00 | |
| DK7TD | 2026-09-04 00:15:21 | 48.40210 | 10.01971 | 145° | 13km/h | 27636m | 5.3m/s | -47.2°C | 0.5% | 18hPa | 2.6V | 18:12:15 | 01:45:54 | 00:00:00 | |
| SONDE2-11 | 2026-09-04 00:15:20 | 48.40215 | 10.01967 | 166° | 9km/h | 27624m | 5.7m/s | -47.2°C | 1.0% | 18.0hPa | 2.5V | 00:00:00 | 00:00:00 | 00:00:00 | |
| NBG1-10 | 2026-09-04 00:15:18 | 48.40217 | 10.01966 | 174° | 9km/h | 27619m | 5.5m/s | -47.1°C | 3.4% | 17.9hPa | 2.5V | 00:00:00 | 01:45:51 | 00:00:00 | |
| IW2NTF | 2026-09-04 00:15:17 | 48.40229 | 10.01962 | 121° | 4km/h | 27590m | 6.1m/s | -47.1°C | 3.4% | 18.1hPa | 2.5V | 08:30:00 | 01:45:46 | 00:00:00 | |
| OE5MMP-10 | 2026-09-04 00:15:17 | 48.40220 | 10.01966 | 174° | 9km/h | 27613m | 6.5m/s | -47.1°C | 3.4% | 17.9hPa | 2.6V | 00:00:00 | 01:45:50 | 00:00:00 | |
| DL1NUX | 2026-09-04 00:15:16 | 48.40232 | 10.01952 | 134° | 11km/h | 27567m | 4.9m/s | -47.1°C | 3.4% | 18.1hPa | 2.6V | 08:30:00 | 01:45:42 | 00:00:00 | |
| DK7TD | 2026-09-04 00:15:12 | 48.40230 | 10.01958 | 104° | 7km/h | 27579m | 6m/s | -47.1°C | 0.5% | 18.1hPa | 2.6V | 18:12:15 | 01:45:44 | 00:00:00 | |
| DM7RM-13 | 2026-09-04 00:15:11 | 48.40231 | 10.01955 | 121° | 9km/h | 27573m | 5.9m/s | -47.1°C | 1.0% | 18.1hPa | 2.6V | 00:00:00 | 00:00:00 | 00:00:00 | |
| DL6DJ-15 | 2026-09-04 00:15:07 | 48.40239 | 10.01945 | 158° | 7km/h | 27551m | 5.8m/s | -47.1°C | 1.0% | 18.2hPa | 2.6V | 00:00:00 | 00:00:00 | 00:00:00 | |
| DM0DOS-11 | 2026-09-04 00:15:05 | 48.40256 | 10.01934 | 151° | 13km/h | 27519m | 5.1m/s | -47.3°C | 3.5% | 18.2hPa | 2.6V | 08:30:00 | 01:45:33 | 00:00:00 | |
| DK5PH-5 | 2026-09-04 00:15:05 | 48.40241 | 10.01944 | 165° | 9km/h | 27546m | 5.1m/s | -47.1°C | 3.4% | 18.1hPa | 2.5V | 00:00:00 | 01:45:38 | 00:00:00 | |
| DF1GD-15 | 2026-09-04 00:15:04 | 48.40241 | 10.01944 | 165° | 7km/h | 27546m | 5.1m/s | -47.1°C | 1.0% | 18.2hPa | 2.5V | 00:00:00 | 00:00:00 | 00:00:00 | |
| IW2NTF | 2026-09-04 00:15:03 | 48.40246 | 10.01942 | 156° | 13km/h | 27535m | 6.4m/s | -47.2°C | 3.4% | 18.2hPa | 2.5V | 08:30:00 | 01:45:36 | 00:00:00 | |
| DK7TD | 2026-09-04 00:15:00 | 48.40256 | 10.01934 | 152° | 13km/h | 27519m | 5.1m/s | -47.3°C | 0.6% | 18.2hPa | 2.6V | 18:12:15 | 01:45:33 | 00:00:00 | |
| DO3MHA-12 | 2026-09-04 00:15:00 | 48.40256 | 10.01934 | 152° | 7km/h | 27519m | 5.1m/s | -47.3°C | 3.5% | 18.2hPa | 2.6V | 00:00:00 | 01:45:33 | 08:30:00 | |
| OE9MKV-15 | 2026-09-04 00:14:59 | 48.40258 | 10.01932 | 152° | 9km/h | 27513m | 6.6m/s | -47.2°C | 3.4% | 18.2hPa | 2.6V | 00:00:00 | 01:45:32 | 00:00:00 | |
| IW2NTF | 2026-09-04 00:14:58 | 48.40263 | 10.01915 | 122° | 4km/h | 27466m | 5.2m/s | -47.1°C | 3.4% | 18.4hPa | 2.6V | 08:30:00 | 01:45:24 | 00:00:00 | |
| DB0ND-19 | 2026-09-04 00:14:57 | 48.40261 | 10.01930 | 101° | 2km/h | 27501m | 5.3m/s | -47.2°C | 1.0% | 18.3hPa | 2.6V | 00:00:00 | 00:00:00 | 00:00:00 | |
| DF7PN | 2026-09-04 00:14:54 | 48.40261 | 10.01922 | 103° | 9km/h | 27483m | 5.5m/s | -47.2°C | 1.0% | 18.3hPa | 2.6V | 00:00:00 | 00:00:00 | 00:00:00 | |
| BAUMI2-15 | 2026-09-04 00:14:52 | 48.40262 | 10.01916 | 110° | 7km/h | 27472m | 6.2m/s | -47.1°C | 3.4% | 18.3hPa | 2.6V | 00:00:00 | 01:45:25 | 00:00:00 | |
| PG1ADW-2 | 2026-09-04 00:14:51 | 48.40266 | 10.01911 | 140° | 9km/h | 27455m | 6.7m/s | -47.0°C | 3.4% | 18.4hPa | 2.6V | 00:00:00 | 00:00:00 | 00:00:00 | |
| DM0DOS-11 | 2026-09-04 00:14:50 | 48.40272 | 10.01901 | 126° | 11km/h | 27437m | 5.7m/s | -47°C | 3.4% | 18.5hPa | 2.6V | 08:30:00 | 01:45:19 | 00:00:00 | |
| DK7TD | 2026-09-04 00:14:50 | 48.40264 | 10.01913 | 136° | 7km/h | 27461m | 4.9m/s | -47.1°C | 0.5% | 18.4hPa | 2.5V | 18:12:15 | 01:45:23 | 00:00:00 | |
| SONDE2-11 | 2026-09-04 00:14:49 | 48.40268 | 10.01908 | 135° | 11km/h | 27449m | 6.2m/s | -47.1°C | 1.0% | 18.5hPa | 2.6V | 00:00:00 | 00:00:00 | 00:00:00 | |
| OE5DRO-10 | 2026-09-04 00:14:46 | 48.40272 | 10.01901 | 127° | 9km/h | 27438m | 5.7m/s | -47.0°C | 3.4% | 18.4hPa | 2.6V | 00:00:00 | 00:00:00 | 00:00:00 | |
| DJ8HS-15 | 2026-09-04 00:14:45 | 48.40273 | 10.01899 | 111° | 11km/h | 27432m | 6.2m/s | -47.0°C | 3.4% | 18.5hPa | 2.6V | 00:00:00 | 01:45:18 | 00:00:00 | |
| DL1ZP-14 | 2026-09-04 00:14:44 | 48.40273 | 10.01895 | 71° | 5km/h | 27421m | 5.0m/s | -47.1°C | 1.0% | 18.5hPa | 2.6V | 00:00:00 | 00:00:00 | 00:00:00 | |
| OE5DXL-15 | 2026-09-04 00:14:43 | 48.40273 | 10.01895 | 72° | 11km/h | 27421m | 4.9m/s | -47.0°C | 3.4% | 18.5hPa | 2.6V | 00:00:00 | 00:00:00 | 00:00:00 | |
| IW2NTF | 2026-09-04 00:14:42 | 48.40273 | 10.01889 | 103° | 9km/h | 27409m | 6.1m/s | -47.1°C | 3.4% | 18.6hPa | 2.6V | 08:30:00 | 01:45:14 | 00:00:00 | |
| BAUMI2-15 | 2026-09-04 00:14:42 | 48.40272 | 10.01892 | 83° | 9km/h | 27415m | 6.3m/s | -47.0°C | 3.4% | 18.5hPa | 2.6V | 00:00:00 | 01:45:15 | 00:00:00 | |
| DL8DAS-14 | 2026-09-04 00:14:41 | 48.40273 | 10.01886 | 116° | 9km/h | 27403m | 5.2m/s | -47.1°C | 1.0% | 18.6hPa | 2.6V | 00:00:00 | 00:00:00 | 00:00:00 | |
| DO3MHA-12 | 2026-09-04 00:14:40 | 48.40273 | 10.01886 | 117° | 11km/h | 27403m | 5.2m/s | -47.1°C | 3.4% | 18.5hPa | 2.6V | 00:00:00 | 01:45:13 | 00:00:00 | |
| DM0DOS-11 | 2026-09-04 00:14:39 | 48.40280 | 10.01879 | 164° | 9km/h | 27380m | 5.1m/s | -47.1°C | 3.4% | 18.6hPa | 2.6V | 08:30:00 | 01:45:09 | 00:00:00 | |
| DK7TD | 2026-09-04 00:14:39 | 48.40275 | 10.01883 | 132° | 9km/h | 27398m | 5.3m/s | -47.1°C | 0.5% | 18.6hPa | 2.6V | 18:12:15 | 01:45:12 | 00:00:00 | |
| AZAK | 2026-09-04 00:14:38 | 48.40276 | 10.01881 | 151° | 7km/h | 27392m | 6.6m/s | -47.1°C | 1.0% | 18.6hPa | 2.6V | 00:00:00 | 00:00:00 | 00:00:00 | |
| OE5MMP-10 | 2026-09-04 00:14:37 | 48.40278 | 10.01880 | 167° | 11km/h | 27386m | 5.5m/s | -47.1°C | 3.4% | 18.6hPa | 2.6V | 00:00:00 | 01:45:10 | 00:00:00 | |
| IW2NTF | 2026-09-04 00:14:36 | 48.40294 | 10.01866 | 146° | 11km/h | 27351m | 6m/s | -47°C | 3.3% | 18.7hPa | 2.6V | 08:30:00 | 01:45:04 | 00:00:00 | |
| DO9LL-15 | 2026-09-04 00:14:36 | 48.40280 | 10.01879 | 165° | 11km/h | 27380m | 5.0m/s | -47.1°C | 3.4% | 18.6hPa | 2.5V | 00:00:00 | 01:45:09 | 00:00:00 | |
| DK5PH-5 | 2026-09-04 00:14:35 | 48.40282 | 10.01878 | 156° | 11km/h | 27375m | 6.6m/s | -47.1°C | 3.4% | 18.6hPa | 2.5V | 00:00:00 | 01:45:08 | 00:00:00 | |
| DF3TZ-5 | 2026-09-04 00:14:33 | 48.40289 | 10.01872 | 142° | 15km/h | 27363m | 4.9m/s | -47.1°C | 1.0% | 18.7hPa | 2.6V | 00:00:00 | 00:00:00 | 00:00:00 | |
| BAUMI2-15 | 2026-09-04 00:14:32 | 48.40292 | 10.01869 | 144° | 11km/h | 27358m | 5.9m/s | -47.0°C | 3.4% | 18.7hPa | 2.6V | 00:00:00 | 01:45:05 | 08:30:00 | |
| DO3MHA-12 | 2026-09-04 00:14:30 | 48.40296 | 10.01864 | 150° | 11km/h | 27346m | 5.2m/s | -47.0°C | 3.3% | 18.7hPa | 2.6V | 00:00:00 | 01:45:03 | 00:00:00 | |
| DM0DOS-11 | 2026-09-04 00:14:29 | 48.40308 | 10.01848 | 129° | 11km/h | 27317m | 5.8m/s | -47.1°C | 3.3% | 18.8hPa | 2.6V | 08:30:00 | 01:44:58 | 00:00:00 | |
| DK7TD | 2026-09-04 00:14:28 | 48.40301 | 10.01859 | 141° | 13km/h | 27334m | 6.7m/s | -47°C | 0.5% | 18.8hPa | 2.5V | 18:12:15 | 01:45:01 | 00:00:00 | |
| OE5MMP-10 | 2026-09-04 00:14:27 | 48.40303 | 10.01856 | 136° | 11km/h | 27328m | 5.9m/s | -47.0°C | 3.3% | 18.7hPa | 2.6V | 00:00:00 | 01:45:00 | 00:00:00 | |
| DB0ND-19 | 2026-09-04 00:14:26 | 48.40306 | 10.01852 | 131° | 13km/h | 27323m | 5.0m/s | -47.1°C | 1.0% | 18.8hPa | 2.6V | 00:00:00 | 00:00:00 | 00:00:00 | |
| DJ8HS-15 | 2026-09-04 00:14:25 | 48.40308 | 10.01848 | 130° | 9km/h | 27317m | 5.7m/s | -47.0°C | 3.3% | 18.8hPa | 2.6V | 00:00:00 | 01:44:58 | 00:00:00 | |
| DF7PN | 2026-09-04 00:14:23 | 48.40310 | 10.01843 | 112° | 5km/h | 27305m | 5.5m/s | -47.1°C | 1.0% | 18.9hPa | 2.6V | 00:00:00 | 00:00:00 | 00:00:00 | |
| IW2NTF | 2026-09-04 00:14:22 | 48.40311 | 10.01838 | 94° | 9km/h | 27293m | 6.7m/s | -47.1°C | 3.3% | 18.9hPa | 2.6V | 08:30:00 | 01:44:54 | 00:00:00 | |
| DF2AP-13 | 2026-09-04 00:14:22 | 48.40311 | 10.01841 | 98° | 11km/h | 27300m | 5.4m/s | -47.1°C | 3.3% | 18.8hPa | 2.6V | 00:00:00 | 01:44:55 | 00:00:00 | |
| DO3MHA-12 | 2026-09-04 00:14:20 | 48.40311 | 10.01834 | 92° | 11km/h | 27288m | 5.7m/s | -47.1°C | 3.3% | 18.9hPa | 2.6V | 00:00:00 | 01:44:53 | 00:00:00 | |
| DM0DOS-11 | 2026-09-04 00:14:19 | 48.40309 | 10.01813 | 85° | 9km/h | 27259m | 5.5m/s | -47.3°C | 3.3% | 19hPa | 2.6V | 08:30:00 | 01:44:48 | 00:00:00 | |
| DK7TD | 2026-09-04 00:14:17 | 48.40310 | 10.01820 | 74° | 11km/h | 27270m | 6.2m/s | -47.2°C | 0.4% | 19hPa | 2.5V | 18:12:15 | 01:44:50 | 00:00:00 | |
| IW2NTF | 2026-09-04 00:14:17 | 48.40313 | 10.01797 | 128° | 9km/h | 27236m | 6.4m/s | -47.6°C | 3.3% | 19.1hPa | 2.6V | 08:30:00 | 01:44:44 | 00:00:00 | |
| DL8DAS-15 | 2026-09-04 00:14:14 | 48.40309 | 10.01813 | 87° | 9km/h | 27259m | 5.6m/s | -47.3°C | 0% | 0hPa | 2.5V | 00:00:00 | 00:00:00 | 00:00:00 | |
| DL1ZP-14 | 2026-09-04 00:14:13 | 48.40311 | 10.01800 | 119° | 11km/h | 27242m | 5.3m/s | -47.6°C | 1.0% | 19.0hPa | 2.5V | 00:00:00 | 00:00:00 | 00:00:00 | |
| BAUMI2-15 | 2026-09-04 00:14:12 | 48.40311 | 10.01800 | 120° | 7km/h | 27242m | 5.2m/s | -47.5°C | 3.4% | 19.0hPa | 2.5V | 00:00:00 | 01:44:45 | 00:00:00 | |
| DL8DAS-14 | 2026-09-04 00:14:10 | 48.40314 | 10.01794 | 127° | 2km/h | 27224m | 5.1m/s | -47.6°C | 1.0% | 19.1hPa | 2.5V | 00:00:00 | 00:00:00 | 00:00:00 | |
| DM0DOS-11 | 2026-09-04 00:14:09 | 48.40313 | 10.01782 | 56° | 15km/h | 27201m | 5.3m/s | -47.7°C | 3.4% | 19.1hPa | 2.5V | 08:30:00 | 01:44:38 | 00:00:00 | |
| DK7TD | 2026-09-04 00:14:07 | 48.40314 | 10.01787 | 70° | 13km/h | 27206m | 5.2m/s | -47.7°C | 0.5% | 19.1hPa | 2.6V | 18:12:15 | 01:44:39 | 00:00:00 | |
| DL6DJ-15 | 2026-09-04 00:14:05 | 48.40310 | 10.01778 | 46° | 16km/h | 27195m | 6.6m/s | -47.8°C | 1.0% | 19.2hPa | 2.6V | 00:00:00 | 00:00:00 | 00:00:00 | |
| SONCRA | 2026-09-04 00:14:04 | 48.40310 | 10.01778 | 46° | 16km/h | 27195m | 6.6m/s | -47.8°C | 1.0% | 19.2hPa | 2.6V | 00:00:00 | 00:00:00 | 00:00:00 | |
| DL8DAS-15 | 2026-09-04 00:14:03 | 48.40310 | 10.01777 | 48° | 16km/h | 27196m | 6.6m/s | 0°C | 0% | 0hPa | 2.6V | 00:00:00 | 00:00:00 | 00:00:00 | |
| IW2NTF | 2026-09-04 00:14:02 | 48.40299 | 10.01765 | 41° | 18km/h | 27178m | 5.5m/s | -47.8°C | 3.4% | 19.2hPa | 2.6V | 08:30:00 | 01:44:34 | 00:00:00 | |
| DO3MHA-12 | 2026-09-04 00:14:00 | 48.40295 | 10.01760 | 52° | 11km/h | 27173m | 6.6m/s | -47.8°C | 3.4% | 19.2hPa | 2.6V | 00:00:00 | 01:44:33 | 00:00:00 | |
| OE9MKV-15 | 2026-09-04 00:13:59 | 48.40293 | 10.01754 | 62° | 11km/h | 27167m | 5.4m/s | -47.9°C | 3.4% | 19.2hPa | 2.5V | 00:00:00 | 01:44:32 | 00:00:00 | |
| DM0DOS-11 | 2026-09-04 00:13:58 | 48.40285 | 10.01741 | 22° | 9km/h | 27143m | 5.7m/s | -48°C | 3.5% | 19.3hPa | 2.6V | 08:30:00 | 01:44:28 | 00:00:00 | |
| BAUMI2-15 | 2026-09-04 00:13:57 | 48.40290 | 10.01745 | 51° | 9km/h | 27155m | 6.5m/s | -47.9°C | 3.5% | 19.3hPa | 2.6V | 00:00:00 | 01:44:30 | 00:00:00 | |
| IW2NTF | 2026-09-04 00:13:56 | 48.40279 | 10.01737 | 5° | 9km/h | 27120m | 5m/s | -48.1°C | 3.4% | 19.4hPa | 2.6V | 08:30:00 | 01:44:24 | 00:00:00 | |
| DK7TD | 2026-09-04 00:13:56 | 48.40288 | 10.01742 | 34° | 9km/h | 27149m | 5.9m/s | -48°C | 0.5% | 19.3hPa | 2.6V | 18:12:15 | 01:44:29 | 00:00:00 | |
| DB0ND-19 | 2026-09-04 00:13:55 | 48.40286 | 10.01741 | 22° | 7km/h | 27143m | 5.7m/s | -48.0°C | 1.0% | 19.3hPa | 2.6V | 00:00:00 | 00:00:00 | 00:00:00 | |
| DF2AP-13 | 2026-09-04 00:13:52 | 48.40281 | 10.01738 | 19° | 9km/h | 27126m | 4.8m/s | -48.1°C | 3.5% | 19.3hPa | 2.6V | 00:00:00 | 01:44:25 | 00:00:00 | |
| DO3MHA-12 | 2026-09-04 00:13:50 | 48.40276 | 10.01737 | 358° | 15km/h | 27115m | 6.6m/s | -48.1°C | 3.5% | 19.4hPa | 2.6V | 00:00:00 | 01:44:23 | 00:00:00 | |
| DM0DOS-11 | 2026-09-04 00:13:48 | 48.40256 | 10.01734 | 40° | 13km/h | 27086m | 5.6m/s | -48.1°C | 3.4% | 19.5hPa | 2.6V | 08:30:00 | 01:44:18 | 00:00:00 | |
| DK7TD | 2026-09-04 00:13:46 | 48.40259 | 10.01737 | 19° | 15km/h | 27092m | 6.5m/s | -48.1°C | 0.5% | 19.5hPa | 2.6V | 18:12:15 | 01:44:19 | 00:00:00 | |
| DJ8HS-15 | 2026-09-04 00:13:45 | 48.40256 | 10.01734 | 41° | 7km/h | 27086m | 5.5m/s | -48.1°C | 3.4% | 19.4hPa | 2.6V | 00:00:00 | 01:44:18 | 00:00:00 | |
| DB0UT-7 | 2026-09-04 00:13:43 | 48.40252 | 10.01727 | 52° | 7km/h | 27076m | 5.4m/s | -48.0°C | 3.5% | 19.5hPa | 2.6V | 00:00:00 | 01:44:16 | 00:00:00 | |
| DF1GD-15 | 2026-09-04 00:13:41 | 48.40250 | 10.01724 | 39° | 11km/h | 27070m | 6.2m/s | -48.1°C | 1.0% | 19.5hPa | 2.6V | 00:00:00 | 00:00:00 | 00:00:00 | |
| DO3MHA-12 | 2026-09-04 00:13:40 | 48.40245 | 10.01722 | 3° | 7km/h | 27059m | 5.2m/s | -48.0°C | 3.4% | 19.6hPa | 2.6V | 00:00:00 | 01:44:13 | 00:00:00 | |
| DM0DOS-11 | 2026-09-04 00:13:39 | 48.40238 | 10.01726 | 301° | 7km/h | 27031m | 5.7m/s | -48.1°C | 3.5% | 19.7hPa | 2.6V | 08:30:00 | 01:44:08 | 00:00:00 | |
| DK7TD | 2026-09-04 00:13:36 | 48.40239 | 10.01724 | 302° | 4km/h | 27036m | 5.1m/s | -48.1°C | 0.5% | 19.6hPa | 2.6V | 18:12:15 | 01:44:09 | 00:00:00 | |
| DO9LL-15 | 2026-09-04 00:13:36 | 48.40238 | 10.01724 | 303° | 7km/h | 27036m | 5.0m/s | -48.1°C | 3.5% | 19.6hPa | 2.6V | 00:00:00 | 01:44:09 | 00:00:00 | |
| IW2NTF | 2026-09-04 00:13:35 | 48.40232 | 10.01734 | 330° | 4km/h | 27008m | 6.5m/s | -48.1°C | 3.5% | 19.7hPa | 2.5V | 08:30:00 | 01:44:04 | 00:00:00 | |
| DL6DJ-15 | 2026-09-04 00:13:35 | 48.40235 | 10.01731 | 316° | 9km/h | 27019m | 5.3m/s | -48.2°C | 1.0% | 19.7hPa | 2.6V | 00:00:00 | 00:00:00 | 00:00:00 | |
| SONCRA | 2026-09-04 00:13:34 | 48.40235 | 10.01731 | 316° | 9km/h | 27019m | 5.3m/s | -48.2°C | 1.0% | 19.7hPa | 2.6V | 00:00:00 | 00:00:00 | 00:00:00 | |
| DF3TZ-5 | 2026-09-04 00:13:31 | 48.40233 | 10.01734 | 330° | 2km/h | 27009m | 6.5m/s | -48.2°C | 1.0% | 19.7hPa | 2.6V | 00:00:00 | 00:00:00 | 00:00:00 | |
| DO3MHA-12 | 2026-09-04 00:13:30 | 48.40232 | 10.01734 | 108° | 5km/h | 27002m | 6.4m/s | -48.1°C | 3.5% | 19.7hPa | 2.6V | 00:00:00 | 01:44:03 | 08:30:00 | |
| OE5DRO-10 | 2026-09-04 00:13:29 | 48.40232 | 10.01732 | 108° | 7km/h | 26996m | 5.2m/s | -48.1°C | 3.5% | 19.7hPa | 2.5V | 00:00:00 | 00:00:00 | 00:00:00 | |
| DM0DOS-11 | 2026-09-04 00:13:28 | 48.40231 | 10.01721 | 77° | 9km/h | 26973m | 6m/s | -48.3°C | 3.5% | 19.9hPa | 2.5V | 08:30:00 | 01:43:58 | 00:00:00 | |
| DL1XH-west | 2026-09-04 00:13:28 | 48.40233 | 10.01730 | 95° | 7km/h | 26990m | 6.4m/s | 0°C | 0% | 0hPa | 2.6V | 18:12:15 | 01:44:01 | 00:00:00 | |
| DK7TD | 2026-09-04 00:13:25 | 48.40231 | 10.01721 | 78° | 9km/h | 26973m | 6m/s | -48.3°C | 0.6% | 19.9hPa | 2.5V | 18:12:15 | 01:43:58 | 00:00:00 | |
| DJ8HS-15 | 2026-09-04 00:13:25 | 48.40231 | 10.01721 | 78° | 7km/h | 26973m | 5.9m/s | -48.3°C | 3.5% | 19.8hPa | 2.5V | 00:00:00 | 01:43:58 | 08:30:00 | |
| IW2NTF | 2026-09-04 00:13:22 | 48.40230 | 10.01714 | 323° | 5km/h | 26949m | 6.6m/s | -48.4°C | 3.5% | 19.9hPa | 2.6V | 08:30:00 | 01:43:54 | 00:00:00 | |
| DF2AP-13 | 2026-09-04 00:13:22 | 48.40231 | 10.01714 | 34° | 7km/h | 26956m | 5.9m/s | -48.4°C | 3.5% | 19.9hPa | 2.6V | 00:00:00 | 01:43:55 | 00:00:00 | |
| DF7PN | 2026-09-04 00:13:21 | 48.40230 | 10.01714 | 323° | 4km/h | 26950m | 6.6m/s | -48.4°C | 1.0% | 19.9hPa | 2.6V | 00:00:00 | 00:00:00 | 00:00:00 | |
| DO3MHA-12 | 2026-09-04 00:13:20 | 48.40229 | 10.01716 | 306° | 7km/h | 26943m | 5.3m/s | -48.4°C | 3.5% | 19.9hPa | 2.6V | 00:00:00 | 01:43:53 | 00:00:00 | |
| DM0DOS-11 | 2026-09-04 00:13:18 | 48.40232 | 10.01722 | 153° | 5km/h | 26916m | 5.5m/s | -48.5°C | 3.4% | 20hPa | 2.6V | 08:30:00 | 01:43:48 | 00:00:00 | |
| IW2NTF | 2026-09-04 00:13:17 | 48.40231 | 10.01713 | 76° | 9km/h | 26893m | 6.3m/s | -48.7°C | 3.6% | 20.1hPa | 2.6V | 08:30:00 | 01:43:44 | 00:00:00 | |
| DK7TD | 2026-09-04 00:13:14 | 48.40233 | 10.01721 | 108° | 5km/h | 26910m | 6.4m/s | -48.5°C | 0.5% | 20.1hPa | 2.6V | 18:12:15 | 01:43:47 | 00:00:00 | |
| DB0UT-7 | 2026-09-04 00:13:13 | 48.40232 | 10.01719 | 74° | 9km/h | 26904m | 5.3m/s | -48.5°C | 3.5% | 20.0hPa | 2.6V | 00:00:00 | 00:00:00 | 08:30:00 | |
| DL1ZP-14 | 2026-09-04 00:13:11 | 48.40231 | 10.01709 | 76° | 7km/h | 26888m | 5.2m/s | -48.7°C | 1.0% | 20.1hPa | 2.6V | 00:00:00 | 00:00:00 | 00:00:00 | |
| DO3MHA-12 | 2026-09-04 00:13:10 | 48.40231 | 10.01709 | 77° | 9km/h | 26888m | 5.2m/s | -48.7°C | 3.5% | 20.1hPa | 2.6V | 00:00:00 | 01:43:43 | 00:00:00 | |
| DM0DOS-11 | 2026-09-04 00:13:08 | 48.40224 | 10.01715 | 296° | 15km/h | 26861m | 4.7m/s | -48.8°C | 3.5% | 20.2hPa | 2.6V | 08:30:00 | 01:43:38 | 00:00:00 | |
| DK7TD | 2026-09-04 00:13:03 | 48.40223 | 10.01724 | 254° | 11km/h | 26849m | 6.2m/s | -48.9°C | 0.6% | 20.2hPa | 2.5V | 18:12:15 | 01:43:36 | 00:00:00 | |
| IW2NTF | 2026-09-04 00:13:03 | 48.40226 | 10.01730 | 212° | 9km/h | 26839m | 5m/s | -48.9°C | 3.6% | 20.2hPa | 2.6V | 08:30:00 | 01:43:34 | 00:00:00 | |
| DL6DJ-15 | 2026-09-04 00:13:02 | 48.40224 | 10.01728 | 229° | 9km/h | 26844m | 5.1m/s | -48.9°C | 1.0% | 20.2hPa | 2.6V | 00:00:00 | 00:00:00 | 00:00:00 | |
| DO3MHA-12 | 2026-09-04 00:13:00 | 48.40227 | 10.01731 | 208° | 5km/h | 26834m | 5.4m/s | -48.9°C | 3.7% | 20.2hPa | 2.6V | 00:00:00 | 01:43:33 | 00:00:00 | |
| OE9MKV-15 | 2026-09-04 00:12:59 | 48.40228 | 10.01732 | 261° | 9km/h | 26828m | 5.5m/s | -48.9°C | 3.6% | 20.3hPa | 2.5V | 00:00:00 | 01:43:32 | 00:00:00 | |
| DM0DOS-11 | 2026-09-04 00:12:58 | 48.40223 | 10.01737 | 322° | 5km/h | 26807m | 4.8m/s | -48.9°C | 3.6% | 20.4hPa | 2.5V | 08:30:00 | 01:43:28 | 00:00:00 | |
| IW2NTF | 2026-09-04 00:12:57 | 48.40217 | 10.01737 | 9° | 9km/h | 26786m | 5m/s | -48.9°C | 3.6% | 20.4hPa | 2.6V | 08:30:00 | 01:43:24 | 00:00:00 | |
| DK7TD | 2026-09-04 00:12:53 | 48.40221 | 10.01738 | 3° | 5km/h | 26797m | 5.6m/s | -48.9°C | 0.7% | 20.4hPa | 2.6V | 18:12:15 | 01:43:26 | 00:00:00 | |
| DO3MHA-12 | 2026-09-04 00:12:50 | 48.40214 | 10.01737 | 354° | 11km/h | 26782m | 4.3m/s | -48.9°C | 3.6% | 20.4hPa | 2.5V | 00:00:00 | 01:43:23 | 00:00:00 | |
| DM0DOS-11 | 2026-09-04 00:12:48 | 48.40208 | 10.01755 | 280° | 9km/h | 26755m | 5.3m/s | -49.2°C | 3.6% | 20.5hPa | 2.5V | 08:30:00 | 01:43:18 | 00:00:00 | |
| DB0NH | 2026-09-04 00:12:47 | 48.40209 | 10.01746 | 283° | 9km/h | 26765m | 5.4m/s | -49.1°C | 3.6% | 20.5hPa | 2.6V | 00:00:00 | 01:43:20 | 00:00:00 | |
| DM7RM-13 | 2026-09-04 00:12:45 | 48.40208 | 10.01751 | 275° | 13km/h | 26760m | 4.7m/s | -49.1°C | 1.1% | 20.5hPa | 2.6V | 00:00:00 | 00:00:00 | 00:00:00 | |
| IW2NTF | 2026-09-04 00:12:44 | 48.40205 | 10.01749 | 77° | 13km/h | 26732m | 6.1m/s | -49.3°C | 3.6% | 20.6hPa | 2.6V | 08:30:00 | 01:43:14 | 00:00:00 | |
| DK7TD | 2026-09-04 00:12:43 | 48.40207 | 10.01756 | 56° | 5km/h | 26743m | 5.6m/s | -49.2°C | 0.6% | 20.6hPa | 2.6V | 18:12:15 | 01:43:16 | 00:00:00 | |
| DB0UT-7 | 2026-09-04 00:12:43 | 48.40207 | 10.01756 | 56° | 9km/h | 26743m | 5.5m/s | -49.2°C | 3.6% | 20.5hPa | 2.6V | 00:00:00 | 01:43:16 | 00:00:00 | |
| DO3MHA-12 | 2026-09-04 00:12:40 | 48.40205 | 10.01744 | 78° | 11km/h | 26726m | 5.1m/s | -49.3°C | 3.7% | 20.6hPa | 2.6V | 00:00:00 | 01:43:13 | 00:00:00 | |
| DF1GD-15 | 2026-09-04 00:12:39 | 48.40205 | 10.01744 | 78° | 13km/h | 26726m | 5.2m/s | -49.3°C | 1.1% | 20.6hPa | 2.6V | 00:00:00 | 00:00:00 | 00:00:00 | |
| DL8DAS-14 | 2026-09-04 00:12:37 | 48.40197 | 10.01730 | 14° | 11km/h | 26704m | 4.9m/s | -49.4°C | 1.0% | 20.7hPa | 2.6V | 00:00:00 | 00:00:00 | 00:00:00 | |
| DK5PH-5 | 2026-09-04 00:12:35 | 48.40194 | 10.01729 | 348° | 7km/h | 26699m | 5.3m/s | -49.3°C | 3.6% | 20.6hPa | 2.6V | 00:00:00 | 01:43:08 | 00:00:00 | |
| DM0DOS-11 | 2026-09-04 00:12:33 | 48.40189 | 10.01741 | 95° | 9km/h | 26661m | 5m/s | -49.4°C | 3.7% | 20.8hPa | 2.6V | 08:30:00 | 01:43:01 | 00:00:00 | |
| NBG1-10 | 2026-09-04 00:12:33 | 48.40190 | 10.01735 | 285° | 5km/h | 26688m | 4.8m/s | -49.3°C | 3.7% | 20.7hPa | 2.5V | 00:00:00 | 01:43:06 | 08:30:00 | |
| IW2NTF | 2026-09-04 00:12:32 | 48.40190 | 10.01742 | 276° | 7km/h | 26678m | 5.9m/s | -49.4°C | 3.7% | 20.8hPa | 2.6V | 08:30:00 | 01:43:04 | 00:00:00 | |
| DK7TD | 2026-09-04 00:12:32 | 48.40190 | 10.01739 | 273° | 11km/h | 26683m | 4.4m/s | -49.4°C | 0.7% | 20.7hPa | 2.5V | 18:12:15 | 01:43:05 | 00:00:00 | |
| DL6DJ-15 | 2026-09-04 00:12:32 | 48.40190 | 10.01742 | 276° | 5km/h | 26678m | 5.9m/s | -49.4°C | 1.1% | 20.8hPa | 2.6V | 00:00:00 | 00:00:00 | 00:00:00 | |
| DO3MHA-12 | 2026-09-04 00:12:30 | 48.40190 | 10.01743 | 298° | 7km/h | 26672m | 5.6m/s | -49.3°C | 3.7% | 20.7hPa | 2.6V | 00:00:00 | 01:43:03 | 00:00:00 | |
| OE9MKV-15 | 2026-09-04 00:12:29 | 48.40189 | 10.01743 | 84° | 5km/h | 26667m | 5.1m/s | -49.3°C | 3.6% | 20.8hPa | 2.7V | 00:00:00 | 01:43:02 | 00:00:00 | |
| IW2NTF | 2026-09-04 00:12:27 | 48.40192 | 10.01724 | 21° | 9km/h | 26624m | 5.1m/s | -49.5°C | 3.7% | 20.9hPa | 2.6V | 08:30:00 | 01:42:54 | 00:00:00 | |
| DK7TD | 2026-09-04 00:12:22 | 48.40194 | 10.01726 | 41° | 5km/h | 26630m | 6m/s | -49.5°C | 0.7% | 20.9hPa | 2.5V | 18:12:15 | 01:42:55 | 00:00:00 | |
| DB0ND-19 | 2026-09-04 00:12:22 | 48.40190 | 10.01723 | 12° | 7km/h | 26620m | 4.4m/s | -49.6°C | 1.1% | 20.9hPa | 2.5V | 00:00:00 | 00:00:00 | 00:00:00 | |
| DO3MHA-12 | 2026-09-04 00:12:20 | 48.40190 | 10.01723 | 13° | 5km/h | 26620m | 4.3m/s | -49.5°C | 3.7% | 20.9hPa | 2.5V | 00:00:00 | 01:42:53 | 00:00:00 | |
| DF1GD-15 | 2026-09-04 00:12:18 | 48.40188 | 10.01723 | 358° | 7km/h | 26615m | 5.2m/s | -49.6°C | 1.1% | 21.0hPa | 2.5V | 00:00:00 | 00:00:00 | 00:00:00 | |
| DB0NH | 2026-09-04 00:12:17 | 48.40187 | 10.01725 | 257° | 7km/h | 26604m | 5.2m/s | -49.5°C | 3.7% | 21.0hPa | 2.5V | 00:00:00 | 01:42:50 | 00:00:00 | |
| OE5MMP-10 | 2026-09-04 00:12:15 | 48.40188 | 10.01729 | 219° | 5km/h | 26593m | 5.4m/s | -49.6°C | 3.7% | 21.0hPa | 2.5V | 00:00:00 | 01:42:48 | 00:00:00 | |
| DM0DOS-11 | 2026-09-04 00:12:14 | 48.40192 | 10.01720 | 132° | 7km/h | 26560m | 4.8m/s | -49.7°C | 3.8% | 21.1hPa | 2.5V | 08:30:00 | 01:42:42 | 00:00:00 | |
| DK7TD | 2026-09-04 00:12:11 | 48.40190 | 10.01724 | 108° | 5km/h | 26572m | 6.2m/s | -49.7°C | 0.7% | 21.1hPa | 2.6V | 18:12:15 | 01:42:44 | 00:00:00 | |
| DO3MHA-12 | 2026-09-04 00:12:10 | 48.40190 | 10.01722 | 126° | 5km/h | 26566m | 5.7m/s | -49.6°C | 3.7% | 21.1hPa | 2.6V | 00:00:00 | 01:42:43 | 00:00:00 | |
| DL1ZP-14 | 2026-09-04 00:12:09 | 48.40193 | 10.01718 | 120° | 5km/h | 26556m | 4.7m/s | -49.7°C | 1.1% | 21.1hPa | 2.6V | 00:00:00 | 00:00:00 | 00:00:00 | |
| DO3MHA-11 | 2026-09-04 00:12:07 | 48.40193 | 10.01716 | 90° | 5km/h | 26551m | 5.8m/s | -49.6°C | 3.7% | 21.1hPa | 2.5V | 00:00:00 | 01:42:40 | 00:00:00 | |
| DL8DAS-14 | 2026-09-04 00:12:06 | 48.40191 | 10.01712 | 36° | 5km/h | 26539m | 4.7m/s | -49.7°C | 1.1% | 21.2hPa | 2.5V | 00:00:00 | 00:00:00 | 00:00:00 | |
| IW2NTF | 2026-09-04 00:12:05 | 48.40195 | 10.01712 | 155° | 7km/h | 26508m | 5.6m/s | -49.8°C | 3.7% | 21.3hPa | 2.5V | 08:30:00 | 01:42:32 | 00:00:00 | |
| DK7TD | 2026-09-04 00:12:01 | 48.40191 | 10.01712 | 199° | 7km/h | 26519m | 4.3m/s | -49.8°C | 0.7% | 21.3hPa | 2.6V | 18:12:15 | 01:42:34 | 00:00:00 | |
| DO3MHA-12 | 2026-09-04 00:12:01 | 48.40193 | 10.01713 | 183° | 11km/h | 26514m | 5.8m/s | -49.8°C | 3.7% | 21.2hPa | 2.6V | 00:00:00 | 01:42:33 | 08:30:00 | |
| OE9MKV-15 | 2026-09-04 00:11:59 | 48.40195 | 10.01712 | 156° | 9km/h | 26508m | 5.5m/s | -49.8°C | 3.7% | 21.3hPa | 2.7V | 00:00:00 | 01:42:32 | 00:00:00 | |
| DM0DOS-11 | 2026-09-04 00:11:58 | 48.40203 | 10.01700 | 128° | 13km/h | 26486m | 4.7m/s | -49.8°C | 3.7% | 21.4hPa | 2.7V | 08:30:00 | 01:42:28 | 00:00:00 | |
| BIOWL1-15 | 2026-09-04 00:11:57 | 48.40203 | 10.01700 | 129° | 13km/h | 26486m | 4.7m/s | 0°C | 0% | 0hPa | 2.7V | 18:12:15 | 01:42:28 | 00:00:00 | |
| DJ2DS-15 | 2026-09-04 00:11:57 | 48.40199 | 10.01707 | 132° | 11km/h | 26497m | 5.3m/s | -49.8°C | 3.7% | 21.3hPa | 2.6V | 00:00:00 | 01:42:30 | 08:30:00 | |
| DO9LL-15 | 2026-09-04 00:11:56 | 48.40201 | 10.01703 | 134° | 9km/h | 26492m | 6.1m/s | -49.7°C | 3.7% | 21.4hPa | 2.7V | 00:00:00 | 01:42:29 | 00:00:00 | |
| OE5MMP-10 | 2026-09-04 00:11:55 | 48.40203 | 10.01700 | 129° | 9km/h | 26486m | 4.7m/s | -49.7°C | 3.7% | 21.3hPa | 2.7V | 00:00:00 | 01:42:28 | 00:00:00 | |
| IW2NTF | 2026-09-04 00:11:52 | 48.40199 | 10.01682 | 357° | 4km/h | 26456m | 5.2m/s | -49.9°C | 3.7% | 21.5hPa | 2.6V | 08:30:00 | 01:42:22 | 00:00:00 | |
| DK7TD | 2026-09-04 00:11:51 | 48.40203 | 10.01685 | 36° | 11km/h | 26465m | 4.1m/s | -49.9°C | 0.7% | 21.5hPa | 2.5V | 18:12:15 | 01:42:24 | 00:00:00 | |
| BIOWL1-15 | 2026-09-04 00:11:49 | 48.40200 | 10.01683 | 185° | 7km/h | 26446m | 4.6m/s | 0°C | 0% | 0hPa | 2.6V | 18:12:15 | 01:42:20 | 00:00:00 | |
| DF7PN | 2026-09-04 00:11:48 | 48.40200 | 10.01683 | 184° | 5km/h | 26446m | 4.6m/s | -50.0°C | 1.1% | 21.5hPa | 2.6V | 00:00:00 | 00:00:00 | 00:00:00 | |
| DB0NH | 2026-09-04 00:11:47 | 48.40200 | 10.01683 | 185° | 7km/h | 26446m | 4.6m/s | -49.9°C | 3.7% | 21.5hPa | 2.6V | 00:00:00 | 01:42:20 | 00:00:00 | |
| DM0DOS-11 | 2026-09-04 00:11:46 | 48.40205 | 10.01681 | 143° | 13km/h | 26436m | 5.8m/s | -50°C | 3.7% | 21.6hPa | 2.6V | 08:30:00 | 01:42:18 | 00:00:00 | |
| OE5MMP-10 | 2026-09-04 00:11:45 | 48.40204 | 10.01681 | 144° | 9km/h | 26436m | 5.8m/s | -49.9°C | 3.7% | 21.5hPa | 2.6V | 00:00:00 | 01:42:18 | 00:00:00 | |
| OE5DRO-10 | 2026-09-04 00:11:44 | 48.40207 | 10.01677 | 133° | 7km/h | 26430m | 4.6m/s | -50.0°C | 3.7% | 21.5hPa | 2.6V | 00:00:00 | 00:00:00 | 00:00:00 | |
| DB0UT-7 | 2026-09-04 00:11:43 | 48.40209 | 10.01673 | 129° | 7km/h | 26426m | 5.4m/s | -50.0°C | 3.7% | 21.5hPa | 2.6V | 00:00:00 | 01:42:16 | 00:00:00 | |
| BAUMI2-15 | 2026-09-04 00:11:42 | 48.40211 | 10.01670 | 130° | 7km/h | 26420m | 5.9m/s | -50.1°C | 3.8% | 21.6hPa | 2.6V | 00:00:00 | 01:42:15 | 00:00:00 | |
| IW2NTF | 2026-09-04 00:11:40 | 48.40213 | 10.01662 | 85° | 7km/h | 26403m | 6m/s | -50.3°C | 3.8% | 21.7hPa | 2.6V | 08:30:00 | 01:42:12 | 00:00:00 | |
| DK7TD | 2026-09-04 00:11:40 | 48.40213 | 10.01665 | 98° | 7km/h | 26409m | 5.3m/s | -50.3°C | 0.8% | 21.7hPa | 2.6V | 18:12:15 | 01:42:13 | 00:00:00 | |
| BIOWL1-15 | 2026-09-04 00:11:36 | 48.40216 | 10.01663 | 230° | 13km/h | 26378m | 4.9m/s | 0°C | 0% | 0hPa | 2.5V | 18:12:15 | 01:42:07 | 00:00:00 | |
| IW2NTF | 2026-09-04 00:11:35 | 48.40225 | 10.01667 | 109° | 5km/h | 26353m | 5.1m/s | -50.5°C | 3.9% | 21.8hPa | 2.6V | 08:30:00 | 01:42:02 | 00:00:00 | |
| DK7TD | 2026-09-04 00:11:30 | 48.40224 | 10.01669 | 136° | 7km/h | 26358m | 4.5m/s | -50.4°C | 0.8% | 21.8hPa | 2.6V | 18:12:15 | 01:42:03 | 00:00:00 | |
| DO3MHA-12 | 2026-09-04 00:11:30 | 48.40224 | 10.01669 | 137° | 5km/h | 26358m | 4.5m/s | -50.4°C | 3.9% | 21.8hPa | 2.6V | 00:00:00 | 01:42:03 | 00:00:00 | |
| DM0DOS-11 | 2026-09-04 00:11:29 | 48.40225 | 10.01660 | 102° | 5km/h | 26331m | 5.3m/s | -50.5°C | 3.8% | 21.9hPa | 2.6V | 08:30:00 | 01:41:58 | 00:00:00 | |
| NBG1-10 | 2026-09-04 00:11:27 | 48.40225 | 10.01663 | 82° | 7km/h | 26342m | 5.3m/s | -50.5°C | 3.9% | 21.8hPa | 2.6V | 00:00:00 | 01:42:00 | 00:00:00 | |
| DO9LL-15 | 2026-09-04 00:11:26 | 48.40225 | 10.01662 | 86° | 7km/h | 26337m | 5.0m/s | -50.4°C | 3.9% | 21.9hPa | 2.6V | 00:00:00 | 01:41:59 | 08:30:00 | |
| OE5MMP-10 | 2026-09-04 00:11:25 | 48.40225 | 10.01660 | 103° | 5km/h | 26332m | 5.2m/s | -50.4°C | 3.8% | 21.9hPa | 2.6V | 00:00:00 | 01:41:58 | 00:00:00 | |
| BAUMI2-15 | 2026-09-04 00:11:22 | 48.40228 | 10.01655 | 160° | 5km/h | 26316m | 4.8m/s | -50.4°C | 3.9% | 21.9hPa | 2.7V | 00:00:00 | 01:41:55 | 00:00:00 | |
| IW2NTF | 2026-09-04 00:11:21 | 48.40231 | 10.01659 | 246° | 7km/h | 26298m | 5.2m/s | -50.4°C | 3.8% | 22hPa | 2.7V | 08:30:00 | 01:41:52 | 00:00:00 | |
| DK7TD | 2026-09-04 00:11:19 | 48.40231 | 10.01659 | 246° | 7km/h | 26298m | 5.2m/s | -50.4°C | 0.8% | 22hPa | 2.7V | 18:12:15 | 01:41:52 | 00:00:00 | |
| DM0DOS-11 | 2026-09-04 00:11:18 | 48.40234 | 10.01665 | 270° | 2km/h | 26277m | 5.1m/s | -50.5°C | 3.9% | 22.1hPa | 2.5V | 08:30:00 | 01:41:48 | 00:00:00 | |
| DF7PN | 2026-09-04 00:11:17 | 48.40233 | 10.01664 | 217° | 2km/h | 26282m | 4.8m/s | -50.4°C | 1.1% | 22.1hPa | 2.6V | 00:00:00 | 00:00:00 | 00:00:00 | |
| OE5MMP-10 | 2026-09-04 00:11:15 | 48.40233 | 10.01665 | 271° | 5km/h | 26277m | 5.0m/s | -50.4°C | 3.9% | 22.0hPa | 2.6V | 00:00:00 | 01:41:48 | 00:00:00 | |
| OE5DXL-15 | 2026-09-04 00:11:13 | 48.40232 | 10.01668 | 304° | 11km/h | 26266m | 5.3m/s | -50.4°C | 3.9% | 22.1hPa | 2.6V | 00:00:00 | 00:00:00 | 00:00:00 | |
| SONDE2-11 | 2026-09-04 00:11:12 | 48.40230 | 10.01671 | 327° | 4km/h | 26255m | 5.8m/s | -50.4°C | 1.2% | 22.2hPa | 2.6V | 00:00:00 | 00:00:00 | 00:00:00 | |
| IW2NTF | 2026-09-04 00:11:10 | 48.40229 | 10.01671 | 11° | 4km/h | 26244m | 4.6m/s | -50.5°C | 3.9% | 22.2hPa | 2.6V | 08:30:00 | 01:41:42 | 00:00:00 | |
| DK7TD | 2026-09-04 00:11:08 | 48.40228 | 10.01672 | 331° | 4km/h | 26239m | 5.2m/s | -50.5°C | 0.8% | 22.2hPa | 2.6V | 18:12:15 | 01:41:41 | 00:00:00 | |
| DM0DOS-11 | 2026-09-04 00:11:08 | 48.40226 | 10.01680 | 265° | 11km/h | 26223m | 4.8m/s | -50.5°C | 3.9% | 22.3hPa | 2.5V | 08:30:00 | 01:41:38 | 00:00:00 | |
| DO3MHA-11 | 2026-09-04 00:11:07 | 48.40227 | 10.01673 | 299° | 13km/h | 26234m | 5.9m/s | -50.4°C | 3.9% | 22.2hPa | 2.6V | 00:00:00 | 01:41:40 | 00:00:00 | |
| DL1ZP-14 | 2026-09-04 00:11:06 | 48.40227 | 10.01676 | 280° | 9km/h | 26228m | 5.0m/s | -50.5°C | 1.1% | 22.3hPa | 2.6V | 00:00:00 | 00:00:00 | 00:00:00 | |
| DK5PH-5 | 2026-09-04 00:11:05 | 48.40226 | 10.01680 | 266° | 13km/h | 26224m | 4.7m/s | -50.4°C | 3.9% | 22.2hPa | 2.6V | 00:00:00 | 01:41:38 | 00:00:00 | |
| IW2NTF | 2026-09-04 00:11:04 | 48.40232 | 10.01710 | 279° | 15km/h | 26191m | 4.5m/s | -50.4°C | 3.9% | 22.4hPa | 2.6V | 08:30:00 | 01:41:32 | 00:00:00 | |
| DL8DAS-14 | 2026-09-04 00:11:04 | 48.40228 | 10.01689 | 241° | 13km/h | 26212m | 5.1m/s | -50.4°C | 1.1% | 22.3hPa | 2.6V | 00:00:00 | 00:00:00 | 00:00:00 | |
| BAUMI2-15 | 2026-09-04 00:11:02 | 48.40230 | 10.01694 | 244° | 13km/h | 26208m | 4.7m/s | -50.4°C | 3.9% | 22.3hPa | 2.6V | 00:00:00 | 01:41:35 | 08:30:00 | |
| DM7RM-13 | 2026-09-04 00:11:01 | 48.40230 | 10.01694 | 245° | 15km/h | 26208m | 4.7m/s | -50.4°C | 1.2% | 22.3hPa | 2.6V | 00:00:00 | 00:00:00 | 00:00:00 | |
| DO3MHA-12 | 2026-09-04 00:11:00 | 48.40232 | 10.01704 | 267° | 9km/h | 26197m | 5.5m/s | -50.3°C | 3.9% | 22.3hPa | 2.6V | 00:00:00 | 01:41:33 | 00:00:00 | |
| DM0DOS-11 | 2026-09-04 00:10:59 | 48.40227 | 10.01717 | 28° | 7km/h | 26170m | 4.8m/s | -50.4°C | 3.9% | 22.5hPa | 2.6V | 08:30:00 | 01:41:28 | 00:00:00 | |
| SONCRA | 2026-09-04 00:10:58 | 48.40231 | 10.01714 | 292° | 9km/h | 26187m | 4.6m/s | -50.4°C | 1.1% | 22.4hPa | 2.6V | 00:00:00 | 00:00:00 | 00:00:00 | |
| DK7TD | 2026-09-04 00:10:58 | 48.40231 | 10.01714 | 293° | 11km/h | 26187m | 4.6m/s | -50.4°C | 0.8% | 22.4hPa | 2.5V | 18:12:15 | 01:41:31 | 00:00:00 | |
| DF3TZ-5 | 2026-09-04 00:10:56 | 48.40227 | 10.01717 | 28° | 7km/h | 26170m | 4.8m/s | -50.4°C | 1.1% | 22.5hPa | 2.6V | 00:00:00 | 00:00:00 | 00:00:00 | |
| OE5MMP-10 | 2026-09-04 00:10:55 | 48.40227 | 10.01717 | 29° | 9km/h | 26170m | 4.8m/s | -50.3°C | 3.9% | 22.5hPa | 2.6V | 00:00:00 | 01:41:28 | 08:30:00 | |
| NBG1-10 | 2026-09-04 00:10:54 | 48.40225 | 10.01716 | 22° | 15km/h | 26165m | 5.7m/s | -50.3°C | 3.9% | 22.4hPa | 2.6V | 00:00:00 | 01:41:27 | 00:00:00 | |
| BAUMI2-15 | 2026-09-04 00:10:52 | 48.40221 | 10.01716 | 346° | 7km/h | 26154m | 4.5m/s | -50.2°C | 3.9% | 22.5hPa | 2.6V | 00:00:00 | 01:41:25 | 00:00:00 | |
| IW2NTF | 2026-09-04 00:10:49 | 48.40216 | 10.01720 | 315° | 7km/h | 26138m | 4.9m/s | -50.2°C | 3.9% | 22.6hPa | 2.6V | 08:30:00 | 01:41:22 | 00:00:00 | |
| DB0ND-19 | 2026-09-04 00:10:49 | 48.40215 | 10.01722 | 306° | 9km/h | 26133m | 4.6m/s | -50.2°C | 1.1% | 22.6hPa | 2.6V | 00:00:00 | 00:00:00 | 00:00:00 | |
| DM0DOS-11 | 2026-09-04 00:10:48 | 48.40208 | 10.01738 | 304° | 24km/h | 26117m | 4.6m/s | -50.1°C | 3.9% | 22.6hPa | 2.6V | 08:30:00 | 01:41:18 | 00:00:00 | |
| DK7TD | 2026-09-04 00:10:47 | 48.40213 | 10.01726 | 305° | 15km/h | 26128m | 5.4m/s | -50.2°C | 0.8% | 22.6hPa | 2.5V | 18:12:15 | 01:41:20 | 00:00:00 | |
| DB0NH | 2026-09-04 00:10:47 | 48.40213 | 10.01726 | 305° | 16km/h | 26128m | 5.4m/s | -50.1°C | 3.9% | 22.5hPa | 2.5V | 00:00:00 | 01:41:20 | 00:00:00 | |
| OE5MMP-10 | 2026-09-04 00:10:45 | 48.40208 | 10.01738 | 305° | 16km/h | 26117m | 4.6m/s | -50.1°C | 3.9% | 22.6hPa | 2.5V | 00:00:00 | 01:41:18 | 00:00:00 | |
| IW2NTF | 2026-09-04 00:10:44 | 48.40189 | 10.01754 | 29° | 15km/h | 26087m | 4.8m/s | -50.1°C | 3.8% | 22.7hPa | 2.5V | 08:30:00 | 01:41:12 | 00:00:00 | |
| DK7TD | 2026-09-04 00:10:37 | 48.40181 | 10.01750 | 6° | 16km/h | 26077m | 5m/s | -50.1°C | 0.8% | 22.8hPa | 2.6V | 18:12:15 | 01:41:10 | 00:00:00 | |
| DJ2DS-15 | 2026-09-04 00:10:37 | 48.40181 | 10.01750 | 7° | 15km/h | 26077m | 4.9m/s | 0°C | 0% | 0hPa | 2.5V | 00:00:00 | 01:41:10 | 00:00:00 | |
| DF1GD-15 | 2026-09-04 00:10:36 | 48.40181 | 10.01750 | 7° | 16km/h | 26077m | 5.0m/s | -50.1°C | 1.2% | 22.8hPa | 2.5V | 00:00:00 | 00:00:00 | 00:00:00 | |
| DM0DOS-11 | 2026-09-04 00:10:36 | 48.40173 | 10.01753 | 327° | 16km/h | 26067m | 5.5m/s | -50.1°C | 3.8% | 22.8hPa | 2.6V | 08:30:00 | 01:41:08 | 00:00:00 | |
| OE5MMP-10 | 2026-09-04 00:10:35 | 48.40173 | 10.01753 | 328° | 16km/h | 26067m | 5.4m/s | -50.0°C | 3.8% | 22.8hPa | 2.5V | 00:00:00 | 01:41:08 | 00:00:00 | |
| IW2NTF | 2026-09-04 00:10:33 | 48.40159 | 10.01791 | 302° | 18km/h | 26034m | 4.8m/s | -50°C | 3.7% | 22.9hPa | 2.5V | 08:30:00 | 01:41:02 | 00:00:00 | |
| DL8DAS-14 | 2026-09-04 00:10:33 | 48.40166 | 10.01770 | 291° | 20km/h | 26050m | 4.9m/s | -50.0°C | 1.1% | 22.9hPa | 2.6V | 00:00:00 | 00:00:00 | 00:00:00 | |
| BAUMI2-15 | 2026-09-04 00:10:32 | 48.40166 | 10.01770 | 292° | 18km/h | 26051m | 4.8m/s | -50.0°C | 3.8% | 22.8hPa | 2.6V | 00:00:00 | 01:41:05 | 00:00:00 | |
| DO3MHA-12 | 2026-09-04 00:10:30 | 48.40161 | 10.01785 | 302° | 15km/h | 26039m | 5.0m/s | -50.0°C | 3.7% | 22.9hPa | 2.6V | 00:00:00 | 01:41:03 | 08:30:00 | |
| DM0DOS-11 | 2026-09-04 00:10:29 | 48.40151 | 10.01804 | 344° | 9km/h | 26011m | 6.6m/s | -50°C | 3.7% | 23hPa | 2.7V | 08:30:00 | 01:40:58 | 00:00:00 | |
| DL1NUX | 2026-09-04 00:10:28 | 48.40145 | 10.01806 | 341° | 15km/h | 26000m | 4.3m/s | -50°C | 3.7% | 23.1hPa | 2.6V | 08:30:00 | 01:40:56 | 00:00:00 | |
| DK7TD | 2026-09-04 00:10:26 | 48.40153 | 10.01802 | 327° | 9km/h | 26017m | 4.9m/s | -50°C | 0.7% | 23hPa | 2.6V | 18:12:15 | 01:40:59 | 00:00:00 | |
| DO9LL-15 | 2026-09-04 00:10:26 | 48.40153 | 10.01802 | 327° | 18km/h | 26017m | 4.8m/s | -50.0°C | 3.8% | 22.9hPa | 2.7V | 00:00:00 | 01:40:59 | 00:00:00 | |
| OE5MMP-10 | 2026-09-04 00:10:25 | 48.40151 | 10.01804 | 345° | 18km/h | 26012m | 6.5m/s | -50.0°C | 3.7% | 23.0hPa | 2.7V | 00:00:00 | 01:40:58 | 00:00:00 | |
| IW2NTF | 2026-09-04 00:10:23 | 48.40130 | 10.01840 | 293° | 26km/h | 25967m | 5.4m/s | -50.3°C | 3.8% | 23.2hPa | 2.6V | 08:30:00 | 01:40:50 | 00:00:00 | |
| BAUMI2-15 | 2026-09-04 00:10:22 | 48.40142 | 10.01808 | 331° | 18km/h | 25996m | 5.3m/s | -50.0°C | 3.7% | 23.0hPa | 2.6V | 00:00:00 | 01:40:55 | 00:00:00 | |
| NBG1-10 | 2026-09-04 00:10:21 | 48.40139 | 10.01812 | 311° | 18km/h | 25990m | 5.8m/s | -50.0°C | 3.7% | 23.0hPa | 2.6V | 00:00:00 | 01:40:54 | 00:00:00 | |
| DO3MHA-12 | 2026-09-04 00:10:20 | 48.40137 | 10.01817 | 298° | 22km/h | 25985m | 4.9m/s | -50.1°C | 3.8% | 23.1hPa | 2.6V | 00:00:00 | 01:40:53 | 00:00:00 | |
| DM0DOS-11 | 2026-09-04 00:10:18 | 48.40126 | 10.01858 | 279° | 26km/h | 25956m | 6.3m/s | -50.3°C | 3.8% | 23.2hPa | 2.6V | 08:30:00 | 01:40:48 | 00:00:00 | |
| DL1NUX | 2026-09-04 00:10:18 | 48.40125 | 10.01876 | 275° | 22km/h | 25946m | 3.8m/s | -50.4°C | 3.8% | 23.2hPa | 2.6V | 08:30:00 | 01:40:46 | 00:00:00 | |
| DK7TD | 2026-09-04 00:10:15 | 48.40126 | 10.01858 | 280° | 26km/h | 25956m | 6.3m/s | -50.3°C | 0.7% | 23.2hPa | 2.6V | 18:12:15 | 01:40:48 | 00:00:00 | |
| OE5MMP-10 | 2026-09-04 00:10:15 | 48.40126 | 10.01858 | 280° | 18km/h | 25957m | 6.2m/s | -50.3°C | 3.8% | 23.1hPa | 2.7V | 00:00:00 | 01:40:48 | 00:00:00 | |
| DF7PN | 2026-09-04 00:10:14 | 48.40125 | 10.01867 | 274° | 22km/h | 25951m | 4.7m/s | -50.4°C | 1.1% | 23.2hPa | 2.7V | 00:00:00 | 00:00:00 | 00:00:00 | |
| OE5DXL-15 | 2026-09-04 00:10:13 | 48.40125 | 10.01875 | 276° | 16km/h | 25947m | 3.8m/s | -50.3°C | 3.8% | 23.2hPa | 2.7V | 00:00:00 | 00:00:00 | 00:00:00 | |
| IW2NTF | 2026-09-04 00:10:12 | 48.40112 | 10.01910 | 306° | 15km/h | 25913m | 4.9m/s | -50.5°C | 3.9% | 23.3hPa | 2.7V | 08:30:00 | 01:40:40 | 00:00:00 | |
| BAUMI2-15 | 2026-09-04 00:10:12 | 48.40124 | 10.01883 | 283° | 18km/h | 25942m | 6.2m/s | -50.4°C | 3.9% | 23.2hPa | 2.6V | 00:00:00 | 01:40:45 | 00:00:00 | |
| SONDE2-11 | 2026-09-04 00:10:10 | 48.40117 | 10.01901 | 312° | 16km/h | 25924m | 5.5m/s | -50.6°C | 1.1% | 23.3hPa | 2.6V | 00:00:00 | 00:00:00 | 00:00:00 | |
| DM0DOS-11 | 2026-09-04 00:10:09 | 48.40107 | 10.01920 | 303° | 18km/h | 25903m | 6.1m/s | -50.5°C | 3.9% | 23.4hPa | 2.6V | 08:30:00 | 01:40:38 | 00:00:00 | |
| AZAK | 2026-09-04 00:10:09 | 48.40114 | 10.01906 | 311° | 15km/h | 25919m | 6.3m/s | -50.5°C | 1.1% | 23.4hPa | 2.7V | 00:00:00 | 00:00:00 | 00:00:00 | |
| BAUMI2-15 | 2026-09-04 00:10:07 | 48.40112 | 10.01910 | 307° | 20km/h | 25913m | 4.9m/s | -50.5°C | 3.9% | 23.3hPa | 2.7V | 00:00:00 | 01:40:40 | 00:00:00 | |
| DL1NUX | 2026-09-04 00:10:05 | 48.40095 | 10.01962 | 277° | 22km/h | 25873m | 5.7m/s | -50.5°C | 3.9% | 23.5hPa | 2.7V | 08:30:00 | 01:40:33 | 00:00:00 | |
| DK7TD | 2026-09-04 00:10:05 | 48.40107 | 10.01920 | 304° | 18km/h | 25903m | 6.1m/s | -50.5°C | 0.8% | 23.4hPa | 2.6V | 18:12:15 | 01:40:38 | 00:00:00 | |
| DJ8HS-15 | 2026-09-04 00:10:05 | 48.40107 | 10.01920 | 304° | 16km/h | 25903m | 6.0m/s | -50.5°C | 3.9% | 23.4hPa | 2.5V | 00:00:00 | 01:40:38 | 00:00:00 | |
| SO1NDE-10 | 2026-09-04 00:10:04 | 48.40104 | 10.01927 | 303° | 15km/h | 25896m | 6.2m/s | -50.5°C | 3.9% | 23.4hPa | 2.5V | 00:00:00 | 01:40:37 | 00:00:00 | |
| IW2NTF | 2026-09-04 00:10:02 | 48.40093 | 10.01983 | 281° | 16km/h | 25856m | 5m/s | -50.5°C | 3.9% | 23.6hPa | 2.5V | 08:30:00 | 01:40:30 | 00:00:00 | |
| BIOWL1-15 | 2026-09-04 00:10:01 | 48.40096 | 10.01953 | 286° | 24km/h | 25879m | 6.6m/s | 0°C | 0% | 0hPa | 2.6V | 18:12:15 | 01:40:34 | 00:00:00 | |
| DK7TD | 2026-09-04 00:09:54 | 48.40092 | 10.01996 | 270° | 7km/h | 25839m | 5.6m/s | -50.5°C | 0.8% | 23.6hPa | 2.6V | 18:12:15 | 01:40:27 | 00:00:00 | |
| DF3TZ-5 | 2026-09-04 00:09:54 | 48.40092 | 10.01998 | 291° | 5km/h | 25834m | 5.0m/s | -50.5°C | 1.1% | 23.6hPa | 2.6V | 00:00:00 | 00:00:00 | 00:00:00 | |
| DM0DOS-11 | 2026-09-04 00:09:53 | 48.40081 | 10.02016 | 300° | 15km/h | 25806m | 6m/s | -50.5°C | 3.8% | 23.8hPa | 2.6V | 08:30:00 | 01:40:21 | 00:00:00 | |
| BAUMI2-15 | 2026-09-04 00:09:52 | 48.40091 | 10.02001 | 310° | 13km/h | 25829m | 6.3m/s | -50.5°C | 3.9% | 23.6hPa | 2.6V | 00:00:00 | 01:40:25 | 00:00:00 | |
| DO3MHA-12 | 2026-09-04 00:09:50 | 48.40086 | 10.02007 | 316° | 13km/h | 25817m | 4.7m/s | -50.5°C | 3.8% | 23.6hPa | 2.6V | 00:00:00 | 01:40:23 | 00:00:00 | |
| IW2NTF | 2026-09-04 00:09:48 | 48.40079 | 10.02021 | 294° | 16km/h | 25800m | 5.2m/s | -50.5°C | 3.8% | 23.8hPa | 2.6V | 08:30:00 | 01:40:20 | 00:00:00 | |
| DB0ND-19 | 2026-09-04 00:09:47 | 48.40078 | 10.02027 | 295° | 16km/h | 25795m | 6.2m/s | -50.6°C | 1.1% | 23.8hPa | 2.6V | 00:00:00 | 00:00:00 | 00:00:00 | |
| DK7TD | 2026-09-04 00:09:43 | 48.40072 | 10.02044 | 297° | 13km/h | 25778m | 5.7m/s | -50.6°C | 0.8% | 23.8hPa | 2.6V | 18:12:15 | 01:40:16 | 00:00:00 | |
| IW2NTF | 2026-09-04 00:09:43 | 48.40065 | 10.02051 | 344° | 13km/h | 25743m | 5.4m/s | -50.6°C | 4% | 24hPa | 2.7V | 08:30:00 | 01:40:10 | 00:00:00 | |
| BIOWL1-15 | 2026-09-04 00:09:43 | 48.40070 | 10.02049 | 346° | 2km/h | 25761m | 5.4m/s | 0°C | 0% | 0hPa | 2.5V | 18:12:15 | 01:40:13 | 00:00:00 | |
| DO3MHA-12 | 2026-09-04 00:09:40 | 48.40070 | 10.02049 | 346° | 11km/h | 25761m | 5.4m/s | -50.6°C | 3.9% | 23.9hPa | 2.7V | 00:00:00 | 01:40:13 | 00:00:00 | |
| SONDE2-11 | 2026-09-04 00:09:38 | 48.40067 | 10.02050 | 350° | 9km/h | 25749m | 5.8m/s | -50.6°C | 1.2% | 24.0hPa | 2.7V | 00:00:00 | 00:00:00 | 00:00:00 | |
| DO3MHA-11 | 2026-09-04 00:09:37 | 48.40065 | 10.02051 | 345° | 13km/h | 25744m | 5.4m/s | -50.6°C | 4.0% | 23.9hPa | 2.7V | 00:00:00 | 01:40:10 | 00:00:00 | |
| DL1NUX | 2026-09-04 00:09:36 | 48.40051 | 10.02070 | 299° | 16km/h | 25710m | 5.9m/s | -50.6°C | 3.9% | 24.1hPa | 2.7V | 08:30:00 | 01:40:04 | 00:00:00 | |
| DM0DOS-11 | 2026-09-04 00:09:34 | 48.40044 | 10.02081 | 345° | 11km/h | 25694m | 6.7m/s | -50.5°C | 3.9% | 24.2hPa | 2.5V | 08:30:00 | 01:40:01 | 00:00:00 | |
| DK7TD | 2026-09-04 00:09:33 | 48.40054 | 10.02061 | 300° | 11km/h | 25721m | 4.8m/s | -50.6°C | 0.9% | 24.1hPa | 2.6V | 18:12:15 | 01:40:06 | 00:00:00 | |
| DO3MHA-12 | 2026-09-04 00:09:30 | 48.40049 | 10.02075 | 309° | 13km/h | 25705m | 4.9m/s | -50.6°C | 3.9% | 24.1hPa | 2.7V | 00:00:00 | 01:40:03 | 00:00:00 | |
| OE9MKV-15 | 2026-09-04 00:09:29 | 48.40046 | 10.02079 | 324° | 11km/h | 25700m | 4.7m/s | -50.5°C | 4.0% | 24.1hPa | 2.6V | 00:00:00 | 01:40:02 | 00:00:00 | |
| DO3MHA-11 | 2026-09-04 00:09:27 | 48.40041 | 10.02080 | 21° | 13km/h | 25688m | 6.0m/s | -50.5°C | 3.9% | 24.1hPa | 2.6V | 00:00:00 | 01:40:00 | 00:00:00 | |
| DO9LL-15 | 2026-09-04 00:09:26 | 48.40038 | 10.02078 | 41° | 11km/h | 25683m | 4.9m/s | -50.4°C | 3.9% | 24.2hPa | 2.6V | 00:00:00 | 01:39:59 | 00:00:00 | |
| DJ8HS-15 | 2026-09-04 00:09:25 | 48.40036 | 10.02075 | 39° | 11km/h | 25678m | 4.8m/s | -50.4°C | 3.9% | 24.2hPa | 2.6V | 00:00:00 | 01:39:58 | 00:00:00 | |
| DM0DOS-11 | 2026-09-04 00:09:23 | 48.40022 | 10.02088 | 281° | 13km/h | 25639m | 4.5m/s | -50.3°C | 3.8% | 24.4hPa | 2.7V | 08:30:00 | 01:39:51 | 00:00:00 | |
| DK7TD | 2026-09-04 00:09:22 | 48.40028 | 10.02073 | 331° | 11km/h | 25661m | 5.1m/s | -50.4°C | 0.8% | 24.3hPa | 2.5V | 18:12:15 | 01:39:55 | 00:00:00 | |
| DO3MHA-12 | 2026-09-04 00:09:20 | 48.40024 | 10.02079 | 291° | 11km/h | 25650m | 6.1m/s | -50.3°C | 3.8% | 24.3hPa | 2.5V | 00:00:00 | 01:39:53 | 00:00:00 | |
| DM7RM-13 | 2026-09-04 00:09:18 | 48.40023 | 10.02084 | 283° | 13km/h | 25644m | 5.2m/s | -50.3°C | 1.1% | 24.4hPa | 2.5V | 00:00:00 | 00:00:00 | 00:00:00 | |
| DB0NH | 2026-09-04 00:09:17 | 48.40021 | 10.02093 | 291° | 11km/h | 25634m | 5.8m/s | -50.2°C | 3.8% | 24.3hPa | 2.5V | 00:00:00 | 01:39:50 | 00:00:00 | |
| DB0ND-19 | 2026-09-04 00:09:16 | 48.40017 | 10.02102 | 315° | 15km/h | 25622m | 5.8m/s | -50.3°C | 1.1% | 24.4hPa | 2.5V | 00:00:00 | 00:00:00 | 00:00:00 | |
| NBG1-10 | 2026-09-04 00:09:15 | 48.40017 | 10.02102 | 316° | 13km/h | 25622m | 5.7m/s | -50.2°C | 3.8% | 24.4hPa | 2.5V | 00:00:00 | 01:39:48 | 00:00:00 | |
| DB0UT-7 | 2026-09-04 00:09:13 | 48.40012 | 10.02109 | 326° | 13km/h | 25612m | 5.5m/s | -50.3°C | 3.8% | 24.4hPa | 2.6V | 00:00:00 | 00:00:00 | 00:00:00 | |
| DF7PN | 2026-09-04 00:09:12 | 48.40010 | 10.02111 | 320° | 5km/h | 25606m | 6.4m/s | -50.3°C | 1.1% | 24.5hPa | 2.6V | 00:00:00 | 00:00:00 | 00:00:00 | |
| DL1NUX | 2026-09-04 00:09:11 | 48.40010 | 10.02114 | 248° | 5km/h | 25594m | 5m/s | -50.3°C | 3.9% | 24.6hPa | 2.6V | 08:30:00 | 01:39:43 | 00:00:00 | |
| DK7TD | 2026-09-04 00:09:11 | 48.40009 | 10.02112 | 272° | 4km/h | 25600m | 5.2m/s | -50.3°C | 0.8% | 24.6hPa | 2.7V | 18:12:15 | 01:39:44 | 00:00:00 | |
| BIOWL1-15 | 2026-09-04 00:09:06 | 48.40007 | 10.02140 | 276° | 13km/h | 25561m | 6.1m/s | 0°C | 0% | 0hPa | 2.5V | 18:12:15 | 01:39:37 | 00:00:00 | |
| DL1NUX | 2026-09-04 00:09:06 | 48.40007 | 10.02159 | 280° | 16km/h | 25538m | 6.5m/s | -50.3°C | 3.9% | 24.8hPa | 2.7V | 08:30:00 | 01:39:33 | 00:00:00 | |
| DK7TD | 2026-09-04 00:09:01 | 48.40007 | 10.02153 | 275° | 13km/h | 25544m | 5.9m/s | -50.3°C | 0.8% | 24.7hPa | 2.6V | 18:12:15 | 01:39:34 | 00:00:00 | |
| DO3MHA-12 | 2026-09-04 00:09:00 | 48.40007 | 10.02159 | 281° | 13km/h | 25538m | 6.5m/s | -50.3°C | 3.9% | 24.7hPa | 2.7V | 00:00:00 | 01:39:33 | 08:30:00 | |
| IW2NTF | 2026-09-04 00:08:59 | 48.40004 | 10.02185 | 275° | 11km/h | 25509m | 5.5m/s | -50.3°C | 3.9% | 24.9hPa | 2.6V | 08:30:00 | 01:39:28 | 00:00:00 | |
| DK7TD | 2026-09-04 00:08:50 | 48.40003 | 10.02205 | 248° | 7km/h | 25480m | 5.2m/s | -50.3°C | 0.8% | 25hPa | 2.6V | 18:12:15 | 01:39:23 | 00:00:00 | |
| DL1NUX | 2026-09-04 00:08:50 | 48.40003 | 10.02208 | 248° | 7km/h | 25475m | 4.7m/s | -50.3°C | 3.9% | 25hPa | 2.6V | 08:30:00 | 01:39:22 | 00:00:00 | |
| DO3MHA-12 | 2026-09-04 00:08:50 | 48.40003 | 10.02205 | 248° | 18km/h | 25480m | 5.1m/s | -50.3°C | 3.9% | 25.0hPa | 2.6V | 00:00:00 | 01:39:23 | 00:00:00 | |
| DM0DOS-11 | 2026-09-04 00:08:48 | 48.40004 | 10.02231 | 270° | 24km/h | 25453m | 4.9m/s | -50.3°C | 3.8% | 25.1hPa | 2.6V | 08:30:00 | 01:39:18 | 00:00:00 | |
| DB0NH | 2026-09-04 00:08:47 | 48.40004 | 10.02216 | 270° | 13km/h | 25464m | 6.1m/s | -50.2°C | 3.8% | 25.0hPa | 2.7V | 00:00:00 | 01:39:20 | 08:30:00 | |
| DB0ND-19 | 2026-09-04 00:08:45 | 48.40007 | 10.02258 | 247° | 20km/h | 25436m | 5.3m/s | -50.4°C | 1.1% | 25.1hPa | 2.6V | 00:00:00 | 00:00:00 | 00:00:00 | |
| DL1NUX | 2026-09-04 00:08:44 | 48.40012 | 10.02276 | 254° | 13km/h | 25420m | 6.2m/s | -50.5°C | 3.9% | 25.2hPa | 2.6V | 08:30:00 | 01:39:12 | 00:00:00 | |
| DK7TD | 2026-09-04 00:08:40 | 48.40011 | 10.02271 | 245° | 16km/h | 25426m | 5.3m/s | -50.5°C | 0.8% | 25.2hPa | 2.6V | 18:12:15 | 01:39:13 | 00:00:00 | |
| DM0DOS-11 | 2026-09-04 00:08:40 | 48.40013 | 10.02288 | 195° | 2km/h | 25392m | 5m/s | -50.3°C | 3.8% | 25.3hPa | 2.6V | 08:30:00 | 01:39:07 | 00:00:00 | |
| DO3MHA-12 | 2026-09-04 00:08:40 | 48.40011 | 10.02271 | 245° | 7km/h | 25426m | 5.3m/s | -50.4°C | 3.9% | 25.1hPa | 2.5V | 00:00:00 | 01:39:13 | 00:00:00 | |
| IW2NTF | 2026-09-04 00:08:38 | 48.40014 | 10.02288 | 247° | 4km/h | 25387m | 4.5m/s | -50.3°C | 3.9% | 25.3hPa | 2.5V | 08:30:00 | 01:39:06 | 00:00:00 | |
| DJTTGO | 2026-09-04 00:08:38 | 48.40012 | 10.02276 | 255° | 13km/h | 25420m | 6.2m/s | -50.5°C | 1.2% | 25.2hPa | 2.7V | 00:00:00 | 00:00:00 | 00:00:00 | |
| DO3MHA-11 | 2026-09-04 00:08:37 | 48.40013 | 10.02284 | 279° | 9km/h | 25409m | 4.9m/s | -50.4°C | 3.9% | 25.2hPa | 2.7V | 00:00:00 | 01:39:10 | 00:00:00 | |
| SONDE2-11 | 2026-09-04 00:08:36 | 48.40013 | 10.02286 | 278° | 4km/h | 25404m | 6.2m/s | -50.4°C | 1.1% | 25.3hPa | 2.7V | 00:00:00 | 00:00:00 | 00:00:00 | |
| DK5PH-5 | 2026-09-04 00:08:35 | 48.40012 | 10.02287 | 237° | 13km/h | 25398m | 6.2m/s | -50.3°C | 3.8% | 25.3hPa | 2.7V | 00:00:00 | 01:39:08 | 08:30:00 | |
| DL1NUX | 2026-09-04 00:08:34 | 48.40010 | 10.02304 | 288° | 15km/h | 25364m | 5.8m/s | -50.3°C | 3.8% | 25.4hPa | 2.7V | 08:30:00 | 01:39:02 | 00:00:00 | |
| DK7TD | 2026-09-04 00:08:30 | 48.40012 | 10.02298 | 291° | 15km/h | 25370m | 5.5m/s | -50.3°C | 0.8% | 25.4hPa | 2.6V | 18:12:15 | 01:39:03 | 00:00:00 | |
| DO3MHA-12 | 2026-09-04 00:08:30 | 48.40012 | 10.02298 | 291° | 13km/h | 25370m | 5.4m/s | -50.3°C | 3.8% | 25.4hPa | 2.6V | 00:00:00 | 01:39:03 | 00:00:00 | |
| OE9MKV-15 | 2026-09-04 00:08:29 | 48.40010 | 10.02303 | 289° | 13km/h | 25365m | 5.8m/s | -50.2°C | 3.8% | 25.4hPa | 2.6V | 00:00:00 | 01:39:02 | 00:00:00 | |
| DL8DAS-14 | 2026-09-04 00:08:28 | 48.40009 | 10.02309 | 283° | 13km/h | 25358m | 6.3m/s | -50.3°C | 1.1% | 25.5hPa | 2.6V | 00:00:00 | 00:00:00 | 00:00:00 | |
| IW2NTF | 2026-09-04 00:08:27 | 48.40004 | 10.02330 | 303° | 13km/h | 25330m | 4.8m/s | -50.3°C | 3.9% | 25.6hPa | 2.6V | 08:30:00 | 01:38:56 | 00:00:00 | |
| DK7TD | 2026-09-04 00:08:20 | 48.40001 | 10.02340 | 257° | 7km/h | 25315m | 5.8m/s | -50.3°C | 0.8% | 25.6hPa | 2.5V | 18:12:15 | 01:38:53 | 00:00:00 | |
| DO3MHA-12 | 2026-09-04 00:08:20 | 48.40001 | 10.02340 | 257° | 16km/h | 25316m | 5.7m/s | -50.2°C | 3.9% | 25.6hPa | 2.5V | 00:00:00 | 01:38:53 | 00:00:00 | |
| IW2NTF | 2026-09-04 00:08:19 | 48.40004 | 10.02382 | 307° | 16km/h | 25278m | 6.3m/s | -50.2°C | 3.9% | 25.8hPa | 2.5V | 08:30:00 | 01:38:46 | 00:00:00 | |
| DM0DOS-11 | 2026-09-04 00:08:18 | 48.40007 | 10.02369 | 276° | 20km/h | 25289m | 4.7m/s | -50.2°C | 3.9% | 25.7hPa | 2.7V | 08:30:00 | 01:38:48 | 00:00:00 | |
| DB0NH | 2026-09-04 00:08:17 | 48.40006 | 10.02353 | 248° | 13km/h | 25300m | 5.5m/s | -50.2°C | 3.9% | 25.6hPa | 2.7V | 00:00:00 | 01:38:50 | 00:00:00 | |
| OE5MMP-10 | 2026-09-04 00:08:15 | 48.40007 | 10.02369 | 277° | 15km/h | 25290m | 4.6m/s | -50.2°C | 3.9% | 25.7hPa | 2.7V | 00:00:00 | 01:38:48 | 00:00:00 | |
| DB0ND-19 | 2026-09-04 00:08:14 | 48.40004 | 10.02382 | 307° | 16km/h | 25279m | 6.3m/s | -50.3°C | 1.1% | 25.8hPa | 2.7V | 00:00:00 | 00:00:00 | 00:00:00 | |
| DB0UT-7 | 2026-09-04 00:08:13 | 48.40004 | 10.02382 | 308° | 11km/h | 25279m | 6.3m/s | -50.2°C | 3.9% | 25.7hPa | 2.7V | 00:00:00 | 00:00:00 | 00:00:00 | |
| DF1GD-15 | 2026-09-04 00:08:12 | 48.40004 | 10.02382 | 309° | 16km/h | 25279m | 6.3m/s | -50.2°C | 1.2% | 25.8hPa | 2.7V | 00:00:00 | 00:00:00 | 00:00:00 | |
| DL1NUX | 2026-09-04 00:08:10 | 48.39989 | 10.02394 | 329° | 16km/h | 25256m | 5.5m/s | -50.2°C | 3.9% | 25.9hPa | 2.7V | 08:30:00 | 01:38:42 | 00:00:00 | |
| DK7TD | 2026-09-04 00:08:09 | 48.39989 | 10.02394 | 330° | 16km/h | 25256m | 5.5m/s | -50.2°C | 0.8% | 25.9hPa | 2.7V | 18:12:15 | 01:38:42 | 00:00:00 | |
| NBG1-10 | 2026-09-04 00:08:09 | 48.39989 | 10.02394 | 330° | 9km/h | 25256m | 5.5m/s | -50.1°C | 3.9% | 25.8hPa | 2.7V | 00:00:00 | 01:38:42 | 00:00:00 | |
| DM0DOS-11 | 2026-09-04 00:08:09 | 48.39983 | 10.02405 | 247° | 4km/h | 25233m | 5.5m/s | -50.1°C | 3.8% | 26hPa | 2.6V | 08:30:00 | 01:38:38 | 00:00:00 | |
| DO3MHA-11 | 2026-09-04 00:08:07 | 48.39984 | 10.02401 | 307° | 9km/h | 25246m | 5.5m/s | -50.1°C | 3.8% | 25.9hPa | 2.7V | 00:00:00 | 01:38:40 | 00:00:00 | |
| IW2NTF | 2026-09-04 00:08:05 | 48.39984 | 10.02408 | 236° | 5km/h | 25224m | 4.9m/s | -50.1°C | 3.8% | 26hPa | 2.7V | 08:30:00 | 01:38:36 | 00:00:00 | |
| DL1XH-west | 2026-09-04 00:08:03 | 48.39984 | 10.02408 | 237° | 5km/h | 25224m | 4.9m/s | 0°C | 0% | 0hPa | 2.7V | 18:12:15 | 01:38:36 | 00:00:00 | |
| AZAK | 2026-09-04 00:08:01 | 48.39984 | 10.02410 | 260° | 7km/h | 25219m | 6.1m/s | -50.1°C | 1.1% | 26.0hPa | 2.5V | 00:00:00 | 00:00:00 | 00:00:00 | |
| DO3MHA-12 | 2026-09-04 00:08:00 | 48.39984 | 10.02417 | 294° | 11km/h | 25208m | 4.2m/s | -50.0°C | 3.8% | 26.0hPa | 2.5V | 00:00:00 | 01:38:33 | 00:00:00 | |
| DM0DOS-11 | 2026-09-04 00:07:59 | 48.39970 | 10.02421 | 26° | 15km/h | 25182m | 4.9m/s | -50.2°C | 3.8% | 26.2hPa | 2.6V | 08:30:00 | 01:38:28 | 00:00:00 | |
| DK7TD | 2026-09-04 00:07:58 | 48.39980 | 10.02424 | 337° | 13km/h | 25198m | 6.2m/s | -50.1°C | 0.8% | 26.1hPa | 2.6V | 18:12:15 | 01:38:31 | 00:00:00 | |
| DL8DAS-14 | 2026-09-04 00:07:57 | 48.39977 | 10.02424 | 4° | 13km/h | 25192m | 5.3m/s | -50.2°C | 1.1% | 26.1hPa | 2.5V | 00:00:00 | 00:00:00 | 00:00:00 | |
| DL6DJ-15 | 2026-09-04 00:07:52 | 48.39958 | 10.02416 | 4° | 4km/h | 25155m | 5.6m/s | -50.3°C | 1.1% | 26.3hPa | 2.5V | 00:00:00 | 00:00:00 | 00:00:00 | |
| DF3TZ-5 | 2026-09-04 00:07:50 | 48.39957 | 10.02417 | 304° | 4km/h | 25149m | 4.6m/s | -50.2°C | 1.1% | 26.3hPa | 2.5V | 00:00:00 | 00:00:00 | 00:00:00 | |
| DL1NUX | 2026-09-04 00:07:49 | 48.39957 | 10.02419 | 276° | 7km/h | 25144m | 6.6m/s | -50.2°C | 3.8% | 26.3hPa | 2.5V | 08:30:00 | 01:38:21 | 00:00:00 | |
| DM0DOS-11 | 2026-09-04 00:07:49 | 48.39957 | 10.02430 | 260° | 9km/h | 25127m | 6m/s | -50.2°C | 3.8% | 26.4hPa | 2.7V | 08:30:00 | 01:38:18 | 00:00:00 | |
| DK7TD | 2026-09-04 00:07:48 | 48.39957 | 10.02419 | 276° | 7km/h | 25144m | 6.6m/s | -50.2°C | 0.8% | 26.3hPa | 2.5V | 18:12:15 | 01:38:21 | 00:00:00 | |
| DL1XH-west | 2026-09-04 00:07:43 | 48.39957 | 10.02434 | 323° | 4km/h | 25116m | 4.8m/s | 0°C | 0% | 0hPa | 2.6V | 18:12:15 | 01:38:16 | 00:00:00 | |
| OE5DXL-15 | 2026-09-04 00:07:43 | 48.39957 | 10.02434 | 324° | 9km/h | 25117m | 4.7m/s | -50.2°C | 3.8% | 26.4hPa | 2.6V | 00:00:00 | 00:00:00 | 00:00:00 | |
| DL1NUX | 2026-09-04 00:07:40 | 48.39946 | 10.02432 | 45° | 11km/h | 25090m | 6m/s | -50.4°C | 3.8% | 26.5hPa | 2.7V | 08:30:00 | 01:38:11 | 00:00:00 | |
| DO3MHA-12 | 2026-09-04 00:07:40 | 48.39951 | 10.02435 | 7° | 9km/h | 25100m | 4.4m/s | -50.3°C | 3.8% | 26.4hPa | 2.6V | 00:00:00 | 01:38:13 | 00:00:00 | |
| BAUMI2-15 | 2026-09-04 00:07:39 | 48.39949 | 10.02434 | 21° | 9km/h | 25096m | 4.5m/s | -50.3°C | 3.8% | 26.4hPa | 2.6V | 00:00:00 | 01:38:12 | 00:00:00 | |
| DM0DOS-11 | 2026-09-04 00:07:38 | 48.39945 | 10.02421 | 113° | 7km/h | 25074m | 4.6m/s | -50.3°C | 3.8% | 26.6hPa | 2.6V | 08:30:00 | 01:38:08 | 00:00:00 | |
| DK7TD | 2026-09-04 00:07:37 | 48.39945 | 10.02428 | 74° | 11km/h | 25084m | 5.5m/s | -50.4°C | 0.8% | 26.6hPa | 2.6V | 18:12:15 | 01:38:10 | 00:00:00 | |
| DO3MHA-11 | 2026-09-04 00:07:37 | 48.39945 | 10.02428 | 75° | 9km/h | 25085m | 5.5m/s | -50.3°C | 3.8% | 26.5hPa | 2.5V | 00:00:00 | 01:38:10 | 00:00:00 | |
| NBG1-10 | 2026-09-04 00:07:36 | 48.39945 | 10.02424 | 94° | 9km/h | 25080m | 4.8m/s | -50.3°C | 3.8% | 26.5hPa | 2.5V | 00:00:00 | 01:38:09 | 08:30:00 | |
| IW2NTF | 2026-09-04 00:07:35 | 48.39946 | 10.02421 | 263° | 5km/h | 25063m | 5.5m/s | -50.4°C | 3.8% | 26.7hPa | 2.6V | 08:30:00 | 01:38:06 | 00:00:00 | |
| SONDE2-11 | 2026-09-04 00:07:34 | 48.39946 | 10.02421 | 263° | 4km/h | 25063m | 5.5m/s | -50.4°C | 1.1% | 26.7hPa | 2.6V | 00:00:00 | 00:00:00 | 00:00:00 | |
| DO3MHA-12 | 2026-09-04 00:07:30 | 48.39944 | 10.02430 | 307° | 11km/h | 25047m | 4.5m/s | -50.3°C | 3.8% | 26.7hPa | 2.6V | 00:00:00 | 01:38:03 | 08:30:00 | |
| DL1NUX | 2026-09-04 00:07:29 | 48.39939 | 10.02438 | 315° | 16km/h | 25036m | 6.1m/s | -50.4°C | 3.8% | 26.7hPa | 2.5V | 08:30:00 | 01:38:01 | 00:00:00 | |
| DM0DOS-11 | 2026-09-04 00:07:29 | 48.39930 | 10.02445 | 11° | 9km/h | 25021m | 6.3m/s | -50.5°C | 3.8% | 26.8hPa | 2.7V | 08:30:00 | 01:37:58 | 00:00:00 | |
| DK7TD | 2026-09-04 00:07:27 | 48.39936 | 10.02442 | 325° | 16km/h | 25031m | 4.4m/s | -50.5°C | 0.8% | 26.8hPa | 2.6V | 18:12:15 | 01:38:00 | 00:00:00 | |
| IW2NTF | 2026-09-04 00:07:27 | 48.39927 | 10.02440 | 81° | 9km/h | 25011m | 4.3m/s | -50.5°C | 3.9% | 26.9hPa | 2.6V | 08:30:00 | 01:37:56 | 00:00:00 | |
| DL8DAS-14 | 2026-09-04 00:07:26 | 48.39933 | 10.02445 | 341° | 11km/h | 25027m | 4.7m/s | -50.5°C | 1.1% | 26.8hPa | 2.7V | 00:00:00 | 00:00:00 | 00:00:00 | |
| DJ8HS-15 | 2026-09-04 00:07:25 | 48.39930 | 10.02445 | 12° | 7km/h | 25021m | 6.2m/s | -50.4°C | 3.8% | 26.8hPa | 2.7V | 00:00:00 | 01:37:58 | 08:30:00 | |
| DO9LL-15 | 2026-09-04 00:07:24 | 48.39928 | 10.02443 | 57° | 11km/h | 25016m | 4.8m/s | -50.5°C | 3.9% | 26.8hPa | 2.6V | 00:00:00 | 01:37:57 | 00:00:00 | |
| DL1NUX | 2026-09-04 00:07:22 | 48.39926 | 10.02443 | 304° | 7km/h | 24980m | 5.8m/s | -50.7°C | 3.9% | 27hPa | 2.6V | 08:30:00 | 01:37:50 | 00:00:00 | |
| SONCRA | 2026-09-04 00:07:21 | 48.39928 | 10.02436 | 275° | 2km/h | 24996m | 4.6m/s | -50.7°C | 1.2% | 26.9hPa | 2.6V | 00:00:00 | 00:00:00 | 00:00:00 | |
| DM0DOS-11 | 2026-09-04 00:07:20 | 48.39922 | 10.02448 | 314° | 13km/h | 24969m | 5.5m/s | -50.7°C | 3.9% | 27hPa | 2.6V | 08:30:00 | 01:37:48 | 00:00:00 | |
| DK7TD | 2026-09-04 00:07:16 | 48.39924 | 10.02445 | 315° | 9km/h | 24974m | 5.4m/s | -50.7°C | 0.9% | 27hPa | 2.6V | 18:12:15 | 01:37:49 | 00:00:00 | |
| OE5MMP-10 | 2026-09-04 00:07:15 | 48.39922 | 10.02448 | 315° | 9km/h | 24969m | 5.5m/s | -50.7°C | 3.9% | 27.0hPa | 2.7V | 00:00:00 | 01:37:48 | 00:00:00 | |
| IW2NTF | 2026-09-04 00:07:14 | 48.39917 | 10.02456 | 309° | 15km/h | 24958m | 4.6m/s | -50.7°C | 3.9% | 27.1hPa | 2.7V | 08:30:00 | 01:37:46 | 00:00:00 | |
| BAUMI2-15 | 2026-09-04 00:07:14 | 48.39920 | 10.02452 | 312° | 11km/h | 24963m | 6.1m/s | -50.7°C | 3.9% | 27.0hPa | 2.7V | 00:00:00 | 01:37:47 | 00:00:00 | |
| DB0UT-7 | 2026-09-04 00:07:13 | 48.39918 | 10.02456 | 310° | 16km/h | 24958m | 4.5m/s | -50.7°C | 3.9% | 27.0hPa | 2.7V | 00:00:00 | 00:00:00 | 00:00:00 | |
| DB0ND-19 | 2026-09-04 00:07:12 | 48.39913 | 10.02463 | 320° | 7km/h | 24949m | 6.0m/s | -50.7°C | 1.1% | 27.1hPa | 2.6V | 00:00:00 | 00:00:00 | 00:00:00 | |
| DL1NUX | 2026-09-04 00:07:10 | 48.39911 | 10.02464 | 298° | 4km/h | 24927m | 5.4m/s | -50.7°C | 3.9% | 27.2hPa | 2.6V | 08:30:00 | 01:37:40 | 00:00:00 | |
| DO3MHA-12 | 2026-09-04 00:07:10 | 48.39912 | 10.02464 | 354° | 9km/h | 24943m | 5.5m/s | -50.7°C | 3.8% | 27.1hPa | 2.7V | 00:00:00 | 01:37:43 | 00:00:00 | |
| DM0DOS-11 | 2026-09-04 00:07:09 | 48.39909 | 10.02468 | 313° | 11km/h | 24917m | 4.9m/s | -50.8°C | 3.9% | 27.2hPa | 2.7V | 08:30:00 | 01:37:38 | 00:00:00 | |
| OE5DRO-10 | 2026-09-04 00:07:08 | 48.39911 | 10.02464 | 299° | 16km/h | 24927m | 5.3m/s | -50.7°C | 3.9% | 27.2hPa | 2.5V | 00:00:00 | 00:00:00 | 00:00:00 | |
| DO3MHA-11 | 2026-09-04 00:07:07 | 48.39911 | 10.02464 | 299° | 15km/h | 24927m | 5.3m/s | -50.7°C | 3.9% | 27.2hPa | 2.5V | 00:00:00 | 01:37:40 | 00:00:00 | |
| IW2NTF | 2026-09-04 00:07:06 | 48.39904 | 10.02475 | 323° | 15km/h | 24907m | 4.8m/s | -50.8°C | 4% | 27.3hPa | 2.5V | 08:30:00 | 01:37:36 | 00:00:00 | |
| DK7TD | 2026-09-04 00:07:06 | 48.39910 | 10.02466 | 306° | 7km/h | 24922m | 4.5m/s | -50.8°C | 0.8% | 27.2hPa | 2.7V | 18:12:15 | 01:37:39 | 00:00:00 | |
| OE5MMP-10 | 2026-09-04 00:07:05 | 48.39908 | 10.02469 | 314° | 18km/h | 24917m | 4.8m/s | -50.7°C | 3.9% | 27.2hPa | 2.6V | 00:00:00 | 01:37:38 | 00:00:00 | |
| BAUMI2-15 | 2026-09-04 00:07:04 | 48.39906 | 10.02471 | 322° | 18km/h | 24912m | 5.4m/s | -50.7°C | 3.9% | 27.2hPa | 2.6V | 00:00:00 | 01:37:37 | 00:00:00 | |
| SONDE2-11 | 2026-09-04 00:07:03 | 48.39900 | 10.02479 | 319° | 16km/h | 24902m | 4.4m/s | -50.8°C | 1.2% | 27.3hPa | 2.6V | 00:00:00 | 00:00:00 | 00:00:00 | |
| DO3MHA-12 | 2026-09-04 00:07:00 | 48.39893 | 10.02491 | 307° | 16km/h | 24892m | 5.7m/s | -50.7°C | 3.9% | 27.3hPa | 2.6V | 00:00:00 | 01:37:33 | 00:00:00 | |
| OE9MKV-15 | 2026-09-04 00:06:59 | 48.39890 | 10.02498 | 305° | 20km/h | 24887m | 4.7m/s | -50.7°C | 3.9% | 27.3hPa | 2.6V | 00:00:00 | 01:37:32 | 00:00:00 | |
| DM0DOS-11 | 2026-09-04 00:06:58 | 48.39877 | 10.02516 | 332° | 13km/h | 24865m | 5.5m/s | -50.7°C | 3.9% | 27.4hPa | 2.6V | 08:30:00 | 01:37:28 | 00:00:00 | |
| DK7TD | 2026-09-04 00:06:55 | 48.39877 | 10.02516 | 333° | 13km/h | 24865m | 5.5m/s | -50.7°C | 0.8% | 27.4hPa | 2.6V | 18:12:15 | 01:37:28 | 00:00:00 | |
| IW2NTF | 2026-09-04 00:06:55 | 48.39871 | 10.02521 | 335° | 15km/h | 24854m | 5m/s | -50.7°C | 3.9% | 27.5hPa | 2.6V | 08:30:00 | 01:37:26 | 00:00:00 | |
| DL6DJ-15 | 2026-09-04 00:06:50 | 48.39853 | 10.02528 | 336° | 24km/h | 24834m | 4.1m/s | -50.8°C | 1.1% | 27.6hPa | 2.6V | 00:00:00 | 00:00:00 | 00:00:00 | |
| DF3TZ-5 | 2026-09-04 00:06:48 | 48.39842 | 10.02540 | 313° | 29km/h | 24823m | 5.8m/s | -50.8°C | 1.2% | 27.7hPa | 2.6V | 00:00:00 | 00:00:00 | 00:00:00 | |
| DM0DOS-11 | 2026-09-04 00:06:47 | 48.39832 | 10.02560 | 303° | 31km/h | 24812m | 5.7m/s | -50.7°C | 3.8% | 27.7hPa | 2.6V | 08:30:00 | 01:37:18 | 00:00:00 | |
| IW2NTF | 2026-09-04 00:06:47 | 48.39825 | 10.02579 | 298° | 27km/h | 24802m | 4.7m/s | -50.8°C | 3.9% | 27.7hPa | 2.6V | 08:30:00 | 01:37:16 | 00:00:00 | |
| DK7TD | 2026-09-04 00:06:44 | 48.39828 | 10.02569 | 301° | 29km/h | 24806m | 5.3m/s | -50.8°C | 0.8% | 27.7hPa | 2.7V | 18:12:15 | 01:37:17 | 00:00:00 | |
| BAUMI2-15 | 2026-09-04 00:06:44 | 48.39828 | 10.02569 | 301° | 24km/h | 24807m | 5.2m/s | 0°C | 0% | 0hPa | 2.6V | 00:00:00 | 01:37:17 | 08:30:00 | |
| DB0UT-7 | 2026-09-04 00:06:43 | 48.39825 | 10.02579 | 299° | 20km/h | 24802m | 4.7m/s | -50.7°C | 3.9% | 27.7hPa | 2.6V | 00:00:00 | 01:37:16 | 00:00:00 | |
| DH7VM-15 | 2026-09-04 00:06:41 | 48.39822 | 10.02588 | 298° | 26km/h | 24797m | 5.7m/s | -50.8°C | 1.1% | 27.8hPa | 2.6V | 00:00:00 | 00:00:00 | 00:00:00 | |
| DO3MHA-12 | 2026-09-04 00:06:40 | 48.39817 | 10.02601 | 303° | 16km/h | 24787m | 4.3m/s | -50.8°C | 3.8% | 27.8hPa | 2.6V | 00:00:00 | 01:37:13 | 00:00:00 | |
| AZAK | 2026-09-04 00:06:39 | 48.39815 | 10.02605 | 315° | 9km/h | 24782m | 6.5m/s | -50.8°C | 1.1% | 27.8hPa | 2.6V | 00:00:00 | 00:00:00 | 00:00:00 | |
| DM0DOS-11 | 2026-09-04 00:06:38 | 48.39808 | 10.02610 | 318° | 15km/h | 24761m | 5.1m/s | -51°C | 3.9% | 27.9hPa | 2.6V | 08:30:00 | 01:37:08 | 00:00:00 | |
| IW2NTF | 2026-09-04 00:06:37 | 48.39801 | 10.02621 | 303° | 24km/h | 24751m | 5.2m/s | -51°C | 3.9% | 27.9hPa | 2.7V | 08:30:00 | 01:37:06 | 00:00:00 | |
| DK7TD | 2026-09-04 00:06:33 | 48.39801 | 10.02621 | 303° | 24km/h | 24751m | 5.2m/s | -51°C | 0.8% | 27.9hPa | 2.7V | 18:12:15 | 01:37:06 | 00:00:00 | |
| SONDE2-11 | 2026-09-04 00:06:32 | 48.39795 | 10.02639 | 297° | 27km/h | 24741m | 4.7m/s | -51.0°C | 1.2% | 28.0hPa | 2.6V | 00:00:00 | 00:00:00 | 00:00:00 | |
| DO3MHA-12 | 2026-09-04 00:06:30 | 48.39792 | 10.02648 | 297° | 18km/h | 24736m | 4.5m/s | -51.0°C | 3.9% | 28.0hPa | 2.6V | 00:00:00 | 01:37:03 | 00:00:00 | |
| PG1ADW-2 | 2026-09-04 00:06:29 | 48.39788 | 10.02658 | 296° | 20km/h | 24731m | 5.3m/s | -51.1°C | 4.0% | 28.0hPa | 2.6V | 00:00:00 | 00:00:00 | 00:00:00 | |
| DF1GD-15 | 2026-09-04 00:06:28 | 48.39788 | 10.02658 | 296° | 29km/h | 24731m | 5.4m/s | -51.1°C | 1.2% | 28.0hPa | 2.5V | 00:00:00 | 00:00:00 | 00:00:00 | |
| IW2NTF | 2026-09-04 00:06:27 | 48.39784 | 10.02691 | 163° | 15km/h | 24700m | 4.9m/s | -51.3°C | 4.1% | 28.2hPa | 2.5V | 08:30:00 | 01:36:56 | 00:00:00 | |
| DM0DOS-11 | 2026-09-04 00:06:27 | 48.39781 | 10.02690 | 265° | 9km/h | 24712m | 6.1m/s | -51.2°C | 4% | 28.1hPa | 2.6V | 08:30:00 | 01:36:58 | 00:00:00 | |
| DK7TD | 2026-09-04 00:06:23 | 48.39784 | 10.02691 | 164° | 15km/h | 24700m | 4.9m/s | -51.3°C | 0.9% | 28.2hPa | 2.5V | 18:12:15 | 01:36:56 | 00:00:00 | |
| BIOWL1-15 | 2026-09-04 00:06:20 | 48.39793 | 10.02718 | 304° | 27km/h | 24666m | 4.9m/s | 0°C | 0% | 28.3hPa | 2.5V | 18:12:15 | 01:36:49 | 00:00:00 | |
| DM0DOS-11 | 2026-09-04 00:06:20 | 48.39789 | 10.02727 | 304° | 29km/h | 24661m | 4.1m/s | -51.2°C | 4% | 28.4hPa | 2.6V | 08:30:00 | 01:36:48 | 00:00:00 | |
| DO3MHA-12 | 2026-09-04 00:06:20 | 48.39796 | 10.02691 | 216° | 24km/h | 24687m | 4.0m/s | -51.3°C | 4.1% | 28.2hPa | 2.6V | 00:00:00 | 01:36:53 | 00:00:00 | |
| SONCRA | 2026-09-04 00:06:19 | 48.39798 | 10.02702 | 277° | 18km/h | 24678m | 5.9m/s | -51.3°C | 1.2% | 28.3hPa | 2.6V | 00:00:00 | 00:00:00 | 00:00:00 | |
| IW2NTF | 2026-09-04 00:06:18 | 48.39782 | 10.02747 | 290° | 29km/h | 24652m | 5.2m/s | -51.2°C | 4% | 28.4hPa | 2.6V | 08:30:00 | 01:36:46 | 00:00:00 | |
| DK7TD | 2026-09-04 00:06:12 | 48.39781 | 10.02756 | 277° | 24km/h | 24647m | 4.8m/s | -51.2°C | 0.9% | 28.4hPa | 2.7V | 18:12:15 | 01:36:45 | 00:00:00 | |
| DM7RM-13 | 2026-09-04 00:06:11 | 48.39780 | 10.02756 | 278° | 24km/h | 24647m | 4.8m/s | -51.2°C | 1.2% | 28.4hPa | 2.5V | 00:00:00 | 00:00:00 | 00:00:00 | |
| DB0ND-19 | 2026-09-04 00:06:10 | 48.39784 | 10.02776 | 220° | 15km/h | 24631m | 5.2m/s | -51.1°C | 1.2% | 28.5hPa | 2.5V | 00:00:00 | 00:00:00 | 00:00:00 | |
| DM0DOS-11 | 2026-09-04 00:06:09 | 48.39800 | 10.02791 | 225° | 22km/h | 24610m | 4.3m/s | -51°C | 3.9% | 28.6hPa | 2.5V | 08:30:00 | 01:36:38 | 00:00:00 | |
| BIOWL1-15 | 2026-09-04 00:06:09 | 48.39796 | 10.02786 | 213° | 22km/h | 24615m | 5.1m/s | 0°C | 0% | 28.6hPa | 2.7V | 18:12:15 | 01:36:39 | 00:00:00 | |
| DF1GD-15 | 2026-09-04 00:06:08 | 48.39787 | 10.02779 | 208° | 16km/h | 24626m | 4.7m/s | -51.1°C | 1.2% | 28.5hPa | 2.6V | 00:00:00 | 00:00:00 | 00:00:00 | |
| IW2NTF | 2026-09-04 00:06:07 | 48.39805 | 10.02804 | 258° | 18km/h | 24600m | 6m/s | -51°C | 3.9% | 28.6hPa | 2.6V | 08:30:00 | 01:36:36 | 00:00:00 | |
| DK7TD | 2026-09-04 00:06:01 | 48.39804 | 10.02818 | 284° | 20km/h | 24590m | 4.6m/s | -51.1°C | 0.8% | 28.6hPa | 2.7V | 18:12:15 | 01:36:34 | 00:00:00 | |
| DO3MHA-12 | 2026-09-04 00:06:00 | 48.39803 | 10.02826 | 282° | 24km/h | 24585m | 5.8m/s | -51.1°C | 3.9% | 28.6hPa | 2.7V | 00:00:00 | 01:36:33 | 08:30:00 | |
| DM0DOS-11 | 2026-09-04 00:05:59 | 48.39809 | 10.02862 | 218° | 22km/h | 24558m | 4.7m/s | -51.3°C | 3.9% | 28.8hPa | 2.6V | 08:30:00 | 01:36:28 | 00:00:00 | |
| OE9MKV-15 | 2026-09-04 00:05:58 | 48.39803 | 10.02843 | 263° | 24km/h | 24574m | 4.6m/s | -51.1°C | 3.9% | 28.7hPa | 2.5V | 00:00:00 | 01:36:31 | 00:00:00 | |
| NBG1-10 | 2026-09-04 00:05:57 | 48.39804 | 10.02850 | 252° | 27km/h | 24569m | 6.0m/s | -51.2°C | 4.0% | 28.7hPa | 2.5V | 00:00:00 | 01:36:30 | 00:00:00 | |
| IW2NTF | 2026-09-04 00:05:56 | 48.39820 | 10.02873 | 212° | 29km/h | 24546m | 5.7m/s | -51.3°C | 4% | 28.9hPa | 2.7V | 08:30:00 | 01:36:26 | 00:00:00 | |
| BIOWL1-15 | 2026-09-04 00:05:54 | 48.39814 | 10.02867 | 214° | 26km/h | 24553m | 6.4m/s | 0°C | 0% | 28.8hPa | 2.6V | 18:12:15 | 01:36:27 | 00:00:00 | |
| DK7TD | 2026-09-04 00:05:50 | 48.39837 | 10.02890 | 221° | 22km/h | 24530m | 5.1m/s | -51.3°C | 0.8% | 28.9hPa | 2.5V | 18:12:15 | 01:36:23 | 00:00:00 | |
| DO3MHA-12 | 2026-09-04 00:05:50 | 48.39837 | 10.02890 | 221° | 24km/h | 24531m | 5.0m/s | -51.2°C | 3.9% | 28.9hPa | 2.6V | 00:00:00 | 01:36:23 | 00:00:00 | |
| DM0DOS-11 | 2026-09-04 00:05:49 | 48.39846 | 10.02929 | 261° | 27km/h | 24504m | 4.9m/s | -51.5°C | 4% | 29hPa | 2.6V | 08:30:00 | 01:36:18 | 00:00:00 | |
| DL6DJ-15 | 2026-09-04 00:05:48 | 48.39844 | 10.02910 | 257° | 22km/h | 24515m | 6.3m/s | -51.3°C | 1.1% | 29.0hPa | 2.6V | 00:00:00 | 00:00:00 | 00:00:00 | |
| DO3MHA-11 | 2026-09-04 00:05:47 | 48.39844 | 10.02910 | 258° | 27km/h | 24515m | 6.3m/s | -51.3°C | 3.9% | 28.9hPa | 2.6V | 00:00:00 | 01:36:20 | 00:00:00 | |
| IW2NTF | 2026-09-04 00:05:46 | 48.39849 | 10.02948 | 249° | 24km/h | 24494m | 5.4m/s | -51.7°C | 4.1% | 29.1hPa | 2.5V | 08:30:00 | 01:36:16 | 00:00:00 | |
| DF3TZ-5 | 2026-09-04 00:05:45 | 48.39846 | 10.02929 | 261° | 27km/h | 24504m | 4.9m/s | -51.5°C | 1.2% | 29.0hPa | 2.6V | 00:00:00 | 00:00:00 | 00:00:00 | |
| DK7TD | 2026-09-04 00:05:40 | 48.39860 | 10.02971 | 225° | 27km/h | 24479m | 6m/s | -51.7°C | 0.9% | 29.1hPa | 2.6V | 18:12:15 | 01:36:13 | 00:00:00 | |
| DO3MHA-12 | 2026-09-04 00:05:40 | 48.39860 | 10.02971 | 225° | 31km/h | 24480m | 6.0m/s | -51.6°C | 4.1% | 29.1hPa | 2.7V | 00:00:00 | 01:36:13 | 00:00:00 | |
| DB0ND-19 | 2026-09-04 00:05:39 | 48.39872 | 10.02986 | 217° | 35km/h | 24469m | 4.6m/s | -51.7°C | 1.2% | 29.2hPa | 2.7V | 00:00:00 | 00:00:00 | 00:00:00 | |
| DM0DOS-11 | 2026-09-04 00:05:38 | 48.39895 | 10.03007 | 207° | 35km/h | 24453m | 4.9m/s | -51.6°C | 4% | 29.3hPa | 2.7V | 08:30:00 | 01:36:08 | 00:00:00 | |
| DO3MHA-11 | 2026-09-04 00:05:37 | 48.39879 | 10.02994 | 214° | 29km/h | 24464m | 5.6m/s | -51.6°C | 4.1% | 29.1hPa | 2.6V | 00:00:00 | 01:36:10 | 00:00:00 | |
| IW2NTF | 2026-09-04 00:05:36 | 48.39908 | 10.03020 | 218° | 29km/h | 24443m | 6m/s | -51.6°C | 4% | 29.3hPa | 2.6V | 08:30:00 | 01:36:06 | 00:00:00 | |
| DK7TD | 2026-09-04 00:05:30 | 48.39922 | 10.03043 | 229° | 26km/h | 24428m | 5.9m/s | -51.6°C | 0.9% | 29.4hPa | 2.6V | 18:12:15 | 01:36:03 | 00:00:00 | |
| PG1ADW-2 | 2026-09-04 00:05:29 | 48.39927 | 10.03049 | 222° | 26km/h | 24422m | 5.4m/s | -51.5°C | 4.0% | 29.4hPa | 2.6V | 00:00:00 | 00:00:00 | 08:30:00 | |
| OE9MKV-15 | 2026-09-04 00:05:28 | 48.39931 | 10.03055 | 217° | 16km/h | 24417m | 4.5m/s | -51.5°C | 4.0% | 29.4hPa | 2.5V | 00:00:00 | 01:36:01 | 00:00:00 | |
| DO3MHA-11 | 2026-09-04 00:05:27 | 48.39936 | 10.03061 | 216° | 29km/h | 24413m | 4.6m/s | -51.5°C | 4.0% | 29.4hPa | 2.5V | 00:00:00 | 01:36:00 | 00:00:00 | |
| IW2NTF | 2026-09-04 00:05:26 | 48.39960 | 10.03088 | 213° | 33km/h | 24391m | 5.9m/s | -51.6°C | 3.9% | 29.6hPa | 2.5V | 08:30:00 | 01:35:56 | 00:00:00 | |
| BIOWL1-15 | 2026-09-04 00:05:22 | 48.39975 | 10.03101 | 208° | 33km/h | 24380m | 4.8m/s | 0°C | 0% | 29.6hPa | 2.6V | 18:12:15 | 01:35:54 | 00:00:00 | |
| DK7TD | 2026-09-04 00:05:20 | 48.39981 | 10.03107 | 212° | 31km/h | 24375m | 5.8m/s | -51.7°C | 0.8% | 29.6hPa | 2.7V | 18:12:15 | 01:35:53 | 00:00:00 | |
| DO3MHA-12 | 2026-09-04 00:05:20 | 48.39981 | 10.03106 | 213° | 22km/h | 24375m | 5.7m/s | -51.6°C | 4.0% | 29.6hPa | 2.5V | 00:00:00 | 01:35:53 | 00:00:00 | |
| OE3JTB-15 | 2026-09-04 00:05:18 | 48.39992 | 10.03120 | 224° | 15km/h | 24364m | 4.4m/s | -51.7°C | 4.0% | 29.7hPa | 2.5V | 00:00:00 | 00:00:00 | 00:00:00 | |
| SONCRA | 2026-09-04 00:05:17 | 48.40000 | 10.03131 | 226° | 16km/h | 24353m | 5.6m/s | -51.9°C | 1.2% | 29.7hPa | 2.7V | 00:00:00 | 00:00:00 | 00:00:00 | |
| IW2NTF | 2026-09-04 00:05:16 | 48.40008 | 10.03147 | 237° | 18km/h | 24337m | 5.1m/s | -52°C | 4% | 29.8hPa | 2.7V | 08:30:00 | 01:35:46 | 00:00:00 | |
| DK7TD | 2026-09-04 00:05:09 | 48.40025 | 10.03168 | 206° | 26km/h | 24315m | 4.9m/s | -52.2°C | 0.9% | 29.9hPa | 2.6V | 18:12:15 | 01:35:42 | 00:00:00 | |
| DO3MHA-11 | 2026-09-04 00:05:07 | 48.40036 | 10.03177 | 213° | 15km/h | 24305m | 5.9m/s | -52.2°C | 4.1% | 29.9hPa | 2.6V | 00:00:00 | 01:35:40 | 00:00:00 | |
| IW2NTF | 2026-09-04 00:05:06 | 48.40053 | 10.03194 | 217° | 11km/h | 24283m | 4.5m/s | -52.3°C | 4.1% | 30.1hPa | 2.6V | 08:30:00 | 01:35:36 | 00:00:00 | |
| DK7TD | 2026-09-04 00:04:59 | 48.40055 | 10.03209 | 276° | 11km/h | 24263m | 4.3m/s | -52.3°C | 1% | 30.1hPa | 2.6V | 18:12:15 | 01:35:32 | 00:00:00 | |
| SONDE2-11 | 2026-09-04 00:04:59 | 48.40080 | 10.03247 | 223° | 13km/h | 24195m | 4.5m/s | -52.4°C | -1.0% | -1.0hPa | 2.7V | 00:00:00 | 00:00:00 | 00:00:00 | |
| BIOWL1-15 | 2026-09-04 00:04:59 | 48.40058 | 10.03219 | 216° | 13km/h | 24247m | 4.6m/s | 0°C | 0% | 0hPa | 2.5V | 18:12:15 | 01:35:29 | 00:00:00 | |
| DO3MHA-11 | 2026-09-04 00:04:57 | 48.40056 | 10.03216 | 230° | 11km/h | 24253m | 5.1m/s | -52.3°C | 4.1% | 30.1hPa | 2.7V | 00:00:00 | 01:35:30 | 00:00:00 | |
| IW2NTF | 2026-09-04 00:04:56 | 48.40067 | 10.03230 | 228° | 16km/h | 24232m | 4.8m/s | -52.4°C | 4.1% | 30.3hPa | 2.7V | 08:30:00 | 01:35:26 | 00:00:00 | |
| DK7TD | 2026-09-04 00:04:53 | 48.40075 | 10.03240 | 201° | 7km/h | 24211m | 4.9m/s | -52.4°C | 0.9% | 30.4hPa | 2.6V | 18:12:15 | 01:35:22 | 00:00:00 | |
| DM0DOS-11 | 2026-09-04 00:04:53 | 48.40083 | 10.03250 | 214° | 16km/h | 24190m | 5.2m/s | -52.4°C | 4.1% | 30.5hPa | 2.5V | 08:30:00 | 01:35:18 | 00:00:00 | |
| OE5MMP-10 | 2026-09-04 00:04:52 | 48.40069 | 10.03234 | 227° | 26km/h | 24227m | 4.8m/s | 0°C | 0% | 0hPa | 2.7V | 00:00:00 | 01:35:25 | 00:00:00 | |
| NBG1-10 | 2026-09-04 00:04:51 | 48.40072 | 10.03237 | 219° | 22km/h | 24222m | 6.1m/s | -52.4°C | 4.2% | 30.3hPa | 2.7V | 00:00:00 | 01:35:24 | 00:00:00 | |
| IW2NTF | 2026-09-04 00:04:50 | 48.40102 | 10.03263 | 205° | 24km/h | 24169m | 6.2m/s | -52.3°C | 4.1% | 30.6hPa | 2.7V | 08:30:00 | 01:35:14 | 00:00:00 | |
| PG1ADW-2 | 2026-09-04 00:04:48 | 48.40077 | 10.03241 | 215° | 20km/h | 24206m | 6.0m/s | -52.4°C | 4.1% | 30.3hPa | 2.7V | 00:00:00 | 01:35:21 | 00:00:00 | |
| DB0NH | 2026-09-04 00:04:47 | 48.40078 | 10.03243 | 226° | 26km/h | 24200m | 5.2m/s | -52.3°C | 4.1% | 30.4hPa | 2.7V | 00:00:00 | 01:35:20 | 00:00:00 | |
| DJ8HS-15 | 2026-09-04 00:04:45 | 48.40083 | 10.03250 | 215° | 22km/h | 24190m | 5.2m/s | -52.3°C | 4.1% | 30.4hPa | 2.7V | 00:00:00 | 01:35:18 | 00:00:00 | |
| DM0DOS-11 | 2026-09-04 00:04:43 | 48.40140 | 10.03284 | 205° | 18km/h | 24130m | 5.8m/s | -52.5°C | 4% | 30.8hPa | 2.7V | 08:30:00 | 01:35:07 | 00:00:00 | |
| BIOWL1-15 | 2026-09-04 00:04:40 | 48.40113 | 10.03271 | 206° | 24km/h | 24157m | 5.6m/s | 0°C | 0% | 0hPa | 2.5V | 18:12:15 | 01:35:12 | 00:00:00 | |
| DK7TD | 2026-09-04 00:04:39 | 48.40119 | 10.03274 | 200° | 24km/h | 24151m | 6.4m/s | -52.4°C | 0.9% | 30.7hPa | 2.5V | 18:12:15 | 01:35:11 | 00:00:00 | |
| DB0ND-19 | 2026-09-04 00:04:37 | 48.40130 | 10.03279 | 192° | 22km/h | 24141m | 4.4m/s | -52.4°C | 1.2% | 30.7hPa | 2.5V | 00:00:00 | 00:00:00 | 00:00:00 | |
| DK5PH-5 | 2026-09-04 00:04:35 | 48.40136 | 10.03281 | 197° | 29km/h | 24136m | 5.6m/s | -52.4°C | 4.0% | 30.7hPa | 2.5V | 00:00:00 | 01:35:08 | 00:00:00 | |
| AZAK | 2026-09-04 00:04:34 | 48.40140 | 10.03284 | 206° | 18km/h | 24130m | 5.8m/s | -52.5°C | 1.2% | 30.8hPa | 2.5V | 00:00:00 | 00:00:00 | 00:00:00 | |
| IW2NTF | 2026-09-04 00:04:33 | 48.40152 | 10.03292 | 195° | 16km/h | 24114m | 6.2m/s | -52.9°C | 4.2% | 30.9hPa | 2.5V | 08:30:00 | 01:35:04 | 00:00:00 | |
| DF7PN | 2026-09-04 00:04:33 | 48.40148 | 10.03290 | 205° | 16km/h | 24120m | 5.1m/s | -52.7°C | 1.2% | 30.8hPa | 2.5V | 00:00:00 | 00:00:00 | 00:00:00 | |
| OE5DRO-10 | 2026-09-04 00:04:31 | 48.40152 | 10.03292 | 196° | 31km/h | 24114m | 6.2m/s | -52.8°C | 4.2% | 30.8hPa | 2.5V | 00:00:00 | 00:00:00 | 08:30:00 | |
| DO3MHA-12 | 2026-09-04 00:04:30 | 48.40156 | 10.03293 | 187° | 31km/h | 24108m | 5.2m/s | -53.0°C | 4.3% | 30.8hPa | 2.6V | 00:00:00 | 01:35:03 | 08:30:00 | |
| DM0DOS-11 | 2026-09-04 00:04:29 | 48.40188 | 10.03304 | 194° | 33km/h | 24083m | 4.4m/s | -53.1°C | 4.3% | 31hPa | 2.6V | 08:30:00 | 01:34:58 | 00:00:00 | |
| DK7TD | 2026-09-04 00:04:27 | 48.40174 | 10.03297 | 195° | 27km/h | 24093m | 5.6m/s | -53.1°C | 1% | 30.9hPa | 2.7V | 18:12:15 | 01:35:00 | 00:00:00 | |
| BIOWL1-15 | 2026-09-04 00:04:27 | 48.40215 | 10.03309 | 183° | 38km/h | 24066m | 4.6m/s | 0°C | 0% | 0hPa | 2.7V | 18:12:15 | 01:34:55 | 00:00:00 | |
| DF1GD-15 | 2026-09-04 00:04:26 | 48.40188 | 10.03303 | 196° | 33km/h | 24083m | 4.4m/s | -53.1°C | 1.3% | 31.0hPa | 2.7V | 00:00:00 | 00:00:00 | 00:00:00 | |
| OE9MKV-15 | 2026-09-04 00:04:25 | 48.40196 | 10.03306 | 192° | 33km/h | 24078m | 6.2m/s | -53.1°C | 4.3% | 31.0hPa | 2.7V | 00:00:00 | 01:34:57 | 00:00:00 | |
| DO9LL-15 | 2026-09-04 00:04:24 | 48.40205 | 10.03308 | 186° | 33km/h | 24072m | 5.7m/s | -53.1°C | 4.3% | 31.0hPa | 2.7V | 00:00:00 | 01:34:56 | 00:00:00 | |
| IW2NTF | 2026-09-04 00:04:23 | 48.40224 | 10.03310 | 183° | 38km/h | 24061m | 6.2m/s | -53.1°C | 4.3% | 31.1hPa | 2.7V | 08:30:00 | 01:34:54 | 00:00:00 | |
| DK7TD | 2026-09-04 00:04:18 | 48.40260 | 10.03308 | 169° | 35km/h | 24039m | 5.4m/s | -53.1°C | 1% | 31.2hPa | 2.5V | 18:12:15 | 01:34:50 | 00:00:00 | |
| DM0DOS-11 | 2026-09-04 00:04:17 | 48.40276 | 10.03303 | 170° | 31km/h | 24029m | 6.4m/s | -53°C | 4.2% | 31.3hPa | 2.7V | 08:30:00 | 01:34:48 | 00:00:00 | |
| IW2NTF | 2026-09-04 00:04:15 | 48.40306 | 10.03300 | 176° | 33km/h | 24006m | 4.8m/s | -53°C | 4.2% | 31.4hPa | 2.6V | 08:30:00 | 01:34:44 | 00:00:00 | |
| DL6DJ-15 | 2026-09-04 00:04:15 | 48.40284 | 10.03302 | 175° | 27km/h | 24023m | 5.6m/s | -53.0°C | 1.3% | 31.3hPa | 2.5V | 00:00:00 | 00:00:00 | 00:00:00 | |
| OE3JTB-15 | 2026-09-04 00:04:14 | 48.40284 | 10.03302 | 176° | 29km/h | 24023m | 5.5m/s | -53.0°C | 4.2% | 31.2hPa | 2.5V | 00:00:00 | 01:34:47 | 00:00:00 | |
| DB0UT-7 | 2026-09-04 00:04:13 | 48.40291 | 10.03301 | 178° | 31km/h | 24018m | 5.0m/s | -53.0°C | 4.2% | 31.3hPa | 2.5V | 00:00:00 | 00:00:00 | 08:30:00 | |
| OE5DRO-10 | 2026-09-04 00:04:12 | 48.40298 | 10.03301 | 177° | 31km/h | 24012m | 6.1m/s | -53.0°C | 4.2% | 31.3hPa | 2.5V | 00:00:00 | 00:00:00 | 00:00:00 | |
| DM0DOS-11 | 2026-09-04 00:04:11 | 48.40360 | 10.03296 | 165° | 37km/h | 23974m | 6.1m/s | -53.1°C | 4.3% | 31.5hPa | 2.5V | 08:30:00 | 01:34:38 | 00:00:00 | |
| DK7TD | 2026-09-04 00:04:07 | 48.40342 | 10.03300 | 180° | 37km/h | 23985m | 4.8m/s | -53°C | 1% | 31.5hPa | 2.7V | 18:12:15 | 01:34:40 | 00:00:00 | |
| DB0ND-19 | 2026-09-04 00:04:07 | 48.40360 | 10.03296 | 165° | 37km/h | 23975m | 6.1m/s | -53.1°C | 1.3% | 31.5hPa | 2.5V | 00:00:00 | 00:00:00 | 00:00:00 | |
| DK5PH-5 | 2026-09-04 00:04:06 | 48.40360 | 10.03296 | 166° | 27km/h | 23975m | 6.1m/s | -53.0°C | 4.3% | 31.5hPa | 2.5V | 00:00:00 | 01:34:38 | 08:30:00 | |
| DJ8HS-15 | 2026-09-04 00:04:05 | 48.40360 | 10.03296 | 166° | 29km/h | 23975m | 6.1m/s | -53.0°C | 4.3% | 31.5hPa | 2.6V | 00:00:00 | 01:34:38 | 00:00:00 | |
| DF1GD-15 | 2026-09-04 00:04:04 | 48.40360 | 10.03296 | 166° | 37km/h | 23975m | 6.1m/s | -53.1°C | 1.3% | 31.5hPa | 2.6V | 00:00:00 | 00:00:00 | 00:00:00 | |
| DF7PN | 2026-09-04 00:04:02 | 48.40390 | 10.03275 | 157° | 26km/h | 23954m | 5.3m/s | -53.1°C | 1.2% | 31.6hPa | 2.6V | 00:00:00 | 00:00:00 | 00:00:00 | |
| DO3MHA-12 | 2026-09-04 00:04:00 | 48.40396 | 10.03272 | 166° | 29km/h | 23949m | 4.9m/s | -53.1°C | 4.2% | 31.6hPa | 2.6V | 00:00:00 | 01:34:33 | 00:00:00 | |
| DM0DOS-11 | 2026-09-04 00:03:59 | 48.40432 | 10.03262 | 170° | 29km/h | 23920m | 5.7m/s | -53.5°C | 4.3% | 31.8hPa | 2.5V | 08:30:00 | 01:34:28 | 00:00:00 | |
| DK7TD | 2026-09-04 00:03:56 | 48.40424 | 10.03264 | 169° | 31km/h | 23926m | 5.5m/s | -53.4°C | 1% | 31.7hPa | 2.7V | 18:12:15 | 01:34:29 | 00:00:00 | |
| OE9MKV-15 | 2026-09-04 00:03:54 | 48.40439 | 10.03260 | 173° | 22km/h | 23915m | 5.5m/s | -53.5°C | 4.3% | 31.8hPa | 2.6V | 00:00:00 | 01:34:27 | 00:00:00 | |
| DO9LL-15 | 2026-09-04 00:03:53 | 48.40446 | 10.03259 | 173° | 22km/h | 23909m | 5.1m/s | -53.7°C | 4.3% | 31.8hPa | 2.6V | 00:00:00 | 01:34:26 | 00:00:00 | |
| IW2NTF | 2026-09-04 00:03:52 | 48.40461 | 10.03255 | 165° | 31km/h | 23900m | 5m/s | -53.9°C | 4.4% | 31.9hPa | 2.7V | 08:30:00 | 01:34:24 | 00:00:00 | |
| DL1ZP-14 | 2026-09-04 00:03:52 | 48.40461 | 10.03255 | 165° | 29km/h | 23900m | 5.0m/s | -53.9°C | 1.3% | 31.9hPa | 2.7V | 00:00:00 | 00:00:00 | 00:00:00 | |
| BIOWL1-15 | 2026-09-04 00:03:51 | 48.40527 | 10.03163 | 128° | 27km/h | 23818m | 4.4m/s | 0°C | 0% | 0hPa | 2.7V | 18:12:15 | 01:34:09 | 00:00:00 | |
| DO3MHA-12 | 2026-09-04 00:03:50 | 48.40468 | 10.03251 | 160° | 26km/h | 23894m | 5.7m/s | -53.9°C | 4.4% | 31.9hPa | 2.6V | 00:00:00 | 01:34:23 | 00:00:00 | |
| DM0DOS-11 | 2026-09-04 00:03:48 | 48.40499 | 10.03223 | 131° | 18km/h | 23868m | 4.9m/s | -53.9°C | 4.4% | 32.1hPa | 2.6V | 08:30:00 | 01:34:18 | 00:00:00 | |
| DK7TD | 2026-09-04 00:03:45 | 48.40499 | 10.03223 | 131° | 18km/h | 23868m | 4.9m/s | -53.9°C | 1.1% | 32.1hPa | 2.6V | 18:12:15 | 01:34:18 | 00:00:00 | |
| NBG1-10 | 2026-09-04 00:03:45 | 48.40499 | 10.03223 | 132° | 16km/h | 23868m | 4.9m/s | -53.9°C | 4.4% | 32.0hPa | 2.7V | 00:00:00 | 01:34:18 | 00:00:00 | |
| SONCRA | 2026-09-04 00:03:44 | 48.40504 | 10.03211 | 118° | 20km/h | 23857m | 6.1m/s | -53.9°C | 1.3% | 32.1hPa | 2.7V | 00:00:00 | 00:00:00 | 00:00:00 | |
| OE5DXL-15 | 2026-09-04 00:03:43 | 48.40504 | 10.03210 | 119° | 16km/h | 23857m | 6.1m/s | -53.9°C | 4.4% | 32.1hPa | 2.7V | 00:00:00 | 00:00:00 | 00:00:00 | |
| DM0DOS-11 | 2026-09-04 00:03:42 | 48.40531 | 10.03155 | 126° | 26km/h | 23813m | 4.6m/s | -54°C | 4.4% | 32.3hPa | 2.7V | 08:30:00 | 01:34:08 | 00:00:00 | |
| DK7TD | 2026-09-04 00:03:34 | 48.40534 | 10.03148 | 123° | 24km/h | 23808m | 5.8m/s | -54°C | 1.1% | 32.3hPa | 2.6V | 18:12:15 | 01:34:07 | 00:00:00 | |
| AZAK | 2026-09-04 00:03:34 | 48.40539 | 10.03134 | 109° | 20km/h | 23798m | 4.5m/s | -54.1°C | 1.3% | 32.4hPa | 2.7V | 00:00:00 | 00:00:00 | 00:00:00 | |
| IW2NTF | 2026-09-04 00:03:34 | 48.40540 | 10.03126 | 102° | 20km/h | 23792m | 5.8m/s | -54.1°C | 4.5% | 32.4hPa | 2.7V | 08:30:00 | 01:34:04 | 00:00:00 | |
| DF7PN | 2026-09-04 00:03:32 | 48.40541 | 10.03119 | 98° | 20km/h | 23787m | 5.4m/s | -54.2°C | 1.3% | 32.5hPa | 2.7V | 00:00:00 | 00:00:00 | 00:00:00 | |
| DO3MHA-12 | 2026-09-04 00:03:30 | 48.40541 | 10.03119 | 99° | 15km/h | 23787m | 5.3m/s | -54.1°C | 4.5% | 32.4hPa | 2.7V | 00:00:00 | 01:34:03 | 00:00:00 | |
| DM0DOS-11 | 2026-09-04 00:03:29 | 48.40542 | 10.03092 | 106° | 13km/h | 23759m | 6.3m/s | -54.3°C | 4.5% | 32.6hPa | 2.7V | 08:30:00 | 01:33:58 | 00:00:00 | |
| PG1ADW-2 | 2026-09-04 00:03:28 | 48.40542 | 10.03105 | 90° | 13km/h | 23777m | 6.0m/s | -54.1°C | 4.5% | 32.5hPa | 2.6V | 00:00:00 | 01:34:01 | 00:00:00 | |
| DM7RM-13 | 2026-09-04 00:03:27 | 48.40541 | 10.03100 | 89° | 13km/h | 23771m | 5.8m/s | -54.2°C | 1.4% | 32.5hPa | 2.7V | 00:00:00 | 00:00:00 | 00:00:00 | |
| IW2NTF | 2026-09-04 00:03:26 | 48.40549 | 10.03073 | 123° | 13km/h | 23740m | 6.3m/s | -54.4°C | 4.5% | 32.7hPa | 2.7V | 08:30:00 | 01:33:54 | 00:00:00 | |
| BIOWL1-15 | 2026-09-04 00:03:25 | 48.40542 | 10.03092 | 106° | 13km/h | 23759m | 6.3m/s | 0°C | 0% | 0hPa | 2.7V | 18:12:15 | 01:33:58 | 00:00:00 | |
| DK7TD | 2026-09-04 00:03:23 | 48.40545 | 10.03082 | 121° | 16km/h | 23749m | 4.1m/s | -54.4°C | 1.2% | 32.6hPa | 2.5V | 18:12:15 | 01:33:56 | 00:00:00 | |
| DF1GD-15 | 2026-09-04 00:03:23 | 48.40545 | 10.03082 | 122° | 16km/h | 23750m | 4.1m/s | -54.4°C | 1.4% | 32.6hPa | 2.7V | 00:00:00 | 00:00:00 | 00:00:00 | |
| DO3MHA-12 | 2026-09-04 00:03:20 | 48.40550 | 10.03069 | 116° | 13km/h | 23734m | 5.2m/s | -54.3°C | 4.5% | 32.7hPa | 2.7V | 00:00:00 | 01:33:53 | 00:00:00 | |
| DM0DOS-11 | 2026-09-04 00:03:17 | 48.40550 | 10.03049 | 71° | 16km/h | 23708m | 4.8m/s | -54.3°C | 4.4% | 32.9hPa | 2.7V | 08:30:00 | 01:33:48 | 00:00:00 | |
| BIOWL1-15 | 2026-09-04 00:03:16 | 48.40548 | 10.03043 | 60° | 16km/h | 23702m | 6.2m/s | 0°C | 0% | 0hPa | 2.7V | 18:12:15 | 01:33:47 | 00:00:00 | |
| OE5DRO-10 | 2026-09-04 00:03:15 | 48.40550 | 10.03049 | 72° | 13km/h | 23708m | 4.7m/s | -54.2°C | 4.4% | 32.8hPa | 2.6V | 00:00:00 | 00:00:00 | 00:00:00 | |
| IW2NTF | 2026-09-04 00:03:13 | 48.40543 | 10.03030 | 65° | 11km/h | 23685m | 6m/s | -54.3°C | 4.5% | 33hPa | 2.6V | 08:30:00 | 01:33:44 | 00:00:00 | |
| DK7TD | 2026-09-04 00:03:12 | 48.40544 | 10.03034 | 53° | 13km/h | 23691m | 5.3m/s | -54.3°C | 1.1% | 33hPa | 2.5V | 18:12:15 | 01:33:45 | 00:00:00 | |
| NBG1-10 | 2026-09-04 00:03:12 | 48.40544 | 10.03034 | 53° | 15km/h | 23691m | 5.2m/s | -54.2°C | 4.5% | 32.9hPa | 2.7V | 00:00:00 | 01:33:45 | 00:00:00 | |
| DM0DOS-11 | 2026-09-04 00:03:11 | 48.40550 | 10.03012 | 133° | 16km/h | 23653m | 6.3m/s | -54.4°C | 4.6% | 33.1hPa | 2.7V | 08:30:00 | 01:33:38 | 00:00:00 | |
| DO3MHA-12 | 2026-09-04 00:03:10 | 48.40542 | 10.03027 | 93° | 13km/h | 23680m | 5.2m/s | -54.3°C | 4.5% | 33.0hPa | 2.6V | 00:00:00 | 01:33:43 | 00:00:00 | |
| DM7RM-13 | 2026-09-04 00:03:08 | 48.40545 | 10.03019 | 142° | 9km/h | 23664m | 4.5m/s | -54.4°C | 1.4% | 33.1hPa | 2.6V | 00:00:00 | 00:00:00 | 00:00:00 | |
| IW2NTF | 2026-09-04 00:03:07 | 48.40559 | 10.02989 | 100° | 11km/h | 23632m | 5.4m/s | -54.6°C | 4.6% | 33.2hPa | 2.6V | 08:30:00 | 01:33:34 | 00:00:00 | |
| BIOWL1-15 | 2026-09-04 00:03:06 | 48.40553 | 10.03007 | 127° | 20km/h | 23647m | 5m/s | 0°C | 0% | 0hPa | 2.7V | 18:12:15 | 01:33:37 | 00:00:00 | |
| DK7TD | 2026-09-04 00:03:01 | 48.40559 | 10.02989 | 100° | 13km/h | 23632m | 5.4m/s | -54.6°C | 1.2% | 33.2hPa | 2.6V | 18:12:15 | 01:33:34 | 00:00:00 | |
| DM0DOS-11 | 2026-09-04 00:02:54 | 48.40580 | 10.02908 | 136° | 16km/h | 23559m | 5.4m/s | -54.4°C | 4.6% | 33.6hPa | 2.5V | 08:30:00 | 01:33:20 | 00:00:00 | |
| IW2NTF | 2026-09-04 00:02:54 | 48.40567 | 10.02937 | 117° | 29km/h | 23579m | 4.5m/s | -54.6°C | 4.7% | 33.5hPa | 2.6V | 08:30:00 | 01:33:24 | 00:00:00 | |
| DK7TD | 2026-09-04 00:02:50 | 48.40571 | 10.02928 | 121° | 27km/h | 23575m | 4m/s | -54.5°C | 1.2% | 33.6hPa | 2.6V | 18:12:15 | 01:33:23 | 00:00:00 | |
| IW2NTF | 2026-09-04 00:02:46 | 48.40596 | 10.02884 | 118° | 15km/h | 23526m | 5.3m/s | -54.4°C | 4.6% | 33.8hPa | 2.6V | 08:30:00 | 01:33:14 | 00:00:00 | |
| DM0DOS-11 | 2026-09-04 00:02:42 | 48.40606 | 10.02853 | 111° | 29km/h | 23506m | 4m/s | -54.4°C | 4.6% | 33.9hPa | 2.5V | 08:30:00 | 01:33:10 | 00:00:00 | |
| DK7TD | 2026-09-04 00:02:40 | 48.40598 | 10.02879 | 113° | 18km/h | 23521m | 4.4m/s | -54.4°C | 1.2% | 33.9hPa | 2.6V | 18:12:15 | 01:33:13 | 00:00:00 | |
| BIOWL1-15 | 2026-09-04 00:02:40 | 48.40603 | 10.02863 | 113° | 27km/h | 23510m | 5.1m/s | 0°C | 0% | 0hPa | 2.7V | 18:12:15 | 01:33:11 | 00:00:00 | |
| IW2NTF | 2026-09-04 00:02:34 | 48.40619 | 10.02803 | 131° | 18km/h | 23475m | 5.1m/s | -54.2°C | 4.5% | 34.1hPa | 2.5V | 08:30:00 | 01:33:04 | 00:00:00 | |
| DM0DOS-11 | 2026-09-04 00:02:32 | 48.40627 | 10.02784 | 99° | 16km/h | 23453m | 4.8m/s | -54.2°C | 4.5% | 34.2hPa | 2.6V | 08:30:00 | 01:33:00 | 00:00:00 | |
| DK7TD | 2026-09-04 00:02:31 | 48.40622 | 10.02798 | 132° | 16km/h | 23470m | 4.8m/s | -54.2°C | 1.2% | 34.1hPa | 2.5V | 18:12:15 | 01:33:03 | 00:00:00 | |
| DL6DJ-15 | 2026-09-04 00:02:30 | 48.40633 | 10.02674 | 86° | 15km/h | 23365m | 5.2m/s | -54.5°C | 1.3% | 34.7hPa | 2.7V | 00:00:00 | 00:00:00 | 00:00:00 | |
| DO3MHA-12 | 2026-09-04 00:02:29 | 48.40633 | 10.02674 | 87° | 18km/h | 23365m | 5.1m/s | -54.5°C | 4.5% | 34.6hPa | 2.7V | 00:00:00 | 01:32:43 | 00:00:00 | |
| DF3TZ-5 | 2026-09-04 00:02:28 | 48.40632 | 10.02652 | 83° | 22km/h | 23349m | 5.0m/s | -54.7°C | 1.4% | 34.8hPa | 2.7V | 00:00:00 | 00:00:00 | 00:00:00 | |
| IW2NTF | 2026-09-04 00:02:27 | 48.40628 | 10.02734 | 93° | 24km/h | 23421m | 5.7m/s | -54.2°C | 4.5% | 34.4hPa | 2.7V | 08:30:00 | 01:32:54 | 00:00:00 | |
| DJ8HS-15 | 2026-09-04 00:02:25 | 48.40630 | 10.02636 | 76° | 16km/h | 23339m | 5.8m/s | -54.7°C | 4.6% | 34.8hPa | 2.7V | 00:00:00 | 01:32:38 | 00:00:00 | |
| DM7RM-13 | 2026-09-04 00:02:24 | 48.40630 | 10.02635 | 77° | 20km/h | 23339m | 5.8m/s | -54.7°C | 1.4% | 34.8hPa | 2.7V | 00:00:00 | 00:00:00 | 00:00:00 | |
| DM0DOS-11 | 2026-09-04 00:02:20 | 48.40632 | 10.02699 | 91° | 9km/h | 23390m | 4.9m/s | -54.2°C | 4.4% | 34.5hPa | 2.7V | 08:30:00 | 01:32:48 | 00:00:00 | |
| DK7TD | 2026-09-04 00:02:19 | 48.40630 | 10.02718 | 106° | 20km/h | 23411m | 4.5m/s | -54.2°C | 1.1% | 34.4hPa | 2.5V | 18:12:15 | 01:32:52 | 00:00:00 | |
| DF1GD-15 | 2026-09-04 00:02:18 | 48.40625 | 10.02610 | 78° | 7km/h | 23313m | 4.8m/s | -54.8°C | 1.4% | 35.0hPa | 2.5V | 00:00:00 | 00:00:00 | 00:00:00 | |
| OE5DRO-10 | 2026-09-04 00:02:17 | 48.40625 | 10.02608 | 64° | 16km/h | 23307m | 6.4m/s | -54.8°C | 4.6% | 34.9hPa | 2.5V | 00:00:00 | 00:00:00 | 00:00:00 | |
| DF7PN | 2026-09-04 00:02:15 | 48.40622 | 10.02605 | 34° | 9km/h | 23296m | 4.3m/s | -54.9°C | 1.4% | 35.1hPa | 2.5V | 00:00:00 | 00:00:00 | 00:00:00 | |
| SO1NDE-10 | 2026-09-04 00:02:14 | 48.40619 | 10.02602 | 41° | 16km/h | 23292m | 5.8m/s | -54.9°C | 4.7% | 35.0hPa | 2.5V | 00:00:00 | 01:32:29 | 00:00:00 | |
| IW2NTF | 2026-09-04 00:02:14 | 48.40633 | 10.02680 | 92° | 15km/h | 23370m | 5.9m/s | -54.5°C | 4.5% | 34.6hPa | 2.6V | 08:30:00 | 01:32:44 | 00:00:00 | |
| OE3JTB-15 | 2026-09-04 00:02:11 | 48.40612 | 10.02592 | 40° | 16km/h | 23282m | 4.6m/s | -54.8°C | 4.7% | 35.1hPa | 2.5V | 00:00:00 | 00:00:00 | 00:00:00 | |
| OE9MKV-15 | 2026-09-04 00:02:10 | 48.40608 | 10.02587 | 35° | 16km/h | 23276m | 5.9m/s | -54.8°C | 4.6% | 35.1hPa | 2.6V | 00:00:00 | 01:32:26 | 08:30:00 | |
| DK7TD | 2026-09-04 00:02:09 | 48.40633 | 10.02668 | 86° | 16km/h | 23360m | 4.8m/s | -54.6°C | 1.2% | 34.7hPa | 2.7V | 18:12:15 | 01:32:42 | 00:00:00 | |
| DO9LL-15 | 2026-09-04 00:02:09 | 48.40602 | 10.02582 | 33° | 16km/h | 23271m | 4.7m/s | -54.8°C | 4.7% | 35.1hPa | 2.7V | 00:00:00 | 01:32:25 | 00:00:00 | |
| IW2NTF | 2026-09-04 00:02:07 | 48.40626 | 10.02614 | 79° | 11km/h | 23318m | 4.9m/s | -54.7°C | 4.6% | 34.9hPa | 2.7V | 08:30:00 | 01:32:34 | 00:00:00 | |
| DM0DOS-11 | 2026-09-04 00:02:07 | 48.40630 | 10.02635 | 75° | 20km/h | 23339m | 5.8m/s | -54.7°C | 4.6% | 34.8hPa | 2.5V | 08:30:00 | 01:32:38 | 00:00:00 | |
| PG1ADW-2 | 2026-09-04 00:02:03 | 48.40586 | 10.02561 | 42° | 16km/h | 23251m | 4.8m/s | -54.7°C | 4.7% | 35.3hPa | 2.7V | 00:00:00 | 00:00:00 | 00:00:00 | |
| BIOWL1-15 | 2026-09-04 00:02:02 | 48.40626 | 10.02619 | 74° | 13km/h | 23323m | 6m/s | 0°C | 0% | 0hPa | 2.7V | 18:12:15 | 01:32:35 | 00:00:00 | |
| DB0NH | 2026-09-04 00:02:01 | 48.40583 | 10.02558 | 31° | 15km/h | 23246m | 6.0m/s | -54.7°C | 4.7% | 35.3hPa | 2.5V | 00:00:00 | 01:32:20 | 00:00:00 | |
| DL1ZP-14 | 2026-09-04 00:02:00 | 48.40580 | 10.02556 | 13° | 13km/h | 23240m | 5.0m/s | -54.7°C | 1.4% | 35.4hPa | 2.5V | 00:00:00 | 00:00:00 | 00:00:00 | |
| DO3MHA-11 | 2026-09-04 00:01:59 | 48.40580 | 10.02556 | 14° | 15km/h | 23240m | 5.0m/s | -54.7°C | 4.7% | 35.3hPa | 2.5V | 00:00:00 | 01:32:19 | 08:30:00 | |
| DK7TD | 2026-09-04 00:01:58 | 48.40624 | 10.02606 | 34° | 7km/h | 23301m | 5.2m/s | -54.9°C | 1.3% | 35hPa | 2.6V | 18:12:15 | 01:32:31 | 00:00:00 | |
| DL1NUX | 2026-09-04 00:01:58 | 48.40598 | 10.02577 | 35° | 24km/h | 23266m | 4.7m/s | -54.9°C | 4.7% | 35.2hPa | 2.7V | 08:30:00 | 01:32:24 | 00:00:00 | |
| DJ8HS-15 | 2026-09-04 00:01:58 | 48.40577 | 10.02555 | 9° | 16km/h | 23236m | 4.4m/s | -54.7°C | 4.6% | 35.4hPa | 2.7V | 00:00:00 | 01:32:18 | 00:00:00 | |
| DM7RM-13 | 2026-09-04 00:01:57 | 48.40577 | 10.02555 | 10° | 15km/h | 23236m | 4.5m/s | -54.7°C | 1.4% | 35.4hPa | 2.7V | 00:00:00 | 00:00:00 | 00:00:00 | |
| IW2NTF | 2026-09-04 00:01:56 | 48.40598 | 10.02577 | 35° | 24km/h | 23266m | 4.7m/s | -54.9°C | 4.7% | 35.2hPa | 2.7V | 08:30:00 | 01:32:24 | 00:00:00 | |
| OE5DXL-15 | 2026-09-04 00:01:56 | 48.40569 | 10.02553 | 21° | 15km/h | 23225m | 5.2m/s | -54.6°C | 4.6% | 35.4hPa | 2.7V | 00:00:00 | 00:00:00 | 00:00:00 | |
| OE5DRO-10 | 2026-09-04 00:01:53 | 48.40559 | 10.02546 | 14° | 16km/h | 23210m | 6.0m/s | -54.5°C | 4.5% | 35.5hPa | 2.5V | 00:00:00 | 00:00:00 | 08:30:00 | |
| DO3MHA-12 | 2026-09-04 00:01:52 | 48.40559 | 10.02546 | 14° | 16km/h | 23210m | 6.0m/s | -54.5°C | 4.5% | 35.5hPa | 2.7V | 00:00:00 | 01:32:13 | 00:00:00 | |
| SONCRA | 2026-09-04 00:01:51 | 48.40556 | 10.02546 | 3° | 13km/h | 23204m | 5.2m/s | -54.5°C | 1.4% | 35.6hPa | 2.7V | 00:00:00 | 00:00:00 | 00:00:00 | |
| DL6DJ-15 | 2026-09-04 00:01:50 | 48.40556 | 10.02546 | 3° | 13km/h | 23204m | 5.2m/s | -54.5°C | 1.4% | 35.6hPa | 2.7V | 00:00:00 | 00:00:00 | 00:00:00 | |
| DM0DOS-11 | 2026-09-04 00:01:49 | 48.40562 | 10.02548 | 23° | 15km/h | 23215m | 4.7m/s | -54.6°C | 4.6% | 35.5hPa | 2.7V | 08:30:00 | 01:32:14 | 00:00:00 | |
| DK7TD | 2026-09-04 00:01:48 | 48.40586 | 10.02561 | 42° | 16km/h | 23251m | 4.8m/s | -54.8°C | 1.2% | 35.3hPa | 2.5V | 18:12:15 | 01:32:21 | 00:00:00 | |
| DF3TZ-5 | 2026-09-04 00:01:47 | 48.40545 | 10.02544 | 5° | 15km/h | 23189m | 4.5m/s | -54.6°C | 1.3% | 35.6hPa | 2.5V | 00:00:00 | 00:00:00 | 00:00:00 | |
| DO3MHA-11 | 2026-09-04 00:01:45 | 48.40545 | 10.02544 | 6° | 18km/h | 23189m | 4.5m/s | -54.6°C | 4.5% | 35.6hPa | 2.5V | 00:00:00 | 01:32:09 | 00:00:00 | |
| IW2NTF | 2026-09-04 00:01:42 | 48.40556 | 10.02546 | 3° | 13km/h | 23204m | 5.2m/s | -54.5°C | 4.5% | 35.6hPa | 2.5V | 08:30:00 | 01:32:12 | 00:00:00 | |
| NBG1-10 | 2026-09-04 00:01:40 | 48.40532 | 10.02546 | 345° | 11km/h | 23174m | 4.5m/s | -54.9°C | 4.7% | 35.7hPa | 2.6V | 00:00:00 | 01:32:06 | 00:00:00 | |
| DK7TD | 2026-09-04 00:01:37 | 48.40549 | 10.02545 | 7° | 15km/h | 23194m | 5.9m/s | -54.6°C | 1.2% | 35.6hPa | 2.6V | 18:12:15 | 01:32:10 | 00:00:00 | |
| DO3MHA-12 | 2026-09-04 00:01:37 | 48.40518 | 10.02550 | 355° | 16km/h | 23159m | 4.5m/s | -55.0°C | 4.8% | 35.8hPa | 2.7V | 00:00:00 | 01:32:03 | 08:30:00 | |
| AZAK | 2026-09-04 00:01:36 | 48.40514 | 10.02551 | 352° | 18km/h | 23154m | 5.8m/s | -55.0°C | 1.4% | 35.9hPa | 2.6V | 00:00:00 | 00:00:00 | 00:00:00 | |
| PG1ADW-2 | 2026-09-04 00:01:35 | 48.40509 | 10.02552 | 348° | 11km/h | 23148m | 5.1m/s | -55.0°C | 4.7% | 35.9hPa | 2.6V | 00:00:00 | 00:00:00 | 00:00:00 | |
| DM0DOS-11 | 2026-09-04 00:01:35 | 48.40528 | 10.02548 | 347° | 18km/h | 23169m | 5.3m/s | -55.1°C | 4.7% | 35.7hPa | 2.6V | 08:30:00 | 01:32:05 | 00:00:00 | |
| DF7PN | 2026-09-04 00:01:32 | 48.40501 | 10.02554 | 358° | 15km/h | 23138m | 5.8m/s | -55.0°C | 1.4% | 36.0hPa | 2.5V | 00:00:00 | 00:00:00 | 00:00:00 | |
| DO3MHA-11 | 2026-09-04 00:01:31 | 48.40501 | 10.02554 | 359° | 13km/h | 23139m | 5.8m/s | -55.0°C | 4.7% | 35.9hPa | 2.5V | 00:00:00 | 01:31:59 | 00:00:00 | |
| IW2NTF | 2026-09-04 00:01:30 | 48.40514 | 10.02551 | 350° | 18km/h | 23153m | 5.8m/s | -55°C | 4.8% | 35.9hPa | 2.5V | 08:30:00 | 01:32:02 | 00:00:00 | |
| DJ8HS-15 | 2026-09-04 00:01:29 | 48.40497 | 10.02554 | 8° | 9km/h | 23133m | 5.2m/s | -55.0°C | 4.7% | 35.9hPa | 2.7V | 00:00:00 | 01:31:58 | 08:30:00 | |
| DM7RM-13 | 2026-09-04 00:01:28 | 48.40493 | 10.02553 | 6° | 15km/h | 23128m | 4.3m/s | -55.0°C | 1.5% | 36.0hPa | 2.6V | 00:00:00 | 00:00:00 | 00:00:00 | |
| OE9MKV-15 | 2026-09-04 00:01:27 | 48.40489 | 10.02553 | 358° | 7km/h | 23123m | 5.8m/s | -54.9°C | 4.7% | 36.0hPa | 2.6V | 00:00:00 | 01:31:56 | 00:00:00 | |
| DK7TD | 2026-09-04 00:01:26 | 48.40501 | 10.02554 | 359° | 15km/h | 23138m | 5.8m/s | -55°C | 1.3% | 36hPa | 2.6V | 18:12:15 | 01:31:59 | 00:00:00 | |
| IW2NTF | 2026-09-04 00:01:24 | 48.40472 | 10.02557 | 322° | 7km/h | 23091m | 5.7m/s | -54.8°C | 4.8% | 36.2hPa | 2.7V | 08:30:00 | 01:31:50 | 00:00:00 | |
| DL1NUX | 2026-09-04 00:01:24 | 48.40485 | 10.02554 | 349° | 15km/h | 23118m | 4.7m/s | -54.9°C | 0% | 36hPa | 2.5V | 08:30:00 | 01:31:55 | 00:00:00 | |
| DO3MHA-12 | 2026-09-04 00:01:22 | 48.40479 | 10.02555 | 357° | 7km/h | 23108m | 6.0m/s | -54.8°C | 4.7% | 36.1hPa | 2.7V | 00:00:00 | 01:31:53 | 00:00:00 | |
| DB0NH | 2026-09-04 00:01:21 | 48.40472 | 10.02557 | 323° | 7km/h | 23091m | 5.6m/s | -54.7°C | 4.8% | 36.2hPa | 2.7V | 00:00:00 | 01:31:50 | 00:00:00 | |
| DL1ZP-14 | 2026-09-04 00:01:19 | 48.40470 | 10.02561 | 302° | 4km/h | 23081m | 5.4m/s | -54.8°C | 1.4% | 36.3hPa | 2.5V | 00:00:00 | 00:00:00 | 00:00:00 | |
| DM0DOS-11 | 2026-09-04 00:01:16 | 48.40469 | 10.02564 | 320° | 5km/h | 23064m | 6.1m/s | -54.7°C | 4.7% | 36.4hPa | 2.7V | 08:30:00 | 01:31:45 | 00:00:00 | |
| DB0UT-7 | 2026-09-04 00:01:16 | 48.40469 | 10.02563 | 314° | 7km/h | 23070m | 5.2m/s | -54.7°C | 4.7% | 36.3hPa | 2.6V | 00:00:00 | 00:00:00 | 00:00:00 | |
| DK7TD | 2026-09-04 00:01:15 | 48.40470 | 10.02561 | 302° | 5km/h | 23081m | 5.4m/s | -54.8°C | 1.3% | 36.3hPa | 2.5V | 18:12:15 | 01:31:48 | 00:00:00 | |
| KANTATE | 2026-09-04 00:01:12 | 48.40464 | 10.02569 | 336° | 7km/h | 23050m | 5.8m/s | -54.6°C | 1.4% | 36.5hPa | 2.6V | 00:00:00 | 00:00:00 | 00:00:00 | |
| PG1ADW-2 | 2026-09-04 00:01:11 | 48.40462 | 10.02570 | 345° | 7km/h | 23044m | 5.3m/s | -54.5°C | 4.8% | 36.4hPa | 2.6V | 00:00:00 | 00:00:00 | 00:00:00 | |
| IW2NTF | 2026-09-04 00:01:09 | 48.40459 | 10.02572 | 321° | 9km/h | 23034m | 5.9m/s | -54.5°C | 4.7% | 36.5hPa | 2.6V | 08:30:00 | 01:31:39 | 00:00:00 | |
| DF3TZ-5 | 2026-09-04 00:01:08 | 48.40457 | 10.02575 | 308° | 11km/h | 23029m | 4.8m/s | -54.5°C | 1.4% | 36.6hPa | 2.7V | 00:00:00 | 00:00:00 | 00:00:00 | |
| DJ8HS-15 | 2026-09-04 00:01:06 | 48.40457 | 10.02575 | 309° | 7km/h | 23029m | 4.8m/s | -54.4°C | 4.7% | 36.5hPa | 2.7V | 00:00:00 | 01:31:38 | 00:00:00 | |
| DK7TD | 2026-09-04 00:01:05 | 48.40456 | 10.02579 | 301° | 11km/h | 23024m | 4.1m/s | -54.4°C | 1.2% | 36.6hPa | 2.7V | 18:12:15 | 01:31:37 | 00:00:00 | |
| DM0DOS-11 | 2026-09-04 00:01:04 | 48.40453 | 10.02585 | 288° | 7km/h | 23014m | 5.5m/s | -54.3°C | 4.7% | 36.6hPa | 2.5V | 08:30:00 | 01:31:35 | 00:00:00 | |
| NBG1-10 | 2026-09-04 00:01:03 | 48.40453 | 10.02589 | 272° | 9km/h | 23004m | 5.5m/s | -54.2°C | 4.6% | 36.7hPa | 2.6V | 00:00:00 | 01:31:33 | 00:00:00 | |
| DB0ND-19 | 2026-09-04 00:01:00 | 48.40453 | 10.02592 | 267° | 5km/h | 22998m | 5.6m/s | -54.2°C | 1.4% | 36.8hPa | 2.5V | 00:00:00 | 00:00:00 | 00:00:00 | |
| IW2NTF | 2026-09-04 00:00:59 | 48.40456 | 10.02597 | 208° | 7km/h | 22983m | 5.8m/s | -54.1°C | 4.6% | 36.8hPa | 2.5V | 08:30:00 | 01:31:29 | 00:00:00 | |
| DM0DOS-11 | 2026-09-04 00:00:58 | 48.40461 | 10.02610 | 264° | 9km/h | 22957m | 5.2m/s | -54°C | 4.5% | 37hPa | 2.7V | 08:30:00 | 01:31:24 | 00:00:00 | |
| SO1NDE-10 | 2026-09-04 00:00:57 | 48.40458 | 10.02599 | 208° | 13km/h | 22978m | 4.3m/s | 0°C | 0% | 0hPa | 2.6V | 00:00:00 | 01:31:28 | 00:00:00 | |
| DK7TD | 2026-09-04 00:00:53 | 48.40461 | 10.02603 | 247° | 9km/h | 22967m | 5.6m/s | -54°C | 1.2% | 36.9hPa | 2.6V | 18:12:15 | 01:31:26 | 00:00:00 | |
| OE9MKV-15 | 2026-09-04 00:00:53 | 48.40460 | 10.02603 | 247° | 11km/h | 22968m | 5.5m/s | -53.9°C | 4.6% | 36.9hPa | 2.5V | 00:00:00 | 01:31:26 | 00:00:00 | |
| DL1NUX | 2026-09-04 00:00:52 | 48.40462 | 10.02616 | 253° | 7km/h | 22946m | 4.5m/s | -53.9°C | 0% | 37hPa | 2.5V | 08:30:00 | 01:31:22 | 00:00:00 | |
| DO9LL-15 | 2026-09-04 00:00:52 | 48.40461 | 10.02606 | 264° | 11km/h | 22962m | 4.8m/s | -53.9°C | 4.6% | 36.9hPa | 2.7V | 00:00:00 | 01:31:25 | 00:00:00 | |
| OE3JTB-15 | 2026-09-04 00:00:50 | 48.40462 | 10.02613 | 259° | 15km/h | 22952m | 6.0m/s | -53.9°C | 4.6% | 37.0hPa | 2.7V | 00:00:00 | 01:31:23 | 00:00:00 | |
| IW2NTF | 2026-09-04 00:00:49 | 48.40464 | 10.02625 | 244° | 9km/h | 22931m | 4.3m/s | -53.8°C | 4.5% | 37.1hPa | 2.7V | 08:30:00 | 01:31:19 | 00:00:00 | |
| AZAK | 2026-09-04 00:00:48 | 48.40462 | 10.02618 | 262° | 7km/h | 22942m | 5.7m/s | -53.9°C | 1.4% | 37.1hPa | 2.7V | 00:00:00 | 00:00:00 | 00:00:00 | |
| DO3MHA-11 | 2026-09-04 00:00:47 | 48.40464 | 10.02625 | 245° | 11km/h | 22931m | 4.2m/s | -53.8°C | 4.5% | 37.1hPa | 2.7V | 00:00:00 | 01:31:19 | 00:00:00 | |
| DM0DOS-11 | 2026-09-04 00:00:46 | 48.40477 | 10.02632 | 201° | 13km/h | 22905m | 5.5m/s | -53.7°C | 4.4% | 37.3hPa | 2.6V | 08:30:00 | 01:31:14 | 00:00:00 | |
| DJ8HS-15 | 2026-09-04 00:00:46 | 48.40465 | 10.02627 | 219° | 13km/h | 22926m | 5.6m/s | -53.7°C | 4.5% | 37.1hPa | 2.7V | 00:00:00 | 01:31:18 | 00:00:00 | |
| DL1ZP-14 | 2026-09-04 00:00:45 | 48.40468 | 10.02629 | 194° | 11km/h | 22920m | 5.7m/s | -53.8°C | 1.3% | 37.2hPa | 2.7V | 00:00:00 | 00:00:00 | 00:00:00 | |
| DK7TD | 2026-09-04 00:00:43 | 48.40471 | 10.02630 | 188° | 15km/h | 22915m | 4.6m/s | -53.7°C | 1.1% | 37.2hPa | 2.5V | 18:12:15 | 01:31:16 | 00:00:00 | |
| OE5DXL-15 | 2026-09-04 00:00:43 | 48.40471 | 10.02630 | 188° | 15km/h | 22915m | 4.5m/s | -53.7°C | 4.5% | 37.2hPa | 2.6V | 00:00:00 | 00:00:00 | 00:00:00 | |
| DM7RM-13 | 2026-09-04 00:00:42 | 48.40471 | 10.02630 | 189° | 15km/h | 22915m | 4.6m/s | -53.7°C | 1.4% | 37.2hPa | 2.6V | 00:00:00 | 00:00:00 | 00:00:00 | |
| DO3MHA-12 | 2026-09-04 00:00:40 | 48.40480 | 10.02634 | 211° | 11km/h | 22900m | 4.4m/s | -53.6°C | 4.4% | 37.3hPa | 2.6V | 00:00:00 | 01:31:13 | 00:00:00 | |
| DJ2DS-15 | 2026-09-04 00:00:39 | 48.40482 | 10.02636 | 212° | 13km/h | 22896m | 4.4m/s | 0°C | 0% | 0hPa | 2.6V | 00:00:00 | 01:31:12 | 00:00:00 | |
| IW2NTF | 2026-09-04 00:00:38 | 48.40488 | 10.02638 | 175° | 9km/h | 22879m | 4.8m/s | -53.5°C | 4.3% | 37.4hPa | 2.6V | 08:30:00 | 01:31:09 | 00:00:00 | |
| DK5PH-5 | 2026-09-04 00:00:37 | 48.40491 | 10.02638 | 187° | 16km/h | 22874m | 5.2m/s | -53.5°C | 4.3% | 37.4hPa | 2.6V | 00:00:00 | 01:31:08 | 00:00:00 | |
| DM0DOS-11 | 2026-09-04 00:00:36 | 48.40504 | 10.02645 | 183° | 15km/h | 22847m | 5.4m/s | -53.7°C | 4.4% | 37.6hPa | 2.6V | 08:30:00 | 01:31:03 | 00:00:00 | |
| DO3MHA-12 | 2026-09-04 00:00:35 | 48.40505 | 10.02645 | 184° | 18km/h | 22848m | 5.3m/s | -53.6°C | 4.4% | 37.6hPa | 2.6V | 00:00:00 | 01:31:03 | 00:00:00 | |
| PG1ADW-2 | 2026-09-04 00:00:34 | 48.40512 | 10.02645 | 179° | 18km/h | 22837m | 6.0m/s | -53.6°C | 4.4% | 37.6hPa | 2.7V | 00:00:00 | 00:00:00 | 00:00:00 | |
| NBG1-10 | 2026-09-04 00:00:32 | 48.40517 | 10.02645 | 181° | 16km/h | 22831m | 5.7m/s | -53.6°C | 4.4% | 37.7hPa | 2.5V | 00:00:00 | 01:31:00 | 00:00:00 | |
| DK7TD | 2026-09-04 00:00:32 | 48.40499 | 10.02642 | 207° | 13km/h | 22858m | 4.8m/s | -53.7°C | 1.1% | 37.5hPa | 2.5V | 18:12:15 | 01:31:05 | 00:00:00 | |
| AZAK | 2026-09-04 00:00:31 | 48.40517 | 10.02645 | 182° | 18km/h | 22831m | 5.7m/s | -53.7°C | 1.3% | 37.7hPa | 2.5V | 00:00:00 | 00:00:00 | 00:00:00 | |
| DO3MHA-11 | 2026-09-04 00:00:29 | 48.40522 | 10.02644 | 178° | 18km/h | 22826m | 4.4m/s | -53.6°C | 4.4% | 37.7hPa | 2.5V | 00:00:00 | 01:30:59 | 00:00:00 | |
| DL1NUX | 2026-09-04 00:00:28 | 48.40517 | 10.02645 | 180° | 18km/h | 22831m | 5.7m/s | -53.7°C | 0% | 37.7hPa | 2.5V | 08:30:00 | 01:31:00 | 00:00:00 | |
| DJ8HS-15 | 2026-09-04 00:00:28 | 48.40527 | 10.02643 | 170° | 16km/h | 22821m | 6.3m/s | -53.6°C | 4.4% | 37.7hPa | 2.6V | 00:00:00 | 01:30:58 | 00:00:00 | |
| DF7PN | 2026-09-04 00:00:27 | 48.40532 | 10.02642 | 160° | 18km/h | 22814m | 5.7m/s | -53.7°C | 1.3% | 37.8hPa | 2.5V | 00:00:00 | 00:00:00 | 00:00:00 | |
| DM7RM-13 | 2026-09-04 00:00:26 | 48.40536 | 10.02639 | 158° | 18km/h | 22809m | 4.3m/s | -53.6°C | 1.4% | 37.8hPa | 2.5V | 00:00:00 | 00:00:00 | 00:00:00 | |
| DM0DOS-11 | 2026-09-04 00:00:25 | 48.40545 | 10.02634 | 164° | 16km/h | 22799m | 4.6m/s | -53.7°C | 4.4% | 37.9hPa | 2.5V | 08:30:00 | 01:30:54 | 00:00:00 | |
| DL1NUX | 2026-09-04 00:00:23 | 48.40574 | 10.02626 | 176° | 20km/h | 22767m | 4.6m/s | -53.6°C | 0% | 38.1hPa | 2.5V | 08:30:00 | 01:30:48 | 00:00:00 | |
| DO9LL-15 | 2026-09-04 00:00:22 | 48.40541 | 10.02636 | 160° | 13km/h | 22804m | 6.0m/s | -53.6°C | 4.4% | 37.8hPa | 2.5V | 00:00:00 | 01:30:55 | 00:00:00 | |
| DK7TD | 2026-09-04 00:00:21 | 48.40545 | 10.02634 | 165° | 16km/h | 22799m | 4.6m/s | -53.7°C | 1.1% | 37.9hPa | 2.5V | 18:12:15 | 01:30:54 | 00:00:00 | |
| DJ2DS-15 | 2026-09-04 00:00:20 | 48.40553 | 10.02631 | 165° | 13km/h | 22789m | 5.7m/s | 0°C | 0% | 0hPa | 2.6V | 00:00:00 | 01:30:52 | 00:00:00 | |
| DB0NH | 2026-09-04 00:00:19 | 48.40563 | 10.02627 | 170° | 13km/h | 22778m | 5.7m/s | -53.7°C | 4.4% | 38.0hPa | 2.6V | 00:00:00 | 01:30:50 | 00:00:00 | |
| IW2NTF | 2026-09-04 00:00:18 | 48.40578 | 10.02625 | 171° | 20km/h | 22762m | 5.3m/s | -53.6°C | 4.4% | 38.1hPa | 2.6V | 08:30:00 | 01:30:47 | 00:00:00 | |
| DO3MHA-11 | 2026-09-04 00:00:18 | 48.40569 | 10.02626 | 176° | 16km/h | 22773m | 5.5m/s | -53.6°C | 4.4% | 38.0hPa | 2.5V | 00:00:00 | 01:30:49 | 08:30:00 | |
| DM0DOS-11 | 2026-09-04 00:00:18 | 48.40591 | 10.02618 | 153° | 15km/h | 22746m | 5.4m/s | -53.5°C | 4.4% | 38.2hPa | 2.5V | 08:30:00 | 01:30:44 | 00:00:00 | |
| DF1GD-15 | 2026-09-04 00:00:17 | 48.40569 | 10.02626 | 176° | 20km/h | 22773m | 5.5m/s | -53.7°C | 1.3% | 38.0hPa | 2.7V | 00:00:00 | 00:00:00 | 00:00:00 | |
| DL1ZP-14 | 2026-09-04 00:00:14 | 48.40583 | 10.02623 | 162° | 18km/h | 22757m | 5.8m/s | -53.6°C | 1.3% | 38.1hPa | 2.7V | 00:00:00 | 00:00:00 | 00:00:00 | |
| OE5DXL-15 | 2026-09-04 00:00:13 | 48.40583 | 10.02623 | 163° | 13km/h | 22757m | 5.7m/s | -53.5°C | 4.4% | 38.1hPa | 2.7V | 00:00:00 | 00:00:00 | 08:30:00 | |
| DK7TD | 2026-09-04 00:00:10 | 48.40594 | 10.02616 | 158° | 11km/h | 22741m | 5.9m/s | -53.5°C | 1.1% | 38.3hPa | 2.5V | 18:12:15 | 01:30:43 | 00:00:00 | |
| IW2NTF | 2026-09-04 00:00:10 | 48.40611 | 10.02605 | 160° | 15km/h | 22712m | 4.7m/s | -53.5°C | 4.3% | 38.4hPa | 2.5V | 08:30:00 | 01:30:37 | 00:00:00 | |
| DL1NUX | 2026-09-04 00:00:09 | 48.40607 | 10.02608 | 153° | 15km/h | 22716m | 4.2m/s | -53.5°C | 0% | 38.4hPa | 2.7V | 08:30:00 | 01:30:38 | 00:00:00 | |
| PG1ADW-2 | 2026-09-04 00:00:09 | 48.40599 | 10.02614 | 162° | 13km/h | 22731m | 4.3m/s | -53.5°C | 4.3% | 38.2hPa | 2.6V | 00:00:00 | 00:00:00 | 00:00:00 | |
| DM0DOS-11 | 2026-09-04 00:00:06 | 48.40622 | 10.02603 | 174° | 16km/h | 22696m | 4.5m/s | -53.6°C | 4.3% | 38.5hPa | 2.6V | 08:30:00 | 01:30:34 | 00:00:00 | |
| DL6DJ-15 | 2026-09-04 00:00:06 | 48.40607 | 10.02608 | 153° | 15km/h | 22716m | 4.2m/s | -53.6°C | 1.3% | 38.4hPa | 2.7V | 00:00:00 | 00:00:00 | 00:00:00 | |
| DJ8HS-15 | 2026-09-04 00:00:05 | 48.40607 | 10.02608 | 154° | 13km/h | 22716m | 4.1m/s | -53.5°C | 4.3% | 38.3hPa | 2.7V | 00:00:00 | 01:30:38 | 00:00:00 | |
| DF3TZ-5 | 2026-09-04 00:00:04 | 48.40615 | 10.02604 | 169° | 15km/h | 22706m | 5.5m/s | -53.6°C | 1.3% | 38.4hPa | 2.7V | 00:00:00 | 00:00:00 | 00:00:00 | |
| DK7TD | 2026-09-04 00:00:00 | 48.40627 | 10.02602 | 168° | 18km/h | 22691m | 5.7m/s | -53.6°C | 1% | 38.5hPa | 2.7V | 18:12:15 | 01:30:33 | 00:00:00 | |
| DO3MHA-12 | 2026-09-04 00:00:00 | 48.40627 | 10.02601 | 168° | 11km/h | 22691m | 5.7m/s | -53.6°C | 4.3% | 38.5hPa | 2.7V | 00:00:00 | 01:30:33 | 08:30:00 | |
| DL1NUX | 2026-09-03 23:59:59 | 48.40642 | 10.02589 | 134° | 7km/h | 22665m | 5.3m/s | -53.9°C | 0% | 38.7hPa | 2.6V | 08:30:00 | 01:30:28 | 00:00:00 | |
| DB0ND-19 | 2026-09-03 23:59:57 | 48.40642 | 10.02589 | 134° | 7km/h | 22665m | 5.3m/s | -53.9°C | 1.3% | 38.7hPa | 2.7V | 00:00:00 | 00:00:00 | 00:00:00 | |
| IW2NTF | 2026-09-03 23:59:56 | 48.40644 | 10.02587 | 121° | 9km/h | 22659m | 6.1m/s | -54°C | 4.5% | 38.7hPa | 2.7V | 08:30:00 | 01:30:27 | 00:00:00 | |
| DO3MHA-11 | 2026-09-03 23:59:56 | 48.40640 | 10.02591 | 143° | 7km/h | 22671m | 5.5m/s | -53.8°C | 4.4% | 38.6hPa | 2.6V | 00:00:00 | 01:30:29 | 00:00:00 | |
| SO1NDE-10 | 2026-09-03 23:59:55 | 48.40642 | 10.02589 | 135° | 9km/h | 22665m | 5.2m/s | 0°C | 0% | 0hPa | 2.6V | 00:00:00 | 01:30:28 | 00:00:00 | |
| NBG1-10 | 2026-09-03 23:59:54 | 48.40643 | 10.02586 | 122° | 9km/h | 22660m | 6.1m/s | -53.9°C | 4.5% | 38.7hPa | 2.6V | 00:00:00 | 01:30:27 | 00:00:00 | |
| DF7PN | 2026-09-03 23:59:53 | 48.40645 | 10.02584 | 111° | 9km/h | 22654m | 4.5m/s | -54.0°C | 1.3% | 38.8hPa | 2.6V | 00:00:00 | 00:00:00 | 00:00:00 | |
| OE9MKV-15 | 2026-09-03 23:59:52 | 48.40645 | 10.02580 | 107° | 9km/h | 22650m | 3.8m/s | -54.0°C | 4.5% | 38.7hPa | 2.6V | 00:00:00 | 01:30:25 | 00:00:00 | |
| DM0DOS-11 | 2026-09-03 23:59:51 | 48.40648 | 10.02572 | 141° | 7km/h | 22630m | 5m/s | -54.1°C | 4.6% | 38.9hPa | 2.6V | 08:30:00 | 01:30:21 | 00:00:00 | |
| DK7TD | 2026-09-03 23:59:50 | 48.40646 | 10.02575 | 103° | 4km/h | 22640m | 5.5m/s | -54.1°C | 1.2% | 38.8hPa | 2.5V | 18:12:15 | 01:30:23 | 00:00:00 | |
| DO3MHA-12 | 2026-09-03 23:59:50 | 48.40646 | 10.02575 | 103° | 11km/h | 22640m | 5.5m/s | -54.1°C | 4.6% | 38.8hPa | 2.5V | 00:00:00 | 01:30:23 | 00:00:00 | |
| IW2NTF | 2026-09-03 23:59:49 | 48.40657 | 10.02559 | 132° | 15km/h | 22609m | 5.5m/s | -54°C | 4.5% | 39hPa | 2.5V | 08:30:00 | 01:30:17 | 00:00:00 | |
| DJ2DS-15 | 2026-09-03 23:59:48 | 48.40647 | 10.02572 | 142° | 11km/h | 22630m | 5.0m/s | 0°C | 0% | 0hPa | 2.7V | 00:00:00 | 01:30:21 | 00:00:00 | |
| OE5DRO-10 | 2026-09-03 23:59:47 | 48.40652 | 10.02567 | 138° | 11km/h | 22619m | 4.9m/s | -54.0°C | 4.6% | 38.9hPa | 2.7V | 00:00:00 | 00:00:00 | 00:00:00 | |
| DO3MHA-11 | 2026-09-03 23:59:46 | 48.40652 | 10.02567 | 138° | 13km/h | 22619m | 4.9m/s | -54.0°C | 4.6% | 38.9hPa | 2.7V | 00:00:00 | 01:30:19 | 00:00:00 | |
| AZAK | 2026-09-03 23:59:45 | 48.40652 | 10.02567 | 139° | 15km/h | 22619m | 4.9m/s | -54.1°C | 1.4% | 39.0hPa | 2.6V | 00:00:00 | 00:00:00 | 00:00:00 | |
| DL1ZP-14 | 2026-09-03 23:59:43 | 48.40661 | 10.02551 | 106° | 9km/h | 22599m | 4.3m/s | -54.0°C | 1.4% | 39.1hPa | 2.6V | 00:00:00 | 00:00:00 | 00:00:00 | |
| DO9LL-15 | 2026-09-03 23:59:42 | 48.40660 | 10.02551 | 107° | 7km/h | 22599m | 4.3m/s | -54.0°C | 4.6% | 39.0hPa | 2.5V | 00:00:00 | 01:30:15 | 00:00:00 | |
| DM0DOS-11 | 2026-09-03 23:59:41 | 48.40661 | 10.02532 | 81° | 13km/h | 22577m | 6.3m/s | -53.9°C | 4.6% | 39.2hPa | 2.5V | 08:30:00 | 01:30:11 | 00:00:00 | |
| DK7TD | 2026-09-03 23:59:40 | 48.40661 | 10.02542 | 91° | 15km/h | 22588m | 5.3m/s | -54°C | 1.1% | 39.2hPa | 2.7V | 18:12:15 | 01:30:13 | 00:00:00 | |
| DL1NUX | 2026-09-03 23:59:39 | 48.40659 | 10.02518 | 83° | 13km/h | 22561m | 5.7m/s | -53.9°C | 0% | 39.3hPa | 2.6V | 08:30:00 | 01:30:08 | 00:00:00 | |
| DO3MHA-11 | 2026-09-03 23:59:36 | 48.40660 | 10.02523 | 79° | 9km/h | 22567m | 5.3m/s | -53.9°C | 4.6% | 39.2hPa | 2.7V | 00:00:00 | 01:30:09 | 00:00:00 | |
| DL6DJ-15 | 2026-09-03 23:59:35 | 48.40659 | 10.02514 | 83° | 11km/h | 22556m | 4.1m/s | -53.9°C | 1.4% | 39.4hPa | 2.7V | 00:00:00 | 00:00:00 | 00:00:00 | |
| DK5PH-5 | 2026-09-03 23:59:34 | 48.40659 | 10.02514 | 84° | 5km/h | 22556m | 4.1m/s | -53.8°C | 4.6% | 39.3hPa | 2.7V | 00:00:00 | 01:30:07 | 08:30:00 | |
| DF3TZ-5 | 2026-09-03 23:59:33 | 48.40658 | 10.02506 | 73° | 5km/h | 22545m | 5.9m/s | -53.8°C | 1.4% | 39.4hPa | 2.7V | 00:00:00 | 00:00:00 | 00:00:00 | |
| DM0DOS-11 | 2026-09-03 23:59:31 | 48.40656 | 10.02496 | 72° | 7km/h | 22524m | 4.9m/s | -53.7°C | 4.5% | 39.5hPa | 2.7V | 08:30:00 | 01:30:01 | 00:00:00 | |
| DO3MHA-12 | 2026-09-03 23:59:30 | 48.40657 | 10.02501 | 78° | 7km/h | 22535m | 6.1m/s | -53.7°C | 4.6% | 39.4hPa | 2.6V | 00:00:00 | 01:30:03 | 00:00:00 | |
| DL1NUX | 2026-09-03 23:59:29 | 48.40654 | 10.02491 | 55° | 5km/h | 22508m | 5.8m/s | -53.6°C | 0% | 39.6hPa | 2.5V | 08:30:00 | 01:29:58 | 00:00:00 | |
| DK7TD | 2026-09-03 23:59:29 | 48.40657 | 10.02499 | 78° | 7km/h | 22529m | 4.7m/s | -53.7°C | 1.2% | 39.5hPa | 2.7V | 18:12:15 | 01:30:02 | 00:00:00 | |
| DJ2DS-15 | 2026-09-03 23:59:28 | 48.40656 | 10.02496 | 73° | 5km/h | 22525m | 4.8m/s | 0°C | 0% | 0hPa | 2.7V | 00:00:00 | 01:30:01 | 00:00:00 | |
| AZAK | 2026-09-03 23:59:27 | 48.40655 | 10.02493 | 46° | 5km/h | 22513m | 5.2m/s | -53.6°C | 1.4% | 39.6hPa | 2.7V | 00:00:00 | 00:00:00 | 00:00:00 | |
| DB0ND-19 | 2026-09-03 23:59:26 | 48.40655 | 10.02493 | 45° | 4km/h | 22513m | 5.2m/s | -53.6°C | 1.4% | 39.6hPa | 2.7V | 00:00:00 | 00:00:00 | 00:00:00 | |
| DO3MHA-11 | 2026-09-03 23:59:25 | 48.40654 | 10.02491 | 56° | 7km/h | 22508m | 5.7m/s | -53.5°C | 4.5% | 39.6hPa | 2.7V | 00:00:00 | 01:29:58 | 00:00:00 | |
| DJ8HS-15 | 2026-09-03 23:59:23 | 48.40653 | 10.02486 | 71° | 5km/h | 22497m | 4.7m/s | -53.4°C | 4.4% | 39.7hPa | 2.7V | 00:00:00 | 01:29:56 | 00:00:00 | |
| OE9MKV-15 | 2026-09-03 23:59:22 | 48.40652 | 10.02483 | 63° | 5km/h | 22492m | 5.3m/s | -53.4°C | 4.5% | 39.7hPa | 2.5V | 00:00:00 | 01:29:55 | 00:00:00 | |
| DM0DOS-11 | 2026-09-03 23:59:21 | 48.40647 | 10.02478 | 36° | 7km/h | 22470m | 5.6m/s | -53.3°C | 4.5% | 39.9hPa | 2.5V | 08:30:00 | 01:29:51 | 00:00:00 | |
| NBG1-10 | 2026-09-03 23:59:21 | 48.40651 | 10.02482 | 40° | 5km/h | 22486m | 5.7m/s | -53.4°C | 4.5% | 39.7hPa | 2.7V | 00:00:00 | 01:29:54 | 00:00:00 | |
| DO3MHA-12 | 2026-09-03 23:59:20 | 48.40650 | 10.02480 | 22° | 5km/h | 22481m | 4.7m/s | -53.3°C | 4.5% | 39.8hPa | 2.7V | 00:00:00 | 01:29:53 | 00:00:00 | |
| DL1NUX | 2026-09-03 23:59:19 | 48.40643 | 10.02474 | 3° | 5km/h | 22455m | 6m/s | -53.2°C | 0% | 40hPa | 2.7V | 08:30:00 | 01:29:48 | 00:00:00 | |
| DK7TD | 2026-09-03 23:59:18 | 48.40647 | 10.02478 | 36° | 7km/h | 22470m | 5.6m/s | -53.3°C | 1.1% | 39.9hPa | 2.5V | 18:12:15 | 01:29:51 | 00:00:00 | |
| OE3JTB-15 | 2026-09-03 23:59:18 | 48.40647 | 10.02478 | 37° | 5km/h | 22471m | 5.6m/s | -53.3°C | 4.5% | 39.8hPa | 2.5V | 00:00:00 | 01:29:51 | 00:00:00 | |
| DB0NH | 2026-09-03 23:59:17 | 48.40645 | 10.02477 | 42° | 5km/h | 22466m | 4.6m/s | -53.2°C | 4.4% | 39.9hPa | 2.5V | 00:00:00 | 01:29:50 | 00:00:00 | |
| SO1NDE-10 | 2026-09-03 23:59:16 | 48.40644 | 10.02475 | 36° | 5km/h | 22461m | 4.6m/s | 0°C | 0% | 0hPa | 2.5V | 00:00:00 | 01:29:49 | 00:00:00 | |
| DO3MHA-11 | 2026-09-03 23:59:14 | 48.40642 | 10.02475 | 332° | 4km/h | 22450m | 4.9m/s | -53.1°C | 4.4% | 40.0hPa | 2.5V | 00:00:00 | 01:29:47 | 00:00:00 | |
| DB0UT-7 | 2026-09-03 23:59:13 | 48.40641 | 10.02475 | 321° | 5km/h | 22445m | 5.1m/s | -53.1°C | 4.3% | 40.0hPa | 2.6V | 00:00:00 | 00:00:00 | 00:00:00 | |
| DO9LL-15 | 2026-09-03 23:59:12 | 48.40641 | 10.02476 | 16° | 5km/h | 22439m | 6.3m/s | -53.1°C | 4.3% | 40.0hPa | 2.6V | 00:00:00 | 01:29:45 | 00:00:00 | |
| DM0DOS-11 | 2026-09-03 23:59:11 | 48.40641 | 10.02471 | 64° | 4km/h | 22417m | 4.7m/s | -53°C | 4.3% | 40.2hPa | 2.5V | 08:30:00 | 01:29:41 | 00:00:00 | |
| DO3MHA-12 | 2026-09-03 23:59:10 | 48.40641 | 10.02474 | 108° | 5km/h | 22428m | 5.0m/s | -53.0°C | 4.3% | 40.1hPa | 2.7V | 00:00:00 | 01:29:43 | 00:00:00 | |
| DL1NUX | 2026-09-03 23:59:09 | 48.40638 | 10.02465 | 45° | 7km/h | 22402m | 5.2m/s | -52.9°C | 0% | 40.3hPa | 2.7V | 08:30:00 | 01:29:38 | 00:00:00 | |
| DK7TD | 2026-09-03 23:59:08 | 48.40641 | 10.02471 | 64° | 4km/h | 22417m | 4.7m/s | -53°C | 1.1% | 40.2hPa | 2.5V | 18:12:15 | 01:29:41 | 00:00:00 | |
| DJ2DS-15 | 2026-09-03 23:59:08 | 48.40641 | 10.02471 | 65° | 7km/h | 22417m | 4.6m/s | 0°C | 0% | 0hPa | 2.6V | 00:00:00 | 01:29:41 | 00:00:00 | |
| AZAK | 2026-09-03 23:59:05 | 48.40638 | 10.02465 | 47° | 7km/h | 22402m | 5.2m/s | -52.9°C | 1.3% | 40.3hPa | 2.6V | 00:00:00 | 00:00:00 | 00:00:00 | |
| DL6DJ-15 | 2026-09-03 23:59:04 | 48.40635 | 10.02463 | 345° | 5km/h | 22391m | 5.9m/s | -52.9°C | 1.3% | 40.4hPa | 2.6V | 00:00:00 | 00:00:00 | 00:00:00 | |
| DJ8HS-15 | 2026-09-03 23:59:03 | 48.40635 | 10.02463 | 346° | 5km/h | 22392m | 5.9m/s | -52.9°C | 4.2% | 40.4hPa | 2.6V | 00:00:00 | 01:29:36 | 00:00:00 | |
| DF3TZ-5 | 2026-09-03 23:59:02 | 48.40632 | 10.02467 | 304° | 7km/h | 22381m | 5.1m/s | -52.9°C | 1.3% | 40.5hPa | 2.6V | 00:00:00 | 00:00:00 | 00:00:00 | |
| DM0DOS-11 | 2026-09-03 23:59:01 | 48.40630 | 10.02474 | 298° | 5km/h | 22365m | 4.4m/s | -52.9°C | 4.2% | 40.5hPa | 2.6V | 08:30:00 | 01:29:31 | 00:00:00 | |
| DK7TD | 2026-09-03 23:58:57 | 48.40629 | 10.02476 | 295° | 7km/h | 22360m | 6m/s | -52.9°C | 1% | 40.6hPa | 2.7V | 18:12:15 | 01:29:30 | 00:00:00 | |
| DO3MHA-11 | 2026-09-03 23:58:54 | 48.40627 | 10.02484 | 289° | 5km/h | 22345m | 6.1m/s | -53.0°C | 4.3% | 40.6hPa | 2.5V | 00:00:00 | 01:29:27 | 00:00:00 | |
| DM0DOS-11 | 2026-09-03 23:58:51 | 48.40624 | 10.02490 | 303° | 4km/h | 22313m | 6m/s | -53°C | 4.2% | 40.9hPa | 2.5V | 08:30:00 | 01:29:21 | 00:00:00 | |
| DF7PN | 2026-09-03 23:58:51 | 48.40626 | 10.02486 | 300° | 2km/h | 22328m | 5.8m/s | -53.0°C | 1.2% | 40.8hPa | 2.7V | 00:00:00 | 00:00:00 | 00:00:00 | |
| DO3MHA-12 | 2026-09-03 23:58:50 | 48.40626 | 10.02487 | 304° | 5km/h | 22323m | 4.6m/s | -52.9°C | 4.2% | 40.8hPa | 2.7V | 00:00:00 | 01:29:23 | 00:00:00 | |
| OE5DRO-10 | 2026-09-03 23:58:49 | 48.40625 | 10.02489 | 305° | 7km/h | 22318m | 5.0m/s | -52.9°C | 4.1% | 40.8hPa | 2.7V | 00:00:00 | 00:00:00 | 08:30:00 | |
| PG1ADW-2 | 2026-09-03 23:58:48 | 48.40624 | 10.02490 | 304° | 9km/h | 22313m | 6.0m/s | -52.9°C | 4.2% | 40.8hPa | 2.5V | 00:00:00 | 00:00:00 | 00:00:00 | |
| DB0NH | 2026-09-03 23:58:47 | 48.40624 | 10.02492 | 294° | 9km/h | 22307m | 5.0m/s | -52.9°C | 4.2% | 40.9hPa | 2.5V | 00:00:00 | 01:29:20 | 00:00:00 | |
| IW2NTF | 2026-09-03 23:58:46 | 48.40622 | 10.02504 | 270° | 7km/h | 22287m | 5.3m/s | -53°C | 4.1% | 41hPa | 2.5V | 08:30:00 | 01:29:16 | 00:00:00 | |
| DK7TD | 2026-09-03 23:58:46 | 48.40623 | 10.02494 | 289° | 7km/h | 22301m | 6m/s | -53°C | 0.9% | 40.9hPa | 2.6V | 18:12:15 | 01:29:19 | 00:00:00 | |
| SO1NDE-10 | 2026-09-03 23:58:46 | 48.40623 | 10.02494 | 289° | 11km/h | 22302m | 5.9m/s | 0°C | 0% | 0hPa | 2.6V | 00:00:00 | 01:29:19 | 00:00:00 | |
| DL1NUX | 2026-09-03 23:58:44 | 48.40622 | 10.02506 | 238° | 4km/h | 22281m | 5.5m/s | 0°C | 0% | 0hPa | 2.6V | 08:30:00 | 01:29:15 | 00:00:00 | |
| DO3MHA-11 | 2026-09-03 23:58:44 | 48.40622 | 10.02501 | 278° | 4km/h | 22292m | 3.7m/s | -53.0°C | 4.1% | 41.0hPa | 2.7V | 00:00:00 | 01:29:17 | 08:30:00 | |
| DJ8HS-15 | 2026-09-03 23:58:43 | 48.40622 | 10.02504 | 271° | 11km/h | 22287m | 5.3m/s | -53.0°C | 4.1% | 41.0hPa | 2.5V | 00:00:00 | 01:29:16 | 00:00:00 | |
| DO9LL-15 | 2026-09-03 23:58:42 | 48.40622 | 10.02506 | 239° | 11km/h | 22282m | 5.5m/s | -53.0°C | 4.2% | 41.0hPa | 2.5V | 00:00:00 | 01:29:15 | 00:00:00 | |
| DM0DOS-11 | 2026-09-03 23:58:41 | 48.40625 | 10.02506 | 194° | 2km/h | 22261m | 4.9m/s | -53.4°C | 4.3% | 41.2hPa | 2.5V | 08:30:00 | 01:29:11 | 00:00:00 | |
| DK7TD | 2026-09-03 23:58:36 | 48.40626 | 10.02506 | 179° | 5km/h | 22251m | 6.2m/s | -53.5°C | 1% | 41.3hPa | 2.6V | 18:12:15 | 01:29:09 | 00:00:00 | |
| DH7VM-15 | 2026-09-03 23:58:35 | 48.40627 | 10.02506 | 180° | 5km/h | 22251m | 6.2m/s | -53.5°C | 1.3% | 41.3hPa | 2.5V | 00:00:00 | 00:00:00 | 00:00:00 | |
| DL1NUX | 2026-09-03 23:58:34 | 48.40635 | 10.02512 | 217° | 15km/h | 22230m | 4.6m/s | 0°C | 0% | 0hPa | 2.5V | 00:00:00 | 01:29:05 | 00:00:00 | |
| DK5PH-5 | 2026-09-03 23:58:34 | 48.40630 | 10.02507 | 199° | 15km/h | 22241m | 4.8m/s | -53.5°C | 4.3% | 41.3hPa | 2.7V | 00:00:00 | 01:29:07 | 00:00:00 | |
| DL6DJ-15 | 2026-09-03 23:58:33 | 48.40635 | 10.02512 | 217° | 15km/h | 22230m | 4.6m/s | -53.6°C | 1.3% | 41.4hPa | 2.7V | 00:00:00 | 00:00:00 | 00:00:00 | |
| DM0DOS-11 | 2026-09-03 23:58:31 | 48.40652 | 10.02522 | 186° | 18km/h | 22210m | 4.8m/s | -53.6°C | 4.3% | 41.5hPa | 2.7V | 08:30:00 | 01:29:01 | 00:00:00 | |
| DF3TZ-5 | 2026-09-03 23:58:31 | 48.40643 | 10.02518 | 201° | 18km/h | 22220m | 5.8m/s | -53.6°C | 1.3% | 41.5hPa | 2.5V | 00:00:00 | 00:00:00 | 00:00:00 | |
| DO3MHA-12 | 2026-09-03 23:58:30 | 48.40643 | 10.02518 | 202° | 15km/h | 22220m | 5.7m/s | -53.6°C | 4.3% | 41.4hPa | 2.5V | 00:00:00 | 01:29:03 | 08:30:00 | |
| IW2NTF | 2026-09-03 23:58:29 | 48.40664 | 10.02522 | 163° | 11km/h | 22194m | 5.1m/s | -53.7°C | 4.4% | 41.6hPa | 2.6V | 08:30:00 | 01:28:58 | 00:00:00 | |
| DK7TD | 2026-09-03 23:58:25 | 48.40664 | 10.02522 | 164° | 11km/h | 22194m | 5.1m/s | -53.7°C | 1.1% | 41.6hPa | 2.6V | 18:12:15 | 01:28:58 | 00:00:00 | |
| DL1NUX | 2026-09-03 23:58:24 | 48.40672 | 10.02515 | 142° | 11km/h | 22178m | 4.6m/s | 0°C | 0% | 0hPa | 2.5V | 00:00:00 | 01:28:55 | 00:00:00 | |
| DO3MHA-11 | 2026-09-03 23:58:24 | 48.40667 | 10.02520 | 152° | 13km/h | 22188m | 6.3m/s | -53.6°C | 4.3% | 41.6hPa | 2.7V | 00:00:00 | 01:28:57 | 00:00:00 | |
| DJ8HS-15 | 2026-09-03 23:58:23 | 48.40669 | 10.02517 | 145° | 15km/h | 22183m | 4.8m/s | -53.7°C | 4.3% | 41.7hPa | 2.7V | 00:00:00 | 01:28:56 | 08:30:00 | |
| IW2NTF | 2026-09-03 23:58:20 | 48.40693 | 10.02508 | 178° | 16km/h | 22141m | 5.1m/s | -54.2°C | 4.4% | 42hPa | 2.5V | 08:30:00 | 01:28:48 | 00:00:00 | |
| DM0DOS-11 | 2026-09-03 23:58:20 | 48.40681 | 10.02509 | 169° | 15km/h | 22157m | 5.7m/s | -54°C | 4.4% | 41.9hPa | 2.7V | 08:30:00 | 01:28:51 | 00:00:00 | |
| DK7TD | 2026-09-03 23:58:15 | 48.40693 | 10.02508 | 178° | 16km/h | 22141m | 5.1m/s | -54.2°C | 1.1% | 42hPa | 2.5V | 18:12:15 | 01:28:48 | 00:00:00 | |
| DL1NUX | 2026-09-03 23:58:14 | 48.40710 | 10.02501 | 147° | 18km/h | 22121m | 3.9m/s | 0°C | 0% | 0hPa | 2.7V | 00:00:00 | 01:28:44 | 00:00:00 | |
| DO3MHA-11 | 2026-09-03 23:58:14 | 48.40697 | 10.02507 | 176° | 16km/h | 22136m | 4.6m/s | -54.2°C | 4.4% | 42.0hPa | 2.5V | 00:00:00 | 01:28:47 | 00:00:00 | |
| OE5DXL-15 | 2026-09-03 23:58:13 | 48.40701 | 10.02506 | 168° | 15km/h | 22131m | 5.5m/s | -54.3°C | 4.4% | 42.0hPa | 2.5V | 00:00:00 | 00:00:00 | 00:00:00 | |
| DO9LL-15 | 2026-09-03 23:58:12 | 48.40706 | 10.02504 | 159° | 15km/h | 22126m | 5.2m/s | -54.3°C | 4.5% | 42.0hPa | 2.5V | 00:00:00 | 01:28:45 | 00:00:00 | |
| OE5DRO-10 | 2026-09-03 23:58:11 | 48.40710 | 10.02501 | 148° | 15km/h | 22121m | 3.9m/s | -54.3°C | 4.5% | 42.1hPa | 2.5V | 00:00:00 | 00:00:00 | 00:00:00 | |
| DM0DOS-11 | 2026-09-03 23:58:10 | 48.40718 | 10.02489 | 113° | 13km/h | 22106m | 4.6m/s | -54.4°C | 4.5% | 42.2hPa | 2.5V | 08:30:00 | 01:28:41 | 00:00:00 | |
| DO3MHA-12 | 2026-09-03 23:58:10 | 48.40713 | 10.02497 | 141° | 13km/h | 22117m | 5.1m/s | -54.3°C | 4.5% | 42.1hPa | 2.5V | 00:00:00 | 01:28:43 | 00:00:00 | |
| DL1ZP-14 | 2026-09-03 23:58:09 | 48.40716 | 10.02493 | 128° | 13km/h | 22111m | 5.6m/s | -54.4°C | 1.3% | 42.2hPa | 2.5V | 00:00:00 | 00:00:00 | 00:00:00 | |
| PG1ADW-2 | 2026-09-03 23:58:08 | 48.40718 | 10.02489 | 114° | 15km/h | 22106m | 4.6m/s | -54.3°C | 4.5% | 42.1hPa | 2.6V | 00:00:00 | 01:28:41 | 00:00:00 | |
| DL1NUX | 2026-09-03 23:58:04 | 48.40736 | 10.02456 | 155° | 16km/h | 22061m | 4m/s | 0°C | 0% | 0hPa | 2.6V | 00:00:00 | 01:28:32 | 00:00:00 | |
| DK7TD | 2026-09-03 23:58:04 | 48.40723 | 10.02469 | 115° | 13km/h | 22086m | 5.9m/s | -54.4°C | 1.1% | 42.3hPa | 2.7V | 18:12:15 | 01:28:37 | 00:00:00 | |
| DK5PH-5 | 2026-09-03 23:58:04 | 48.40723 | 10.02469 | 115° | 15km/h | 22086m | 5.8m/s | -54.3°C | 4.4% | 42.3hPa | 2.7V | 00:00:00 | 01:28:37 | 00:00:00 | |
| IW2NTF | 2026-09-03 23:58:03 | 48.40729 | 10.02460 | 155° | 15km/h | 22070m | 6m/s | -54.4°C | 4.4% | 42.5hPa | 2.5V | 08:30:00 | 01:28:34 | 00:00:00 | |
| DJ8HS-15 | 2026-09-03 23:58:03 | 48.40724 | 10.02465 | 129° | 15km/h | 22081m | 5.4m/s | -54.3°C | 4.4% | 42.3hPa | 2.7V | 00:00:00 | 01:28:36 | 00:00:00 | |
| SONCRA | 2026-09-03 23:58:02 | 48.40729 | 10.02460 | 155° | 13km/h | 22070m | 6.1m/s | -54.4°C | 1.3% | 42.5hPa | 2.7V | 00:00:00 | 00:00:00 | 00:00:00 | |
| DL6DJ-15 | 2026-09-03 23:58:01 | 48.40729 | 10.02460 | 155° | 13km/h | 22070m | 6.1m/s | -54.4°C | 1.3% | 42.5hPa | 2.7V | 00:00:00 | 00:00:00 | 00:00:00 | |
| DF3TZ-5 | 2026-09-03 23:58:00 | 48.40737 | 10.02456 | 155° | 15km/h | 22061m | 4.0m/s | -54.6°C | 1.4% | 42.5hPa | 2.7V | 00:00:00 | 00:00:00 | 00:00:00 | |
| DM7RM-13 | 2026-09-03 23:57:57 | 48.40740 | 10.02453 | 150° | 13km/h | 22056m | 5.4m/s | -54.7°C | 1.4% | 42.5hPa | 2.7V | 00:00:00 | 00:00:00 | 00:00:00 | |
| IW2NTF | 2026-09-03 23:57:54 | 48.40739 | 10.02410 | 83° | 15km/h | 22021m | 5.4m/s | -54.8°C | 4.7% | 42.8hPa | 2.7V | 08:30:00 | 01:28:24 | 00:00:00 | |
| DK7TD | 2026-09-03 23:57:53 | 48.40740 | 10.02425 | 83° | 22km/h | 22031m | 4m/s | -54.9°C | 1.3% | 42.7hPa | 2.6V | 18:12:15 | 01:28:26 | 00:00:00 | |
| DF7PN | 2026-09-03 23:57:49 | 48.40740 | 10.02399 | 122° | 9km/h | 22007m | 5.4m/s | -54.8°C | 1.4% | 42.9hPa | 2.7V | 00:00:00 | 00:00:00 | 00:00:00 | |
| OE9MKV-15 | 2026-09-03 23:57:48 | 48.40740 | 10.02399 | 123° | 13km/h | 22007m | 5.4m/s | -54.8°C | 4.6% | 42.8hPa | 2.7V | 00:00:00 | 01:28:21 | 00:00:00 | |
| DB0NH | 2026-09-03 23:57:47 | 48.40741 | 10.02396 | 129° | 13km/h | 22002m | 5.3m/s | -54.8°C | 4.6% | 42.8hPa | 2.7V | 00:00:00 | 01:28:20 | 00:00:00 | |
| DO3MHA-11 | 2026-09-03 23:57:44 | 48.40749 | 10.02383 | 134° | 16km/h | 21986m | 5.6m/s | -54.8°C | 4.6% | 43.0hPa | 2.7V | 00:00:00 | 01:28:17 | 00:00:00 | |
| DB0UT-7 | 2026-09-03 23:57:43 | 48.40751 | 10.02379 | 123° | 13km/h | 21981m | 4.3m/s | -54.7°C | 4.6% | 43.0hPa | 2.5V | 00:00:00 | 01:28:16 | 00:00:00 | |
| IW2NTF | 2026-09-03 23:57:42 | 48.40745 | 10.02344 | 40° | 16km/h | 21950m | 4.7m/s | -54.6°C | 4.6% | 43.2hPa | 2.5V | 08:30:00 | 01:28:10 | 00:00:00 | |
| DK7TD | 2026-09-03 23:57:42 | 48.40752 | 10.02374 | 106° | 15km/h | 21976m | 4.9m/s | -54.7°C | 1.3% | 43.1hPa | 2.6V | 18:12:15 | 01:28:15 | 00:00:00 | |
| NBG1-10 | 2026-09-03 23:57:42 | 48.40752 | 10.02374 | 107° | 11km/h | 21976m | 4.9m/s | -54.7°C | 4.7% | 43.0hPa | 2.6V | 00:00:00 | 01:28:15 | 08:30:00 | |
| DO3MHA-12 | 2026-09-03 23:57:40 | 48.40752 | 10.02361 | 77° | 13km/h | 21966m | 4.9m/s | -54.6°C | 4.6% | 43.1hPa | 2.5V | 00:00:00 | 01:28:13 | 00:00:00 | |
| DL1ZP-14 | 2026-09-03 23:57:38 | 48.40748 | 10.02349 | 48° | 16km/h | 21955m | 5.9m/s | -54.7°C | 1.4% | 43.2hPa | 2.5V | 00:00:00 | 00:00:00 | 00:00:00 | |
| DM7RM-13 | 2026-09-03 23:57:37 | 48.40748 | 10.02349 | 50° | 18km/h | 21955m | 5.9m/s | -54.7°C | 1.4% | 43.2hPa | 2.6V | 00:00:00 | 00:00:00 | 00:00:00 | |
| DK5PH-5 | 2026-09-03 23:57:34 | 48.40738 | 10.02333 | 67° | 9km/h | 21934m | 4.6m/s | -54.6°C | 4.7% | 43.3hPa | 2.6V | 00:00:00 | 01:28:07 | 00:00:00 | |
| DM0DOS-11 | 2026-09-03 23:57:33 | 48.40738 | 10.02308 | 88° | 16km/h | 21903m | 4.5m/s | -54.6°C | 4.6% | 43.6hPa | 2.6V | 08:30:00 | 01:28:01 | 00:00:00 | |
| DK7TD | 2026-09-03 23:57:32 | 48.40737 | 10.02327 | 80° | 7km/h | 21923m | 5.1m/s | -54.6°C | 1.2% | 43.4hPa | 2.7V | 18:12:15 | 01:28:05 | 00:00:00 | |
| DK7TD | 2026-09-03 23:57:22 | 48.40723 | 10.02280 | 37° | 11km/h | 21872m | 4.6m/s | -54.6°C | 1.3% | 43.8hPa | 2.5V | 18:12:15 | 01:27:55 | 00:00:00 | |
| OE3JTB-15 | 2026-09-03 23:57:22 | 48.40723 | 10.02280 | 37° | 5km/h | 21873m | 4.6m/s | -54.6°C | 4.7% | 43.7hPa | 2.5V | 00:00:00 | 00:00:00 | 00:00:00 | |
| DO3MHA-12 | 2026-09-03 23:57:20 | 48.40720 | 10.02278 | 354° | 5km/h | 21863m | 5.9m/s | -54.6°C | 4.6% | 43.8hPa | 2.7V | 00:00:00 | 01:27:53 | 00:00:00 | |
| DF7PN | 2026-09-03 23:57:18 | 48.40717 | 10.02280 | 140° | 0km/h | 21847m | 6.2m/s | -54.7°C | 1.4% | 44.0hPa | 2.7V | 00:00:00 | 00:00:00 | 00:00:00 | |
| DB0NH | 2026-09-03 23:57:17 | 48.40717 | 10.02280 | 141° | 5km/h | 21847m | 6.1m/s | -54.6°C | 4.7% | 43.9hPa | 2.7V | 00:00:00 | 01:27:50 | 00:00:00 | |
| DM7RM-13 | 2026-09-03 23:57:16 | 48.40717 | 10.02280 | 0° | 0km/h | 21847m | 6.2m/s | -54.7°C | 1.4% | 44.0hPa | 2.7V | 00:00:00 | 00:00:00 | 00:00:00 | |
| DO3MHA-11 | 2026-09-03 23:57:14 | 48.40719 | 10.02274 | 99° | 7km/h | 21831m | 5.6m/s | -54.6°C | 4.7% | 44.0hPa | 2.7V | 00:00:00 | 01:27:47 | 08:30:00 | |
| DB0UT-7 | 2026-09-03 23:57:13 | 48.40719 | 10.02271 | 75° | 5km/h | 21826m | 5.1m/s | -54.6°C | 4.8% | 44.1hPa | 2.5V | 00:00:00 | 00:00:00 | 00:00:00 | |
| DM0DOS-11 | 2026-09-03 23:57:12 | 48.40712 | 10.02266 | 346° | 7km/h | 21795m | 6.1m/s | -54.4°C | 4.7% | 44.3hPa | 2.5V | 08:30:00 | 01:27:40 | 00:00:00 | |
| DK7TD | 2026-09-03 23:57:11 | 48.40717 | 10.02267 | 37° | 5km/h | 21816m | 5.3m/s | -54.6°C | 1.3% | 44.2hPa | 2.5V | 18:12:15 | 01:27:44 | 00:00:00 | |
| DK7TD | 2026-09-03 23:57:01 | 48.40703 | 10.02271 | 344° | 5km/h | 21762m | 6.4m/s | -54.1°C | 1.2% | 44.5hPa | 2.5V | 18:12:15 | 01:27:34 | 00:00:00 | |
| SONCRA | 2026-09-03 23:57:00 | 48.40700 | 10.02272 | 336° | 5km/h | 21751m | 4.2m/s | -54.1°C | 1.4% | 44.6hPa | 2.7V | 00:00:00 | 00:00:00 | 00:00:00 | |
| DM0DOS-11 | 2026-09-03 23:56:59 | 48.40698 | 10.02274 | 283° | 4km/h | 21740m | 5.6m/s | -54°C | 4.5% | 44.7hPa | 2.7V | 08:30:00 | 01:27:30 | 00:00:00 | |
| DK7TD | 2026-09-03 23:56:50 | 48.40697 | 10.02284 | 278° | 7km/h | 21702m | 5.8m/s | -53.8°C | 1.1% | 45hPa | 2.6V | 18:12:15 | 01:27:23 | 00:00:00 | |
| DO3MHA-12 | 2026-09-03 23:56:50 | 48.40697 | 10.02284 | 278° | 7km/h | 21702m | 5.8m/s | -53.7°C | 4.4% | 44.9hPa | 2.7V | 00:00:00 | 01:27:23 | 00:00:00 | |
| IW2NTF | 2026-09-03 23:56:47 | 48.40695 | 10.02292 | 286° | 7km/h | 21685m | 6m/s | -53.8°C | 4.4% | 45.1hPa | 2.7V | 08:30:00 | 01:27:20 | 00:00:00 | |
| DF7PN | 2026-09-03 23:56:47 | 48.40695 | 10.02295 | 276° | 5km/h | 21680m | 4.8m/s | -53.8°C | 1.4% | 45.1hPa | 2.5V | 00:00:00 | 00:00:00 | 00:00:00 | |
| DM0DOS-11 | 2026-09-03 23:56:46 | 48.40695 | 10.02295 | 276° | 7km/h | 21680m | 4.8m/s | -53.8°C | 4.4% | 45.1hPa | 2.5V | 08:30:00 | 01:27:19 | 00:00:00 | |
| DO3MHA-11 | 2026-09-03 23:56:44 | 48.40694 | 10.02301 | 293° | 7km/h | 21670m | 5.9m/s | -53.8°C | 4.4% | 45.1hPa | 2.6V | 00:00:00 | 01:27:17 | 00:00:00 | |
| DJ8HS-15 | 2026-09-03 23:56:43 | 48.40693 | 10.02303 | 294° | 7km/h | 21664m | 5.1m/s | -53.9°C | 4.5% | 45.2hPa | 2.7V | 00:00:00 | 01:27:16 | 00:00:00 | |
| DO9LL-15 | 2026-09-03 23:56:42 | 48.40692 | 10.02306 | 276° | 7km/h | 21659m | 6.1m/s | -53.9°C | 4.4% | 45.2hPa | 2.7V | 00:00:00 | 01:27:15 | 00:00:00 | |
| IW2NTF | 2026-09-03 23:56:41 | 48.40696 | 10.02318 | 235° | 7km/h | 21633m | 4.5m/s | -53.9°C | 4.4% | 45.4hPa | 2.7V | 08:30:00 | 01:27:10 | 00:00:00 | |
| DM0DOS-11 | 2026-09-03 23:56:41 | 48.40697 | 10.02321 | 224° | 9km/h | 21627m | 6.1m/s | -53.9°C | 4.4% | 45.5hPa | 2.7V | 08:30:00 | 01:27:09 | 00:00:00 | |
| DK7TD | 2026-09-03 23:56:39 | 48.40695 | 10.02314 | 246° | 7km/h | 21643m | 5.9m/s | -53.9°C | 1.1% | 45.4hPa | 2.6V | 18:12:15 | 01:27:12 | 00:00:00 | |
| NBG1-10 | 2026-09-03 23:56:36 | 48.40697 | 10.02321 | 225° | 9km/h | 21627m | 6.0m/s | -53.9°C | 4.4% | 45.5hPa | 2.6V | 00:00:00 | 01:27:09 | 00:00:00 | |
| DK5PH-5 | 2026-09-03 23:56:34 | 48.40701 | 10.02325 | 226° | 7km/h | 21617m | 5.4m/s | -53.9°C | 4.4% | 45.5hPa | 2.6V | 00:00:00 | 01:27:07 | 00:00:00 | |
| DM0DOS-11 | 2026-09-03 23:56:31 | 48.40707 | 10.02336 | 176° | 5km/h | 21573m | 5.7m/s | -53.9°C | 4.4% | 45.9hPa | 2.7V | 08:30:00 | 01:26:59 | 00:00:00 | |
| DK7TD | 2026-09-03 23:56:29 | 48.40705 | 10.02335 | 224° | 5km/h | 21590m | 4.9m/s | -53.9°C | 1.1% | 45.8hPa | 2.6V | 18:12:15 | 01:27:02 | 00:00:00 | |
| IW2NTF | 2026-09-03 23:56:27 | 48.40706 | 10.02336 | 186° | 4km/h | 21579m | 5.2m/s | -53.9°C | 4.4% | 45.9hPa | 2.7V | 08:30:00 | 01:27:00 | 00:00:00 | |
| DF1GD-15 | 2026-09-03 23:56:26 | 48.40706 | 10.02336 | 187° | 4km/h | 21579m | 5.2m/s | -53.9°C | 1.4% | 45.9hPa | 2.6V | 00:00:00 | 00:00:00 | 00:00:00 | |
| DO3MHA-11 | 2026-09-03 23:56:24 | 48.40711 | 10.02336 | 174° | 7km/h | 21562m | 4.8m/s | -53.9°C | 4.4% | 45.9hPa | 2.6V | 00:00:00 | 01:26:57 | 00:00:00 | |
| DJ8HS-15 | 2026-09-03 23:56:23 | 48.40713 | 10.02335 | 166° | 9km/h | 21557m | 6.0m/s | -53.9°C | 4.4% | 45.9hPa | 2.6V | 00:00:00 | 01:26:56 | 00:00:00 | |
| AZAK | 2026-09-03 23:56:21 | 48.40717 | 10.02333 | 157° | 7km/h | 21546m | 4.9m/s | -54.0°C | 1.3% | 46.1hPa | 2.6V | 00:00:00 | 00:00:00 | 00:00:00 | |
| DO3MHA-12 | 2026-09-03 23:56:20 | 48.40719 | 10.02332 | 166° | 7km/h | 21540m | 6.3m/s | -54.0°C | 4.4% | 46.1hPa | 2.6V | 00:00:00 | 01:26:53 | 00:00:00 | |
| IW2NTF | 2026-09-03 23:56:19 | 48.40723 | 10.02330 | 124° | 4km/h | 21524m | 5.9m/s | -54.2°C | 4.4% | 46.2hPa | 2.6V | 08:30:00 | 01:26:50 | 00:00:00 | |
| DK7TD | 2026-09-03 23:56:18 | 48.40722 | 10.02331 | 152° | 5km/h | 21530m | 4.9m/s | -54.2°C | 1.1% | 46.2hPa | 2.5V | 18:12:15 | 01:26:51 | 00:00:00 | |
| DK7TD | 2026-09-03 23:56:08 | 48.40739 | 10.02313 | 145° | 13km/h | 21477m | 6.4m/s | -54.5°C | 1.2% | 46.6hPa | 2.6V | 18:12:15 | 01:26:41 | 00:00:00 | |
| IW2NTF | 2026-09-03 23:56:07 | 48.40742 | 10.02310 | 141° | 15km/h | 21471m | 5.2m/s | -54.5°C | 4.6% | 46.6hPa | 2.6V | 08:30:00 | 01:26:40 | 00:00:00 | |
| DM0DOS-11 | 2026-09-03 23:56:06 | 48.40747 | 10.02296 | 100° | 15km/h | 21455m | 5.4m/s | -54.4°C | 4.6% | 46.7hPa | 2.5V | 08:30:00 | 01:26:37 | 00:00:00 | |
| DL1ZP-14 | 2026-09-03 23:56:05 | 48.40746 | 10.02301 | 116° | 15km/h | 21461m | 6.0m/s | -54.4°C | 1.3% | 46.7hPa | 2.7V | 00:00:00 | 00:00:00 | 00:00:00 | |
| DO3MHA-11 | 2026-09-03 23:56:04 | 48.40747 | 10.02296 | 101° | 11km/h | 21455m | 5.3m/s | -54.4°C | 4.6% | 46.7hPa | 2.6V | 00:00:00 | 01:26:37 | 00:00:00 | |
| DJ8HS-15 | 2026-09-03 23:56:03 | 48.40748 | 10.02291 | 92° | 9km/h | 21450m | 4.2m/s | -54.4°C | 4.6% | 46.7hPa | 2.6V | 00:00:00 | 01:26:36 | 00:00:00 | |
| IW2NTF | 2026-09-03 23:55:59 | 48.40752 | 10.02268 | 142° | 7km/h | 21419m | 4.2m/s | -54.3°C | 4.5% | 47hPa | 2.6V | 08:30:00 | 01:26:30 | 00:00:00 | |
| DK7TD | 2026-09-03 23:55:58 | 48.40751 | 10.02270 | 120° | 7km/h | 21423m | 5.1m/s | -54.3°C | 1.2% | 47hPa | 2.5V | 18:12:15 | 01:26:31 | 00:00:00 | |
| DL6DJ-15 | 2026-09-03 23:55:57 | 48.40752 | 10.02268 | 142° | 7km/h | 21419m | 4.2m/s | -54.3°C | 1.4% | 47.0hPa | 2.7V | 00:00:00 | 00:00:00 | 00:00:00 | |
| DM0DOS-11 | 2026-09-03 23:55:55 | 48.40769 | 10.02259 | 150° | 5km/h | 21381m | 5.4m/s | -54.4°C | 4.5% | 47.3hPa | 2.7V | 08:30:00 | 01:26:23 | 00:00:00 | |
| OE3JTB-15 | 2026-09-03 23:55:55 | 48.40757 | 10.02266 | 168° | 7km/h | 21408m | 5.3m/s | -54.2°C | 4.5% | 47.0hPa | 2.7V | 00:00:00 | 00:00:00 | 00:00:00 | |
| DM7RM-13 | 2026-09-03 23:55:54 | 48.40757 | 10.02266 | 169° | 13km/h | 21408m | 5.4m/s | -54.3°C | 1.4% | 47.1hPa | 2.6V | 00:00:00 | 00:00:00 | 00:00:00 | |
| DO3MHA-11 | 2026-09-03 23:55:53 | 48.40763 | 10.02263 | 161° | 5km/h | 21397m | 5.7m/s | -54.2°C | 4.4% | 47.1hPa | 2.6V | 00:00:00 | 01:26:26 | 00:00:00 | |
| DO3MHA-12 | 2026-09-03 23:55:49 | 48.40770 | 10.02258 | 120° | 5km/h | 21377m | 4.3m/s | -54.4°C | 4.5% | 47.3hPa | 2.6V | 00:00:00 | 01:26:22 | 00:00:00 | |
| IW2NTF | 2026-09-03 23:55:47 | 48.40768 | 10.02256 | 32° | 7km/h | 21366m | 4.3m/s | -54.5°C | 4.5% | 47.4hPa | 2.6V | 08:30:00 | 01:26:20 | 00:00:00 | |
| DK7TD | 2026-09-03 23:55:47 | 48.40769 | 10.02256 | 33° | 7km/h | 21366m | 4.4m/s | -54.5°C | 1.2% | 47.4hPa | 2.6V | 18:12:15 | 01:26:20 | 00:00:00 | |
| DB0NH | 2026-09-03 23:55:47 | 48.40769 | 10.02256 | 33° | 9km/h | 21366m | 4.3m/s | -54.5°C | 4.5% | 47.4hPa | 2.7V | 00:00:00 | 01:26:20 | 00:00:00 | |
| DJTTGO | 2026-09-03 23:55:46 | 48.40768 | 10.02256 | 34° | 7km/h | 21366m | 4.4m/s | -54.5°C | 1.4% | 47.4hPa | 2.7V | 00:00:00 | 00:00:00 | 00:00:00 | |
| DM0DOS-11 | 2026-09-03 23:55:45 | 48.40774 | 10.02255 | 195° | 11km/h | 21332m | 4.8m/s | -54.7°C | 4.6% | 47.6hPa | 2.7V | 08:30:00 | 01:26:13 | 00:00:00 | |
| DF7PN | 2026-09-03 23:55:44 | 48.40767 | 10.02252 | 153° | 2km/h | 21352m | 5.1m/s | -54.8°C | 1.4% | 47.5hPa | 2.5V | 00:00:00 | 00:00:00 | 00:00:00 | |
| DB0UT-7 | 2026-09-03 23:55:43 | 48.40768 | 10.02252 | 189° | 9km/h | 21347m | 5.1m/s | -54.7°C | 4.7% | 47.5hPa | 2.5V | 00:00:00 | 01:26:16 | 00:00:00 | |
| SONDE2-11 | 2026-09-03 23:55:40 | 48.40777 | 10.02256 | 185° | 13km/h | 21326m | 6.2m/s | 0°C | -1.0% | -1.0hPa | 2.5V | 00:00:00 | 00:00:00 | 00:00:00 | |
| IW2NTF | 2026-09-03 23:55:39 | 48.40784 | 10.02256 | 173° | 13km/h | 21316m | 4.5m/s | -54.6°C | 4.6% | 47.8hPa | 2.5V | 08:30:00 | 01:26:10 | 00:00:00 | |
| DK7TD | 2026-09-03 23:55:36 | 48.40787 | 10.02255 | 173° | 11km/h | 21310m | 5.8m/s | -54.6°C | 1.2% | 47.8hPa | 2.5V | 18:12:15 | 01:26:09 | 00:00:00 | |
| DM0DOS-11 | 2026-09-03 23:55:35 | 48.40794 | 10.02252 | 265° | 0km/h | 21279m | 5.1m/s | -54.7°C | 4.6% | 48hPa | 2.6V | 08:30:00 | 01:26:03 | 00:00:00 | |
| DL1ZP-14 | 2026-09-03 23:55:34 | 48.40791 | 10.02255 | 165° | 4km/h | 21300m | 4.8m/s | -54.6°C | 1.4% | 47.9hPa | 2.7V | 00:00:00 | 00:00:00 | 00:00:00 | |
| DO3MHA-11 | 2026-09-03 23:55:33 | 48.40792 | 10.02254 | 150° | 7km/h | 21295m | 5.8m/s | -54.6°C | 4.6% | 47.9hPa | 2.7V | 00:00:00 | 01:26:06 | 00:00:00 | |
| NBG1-10 | 2026-09-03 23:55:30 | 48.40793 | 10.02252 | 266° | 9km/h | 21280m | 5.0m/s | -54.6°C | 4.6% | 48.0hPa | 2.7V | 00:00:00 | 01:26:03 | 00:00:00 | |
| DO3MHA-12 | 2026-09-03 23:55:29 | 48.40793 | 10.02252 | 127° | 13km/h | 21275m | 3.6m/s | -54.6°C | 4.6% | 48.0hPa | 2.7V | 00:00:00 | 01:26:02 | 08:30:00 | |
| IW2NTF | 2026-09-03 23:55:27 | 48.40795 | 10.02249 | 127° | 9km/h | 21264m | 5m/s | -54.7°C | 4.6% | 48.1hPa | 2.5V | 08:30:00 | 01:26:00 | 00:00:00 | |
| DK7TD | 2026-09-03 23:55:25 | 48.40799 | 10.02243 | 142° | 13km/h | 21254m | 5.7m/s | -54.7°C | 1.1% | 48.2hPa | 2.6V | 18:12:15 | 01:25:58 | 00:00:00 | |
| DF3TZ-5 | 2026-09-03 23:55:24 | 48.40802 | 10.02240 | 145° | 15km/h | 21249m | 4.6m/s | -54.7°C | 1.4% | 48.2hPa | 2.6V | 00:00:00 | 00:00:00 | 00:00:00 | |
| DM0DOS-11 | 2026-09-03 23:55:23 | 48.40815 | 10.02224 | 139° | 13km/h | 21229m | 5.9m/s | -54.7°C | 4.4% | 48.4hPa | 2.6V | 08:30:00 | 01:25:53 | 00:00:00 | |
| DJ8HS-15 | 2026-09-03 23:55:23 | 48.40805 | 10.02236 | 144° | 9km/h | 21244m | 5.9m/s | -54.6°C | 4.5% | 48.2hPa | 2.7V | 00:00:00 | 01:25:56 | 08:30:00 | |
| IW2NTF | 2026-09-03 23:55:22 | 48.40818 | 10.02218 | 86° | 5km/h | 21213m | 5.8m/s | -54.8°C | 4.5% | 48.5hPa | 2.5V | 08:30:00 | 01:25:50 | 00:00:00 | |
| OE5DRO-10 | 2026-09-03 23:55:20 | 48.40815 | 10.02224 | 140° | 9km/h | 21230m | 5.8m/s | -54.6°C | 4.4% | 48.3hPa | 2.6V | 00:00:00 | 00:00:00 | 00:00:00 | |
| DL1NUX | 2026-09-03 23:55:19 | 48.40816 | 10.02213 | 33° | 5km/h | 21198m | 5.2m/s | 0°C | 0% | 0hPa | 2.6V | 00:00:00 | 01:25:47 | 00:00:00 | |
| DK7TD | 2026-09-03 23:55:15 | 48.40817 | 10.02214 | 44° | 5km/h | 21203m | 5.4m/s | -55°C | 1.2% | 48.6hPa | 2.5V | 18:12:15 | 01:25:48 | 00:00:00 | |
| DB0UT-7 | 2026-09-03 23:55:13 | 48.40815 | 10.02211 | 51° | 5km/h | 21194m | 3.7m/s | -55.0°C | 4.6% | 48.6hPa | 2.7V | 00:00:00 | 00:00:00 | 08:30:00 | |
| IW2NTF | 2026-09-03 23:55:09 | 48.40821 | 10.02191 | 150° | 9km/h | 21165m | 4.3m/s | -55.1°C | 4.7% | 48.9hPa | 2.7V | 08:30:00 | 01:25:40 | 00:00:00 | |
| DM0DOS-11 | 2026-09-03 23:55:09 | 48.40824 | 10.02188 | 129° | 5km/h | 21156m | 4.8m/s | -55°C | 4.7% | 49hPa | 2.5V | 08:30:00 | 01:25:38 | 00:00:00 | |
| DK7TD | 2026-09-03 23:55:05 | 48.40824 | 10.02188 | 130° | 5km/h | 21156m | 4.8m/s | -55.1°C | 1.2% | 49hPa | 2.5V | 18:12:15 | 01:25:38 | 00:00:00 | |
| DK5PH-5 | 2026-09-03 23:55:04 | 48.40824 | 10.02186 | 101° | 4km/h | 21151m | 5.3m/s | -55.0°C | 4.7% | 48.9hPa | 2.6V | 00:00:00 | 01:25:37 | 08:30:00 | |
| DJ8HS-15 | 2026-09-03 23:55:03 | 48.40824 | 10.02182 | 86° | 4km/h | 21147m | 4.0m/s | -55.0°C | 4.6% | 49.0hPa | 2.5V | 00:00:00 | 01:25:36 | 00:00:00 | |
| IW2NTF | 2026-09-03 23:55:02 | 48.40820 | 10.02169 | 103° | 4km/h | 21119m | 5m/s | -55°C | 4.6% | 49.2hPa | 2.5V | 08:30:00 | 01:25:30 | 00:00:00 | |
| OE5DRO-10 | 2026-09-03 23:55:01 | 48.40823 | 10.02175 | 62° | 4km/h | 21138m | 5.3m/s | -55.0°C | 4.7% | 49.0hPa | 2.7V | 00:00:00 | 00:00:00 | 00:00:00 | |
| DO3MHA-12 | 2026-09-03 23:54:59 | 48.40821 | 10.02171 | 40° | 4km/h | 21128m | 3.9m/s | -55.0°C | 4.7% | 49.1hPa | 2.5V | 00:00:00 | 01:25:32 | 00:00:00 | |
| NBG1-10 | 2026-09-03 23:54:57 | 48.40820 | 10.02169 | 104° | 4km/h | 21119m | 5.0m/s | -55.0°C | 4.6% | 49.2hPa | 2.5V | 00:00:00 | 01:25:30 | 00:00:00 | |
| DM0DOS-11 | 2026-09-03 23:54:56 | 48.40821 | 10.02163 | 79° | 4km/h | 21089m | 4.8m/s | -55.2°C | 4.7% | 49.5hPa | 2.5V | 08:30:00 | 01:25:24 | 00:00:00 | |
| DK7TD | 2026-09-03 23:54:55 | 48.40821 | 10.02166 | 119° | 4km/h | 21110m | 5.2m/s | -55.1°C | 1.2% | 49.3hPa | 2.7V | 18:12:15 | 01:25:28 | 00:00:00 | |
| DO3MHA-11 | 2026-09-03 23:54:53 | 48.40821 | 10.02165 | 73° | 2km/h | 21099m | 4.1m/s | -55.1°C | 4.7% | 49.4hPa | 2.7V | 00:00:00 | 01:25:26 | 00:00:00 | |
| DH7VM-15 | 2026-09-03 23:54:51 | 48.40821 | 10.02164 | 83° | 2km/h | 21095m | 5.8m/s | -55.2°C | 1.5% | 49.5hPa | 2.7V | 00:00:00 | 00:00:00 | 00:00:00 | |
| IW2NTF | 2026-09-03 23:54:49 | 48.40818 | 10.02162 | 355° | 2km/h | 21069m | 5.6m/s | -55.2°C | 4.7% | 49.6hPa | 2.7V | 08:30:00 | 01:25:20 | 00:00:00 | |
| DK7TD | 2026-09-03 23:54:44 | 48.40818 | 10.02162 | 309° | 2km/h | 21053m | 6m/s | -55.2°C | 1.2% | 49.8hPa | 2.5V | 18:12:15 | 01:25:17 | 00:00:00 | |
| DM0DOS-11 | 2026-09-03 23:54:43 | 48.40818 | 10.02162 | 138° | 4km/h | 21037m | 5.5m/s | -55.2°C | 4.6% | 49.9hPa | 2.7V | 08:30:00 | 01:25:14 | 00:00:00 | |
| DJ8HS-15 | 2026-09-03 23:54:43 | 48.40818 | 10.02162 | 311° | 5km/h | 21048m | 4.9m/s | -55.1°C | 4.6% | 49.7hPa | 2.7V | 00:00:00 | 01:25:16 | 00:00:00 | |
| IW2NTF | 2026-09-03 23:54:42 | 48.40819 | 10.02158 | 74° | 4km/h | 21017m | 4.8m/s | -55.3°C | 4.7% | 50hPa | 2.7V | 08:30:00 | 01:25:10 | 00:00:00 | |
| OE5DRO-10 | 2026-09-03 23:54:42 | 48.40818 | 10.02163 | 159° | 5km/h | 21043m | 5.3m/s | -55.1°C | 4.6% | 49.8hPa | 2.7V | 00:00:00 | 00:00:00 | 00:00:00 | |
| DO3MHA-12 | 2026-09-03 23:54:39 | 48.40819 | 10.02160 | 107° | 4km/h | 21028m | 5.6m/s | -55.2°C | 4.7% | 49.9hPa | 2.7V | 00:00:00 | 01:25:12 | 00:00:00 | |
| DM0DOS-11 | 2026-09-03 23:54:36 | 48.40819 | 10.02149 | 140° | 4km/h | 20987m | 5.9m/s | -55.3°C | 4.7% | 50.3hPa | 2.7V | 08:30:00 | 01:25:04 | 00:00:00 | |
| DK7TD | 2026-09-03 23:54:34 | 48.40819 | 10.02152 | 90° | 5km/h | 21003m | 5m/s | -55.3°C | 1.3% | 50.1hPa | 2.5V | 18:12:15 | 01:25:07 | 00:00:00 | |
| DK5PH-5 | 2026-09-03 23:54:34 | 48.40819 | 10.02152 | 90° | 11km/h | 21003m | 5.0m/s | -55.2°C | 4.7% | 50.1hPa | 2.5V | 00:00:00 | 01:25:07 | 00:00:00 | |
| DO3MHA-11 | 2026-09-03 23:54:33 | 48.40819 | 10.02151 | 71° | 7km/h | 20998m | 5.3m/s | -55.2°C | 4.7% | 50.1hPa | 2.5V | 00:00:00 | 01:25:06 | 00:00:00 | |
| DL1ZP-14 | 2026-09-03 23:54:32 | 48.40819 | 10.02149 | 81° | 2km/h | 20992m | 4.4m/s | -55.3°C | 1.5% | 50.2hPa | 2.5V | 00:00:00 | 00:00:00 | 00:00:00 | |
| DO3MHA-12 | 2026-09-03 23:54:29 | 48.40821 | 10.02147 | 150° | 13km/h | 20977m | 4.5m/s | -55.3°C | 4.8% | 50.3hPa | 2.7V | 00:00:00 | 01:25:02 | 00:00:00 | |
| IW2NTF | 2026-09-03 23:54:27 | 48.40823 | 10.02143 | 109° | 7km/h | 20967m | 4.6m/s | -55.5°C | 4.8% | 50.5hPa | 2.5V | 08:30:00 | 01:25:00 | 00:00:00 | |
| DK7TD | 2026-09-03 23:54:24 | 48.40826 | 10.02129 | 108° | 16km/h | 20951m | 4.4m/s | -55.5°C | 1.3% | 50.5hPa | 2.7V | 18:12:15 | 01:24:57 | 00:00:00 | |
| NBG1-10 | 2026-09-03 23:54:24 | 48.40826 | 10.02129 | 109° | 13km/h | 20952m | 4.4m/s | -55.4°C | 4.8% | 50.5hPa | 2.7V | 00:00:00 | 01:24:57 | 00:00:00 | |
| DM0DOS-11 | 2026-09-03 23:54:23 | 48.40829 | 10.02111 | 99° | 16km/h | 20936m | 4.3m/s | -55.3°C | 4.8% | 50.6hPa | 2.5V | 08:30:00 | 01:24:54 | 00:00:00 | |
| DJ8HS-15 | 2026-09-03 23:54:23 | 48.40827 | 10.02123 | 104° | 13km/h | 20947m | 5.4m/s | -55.4°C | 4.8% | 50.5hPa | 2.7V | 00:00:00 | 01:24:56 | 00:00:00 | |
| IW2NTF | 2026-09-03 23:54:22 | 48.40832 | 10.02091 | 104° | 7km/h | 20917m | 5.7m/s | -55.1°C | 4.7% | 50.8hPa | 2.7V | 08:30:00 | 01:24:50 | 00:00:00 | |
| DF3TZ-5 | 2026-09-03 23:54:22 | 48.40828 | 10.02117 | 99° | 15km/h | 20941m | 5.1m/s | -55.4°C | 1.5% | 50.6hPa | 2.7V | 00:00:00 | 00:00:00 | 00:00:00 | |
| DJTTGO | 2026-09-03 23:54:21 | 48.40828 | 10.02117 | 101° | 16km/h | 20942m | 5.1m/s | -55.4°C | 1.5% | 50.7hPa | 2.7V | 00:00:00 | 00:00:00 | 00:00:00 | |
| DO3MHA-12 | 2026-09-03 23:54:19 | 48.40831 | 10.02099 | 105° | 11km/h | 20927m | 4.1m/s | -55.2°C | 4.7% | 50.7hPa | 2.7V | 00:00:00 | 01:24:52 | 00:00:00 | |
| OE9MKV-15 | 2026-09-03 23:54:18 | 48.40832 | 10.02094 | 106° | 11km/h | 20923m | 4.7m/s | -55.2°C | 4.7% | 50.8hPa | 2.7V | 00:00:00 | 01:24:51 | 00:00:00 | |
| DB0NH | 2026-09-03 23:54:17 | 48.40832 | 10.02090 | 105° | 11km/h | 20917m | 5.6m/s | -55.1°C | 4.7% | 50.8hPa | 2.7V | 00:00:00 | 01:24:50 | 00:00:00 | |
| DM0DOS-11 | 2026-09-03 23:54:16 | 48.40842 | 10.02073 | 123° | 16km/h | 20888m | 4.4m/s | -55.1°C | 4.6% | 51hPa | 2.7V | 08:30:00 | 01:24:44 | 00:00:00 | |
| DK7TD | 2026-09-03 23:54:13 | 48.40837 | 10.02082 | 136° | 13km/h | 20898m | 5.2m/s | -55.1°C | 1.2% | 51hPa | 2.5V | 18:12:15 | 01:24:46 | 00:00:00 | |
| DM7RM-13 | 2026-09-03 23:54:12 | 48.40837 | 10.02082 | 137° | 13km/h | 20898m | 5.2m/s | -55.1°C | 1.5% | 51.0hPa | 2.5V | 00:00:00 | 00:00:00 | 00:00:00 | |
| DF7PN | 2026-09-03 23:54:11 | 48.40842 | 10.02073 | 123° | 16km/h | 20888m | 4.4m/s | -55.1°C | 1.4% | 51.0hPa | 2.5V | 00:00:00 | 00:00:00 | 00:00:00 | |
| IW2NTF | 2026-09-03 23:54:09 | 48.40848 | 10.02055 | 113° | 11km/h | 20869m | 5.9m/s | -55.1°C | 4.7% | 51.2hPa | 2.5V | 08:30:00 | 01:24:40 | 00:00:00 | |
| DK7TD | 2026-09-03 23:54:02 | 48.40851 | 10.02042 | 104° | 5km/h | 20843m | 4.6m/s | -55.2°C | 1.2% | 51.4hPa | 2.5V | 18:12:15 | 01:24:35 | 00:00:00 | |
| DL1ZP-14 | 2026-09-03 23:54:01 | 48.40853 | 10.02036 | 122° | 11km/h | 20832m | 4.5m/s | -55.2°C | 1.5% | 51.5hPa | 2.5V | 00:00:00 | 00:00:00 | 00:00:00 | |
| DO3MHA-12 | 2026-09-03 23:53:59 | 48.40855 | 10.02032 | 124° | 15km/h | 20828m | 4.3m/s | -55.1°C | 4.8% | 51.5hPa | 2.5V | 00:00:00 | 01:24:32 | 08:30:00 | |
| DM0DOS-11 | 2026-09-03 23:53:56 | 48.40859 | 10.02009 | 85° | 16km/h | 20803m | 5.3m/s | -55.2°C | 4.8% | 51.8hPa | 2.5V | 08:30:00 | 01:24:27 | 00:00:00 | |
| DK7TD | 2026-09-03 23:53:52 | 48.40857 | 10.01996 | 66° | 18km/h | 20794m | 5.1m/s | -55.1°C | 1.3% | 51.8hPa | 2.7V | 18:12:15 | 01:24:25 | 00:00:00 | |
| NBG1-10 | 2026-09-03 23:53:51 | 48.40854 | 10.01990 | 57° | 11km/h | 20789m | 5.1m/s | -55.1°C | 4.8% | 51.8hPa | 2.5V | 00:00:00 | 01:24:24 | 00:00:00 | |
| DM0DOS-11 | 2026-09-03 23:53:49 | 48.40847 | 10.01968 | 52° | 5km/h | 20753m | 5.4m/s | -55.2°C | 4.7% | 52.1hPa | 2.5V | 08:30:00 | 01:24:17 | 00:00:00 | |
| DB0ND-19 | 2026-09-03 23:53:45 | 48.40847 | 10.01968 | 52° | 5km/h | 20754m | 5.4m/s | -55.2°C | 1.4% | 52.1hPa | 2.5V | 00:00:00 | 00:00:00 | 00:00:00 | |
| DB0UT-7 | 2026-09-03 23:53:43 | 48.40846 | 10.01966 | 41° | 11km/h | 20749m | 4.6m/s | -55.2°C | 4.8% | 52.1hPa | 2.5V | 00:00:00 | 01:24:16 | 00:00:00 | |
| DF1GD-15 | 2026-09-03 23:53:42 | 48.40845 | 10.01966 | 41° | 7km/h | 20749m | 4.6m/s | -55.2°C | 1.5% | 52.2hPa | 2.7V | 00:00:00 | 00:00:00 | 00:00:00 | |
| IW2NTF | 2026-09-03 23:53:41 | 48.40833 | 10.01942 | 41° | 24km/h | 20718m | 4.1m/s | -55°C | 4.7% | 52.4hPa | 2.7V | 08:30:00 | 01:24:10 | 00:00:00 | |
| DK7TD | 2026-09-03 23:53:41 | 48.40843 | 10.01962 | 62° | 9km/h | 20739m | 5.7m/s | -55.2°C | 1.3% | 52.3hPa | 2.5V | 18:12:15 | 01:24:14 | 00:00:00 | |
| DF7PN | 2026-09-03 23:53:40 | 48.40842 | 10.01958 | 61° | 11km/h | 20733m | 4.5m/s | -55.1°C | 1.5% | 52.3hPa | 2.7V | 00:00:00 | 00:00:00 | 00:00:00 | |
| DO3MHA-12 | 2026-09-03 23:53:39 | 48.40840 | 10.01953 | 56° | 15km/h | 20729m | 5.3m/s | -55.1°C | 4.7% | 52.3hPa | 2.7V | 00:00:00 | 01:24:12 | 00:00:00 | |
| DO9LL-15 | 2026-09-03 23:53:37 | 48.40833 | 10.01942 | 42° | 9km/h | 20718m | 4.0m/s | -55.0°C | 4.7% | 52.4hPa | 2.7V | 00:00:00 | 01:24:10 | 00:00:00 | |
| DM0DOS-11 | 2026-09-03 23:53:36 | 48.40821 | 10.01928 | 30° | 13km/h | 20703m | 5.5m/s | -54.9°C | 4.8% | 52.5hPa | 2.5V | 08:30:00 | 01:24:07 | 00:00:00 | |
| DK7TD | 2026-09-03 23:53:31 | 48.40815 | 10.01927 | 341° | 7km/h | 20688m | 5.1m/s | -54.9°C | 1.3% | 52.7hPa | 2.7V | 18:12:15 | 01:24:04 | 00:00:00 | |
| DL1ZP-14 | 2026-09-03 23:53:30 | 48.40812 | 10.01929 | 351° | 4km/h | 20679m | 4.7m/s | -54.9°C | 1.5% | 52.8hPa | 2.5V | 00:00:00 | 00:00:00 | 00:00:00 | |
| IW2NTF | 2026-09-03 23:53:29 | 48.40810 | 10.01927 | 73° | 4km/h | 20668m | 5.3m/s | -54.9°C | 4.7% | 52.9hPa | 2.7V | 08:30:00 | 01:24:00 | 00:00:00 | |
| DO3MHA-12 | 2026-09-03 23:53:29 | 48.40812 | 10.01929 | 352° | 11km/h | 20679m | 4.6m/s | -54.9°C | 4.8% | 52.7hPa | 2.5V | 00:00:00 | 01:24:02 | 00:00:00 | |
| PG1ADW-2 | 2026-09-03 23:53:28 | 48.40811 | 10.01928 | 23° | 9km/h | 20674m | 6.0m/s | -54.9°C | 4.8% | 52.7hPa | 2.5V | 00:00:00 | 00:00:00 | 08:30:00 | |
| DM0DOS-11 | 2026-09-03 23:53:26 | 48.40807 | 10.01919 | 37° | 15km/h | 20653m | 5.4m/s | -54.8°C | 4.7% | 53hPa | 2.5V | 08:30:00 | 01:23:57 | 00:00:00 | |
| OE5DRO-10 | 2026-09-03 23:53:26 | 48.40810 | 10.01925 | 69° | 9km/h | 20663m | 3.8m/s | -54.8°C | 4.7% | 52.8hPa | 2.5V | 00:00:00 | 00:00:00 | 00:00:00 | |
| DJ8HS-15 | 2026-09-03 23:53:23 | 48.40803 | 10.01916 | 24° | 7km/h | 20648m | 4.6m/s | -54.7°C | 4.6% | 53.0hPa | 2.5V | 00:00:00 | 01:23:56 | 00:00:00 | |
| DL6DJ-15 | 2026-09-03 23:53:22 | 48.40795 | 10.01913 | 7° | 15km/h | 20639m | 4.9m/s | -54.7°C | 1.4% | 53.1hPa | 2.5V | 00:00:00 | 00:00:00 | 00:00:00 | |
| IW2NTF | 2026-09-03 23:53:21 | 48.40786 | 10.01909 | 35° | 4km/h | 20618m | 4.8m/s | -54.5°C | 4.7% | 53.2hPa | 2.5V | 08:30:00 | 01:23:50 | 00:00:00 | |
| DK7TD | 2026-09-03 23:53:20 | 48.40791 | 10.01912 | 9° | 13km/h | 20634m | 4.7m/s | -54.7°C | 1.3% | 53.1hPa | 2.7V | 18:12:15 | 01:23:53 | 00:00:00 | |
| DO3MHA-12 | 2026-09-03 23:53:19 | 48.40789 | 10.01911 | 19° | 5km/h | 20629m | 5.5m/s | -54.6°C | 4.7% | 53.1hPa | 2.7V | 00:00:00 | 01:23:52 | 00:00:00 | |
| NBG1-10 | 2026-09-03 23:53:18 | 48.40787 | 10.01910 | 32° | 7km/h | 20623m | 5.3m/s | -54.5°C | 4.7% | 53.2hPa | 2.7V | 00:00:00 | 01:23:51 | 00:00:00 | |
| DB0NH | 2026-09-03 23:53:17 | 48.40786 | 10.01909 | 36° | 7km/h | 20618m | 4.7m/s | -54.5°C | 4.7% | 53.2hPa | 2.7V | 00:00:00 | 01:23:50 | 00:00:00 | |
| DM0DOS-11 | 2026-09-03 23:53:15 | 48.40785 | 10.01912 | 275° | 5km/h | 20603m | 4.2m/s | -54.4°C | 4.7% | 53.4hPa | 2.7V | 08:30:00 | 01:23:47 | 00:00:00 | |
| DB0ND-19 | 2026-09-03 23:53:14 | 48.40785 | 10.01913 | 273° | 4km/h | 20598m | 6.0m/s | -54.4°C | 1.4% | 53.5hPa | 2.7V | 00:00:00 | 00:00:00 | 00:00:00 | |
| DB0UT-7 | 2026-09-03 23:53:13 | 48.40785 | 10.01913 | 274° | 7km/h | 20599m | 6.0m/s | -54.3°C | 4.6% | 53.4hPa | 2.7V | 00:00:00 | 00:00:00 | 00:00:00 | |
| OE3JTB-15 | 2026-09-03 23:53:12 | 48.40785 | 10.01915 | 266° | 7km/h | 20593m | 4.6m/s | -54.3°C | 4.7% | 53.4hPa | 2.7V | 00:00:00 | 00:00:00 | 00:00:00 | |
| DM7RM-13 | 2026-09-03 23:53:10 | 48.40785 | 10.01916 | 269° | 4km/h | 20589m | 3.8m/s | -54.3°C | 1.5% | 53.5hPa | 2.7V | 00:00:00 | 00:00:00 | 00:00:00 | |
| IW2NTF | 2026-09-03 23:53:09 | 48.40785 | 10.01927 | 247° | 5km/h | 20569m | 4.9m/s | -54.2°C | 4.5% | 53.6hPa | 2.7V | 08:30:00 | 01:23:40 | 00:00:00 | |
| DK7TD | 2026-09-03 23:53:09 | 48.40785 | 10.01921 | 274° | 9km/h | 20579m | 4.9m/s | -54.2°C | 1.2% | 53.6hPa | 2.5V | 18:12:15 | 01:23:42 | 00:00:00 | |
| DO3MHA-12 | 2026-09-03 23:53:09 | 48.40784 | 10.01921 | 275° | 5km/h | 20579m | 4.9m/s | -54.2°C | 4.6% | 53.5hPa | 2.5V | 00:00:00 | 01:23:42 | 00:00:00 | |
| PG1ADW-2 | 2026-09-03 23:53:08 | 48.40784 | 10.01924 | 264° | 7km/h | 20574m | 4.0m/s | -54.1°C | 4.6% | 53.6hPa | 2.5V | 00:00:00 | 00:00:00 | 00:00:00 | |
| DO9LL-15 | 2026-09-03 23:53:07 | 48.40785 | 10.01927 | 248° | 9km/h | 20570m | 4.9m/s | -54.1°C | 4.5% | 53.6hPa | 2.5V | 00:00:00 | 01:23:40 | 00:00:00 | |
| DK5PH-5 | 2026-09-03 23:53:04 | 48.40786 | 10.01926 | 88° | 11km/h | 20555m | 4.3m/s | -54.0°C | 4.5% | 53.7hPa | 2.5V | 00:00:00 | 01:23:37 | 00:00:00 | |
| DJ8HS-15 | 2026-09-03 23:53:03 | 48.40786 | 10.01925 | 59° | 9km/h | 20551m | 5.1m/s | -54.0°C | 4.5% | 53.8hPa | 2.5V | 00:00:00 | 01:23:36 | 00:00:00 | |
| IW2NTF | 2026-09-03 23:53:01 | 48.40794 | 10.01936 | 210° | 15km/h | 20520m | 5.3m/s | -53.9°C | 4.4% | 54.1hPa | 2.5V | 08:30:00 | 01:23:30 | 00:00:00 | |
| DK7TD | 2026-09-03 23:52:59 | 48.40788 | 10.01931 | 218° | 11km/h | 20532m | 6.3m/s | -53.9°C | 1.1% | 54hPa | 2.5V | 18:12:15 | 01:23:32 | 00:00:00 | |
| DL1ZP-14 | 2026-09-03 23:52:59 | 48.40791 | 10.01934 | 209° | 13km/h | 20526m | 5.3m/s | -53.9°C | 1.4% | 54.0hPa | 2.5V | 00:00:00 | 00:00:00 | 00:00:00 | |
| DJTTGO | 2026-09-03 23:52:56 | 48.40793 | 10.01936 | 211° | 15km/h | 20521m | 5.3m/s | -53.9°C | 1.4% | 54.1hPa | 2.5V | 00:00:00 | 00:00:00 | 00:00:00 | |
| AZAK | 2026-09-03 23:52:55 | 48.40799 | 10.01942 | 215° | 13km/h | 20510m | 4.5m/s | -53.9°C | 1.4% | 54.2hPa | 2.5V | 00:00:00 | 00:00:00 | 00:00:00 | |
| DO3MHA-11 | 2026-09-03 23:52:53 | 48.40805 | 10.01945 | 192° | 7km/h | 20500m | 5.9m/s | -53.9°C | 4.3% | 54.2hPa | 2.5V | 00:00:00 | 01:23:26 | 00:00:00 | |
| DM0DOS-11 | 2026-09-03 23:52:52 | 48.40810 | 10.01945 | 170° | 7km/h | 20489m | 5.6m/s | -53.9°C | 4.3% | 54.3hPa | 2.5V | 08:30:00 | 01:23:24 | 00:00:00 | |
| DK7TD | 2026-09-03 23:52:48 | 48.40813 | 10.01945 | 211° | 2km/h | 20476m | 4m/s | -54°C | 1% | 54.4hPa | 2.7V | 18:12:15 | 01:23:21 | 00:00:00 | |
| IW2NTF | 2026-09-03 23:52:47 | 48.40813 | 10.01945 | 205° | 5km/h | 20471m | 5.5m/s | -54°C | 4.2% | 54.5hPa | 2.7V | 08:30:00 | 01:23:20 | 00:00:00 | |
| DB0NH | 2026-09-03 23:52:47 | 48.40813 | 10.01945 | 206° | 20km/h | 20471m | 5.5m/s | -54.0°C | 4.2% | 54.4hPa | 2.5V | 00:00:00 | 01:23:20 | 00:00:00 | |
| DM0DOS-11 | 2026-09-03 23:52:46 | 48.40829 | 10.01957 | 207° | 16km/h | 20442m | 5.3m/s | -54.7°C | 4.4% | 54.7hPa | 2.5V | 08:30:00 | 01:23:14 | 00:00:00 | |
| PG1ADW-2 | 2026-09-03 23:52:45 | 48.40817 | 10.01948 | 203° | 20km/h | 20462m | 3.6m/s | -54.2°C | 4.3% | 54.5hPa | 2.7V | 00:00:00 | 01:23:18 | 00:00:00 | |
| DB0ND-19 | 2026-09-03 23:52:43 | 48.40825 | 10.01954 | 208° | 13km/h | 20447m | 4.0m/s | -54.6°C | 1.4% | 54.7hPa | 2.7V | 00:00:00 | 00:00:00 | 00:00:00 | |
| IW2NTF | 2026-09-03 23:52:42 | 48.40850 | 10.01970 | 198° | 24km/h | 20421m | 4.9m/s | -55°C | 4.6% | 54.9hPa | 2.7V | 08:30:00 | 01:23:10 | 00:00:00 | |
| DK7TD | 2026-09-03 23:52:37 | 48.40850 | 10.01970 | 199° | 24km/h | 20421m | 4.9m/s | -55°C | 1.2% | 54.9hPa | 2.7V | 18:12:15 | 01:23:10 | 00:00:00 | |
| DO9LL-15 | 2026-09-03 23:52:37 | 48.40849 | 10.01970 | 199° | 24km/h | 20421m | 4.8m/s | -55.0°C | 4.6% | 54.9hPa | 2.7V | 00:00:00 | 01:23:10 | 00:00:00 | |
| DK5PH-5 | 2026-09-03 23:52:34 | 48.40867 | 10.01976 | 188° | 24km/h | 20406m | 4.9m/s | -54.9°C | 4.6% | 55.0hPa | 2.7V | 00:00:00 | 01:23:07 | 00:00:00 | |
| DO3MHA-11 | 2026-09-03 23:52:33 | 48.40874 | 10.01977 | 183° | 22km/h | 20401m | 4.2m/s | -54.9°C | 4.5% | 55.1hPa | 2.7V | 00:00:00 | 01:23:06 | 00:00:00 | |
| IW2NTF | 2026-09-03 23:52:31 | 48.40906 | 10.01979 | 193° | 24km/h | 20373m | 4m/s | -55°C | 4.5% | 55.3hPa | 2.7V | 08:30:00 | 01:23:00 | 00:00:00 | |
| DK7TD | 2026-09-03 23:52:26 | 48.40912 | 10.01981 | 194° | 24km/h | 20369m | 4.6m/s | -55°C | 1.2% | 55.4hPa | 2.7V | 18:12:15 | 01:22:59 | 00:00:00 | |
| PG1ADW-2 | 2026-09-03 23:52:25 | 48.40918 | 10.01983 | 192° | 26km/h | 20364m | 5.4m/s | -55.0°C | 4.5% | 55.4hPa | 2.5V | 00:00:00 | 00:00:00 | 00:00:00 | |
| DJ8HS-15 | 2026-09-03 23:52:23 | 48.40928 | 10.01987 | 195° | 26km/h | 20355m | 5.5m/s | -55.1°C | 4.6% | 55.5hPa | 2.5V | 00:00:00 | 01:22:56 | 08:30:00 | |
| DL6DJ-15 | 2026-09-03 23:52:20 | 48.40951 | 10.01993 | 177° | 22km/h | 20335m | 4.4m/s | -55.5°C | 1.5% | 55.7hPa | 2.5V | 00:00:00 | 00:00:00 | 00:00:00 | |
| DO3MHA-12 | 2026-09-03 23:52:19 | 48.40951 | 10.01993 | 178° | 26km/h | 20336m | 4.3m/s | -55.4°C | 4.7% | 55.6hPa | 2.5V | 00:00:00 | 01:22:52 | 00:00:00 | |
| IW2NTF | 2026-09-03 23:52:18 | 48.40963 | 10.01991 | 175° | 26km/h | 20326m | 5.1m/s | -55.6°C | 4.7% | 55.8hPa | 2.5V | 08:30:00 | 01:22:50 | 00:00:00 | |
| DK7TD | 2026-09-03 23:52:15 | 48.40977 | 10.01989 | 169° | 29km/h | 20317m | 5.4m/s | -55.9°C | 1.3% | 55.8hPa | 2.7V | 18:12:15 | 01:22:48 | 00:00:00 | |
| AZAK | 2026-09-03 23:52:14 | 48.40984 | 10.01986 | 167° | 27km/h | 20312m | 5.1m/s | -55.9°C | 1.5% | 55.9hPa | 2.5V | 00:00:00 | 00:00:00 | 00:00:00 | |
| OE5DXL-15 | 2026-09-03 23:52:13 | 48.40991 | 10.01984 | 168° | 27km/h | 20307m | 3.9m/s | -55.9°C | 4.8% | 55.9hPa | 2.5V | 00:00:00 | 00:00:00 | 00:00:00 | |
| DB0ND-19 | 2026-09-03 23:52:12 | 48.41004 | 10.01981 | 178° | 26km/h | 20298m | 4.1m/s | -56.0°C | 1.5% | 56.0hPa | 2.5V | 00:00:00 | 00:00:00 | 00:00:00 | |
| IW2NTF | 2026-09-03 23:52:10 | 48.41029 | 10.01979 | 171° | 24km/h | 20279m | 4.3m/s | -56°C | 4.8% | 56.2hPa | 2.5V | 08:30:00 | 01:22:40 | 00:00:00 | |
| OE5DRO-10 | 2026-09-03 23:52:10 | 48.41011 | 10.01981 | 179° | 27km/h | 20293m | 4.4m/s | -56.0°C | 4.8% | 56.0hPa | 2.5V | 00:00:00 | 00:00:00 | 00:00:00 | |
| DO3MHA-12 | 2026-09-03 23:52:09 | 48.41017 | 10.01981 | 177° | 24km/h | 20288m | 5.5m/s | -55.9°C | 4.8% | 56.0hPa | 2.5V | 00:00:00 | 01:22:42 | 00:00:00 | |
| DM7RM-13 | 2026-09-03 23:52:08 | 48.41017 | 10.01981 | 177° | 24km/h | 20288m | 5.5m/s | -56.0°C | 1.5% | 56.1hPa | 2.5V | 00:00:00 | 00:00:00 | 00:00:00 | |
| DO9LL-15 | 2026-09-03 23:52:07 | 48.41029 | 10.01979 | 172° | 27km/h | 20279m | 4.3m/s | -55.9°C | 4.8% | 56.1hPa | 2.5V | 00:00:00 | 01:22:40 | 08:30:00 | |
| DM0DOS-11 | 2026-09-03 23:52:05 | 48.41068 | 10.01955 | 148° | 27km/h | 20247m | 4.9m/s | -56°C | 4.8% | 56.5hPa | 2.5V | 08:30:00 | 01:22:33 | 00:00:00 | |
| DK7TD | 2026-09-03 23:52:04 | 48.41046 | 10.01974 | 161° | 24km/h | 20266m | 4m/s | -56°C | 1.3% | 56.3hPa | 2.5V | 18:12:15 | 01:22:37 | 00:00:00 | |
| DK5PH-5 | 2026-09-03 23:52:04 | 48.41046 | 10.01974 | 162° | 29km/h | 20266m | 3.9m/s | -56.0°C | 4.8% | 56.2hPa | 2.5V | 00:00:00 | 01:22:37 | 00:00:00 | |
| DJ8HS-15 | 2026-09-03 23:52:03 | 48.41051 | 10.01970 | 153° | 29km/h | 20262m | 5.5m/s | -56.0°C | 4.8% | 56.3hPa | 2.5V | 00:00:00 | 01:22:36 | 00:00:00 | |
| SONDE2-11 | 2026-09-03 23:52:02 | 48.41067 | 10.01955 | 148° | 27km/h | 20247m | 4.9m/s | 0°C | -1.0% | -1.0hPa | 2.5V | 00:00:00 | 00:00:00 | 00:00:00 | |
| IW2NTF | 2026-09-03 23:52:00 | 48.41087 | 10.01936 | 145° | 33km/h | 20232m | 4.8m/s | -56.2°C | 4.8% | 56.6hPa | 2.5V | 08:30:00 | 01:22:30 | 00:00:00 | |
| DL1ZP-14 | 2026-09-03 23:51:56 | 48.41094 | 10.01929 | 148° | 31km/h | 20228m | 4.5m/s | -56.3°C | 1.5% | 56.6hPa | 2.7V | 00:00:00 | 00:00:00 | 00:00:00 | |
| DM0DOS-11 | 2026-09-03 23:51:55 | 48.41132 | 10.01897 | 146° | 27km/h | 20200m | 4.2m/s | -56.6°C | 5% | 56.9hPa | 2.7V | 08:30:00 | 01:22:23 | 00:00:00 | |
| DK7TD | 2026-09-03 23:51:54 | 48.41108 | 10.01919 | 156° | 29km/h | 20218m | 3.9m/s | -56.5°C | 1.4% | 56.7hPa | 2.5V | 18:12:15 | 01:22:27 | 00:00:00 | |
| DO3MHA-11 | 2026-09-03 23:51:53 | 48.41114 | 10.01914 | 154° | 27km/h | 20214m | 4.3m/s | -56.5°C | 5.0% | 56.7hPa | 2.5V | 00:00:00 | 01:22:26 | 00:00:00 | |
| AZAK | 2026-09-03 23:51:52 | 48.41114 | 10.01914 | 155° | 29km/h | 20214m | 4.4m/s | -56.5°C | 1.6% | 56.8hPa | 2.5V | 00:00:00 | 00:00:00 | 00:00:00 | |
| OE5DRO-10 | 2026-09-03 23:51:51 | 48.41126 | 10.01903 | 146° | 29km/h | 20205m | 4.3m/s | -56.5°C | 5.0% | 56.8hPa | 2.5V | 00:00:00 | 00:00:00 | 00:00:00 | |
| IW2NTF | 2026-09-03 23:51:50 | 48.41150 | 10.01881 | 147° | 27km/h | 20187m | 3.9m/s | -56.5°C | 5% | 57hPa | 2.5V | 08:30:00 | 01:22:20 | 00:00:00 | |
| DL6DJ-15 | 2026-09-03 23:51:49 | 48.41144 | 10.01886 | 150° | 26km/h | 20191m | 4.2m/s | -56.6°C | 1.6% | 57.0hPa | 2.5V | 00:00:00 | 00:00:00 | 00:00:00 | |
| DF3TZ-5 | 2026-09-03 23:51:47 | 48.41156 | 10.01875 | 142° | 27km/h | 20182m | 5.6m/s | -56.5°C | 1.6% | 57.0hPa | 2.5V | 00:00:00 | 00:00:00 | 00:00:00 | |
| DM0DOS-11 | 2026-09-03 23:51:45 | 48.41191 | 10.01829 | 138° | 27km/h | 20156m | 4.6m/s | -56.6°C | 5% | 57.3hPa | 2.5V | 08:30:00 | 01:22:13 | 00:00:00 | |
| DK7TD | 2026-09-03 23:51:43 | 48.41174 | 10.01851 | 138° | 33km/h | 20169m | 4.6m/s | -56.6°C | 1.5% | 57.2hPa | 2.7V | 18:12:15 | 01:22:16 | 00:00:00 | |
| DB0UT-7 | 2026-09-03 23:51:43 | 48.41173 | 10.01851 | 138° | 27km/h | 20169m | 4.6m/s | -56.5°C | 5.0% | 57.1hPa | 2.7V | 00:00:00 | 01:22:16 | 00:00:00 | |
| DB0ND-19 | 2026-09-03 23:51:40 | 48.41191 | 10.01829 | 138° | 26km/h | 20156m | 4.6m/s | -56.6°C | 1.6% | 57.3hPa | 2.7V | 00:00:00 | 00:00:00 | 00:00:00 | |
| DO3MHA-12 | 2026-09-03 23:51:39 | 48.41195 | 10.01822 | 135° | 29km/h | 20151m | 4.5m/s | -56.6°C | 5.0% | 57.3hPa | 2.7V | 00:00:00 | 01:22:12 | 00:00:00 | |
| DO9LL-15 | 2026-09-03 23:51:37 | 48.41206 | 10.01806 | 141° | 26km/h | 20143m | 4.0m/s | -56.6°C | 5.0% | 57.3hPa | 2.7V | 00:00:00 | 01:22:10 | 00:00:00 | |
| DF7PN | 2026-09-03 23:51:36 | 48.41212 | 10.01799 | 146° | 31km/h | 20139m | 4.3m/s | -56.7°C | 1.6% | 57.4hPa | 2.7V | 00:00:00 | 00:00:00 | 00:00:00 | |
| DM0DOS-11 | 2026-09-03 23:51:35 | 48.41251 | 10.01766 | 140° | 31km/h | 20113m | 4.3m/s | -56.8°C | 5% | 57.6hPa | 2.7V | 08:30:00 | 01:22:03 | 00:00:00 | |
| DK7TD | 2026-09-03 23:51:32 | 48.41239 | 10.01778 | 150° | 27km/h | 20121m | 3.9m/s | -56.8°C | 1.5% | 57.6hPa | 2.7V | 18:12:15 | 01:22:05 | 00:00:00 | |
| OE5DRO-10 | 2026-09-03 23:51:32 | 48.41239 | 10.01778 | 151° | 26km/h | 20122m | 3.9m/s | -56.7°C | 5.0% | 57.5hPa | 2.5V | 00:00:00 | 00:00:00 | 00:00:00 | |
| AZAK | 2026-09-03 23:51:31 | 48.41239 | 10.01779 | 151° | 27km/h | 20122m | 3.9m/s | -56.8°C | 1.6% | 57.6hPa | 2.5V | 00:00:00 | 00:00:00 | 00:00:00 | |
| DO3MHA-12 | 2026-09-03 23:51:29 | 48.41258 | 10.01758 | 142° | 26km/h | 20109m | 4.3m/s | -56.8°C | 5.0% | 57.6hPa | 2.5V | 00:00:00 | 01:22:02 | 00:00:00 | |
| DM7RM-13 | 2026-09-03 23:51:27 | 48.41264 | 10.01750 | 144° | 33km/h | 20105m | 4.0m/s | -56.8°C | 1.6% | 57.7hPa | 2.7V | 00:00:00 | 00:00:00 | 00:00:00 | |
| DM0DOS-11 | 2026-09-03 23:51:25 | 48.41305 | 10.01704 | 142° | 26km/h | 20067m | 5m/s | -56.9°C | 5.1% | 58.1hPa | 2.7V | 08:30:00 | 01:21:53 | 00:00:00 | |
| DK7TD | 2026-09-03 23:51:21 | 48.41299 | 10.01710 | 142° | 27km/h | 20072m | 4.3m/s | -56.9°C | 1.5% | 58hPa | 2.5V | 18:12:15 | 01:21:54 | 00:00:00 | |
| IW2NTF | 2026-09-03 23:51:20 | 48.41320 | 10.01686 | 141° | 26km/h | 20053m | 5.4m/s | -56.9°C | 5.1% | 58.2hPa | 2.5V | 08:30:00 | 01:21:50 | 00:00:00 | |
| DK7TD | 2026-09-03 23:51:11 | 48.41348 | 10.01659 | 148° | 20km/h | 20024m | 4.9m/s | -57.2°C | 1.5% | 58.5hPa | 2.5V | 18:12:15 | 01:21:44 | 00:00:00 | |
| DM0DOS-11 | 2026-09-03 23:51:10 | 48.41352 | 10.01655 | 142° | 22km/h | 20019m | 4.2m/s | -57.2°C | 5.2% | 58.5hPa | 2.5V | 08:30:00 | 01:21:43 | 00:00:00 | |
| DO3MHA-12 | 2026-09-03 23:51:09 | 48.41356 | 10.01649 | 139° | 29km/h | 20015m | 4.6m/s | -57.2°C | 5.2% | 58.5hPa | 2.7V | 00:00:00 | 01:21:42 | 00:00:00 | |
| IW2NTF | 2026-09-03 23:51:08 | 48.41365 | 10.01637 | 133° | 26km/h | 20005m | 4.4m/s | -57.2°C | 5.2% | 58.7hPa | 2.7V | 08:30:00 | 01:21:40 | 00:00:00 | |
| DO9LL-15 | 2026-09-03 23:51:07 | 48.41365 | 10.01637 | 134° | 15km/h | 20006m | 4.3m/s | -57.2°C | 5.2% | 58.6hPa | 2.7V | 00:00:00 | 01:21:40 | 00:00:00 | |
| NBG1-10 | 2026-09-03 23:51:06 | 48.41369 | 10.01630 | 134° | 26km/h | 20001m | 5.3m/s | -57.2°C | 5.1% | 58.6hPa | 2.7V | 00:00:00 | 01:21:39 | 00:00:00 | |
| DF7PN | 2026-09-03 23:51:05 | 48.41380 | 10.01612 | 132° | 35km/h | 19990m | 4.0m/s | -57.3°C | 1.7% | 58.8hPa | 2.5V | 00:00:00 | 00:00:00 | 00:00:00 | |
| DK5PH-5 | 2026-09-03 23:51:04 | 48.41380 | 10.01612 | 133° | 26km/h | 19990m | 4.0m/s | -57.3°C | 5.2% | 58.7hPa | 2.5V | 00:00:00 | 01:21:37 | 00:00:00 | |
| DJ8HS-15 | 2026-09-03 23:51:03 | 48.41386 | 10.01603 | 133° | 27km/h | 19986m | 3.8m/s | -57.3°C | 5.2% | 58.8hPa | 2.5V | 00:00:00 | 01:21:36 | 00:00:00 | |
| IW2NTF | 2026-09-03 23:51:00 | 48.41416 | 10.01558 | 133° | 22km/h | 19958m | 5.3m/s | -57.3°C | 5.2% | 59.1hPa | 2.5V | 08:30:00 | 01:21:30 | 00:00:00 | |
| DM0DOS-11 | 2026-09-03 23:51:00 | 48.41402 | 10.01578 | 135° | 26km/h | 19972m | 4.3m/s | -57.4°C | 5.2% | 59hPa | 2.5V | 08:30:00 | 01:21:33 | 00:00:00 | |
| DK7TD | 2026-09-03 23:51:00 | 48.41402 | 10.01578 | 135° | 26km/h | 19972m | 4.3m/s | -57.4°C | 1.5% | 59hPa | 2.5V | 18:12:15 | 01:21:33 | 00:00:00 | |
| DO3MHA-12 | 2026-09-03 23:50:59 | 48.41406 | 10.01571 | 138° | 26km/h | 19968m | 5.4m/s | -57.3°C | 5.2% | 58.9hPa | 2.5V | 00:00:00 | 01:21:32 | 08:30:00 | |
| DM0DOS-11 | 2026-09-03 23:50:55 | 48.41436 | 10.01500 | 110° | 29km/h | 19924m | 3.9m/s | -57°C | 5.1% | 59.4hPa | 2.5V | 08:30:00 | 01:21:23 | 00:00:00 | |
| DK7TD | 2026-09-03 23:50:50 | 48.41436 | 10.01500 | 110° | 29km/h | 19924m | 3.9m/s | -57°C | 1.5% | 59.4hPa | 2.5V | 18:12:15 | 01:21:23 | 00:00:00 | |
| DO3MHA-12 | 2026-09-03 23:50:49 | 48.41439 | 10.01489 | 113° | 24km/h | 19920m | 5.4m/s | -56.9°C | 5.1% | 59.4hPa | 2.5V | 00:00:00 | 01:21:22 | 00:00:00 | |
| IW2NTF | 2026-09-03 23:50:47 | 48.41445 | 10.01468 | 112° | 29km/h | 19910m | 4.9m/s | -56.9°C | 5.1% | 59.5hPa | 2.5V | 08:30:00 | 01:21:20 | 00:00:00 | |
| DL6DJ-15 | 2026-09-03 23:50:46 | 48.41448 | 10.01458 | 110° | 26km/h | 19904m | 5.3m/s | -56.9°C | 1.6% | 59.6hPa | 2.5V | 00:00:00 | 00:00:00 | 00:00:00 | |
| DM0DOS-11 | 2026-09-03 23:50:45 | 48.41464 | 10.01416 | 123° | 16km/h | 19876m | 4.4m/s | -57°C | 5.1% | 59.9hPa | 2.5V | 08:30:00 | 01:21:13 | 00:00:00 | |
| DF3TZ-5 | 2026-09-03 23:50:45 | 48.41453 | 10.01441 | 117° | 22km/h | 19895m | 5.4m/s | -56.9°C | 1.6% | 59.7hPa | 2.7V | 00:00:00 | 00:00:00 | 00:00:00 | |
| DO3MHA-11 | 2026-09-03 23:50:43 | 48.41456 | 10.01434 | 124° | 22km/h | 19890m | 4.7m/s | -56.9°C | 5.1% | 59.7hPa | 2.7V | 00:00:00 | 01:21:16 | 00:00:00 | |
| IW2NTF | 2026-09-03 23:50:42 | 48.41472 | 10.01398 | 120° | 20km/h | 19861m | 4.2m/s | -57°C | 5.1% | 60hPa | 2.7V | 08:30:00 | 01:21:10 | 00:00:00 | |
| DK7TD | 2026-09-03 23:50:39 | 48.41466 | 10.01410 | 127° | 18km/h | 19871m | 5.5m/s | -57°C | 1.4% | 59.9hPa | 2.5V | 18:12:15 | 01:21:12 | 00:00:00 | |
| DB0ND-19 | 2026-09-03 23:50:39 | 48.41469 | 10.01404 | 126° | 18km/h | 19866m | 4.6m/s | -57.0°C | 1.6% | 59.9hPa | 2.7V | 00:00:00 | 00:00:00 | 00:00:00 | |
| DF1GD-15 | 2026-09-03 23:50:37 | 48.41469 | 10.01404 | 128° | 20km/h | 19866m | 4.6m/s | -57.0°C | 1.6% | 59.9hPa | 2.7V | 00:00:00 | 00:00:00 | 00:00:00 | |
| DM0DOS-11 | 2026-09-03 23:50:35 | 48.41487 | 10.01331 | 102° | 27km/h | 19828m | 4m/s | -57.3°C | 5.2% | 60.3hPa | 2.7V | 08:30:00 | 01:21:03 | 00:00:00 | |
| OE5DRO-10 | 2026-09-03 23:50:35 | 48.41477 | 10.01382 | 108° | 24km/h | 19852m | 4.2m/s | -57.0°C | 5.1% | 60.0hPa | 2.5V | 00:00:00 | 00:00:00 | 00:00:00 | |
| DK5PH-5 | 2026-09-03 23:50:34 | 48.41479 | 10.01373 | 108° | 20km/h | 19847m | 5.3m/s | -57.1°C | 5.1% | 60.1hPa | 2.5V | 00:00:00 | 01:21:07 | 08:30:00 | |
| NBG1-10 | 2026-09-03 23:50:33 | 48.41481 | 10.01363 | 109° | 18km/h | 19842m | 4.7m/s | -57.2°C | 5.2% | 60.2hPa | 2.5V | 00:00:00 | 01:21:06 | 00:00:00 | |
| IW2NTF | 2026-09-03 23:50:32 | 48.41492 | 10.01303 | 109° | 24km/h | 19814m | 4.1m/s | -57.2°C | 5.3% | 60.5hPa | 2.5V | 08:30:00 | 01:21:00 | 00:00:00 | |
| DK7TD | 2026-09-03 23:50:28 | 48.41491 | 10.01312 | 108° | 24km/h | 19819m | 5.2m/s | -57.2°C | 1.5% | 60.4hPa | 2.5V | 18:12:15 | 01:21:01 | 00:00:00 | |
| DM0DOS-11 | 2026-09-03 23:50:25 | 48.41495 | 10.01252 | 92° | 20km/h | 19781m | 4.1m/s | -57.1°C | 5.1% | 60.8hPa | 2.7V | 08:30:00 | 01:20:53 | 00:00:00 | |
| DK7TD | 2026-09-03 23:50:17 | 48.41494 | 10.01230 | 86° | 18km/h | 19765m | 5.5m/s | -57.2°C | 1.5% | 60.9hPa | 2.5V | 18:12:15 | 01:20:50 | 00:00:00 | |
| OE9MKV-15 | 2026-09-03 23:50:17 | 48.41494 | 10.01230 | 87° | 11km/h | 19765m | 5.5m/s | -57.1°C | 5.3% | 60.8hPa | 2.5V | 00:00:00 | 01:20:50 | 00:00:00 | |
| OE5DRO-10 | 2026-09-03 23:50:16 | 48.41494 | 10.01223 | 92° | 15km/h | 19760m | 5.1m/s | -57.1°C | 5.3% | 60.9hPa | 2.5V | 00:00:00 | 00:00:00 | 08:30:00 | |
| IW2NTF | 2026-09-03 23:50:15 | 48.41493 | 10.01195 | 85° | 16km/h | 19736m | 5.4m/s | -57°C | 5.1% | 61.2hPa | 2.5V | 08:30:00 | 01:20:44 | 00:00:00 | |
| DB0NH | 2026-09-03 23:50:15 | 48.41494 | 10.01217 | 93° | 11km/h | 19756m | 3.8m/s | -57.0°C | 5.2% | 61.0hPa | 2.5V | 00:00:00 | 01:20:48 | 00:00:00 | |
| DM0DOS-11 | 2026-09-03 23:50:14 | 48.41492 | 10.01188 | 92° | 18km/h | 19731m | 5m/s | -57°C | 5.1% | 61.3hPa | 2.5V | 08:30:00 | 01:20:43 | 00:00:00 | |
| DK7TD | 2026-09-03 23:50:07 | 48.41493 | 10.01168 | 89° | 16km/h | 19717m | 4.9m/s | -56.9°C | 1.4% | 61.4hPa | 2.7V | 18:12:15 | 01:20:40 | 00:00:00 | |
| DM7RM-13 | 2026-09-03 23:50:06 | 48.41493 | 10.01162 | 91° | 16km/h | 19712m | 4.5m/s | -56.9°C | 1.6% | 61.4hPa | 2.7V | 00:00:00 | 00:00:00 | 00:00:00 | |
| IW2NTF | 2026-09-03 23:50:05 | 48.41499 | 10.01138 | 119° | 9km/h | 19684m | 5m/s | -56.8°C | 5.1% | 61.7hPa | 2.7V | 08:30:00 | 01:20:34 | 00:00:00 | |
| PG1ADW-2 | 2026-09-03 23:50:05 | 48.41493 | 10.01156 | 98° | 9km/h | 19707m | 6.0m/s | -56.8°C | 5.1% | 61.4hPa | 2.7V | 00:00:00 | 01:20:38 | 00:00:00 | |
| DM0DOS-11 | 2026-09-03 23:50:04 | 48.41500 | 10.01136 | 128° | 7km/h | 19679m | 4.8m/s | -56.7°C | 5.1% | 61.8hPa | 2.7V | 08:30:00 | 01:20:33 | 00:00:00 | |
| DK7TD | 2026-09-03 23:49:56 | 48.41504 | 10.01130 | 95° | 5km/h | 19660m | 5.4m/s | -56.7°C | 1.4% | 62hPa | 2.5V | 18:12:15 | 01:20:29 | 00:00:00 | |
| DM0DOS-11 | 2026-09-03 23:49:54 | 48.41505 | 10.01110 | 91° | 11km/h | 19629m | 4.7m/s | -56.6°C | 5.2% | 62.2hPa | 2.7V | 08:30:00 | 01:20:23 | 00:00:00 | |
| DL1ZP-14 | 2026-09-03 23:49:52 | 48.41504 | 10.01118 | 100° | 9km/h | 19640m | 5.0m/s | -56.7°C | 1.6% | 62.1hPa | 2.5V | 00:00:00 | 00:00:00 | 00:00:00 | |
| DO3MHA-11 | 2026-09-03 23:49:51 | 48.41505 | 10.01114 | 97° | 4km/h | 19634m | 6.2m/s | -56.6°C | 5.1% | 62.1hPa | 2.7V | 00:00:00 | 01:20:24 | 00:00:00 | |
| IW2NTF | 2026-09-03 23:49:50 | 48.41505 | 10.01106 | 98° | 9km/h | 19624m | 4.8m/s | -56.6°C | 5.2% | 62.3hPa | 2.7V | 08:30:00 | 01:20:22 | 00:00:00 | |
| DK7TD | 2026-09-03 23:49:46 | 48.41507 | 10.01101 | 157° | 2km/h | 19609m | 5.6m/s | -56.5°C | 1.4% | 62.4hPa | 2.5V | 18:12:15 | 01:20:19 | 00:00:00 | |
| DB0NH | 2026-09-03 23:49:45 | 48.41507 | 10.01101 | 230° | 5km/h | 19604m | 5.3m/s | -56.4°C | 5.1% | 62.5hPa | 2.5V | 00:00:00 | 01:20:18 | 00:00:00 | |
| DM0DOS-11 | 2026-09-03 23:49:44 | 48.41507 | 10.01104 | 3° | 4km/h | 19578m | 6.4m/s | -56.2°C | 4.9% | 62.7hPa | 2.5V | 08:30:00 | 01:20:13 | 00:00:00 | |
| DK7TD | 2026-09-03 23:49:36 | 48.41503 | 10.01100 | 72° | 4km/h | 19557m | 4.4m/s | -56.1°C | 1.4% | 63hPa | 2.7V | 18:12:15 | 01:20:09 | 00:00:00 | |
| IW2NTF | 2026-09-03 23:49:35 | 48.41503 | 10.01097 | 131° | 2km/h | 19546m | 4.4m/s | -56°C | 4.9% | 63.1hPa | 2.5V | 08:30:00 | 01:20:07 | 00:00:00 | |
| DM0DOS-11 | 2026-09-03 23:49:34 | 48.41510 | 10.01103 | 224° | 11km/h | 19526m | 5.3m/s | -55.8°C | 4.9% | 63.2hPa | 2.5V | 08:30:00 | 01:20:03 | 00:00:00 | |
| DK5PH-5 | 2026-09-03 23:49:34 | 48.41503 | 10.01097 | 132° | 7km/h | 19547m | 4.3m/s | -55.9°C | 4.9% | 63.0hPa | 2.7V | 00:00:00 | 01:20:07 | 00:00:00 | |
| DF7PN | 2026-09-03 23:49:32 | 48.41508 | 10.01100 | 213° | 11km/h | 19531m | 3.9m/s | -55.8°C | 1.5% | 63.2hPa | 2.7V | 00:00:00 | 00:00:00 | 00:00:00 | |
| IW2NTF | 2026-09-03 23:49:29 | 48.41512 | 10.01115 | 289° | 2km/h | 19496m | 4.2m/s | -55.6°C | 4.9% | 63.6hPa | 2.7V | 08:30:00 | 01:19:57 | 00:00:00 | |
| DK7TD | 2026-09-03 23:49:26 | 48.41512 | 10.01113 | 287° | 4km/h | 19506m | 5.7m/s | -55.7°C | 1.3% | 63.5hPa | 2.7V | 18:12:15 | 01:19:59 | 00:00:00 | |
| DO9LL-15 | 2026-09-03 23:49:25 | 48.41512 | 10.01114 | 276° | 9km/h | 19501m | 4.9m/s | -55.6°C | 4.9% | 63.5hPa | 2.7V | 00:00:00 | 01:19:58 | 00:00:00 | |
| DM7RM-13 | 2026-09-03 23:49:24 | 48.41512 | 10.01114 | 277° | 2km/h | 19501m | 5.0m/s | -55.6°C | 1.6% | 63.5hPa | 2.5V | 00:00:00 | 00:00:00 | 00:00:00 | |
| DJ8HS-15 | 2026-09-03 23:49:23 | 48.41512 | 10.01115 | 335° | 7km/h | 19492m | 5.2m/s | -55.5°C | 4.9% | 63.5hPa | 2.5V | 00:00:00 | 01:19:56 | 08:30:00 | |
| DL1ZP-14 | 2026-09-03 23:49:21 | 48.41511 | 10.01116 | 279° | 2km/h | 19483m | 4.0m/s | -55.5°C | 1.6% | 63.7hPa | 2.5V | 00:00:00 | 00:00:00 | 00:00:00 | |
| DO3MHA-11 | 2026-09-03 23:49:19 | 48.41513 | 10.01120 | 215° | 11km/h | 19472m | 6.0m/s | -55.4°C | 4.9% | 63.8hPa | 2.7V | 00:00:00 | 01:19:52 | 00:00:00 | |
| DF2AP-13 | 2026-09-03 23:49:18 | 48.41515 | 10.01122 | 208° | 11km/h | 19466m | 5.3m/s | -55.3°C | 4.9% | 63.8hPa | 2.7V | 00:00:00 | 01:19:51 | 08:30:00 | |
| IW2NTF | 2026-09-03 23:49:15 | 48.41529 | 10.01127 | 182° | 15km/h | 19444m | 5.9m/s | -55.3°C | 4.8% | 64.1hPa | 2.7V | 08:30:00 | 01:19:47 | 00:00:00 | |
| DK7TD | 2026-09-03 23:49:15 | 48.41525 | 10.01127 | 187° | 15km/h | 19450m | 4.5m/s | -55.4°C | 1.3% | 64hPa | 2.5V | 18:12:15 | 01:19:48 | 00:00:00 | |
| DB0NH | 2026-09-03 23:49:15 | 48.41525 | 10.01127 | 187° | 11km/h | 19450m | 4.5m/s | -55.3°C | 4.9% | 64.0hPa | 2.5V | 00:00:00 | 01:19:48 | 00:00:00 | |
| DB0UT-7 | 2026-09-03 23:49:13 | 48.41532 | 10.01127 | 181° | 11km/h | 19440m | 4.3m/s | -55.2°C | 4.8% | 64.1hPa | 2.7V | 00:00:00 | 00:00:00 | 00:00:00 | |
| OE9MKV-15 | 2026-09-03 23:49:11 | 48.41536 | 10.01127 | 173° | 11km/h | 19429m | 5.6m/s | -55.1°C | 4.7% | 64.2hPa | 2.5V | 00:00:00 | 01:19:44 | 00:00:00 | |
| DO3MHA-12 | 2026-09-03 23:49:09 | 48.41537 | 10.01127 | 266° | 9km/h | 19419m | 5.8m/s | -55.0°C | 4.6% | 64.3hPa | 2.5V | 00:00:00 | 01:19:42 | 00:00:00 | |
| AZAK | 2026-09-03 23:49:06 | 48.41538 | 10.01129 | 214° | 5km/h | 19408m | 4.6m/s | -55.0°C | 1.5% | 64.4hPa | 2.5V | 00:00:00 | 00:00:00 | 00:00:00 | |
| IW2NTF | 2026-09-03 23:49:05 | 48.41542 | 10.01131 | 183° | 7km/h | 19392m | 4.9m/s | -54.8°C | 4.6% | 64.6hPa | 2.5V | 08:30:00 | 01:19:37 | 00:00:00 | |
| DK7TD | 2026-09-03 23:49:04 | 48.41543 | 10.01131 | 184° | 7km/h | 19392m | 4.9m/s | -54.8°C | 1.2% | 64.6hPa | 2.5V | 18:12:15 | 01:19:37 | 00:00:00 | |
| DM7RM-13 | 2026-09-03 23:49:04 | 48.41542 | 10.01131 | 185° | 7km/h | 19392m | 4.9m/s | -54.8°C | 1.5% | 64.6hPa | 2.7V | 00:00:00 | 00:00:00 | 00:00:00 | |
| DJ8HS-15 | 2026-09-03 23:49:03 | 48.41545 | 10.01131 | 189° | 13km/h | 19387m | 5.1m/s | -54.7°C | 4.5% | 64.6hPa | 2.7V | 00:00:00 | 01:19:36 | 00:00:00 | |
| DM0DOS-11 | 2026-09-03 23:49:02 | 48.41557 | 10.01133 | 177° | 18km/h | 19371m | 5.5m/s | -54.7°C | 4.5% | 64.8hPa | 2.7V | 08:30:00 | 01:19:33 | 00:00:00 | |
| OE5DRO-10 | 2026-09-03 23:49:00 | 48.41556 | 10.01133 | 178° | 15km/h | 19371m | 5.4m/s | -54.6°C | 4.5% | 64.8hPa | 2.5V | 00:00:00 | 00:00:00 | 00:00:00 | |
| DO3MHA-12 | 2026-09-03 23:48:59 | 48.41561 | 10.01132 | 166° | 11km/h | 19366m | 5.5m/s | -54.6°C | 4.5% | 64.8hPa | 2.5V | 00:00:00 | 01:19:32 | 00:00:00 | |
| IW2NTF | 2026-09-03 23:48:55 | 48.41579 | 10.01120 | 131° | 9km/h | 19340m | 5.9m/s | -54.7°C | 4.4% | 65.1hPa | 2.5V | 08:30:00 | 01:19:27 | 00:00:00 | |
| DM0DOS-11 | 2026-09-03 23:48:55 | 48.41583 | 10.01118 | 203° | 9km/h | 19320m | 4.3m/s | -55.3°C | 4.6% | 65.3hPa | 2.7V | 08:30:00 | 01:19:23 | 00:00:00 | |
| DK7TD | 2026-09-03 23:48:54 | 48.41579 | 10.01120 | 132° | 9km/h | 19340m | 5.9m/s | -54.7°C | 1% | 65.2hPa | 2.5V | 18:12:15 | 01:19:27 | 00:00:00 | |
| DL1ZP-14 | 2026-09-03 23:48:50 | 48.41583 | 10.01118 | 203° | 9km/h | 19320m | 4.3m/s | -55.3°C | 1.5% | 65.3hPa | 2.7V | 00:00:00 | 00:00:00 | 00:00:00 | |
| DO3MHA-12 | 2026-09-03 23:48:49 | 48.41586 | 10.01119 | 199° | 18km/h | 19316m | 4.2m/s | -55.3°C | 4.6% | 65.3hPa | 2.5V | 00:00:00 | 01:19:22 | 00:00:00 | |
| DF2AP-13 | 2026-09-03 23:48:48 | 48.41589 | 10.01121 | 190° | 51km/h | 19312m | 4.9m/s | -55.3°C | 4.6% | 65.4hPa | 2.5V | 00:00:00 | 01:19:21 | 00:00:00 | |
| IW2NTF | 2026-09-03 23:48:45 | 48.41622 | 10.01111 | 162° | 22km/h | 19273m | 5.5m/s | -55.5°C | 4.6% | 65.8hPa | 2.5V | 08:30:00 | 01:19:14 | 00:00:00 | |
| PG1ADW-2 | 2026-09-03 23:48:45 | 48.41601 | 10.01119 | 167° | 27km/h | 19297m | 4.9m/s | -55.3°C | 4.6% | 65.5hPa | 2.5V | 00:00:00 | 01:19:18 | 00:00:00 | |
| OE3JTB-15 | 2026-09-03 23:48:44 | 48.41606 | 10.01117 | 168° | 24km/h | 19291m | 6.1m/s | -55.4°C | 4.6% | 65.6hPa | 2.5V | 00:00:00 | 01:19:17 | 00:00:00 | |
| DM0DOS-11 | 2026-09-03 23:48:43 | 48.41627 | 10.01108 | 153° | 18km/h | 19268m | 5.8m/s | -55.5°C | 4.6% | 65.8hPa | 2.5V | 08:30:00 | 01:19:13 | 00:00:00 | |
| DK7TD | 2026-09-03 23:48:43 | 48.41611 | 10.01115 | 168° | 22km/h | 19285m | 6.4m/s | -55.5°C | 1.2% | 65.7hPa | 2.7V | 18:12:15 | 01:19:16 | 00:00:00 | |
| DK7TD | 2026-09-03 23:48:33 | 48.41660 | 10.01059 | 135° | 35km/h | 19233m | 4.4m/s | -56°C | 1.3% | 66.2hPa | 2.6V | 18:12:15 | 01:19:06 | 00:00:00 | |
| DM0DOS-11 | 2026-09-03 23:48:31 | 48.41681 | 10.01037 | 153° | 33km/h | 19219m | 3.5m/s | -56.1°C | 4.7% | 66.4hPa | 2.7V | 08:30:00 | 01:19:03 | 00:00:00 | |
| IW2NTF | 2026-09-03 23:48:31 | 48.41714 | 10.01006 | 139° | 35km/h | 19196m | 5.2m/s | -56.2°C | 4.8% | 66.6hPa | 2.7V | 08:30:00 | 01:18:58 | 00:00:00 | |
| DK7TD | 2026-09-03 23:48:22 | 48.41735 | 10.00975 | 132° | 40km/h | 19182m | 4.9m/s | -56.2°C | 1.3% | 66.8hPa | 2.5V | 18:12:15 | 01:18:55 | 00:00:00 | |
| OE5DRO-10 | 2026-09-03 23:48:22 | 48.41735 | 10.00975 | 132° | 38km/h | 19182m | 4.8m/s | -56.1°C | 4.7% | 66.7hPa | 2.5V | 00:00:00 | 00:00:00 | 00:00:00 | |
| DM0DOS-11 | 2026-09-03 23:48:21 | 48.41749 | 10.00951 | 131° | 44km/h | 19173m | 4.5m/s | -56.2°C | 4.7% | 66.8hPa | 2.7V | 08:30:00 | 01:18:53 | 00:00:00 | |
| NBG1-10 | 2026-09-03 23:48:21 | 48.41742 | 10.00963 | 131° | 37km/h | 19178m | 4.3m/s | -56.1°C | 4.7% | 66.8hPa | 2.5V | 00:00:00 | 01:18:54 | 00:00:00 | |
| DO3MHA-12 | 2026-09-03 23:48:19 | 48.41756 | 10.00938 | 134° | 40km/h | 19169m | 5.1m/s | -56.1°C | 4.7% | 66.9hPa | 2.5V | 00:00:00 | 01:18:52 | 00:00:00 | |
| DM0DOS-11 | 2026-09-03 23:48:15 | 48.41812 | 10.00831 | 121° | 37km/h | 19126m | 4.2m/s | -56.9°C | 5% | 67.3hPa | 2.5V | 08:30:00 | 01:18:43 | 00:00:00 | |
| DK7TD | 2026-09-03 23:48:12 | 48.41803 | 10.00855 | 123° | 38km/h | 19135m | 5.6m/s | -56.7°C | 1.3% | 67.2hPa | 2.7V | 18:12:15 | 01:18:45 | 00:00:00 | |
| DL6DJ-15 | 2026-09-03 23:48:11 | 48.41808 | 10.00843 | 120° | 37km/h | 19130m | 4.5m/s | -56.9°C | 1.6% | 67.3hPa | 2.5V | 00:00:00 | 00:00:00 | 00:00:00 | |
| OE9MKV-15 | 2026-09-03 23:48:10 | 48.41812 | 10.00831 | 122° | 33km/h | 19126m | 4.2m/s | -56.9°C | 5.0% | 67.3hPa | 2.5V | 00:00:00 | 01:18:43 | 08:30:00 | |
| IW2NTF | 2026-09-03 23:48:09 | 48.41846 | 10.00774 | 128° | 31km/h | 19098m | 4.1m/s | -57.1°C | 5.1% | 67.7hPa | 2.6V | 08:30:00 | 01:18:37 | 00:00:00 | |
| DO3MHA-12 | 2026-09-03 23:48:09 | 48.41817 | 10.00820 | 126° | 35km/h | 19121m | 5.5m/s | -57.0°C | 5.0% | 67.4hPa | 2.5V | 00:00:00 | 01:18:42 | 00:00:00 | |
| DK5PH-5 | 2026-09-03 23:48:04 | 48.41845 | 10.00773 | 129° | 33km/h | 19098m | 4.0m/s | -57.0°C | 5.1% | 67.6hPa | 2.5V | 00:00:00 | 01:18:37 | 00:00:00 | |
| DM0DOS-11 | 2026-09-03 23:48:03 | 48.41867 | 10.00732 | 129° | 35km/h | 19081m | 3.4m/s | -57.1°C | 5% | 67.8hPa | 2.5V | 08:30:00 | 01:18:33 | 00:00:00 | |
| DK7TD | 2026-09-03 23:48:02 | 48.41856 | 10.00753 | 129° | 35km/h | 19090m | 5m/s | -57.1°C | 1.4% | 67.8hPa | 2.7V | 18:12:15 | 01:18:35 | 00:00:00 | |
| DF7PN | 2026-09-03 23:47:58 | 48.41877 | 10.00712 | 120° | 31km/h | 19072m | 5.0m/s | -57.1°C | 1.6% | 67.9hPa | 2.6V | 00:00:00 | 00:00:00 | 00:00:00 | |
| IW2NTF | 2026-09-03 23:47:55 | 48.41904 | 10.00649 | 132° | 31km/h | 19045m | 5.3m/s | -57.5°C | 5.1% | 68.2hPa | 2.6V | 08:30:00 | 01:18:25 | 00:00:00 | |
| DM0DOS-11 | 2026-09-03 23:47:53 | 48.41927 | 10.00614 | 131° | 35km/h | 19025m | 4.4m/s | -57.8°C | 5.2% | 68.4hPa | 2.5V | 08:30:00 | 01:18:21 | 00:00:00 | |
| DK7TD | 2026-09-03 23:47:51 | 48.41909 | 10.00640 | 135° | 31km/h | 19040m | 4.3m/s | -57.6°C | 1.4% | 68.3hPa | 2.7V | 18:12:15 | 01:18:24 | 00:00:00 | |
| DL1ZP-14 | 2026-09-03 23:47:48 | 48.41932 | 10.00604 | 127° | 33km/h | 19020m | 5.4m/s | -57.8°C | 1.7% | 68.5hPa | 2.5V | 00:00:00 | 00:00:00 | 00:00:00 | |
| AZAK | 2026-09-03 23:47:46 | 48.41942 | 10.00582 | 123° | 35km/h | 19012m | 4.3m/s | -57.8°C | 1.6% | 68.6hPa | 2.6V | 00:00:00 | 00:00:00 | 00:00:00 | |
| DB0NH | 2026-09-03 23:47:45 | 48.41942 | 10.00582 | 123° | 37km/h | 19012m | 4.3m/s | -57.8°C | 5.2% | 68.6hPa | 2.6V | 00:00:00 | 01:18:18 | 00:00:00 | |
| OE3JTB-15 | 2026-09-03 23:47:44 | 48.41947 | 10.00571 | 124° | 33km/h | 19007m | 5.5m/s | -57.7°C | 5.2% | 68.6hPa | 2.7V | 00:00:00 | 00:00:00 | 00:00:00 | |
| DM0DOS-11 | 2026-09-03 23:47:43 | 48.41980 | 10.00511 | 133° | 31km/h | 18980m | 4.4m/s | -57.8°C | 5.2% | 68.9hPa | 2.7V | 08:30:00 | 01:18:11 | 00:00:00 | |
| DK7TD | 2026-09-03 23:47:41 | 48.41964 | 10.00538 | 131° | 35km/h | 18994m | 4.8m/s | -57.8°C | 1.5% | 68.8hPa | 2.5V | 18:12:15 | 01:18:14 | 00:00:00 | |
| SONCRA | 2026-09-03 23:47:41 | 48.41969 | 10.00529 | 131° | 31km/h | 18989m | 5.0m/s | 0°C | -1.0% | -1.0hPa | 2.7V | 00:00:00 | 00:00:00 | 00:00:00 | |
| DL6DJ-15 | 2026-09-03 23:47:40 | 48.41969 | 10.00529 | 131° | 31km/h | 18989m | 5.0m/s | -57.8°C | 1.7% | 68.8hPa | 2.7V | 00:00:00 | 00:00:00 | 00:00:00 | |
| DO3MHA-12 | 2026-09-03 23:47:39 | 48.41975 | 10.00520 | 133° | 35km/h | 18984m | 4.2m/s | -57.8°C | 5.2% | 68.8hPa | 2.7V | 00:00:00 | 01:18:12 | 00:00:00 | |
| DO3MHA-11 | 2026-09-03 23:47:38 | 48.41980 | 10.00511 | 134° | 37km/h | 18980m | 4.3m/s | -57.8°C | 5.2% | 68.9hPa | 2.7V | 00:00:00 | 01:18:11 | 00:00:00 | |
| DM0DOS-11 | 2026-09-03 23:47:33 | 48.42033 | 10.00383 | 118° | 37km/h | 18927m | 4m/s | -57.7°C | 5.4% | 69.5hPa | 2.5V | 08:30:00 | 01:18:00 | 00:00:00 | |
| DB0ND-19 | 2026-09-03 23:47:32 | 48.42011 | 10.00448 | 115° | 35km/h | 18951m | 4.2m/s | -57.8°C | 1.7% | 69.3hPa | 2.5V | 00:00:00 | 00:00:00 | 00:00:00 | |
| IW2NTF | 2026-09-03 23:47:30 | 48.42024 | 10.00408 | 117° | 38km/h | 18937m | 4.7m/s | -57.7°C | 5.4% | 69.4hPa | 2.5V | 08:30:00 | 01:18:02 | 00:00:00 | |
| DK7TD | 2026-09-03 23:47:30 | 48.42019 | 10.00422 | 117° | 40km/h | 18941m | 4.6m/s | -57.8°C | 1.6% | 69.4hPa | 2.5V | 18:12:15 | 01:18:03 | 00:00:00 | |
| DK7TD | 2026-09-03 23:47:20 | 48.42067 | 10.00298 | 115° | 38km/h | 18893m | 5m/s | -57.4°C | 1.4% | 69.9hPa | 2.7V | 18:12:15 | 01:17:53 | 00:00:00 | |
| IW2NTF | 2026-09-03 23:47:19 | 48.42076 | 10.00258 | 106° | 35km/h | 18879m | 4.2m/s | -57.4°C | 5.1% | 70.1hPa | 2.5V | 08:30:00 | 01:17:50 | 00:00:00 | |
| DO3MHA-12 | 2026-09-03 23:47:19 | 48.42071 | 10.00284 | 113° | 37km/h | 18889m | 4.0m/s | -57.4°C | 5.2% | 69.9hPa | 2.7V | 00:00:00 | 01:17:52 | 00:00:00 | |
| DO3MHA-11 | 2026-09-03 23:47:18 | 48.42074 | 10.00271 | 109° | 37km/h | 18884m | 5.6m/s | -57.3°C | 5.2% | 69.9hPa | 2.7V | 00:00:00 | 01:17:51 | 00:00:00 | |
| DL1ZP-14 | 2026-09-03 23:47:17 | 48.42079 | 10.00245 | 107° | 35km/h | 18874m | 4.9m/s | -57.4°C | 1.6% | 70.1hPa | 2.7V | 00:00:00 | 00:00:00 | 00:00:00 | |
| NBG1-10 | 2026-09-03 23:47:15 | 48.42082 | 10.00232 | 110° | 35km/h | 18869m | 5.3m/s | -57.3°C | 5.1% | 70.1hPa | 2.5V | 00:00:00 | 01:17:48 | 00:00:00 | |
| OE5DXL-15 | 2026-09-03 23:47:13 | 48.42089 | 10.00205 | 112° | 33km/h | 18860m | 5.9m/s | -57.3°C | 5.1% | 70.2hPa | 2.5V | 00:00:00 | 00:00:00 | 00:00:00 | |
| DM0DOS-11 | 2026-09-03 23:47:12 | 48.42115 | 10.00129 | 118° | 35km/h | 18829m | 4.5m/s | -57.3°C | 5.1% | 70.6hPa | 2.5V | 08:30:00 | 01:17:40 | 00:00:00 | |
| DK7TD | 2026-09-03 23:47:10 | 48.42101 | 10.00166 | 118° | 38km/h | 18844m | 5.6m/s | -57.3°C | 1.4% | 70.4hPa | 2.7V | 18:12:15 | 01:17:43 | 00:00:00 | |
| DO3MHA-12 | 2026-09-03 23:47:09 | 48.42105 | 10.00153 | 121° | 33km/h | 18839m | 4.2m/s | -57.2°C | 5.0% | 70.4hPa | 2.7V | 00:00:00 | 01:17:42 | 00:00:00 | |
| DO3MHA-11 | 2026-09-03 23:47:08 | 48.42110 | 10.00141 | 120° | 33km/h | 18835m | 5.5m/s | -57.2°C | 5.1% | 70.5hPa | 2.7V | 00:00:00 | 01:17:41 | 00:00:00 | |
| OE5DRO-10 | 2026-09-03 23:47:07 | 48.42119 | 10.00117 | 118° | 33km/h | 18825m | 4.5m/s | -57.3°C | 5.0% | 70.6hPa | 2.7V | 00:00:00 | 00:00:00 | 00:00:00 | |
| DK5PH-5 | 2026-09-03 23:47:04 | 48.42127 | 10.00093 | 117° | 33km/h | 18815m | 4.6m/s | -57.3°C | 5.0% | 70.7hPa | 2.7V | 00:00:00 | 01:17:37 | 00:00:00 | |
| DJ8HS-15 | 2026-09-03 23:47:03 | 48.42130 | 10.00082 | 115° | 33km/h | 18810m | 5.2m/s | -57.3°C | 5.0% | 70.8hPa | 2.7V | 00:00:00 | 01:17:36 | 00:00:00 | |
| DM0DOS-11 | 2026-09-03 23:47:02 | 48.42152 | 10.00023 | 122° | 31km/h | 18781m | 5.1m/s | -57.5°C | 5.2% | 71.1hPa | 2.7V | 08:30:00 | 01:17:30 | 00:00:00 | |
| DK7TD | 2026-09-03 23:47:00 | 48.42140 | 10.00052 | 120° | 29km/h | 18795m | 5.5m/s | -57.5°C | 1.5% | 71hPa | 2.5V | 18:12:15 | 01:17:33 | 00:00:00 | |
| DF7PN | 2026-09-03 23:46:56 | 48.42156 | 10.00013 | 120° | 33km/h | 18777m | 4.3m/s | -57.5°C | 1.7% | 71.2hPa | 2.7V | 00:00:00 | 00:00:00 | 00:00:00 | |
| DM0DOS-11 | 2026-09-03 23:46:52 | 48.42186 | 9.99901 | 104° | 29km/h | 18734m | 5.2m/s | -57.6°C | 5.2% | 71.7hPa | 2.7V | 08:30:00 | 01:17:20 | 00:00:00 | |
| DK7TD | 2026-09-03 23:46:49 | 48.42182 | 9.99923 | 107° | 33km/h | 18744m | 5.7m/s | -57.7°C | 1.5% | 71.5hPa | 2.6V | 18:12:15 | 01:17:22 | 00:00:00 | |
| DL1ZP-14 | 2026-09-03 23:46:46 | 48.42189 | 9.99880 | 100° | 27km/h | 18724m | 4.7m/s | -57.6°C | 1.7% | 71.8hPa | 2.7V | 00:00:00 | 00:00:00 | 00:00:00 | |
| DB0NH | 2026-09-03 23:46:45 | 48.42189 | 9.99880 | 101° | 31km/h | 18724m | 4.6m/s | -57.5°C | 5.2% | 71.7hPa | 2.5V | 00:00:00 | 01:17:18 | 00:00:00 | |
| OE5DXL-15 | 2026-09-03 23:46:43 | 48.42192 | 9.99858 | 107° | 33km/h | 18714m | 4.2m/s | -57.5°C | 5.2% | 71.9hPa | 2.5V | 00:00:00 | 01:17:16 | 08:30:00 | |
| DM0DOS-11 | 2026-09-03 23:46:42 | 48.42207 | 9.99784 | 109° | 35km/h | 18684m | 5.1m/s | -57.6°C | 5.2% | 72.2hPa | 2.5V | 08:30:00 | 01:17:10 | 00:00:00 | |
| DK7TD | 2026-09-03 23:46:39 | 48.42201 | 9.99810 | 108° | 35km/h | 18694m | 5.9m/s | -57.6°C | 1.5% | 72.1hPa | 2.7V | 18:12:15 | 01:17:12 | 00:00:00 | |
| DO3MHA-12 | 2026-09-03 23:46:39 | 48.42201 | 9.99810 | 109° | 31km/h | 18695m | 5.8m/s | -57.6°C | 5.2% | 72.1hPa | 2.5V | 00:00:00 | 01:17:12 | 00:00:00 | |
| DO3MHA-11 | 2026-09-03 23:46:38 | 48.42204 | 9.99797 | 111° | 29km/h | 18689m | 4.6m/s | -57.6°C | 5.2% | 72.1hPa | 2.5V | 00:00:00 | 01:17:11 | 08:30:00 | |
| DF3TZ-5 | 2026-09-03 23:46:36 | 48.42210 | 9.99772 | 106° | 31km/h | 18679m | 5.0m/s | -57.7°C | 1.7% | 72.3hPa | 2.5V | 00:00:00 | 00:00:00 | 00:00:00 | |
| DK5PH-5 | 2026-09-03 23:46:34 | 48.42214 | 9.99751 | 109° | 33km/h | 18670m | 5.4m/s | -57.6°C | 5.2% | 72.3hPa | 2.5V | 00:00:00 | 01:17:07 | 00:00:00 | |
| IW2NTF | 2026-09-03 23:46:33 | 48.42230 | 9.99691 | 113° | 29km/h | 18641m | 5.5m/s | -57.8°C | 5.3% | 72.7hPa | 2.5V | 08:30:00 | 01:17:01 | 00:00:00 | |
| OE9MKV-15 | 2026-09-03 23:46:33 | 48.42217 | 9.99741 | 115° | 35km/h | 18664m | 5.1m/s | -57.6°C | 5.3% | 72.4hPa | 2.5V | 00:00:00 | 01:17:06 | 00:00:00 | |
| DM0DOS-11 | 2026-09-03 23:46:32 | 48.42233 | 9.99681 | 118° | 29km/h | 18636m | 4.5m/s | -57.8°C | 5.3% | 72.8hPa | 2.5V | 08:30:00 | 01:17:00 | 00:00:00 | |
| DK7TD | 2026-09-03 23:46:28 | 48.42230 | 9.99691 | 114° | 29km/h | 18641m | 5.5m/s | -57.8°C | 1.5% | 72.7hPa | 2.5V | 18:12:15 | 01:17:01 | 00:00:00 | |
| DO3MHA-11 | 2026-09-03 23:46:28 | 48.42230 | 9.99691 | 114° | 33km/h | 18641m | 5.4m/s | -57.7°C | 5.3% | 72.7hPa | 2.7V | 00:00:00 | 01:17:01 | 00:00:00 | |
| DF7PN | 2026-09-03 23:46:25 | 48.42241 | 9.99661 | 119° | 31km/h | 18626m | 4.9m/s | -57.7°C | 1.7% | 72.9hPa | 2.7V | 00:00:00 | 00:00:00 | 00:00:00 | |
| DJ8HS-15 | 2026-09-03 23:46:23 | 48.42250 | 9.99640 | 128° | 37km/h | 18617m | 5.1m/s | -57.6°C | 5.3% | 73.0hPa | 2.7V | 00:00:00 | 01:16:56 | 08:30:00 | |
| DM0DOS-11 | 2026-09-03 23:46:22 | 48.42284 | 9.99580 | 126° | 35km/h | 18589m | 5.3m/s | -57.6°C | 5.2% | 73.3hPa | 2.7V | 08:30:00 | 01:16:50 | 00:00:00 | |
| PG1ADW-2 | 2026-09-03 23:46:21 | 48.42262 | 9.99621 | 136° | 38km/h | 18607m | 3.9m/s | -57.6°C | 5.3% | 73.1hPa | 2.5V | 00:00:00 | 00:00:00 | 00:00:00 | |
| IW2NTF | 2026-09-03 23:46:19 | 48.42279 | 9.99591 | 126° | 35km/h | 18594m | 3.9m/s | -57.6°C | 5.3% | 73.3hPa | 2.6V | 08:30:00 | 01:16:51 | 00:00:00 | |
| DK7TD | 2026-09-03 23:46:18 | 48.42279 | 9.99591 | 126° | 35km/h | 18594m | 3.9m/s | -57.6°C | 1.5% | 73.3hPa | 2.6V | 18:12:15 | 01:16:51 | 00:00:00 | |
| DO3MHA-11 | 2026-09-03 23:46:18 | 48.42279 | 9.99591 | 127° | 35km/h | 18594m | 3.8m/s | -57.6°C | 5.3% | 73.2hPa | 2.5V | 00:00:00 | 01:16:51 | 00:00:00 | |
| DL1ZP-14 | 2026-09-03 23:46:15 | 48.42299 | 9.99547 | 121° | 33km/h | 18575m | 5.1m/s | -57.5°C | 1.7% | 73.5hPa | 2.5V | 00:00:00 | 00:00:00 | 00:00:00 | |
| IW2NTF | 2026-09-03 23:46:13 | 48.42331 | 9.99486 | 130° | 38km/h | 18547m | 4.1m/s | -57.4°C | 5.1% | 73.8hPa | 2.6V | 08:30:00 | 01:16:41 | 00:00:00 | |
| OE5DXL-15 | 2026-09-03 23:46:13 | 48.42303 | 9.99536 | 122° | 42km/h | 18571m | 3.7m/s | -57.4°C | 5.2% | 73.5hPa | 2.7V | 00:00:00 | 00:00:00 | 00:00:00 | |
| DF1GD-15 | 2026-09-03 23:46:10 | 48.42313 | 9.99516 | 132° | 33km/h | 18562m | 4.9m/s | -57.4°C | 1.7% | 73.6hPa | 2.7V | 00:00:00 | 00:00:00 | 00:00:00 | |
| DM0DOS-11 | 2026-09-03 23:46:09 | 48.42337 | 9.99475 | 131° | 40km/h | 18543m | 5.4m/s | -57.3°C | 5.1% | 73.9hPa | 2.7V | 08:30:00 | 01:16:40 | 00:00:00 | |
| DK7TD | 2026-09-03 23:46:08 | 48.42331 | 9.99486 | 131° | 38km/h | 18547m | 4.1m/s | -57.4°C | 1.4% | 73.8hPa | 2.6V | 18:12:15 | 01:16:41 | 00:00:00 | |
| DO3MHA-11 | 2026-09-03 23:46:08 | 48.42331 | 9.99486 | 131° | 42km/h | 18548m | 4.1m/s | -57.3°C | 5.1% | 73.8hPa | 2.6V | 00:00:00 | 01:16:41 | 00:00:00 | |
| DL6DJ-15 | 2026-09-03 23:46:07 | 48.42344 | 9.99463 | 131° | 42km/h | 18538m | 4.6m/s | -57.3°C | 1.7% | 74.0hPa | 2.5V | 00:00:00 | 00:00:00 | 00:00:00 | |
| DF3TZ-5 | 2026-09-03 23:46:05 | 48.42352 | 9.99450 | 129° | 44km/h | 18534m | 4.0m/s | -57.3°C | 1.7% | 74.0hPa | 2.5V | 00:00:00 | 00:00:00 | 00:00:00 | |
| DK5PH-5 | 2026-09-03 23:46:04 | 48.42358 | 9.99437 | 126° | 46km/h | 18529m | 5.0m/s | -57.3°C | 5.1% | 74.0hPa | 2.5V | 00:00:00 | 01:16:37 | 08:30:00 | |
| IW2NTF | 2026-09-03 23:46:03 | 48.42394 | 9.99357 | 123° | 38km/h | 18500m | 4.3m/s | -57.5°C | 5.2% | 74.4hPa | 2.5V | 08:30:00 | 01:16:31 | 00:00:00 | |
| DK7TD | 2026-09-03 23:45:57 | 48.42400 | 9.99345 | 126° | 38km/h | 18496m | 4.9m/s | -57.5°C | 1.6% | 74.4hPa | 2.5V | 18:12:15 | 01:16:30 | 00:00:00 | |
| DF7PN | 2026-09-03 23:45:54 | 48.42418 | 9.99310 | 128° | 40km/h | 18483m | 4.9m/s | -57.4°C | 1.7% | 74.6hPa | 2.7V | 00:00:00 | 00:00:00 | 00:00:00 | |
| IW2NTF | 2026-09-03 23:45:53 | 48.42459 | 9.99227 | 123° | 47km/h | 18455m | 4.8m/s | -57.4°C | 5.1% | 74.9hPa | 2.7V | 08:30:00 | 01:16:21 | 00:00:00 | |
| DM0DOS-11 | 2026-09-03 23:45:53 | 48.42445 | 9.99256 | 127° | 47km/h | 18464m | 4.6m/s | -57.4°C | 5.1% | 74.8hPa | 2.6V | 08:30:00 | 01:16:23 | 00:00:00 | |
| DK7TD | 2026-09-03 23:45:47 | 48.42466 | 9.99211 | 123° | 47km/h | 18450m | 3.4m/s | -57.5°C | 1.5% | 75hPa | 2.5V | 18:12:15 | 01:16:20 | 00:00:00 | |
| DB0NH | 2026-09-03 23:45:45 | 48.42479 | 9.99182 | 125° | 49km/h | 18442m | 4.4m/s | -57.6°C | 5.2% | 75.0hPa | 2.7V | 00:00:00 | 01:16:18 | 00:00:00 | |
| DL1ZP-14 | 2026-09-03 23:45:44 | 48.42492 | 9.99152 | 119° | 46km/h | 18432m | 5.3m/s | -57.8°C | 1.7% | 75.2hPa | 2.7V | 00:00:00 | 00:00:00 | 00:00:00 | |
| IW2NTF | 2026-09-03 23:45:43 | 48.42521 | 9.99074 | 116° | 49km/h | 18408m | 5.1m/s | -57.8°C | 5.3% | 75.5hPa | 2.7V | 08:30:00 | 01:16:11 | 00:00:00 | |
| DM0DOS-11 | 2026-09-03 23:45:43 | 48.42509 | 9.99106 | 120° | 47km/h | 18417m | 4.2m/s | -57.8°C | 5.3% | 75.4hPa | 2.6V | 08:30:00 | 01:16:13 | 00:00:00 | |
| DK7TD | 2026-09-03 23:45:36 | 48.42532 | 9.99042 | 119° | 47km/h | 18399m | 5.3m/s | -57.8°C | 1.5% | 75.6hPa | 2.5V | 18:12:15 | 01:16:09 | 00:00:00 | |
| DL6DJ-15 | 2026-09-03 23:45:36 | 48.42538 | 9.99026 | 119° | 47km/h | 18394m | 4.0m/s | -57.7°C | 1.7% | 75.6hPa | 2.5V | 00:00:00 | 00:00:00 | 00:00:00 | |
| DK5PH-5 | 2026-09-03 23:45:34 | 48.42544 | 9.99010 | 119° | 49km/h | 18390m | 4.5m/s | -57.7°C | 5.3% | 75.7hPa | 2.5V | 00:00:00 | 01:16:07 | 00:00:00 | |
| IW2NTF | 2026-09-03 23:45:33 | 48.42578 | 9.98902 | 110° | 55km/h | 18361m | 5.2m/s | -57.6°C | 5.3% | 76.1hPa | 2.5V | 08:30:00 | 01:16:01 | 00:00:00 | |
| DM0DOS-11 | 2026-09-03 23:45:33 | 48.42567 | 9.98939 | 115° | 53km/h | 18371m | 4.4m/s | -57.6°C | 5.3% | 75.9hPa | 2.5V | 08:30:00 | 01:16:03 | 00:00:00 | |
| DK7TD | 2026-09-03 23:45:26 | 48.42587 | 9.98864 | 109° | 51km/h | 18352m | 5.4m/s | -57.6°C | 1.5% | 76.2hPa | 2.7V | 18:12:15 | 01:15:59 | 00:00:00 | |
| IW2NTF | 2026-09-03 23:45:23 | 48.42624 | 9.98720 | 113° | 53km/h | 18313m | 4.4m/s | -57.4°C | 5.2% | 76.6hPa | 2.6V | 08:30:00 | 01:15:51 | 00:00:00 | |
| DJ8HS-15 | 2026-09-03 23:45:23 | 48.42599 | 9.98810 | 109° | 49km/h | 18338m | 5.0m/s | -57.4°C | 5.3% | 76.3hPa | 2.6V | 00:00:00 | 01:15:56 | 00:00:00 | |
| AZAK | 2026-09-03 23:45:21 | 48.42613 | 9.98756 | 116° | 51km/h | 18323m | 4.4m/s | -57.4°C | 1.7% | 76.5hPa | 2.7V | 00:00:00 | 00:00:00 | 00:00:00 | |
| DO3MHA-12 | 2026-09-03 23:45:18 | 48.42624 | 9.98720 | 114° | 49km/h | 18313m | 4.4m/s | -57.3°C | 5.2% | 76.6hPa | 2.7V | 00:00:00 | 01:15:51 | 00:00:00 | |
| DM0DOS-11 | 2026-09-03 23:45:16 | 48.42640 | 9.98664 | 113° | 53km/h | 18299m | 4.8m/s | -57.3°C | 5.1% | 76.8hPa | 2.7V | 08:30:00 | 01:15:48 | 00:00:00 | |
| DK7TD | 2026-09-03 23:45:16 | 48.42640 | 9.98664 | 113° | 53km/h | 18299m | 4.8m/s | -57.3°C | 1.4% | 76.8hPa | 2.7V | 18:12:15 | 01:15:48 | 00:00:00 | |
| IW2NTF | 2026-09-03 23:45:13 | 48.42662 | 9.98545 | 104° | 42km/h | 18267m | 4.9m/s | -57.3°C | 5.2% | 77.2hPa | 2.5V | 08:30:00 | 01:15:41 | 00:00:00 | |
| OE5DXL-15 | 2026-09-03 23:45:13 | 48.42649 | 9.98627 | 106° | 46km/h | 18290m | 3.8m/s | -57.2°C | 5.1% | 76.9hPa | 2.5V | 00:00:00 | 00:00:00 | 00:00:00 | |
| OE5DRO-10 | 2026-09-03 23:45:12 | 48.42652 | 9.98609 | 103° | 47km/h | 18286m | 4.0m/s | -57.3°C | 5.1% | 76.9hPa | 2.7V | 00:00:00 | 00:00:00 | 00:00:00 | |
| OE3JTB-15 | 2026-09-03 23:45:09 | 48.42659 | 9.98560 | 104° | 37km/h | 18272m | 4.1m/s | -57.3°C | 5.2% | 77.0hPa | 2.7V | 00:00:00 | 00:00:00 | 00:00:00 | |
| DM0DOS-11 | 2026-09-03 23:45:08 | 48.42673 | 9.98494 | 112° | 49km/h | 18254m | 4.3m/s | -57.4°C | 5.2% | 77.3hPa | 2.7V | 08:30:00 | 01:15:38 | 00:00:00 | |
| DK7TD | 2026-09-03 23:45:04 | 48.42678 | 9.98477 | 115° | 49km/h | 18250m | 4.8m/s | -57.4°C | 1.5% | 77.4hPa | 2.7V | 18:12:15 | 01:15:37 | 00:00:00 | |
| DK5PH-5 | 2026-09-03 23:45:04 | 48.42678 | 9.98477 | 116° | 42km/h | 18250m | 4.7m/s | -57.3°C | 5.2% | 77.4hPa | 2.7V | 00:00:00 | 01:15:37 | 00:00:00 | |
| NBG1-10 | 2026-09-03 23:45:03 | 48.42684 | 9.98460 | 117° | 42km/h | 18246m | 3.8m/s | -57.3°C | 5.2% | 77.4hPa | 2.7V | 00:00:00 | 01:15:36 | 00:00:00 | |
| IW2NTF | 2026-09-03 23:45:02 | 48.42709 | 9.98371 | 112° | 47km/h | 18223m | 4.8m/s | -57.3°C | 5.2% | 77.7hPa | 2.7V | 08:30:00 | 01:15:31 | 00:00:00 | |
| DK7TD | 2026-09-03 23:44:54 | 48.42725 | 9.98308 | 109° | 44km/h | 18204m | 4.7m/s | -57.4°C | 1.5% | 77.9hPa | 2.6V | 18:12:15 | 01:15:27 | 00:00:00 | |
| IW2NTF | 2026-09-03 23:44:53 | 48.42747 | 9.98221 | 110° | 42km/h | 18174m | 5.1m/s | -57.4°C | 5.2% | 78.3hPa | 2.7V | 08:30:00 | 01:15:21 | 00:00:00 | |
| OE5DRO-10 | 2026-09-03 23:44:53 | 48.42729 | 9.98293 | 110° | 38km/h | 18200m | 5.0m/s | -57.3°C | 5.2% | 78.0hPa | 2.6V | 00:00:00 | 00:00:00 | 00:00:00 | |
| DO9LL-15 | 2026-09-03 23:44:52 | 48.42732 | 9.98278 | 112° | 37km/h | 18194m | 5.3m/s | -57.4°C | 5.2% | 78.0hPa | 2.6V | 00:00:00 | 01:15:25 | 00:00:00 | |
| DN1GJH-1 | 2026-09-03 23:44:49 | 48.42740 | 9.98251 | 113° | 40km/h | 18185m | 5.7m/s | -57.4°C | 1.8% | 78.2hPa | 2.6V | 00:00:00 | 00:00:00 | 00:00:00 | |
| DO3MHA-12 | 2026-09-03 23:44:48 | 48.42747 | 9.98221 | 111° | 40km/h | 18175m | 5.1m/s | -57.3°C | 5.2% | 78.3hPa | 2.6V | 00:00:00 | 01:15:21 | 00:00:00 | |
| DF1GD-15 | 2026-09-03 23:44:47 | 48.42747 | 9.98221 | 111° | 42km/h | 18175m | 5.1m/s | -57.4°C | 1.7% | 78.3hPa | 2.6V | 00:00:00 | 00:00:00 | 00:00:00 | |
| DB0NH | 2026-09-03 23:44:45 | 48.42758 | 9.98176 | 108° | 35km/h | 18161m | 5.5m/s | -57.3°C | 5.2% | 78.4hPa | 2.6V | 00:00:00 | 01:15:18 | 00:00:00 | |
| IW2NTF | 2026-09-03 23:44:43 | 48.42774 | 9.98074 | 96° | 35km/h | 18127m | 4.1m/s | -57.4°C | 5.3% | 78.9hPa | 2.6V | 08:30:00 | 01:15:11 | 00:00:00 | |
| DK7TD | 2026-09-03 23:44:39 | 48.42773 | 9.98087 | 99° | 37km/h | 18131m | 4.9m/s | -57.4°C | 1.5% | 78.8hPa | 2.6V | 18:12:15 | 01:15:12 | 00:00:00 | |
| DO9HM | 2026-09-03 23:44:39 | 48.42773 | 9.98087 | 100° | 37km/h | 18132m | 4.9m/s | -57.4°C | 1.8% | 78.8hPa | 2.6V | 00:00:00 | 00:00:00 | 00:00:00 | |
| DO3MHA-12 | 2026-09-03 23:44:38 | 48.42774 | 9.98073 | 97° | 35km/h | 18127m | 4.1m/s | -57.4°C | 5.3% | 78.8hPa | 2.6V | 00:00:00 | 01:15:11 | 00:00:00 | |
| PG1ADW-2 | 2026-09-03 23:44:37 | 48.42775 | 9.98061 | 97° | 33km/h | 18122m | 5.4m/s | -57.4°C | 5.3% | 78.9hPa | 2.6V | 00:00:00 | 01:15:10 | 00:00:00 | |
| DL6DJ-15 | 2026-09-03 23:44:34 | 48.42779 | 9.98011 | 98° | 35km/h | 18103m | 4.0m/s | -57.4°C | 1.7% | 79.2hPa | 2.6V | 00:00:00 | 00:00:00 | 00:00:00 | |
| IW2NTF | 2026-09-03 23:44:33 | 48.42789 | 9.97944 | 106° | 38km/h | 18079m | 3.9m/s | -57.3°C | 5.2% | 79.5hPa | 2.6V | 08:30:00 | 01:15:01 | 00:00:00 | |
| DK7TD | 2026-09-03 23:44:29 | 48.42787 | 9.97958 | 106° | 37km/h | 18083m | 5.5m/s | -57.4°C | 1.5% | 79.4hPa | 2.7V | 18:12:15 | 01:15:02 | 00:00:00 | |
| DO3MHA-12 | 2026-09-03 23:44:28 | 48.42789 | 9.97944 | 107° | 33km/h | 18079m | 3.8m/s | -57.3°C | 5.2% | 79.5hPa | 2.6V | 00:00:00 | 01:15:01 | 00:00:00 | |
| DB0ND-19 | 2026-09-03 23:44:26 | 48.42795 | 9.97918 | 105° | 33km/h | 18069m | 5.0m/s | -57.3°C | 1.7% | 79.6hPa | 2.6V | 00:00:00 | 00:00:00 | 00:00:00 | |
| IW2NTF | 2026-09-03 23:44:23 | 48.42806 | 9.97826 | 107° | 31km/h | 18032m | 4.9m/s | -57.1°C | 5.2% | 80.1hPa | 2.6V | 08:30:00 | 01:14:51 | 00:00:00 | |
| DK7TD | 2026-09-03 23:44:19 | 48.42804 | 9.97836 | 105° | 27km/h | 18037m | 4.3m/s | -57.1°C | 1.5% | 80hPa | 2.7V | 18:12:15 | 01:14:52 | 00:00:00 | |
| AZAK | 2026-09-03 23:44:18 | 48.42806 | 9.97825 | 109° | 31km/h | 18032m | 4.9m/s | -57.1°C | 1.7% | 80.1hPa | 2.6V | 00:00:00 | 00:00:00 | 00:00:00 | |
| PG1ADW-2 | 2026-09-03 23:44:17 | 48.42808 | 9.97814 | 111° | 27km/h | 18027m | 4.6m/s | -57.0°C | 5.2% | 80.1hPa | 2.6V | 00:00:00 | 00:00:00 | 08:30:00 | |
| DB0NH | 2026-09-03 23:44:15 | 48.42815 | 9.97791 | 116° | 26km/h | 18018m | 5.6m/s | -57.0°C | 5.1% | 80.2hPa | 2.6V | 00:00:00 | 01:14:48 | 00:00:00 | |
| IW2NTF | 2026-09-03 23:44:13 | 48.42840 | 9.97720 | 118° | 26km/h | 17984m | 4.3m/s | -57°C | 5.1% | 80.7hPa | 2.6V | 08:30:00 | 01:14:41 | 00:00:00 | |
| DK7TD | 2026-09-03 23:44:09 | 48.42837 | 9.97729 | 119° | 27km/h | 17988m | 4.8m/s | -57°C | 1.5% | 80.7hPa | 2.7V | 18:12:15 | 01:14:42 | 00:00:00 | |
| DO3MHA-12 | 2026-09-03 23:44:08 | 48.42840 | 9.97719 | 119° | 26km/h | 17984m | 4.2m/s | -56.9°C | 5.1% | 80.7hPa | 2.7V | 00:00:00 | 01:14:41 | 00:00:00 | |
| DF1GD-15 | 2026-09-03 23:44:05 | 48.42845 | 9.97701 | 112° | 26km/h | 17974m | 4.0m/s | -56.9°C | 1.7% | 80.8hPa | 2.7V | 00:00:00 | 00:00:00 | 00:00:00 | |
| DK5PH-5 | 2026-09-03 23:44:04 | 48.42850 | 9.97684 | 110° | 22km/h | 17965m | 5.3m/s | -56.8°C | 5.1% | 80.9hPa | 2.7V | 00:00:00 | 01:14:37 | 00:00:00 | |
| IW2NTF | 2026-09-03 23:44:03 | 48.42868 | 9.97637 | 134° | 27km/h | 17936m | 4.3m/s | -56.7°C | 5.1% | 81.3hPa | 2.7V | 08:30:00 | 01:14:31 | 00:00:00 | |
| DK7TD | 2026-09-03 23:43:58 | 48.42868 | 9.97637 | 135° | 27km/h | 17936m | 4.3m/s | -56.7°C | 1.5% | 81.3hPa | 2.7V | 18:12:15 | 01:14:31 | 00:00:00 | |
| DB0ND-19 | 2026-09-03 23:43:55 | 48.42882 | 9.97614 | 128° | 24km/h | 17922m | 3.8m/s | -56.7°C | 1.7% | 81.5hPa | 2.6V | 00:00:00 | 00:00:00 | 00:00:00 | |
| DO9HM | 2026-09-03 23:43:54 | 48.42882 | 9.97614 | 130° | 26km/h | 17922m | 3.8m/s | -56.7°C | 1.7% | 81.5hPa | 2.6V | 00:00:00 | 00:00:00 | 00:00:00 | |
| IW2NTF | 2026-09-03 23:43:53 | 48.42897 | 9.97568 | 111° | 18km/h | 17887m | 4.6m/s | -56.9°C | 5.2% | 81.9hPa | 2.6V | 08:30:00 | 01:14:21 | 00:00:00 | |
| OE9MKV-15 | 2026-09-03 23:43:53 | 48.42889 | 9.97601 | 125° | 22km/h | 17912m | 4.5m/s | -56.7°C | 5.1% | 81.6hPa | 2.6V | 00:00:00 | 01:14:26 | 00:00:00 | |
| DM0DOS-11 | 2026-09-03 23:43:52 | 48.42893 | 9.97588 | 105° | 18km/h | 17902m | 5.2m/s | -56.9°C | 5.2% | 81.7hPa | 2.7V | 08:30:00 | 01:14:24 | 00:00:00 | |
| DF7PN | 2026-09-03 23:43:50 | 48.42894 | 9.97581 | 102° | 18km/h | 17897m | 4.5m/s | -56.9°C | 1.7% | 81.8hPa | 2.7V | 00:00:00 | 00:00:00 | 00:00:00 | |
| DO3MHA-11 | 2026-09-03 23:43:48 | 48.42897 | 9.97568 | 112° | 20km/h | 17887m | 4.5m/s | -56.9°C | 5.2% | 81.9hPa | 2.7V | 00:00:00 | 01:14:21 | 00:00:00 | |
| DK7TD | 2026-09-03 23:43:48 | 48.42897 | 9.97568 | 111° | 18km/h | 17887m | 4.6m/s | -56.9°C | 1.5% | 81.9hPa | 2.6V | 18:12:15 | 01:14:21 | 00:00:00 | |
| DM0DOS-11 | 2026-09-03 23:43:47 | 48.42921 | 9.97527 | 153° | 18km/h | 17854m | 4.7m/s | -56.6°C | 5.1% | 82.4hPa | 2.7V | 08:30:00 | 01:14:14 | 00:00:00 | |
| DB0NH | 2026-09-03 23:43:45 | 48.42904 | 9.97545 | 128° | 24km/h | 17873m | 3.6m/s | -56.7°C | 5.1% | 82.1hPa | 2.6V | 00:00:00 | 01:14:18 | 00:00:00 | |
| DF1GD-15 | 2026-09-03 23:43:44 | 48.42904 | 9.97545 | 129° | 24km/h | 17873m | 3.6m/s | -56.8°C | 1.7% | 82.1hPa | 2.6V | 00:00:00 | 00:00:00 | 00:00:00 | |
| IW2NTF | 2026-09-03 23:43:43 | 48.42931 | 9.97512 | 123° | 22km/h | 17838m | 4.9m/s | -56.5°C | 5.1% | 82.6hPa | 2.6V | 08:30:00 | 01:14:11 | 00:00:00 | |
| DK7TD | 2026-09-03 23:43:38 | 48.42931 | 9.97512 | 123° | 22km/h | 17838m | 4.9m/s | -56.5°C | 1.5% | 82.6hPa | 2.6V | 18:12:15 | 01:14:11 | 00:00:00 | |
| AZAK | 2026-09-03 23:43:38 | 48.42931 | 9.97512 | 124° | 22km/h | 17838m | 4.9m/s | -56.5°C | 1.7% | 82.6hPa | 2.7V | 00:00:00 | 00:00:00 | 00:00:00 | |
| PG1ADW-2 | 2026-09-03 23:43:37 | 48.42934 | 9.97504 | 122° | 24km/h | 17834m | 4.4m/s | -56.4°C | 5.1% | 82.6hPa | 2.7V | 00:00:00 | 00:00:00 | 00:00:00 | |
| DM0DOS-11 | 2026-09-03 23:43:36 | 48.42959 | 9.97466 | 141° | 26km/h | 17802m | 4.1m/s | -56.3°C | 5.1% | 83hPa | 2.7V | 08:30:00 | 01:14:04 | 00:00:00 | |
| OE5DRO-10 | 2026-09-03 23:43:36 | 48.42938 | 9.97497 | 124° | 24km/h | 17829m | 5.9m/s | -56.4°C | 5.1% | 82.7hPa | 2.7V | 00:00:00 | 00:00:00 | 00:00:00 | |
| DK5PH-5 | 2026-09-03 23:43:34 | 48.42945 | 9.97484 | 140° | 27km/h | 17818m | 4.6m/s | -56.3°C | 5.0% | 82.8hPa | 2.6V | 00:00:00 | 01:14:07 | 00:00:00 | |
| DL6DJ-15 | 2026-09-03 23:43:31 | 48.42959 | 9.97466 | 141° | 24km/h | 17802m | 4.1m/s | -56.3°C | 1.7% | 83.0hPa | 2.6V | 00:00:00 | 00:00:00 | 00:00:00 | |
| DF3TZ-5 | 2026-09-03 23:43:30 | 48.42964 | 9.97461 | 145° | 24km/h | 17797m | 5.7m/s | -56.3°C | 1.7% | 83.1hPa | 2.6V | 00:00:00 | 00:00:00 | 00:00:00 | |
| DM7RM-13 | 2026-09-03 23:43:29 | 48.42964 | 9.97460 | 147° | 26km/h | 17798m | 5.7m/s | -56.3°C | 1.7% | 83.1hPa | 2.6V | 00:00:00 | 00:00:00 | 00:00:00 | |
| DO3MHA-12 | 2026-09-03 23:43:28 | 48.42975 | 9.97451 | 150° | 24km/h | 17787m | 4.8m/s | -56.1°C | 5.0% | 83.2hPa | 2.6V | 00:00:00 | 01:14:01 | 08:30:00 | |
| IW2NTF | 2026-09-03 23:43:27 | 48.42986 | 9.97439 | 138° | 26km/h | 17777m | 4m/s | -56.1°C | 5% | 83.4hPa | 2.6V | 08:30:00 | 01:13:59 | 00:00:00 | |
| DK7TD | 2026-09-03 23:43:27 | 48.42980 | 9.97446 | 144° | 26km/h | 17782m | 5.5m/s | -56.2°C | 1.5% | 83.3hPa | 2.6V | 18:12:15 | 01:14:00 | 00:00:00 | |
| DM0DOS-11 | 2026-09-03 23:43:26 | 48.43006 | 9.97406 | 120° | 26km/h | 17752m | 5m/s | -56°C | 4.8% | 83.7hPa | 2.6V | 08:30:00 | 01:13:54 | 00:00:00 | |
| NBG1-10 | 2026-09-03 23:43:24 | 48.42995 | 9.97426 | 138° | 33km/h | 17767m | 5.8m/s | -56.0°C | 4.9% | 83.5hPa | 2.7V | 00:00:00 | 01:13:57 | 00:00:00 | |
| DJ8HS-15 | 2026-09-03 23:43:23 | 48.42999 | 9.97420 | 133° | 29km/h | 17762m | 4.1m/s | -56.0°C | 4.9% | 83.6hPa | 2.7V | 00:00:00 | 01:13:56 | 08:30:00 | |
| IW2NTF | 2026-09-03 23:43:21 | 48.43026 | 9.97374 | 153° | 24km/h | 17725m | 4.2m/s | -56.2°C | 4.9% | 84hPa | 2.6V | 08:30:00 | 01:13:49 | 00:00:00 | |
| DK7TD | 2026-09-03 23:43:17 | 48.43021 | 9.97378 | 149° | 22km/h | 17730m | 5m/s | -56.2°C | 1.4% | 84hPa | 2.6V | 18:12:15 | 01:13:50 | 00:00:00 | |
| PG1ADW-2 | 2026-09-03 23:43:17 | 48.43021 | 9.97378 | 149° | 35km/h | 17730m | 5.0m/s | -56.1°C | 4.9% | 83.9hPa | 2.6V | 00:00:00 | 01:13:50 | 00:00:00 | |
| DM0DOS-11 | 2026-09-03 23:43:16 | 48.43054 | 9.97345 | 143° | 33km/h | 17703m | 6.3m/s | -56.4°C | 5% | 84.3hPa | 2.6V | 08:30:00 | 01:13:44 | 00:00:00 | |
| DB0NH | 2026-09-03 23:43:15 | 48.43032 | 9.97369 | 152° | 37km/h | 17722m | 3.9m/s | -56.2°C | 4.9% | 84.1hPa | 2.6V | 00:00:00 | 01:13:48 | 00:00:00 | |
| OE3JTB-15 | 2026-09-03 23:43:14 | 48.43037 | 9.97365 | 147° | 38km/h | 17717m | 5.2m/s | -56.2°C | 4.9% | 84.1hPa | 2.7V | 00:00:00 | 00:00:00 | 00:00:00 | |
| DB0UT-7 | 2026-09-03 23:43:13 | 48.43042 | 9.97359 | 142° | 40km/h | 17713m | 3.7m/s | -56.3°C | 5.0% | 84.2hPa | 2.7V | 00:00:00 | 00:00:00 | 00:00:00 | |
| IW2NTF | 2026-09-03 23:43:11 | 48.43091 | 9.97301 | 136° | 38km/h | 17677m | 4.9m/s | -56.4°C | 5% | 84.7hPa | 2.6V | 08:30:00 | 01:13:39 | 00:00:00 | |
| DK7TD | 2026-09-03 23:43:07 | 48.43084 | 9.97310 | 137° | 37km/h | 17682m | 4.4m/s | -56.4°C | 1.5% | 84.7hPa | 2.6V | 18:12:15 | 01:13:40 | 00:00:00 | |
| DN1GJH-1 | 2026-09-03 23:43:06 | 48.43084 | 9.97310 | 138° | 37km/h | 17682m | 4.4m/s | -56.4°C | 1.8% | 84.6hPa | 2.6V | 00:00:00 | 00:00:00 | 00:00:00 | |
| DM0DOS-11 | 2026-09-03 23:43:04 | 48.43125 | 9.97250 | 136° | 38km/h | 17653m | 4.9m/s | -56.5°C | 5% | 85hPa | 2.6V | 08:30:00 | 01:13:34 | 00:00:00 | |
| DK5PH-5 | 2026-09-03 23:43:04 | 48.43105 | 9.97280 | 136° | 44km/h | 17668m | 4.0m/s | -56.4°C | 5.0% | 84.8hPa | 2.7V | 00:00:00 | 01:13:37 | 00:00:00 | |
| DJ8HS-15 | 2026-09-03 23:43:03 | 48.43112 | 9.97270 | 135° | 42km/h | 17663m | 5.5m/s | -56.4°C | 5.0% | 84.8hPa | 2.7V | 00:00:00 | 01:13:36 | 00:00:00 | |
| IW2NTF | 2026-09-03 23:43:01 | 48.43164 | 9.97198 | 139° | 42km/h | 17629m | 3.9m/s | -56.4°C | 5% | 85.3hPa | 2.7V | 08:30:00 | 01:13:29 | 00:00:00 | |
| DK7TD | 2026-09-03 23:42:56 | 48.43164 | 9.97198 | 139° | 42km/h | 17629m | 3.9m/s | -56.4°C | 1.5% | 85.3hPa | 2.7V | 18:12:15 | 01:13:29 | 00:00:00 | |
| DB0ND-19 | 2026-09-03 23:42:53 | 48.43189 | 9.97166 | 135° | 42km/h | 17615m | 5.4m/s | -56.4°C | 1.7% | 85.5hPa | 2.6V | 00:00:00 | 00:00:00 | 00:00:00 | |
| DM0DOS-11 | 2026-09-03 23:42:52 | 48.43230 | 9.97091 | 127° | 44km/h | 17585m | 4.8m/s | -56.8°C | 5.1% | 85.9hPa | 2.6V | 08:30:00 | 01:13:20 | 00:00:00 | |
| IW2NTF | 2026-09-03 23:42:51 | 48.43237 | 9.97078 | 129° | 44km/h | 17580m | 5.4m/s | -56.8°C | 5.1% | 86hPa | 2.7V | 08:30:00 | 01:13:19 | 00:00:00 | |
| DK7TD | 2026-09-03 23:42:46 | 48.43237 | 9.97078 | 130° | 44km/h | 17580m | 5.4m/s | -56.8°C | 1.5% | 86hPa | 2.7V | 18:12:15 | 01:13:19 | 00:00:00 | |
| OE3JTB-15 | 2026-09-03 23:42:45 | 48.43245 | 9.97065 | 134° | 49km/h | 17575m | 5.0m/s | -56.8°C | 5.2% | 86.0hPa | 2.7V | 00:00:00 | 01:13:18 | 00:00:00 | |
| DF1GD-15 | 2026-09-03 23:42:44 | 48.43253 | 9.97052 | 136° | 47km/h | 17570m | 3.9m/s | -56.9°C | 1.8% | 86.1hPa | 2.7V | 00:00:00 | 00:00:00 | 00:00:00 | |
| DJ8HS-15 | 2026-09-03 23:42:43 | 48.43262 | 9.97040 | 135° | 51km/h | 17566m | 5.4m/s | -56.9°C | 5.2% | 86.2hPa | 2.7V | 00:00:00 | 01:13:16 | 00:00:00 | |
| DM0DOS-11 | 2026-09-03 23:42:41 | 48.43317 | 9.96942 | 125° | 49km/h | 17531m | 3.5m/s | -57.1°C | 5.4% | 86.7hPa | 2.7V | 08:30:00 | 01:13:09 | 00:00:00 | |
| DK7TD | 2026-09-03 23:42:35 | 48.43324 | 9.96927 | 127° | 49km/h | 17527m | 5.2m/s | -57.1°C | 1.6% | 86.7hPa | 2.7V | 18:12:15 | 01:13:08 | 00:00:00 | |
| DK5PH-5 | 2026-09-03 23:42:34 | 48.43332 | 9.96912 | 131° | 47km/h | 17522m | 5.3m/s | -57.0°C | 5.3% | 86.8hPa | 2.6V | 00:00:00 | 01:13:07 | 00:00:00 | |
| DM0DOS-11 | 2026-09-03 23:42:31 | 48.43406 | 9.96791 | 132° | 49km/h | 17481m | 3.9m/s | -56.8°C | 5.2% | 87.4hPa | 2.6V | 08:30:00 | 01:12:59 | 00:00:00 | |
| DK7TD | 2026-09-03 23:42:25 | 48.43414 | 9.96778 | 134° | 47km/h | 17477m | 4.9m/s | -56.8°C | 1.6% | 87.4hPa | 2.7V | 18:12:15 | 01:12:58 | 00:00:00 | |
| DN1GJH-1 | 2026-09-03 23:42:24 | 48.43414 | 9.96778 | 135° | 47km/h | 17477m | 4.9m/s | -56.8°C | 1.8% | 87.4hPa | 2.7V | 00:00:00 | 00:00:00 | 00:00:00 | |
| DJ8HS-15 | 2026-09-03 23:42:23 | 48.43430 | 9.96754 | 137° | 44km/h | 17467m | 4.5m/s | -56.7°C | 5.2% | 87.5hPa | 2.7V | 00:00:00 | 01:12:56 | 00:00:00 | |
| DB0ND-19 | 2026-09-03 23:42:22 | 48.43438 | 9.96743 | 133° | 40km/h | 17461m | 5.6m/s | -56.7°C | 1.8% | 87.7hPa | 2.6V | 00:00:00 | 00:00:00 | 00:00:00 | |
| OE9MKV-15 | 2026-09-03 23:42:21 | 48.43445 | 9.96731 | 133° | 44km/h | 17456m | 4.3m/s | -56.7°C | 5.1% | 87.6hPa | 2.6V | 00:00:00 | 01:12:54 | 08:30:00 | |
| IW2NTF | 2026-09-03 23:42:19 | 48.43482 | 9.96665 | 124° | 49km/h | 17432m | 4.4m/s | -56.6°C | 5% | 0hPa | 2.6V | 08:30:00 | 01:12:49 | 00:00:00 | |
| DK7TD | 2026-09-03 23:42:14 | 48.43497 | 9.96635 | 128° | 49km/h | 17423m | 5.1m/s | -56.6°C | 1.5% | 88.2hPa | 2.6V | 18:12:15 | 01:12:47 | 00:00:00 | |
| OE5DXL-15 | 2026-09-03 23:42:13 | 48.43505 | 9.96621 | 131° | 44km/h | 17418m | 4.6m/s | -56.6°C | 5.0% | 88.2hPa | 2.7V | 00:00:00 | 00:00:00 | 08:30:00 | |
| DM0DOS-11 | 2026-09-03 23:42:11 | 48.43555 | 9.96537 | 128° | 40km/h | 17384m | 4.9m/s | -57.2°C | 5.2% | 88.7hPa | 2.6V | 08:30:00 | 01:12:39 | 00:00:00 | |
| DK7TD | 2026-09-03 23:42:04 | 48.43568 | 9.96513 | 126° | 40km/h | 17375m | 5.6m/s | -57.4°C | 1.7% | 88.8hPa | 2.6V | 18:12:15 | 01:12:37 | 00:00:00 | |
| DK5PH-5 | 2026-09-03 23:42:04 | 48.43568 | 9.96512 | 127° | 44km/h | 17375m | 5.5m/s | -57.4°C | 5.2% | 88.8hPa | 2.6V | 00:00:00 | 01:12:37 | 00:00:00 | |
| DJ8HS-15 | 2026-09-03 23:42:03 | 48.43573 | 9.96500 | 126° | 44km/h | 17370m | 4.8m/s | -57.5°C | 5.4% | 88.8hPa | 2.6V | 00:00:00 | 01:12:36 | 00:00:00 | |
| DN1GJH-1 | 2026-09-03 23:42:02 | 48.43574 | 9.96500 | 126° | 42km/h | 17370m | 4.8m/s | -57.5°C | 1.9% | 88.9hPa | 2.6V | 00:00:00 | 00:00:00 | 00:00:00 | |
| IW2NTF | 2026-09-03 23:42:01 | 48.43614 | 9.96402 | 123° | 38km/h | 17338m | 4.3m/s | -57.6°C | 5.4% | 0hPa | 2.6V | 08:30:00 | 01:12:29 | 00:00:00 | |
| DK7TD | 2026-09-03 23:41:53 | 48.43633 | 9.96364 | 130° | 44km/h | 17324m | 4.1m/s | -57.6°C | 1.8% | 89.5hPa | 2.7V | 18:12:15 | 01:12:26 | 00:00:00 | |
| IW2NTF | 2026-09-03 23:41:51 | 48.43683 | 9.96277 | 132° | 44km/h | 17289m | 5m/s | -57.6°C | 5.4% | 0hPa | 2.7V | 08:30:00 | 01:12:19 | 00:00:00 | |
| DB0ND-19 | 2026-09-03 23:41:51 | 48.43647 | 9.96339 | 129° | 40km/h | 17314m | 4.9m/s | -57.6°C | 1.9% | 89.7hPa | 2.6V | 00:00:00 | 00:00:00 | 00:00:00 | |
| DF7PN | 2026-09-03 23:41:46 | 48.43691 | 9.96265 | 134° | 44km/h | 17285m | 5.0m/s | -57.6°C | 1.9% | 90.1hPa | 2.6V | 00:00:00 | 00:00:00 | 00:00:00 | |
| DK7TD | 2026-09-03 23:41:43 | 48.43708 | 9.96241 | 138° | 46km/h | 17275m | 3.9m/s | -57.6°C | 1.8% | 90.2hPa | 2.6V | 18:12:15 | 01:12:16 | 00:00:00 | |
| DB0UT-7 | 2026-09-03 23:41:43 | 48.43708 | 9.96241 | 139° | 53km/h | 17275m | 3.9m/s | -57.5°C | 5.4% | 90.2hPa | 2.6V | 00:00:00 | 01:12:16 | 08:30:00 | |
| DN1GJH-1 | 2026-09-03 23:41:42 | 48.43708 | 9.96241 | 139° | 46km/h | 17275m | 3.9m/s | -57.6°C | 2.0% | 90.2hPa | 2.6V | 00:00:00 | 00:00:00 | 00:00:00 | |
| DM0DOS-11 | 2026-09-03 23:41:38 | 48.43795 | 9.96112 | 128° | 53km/h | 17227m | 4.5m/s | -57.5°C | 5.3% | 90.9hPa | 2.6V | 08:30:00 | 01:12:06 | 00:00:00 | |
| DK7TD | 2026-09-03 23:41:32 | 48.43803 | 9.96097 | 127° | 51km/h | 17222m | 5.2m/s | -57.5°C | 1.8% | 91hPa | 2.6V | 18:12:15 | 01:12:05 | 00:00:00 | |
| DO3MHA-12 | 2026-09-03 23:41:28 | 48.43835 | 9.96036 | 131° | 53km/h | 17204m | 4.6m/s | -57.7°C | 5.4% | 91.2hPa | 2.6V | 00:00:00 | 01:12:01 | 00:00:00 | |
| DO3MHA-11 | 2026-09-03 23:41:27 | 48.43843 | 9.96022 | 131° | 55km/h | 17199m | 5.0m/s | -57.7°C | 5.4% | 91.3hPa | 2.6V | 00:00:00 | 01:12:00 | 00:00:00 | |
| DM0DOS-11 | 2026-09-03 23:41:26 | 48.43888 | 9.95949 | 131° | 53km/h | 17175m | 5m/s | -57.9°C | 5.6% | 91.7hPa | 2.6V | 08:30:00 | 01:11:55 | 00:00:00 | |
| DK7TD | 2026-09-03 23:41:21 | 48.43897 | 9.95934 | 129° | 55km/h | 17171m | 3.8m/s | -57.9°C | 1.9% | 91.8hPa | 2.6V | 18:12:15 | 01:11:54 | 00:00:00 | |
| OE9MKV-15 | 2026-09-03 23:41:21 | 48.43897 | 9.95934 | 130° | 62km/h | 17172m | 3.8m/s | -57.9°C | 5.6% | 91.7hPa | 2.6V | 00:00:00 | 01:11:54 | 00:00:00 | |
| DB0ND-19 | 2026-09-03 23:41:20 | 48.43906 | 9.95917 | 128° | 57km/h | 17167m | 4.7m/s | -57.9°C | 2.0% | 91.8hPa | 2.6V | 00:00:00 | 00:00:00 | 00:00:00 | |
| DO3MHA-12 | 2026-09-03 23:41:18 | 48.43925 | 9.95881 | 127° | 62km/h | 17157m | 4.8m/s | -57.8°C | 5.5% | 91.9hPa | 2.6V | 00:00:00 | 01:11:51 | 00:00:00 | |
| DO3MHA-11 | 2026-09-03 23:41:17 | 48.43934 | 9.95862 | 127° | 64km/h | 17152m | 5.4m/s | -57.8°C | 5.6% | 92.0hPa | 2.6V | 00:00:00 | 01:11:50 | 00:00:00 | |
| DM0DOS-11 | 2026-09-03 23:41:15 | 48.43993 | 9.95749 | 127° | 62km/h | 17125m | 4.4m/s | -58.1°C | 5.7% | 92.4hPa | 2.6V | 08:30:00 | 01:11:44 | 00:00:00 | |
| BIOWL1-15 | 2026-09-03 23:41:13 | 48.43993 | 9.95749 | 127° | 62km/h | 17125m | 4.4m/s | 0°C | 0% | 0hPa | 2.6V | 18:12:15 | 01:11:44 | 00:00:00 | |
| DK7TD | 2026-09-03 23:41:10 | 48.44003 | 9.95730 | 127° | 64km/h | 17121m | 3.8m/s | -58.1°C | 2% | 92.5hPa | 2.7V | 18:12:15 | 01:11:43 | 00:00:00 | |
| DK7TD | 2026-09-03 23:40:59 | 48.44105 | 9.95523 | 123° | 62km/h | 17069m | 4.6m/s | -57.8°C | 1.9% | 93.2hPa | 2.7V | 18:12:15 | 01:11:32 | 00:00:00 | |
| DK7TD | 2026-09-03 23:40:49 | 48.44191 | 9.95333 | 129° | 58km/h | 17026m | 4.5m/s | -57.9°C | 2% | 93.9hPa | 2.6V | 18:12:15 | 01:11:22 | 00:00:00 | |
| DO3MHA-12 | 2026-09-03 23:40:48 | 48.44201 | 9.95316 | 130° | 58km/h | 17022m | 4.8m/s | -57.8°C | 5.7% | 93.9hPa | 2.7V | 00:00:00 | 01:11:21 | 00:00:00 | |
| IW2NTF | 2026-09-03 23:40:47 | 48.44253 | 9.95209 | 125° | 58km/h | 16994m | 4.7m/s | -57.8°C | 5.6% | 0hPa | 2.7V | 08:30:00 | 01:11:15 | 00:00:00 | |
| BIOWL1-15 | 2026-09-03 23:40:44 | 48.44321 | 9.95095 | 134° | 58km/h | 16962m | 4.2m/s | 0°C | 0% | 0hPa | 2.6V | 18:12:15 | 01:11:08 | 00:00:00 | |
| DK7TD | 2026-09-03 23:40:38 | 48.44290 | 9.95142 | 134° | 58km/h | 16976m | 4.6m/s | -57.6°C | 2.1% | 94.7hPa | 2.6V | 18:12:15 | 01:11:11 | 00:00:00 | |
| BIOWL1-15 | 2026-09-03 23:40:32 | 48.44370 | 9.95010 | 128° | 58km/h | 16941m | 3.8m/s | 0°C | 0% | 0hPa | 2.6V | 18:12:15 | 01:11:03 | 00:00:00 | |
| DK7TD | 2026-09-03 23:40:28 | 48.44389 | 9.94976 | 132° | 60km/h | 16932m | 3.9m/s | -57.7°C | 2.1% | 95.3hPa | 2.6V | 18:12:15 | 01:11:01 | 00:00:00 | |
| DO3MHA-12 | 2026-09-03 23:40:28 | 48.44389 | 9.94975 | 132° | 60km/h | 16932m | 3.9m/s | -57.7°C | 5.7% | 95.2hPa | 2.6V | 00:00:00 | 01:11:01 | 08:30:00 | |
| DO3MHA-11 | 2026-09-03 23:40:27 | 48.44399 | 9.94959 | 133° | 60km/h | 16928m | 4.7m/s | -57.6°C | 5.7% | 95.3hPa | 2.6V | 00:00:00 | 01:11:00 | 00:00:00 | |
| DL6DJ-15 | 2026-09-03 23:40:25 | 48.44419 | 9.94927 | 133° | 57km/h | 16919m | 3.4m/s | -57.6°C | 2.2% | 95.5hPa | 2.6V | 00:00:00 | 00:00:00 | 00:00:00 | |
| DF3TZ-5 | 2026-09-03 23:40:24 | 48.44440 | 9.94894 | 135° | 62km/h | 16911m | 4.0m/s | -57.6°C | 2.1% | 95.6hPa | 2.6V | 00:00:00 | 00:00:00 | 00:00:00 | |
| IW2NTF | 2026-09-03 23:40:23 | 48.44484 | 9.94828 | 133° | 58km/h | 16894m | 3.6m/s | -57.6°C | 5.5% | 0hPa | 2.6V | 08:30:00 | 01:10:52 | 00:00:00 | |
| DK7TD | 2026-09-03 23:40:18 | 48.44495 | 9.94812 | 134° | 60km/h | 16890m | 4.8m/s | -57.6°C | 2.2% | 95.9hPa | 2.6V | 18:12:15 | 01:10:51 | 00:00:00 | |
| DO3MHA-12 | 2026-09-03 23:40:18 | 48.44495 | 9.94812 | 134° | 60km/h | 16890m | 4.8m/s | -57.6°C | 5.5% | 95.9hPa | 2.6V | 00:00:00 | 01:10:51 | 00:00:00 | |
| DO3MHA-11 | 2026-09-03 23:40:17 | 48.44505 | 9.94795 | 135° | 62km/h | 16885m | 4.5m/s | -57.6°C | 5.6% | 96.0hPa | 2.6V | 00:00:00 | 01:10:50 | 00:00:00 | |
| DB0NH | 2026-09-03 23:40:15 | 48.44527 | 9.94762 | 133° | 66km/h | 16876m | 4.9m/s | -57.7°C | 5.5% | 96.1hPa | 2.6V | 00:00:00 | 01:10:48 | 00:00:00 | |
| OE5DXL-15 | 2026-09-03 23:40:13 | 48.44547 | 9.94728 | 132° | 68km/h | 16867m | 5.2m/s | -57.8°C | 5.6% | 96.2hPa | 2.6V | 00:00:00 | 00:00:00 | 00:00:00 | |
| IW2NTF | 2026-09-03 23:40:12 | 48.44588 | 9.94658 | 130° | 62km/h | 16850m | 3.4m/s | -58°C | 5.5% | 0hPa | 2.6V | 08:30:00 | 01:10:42 | 00:00:00 | |
| DK7TD | 2026-09-03 23:40:07 | 48.44609 | 9.94621 | 131° | 66km/h | 16841m | 4m/s | -58.4°C | 2.3% | 96.7hPa | 2.7V | 18:12:15 | 01:10:40 | 00:00:00 | |
| NBG1-10 | 2026-09-03 23:40:06 | 48.44620 | 9.94602 | 131° | 69km/h | 16837m | 4.7m/s | -58.5°C | 5.8% | 96.7hPa | 2.6V | 00:00:00 | 01:10:39 | 00:00:00 | |
| DM7RM-13 | 2026-09-03 23:40:05 | 48.44620 | 9.94602 | 132° | 66km/h | 16837m | 4.8m/s | -58.6°C | 2.3% | 96.7hPa | 2.6V | 00:00:00 | 00:00:00 | 00:00:00 | |
| DK5PH-5 | 2026-09-03 23:40:04 | 48.44640 | 9.94565 | 130° | 69km/h | 16828m | 4.0m/s | -58.6°C | 5.9% | 96.9hPa | 2.6V | 00:00:00 | 01:10:37 | 00:00:00 | |
| IW2NTF | 2026-09-03 23:40:03 | 48.44690 | 9.94469 | 123° | 62km/h | 16806m | 4.1m/s | -59.1°C | 6.2% | 0hPa | 2.6V | 08:30:00 | 01:10:32 | 00:00:00 | |
| DK7TD | 2026-09-03 23:39:57 | 48.44707 | 9.94428 | 123° | 66km/h | 16798m | 4.1m/s | -59.2°C | 2.6% | 97.3hPa | 2.7V | 18:12:15 | 01:10:30 | 00:00:00 | |
| DL6DJ-15 | 2026-09-03 23:39:54 | 48.44748 | 9.94340 | 123° | 71km/h | 16781m | 4.8m/s | -59.3°C | 2.5% | 97.6hPa | 2.7V | 00:00:00 | 00:00:00 | 00:00:00 | |
| DH7VM-15 | 2026-09-03 23:39:53 | 48.44748 | 9.94340 | 125° | 73km/h | 16782m | 4.8m/s | -59.3°C | 2.5% | 97.6hPa | 2.7V | 00:00:00 | 00:00:00 | 00:00:00 | |
| AZAK | 2026-09-03 23:39:52 | 48.44758 | 9.94316 | 123° | 73km/h | 16777m | 4.1m/s | -59.3°C | 2.5% | 97.7hPa | 2.7V | 00:00:00 | 00:00:00 | 00:00:00 | |
| IW2NTF | 2026-09-03 23:39:51 | 48.44814 | 9.94177 | 118° | 69km/h | 16751m | 4m/s | -59.4°C | 6.4% | 0hPa | 2.7V | 08:30:00 | 01:10:19 | 00:00:00 | |
| OE9MKV-15 | 2026-09-03 23:39:51 | 48.44768 | 9.94293 | 123° | 68km/h | 16773m | 3.9m/s | -59.3°C | 6.3% | 97.7hPa | 2.6V | 00:00:00 | 01:10:24 | 00:00:00 | |
| DM0DOS-11 | 2026-09-03 23:39:48 | 48.44839 | 9.94108 | 118° | 69km/h | 16737m | 4.8m/s | -59.5°C | 6.3% | 98.2hPa | 2.6V | 08:30:00 | 01:10:16 | 00:00:00 | |
| DK7TD | 2026-09-03 23:39:47 | 48.44805 | 9.94200 | 118° | 69km/h | 16755m | 4.2m/s | -59.4°C | 2.7% | 98hPa | 2.7V | 18:12:15 | 01:10:20 | 00:00:00 | |
| DB0ND-19 | 2026-09-03 23:39:47 | 48.44814 | 9.94177 | 118° | 68km/h | 16751m | 4.0m/s | -59.4°C | 2.5% | 98.1hPa | 2.7V | 00:00:00 | 00:00:00 | 00:00:00 | |
| DO3MHA-11 | 2026-09-03 23:39:46 | 48.44814 | 9.94177 | 119° | 71km/h | 16751m | 3.9m/s | -59.4°C | 6.4% | 98.0hPa | 2.7V | 00:00:00 | 01:10:19 | 00:00:00 | |
| DB0NH | 2026-09-03 23:39:45 | 48.44822 | 9.94154 | 120° | 68km/h | 16746m | 5.0m/s | -59.4°C | 6.3% | 98.1hPa | 2.7V | 00:00:00 | 01:10:18 | 00:00:00 | |
| DM7RM-13 | 2026-09-03 23:39:44 | 48.44822 | 9.94154 | 120° | 69km/h | 16746m | 5.1m/s | -59.4°C | 2.5% | 98.1hPa | 2.7V | 00:00:00 | 00:00:00 | 00:00:00 | |
| DB0UT-7 | 2026-09-03 23:39:43 | 48.44839 | 9.94108 | 119° | 68km/h | 16737m | 4.7m/s | -59.4°C | 6.3% | 98.2hPa | 2.7V | 00:00:00 | 01:10:16 | 00:00:00 | |
| IW2NTF | 2026-09-03 23:39:41 | 48.44897 | 9.93938 | 113° | 73km/h | 16704m | 4.2m/s | -59.7°C | 6.4% | 0hPa | 2.7V | 08:30:00 | 01:10:09 | 00:00:00 | |
| DK7TD | 2026-09-03 23:39:36 | 48.44897 | 9.93938 | 113° | 73km/h | 16704m | 4.3m/s | -59.7°C | 2.8% | 98.8hPa | 2.7V | 18:12:15 | 01:10:09 | 00:00:00 | |
| DO3MHA-11 | 2026-09-03 23:39:36 | 48.44897 | 9.93938 | 114° | 68km/h | 16704m | 4.2m/s | -59.7°C | 6.4% | 98.7hPa | 2.7V | 00:00:00 | 01:10:09 | 00:00:00 | |
| DK5PH-5 | 2026-09-03 23:39:34 | 48.44912 | 9.93886 | 113° | 66km/h | 16695m | 3.8m/s | -59.8°C | 6.5% | 98.9hPa | 2.6V | 00:00:00 | 01:10:07 | 00:00:00 | |
| NBG1-10 | 2026-09-03 23:39:33 | 48.44918 | 9.93861 | 111° | 66km/h | 16690m | 5.4m/s | -59.8°C | 6.6% | 99.0hPa | 2.6V | 00:00:00 | 01:10:06 | 00:00:00 | |
| IW2NTF | 2026-09-03 23:39:31 | 48.44963 | 9.93702 | 116° | 60km/h | 16657m | 5.1m/s | -59.9°C | 6.6% | 0hPa | 2.7V | 08:30:00 | 01:09:59 | 00:00:00 | |
| DK7TD | 2026-09-03 23:39:26 | 48.44963 | 9.93702 | 117° | 60km/h | 16657m | 5.1m/s | -59.9°C | 2.9% | 99.5hPa | 2.7V | 18:12:15 | 01:09:59 | 00:00:00 | |
| DO3MHA-11 | 2026-09-03 23:39:26 | 48.44963 | 9.93701 | 117° | 62km/h | 16657m | 5.1m/s | -59.8°C | 6.6% | 99.5hPa | 2.6V | 00:00:00 | 01:09:59 | 00:00:00 | |
| OE5DRO-10 | 2026-09-03 23:39:24 | 48.44977 | 9.93660 | 117° | 64km/h | 16649m | 3.9m/s | -59.8°C | 6.6% | 99.6hPa | 2.6V | 00:00:00 | 00:00:00 | 00:00:00 | |
| DJ8HS-15 | 2026-09-03 23:39:23 | 48.44984 | 9.93640 | 114° | 66km/h | 16645m | 4.9m/s | -59.8°C | 6.6% | 99.7hPa | 2.6V | 00:00:00 | 01:09:56 | 00:00:00 | |
| DF3TZ-5 | 2026-09-03 23:39:22 | 48.44995 | 9.93597 | 110° | 60km/h | 16636m | 4.7m/s | -59.9°C | 2.7% | 99.9hPa | 2.7V | 00:00:00 | 00:00:00 | 00:00:00 | |
| IW2NTF | 2026-09-03 23:39:21 | 48.45024 | 9.93483 | 112° | 68km/h | 16612m | 5.3m/s | -60.1°C | 0% | 0hPa | 2.7V | 08:30:00 | 01:09:49 | 00:00:00 | |
| DK7TD | 2026-09-03 23:39:15 | 48.45031 | 9.93459 | 115° | 68km/h | 16607m | 4.5m/s | -60.2°C | 3.1% | 100.3hPa | 2.6V | 18:12:15 | 01:09:48 | 00:00:00 | |
| DB0NH | 2026-09-03 23:39:15 | 48.45031 | 9.93459 | 115° | 68km/h | 16607m | 4.5m/s | -60.2°C | 6.8% | 100.3hPa | 2.6V | 00:00:00 | 01:09:48 | 00:00:00 | |
| OE5DXL-15 | 2026-09-03 23:39:13 | 48.45045 | 9.93412 | 114° | 68km/h | 16598m | 5.1m/s | -60.2°C | 6.9% | 100.5hPa | 2.6V | 00:00:00 | 00:00:00 | 00:00:00 | |
| IW2NTF | 2026-09-03 23:39:11 | 48.45085 | 9.93249 | 108° | 66km/h | 16565m | 5.3m/s | -60.4°C | 0% | 0hPa | 2.7V | 08:30:00 | 01:09:39 | 00:00:00 | |
| DK7TD | 2026-09-03 23:39:04 | 48.45096 | 9.93200 | 110° | 69km/h | 16556m | 5.1m/s | -60.4°C | 3.3% | 101.2hPa | 2.6V | 18:12:15 | 01:09:37 | 00:00:00 | |
| DK7TD | 2026-09-03 23:38:54 | 48.45161 | 9.92958 | 111° | 68km/h | 16508m | 4.9m/s | -60.5°C | 3.3% | 102hPa | 2.6V | 18:12:15 | 01:09:27 | 00:00:00 | |
| DL6DJ-15 | 2026-09-03 23:38:52 | 48.45180 | 9.92887 | 114° | 66km/h | 16494m | 4.5m/s | -60.6°C | 2.9% | 102.2hPa | 2.6V | 00:00:00 | 00:00:00 | 00:00:00 | |
| DF3TZ-5 | 2026-09-03 23:38:50 | 48.45187 | 9.92864 | 113° | 66km/h | 16489m | 5.0m/s | -60.7°C | 2.9% | 102.3hPa | 2.6V | 00:00:00 | 00:00:00 | 00:00:00 | |
| DB0ND-19 | 2026-09-03 23:38:45 | 48.45231 | 9.92723 | 116° | 68km/h | 16461m | 4.1m/s | -60.5°C | 2.9% | 102.7hPa | 2.6V | 00:00:00 | 00:00:00 | 00:00:00 | |
| DK7TD | 2026-09-03 23:38:43 | 48.45238 | 9.92700 | 118° | 68km/h | 16457m | 4m/s | -60.5°C | 3.4% | 102.8hPa | 2.6V | 18:12:15 | 01:09:16 | 00:00:00 | |
| DK7TD | 2026-09-03 23:38:33 | 48.45322 | 9.92480 | 118° | 68km/h | 16410m | 4.7m/s | -60.5°C | 3.2% | 103.6hPa | 2.6V | 18:12:15 | 01:09:06 | 00:00:00 | |
| DK7TD | 2026-09-03 23:38:23 | 48.45401 | 9.92279 | 117° | 64km/h | 16363m | 4.1m/s | -60.5°C | 3.2% | 104.4hPa | 2.6V | 18:12:15 | 01:08:56 | 00:00:00 | |
| DK7TD | 2026-09-03 23:38:12 | 48.45472 | 9.92040 | 111° | 58km/h | 16313m | 4.1m/s | -60.4°C | 3.2% | 105.2hPa | 2.7V | 18:12:15 | 01:08:45 | 00:00:00 | |
| DK7TD | 2026-09-03 23:38:02 | 48.45534 | 9.91836 | 114° | 55km/h | 16265m | 4.2m/s | -60°C | 3.2% | 106hPa | 2.7V | 18:12:15 | 01:08:35 | 00:00:00 | |
| DK7TD | 2026-09-03 23:37:51 | 48.45616 | 9.91627 | 122° | 58km/h | 16210m | 3.9m/s | -59.8°C | 3.1% | 106.9hPa | 2.7V | 18:12:15 | 01:08:24 | 00:00:00 | |
| DL6DJ-15 | 2026-09-03 23:37:50 | 48.45632 | 9.91591 | 123° | 55km/h | 16200m | 4.2m/s | -59.8°C | 2.8% | 107.1hPa | 2.7V | 00:00:00 | 00:00:00 | 00:00:00 | |
| DF3TZ-5 | 2026-09-03 23:37:49 | 48.45640 | 9.91573 | 122° | 53km/h | 16196m | 5.5m/s | -59.8°C | 2.8% | 107.2hPa | 2.7V | 00:00:00 | 00:00:00 | 00:00:00 | |
| DO3MHA-12 | 2026-09-03 23:37:48 | 48.45640 | 9.91573 | 123° | 57km/h | 16196m | 5.5m/s | -59.8°C | 6.8% | 107.2hPa | 2.7V | 00:00:00 | 01:08:21 | 00:00:00 | |
| DO3MHA-11 | 2026-09-03 23:37:46 | 48.45655 | 9.91539 | 125° | 57km/h | 16186m | 4.3m/s | -59.7°C | 6.8% | 107.3hPa | 2.7V | 00:00:00 | 01:08:19 | 00:00:00 | |
| DM0DOS-11 | 2026-09-03 23:37:45 | 48.45699 | 9.91452 | 127° | 60km/h | 16163m | 4.4m/s | -59.8°C | 6.8% | 107.7hPa | 2.7V | 08:30:00 | 01:08:14 | 00:00:00 | |
| DK7TD | 2026-09-03 23:37:41 | 48.45698 | 9.91452 | 128° | 60km/h | 16163m | 4.4m/s | -59.8°C | 3.2% | 107.7hPa | 2.7V | 18:12:15 | 01:08:14 | 00:00:00 | |
| DK7TD | 2026-09-03 23:37:30 | 48.45799 | 9.91267 | 130° | 58km/h | 16111m | 4.7m/s | -59.8°C | 3.1% | 108.7hPa | 2.6V | 18:12:15 | 01:08:03 | 00:00:00 | |
| OE5DRO-10 | 2026-09-03 23:37:30 | 48.45799 | 9.91267 | 130° | 62km/h | 16111m | 4.6m/s | -59.8°C | 6.8% | 108.6hPa | 2.6V | 00:00:00 | 00:00:00 | 00:00:00 | |
| IW2NTF | 2026-09-03 23:37:29 | 48.45818 | 9.91232 | 127° | 60km/h | 16101m | 4.7m/s | -59.8°C | 0% | 0hPa | 2.6V | 08:30:00 | 01:08:01 | 00:00:00 | |
| AZAK | 2026-09-03 23:37:28 | 48.45818 | 9.91232 | 128° | 60km/h | 16102m | 4.7m/s | -59.8°C | 2.8% | 108.8hPa | 2.6V | 00:00:00 | 00:00:00 | 00:00:00 | |
| DO3MHA-11 | 2026-09-03 23:37:26 | 48.45836 | 9.91195 | 127° | 62km/h | 16093m | 5.0m/s | -59.6°C | 6.7% | 108.9hPa | 2.6V | 00:00:00 | 01:07:59 | 00:00:00 | |
| DM0DOS-11 | 2026-09-03 23:37:25 | 48.45864 | 9.91138 | 126° | 64km/h | 16079m | 4.5m/s | -59.6°C | 6.6% | 109.2hPa | 2.6V | 08:30:00 | 01:07:56 | 00:00:00 | |
| DK7TD | 2026-09-03 23:37:20 | 48.45893 | 9.91082 | 128° | 60km/h | 16065m | 4.3m/s | -59.7°C | 3.1% | 109.5hPa | 2.6V | 18:12:15 | 01:07:53 | 00:00:00 | |
| DK7TD | 2026-09-03 23:37:10 | 48.45990 | 9.90891 | 128° | 66km/h | 16020m | 4.4m/s | -60°C | 3.3% | 110.3hPa | 2.6V | 18:12:15 | 01:07:43 | 00:00:00 | |
| DK7TD | 2026-09-03 23:36:59 | 48.46111 | 9.90690 | 128° | 69km/h | 15971m | 4.1m/s | -60.3°C | 3.3% | 111.1hPa | 2.6V | 18:12:15 | 01:07:32 | 00:00:00 | |
| DK7TD | 2026-09-03 23:36:48 | 48.46229 | 9.90451 | 127° | 69km/h | 15923m | 5.5m/s | -60.1°C | 3.4% | 112hPa | 2.6V | 18:12:15 | 01:07:21 | 00:00:00 | |
| DO3MHA-12 | 2026-09-03 23:36:48 | 48.46229 | 9.90451 | 127° | 69km/h | 15923m | 5.4m/s | -60.0°C | 7.1% | 111.9hPa | 2.7V | 00:00:00 | 01:07:21 | 00:00:00 | |
| IW2NTF | 2026-09-03 23:36:47 | 48.46249 | 9.90409 | 125° | 69km/h | 15914m | 4.3m/s | -60°C | 0% | 0hPa | 2.7V | 08:30:00 | 01:07:19 | 00:00:00 | |
| AZAK | 2026-09-03 23:36:47 | 48.46239 | 9.90430 | 127° | 68km/h | 15918m | 4.4m/s | -60.0°C | 3.0% | 112.1hPa | 2.7V | 00:00:00 | 00:00:00 | 00:00:00 | |
| DO3MHA-11 | 2026-09-03 23:36:46 | 48.46249 | 9.90409 | 126° | 68km/h | 15914m | 4.2m/s | -59.9°C | 7.0% | 112.1hPa | 2.7V | 00:00:00 | 01:07:19 | 00:00:00 | |
| DB0NH | 2026-09-03 23:36:45 | 48.46259 | 9.90387 | 126° | 62km/h | 15910m | 4.7m/s | -59.9°C | 7.0% | 112.2hPa | 2.7V | 00:00:00 | 01:07:18 | 00:00:00 | |
| OE5DXL-15 | 2026-09-03 23:36:43 | 48.46280 | 9.90343 | 124° | 60km/h | 15901m | 5.2m/s | -59.9°C | 7.0% | 112.3hPa | 2.7V | 00:00:00 | 00:00:00 | 00:00:00 | |
| DB0ND-19 | 2026-09-03 23:36:41 | 48.46307 | 9.90278 | 123° | 66km/h | 15888m | 5.0m/s | -59.8°C | 2.9% | 112.7hPa | 2.7V | 00:00:00 | 00:00:00 | 00:00:00 | |
| DO3MHA-12 | 2026-09-03 23:36:38 | 48.46327 | 9.90237 | 129° | 62km/h | 15879m | 3.8m/s | -59.7°C | 6.9% | 112.7hPa | 2.7V | 00:00:00 | 01:07:11 | 00:00:00 | |
| IW2NTF | 2026-09-03 23:36:37 | 48.46347 | 9.90200 | 129° | 60km/h | 15870m | 4.6m/s | 0°C | 0% | 0hPa | 2.7V | 08:30:00 | 01:07:09 | 00:00:00 | |
| DK7TD | 2026-09-03 23:36:37 | 48.46337 | 9.90218 | 130° | 64km/h | 15875m | 4.4m/s | -59.8°C | 3.3% | 112.9hPa | 2.7V | 18:12:15 | 01:07:10 | 00:00:00 | |
| PG1ADW-2 | 2026-09-03 23:36:37 | 48.46337 | 9.90218 | 130° | 60km/h | 15875m | 4.4m/s | -59.7°C | 6.9% | 112.8hPa | 2.7V | 00:00:00 | 01:07:10 | 00:00:00 | |
| DO3MHA-11 | 2026-09-03 23:36:36 | 48.46347 | 9.90200 | 130° | 62km/h | 15870m | 4.5m/s | -59.7°C | 7.0% | 112.9hPa | 2.7V | 00:00:00 | 01:07:09 | 00:00:00 | |
| DF7PN | 2026-09-03 23:36:35 | 48.46357 | 9.90182 | 129° | 58km/h | 15866m | 4.1m/s | -59.7°C | 3.0% | 113.0hPa | 2.7V | 00:00:00 | 00:00:00 | 00:00:00 | |
| DK5PH-5 | 2026-09-03 23:36:34 | 48.46366 | 9.90165 | 130° | 58km/h | 15861m | 4.9m/s | -59.7°C | 6.9% | 113.0hPa | 2.7V | 00:00:00 | 01:07:07 | 00:00:00 | |
| OE5DRO-10 | 2026-09-03 23:36:33 | 48.46376 | 9.90147 | 129° | 58km/h | 15857m | 4.1m/s | -59.7°C | 6.9% | 113.1hPa | 2.7V | 00:00:00 | 00:00:00 | 00:00:00 | |
| IW2NTF | 2026-09-03 23:36:31 | 48.46436 | 9.90006 | 120° | 64km/h | 15826m | 5.2m/s | 0°C | 0% | 0hPa | 2.7V | 00:00:00 | 01:06:59 | 00:00:00 | |
| DK7TD | 2026-09-03 23:36:26 | 48.46436 | 9.90006 | 120° | 64km/h | 15826m | 5.2m/s | -59.7°C | 3.3% | 113.7hPa | 2.7V | 18:12:15 | 01:06:59 | 00:00:00 | |
| DO3MHA-11 | 2026-09-03 23:36:26 | 48.46436 | 9.90006 | 121° | 58km/h | 15826m | 5.2m/s | -59.6°C | 6.8% | 113.7hPa | 2.7V | 00:00:00 | 01:06:59 | 00:00:00 | |
| DL1ZP-14 | 2026-09-03 23:36:24 | 48.46453 | 9.89965 | 122° | 62km/h | 15816m | 5.4m/s | -59.7°C | 2.9% | 113.9hPa | 2.7V | 00:00:00 | 00:00:00 | 00:00:00 | |
| DJ8HS-15 | 2026-09-03 23:36:23 | 48.46461 | 9.89945 | 125° | 55km/h | 15812m | 4.5m/s | -59.7°C | 6.8% | 114.0hPa | 2.6V | 00:00:00 | 01:06:56 | 00:00:00 | |
| DO9HM | 2026-09-03 23:36:22 | 48.46470 | 9.89925 | 126° | 60km/h | 15807m | 4.8m/s | -59.8°C | 2.9% | 114.1hPa | 2.6V | 00:00:00 | 00:00:00 | 00:00:00 | |
| OE9MKV-15 | 2026-09-03 23:36:21 | 48.46479 | 9.89907 | 126° | 55km/h | 15801m | 5.7m/s | -59.8°C | 6.8% | 114.1hPa | 2.6V | 00:00:00 | 01:06:54 | 00:00:00 | |
| IW2NTF | 2026-09-03 23:36:19 | 48.46517 | 9.89826 | 122° | 47km/h | 15776m | 5.3m/s | 0°C | 0% | 0hPa | 2.6V | 00:00:00 | 01:06:49 | 00:00:00 | |
| DK7TD | 2026-09-03 23:36:15 | 48.46523 | 9.89810 | 121° | 49km/h | 15772m | 4.6m/s | -60°C | 3.3% | 114.7hPa | 2.7V | 18:12:15 | 01:06:48 | 00:00:00 | |
| DB0NH | 2026-09-03 23:36:15 | 48.46523 | 9.89810 | 121° | 57km/h | 15772m | 4.5m/s | -59.9°C | 7.0% | 114.6hPa | 2.6V | 00:00:00 | 01:06:48 | 00:00:00 | |
| OE5DRO-10 | 2026-09-03 23:36:14 | 48.46530 | 9.89794 | 121° | 55km/h | 15767m | 5.3m/s | -59.9°C | 6.9% | 114.7hPa | 2.6V | 00:00:00 | 00:00:00 | 00:00:00 | |
| OE5DXL-15 | 2026-09-03 23:36:13 | 48.46536 | 9.89776 | 120° | 58km/h | 15762m | 3.8m/s | -59.9°C | 7.0% | 114.9hPa | 2.6V | 00:00:00 | 00:00:00 | 00:00:00 | |
| DB0ND-19 | 2026-09-03 23:36:10 | 48.46566 | 9.89704 | 124° | 57km/h | 15744m | 4.7m/s | -59.9°C | 3.0% | 115.2hPa | 2.6V | 00:00:00 | 00:00:00 | 00:00:00 | |
| IW2NTF | 2026-09-03 23:36:09 | 48.46590 | 9.89651 | 125° | 55km/h | 15731m | 3.9m/s | 0°C | 0% | 0hPa | 2.6V | 00:00:00 | 01:06:39 | 00:00:00 | |
| DK7TD | 2026-09-03 23:36:05 | 48.46598 | 9.89634 | 125° | 55km/h | 15727m | 4.7m/s | -59.9°C | 3.3% | 115.6hPa | 2.7V | 18:12:15 | 01:06:38 | 00:00:00 | |
| AZAK | 2026-09-03 23:36:05 | 48.46598 | 9.89634 | 126° | 55km/h | 15727m | 4.7m/s | -59.9°C | 2.9% | 115.6hPa | 2.6V | 00:00:00 | 00:00:00 | 00:00:00 | |
| DK5PH-5 | 2026-09-03 23:36:04 | 48.46606 | 9.89617 | 127° | 62km/h | 15722m | 4.7m/s | -59.8°C | 6.9% | 115.6hPa | 2.6V | 00:00:00 | 01:06:37 | 00:00:00 | |
| DJ8HS-15 | 2026-09-03 23:36:03 | 48.46615 | 9.89600 | 128° | 58km/h | 15718m | 4.4m/s | -59.9°C | 6.9% | 115.7hPa | 2.6V | 00:00:00 | 01:06:36 | 00:00:00 | |
| IW2NTF | 2026-09-03 23:35:59 | 48.46678 | 9.89486 | 132° | 57km/h | 15686m | 4.1m/s | 0°C | 0% | 0hPa | 2.6V | 00:00:00 | 01:06:29 | 00:00:00 | |
| DK7TD | 2026-09-03 23:35:55 | 48.46688 | 9.89470 | 131° | 57km/h | 15681m | 5.4m/s | -60.2°C | 3.4% | 116.4hPa | 2.6V | 18:12:15 | 01:06:28 | 00:00:00 | |
| DO9HM | 2026-09-03 23:35:55 | 48.46688 | 9.89470 | 132° | 57km/h | 15681m | 5.4m/s | -60.2°C | 3.1% | 116.4hPa | 2.6V | 00:00:00 | 00:00:00 | 00:00:00 | |
| DN1GJH-1 | 2026-09-03 23:35:54 | 48.46688 | 9.89470 | 132° | 57km/h | 15681m | 5.4m/s | -60.2°C | 3.1% | 116.4hPa | 2.6V | 00:00:00 | 00:00:00 | 00:00:00 | |
| OE3JTB-15 | 2026-09-03 23:35:53 | 48.46707 | 9.89436 | 130° | 69km/h | 15672m | 4.0m/s | -60.2°C | 7.0% | 116.5hPa | 2.6V | 00:00:00 | 00:00:00 | 00:00:00 | |
| IW2NTF | 2026-09-03 23:35:51 | 48.46777 | 9.89314 | 133° | 66km/h | 15640m | 3.6m/s | 0°C | 0% | 0hPa | 2.6V | 00:00:00 | 01:06:19 | 00:00:00 | |
| DK7TD | 2026-09-03 23:35:45 | 48.46789 | 9.89296 | 133° | 68km/h | 15636m | 4.9m/s | -60.2°C | 3.4% | 117.3hPa | 2.6V | 18:12:15 | 01:06:18 | 00:00:00 | |
| DF3TZ-5 | 2026-09-03 23:35:44 | 48.46800 | 9.89276 | 131° | 68km/h | 15631m | 4.4m/s | -60.2°C | 3.1% | 117.3hPa | 2.7V | 00:00:00 | 00:00:00 | 00:00:00 | |
| DB0UT-7 | 2026-09-03 23:35:43 | 48.46812 | 9.89257 | 132° | 73km/h | 15627m | 4.4m/s | -60.2°C | 7.0% | 117.4hPa | 2.7V | 00:00:00 | 01:06:16 | 00:00:00 | |
| NBG1-10 | 2026-09-03 23:35:42 | 48.46824 | 9.89237 | 133° | 73km/h | 15622m | 4.8m/s | -60.2°C | 7.1% | 117.5hPa | 2.7V | 00:00:00 | 01:06:15 | 00:00:00 | |
| DH7VM-15 | 2026-09-03 23:35:39 | 48.46860 | 9.89178 | 134° | 73km/h | 15609m | 5.2m/s | -60.2°C | 3.1% | 117.8hPa | 2.7V | 00:00:00 | 00:00:00 | 00:00:00 | |
| IW2NTF | 2026-09-03 23:35:38 | 48.46897 | 9.89117 | 132° | 71km/h | 15595m | 3.6m/s | 0°C | 0% | 0hPa | 2.7V | 00:00:00 | 01:06:09 | 00:00:00 | |
| DK7TD | 2026-09-03 23:35:34 | 48.46921 | 9.89075 | 130° | 75km/h | 15586m | 4.6m/s | -60.2°C | 3.5% | 118.2hPa | 2.6V | 18:12:15 | 01:06:07 | 00:00:00 | |
| DK5PH-5 | 2026-09-03 23:35:34 | 48.46921 | 9.89075 | 131° | 73km/h | 15586m | 4.5m/s | -60.2°C | 7.2% | 118.1hPa | 2.6V | 00:00:00 | 01:06:07 | 00:00:00 | |
| DN1GJH-1 | 2026-09-03 23:35:33 | 48.46921 | 9.89075 | 131° | 75km/h | 15586m | 4.6m/s | -60.2°C | 3.2% | 118.2hPa | 2.6V | 00:00:00 | 00:00:00 | 00:00:00 | |
| DF1GD-15 | 2026-09-03 23:35:32 | 48.46933 | 9.89054 | 131° | 73km/h | 15582m | 4.6m/s | -60.3°C | 3.2% | 118.3hPa | 2.6V | 00:00:00 | 00:00:00 | 00:00:00 | |
| DO9HM | 2026-09-03 23:35:29 | 48.46980 | 9.88969 | 131° | 75km/h | 15564m | 4.6m/s | -60.3°C | 3.1% | 118.6hPa | 2.6V | 00:00:00 | 00:00:00 | 00:00:00 | |
| DO3MHA-12 | 2026-09-03 23:35:28 | 48.46992 | 9.88947 | 132° | 75km/h | 15559m | 5.3m/s | -60.3°C | 7.1% | 118.7hPa | 2.6V | 00:00:00 | 01:06:01 | 00:00:00 | |
| IW2NTF | 2026-09-03 23:35:27 | 48.47066 | 9.88816 | 125° | 75km/h | 15533m | 4.1m/s | 0°C | 0% | 0hPa | 2.6V | 00:00:00 | 01:05:55 | 00:00:00 | |
| DM0DOS-11 | 2026-09-03 23:35:26 | 48.47077 | 9.88793 | 123° | 75km/h | 15528m | 4.7m/s | -60.4°C | 7.2% | 119.3hPa | 2.6V | 08:30:00 | 01:05:54 | 00:00:00 | |
| DK7TD | 2026-09-03 23:35:23 | 48.47055 | 9.88839 | 129° | 77km/h | 15537m | 4.9m/s | -60.4°C | 3.6% | 119.1hPa | 2.6V | 18:12:15 | 01:05:56 | 00:00:00 | |
| DJ8HS-15 | 2026-09-03 23:35:23 | 48.47055 | 9.88839 | 129° | 71km/h | 15537m | 4.9m/s | -60.4°C | 7.3% | 119.1hPa | 2.6V | 00:00:00 | 01:05:56 | 00:00:00 | |
| DL1ZP-14 | 2026-09-03 23:35:22 | 48.47066 | 9.88816 | 125° | 75km/h | 15533m | 4.1m/s | -60.4°C | 3.1% | 119.2hPa | 2.6V | 00:00:00 | 00:00:00 | 00:00:00 | |
| OE9MKV-15 | 2026-09-03 23:35:21 | 48.47077 | 9.88793 | 124° | 71km/h | 15528m | 4.7m/s | -60.3°C | 7.2% | 119.2hPa | 2.6V | 00:00:00 | 01:05:54 | 00:00:00 | |
| DO3MHA-11 | 2026-09-03 23:35:20 | 48.47087 | 9.88769 | 121° | 73km/h | 15524m | 4.5m/s | -60.3°C | 7.2% | 119.3hPa | 2.6V | 00:00:00 | 01:05:53 | 00:00:00 | |
| DO3MHA-12 | 2026-09-03 23:35:18 | 48.47105 | 9.88720 | 120° | 71km/h | 15515m | 5.2m/s | -60.3°C | 7.3% | 119.5hPa | 2.6V | 00:00:00 | 01:05:51 | 00:00:00 | |
| IW2NTF | 2026-09-03 23:35:17 | 48.47165 | 9.88583 | 126° | 71km/h | 15488m | 4.2m/s | 0°C | 0% | 0hPa | 2.6V | 00:00:00 | 01:05:45 | 00:00:00 | |
| DK7TD | 2026-09-03 23:35:13 | 48.47154 | 9.88605 | 126° | 71km/h | 15492m | 5.2m/s | -60.2°C | 3.5% | 120hPa | 2.7V | 18:12:15 | 01:05:46 | 00:00:00 | |
| DB0UT-7 | 2026-09-03 23:35:13 | 48.47154 | 9.88605 | 127° | 71km/h | 15493m | 5.1m/s | -60.1°C | 7.1% | 120.0hPa | 2.6V | 00:00:00 | 00:00:00 | 00:00:00 | |
| DF1GD-15 | 2026-09-03 23:35:12 | 48.47154 | 9.88605 | 127° | 71km/h | 15493m | 5.2m/s | -60.2°C | 3.2% | 120.0hPa | 2.6V | 00:00:00 | 00:00:00 | 00:00:00 | |
| DM0DOS-11 | 2026-09-03 23:35:10 | 48.47235 | 9.88427 | 123° | 68km/h | 15456m | 4.6m/s | -60.1°C | 7.1% | 120.7hPa | 2.6V | 08:30:00 | 01:05:38 | 00:00:00 | |
| DK7TD | 2026-09-03 23:35:02 | 48.47264 | 9.88366 | 129° | 68km/h | 15442m | 4.1m/s | -60.1°C | 3.6% | 120.9hPa | 2.7V | 18:12:15 | 01:05:35 | 00:00:00 | |
| AZAK | 2026-09-03 23:35:01 | 48.47264 | 9.88366 | 130° | 68km/h | 15442m | 4.1m/s | -60.1°C | 3.2% | 120.9hPa | 2.6V | 00:00:00 | 00:00:00 | 00:00:00 | |
| DO3MHA-11 | 2026-09-03 23:35:00 | 48.47286 | 9.88325 | 129° | 73km/h | 15434m | 3.4m/s | -60.1°C | 7.2% | 121.1hPa | 2.6V | 00:00:00 | 01:05:33 | 00:00:00 | |
| DM0DOS-11 | 2026-09-03 23:34:59 | 48.47342 | 9.88219 | 126° | 73km/h | 15411m | 4m/s | -60.2°C | 7.3% | 121.6hPa | 2.6V | 08:30:00 | 01:05:28 | 00:00:00 | |
| DK7TD | 2026-09-03 23:34:52 | 48.47373 | 9.88151 | 125° | 75km/h | 15398m | 4.3m/s | 0°C | 0% | 121.8hPa | 2.6V | 18:12:15 | 01:05:25 | 00:00:00 | |
| OE9MKV-15 | 2026-09-03 23:34:51 | 48.47384 | 9.88127 | 127° | 77km/h | 15394m | 4.7m/s | -60.2°C | 7.3% | 121.8hPa | 2.7V | 00:00:00 | 01:05:24 | 00:00:00 | |
| DO3MHA-11 | 2026-09-03 23:34:50 | 48.47396 | 9.88104 | 128° | 73km/h | 15390m | 3.4m/s | -60.1°C | 7.3% | 121.9hPa | 2.6V | 00:00:00 | 01:05:23 | 00:00:00 | |
| DO3MHA-12 | 2026-09-03 23:34:48 | 48.47419 | 9.88060 | 130° | 73km/h | 15382m | 3.5m/s | -60.1°C | 7.4% | 122.1hPa | 2.6V | 00:00:00 | 01:05:21 | 00:00:00 | |
| DF2AP-13 | 2026-09-03 23:34:47 | 48.47431 | 9.88039 | 131° | 113km/h | 15378m | 4.4m/s | -60.1°C | 7.3% | 122.2hPa | 2.6V | 00:00:00 | 01:05:20 | 08:30:00 | |
| DM0DOS-11 | 2026-09-03 23:34:46 | 48.47456 | 9.87996 | 131° | 73km/h | 15368m | 3.9m/s | -60.2°C | 7.5% | 122.4hPa | 2.7V | 08:30:00 | 01:05:18 | 00:00:00 | |
| DK7TD | 2026-09-03 23:34:41 | 48.47504 | 9.87913 | 131° | 75km/h | 15352m | 4.2m/s | 0°C | 0% | 0hPa | 2.6V | 18:12:15 | 01:05:14 | 00:00:00 | |
| DM0DOS-11 | 2026-09-03 23:34:41 | 48.47580 | 9.87782 | 129° | 78km/h | 15325m | 4.5m/s | -60.1°C | 7.5% | 123.2hPa | 2.6V | 08:30:00 | 01:05:08 | 00:00:00 | |
| DK7TD | 2026-09-03 23:34:30 | 48.47643 | 9.87666 | 130° | 80km/h | 15303m | 3.9m/s | 0°C | 0% | 0hPa | 2.6V | 18:12:15 | 01:05:03 | 00:00:00 | |
| DO3MHA-11 | 2026-09-03 23:34:30 | 48.47642 | 9.87666 | 131° | 80km/h | 15303m | 3.8m/s | -59.9°C | 7.5% | 123.6hPa | 2.6V | 00:00:00 | 01:05:03 | 08:30:00 | |
| DM0DOS-11 | 2026-09-03 23:34:29 | 48.47709 | 9.87552 | 130° | 80km/h | 15281m | 3.7m/s | -59.8°C | 7.4% | 124.1hPa | 2.7V | 08:30:00 | 01:04:58 | 00:00:00 | |
| DK7TD | 2026-09-03 23:34:20 | 48.47775 | 9.87434 | 129° | 82km/h | 15259m | 5.1m/s | 0°C | 0% | 0hPa | 2.7V | 18:12:15 | 01:04:53 | 00:00:00 | |
| OE5DRO-10 | 2026-09-03 23:34:20 | 48.47775 | 9.87434 | 130° | 80km/h | 15259m | 5.1m/s | -59.7°C | 7.4% | 124.5hPa | 2.6V | 00:00:00 | 00:00:00 | 00:00:00 | |
| AZAK | 2026-09-03 23:34:19 | 48.47775 | 9.87434 | 130° | 82km/h | 15259m | 5.1m/s | -59.8°C | 3.4% | 124.6hPa | 2.6V | 00:00:00 | 00:00:00 | 00:00:00 | |
| DO3MHA-12 | 2026-09-03 23:34:18 | 48.47801 | 9.87386 | 129° | 80km/h | 15250m | 3.9m/s | -59.7°C | 7.4% | 124.7hPa | 2.6V | 00:00:00 | 01:04:51 | 00:00:00 | |
| PG1ADW-2 | 2026-09-03 23:34:17 | 48.47813 | 9.87361 | 129° | 78km/h | 15245m | 5.3m/s | -59.7°C | 7.4% | 124.7hPa | 2.6V | 00:00:00 | 00:00:00 | 00:00:00 | |
| DM0DOS-11 | 2026-09-03 23:34:16 | 48.47839 | 9.87313 | 128° | 80km/h | 15236m | 5.3m/s | -59.7°C | 7.4% | 125hPa | 2.7V | 08:30:00 | 01:04:48 | 00:00:00 | |
| DB0NH | 2026-09-03 23:34:15 | 48.47839 | 9.87313 | 129° | 78km/h | 15236m | 5.3m/s | -59.7°C | 7.4% | 124.9hPa | 2.7V | 00:00:00 | 01:04:48 | 00:00:00 | |
| OE5DXL-15 | 2026-09-03 23:34:13 | 48.47864 | 9.87266 | 129° | 78km/h | 15227m | 4.6m/s | -59.7°C | 7.4% | 125.1hPa | 2.6V | 00:00:00 | 00:00:00 | 00:00:00 | |
| DL6DJ-15 | 2026-09-03 23:34:12 | 48.47876 | 9.87242 | 127° | 80km/h | 15222m | 4.9m/s | -59.7°C | 3.4% | 125.2hPa | 2.6V | 00:00:00 | 00:00:00 | 00:00:00 | |
| DF3TZ-5 | 2026-09-03 23:34:11 | 48.47888 | 9.87218 | 127° | 78km/h | 15217m | 3.8m/s | -59.7°C | 3.4% | 125.4hPa | 2.6V | 00:00:00 | 00:00:00 | 00:00:00 | |
| DM0DOS-11 | 2026-09-03 23:34:10 | 48.47958 | 9.87074 | 125° | 78km/h | 15190m | 3.6m/s | -59.6°C | 7.4% | 125.9hPa | 2.6V | 08:30:00 | 01:04:38 | 00:00:00 | |
| DK7TD | 2026-09-03 23:34:10 | 48.47901 | 9.87194 | 128° | 77km/h | 15213m | 5.2m/s | 0°C | 0% | 0hPa | 2.6V | 18:12:15 | 01:04:43 | 00:00:00 | |
| DO3MHA-11 | 2026-09-03 23:34:10 | 48.47901 | 9.87194 | 128° | 78km/h | 15213m | 5.1m/s | -59.6°C | 7.3% | 125.4hPa | 2.6V | 00:00:00 | 01:04:43 | 00:00:00 | |
| DO3MHA-12 | 2026-09-03 23:34:08 | 48.47924 | 9.87147 | 126° | 78km/h | 15204m | 5.5m/s | -59.6°C | 7.3% | 125.6hPa | 2.6V | 00:00:00 | 01:04:41 | 00:00:00 | |
| DB0ND-19 | 2026-09-03 23:34:05 | 48.47958 | 9.87074 | 125° | 77km/h | 15190m | 3.6m/s | -59.6°C | 3.5% | 125.9hPa | 2.6V | 00:00:00 | 00:00:00 | 00:00:00 | |
| DK5PH-5 | 2026-09-03 23:34:04 | 48.47970 | 9.87049 | 126° | 77km/h | 15186m | 4.7m/s | -59.5°C | 7.3% | 125.9hPa | 2.6V | 00:00:00 | 01:04:37 | 00:00:00 | |
| DJ8HS-15 | 2026-09-03 23:34:03 | 48.47982 | 9.87024 | 126° | 77km/h | 15181m | 4.8m/s | -59.5°C | 7.4% | 126.0hPa | 2.7V | 00:00:00 | 01:04:36 | 00:00:00 | |
| DF7PN | 2026-09-03 23:34:00 | 48.48028 | 9.86925 | 124° | 77km/h | 15164m | 4.8m/s | -59.6°C | 3.5% | 126.4hPa | 2.7V | 00:00:00 | 00:00:00 | 00:00:00 | |
| DM0DOS-11 | 2026-09-03 23:33:59 | 48.48071 | 9.86830 | 125° | 75km/h | 15146m | 4m/s | -59.7°C | 7.4% | 126.8hPa | 2.7V | 08:30:00 | 01:04:28 | 00:00:00 | |
| DL1ZP-14 | 2026-09-03 23:33:49 | 48.48147 | 9.86657 | 120° | 77km/h | 15113m | 4.9m/s | -60.0°C | 3.7% | 127.5hPa | 2.6V | 00:00:00 | 00:00:00 | 00:00:00 | |
| DK7TD | 2026-09-03 23:33:36 | 48.48272 | 9.86371 | 126° | 77km/h | 15060m | 5.2m/s | -60.4°C | 4.9% | 128.5hPa | 2.7V | 18:12:15 | 01:04:09 | 00:00:00 | |
| DK7TD | 2026-09-03 23:33:26 | 48.48381 | 9.86150 | 128° | 77km/h | 15015m | 5.7m/s | -60.5°C | 5.2% | 129.5hPa | 2.6V | 18:12:15 | 01:03:59 | 00:00:00 | |
| DK7TD | 2026-09-03 23:33:16 | 48.48501 | 9.85915 | 125° | 80km/h | 14969m | 4.4m/s | -60.5°C | 5.7% | 130.5hPa | 2.7V | 18:12:15 | 01:03:49 | 00:00:00 | |
| BIOWL1-15 | 2026-09-03 23:33:15 | 48.48513 | 9.85890 | 125° | 82km/h | 14965m | 3.4m/s | 0°C | 0% | 0hPa | 2.6V | 18:12:15 | 01:03:48 | 00:00:00 | |
| DK7TD | 2026-09-03 23:33:05 | 48.48624 | 9.85655 | 124° | 68km/h | 14919m | 3.5m/s | -60.9°C | 6.2% | 131.5hPa | 2.6V | 18:12:15 | 01:03:38 | 00:00:00 | |
| BIOWL1-15 | 2026-09-03 23:33:02 | 48.48665 | 9.85573 | 128° | 69km/h | 14900m | 5.3m/s | 0°C | 0% | 0hPa | 2.6V | 18:12:15 | 01:03:34 | 00:00:00 | |
| DK7TD | 2026-09-03 23:32:55 | 48.48732 | 9.85451 | 129° | 69km/h | 14871m | 4.5m/s | -60.8°C | 6.6% | 132.5hPa | 2.7V | 18:12:15 | 01:03:28 | 00:00:00 | |
| DL1ZP-14 | 2026-09-03 23:32:47 | 48.48825 | 9.85259 | 127° | 73km/h | 14830m | 4.6m/s | -60.8°C | 5.4% | 133.4hPa | 2.6V | 00:00:00 | 00:00:00 | 00:00:00 | |
| DM0DOS-11 | 2026-09-03 23:32:46 | 48.48837 | 9.85237 | 129° | 73km/h | 14825m | 5.2m/s | -60.7°C | 10% | 133.5hPa | 2.6V | 08:30:00 | 01:03:18 | 00:00:00 | |
| DK7TD | 2026-09-03 23:32:44 | 48.48849 | 9.85216 | 131° | 73km/h | 14820m | 4.1m/s | -60.7°C | 7.1% | 133.6hPa | 2.6V | 18:12:15 | 01:03:17 | 00:00:00 | |
| OE5DXL-15 | 2026-09-03 23:32:43 | 48.48861 | 9.85195 | 131° | 73km/h | 14816m | 5.0m/s | -60.6°C | 9.9% | 133.6hPa | 2.8V | 00:00:00 | 00:00:00 | 00:00:00 | |
| DO3MHA-11 | 2026-09-03 23:32:39 | 48.48907 | 9.85111 | 130° | 71km/h | 14798m | 4.1m/s | -60.7°C | 10.0% | 134.0hPa | 2.8V | 00:00:00 | 01:03:12 | 00:00:00 | |
| DO3MHA-12 | 2026-09-03 23:32:38 | 48.48917 | 9.85091 | 128° | 71km/h | 14793m | 5.0m/s | -60.7°C | 10.0% | 134.1hPa | 2.8V | 00:00:00 | 01:03:11 | 00:00:00 | |
| AZAK | 2026-09-03 23:32:37 | 48.48928 | 9.85071 | 129° | 68km/h | 14789m | 4.1m/s | -60.8°C | 5.5% | 134.3hPa | 2.8V | 00:00:00 | 00:00:00 | 00:00:00 | |
| DM0DOS-11 | 2026-09-03 23:32:36 | 48.48949 | 9.85031 | 131° | 68km/h | 14779m | 4.7m/s | -60.9°C | 10.3% | 134.5hPa | 2.8V | 08:30:00 | 01:03:08 | 00:00:00 | |
| DK7TD | 2026-09-03 23:32:34 | 48.48961 | 9.85011 | 133° | 71km/h | 14775m | 3.6m/s | -60.9°C | 7.5% | 134.6hPa | 2.7V | 18:12:15 | 01:03:07 | 00:00:00 | |
| DK5PH-5 | 2026-09-03 23:32:34 | 48.48961 | 9.85011 | 133° | 75km/h | 14775m | 3.6m/s | -60.8°C | 10.3% | 134.5hPa | 2.7V | 00:00:00 | 01:03:07 | 08:30:00 | |
| DB0ND-19 | 2026-09-03 23:32:32 | 48.48986 | 9.84970 | 132° | 73km/h | 14766m | 4.5m/s | -60.9°C | 5.7% | 134.8hPa | 2.7V | 00:00:00 | 00:00:00 | 00:00:00 | |
| DO3MHA-11 | 2026-09-03 23:32:29 | 48.49024 | 9.84908 | 132° | 75km/h | 14752m | 4.5m/s | -61.1°C | 10.6% | 135.0hPa | 2.7V | 00:00:00 | 01:03:02 | 00:00:00 | |
| DO3MHA-12 | 2026-09-03 23:32:28 | 48.49037 | 9.84886 | 131° | 75km/h | 14747m | 5.7m/s | -61.2°C | 10.8% | 135.1hPa | 2.7V | 00:00:00 | 01:03:01 | 00:00:00 | |
| DF1GD-15 | 2026-09-03 23:32:27 | 48.49037 | 9.84886 | 131° | 77km/h | 14747m | 5.8m/s | -61.2°C | 6.0% | 135.2hPa | 2.6V | 00:00:00 | 00:00:00 | 00:00:00 | |
| DM0DOS-11 | 2026-09-03 23:32:26 | 48.49073 | 9.84819 | 128° | 75km/h | 14732m | 3.8m/s | -61.1°C | 11% | 135.5hPa | 2.6V | 08:30:00 | 01:02:58 | 00:00:00 | |
| DK7TD | 2026-09-03 23:32:24 | 48.49084 | 9.84797 | 129° | 75km/h | 14728m | 4.7m/s | -61.1°C | 7.9% | 135.6hPa | 2.6V | 18:12:15 | 01:02:57 | 00:00:00 | |
| NBG1-10 | 2026-09-03 23:32:24 | 48.49084 | 9.84797 | 130° | 77km/h | 14728m | 4.7m/s | -61.1°C | 10.8% | 135.5hPa | 2.6V | 00:00:00 | 01:02:57 | 00:00:00 | |
| DJ8HS-15 | 2026-09-03 23:32:23 | 48.49097 | 9.84775 | 131° | 75km/h | 14723m | 5.4m/s | -61.1°C | 10.8% | 135.6hPa | 2.6V | 00:00:00 | 01:02:56 | 00:00:00 | |
| OE9MKV-15 | 2026-09-03 23:32:21 | 48.49122 | 9.84732 | 133° | 75km/h | 14714m | 5.5m/s | -61.2°C | 10.9% | 135.9hPa | 2.6V | 00:00:00 | 01:02:54 | 00:00:00 | |
| DO3MHA-11 | 2026-09-03 23:32:19 | 48.49148 | 9.84690 | 134° | 75km/h | 14704m | 5.6m/s | -61.3°C | 11.1% | 136.1hPa | 2.6V | 00:00:00 | 01:02:52 | 00:00:00 | |
| DO3MHA-12 | 2026-09-03 23:32:18 | 48.49161 | 9.84669 | 134° | 75km/h | 14699m | 4.5m/s | -61.3°C | 11.3% | 136.2hPa | 2.6V | 00:00:00 | 01:02:51 | 00:00:00 | |
| PG1ADW-2 | 2026-09-03 23:32:17 | 48.49174 | 9.84649 | 134° | 75km/h | 14694m | 5.2m/s | -61.3°C | 11.3% | 136.3hPa | 2.6V | 00:00:00 | 00:00:00 | 08:30:00 | |
| DM0DOS-11 | 2026-09-03 23:32:16 | 48.49199 | 9.84607 | 131° | 75km/h | 14685m | 5m/s | -61.3°C | 11.3% | 136.5hPa | 2.7V | 08:30:00 | 01:02:48 | 00:00:00 | |
| DK7TD | 2026-09-03 23:32:13 | 48.49224 | 9.84563 | 127° | 77km/h | 14675m | 4.6m/s | -61.3°C | 8.3% | 136.7hPa | 2.6V | 18:12:15 | 01:02:46 | 00:00:00 | |
| DB0UT-7 | 2026-09-03 23:32:13 | 48.49223 | 9.84562 | 128° | 77km/h | 14676m | 4.5m/s | -61.2°C | 11.3% | 136.7hPa | 2.6V | 00:00:00 | 00:00:00 | 00:00:00 | |
| OE3JTB-15 | 2026-09-03 23:32:09 | 48.49267 | 9.84468 | 125° | 77km/h | 14656m | 4.2m/s | -61.2°C | 11.1% | 137.1hPa | 2.6V | 00:00:00 | 01:02:42 | 00:00:00 | |
| DO3MHA-12 | 2026-09-03 23:32:08 | 48.49278 | 9.84445 | 126° | 75km/h | 14651m | 5.5m/s | -61.2°C | 11.0% | 137.2hPa | 2.6V | 00:00:00 | 01:02:41 | 00:00:00 | |
| OE5DRO-10 | 2026-09-03 23:32:07 | 48.49289 | 9.84422 | 128° | 77km/h | 14646m | 4.4m/s | -61.2°C | 11.1% | 137.4hPa | 2.6V | 00:00:00 | 00:00:00 | 00:00:00 | |
| DM0DOS-11 | 2026-09-03 23:32:06 | 48.49312 | 9.84379 | 129° | 75km/h | 14636m | 5.3m/s | -61.1°C | 11.1% | 137.6hPa | 2.8V | 08:30:00 | 01:02:38 | 00:00:00 | |
| BIOWL1-15 | 2026-09-03 23:32:05 | 48.49312 | 9.84379 | 129° | 75km/h | 14636m | 5.3m/s | 0°C | 0% | 0hPa | 2.8V | 18:12:15 | 01:02:38 | 00:00:00 | |
| DK7TD | 2026-09-03 23:32:02 | 48.49349 | 9.84314 | 131° | 75km/h | 14621m | 4.1m/s | -61.1°C | 8.6% | 137.9hPa | 2.6V | 18:12:15 | 01:02:35 | 00:00:00 | |
| DB0ND-19 | 2026-09-03 23:32:01 | 48.49362 | 9.84292 | 130° | 75km/h | 14617m | 5.3m/s | -61.1°C | 6.4% | 138.1hPa | 2.7V | 00:00:00 | 00:00:00 | 00:00:00 | |
| DO3MHA-11 | 2026-09-03 23:31:59 | 48.49386 | 9.84247 | 129° | 77km/h | 14607m | 5.0m/s | -61.1°C | 11.3% | 138.2hPa | 2.7V | 00:00:00 | 01:02:32 | 00:00:00 | |
| DO3MHA-12 | 2026-09-03 23:31:58 | 48.49399 | 9.84224 | 129° | 77km/h | 14602m | 4.8m/s | -61.1°C | 11.4% | 138.3hPa | 2.7V | 00:00:00 | 01:02:31 | 00:00:00 | |
| DM0DOS-11 | 2026-09-03 23:31:57 | 48.49435 | 9.84153 | 127° | 78km/h | 14589m | 3.9m/s | -61.2°C | 11.5% | 138.7hPa | 2.6V | 08:30:00 | 01:02:28 | 00:00:00 | |
| BIOWL1-15 | 2026-09-03 23:31:54 | 48.49448 | 9.84129 | 128° | 77km/h | 14584m | 5.6m/s | 0°C | 0% | 0hPa | 2.6V | 18:12:15 | 01:02:27 | 00:00:00 | |
| DK7TD | 2026-09-03 23:31:52 | 48.49472 | 9.84084 | 128° | 77km/h | 14574m | 5.2m/s | -61.3°C | 9% | 139hPa | 2.8V | 18:12:15 | 01:02:25 | 00:00:00 | |
| NBG1-10 | 2026-09-03 23:31:51 | 48.49483 | 9.84060 | 128° | 77km/h | 14569m | 4.0m/s | -61.3°C | 11.8% | 139.1hPa | 2.8V | 00:00:00 | 01:02:24 | 00:00:00 | |
| DO3MHA-11 | 2026-09-03 23:31:49 | 48.49507 | 9.84016 | 130° | 77km/h | 14560m | 5.1m/s | -61.3°C | 11.9% | 139.3hPa | 2.8V | 00:00:00 | 01:02:22 | 00:00:00 | |
| DO3MHA-12 | 2026-09-03 23:31:48 | 48.49519 | 9.83994 | 131° | 77km/h | 14555m | 4.5m/s | -61.3°C | 12.0% | 139.4hPa | 2.8V | 00:00:00 | 01:02:21 | 00:00:00 | |
| DN1GJH-1 | 2026-09-03 23:31:47 | 48.49519 | 9.83994 | 131° | 75km/h | 14555m | 4.5m/s | -61.3°C | 7.0% | 139.4hPa | 2.8V | 00:00:00 | 00:00:00 | 00:00:00 | |
| DM0DOS-11 | 2026-09-03 23:31:46 | 48.49557 | 9.83927 | 130° | 77km/h | 14542m | 4.6m/s | -61.3°C | 11.8% | 139.7hPa | 2.8V | 08:30:00 | 01:02:18 | 00:00:00 | |
| DL1ZP-14 | 2026-09-03 23:31:44 | 48.49569 | 9.83905 | 130° | 75km/h | 14537m | 5.2m/s | -61.4°C | 6.8% | 139.8hPa | 2.8V | 00:00:00 | 00:00:00 | 00:00:00 | |
| BIOWL1-15 | 2026-09-03 23:31:43 | 48.49582 | 9.83883 | 130° | 77km/h | 14532m | 4.7m/s | 0°C | 0% | 0hPa | 2.8V | 18:12:15 | 01:02:16 | 00:00:00 | |
| DK7TD | 2026-09-03 23:31:41 | 48.49606 | 9.83837 | 127° | 78km/h | 14522m | 3.9m/s | -61.5°C | 9.1% | 140.2hPa | 2.6V | 18:12:15 | 01:02:14 | 00:00:00 | |
| OE3JTB-15 | 2026-09-03 23:31:40 | 48.49618 | 9.83813 | 128° | 77km/h | 14518m | 5.3m/s | -61.4°C | 11.9% | 140.2hPa | 2.6V | 00:00:00 | 00:00:00 | 00:00:00 | |
| DO3MHA-11 | 2026-09-03 23:31:39 | 48.49631 | 9.83789 | 129° | 77km/h | 14512m | 4.9m/s | -61.4°C | 11.9% | 140.3hPa | 2.6V | 00:00:00 | 01:02:12 | 00:00:00 | |
| DO3MHA-12 | 2026-09-03 23:31:38 | 48.49643 | 9.83765 | 128° | 77km/h | 14508m | 4.9m/s | -61.5°C | 12.0% | 140.4hPa | 2.6V | 00:00:00 | 01:02:11 | 00:00:00 | |
| PG1ADW-2 | 2026-09-03 23:31:37 | 48.49655 | 9.83741 | 128° | 77km/h | 14503m | 4.8m/s | -61.5°C | 12.0% | 140.5hPa | 2.6V | 00:00:00 | 00:00:00 | 00:00:00 | |
| DM0DOS-11 | 2026-09-03 23:31:36 | 48.49679 | 9.83695 | 128° | 75km/h | 14493m | 4.6m/s | -61.6°C | 12% | 140.8hPa | 2.6V | 08:30:00 | 01:02:08 | 00:00:00 | |
| BIOWL1-15 | 2026-09-03 23:31:33 | 48.49703 | 9.83651 | 128° | 73km/h | 14484m | 5.5m/s | 0°C | 0% | 0hPa | 2.6V | 18:12:15 | 01:02:06 | 00:00:00 | |
| DK7TD | 2026-09-03 23:31:31 | 48.49726 | 9.83605 | 128° | 77km/h | 14476m | 4.3m/s | -61.5°C | 9.4% | 141.2hPa | 2.7V | 18:12:15 | 01:02:04 | 00:00:00 | |
| BIOWL1-15 | 2026-09-03 23:31:23 | 48.49869 | 9.83258 | 122° | 73km/h | 14405m | 5.4m/s | 0°C | 0% | 0hPa | 2.6V | 18:12:15 | 01:01:50 | 00:00:00 | |
| DK7TD | 2026-09-03 23:31:21 | 48.49829 | 9.83354 | 121° | 77km/h | 14424m | 4.8m/s | -61.6°C | 10.1% | 142.4hPa | 2.8V | 18:12:15 | 01:01:54 | 00:00:00 | |
| DK7TD | 2026-09-03 23:31:10 | 48.49938 | 9.83088 | 124° | 78km/h | 14372m | 5.3m/s | -61.4°C | 11.1% | 143.6hPa | 2.6V | 18:12:15 | 01:01:43 | 00:00:00 | |
| BIOWL1-15 | 2026-09-03 23:31:09 | 48.49949 | 9.83063 | 125° | 78km/h | 14367m | 4.5m/s | 0°C | 0% | 0hPa | 2.6V | 18:12:15 | 01:01:42 | 00:00:00 | |
| DO3MHA-11 | 2026-09-03 23:31:09 | 48.49949 | 9.83063 | 126° | 73km/h | 14367m | 4.4m/s | -61.3°C | 13.7% | 143.7hPa | 2.6V | 00:00:00 | 01:01:42 | 00:00:00 | |
| DO3MHA-12 | 2026-09-03 23:31:08 | 48.49960 | 9.83039 | 127° | 73km/h | 14362m | 5.9m/s | -61.3°C | 13.9% | 143.8hPa | 2.6V | 00:00:00 | 01:01:41 | 00:00:00 | |
| DM0DOS-11 | 2026-09-03 23:31:07 | 48.50006 | 9.82949 | 126° | 71km/h | 14339m | 6.7m/s | -61.2°C | 13.9% | 144.3hPa | 2.6V | 08:30:00 | 01:01:37 | 00:00:00 | |
| BIOWL1-15 | 2026-09-03 23:30:59 | 48.50062 | 9.82840 | 126° | 75km/h | 14312m | 5.5m/s | 0°C | 0% | 0hPa | 2.6V | 18:12:15 | 01:01:32 | 00:00:00 | |
| DO3MHA-11 | 2026-09-03 23:30:59 | 48.50062 | 9.82840 | 127° | 77km/h | 14312m | 5.4m/s | -61.3°C | 14.5% | 144.9hPa | 2.6V | 00:00:00 | 01:01:32 | 00:00:00 | |
| DO3MHA-12 | 2026-09-03 23:30:58 | 48.50073 | 9.82817 | 127° | 78km/h | 14307m | 4.5m/s | -61.3°C | 14.6% | 145.1hPa | 2.6V | 00:00:00 | 01:01:31 | 00:00:00 | |
| PG1ADW-2 | 2026-09-03 23:30:57 | 48.50084 | 9.82795 | 128° | 82km/h | 14302m | 5.2m/s | 0°C | 0% | 0hPa | 2.8V | 00:00:00 | 00:00:00 | 00:00:00 | |
| DM0DOS-11 | 2026-09-03 23:30:55 | 48.50174 | 9.82635 | 136° | 78km/h | 14261m | 6.2m/s | -61.7°C | 15.3% | 146.2hPa | 2.8V | 08:30:00 | 01:01:23 | 00:00:00 | |
| DK7TD | 2026-09-03 23:30:49 | 48.50188 | 9.82615 | 138° | 82km/h | 14255m | 5.1m/s | -61.7°C | 14% | 146.3hPa | 2.8V | 18:12:15 | 01:01:22 | 00:00:00 | |
| BIOWL1-15 | 2026-09-03 23:30:38 | 48.50355 | 9.82361 | 132° | 88km/h | 14202m | 4.5m/s | 0°C | 0% | 0hPa | 2.8V | 18:12:15 | 01:01:11 | 00:00:00 | |
| DK7TD | 2026-09-03 23:30:28 | 48.50509 | 9.82113 | 133° | 97km/h | 14158m | 4.7m/s | -62.9°C | 18.2% | 148.6hPa | 2.6V | 18:12:15 | 01:01:01 | 00:00:00 | |
| DK7TD | 2026-09-03 23:30:17 | 48.50694 | 9.81816 | 130° | 97km/h | 14109m | 4.5m/s | -62.9°C | 20.4% | 149.8hPa | 2.6V | 18:12:15 | 01:00:50 | 00:00:00 | |
| PG1ADW-2 | 2026-09-03 23:30:17 | 48.50694 | 9.81816 | 131° | 89km/h | 14110m | 4.5m/s | 0°C | 0% | 0hPa | 2.6V | 00:00:00 | 00:00:00 | 00:00:00 | |
| DB0NH | 2026-09-03 23:30:15 | 48.50726 | 9.81760 | 131° | 84km/h | 14101m | 3.1m/s | -62.9°C | 23.1% | 150.0hPa | 2.6V | 00:00:00 | 01:00:48 | 00:00:00 | |
| DB0UT-7 | 2026-09-03 23:30:13 | 48.50757 | 9.81704 | 130° | 82km/h | 14090m | 5.2m/s | -62.9°C | 23.4% | 150.2hPa | 2.6V | 00:00:00 | 00:00:00 | 00:00:00 | |
| NBG1-10 | 2026-09-03 23:30:12 | 48.50773 | 9.81676 | 130° | 80km/h | 14085m | 4.4m/s | -62.9°C | 23.5% | 150.3hPa | 2.6V | 00:00:00 | 01:00:45 | 00:00:00 | |
| DM0DOS-11 | 2026-09-03 23:30:11 | 48.50863 | 9.81510 | 128° | 88km/h | 14058m | 5.7m/s | -62.8°C | 25.6% | 151.1hPa | 2.6V | 08:30:00 | 01:00:39 | 00:00:00 | |
| DK7TD | 2026-09-03 23:30:07 | 48.50863 | 9.81510 | 128° | 88km/h | 14058m | 5.7m/s | -62.8°C | 22.9% | 151.1hPa | 2.6V | 18:12:15 | 01:00:39 | 00:00:00 | |
| DO9HM | 2026-09-03 23:30:06 | 48.50849 | 9.81536 | 131° | 89km/h | 14063m | 4.3m/s | 0°C | 0% | 0hPa | 2.6V | 00:00:00 | 00:00:00 | 00:00:00 | |
| DL6DJ-15 | 2026-09-03 23:30:04 | 48.50900 | 9.81434 | 125° | 78km/h | 14043m | 4.5m/s | -62.7°C | 18.5% | 151.5hPa | 2.6V | 00:00:00 | 00:00:00 | 00:00:00 | |
| DB0ND-19 | 2026-09-03 23:29:57 | 48.50974 | 9.81285 | 128° | 78km/h | 14011m | 3.7m/s | -62.8°C | 19.0% | 152.2hPa | 2.6V | 00:00:00 | 00:00:00 | 00:00:00 | |
| DM0DOS-11 | 2026-09-03 23:29:56 | 48.51013 | 9.81212 | 129° | 80km/h | 13996m | 5.1m/s | -62.7°C | 27.1% | 152.6hPa | 2.6V | 08:30:00 | 01:00:27 | 00:00:00 | |
| DK7TD | 2026-09-03 23:29:55 | 48.51000 | 9.81236 | 129° | 82km/h | 14001m | 4.6m/s | -62.7°C | 25.5% | 152.4hPa | 2.6V | 18:12:15 | 01:00:28 | 00:00:00 | |
| OE5DRO-10 | 2026-09-03 23:29:54 | 48.51013 | 9.81212 | 130° | 73km/h | 13997m | 5.1m/s | -62.6°C | 27.1% | 152.5hPa | 2.6V | 00:00:00 | 00:00:00 | 00:00:00 | |
| AZAK | 2026-09-03 23:29:51 | 48.51051 | 9.81147 | 133° | 73km/h | 13981m | 5.5m/s | -62.6°C | 20.4% | 152.9hPa | 2.6V | 00:00:00 | 00:00:00 | 00:00:00 | |
| DM0DOS-11 | 2026-09-03 23:29:49 | 48.51136 | 9.81003 | 129° | 73km/h | 13948m | 3.6m/s | -62.8°C | 31% | 153.8hPa | 2.6V | 08:30:00 | 01:00:17 | 00:00:00 | |
| DK7TD | 2026-09-03 23:29:44 | 48.51136 | 9.81003 | 130° | 73km/h | 13948m | 3.6m/s | -62.8°C | 29% | 153.8hPa | 2.6V | 18:12:15 | 01:00:17 | 00:00:00 | |
| OE3JTB-15 | 2026-09-03 23:29:44 | 48.51136 | 9.81003 | 130° | 75km/h | 13948m | 3.6m/s | -62.7°C | 31.0% | 153.7hPa | 2.6V | 00:00:00 | 00:00:00 | 00:00:00 | |
| DB0UT-7 | 2026-09-03 23:29:43 | 48.51148 | 9.80982 | 130° | 75km/h | 13944m | 5.3m/s | -62.8°C | 31.4% | 153.8hPa | 2.6V | 00:00:00 | 01:00:16 | 00:00:00 | |
| DF1GD-15 | 2026-09-03 23:29:42 | 48.51148 | 9.80982 | 130° | 71km/h | 13944m | 5.4m/s | -62.8°C | 23.1% | 153.8hPa | 2.8V | 00:00:00 | 00:00:00 | 00:00:00 | |
| DL1ZP-14 | 2026-09-03 23:29:40 | 48.51183 | 9.80918 | 129° | 73km/h | 13929m | 3.8m/s | -63.1°C | 24.3% | 154.2hPa | 2.8V | 00:00:00 | 00:00:00 | 00:00:00 | |
| DO3MHA-11 | 2026-09-03 23:29:39 | 48.51195 | 9.80896 | 131° | 71km/h | 13925m | 4.9m/s | -63.0°C | 33.3% | 154.3hPa | 2.8V | 00:00:00 | 01:00:12 | 00:00:00 | |
| DO3MHA-12 | 2026-09-03 23:29:38 | 48.51207 | 9.80875 | 132° | 71km/h | 13920m | 4.1m/s | -63.0°C | 33.7% | 154.4hPa | 2.8V | 00:00:00 | 01:00:11 | 00:00:00 | |
| DM0DOS-11 | 2026-09-03 23:29:36 | 48.51256 | 9.80797 | 135° | 69km/h | 13903m | 4.8m/s | -63.1°C | 35% | 154.9hPa | 2.8V | 08:30:00 | 01:00:07 | 00:00:00 | |
| DK7TD | 2026-09-03 23:29:34 | 48.51256 | 9.80797 | 135° | 69km/h | 13903m | 4.8m/s | -63.2°C | 32.4% | 154.9hPa | 2.8V | 18:12:15 | 01:00:07 | 00:00:00 | |
| DK5PH-5 | 2026-09-03 23:29:34 | 48.51256 | 9.80797 | 136° | 78km/h | 13903m | 4.7m/s | -63.1°C | 35.0% | 154.9hPa | 2.7V | 00:00:00 | 01:00:07 | 00:00:00 | |
| DF3TZ-5 | 2026-09-03 23:29:32 | 48.51295 | 9.80741 | 136° | 73km/h | 13889m | 3.8m/s | -63.2°C | 26.9% | 155.3hPa | 2.8V | 00:00:00 | 00:00:00 | 00:00:00 | |
| AZAK | 2026-09-03 23:29:31 | 48.51295 | 9.80741 | 137° | 73km/h | 13889m | 3.8m/s | -63.2°C | 26.9% | 155.3hPa | 2.8V | 00:00:00 | 00:00:00 | 00:00:00 | |
| DM0DOS-11 | 2026-09-03 23:29:30 | 48.51390 | 9.80604 | 139° | 75km/h | 13857m | 3.6m/s | -63.2°C | 37.4% | 156.1hPa | 2.8V | 08:30:00 | 00:59:57 | 00:00:00 | |
| DK7TD | 2026-09-03 23:29:24 | 48.51391 | 9.80604 | 139° | 75km/h | 13857m | 3.6m/s | -63.2°C | 35.5% | 156.1hPa | 2.8V | 18:12:15 | 00:59:57 | 00:00:00 | |
| DJ8HS-15 | 2026-09-03 23:29:23 | 48.51405 | 9.80585 | 140° | 82km/h | 13853m | 4.6m/s | -63.2°C | 37.9% | 156.1hPa | 2.7V | 00:00:00 | 00:59:56 | 00:00:00 | |
| OE5DXL-15 | 2026-09-03 23:29:21 | 48.51435 | 9.80547 | 141° | 88km/h | 13845m | 4.6m/s | -63.2°C | 38.7% | 156.3hPa | 2.6V | 00:00:00 | 00:00:00 | 00:00:00 | |
| DF7PN | 2026-09-03 23:29:20 | 48.51451 | 9.80529 | 141° | 78km/h | 13840m | 4.4m/s | -63.2°C | 29.7% | 156.5hPa | 2.8V | 00:00:00 | 00:00:00 | 00:00:00 | |
| DO3MHA-11 | 2026-09-03 23:29:19 | 48.51466 | 9.80510 | 142° | 82km/h | 13836m | 4.1m/s | -63.1°C | 39.3% | 156.5hPa | 2.8V | 00:00:00 | 00:59:52 | 00:00:00 | |
| DO3MHA-12 | 2026-09-03 23:29:18 | 48.51482 | 9.80491 | 141° | 82km/h | 13831m | 4.6m/s | -63.1°C | 40.0% | 156.6hPa | 2.8V | 00:00:00 | 00:59:51 | 00:00:00 | |
| DM0DOS-11 | 2026-09-03 23:29:16 | 48.51547 | 9.80411 | 141° | 82km/h | 13813m | 4.4m/s | -63.2°C | 41.1% | 157.2hPa | 2.8V | 08:30:00 | 00:59:47 | 00:00:00 | |
| DK7TD | 2026-09-03 23:29:14 | 48.51547 | 9.80411 | 141° | 82km/h | 13813m | 4.4m/s | -63.3°C | 39.2% | 157.2hPa | 2.8V | 18:12:15 | 00:59:47 | 00:00:00 | |
| DB0UT-7 | 2026-09-03 23:29:13 | 48.51563 | 9.80392 | 141° | 91km/h | 13808m | 4.8m/s | -63.2°C | 41.6% | 157.2hPa | 2.8V | 00:00:00 | 00:00:00 | 00:00:00 | |
| AZAK | 2026-09-03 23:29:11 | 48.51595 | 9.80353 | 143° | 80km/h | 13800m | 4.9m/s | -63.4°C | 32.4% | 157.5hPa | 2.8V | 00:00:00 | 00:00:00 | 00:00:00 | |
| PG1ADW-2 | 2026-09-03 23:29:09 | 48.51628 | 9.80317 | 144° | 84km/h | 13791m | 4.5m/s | 0°C | 0% | 0hPa | 2.8V | 00:00:00 | 00:00:00 | 00:00:00 | |
| DH7VM-15 | 2026-09-03 23:29:08 | 48.51645 | 9.80297 | 143° | 84km/h | 13787m | 4.6m/s | -63.6°C | 33.7% | 157.9hPa | 2.8V | 00:00:00 | 00:00:00 | 00:00:00 | |
| DM0DOS-11 | 2026-09-03 23:29:06 | 48.51749 | 9.80176 | 141° | 86km/h | 13760m | 4.8m/s | -64°C | 45.6% | 158.5hPa | 2.8V | 08:30:00 | 00:59:35 | 00:00:00 | |
| DK7TD | 2026-09-03 23:29:03 | 48.51731 | 9.80197 | 141° | 88km/h | 13765m | 4.4m/s | -63.9°C | 43.3% | 158.4hPa | 2.8V | 18:12:15 | 00:59:36 | 00:00:00 | |
| DK7TD | 2026-09-03 23:28:53 | 48.51922 | 9.79993 | 146° | 99km/h | 13722m | 3.6m/s | -64.6°C | 46.4% | 159.5hPa | 2.8V | 18:12:15 | 00:59:26 | 00:00:00 | |
| DM0DOS-11 | 2026-09-03 23:28:52 | 48.51963 | 9.79950 | 143° | 99km/h | 13714m | 3.6m/s | -64.6°C | 51.2% | 159.7hPa | 2.7V | 08:30:00 | 00:59:24 | 00:00:00 | |
| OE5DXL-15 | 2026-09-03 23:28:50 | 48.51983 | 9.79927 | 142° | 100km/h | 13709m | 4.9m/s | -64.6°C | 51.6% | 159.8hPa | 2.6V | 00:00:00 | 00:00:00 | 00:00:00 | |
| DO3MHA-11 | 2026-09-03 23:28:49 | 48.52003 | 9.79903 | 141° | 102km/h | 13705m | 3.4m/s | -64.7°C | 52.1% | 160.0hPa | 2.6V | 00:00:00 | 00:59:22 | 00:00:00 | |
| DO3MHA-12 | 2026-09-03 23:28:48 | 48.52023 | 9.79879 | 141° | 102km/h | 13701m | 4.2m/s | -64.8°C | 52.1% | 160.0hPa | 2.6V | 00:00:00 | 00:59:21 | 00:00:00 | |
| DM0DOS-11 | 2026-09-03 23:28:46 | 48.52161 | 9.79706 | 140° | 102km/h | 13671m | 5.3m/s | -64.8°C | 53.4% | 160.9hPa | 2.6V | 08:30:00 | 00:59:14 | 00:00:00 | |
| DK7TD | 2026-09-03 23:28:43 | 48.52141 | 9.79730 | 141° | 100km/h | 13675m | 3.9m/s | -64.9°C | 48.2% | 160.8hPa | 2.8V | 18:12:15 | 00:59:15 | 00:00:00 | |
| DJ8HS-15 | 2026-09-03 23:28:43 | 48.52122 | 9.79754 | 141° | 99km/h | 13679m | 4.4m/s | -64.8°C | 53.6% | 160.6hPa | 2.6V | 00:00:00 | 00:59:16 | 00:00:00 | |
| DN1GJH-1 | 2026-09-03 23:28:42 | 48.52122 | 9.79754 | 142° | 100km/h | 13679m | 4.5m/s | -64.9°C | 41.8% | 160.6hPa | 2.6V | 00:00:00 | 00:00:00 | 00:00:00 | |
| DF1GD-15 | 2026-09-03 23:28:40 | 48.52161 | 9.79706 | 142° | 102km/h | 13671m | 5.3m/s | -64.8°C | 41.7% | 160.9hPa | 2.6V | 00:00:00 | 00:00:00 | 00:00:00 | |
| DO3MHA-11 | 2026-09-03 23:28:39 | 48.52201 | 9.79656 | 141° | 99km/h | 13661m | 4.8m/s | -64.8°C | 53.7% | 161.0hPa | 2.6V | 00:00:00 | 00:59:12 | 00:00:00 | |
| DO3MHA-12 | 2026-09-03 23:28:38 | 48.52221 | 9.79632 | 142° | 97km/h | 13657m | 4.4m/s | -64.7°C | 53.9% | 161.2hPa | 2.6V | 00:00:00 | 00:59:11 | 00:00:00 | |
| DM0DOS-11 | 2026-09-03 23:28:36 | 48.52354 | 9.79461 | 137° | 95km/h | 13626m | 4m/s | -64.7°C | 53.6% | 162.1hPa | 2.6V | 08:30:00 | 00:59:04 | 00:00:00 | |
| DK5PH-5 | 2026-09-03 23:28:34 | 48.52299 | 9.79533 | 141° | 102km/h | 13639m | 4.9m/s | -64.7°C | 54.1% | 161.6hPa | 2.6V | 00:00:00 | 00:59:07 | 00:00:00 | |
| NBG1-10 | 2026-09-03 23:28:33 | 48.52318 | 9.79509 | 140° | 102km/h | 13635m | 3.0m/s | -64.7°C | 53.8% | 161.7hPa | 2.6V | 00:00:00 | 00:59:06 | 00:00:00 | |
| DK7TD | 2026-09-03 23:28:33 | 48.52337 | 9.79485 | 138° | 95km/h | 13631m | 5.4m/s | -64.7°C | 49.5% | 161.9hPa | 2.8V | 18:12:15 | 00:59:05 | 00:00:00 | |
| DL6DJ-15 | 2026-09-03 23:28:31 | 48.52372 | 9.79437 | 137° | 91km/h | 13622m | 5.2m/s | -64.7°C | 42.2% | 162.2hPa | 2.6V | 00:00:00 | 00:00:00 | 00:00:00 | |
| DF3TZ-5 | 2026-09-03 23:28:30 | 48.52389 | 9.79413 | 137° | 93km/h | 13617m | 3.2m/s | -64.8°C | 42.4% | 162.2hPa | 2.6V | 00:00:00 | 00:00:00 | 00:00:00 | |
| DO3MHA-11 | 2026-09-03 23:28:29 | 48.52389 | 9.79413 | 138° | 100km/h | 13618m | 3.2m/s | -64.7°C | 54.2% | 162.2hPa | 2.6V | 00:00:00 | 00:59:02 | 08:30:00 | |
| DO3MHA-12 | 2026-09-03 23:28:28 | 48.52406 | 9.79389 | 138° | 100km/h | 13614m | 4.5m/s | -64.8°C | 54.6% | 162.3hPa | 2.7V | 00:00:00 | 00:59:01 | 08:30:00 | |
| DM0DOS-11 | 2026-09-03 23:28:26 | 48.52542 | 9.79215 | 139° | 104km/h | 13582m | 4.1m/s | -65.6°C | 59.9% | 163.2hPa | 2.7V | 08:30:00 | 00:58:54 | 00:00:00 | |
| DK7TD | 2026-09-03 23:28:22 | 48.52522 | 9.79240 | 140° | 104km/h | 13587m | 5.3m/s | -65.7°C | 50.9% | 163.1hPa | 2.7V | 18:12:15 | 00:58:55 | 00:00:00 | |
| DN1GJH-1 | 2026-09-03 23:28:21 | 48.52522 | 9.79240 | 141° | 104km/h | 13587m | 5.3m/s | -65.7°C | 46.9% | 163.1hPa | 2.8V | 00:00:00 | 00:00:00 | 00:00:00 | |
| OE5DXL-15 | 2026-09-03 23:28:20 | 48.52562 | 9.79189 | 140° | 104km/h | 13578m | 5.0m/s | -65.5°C | 59.3% | 163.3hPa | 2.8V | 00:00:00 | 00:00:00 | 00:00:00 | |
| DO3MHA-11 | 2026-09-03 23:28:19 | 48.52582 | 9.79163 | 140° | 106km/h | 13572m | 5.0m/s | -65.5°C | 59.3% | 163.4hPa | 2.8V | 00:00:00 | 00:58:52 | 00:00:00 | |
| DF7PN | 2026-09-03 23:28:18 | 48.52621 | 9.79112 | 137° | 102km/h | 13563m | 4.5m/s | -65.5°C | 45.9% | 163.7hPa | 2.8V | 00:00:00 | 00:00:00 | 00:00:00 | |
| DM0DOS-11 | 2026-09-03 23:28:17 | 48.52741 | 9.78947 | 138° | 110km/h | 13537m | 5.1m/s | -65.3°C | 59% | 164.4hPa | 2.8V | 08:30:00 | 00:58:44 | 00:00:00 | |
| DK7TD | 2026-09-03 23:28:12 | 48.52720 | 9.78975 | 138° | 110km/h | 13542m | 4.2m/s | -65.3°C | 50% | 164.3hPa | 2.8V | 18:12:15 | 00:58:45 | 00:00:00 | |
| DO3MHA-11 | 2026-09-03 23:28:09 | 48.52782 | 9.78895 | 141° | 102km/h | 13530m | 3.6m/s | -65.2°C | 58.6% | 164.6hPa | 2.8V | 00:00:00 | 00:58:42 | 00:00:00 | |
| DO3MHA-12 | 2026-09-03 23:28:08 | 48.52803 | 9.78869 | 141° | 102km/h | 13526m | 5.3m/s | -65.1°C | 58.5% | 164.7hPa | 2.8V | 00:00:00 | 00:58:41 | 00:00:00 | |
| DL1ZP-14 | 2026-09-03 23:28:07 | 48.52823 | 9.78845 | 140° | 100km/h | 13521m | 4.2m/s | -65.1°C | 45.9% | 164.9hPa | 2.8V | 00:00:00 | 00:00:00 | 00:00:00 | |
| DM0DOS-11 | 2026-09-03 23:28:06 | 48.52942 | 9.78699 | 140° | 104km/h | 13493m | 4.6m/s | -64.9°C | 57.6% | 165.6hPa | 2.6V | 08:30:00 | 00:58:34 | 00:00:00 | |
| DK7TD | 2026-09-03 23:28:01 | 48.52942 | 9.78699 | 141° | 104km/h | 13493m | 4.6m/s | -64.9°C | 49.7% | 165.6hPa | 2.6V | 18:12:15 | 00:58:34 | 00:00:00 | |
| DF3TZ-5 | 2026-09-03 23:27:59 | 48.53004 | 9.78624 | 140° | 104km/h | 13480m | 5.1m/s | -64.8°C | 45.1% | 166.0hPa | 2.7V | 00:00:00 | 00:00:00 | 00:00:00 | |
| DO3MHA-12 | 2026-09-03 23:27:58 | 48.53004 | 9.78624 | 141° | 104km/h | 13480m | 5.0m/s | -64.7°C | 57.6% | 165.9hPa | 2.7V | 00:00:00 | 00:58:31 | 00:00:00 | |
| DM0DOS-11 | 2026-09-03 23:27:53 | 48.53208 | 9.78376 | 141° | 99km/h | 13437m | 3.7m/s | -64.4°C | 57.5% | 167.1hPa | 2.7V | 08:30:00 | 00:58:21 | 00:00:00 | |
| DK7TD | 2026-09-03 23:27:51 | 48.53149 | 9.78449 | 140° | 100km/h | 13451m | 4.4m/s | -64.5°C | 49.8% | 166.7hPa | 2.8V | 18:12:15 | 00:58:24 | 00:00:00 | |
| DF7PN | 2026-09-03 23:27:47 | 48.53246 | 9.78328 | 141° | 97km/h | 13428m | 3.4m/s | -64.3°C | 45.3% | 167.4hPa | 2.7V | 00:00:00 | 00:00:00 | 00:00:00 | |
| BIOWL9-15 | 2026-09-03 23:27:46 | 48.53285 | 9.78283 | 144° | 99km/h | 13419m | 4.3m/s | -64.2°C | 44.9% | 167.7hPa | 2.7V | 00:00:00 | 00:00:00 | 00:00:00 | |
| DB0NH | 2026-09-03 23:27:45 | 48.53265 | 9.78305 | 143° | 100km/h | 13424m | 5.0m/s | -64.2°C | 57.0% | 167.4hPa | 2.7V | 00:00:00 | 00:58:18 | 00:00:00 | |
| DM0DOS-11 | 2026-09-03 23:27:43 | 48.53408 | 9.78146 | 143° | 99km/h | 13390m | 4.2m/s | -64°C | 56.1% | 168.4hPa | 2.7V | 08:30:00 | 00:58:11 | 00:00:00 | |
| DK7TD | 2026-09-03 23:27:40 | 48.53368 | 9.78191 | 143° | 100km/h | 13399m | 5.6m/s | -64.1°C | 50.2% | 168.2hPa | 2.8V | 18:12:15 | 00:58:13 | 00:00:00 | |
| BIOWL1-15 | 2026-09-03 23:27:37 | 48.53429 | 9.78123 | 143° | 100km/h | 13385m | 5.2m/s | -64°C | 50.5% | 168.6hPa | 2.7V | 18:12:15 | 00:58:10 | 00:00:00 | |
| BIOWL1-15 | 2026-09-03 23:27:31 | 48.53632 | 9.77901 | 146° | 104km/h | 13339m | 3.8m/s | -63.8°C | 51.9% | 169.8hPa | 2.8V | 18:12:15 | 00:58:00 | 00:00:00 | |
| DK7TD | 2026-09-03 23:27:29 | 48.53590 | 9.77946 | 144° | 100km/h | 13348m | 3.7m/s | -63.9°C | 51.5% | 169.6hPa | 2.7V | 18:12:15 | 00:58:02 | 00:00:00 | |
| DK7TD | 2026-09-03 23:27:19 | 48.53796 | 9.77721 | 143° | 100km/h | 13305m | 4m/s | -63.8°C | 52.9% | 170.8hPa | 2.8V | 18:12:15 | 00:57:52 | 00:00:00 | |
| BIOWL1-15 | 2026-09-03 23:27:12 | 48.53946 | 9.77567 | 149° | 106km/h | 13271m | 4.2m/s | -64.3°C | 53.8% | 171.7hPa | 2.7V | 18:12:15 | 00:57:45 | 00:00:00 | |
| DK7TD | 2026-09-03 23:27:08 | 48.54036 | 9.77483 | 149° | 104km/h | 13255m | 3.7m/s | -64.4°C | 53.6% | 172.2hPa | 2.8V | 18:12:15 | 00:57:41 | 00:00:00 | |
| BIOWL1-15 | 2026-09-03 23:27:03 | 48.54176 | 9.77358 | 149° | 113km/h | 13229m | 5.7m/s | -64.2°C | 53.5% | 172.9hPa | 2.8V | 18:12:15 | 00:57:35 | 00:00:00 | |
| DK7TD | 2026-09-03 23:26:58 | 48.54281 | 9.77269 | 151° | 119km/h | 13208m | 5.1m/s | -64.1°C | 53.8% | 173.5hPa | 2.7V | 18:12:15 | 00:57:31 | 00:00:00 | |
| DO3MHA-12 | 2026-09-03 23:26:58 | 48.54281 | 9.77269 | 151° | 117km/h | 13208m | 5.0m/s | -64.0°C | 61.8% | 173.4hPa | 2.7V | 00:00:00 | 00:57:31 | 08:30:00 | |
| DM0DOS-11 | 2026-09-03 23:26:57 | 48.54359 | 9.77201 | 150° | 119km/h | 13194m | 3.8m/s | -64.1°C | 61.3% | 173.9hPa | 2.8V | 08:30:00 | 00:57:28 | 00:00:00 | |
| BIOWL1-15 | 2026-09-03 23:26:52 | 48.54435 | 9.77135 | 149° | 113km/h | 13179m | 4.4m/s | -64.1°C | 53.7% | 174.2hPa | 2.7V | 18:12:15 | 00:57:25 | 00:00:00 | |
| DK7TD | 2026-09-03 23:26:48 | 48.54538 | 9.77044 | 151° | 124km/h | 13158m | 3.8m/s | -64.3°C | 53.6% | 174.9hPa | 2.7V | 18:12:15 | 00:57:21 | 00:00:00 | |
| DO3MHA-12 | 2026-09-03 23:26:48 | 48.54538 | 9.77044 | 151° | 126km/h | 13158m | 3.8m/s | -64.3°C | 60.7% | 174.9hPa | 2.8V | 00:00:00 | 00:57:21 | 00:00:00 | |
| DO3MHA-11 | 2026-09-03 23:26:47 | 48.54566 | 9.77021 | 151° | 126km/h | 13153m | 6.0m/s | -64.3°C | 59.7% | 175.0hPa | 2.8V | 00:00:00 | 00:57:20 | 00:00:00 | |
| DM0DOS-11 | 2026-09-03 23:26:46 | 48.54620 | 9.76972 | 147° | 122km/h | 13140m | 5.9m/s | -64.3°C | 59.6% | 175.4hPa | 2.8V | 08:30:00 | 00:57:18 | 00:00:00 | |
| BIOWL1-15 | 2026-09-03 23:26:45 | 48.54727 | 9.76875 | 149° | 128km/h | 13117m | 5.1m/s | -64.2°C | 52.9% | 176.1hPa | 2.7V | 18:12:15 | 00:57:14 | 00:00:00 | |
| DF7PN | 2026-09-03 23:26:45 | 48.54646 | 9.76948 | 148° | 122km/h | 13134m | 5.3m/s | -64.3°C | 47.1% | 175.6hPa | 2.8V | 00:00:00 | 00:00:00 | 00:00:00 | |
| DK7TD | 2026-09-03 23:26:38 | 48.54810 | 9.76796 | 147° | 130km/h | 13102m | 5.2m/s | -64.1°C | 52.6% | 176.4hPa | 2.8V | 18:12:15 | 00:57:11 | 00:00:00 | |
| BIOWL1-15 | 2026-09-03 23:26:30 | 48.55088 | 9.76517 | 147° | 130km/h | 13056m | 4.5m/s | 0°C | 0% | 177.8hPa | 2.7V | 18:12:15 | 00:57:01 | 00:00:00 | |
| DK7TD | 2026-09-03 23:26:27 | 48.55116 | 9.76490 | 148° | 128km/h | 13052m | 3.7m/s | -63.8°C | 52.2% | 177.9hPa | 2.8V | 18:12:15 | 00:57:00 | 00:00:00 | |
| DO3MHA-11 | 2026-09-03 23:26:27 | 48.55116 | 9.76490 | 148° | 131km/h | 13052m | 3.6m/s | -63.8°C | 56.8% | 177.9hPa | 2.7V | 00:00:00 | 00:57:00 | 00:00:00 | |
| DM0DOS-11 | 2026-09-03 23:26:26 | 48.55170 | 9.76437 | 145° | 128km/h | 13043m | 5m/s | -63.8°C | 57.4% | 178.2hPa | 2.8V | 08:30:00 | 00:56:58 | 00:00:00 | |
| BIOWL1-15 | 2026-09-03 23:26:19 | 48.55333 | 9.76262 | 145° | 133km/h | 13016m | 4.5m/s | 0°C | 0% | 179hPa | 2.8V | 18:12:15 | 00:56:52 | 00:00:00 | |
| DK7TD | 2026-09-03 23:26:17 | 48.55387 | 9.76203 | 144° | 131km/h | 13007m | 4.5m/s | -64°C | 51.7% | 179.3hPa | 2.7V | 18:12:15 | 00:56:50 | 00:00:00 | |
| DO3MHA-11 | 2026-09-03 23:26:17 | 48.55387 | 9.76203 | 144° | 131km/h | 13007m | 4.5m/s | -64.0°C | 57.7% | 179.2hPa | 2.8V | 00:00:00 | 00:56:50 | 00:00:00 | |
| DM0DOS-11 | 2026-09-03 23:26:16 | 48.55441 | 9.76144 | 144° | 131km/h | 12998m | 3.1m/s | -64.2°C | 58.7% | 179.5hPa | 2.8V | 08:30:00 | 00:56:48 | 00:00:00 | |
| DK7TD | 2026-09-03 23:26:07 | 48.55649 | 9.75900 | 139° | 131km/h | 12960m | 4.7m/s | -64.2°C | 50.6% | 180.6hPa | 2.8V | 18:12:15 | 00:56:40 | 00:00:00 | |
| DO3MHA-11 | 2026-09-03 23:26:07 | 48.55649 | 9.75899 | 139° | 137km/h | 12961m | 4.7m/s | -64.1°C | 57.6% | 180.6hPa | 2.7V | 00:00:00 | 00:56:40 | 00:00:00 | |
| DM0DOS-11 | 2026-09-03 23:26:06 | 48.55700 | 9.75834 | 140° | 133km/h | 12950m | 4.8m/s | -64.2°C | 57.8% | 180.9hPa | 2.7V | 08:30:00 | 00:56:38 | 00:00:00 | |
| OE5DRO-10 | 2026-09-03 23:26:06 | 48.55674 | 9.75867 | 140° | 135km/h | 12955m | 5.8m/s | -64.2°C | 57.7% | 180.7hPa | 2.8V | 00:00:00 | 00:00:00 | 00:00:00 | |
| AZAK | 2026-09-03 23:26:05 | 48.55700 | 9.75834 | 141° | 133km/h | 12950m | 4.8m/s | -64.2°C | 45.7% | 180.9hPa | 2.8V | 00:00:00 | 00:00:00 | 00:00:00 | |
| DK5PH-5 | 2026-09-03 23:26:04 | 48.55726 | 9.75801 | 142° | 135km/h | 12946m | 4.0m/s | -64.1°C | 57.6% | 181.0hPa | 2.8V | 00:00:00 | 00:56:37 | 00:00:00 | |
| OE5DXL-15 | 2026-09-03 23:26:03 | 48.55753 | 9.75769 | 142° | 135km/h | 12941m | 4.7m/s | -64.1°C | 57.5% | 181.1hPa | 2.8V | 00:00:00 | 00:00:00 | 00:00:00 | |
| DL1ZP-14 | 2026-09-03 23:26:02 | 48.55780 | 9.75736 | 140° | 137km/h | 12936m | 5.5m/s | -64.1°C | 45.4% | 181.3hPa | 2.8V | 00:00:00 | 00:00:00 | 00:00:00 | |
| DN1GJH-1 | 2026-09-03 23:25:58 | 48.55889 | 9.75602 | 141° | 135km/h | 12918m | 3.9m/s | -64.0°C | 45.0% | 181.8hPa | 2.7V | 00:00:00 | 00:00:00 | 00:00:00 | |
| DO3MHA-11 | 2026-09-03 23:25:57 | 48.55915 | 9.75568 | 140° | 135km/h | 12914m | 4.9m/s | -63.9°C | 56.6% | 181.9hPa | 2.7V | 00:00:00 | 00:56:30 | 00:00:00 | |
| DM0DOS-11 | 2026-09-03 23:25:56 | 48.55966 | 9.75502 | 139° | 133km/h | 12905m | 4.3m/s | -63.9°C | 55.7% | 182.2hPa | 2.7V | 08:30:00 | 00:56:28 | 00:00:00 | |
| DK7TD | 2026-09-03 23:25:56 | 48.55941 | 9.75535 | 139° | 133km/h | 12909m | 4.6m/s | -64°C | 48.9% | 182.1hPa | 2.7V | 18:12:15 | 00:56:29 | 00:00:00 | |
| BIOWL1-15 | 2026-09-03 23:25:55 | 48.55992 | 9.75469 | 139° | 133km/h | 12900m | 4.8m/s | 0°C | 0% | 0hPa | 2.8V | 18:12:15 | 00:56:27 | 00:00:00 | |
| DL6DJ-15 | 2026-09-03 23:25:55 | 48.55966 | 9.75502 | 139° | 131km/h | 12905m | 4.3m/s | -63.9°C | 44.0% | 182.2hPa | 2.7V | 00:00:00 | 00:00:00 | 00:00:00 | |
| DF3TZ-5 | 2026-09-03 23:25:54 | 48.55992 | 9.75469 | 139° | 131km/h | 12900m | 4.8m/s | -63.9°C | 43.6% | 182.4hPa | 2.7V | 00:00:00 | 00:00:00 | 00:00:00 | |
| DB0ND-19 | 2026-09-03 23:25:49 | 48.56148 | 9.75267 | 138° | 135km/h | 12873m | 4.6m/s | -63.8°C | 43.6% | 183.2hPa | 2.7V | 00:00:00 | 00:00:00 | 00:00:00 | |
| NBG1-10 | 2026-09-03 23:25:48 | 48.56148 | 9.75267 | 139° | 135km/h | 12873m | 4.6m/s | -63.7°C | 55.3% | 183.2hPa | 2.7V | 00:00:00 | 00:56:21 | 00:00:00 | |
| DO3MHA-12 | 2026-09-03 23:25:47 | 48.56173 | 9.75232 | 138° | 135km/h | 12868m | 5.5m/s | -63.7°C | 55.2% | 183.3hPa | 2.7V | 00:00:00 | 00:56:20 | 00:00:00 | |
| DM0DOS-11 | 2026-09-03 23:25:46 | 48.56224 | 9.75161 | 136° | 137km/h | 12858m | 4.9m/s | -63.7°C | 55.2% | 183.6hPa | 2.7V | 08:30:00 | 00:56:18 | 00:00:00 | |
| DK7TD | 2026-09-03 23:25:45 | 48.56224 | 9.75161 | 137° | 137km/h | 12858m | 4.9m/s | -63.7°C | 48.1% | 183.6hPa | 2.7V | 18:12:15 | 00:56:18 | 00:00:00 | |
| AZAK | 2026-09-03 23:25:45 | 48.56249 | 9.75126 | 138° | 133km/h | 12853m | 5.3m/s | -63.7°C | 43.4% | 183.8hPa | 2.7V | 00:00:00 | 00:00:00 | 00:00:00 | |
| DF7PN | 2026-09-03 23:25:43 | 48.56297 | 9.75057 | 136° | 131km/h | 12845m | 4.8m/s | -63.6°C | 42.5% | 184.0hPa | 2.7V | 00:00:00 | 00:00:00 | 00:00:00 | |
| DO3MHA-12 | 2026-09-03 23:25:37 | 48.56418 | 9.74876 | 136° | 133km/h | 12819m | 4.0m/s | -63.3°C | 53.8% | 184.7hPa | 2.7V | 00:00:00 | 00:56:10 | 00:00:00 | |
| DM0DOS-11 | 2026-09-03 23:25:36 | 48.56466 | 9.74805 | 135° | 133km/h | 12810m | 4.9m/s | -63.3°C | 53% | 185.1hPa | 2.7V | 08:30:00 | 00:56:08 | 00:00:00 | |
| DK7TD | 2026-09-03 23:25:34 | 48.56490 | 9.74769 | 134° | 133km/h | 12806m | 4.2m/s | -63.3°C | 47% | 185.2hPa | 2.7V | 18:12:15 | 00:56:07 | 00:00:00 | |
| DK5PH-5 | 2026-09-03 23:25:34 | 48.56490 | 9.74769 | 135° | 135km/h | 12806m | 4.2m/s | -63.2°C | 53.0% | 185.2hPa | 2.7V | 00:00:00 | 00:56:07 | 00:00:00 | |
| OE5DXL-15 | 2026-09-03 23:25:33 | 48.56513 | 9.74732 | 135° | 135km/h | 12801m | 4.9m/s | -63.2°C | 52.6% | 185.3hPa | 2.7V | 00:00:00 | 00:00:00 | 00:00:00 | |
| DL1ZP-14 | 2026-09-03 23:25:32 | 48.56561 | 9.74662 | 136° | 130km/h | 12792m | 3.7m/s | -63.2°C | 41.5% | 185.6hPa | 2.7V | 00:00:00 | 00:00:00 | 00:00:00 | |
| DM0DOS-11 | 2026-09-03 23:25:30 | 48.56706 | 9.74452 | 135° | 137km/h | 12766m | 3.6m/s | -63°C | 52.8% | 186.4hPa | 2.7V | 08:30:00 | 00:55:58 | 00:00:00 | |
| DK7TD | 2026-09-03 23:25:24 | 48.56730 | 9.74414 | 134° | 139km/h | 12762m | 5m/s | -63°C | 46% | 186.5hPa | 2.7V | 18:12:15 | 00:55:57 | 00:00:00 | |
| DL6DJ-15 | 2026-09-03 23:25:24 | 48.56730 | 9.74414 | 134° | 137km/h | 12762m | 5.0m/s | -63.0°C | 41.6% | 186.5hPa | 2.7V | 00:00:00 | 00:00:00 | 00:00:00 | |
| DJ8HS-15 | 2026-09-03 23:25:23 | 48.56755 | 9.74376 | 134° | 135km/h | 12757m | 4.4m/s | -62.9°C | 52.9% | 186.6hPa | 2.7V | 00:00:00 | 00:55:56 | 08:30:00 | |
| DB0ND-19 | 2026-09-03 23:25:18 | 48.56900 | 9.74153 | 136° | 131km/h | 12733m | 4.3m/s | -62.8°C | 40.5% | 187.4hPa | 2.8V | 00:00:00 | 00:00:00 | 00:00:00 | |
| DO3MHA-11 | 2026-09-03 23:25:17 | 48.56899 | 9.74153 | 137° | 133km/h | 12733m | 4.2m/s | -62.8°C | 51.4% | 187.3hPa | 2.8V | 00:00:00 | 00:55:50 | 00:00:00 | |
| DM0DOS-11 | 2026-09-03 23:25:16 | 48.56949 | 9.74085 | 138° | 131km/h | 12723m | 3.6m/s | -62.7°C | 51.8% | 187.7hPa | 2.8V | 08:30:00 | 00:55:48 | 00:00:00 | |
| DK7TD | 2026-09-03 23:25:14 | 48.56974 | 9.74052 | 138° | 130km/h | 12719m | 5.1m/s | -62.7°C | 45.2% | 187.8hPa | 2.7V | 18:12:15 | 00:55:47 | 00:00:00 | |
| DH7VM-15 | 2026-09-03 23:25:13 | 48.56998 | 9.74019 | 137° | 128km/h | 12714m | 4.6m/s | -62.7°C | 41.3% | 188.0hPa | 2.7V | 00:00:00 | 00:00:00 | 00:00:00 | |
| DF7PN | 2026-09-03 23:25:11 | 48.57043 | 9.73947 | 132° | 131km/h | 12705m | 4.6m/s | -62.6°C | 41.6% | 188.3hPa | 2.7V | 00:00:00 | 00:00:00 | 00:00:00 | |
| OE5DRO-10 | 2026-09-03 23:25:08 | 48.57111 | 9.73829 | 131° | 133km/h | 12692m | 4.8m/s | 0°C | 0% | 0hPa | 2.7V | 00:00:00 | 00:00:00 | 00:00:00 | |
| DO3MHA-12 | 2026-09-03 23:25:07 | 48.57134 | 9.73790 | 132° | 135km/h | 12688m | 3.3m/s | -62.4°C | 54.1% | 188.8hPa | 2.7V | 00:00:00 | 00:55:40 | 00:00:00 | |
| DM0DOS-11 | 2026-09-03 23:25:06 | 48.57181 | 9.73713 | 134° | 137km/h | 12679m | 3.4m/s | -62.3°C | 53.1% | 189hPa | 2.7V | 08:30:00 | 00:55:38 | 00:00:00 | |
| DK7TD | 2026-09-03 23:25:03 | 48.57231 | 9.73642 | 138° | 131km/h | 12669m | 4.9m/s | -62.2°C | 45.1% | 189.3hPa | 2.7V | 18:12:15 | 00:55:36 | 00:00:00 | |
| DJ8HS-15 | 2026-09-03 23:25:03 | 48.57230 | 9.73642 | 139° | 131km/h | 12669m | 4.9m/s | -62.2°C | 51.9% | 189.3hPa | 2.8V | 00:00:00 | 00:55:36 | 00:00:00 | |
| DL1ZP-14 | 2026-09-03 23:25:01 | 48.57305 | 9.73544 | 136° | 131km/h | 12654m | 6.1m/s | -62.1°C | 41.0% | 189.8hPa | 2.8V | 00:00:00 | 00:00:00 | 00:00:00 | |
| DO3MHA-12 | 2026-09-03 23:24:57 | 48.57375 | 9.73428 | 130° | 131km/h | 12636m | 6.9m/s | -61.8°C | 49.9% | 190.3hPa | 2.7V | 00:00:00 | 00:55:30 | 00:00:00 | |
| OE3JTB-15 | 2026-09-03 23:24:54 | 48.57438 | 9.73312 | 131° | 128km/h | 12613m | 7.0m/s | -61.6°C | 49.3% | 191.0hPa | 2.7V | 00:00:00 | 00:55:27 | 00:00:00 | |
| DM0DOS-11 | 2026-09-03 23:24:53 | 48.57571 | 9.73094 | 134° | 139km/h | 12577m | 4.8m/s | -61.4°C | 49.8% | 192.2hPa | 2.7V | 08:30:00 | 00:55:21 | 00:00:00 | |
| DK7TD | 2026-09-03 23:24:53 | 48.57459 | 9.73276 | 131° | 126km/h | 12606m | 7.2m/s | -61.6°C | 44.6% | 191.3hPa | 2.8V | 18:12:15 | 00:55:26 | 00:00:00 | |
| DF3TZ-5 | 2026-09-03 23:24:52 | 48.57480 | 9.73240 | 131° | 124km/h | 12599m | 6.5m/s | -61.6°C | 39.4% | 191.5hPa | 2.8V | 00:00:00 | 00:00:00 | 00:00:00 | |
| DB0ND-19 | 2026-09-03 23:24:47 | 48.57621 | 9.73019 | 135° | 135km/h | 12566m | 5.4m/s | -61.3°C | 40.2% | 192.5hPa | 2.8V | 00:00:00 | 00:00:00 | 00:00:00 | |
| DK7TD | 2026-09-03 23:24:42 | 48.57712 | 9.72877 | 132° | 124km/h | 12547m | 4.8m/s | -61.1°C | 45% | 193.1hPa | 2.8V | 18:12:15 | 00:55:15 | 00:00:00 | |
| NBG1-10 | 2026-09-03 23:24:42 | 48.57712 | 9.72877 | 133° | 122km/h | 12548m | 4.7m/s | -61.0°C | 50.8% | 193.0hPa | 2.7V | 00:00:00 | 00:55:15 | 00:00:00 | |
| DF7PN | 2026-09-03 23:24:41 | 48.57753 | 9.72809 | 133° | 115km/h | 12536m | 5.4m/s | -61.0°C | 41.6% | 193.4hPa | 2.8V | 00:00:00 | 00:00:00 | 00:00:00 | |
| DO3MHA-11 | 2026-09-03 23:24:37 | 48.57816 | 9.72709 | 132° | 130km/h | 12521m | 6.4m/s | -60.8°C | 52.7% | 193.8hPa | 2.8V | 00:00:00 | 00:55:10 | 00:00:00 | |
| DM0DOS-11 | 2026-09-03 23:24:36 | 48.57860 | 9.72628 | 127° | 142km/h | 12511m | 5.3m/s | -60.8°C | 51.3% | 194.2hPa | 2.8V | 08:30:00 | 00:55:08 | 00:00:00 | |
| DK7TD | 2026-09-03 23:24:31 | 48.57948 | 9.72468 | 135° | 122km/h | 12479m | 7.1m/s | -60.5°C | 46.4% | 195.2hPa | 2.8V | 18:12:15 | 00:55:04 | 00:00:00 | |
| DL1ZP-14 | 2026-09-03 23:24:30 | 48.57992 | 9.72408 | 139° | 113km/h | 12466m | 6.4m/s | -60.6°C | 41.0% | 195.6hPa | 2.8V | 00:00:00 | 00:00:00 | 00:00:00 | |
| DO3MHA-12 | 2026-09-03 23:24:27 | 48.58032 | 9.72348 | 133° | 119km/h | 12453m | 6.7m/s | -60.4°C | 51.5% | 196.0hPa | 2.7V | 00:00:00 | 00:55:00 | 00:00:00 | |
| DM0DOS-11 | 2026-09-03 23:24:26 | 48.58068 | 9.72280 | 123° | 117km/h | 12439m | 6.8m/s | -60.5°C | 50.7% | 196.4hPa | 2.8V | 08:30:00 | 00:54:58 | 00:00:00 | |
| DK7TD | 2026-09-03 23:24:21 | 48.58137 | 9.72128 | 127° | 120km/h | 12410m | 5.6m/s | -60.3°C | 47.8% | 197.4hPa | 2.7V | 18:12:15 | 00:54:54 | 00:00:00 | |
| OE9MKV-15 | 2026-09-03 23:24:20 | 48.58156 | 9.72092 | 128° | 120km/h | 12405m | 5.4m/s | 0°C | 0% | 0hPa | 2.8V | 00:00:00 | 00:54:53 | 00:00:00 | |
| DO3MHA-12 | 2026-09-03 23:24:17 | 48.58210 | 9.71982 | 126° | 120km/h | 12390m | 4.5m/s | -60.1°C | 53.2% | 198.0hPa | 2.8V | 00:00:00 | 00:54:50 | 00:00:00 | |
| DB0ND-19 | 2026-09-03 23:24:16 | 48.58246 | 9.71908 | 126° | 119km/h | 12381m | 4.4m/s | -60.1°C | 43.5% | 198.3hPa | 2.8V | 00:00:00 | 00:00:00 | 00:00:00 | |
| DB0NH | 2026-09-03 23:24:15 | 48.58246 | 9.71908 | 127° | 119km/h | 12381m | 4.4m/s | -60.0°C | 53.8% | 198.3hPa | 2.8V | 00:00:00 | 00:54:48 | 00:00:00 | |
| DM0DOS-11 | 2026-09-03 23:24:14 | 48.58356 | 9.71690 | 126° | 120km/h | 12357m | 4.2m/s | -59.9°C | 54.9% | 199.1hPa | 2.8V | 08:30:00 | 00:54:42 | 00:00:00 | |
| DK7TD | 2026-09-03 23:24:10 | 48.58338 | 9.71726 | 128° | 120km/h | 12361m | 3.5m/s | -60°C | 49.4% | 199hPa | 2.7V | 18:12:15 | 00:54:43 | 00:00:00 | |
| DK7TD | 2026-09-03 23:24:00 | 48.58513 | 9.71357 | 125° | 120km/h | 12325m | 3.4m/s | -59.7°C | 50.9% | 200.2hPa | 2.8V | 18:12:15 | 00:54:33 | 00:00:00 | |
| DK7TD | 2026-09-03 23:23:49 | 48.58709 | 9.70958 | 128° | 124km/h | 12282m | 4.8m/s | -59.5°C | 52.4% | 201.6hPa | 2.8V | 18:12:15 | 00:54:22 | 00:00:00 | |
| DB0ND-19 | 2026-09-03 23:23:45 | 48.58803 | 9.70776 | 128° | 115km/h | 12261m | 4.3m/s | -59.4°C | 49.4% | 202.2hPa | 2.8V | 00:00:00 | 00:00:00 | 00:00:00 | |
| DK7TD | 2026-09-03 23:23:38 | 48.58917 | 9.70563 | 130° | 124km/h | 12238m | 4.9m/s | -59.4°C | 55.3% | 203hPa | 2.8V | 18:12:15 | 00:54:11 | 00:00:00 | |
| DK7TD | 2026-09-03 23:23:28 | 48.59115 | 9.70208 | 131° | 117km/h | 12188m | 4.4m/s | -59°C | 56.1% | 204.5hPa | 2.7V | 18:12:15 | 00:54:01 | 00:00:00 | |
| DK7TD | 2026-09-03 23:23:18 | 48.59316 | 9.69866 | 134° | 120km/h | 12150m | 5.6m/s | -58.7°C | 56.1% | 205.7hPa | 2.8V | 18:12:15 | 00:53:51 | 00:00:00 | |
| DK7TD | 2026-09-03 23:23:07 | 48.59543 | 9.69499 | 133° | 117km/h | 12097m | 3m/s | -58.1°C | 55.8% | 207.5hPa | 2.7V | 18:12:15 | 00:53:40 | 00:00:00 | |
| DK7TD | 2026-09-03 23:22:57 | 48.59741 | 9.69164 | 134° | 119km/h | 12053m | 4.3m/s | -57.7°C | 55.9% | 208.9hPa | 2.8V | 18:12:15 | 00:53:30 | 00:00:00 | |
| BIOWL1-15 | 2026-09-03 23:22:47 | 48.59985 | 9.68763 | 133° | 117km/h | 12005m | 3.9m/s | 0°C | 0% | 0hPa | 2.8V | 18:12:15 | 00:53:18 | 00:00:00 | |
| DK7TD | 2026-09-03 23:22:46 | 48.59965 | 9.68796 | 132° | 119km/h | 12009m | 4.3m/s | -57.3°C | 56.1% | 210.4hPa | 2.7V | 18:12:15 | 00:53:19 | 00:00:00 | |
| DK7TD | 2026-09-03 23:22:36 | 48.60169 | 9.68473 | 132° | 119km/h | 11967m | 5.5m/s | -56.9°C | 56.3% | 211.8hPa | 2.7V | 18:12:15 | 00:53:09 | 00:00:00 | |
| DO3MHA-11 | 2026-09-03 23:22:36 | 48.60169 | 9.68473 | 133° | 117km/h | 11967m | 5.5m/s | -56.9°C | 61.4% | 211.8hPa | 2.7V | 00:00:00 | 00:53:09 | 00:00:00 | |
| BIOWL9-15 | 2026-09-03 23:22:35 | 48.60189 | 9.68439 | 132° | 117km/h | 11962m | 4.2m/s | -56.9°C | 51.7% | 212.0hPa | 2.7V | 00:00:00 | 00:00:00 | 00:00:00 | |
| DK5PH-5 | 2026-09-03 23:22:34 | 48.60209 | 9.68406 | 133° | 115km/h | 11958m | 4.5m/s | -56.8°C | 62.0% | 212.0hPa | 2.7V | 00:00:00 | 00:53:07 | 00:00:00 | |
| DH7VM-15 | 2026-09-03 23:22:32 | 48.60251 | 9.68340 | 136° | 120km/h | 11949m | 3.2m/s | -56.8°C | 53.2% | 212.4hPa | 2.7V | 00:00:00 | 00:00:00 | 00:00:00 | |
| DN1GJH-1 | 2026-09-03 23:22:31 | 48.60251 | 9.68340 | 136° | 120km/h | 11949m | 3.2m/s | -56.8°C | 53.2% | 212.4hPa | 2.7V | 00:00:00 | 00:00:00 | 00:00:00 | |
| NBG1-10 | 2026-09-03 23:22:30 | 48.60293 | 9.68277 | 135° | 115km/h | 11941m | 4.1m/s | -56.6°C | 64.6% | 212.6hPa | 2.7V | 00:00:00 | 00:53:03 | 00:00:00 | |
| DF1GD-15 | 2026-09-03 23:22:28 | 48.60314 | 9.68246 | 135° | 113km/h | 11937m | 3.4m/s | -56.7°C | 54.6% | 212.8hPa | 2.7V | 00:00:00 | 00:00:00 | 00:00:00 | |
| DO3MHA-12 | 2026-09-03 23:22:27 | 48.60353 | 9.68183 | 134° | 113km/h | 11929m | 4.0m/s | -56.5°C | 65.5% | 213.0hPa | 2.7V | 00:00:00 | 00:53:00 | 08:30:00 | |
| DM0DOS-11 | 2026-09-03 23:22:26 | 48.60393 | 9.68119 | 133° | 113km/h | 11920m | 5.4m/s | -56.5°C | 65.2% | 213.4hPa | 2.8V | 08:30:00 | 00:52:58 | 00:00:00 | |
| DK7TD | 2026-09-03 23:22:25 | 48.60393 | 9.68119 | 133° | 113km/h | 11920m | 5.4m/s | -56.5°C | 57.9% | 213.4hPa | 2.8V | 18:12:15 | 00:52:58 | 00:00:00 | |
| DJ8HS-15 | 2026-09-03 23:22:23 | 48.60432 | 9.68056 | 133° | 115km/h | 11912m | 4.6m/s | -56.4°C | 65.1% | 213.6hPa | 2.7V | 00:00:00 | 00:52:56 | 08:30:00 | |
| AZAK | 2026-09-03 23:22:22 | 48.60471 | 9.67990 | 132° | 115km/h | 11903m | 3.9m/s | -56.3°C | 54.1% | 213.9hPa | 2.8V | 00:00:00 | 00:00:00 | 00:00:00 | |
| OE3JTB-15 | 2026-09-03 23:22:18 | 48.60527 | 9.67892 | 133° | 117km/h | 11888m | 5.5m/s | -56.1°C | 63.7% | 214.4hPa | 2.8V | 00:00:00 | 00:00:00 | 00:00:00 | |
| DO3MHA-12 | 2026-09-03 23:22:17 | 48.60547 | 9.67861 | 135° | 115km/h | 11883m | 5.1m/s | -56.1°C | 63.6% | 214.6hPa | 2.8V | 00:00:00 | 00:52:50 | 00:00:00 | |
| DM0DOS-11 | 2026-09-03 23:22:16 | 48.60589 | 9.67799 | 136° | 117km/h | 11872m | 5.2m/s | -56°C | 63.2% | 215hPa | 2.8V | 08:30:00 | 00:52:48 | 00:00:00 | |
| DK7TD | 2026-09-03 23:22:15 | 48.60589 | 9.67799 | 136° | 117km/h | 11872m | 5.2m/s | -56.1°C | 58.6% | 215hPa | 2.8V | 18:12:15 | 00:52:48 | 00:00:00 | |
| DB0NH | 2026-09-03 23:22:15 | 48.60589 | 9.67799 | 137° | 117km/h | 11872m | 5.2m/s | -56.0°C | 63.2% | 215.0hPa | 2.7V | 00:00:00 | 00:52:48 | 00:00:00 | |
| DB0UT-7 | 2026-09-03 23:22:13 | 48.60630 | 9.67739 | 136° | 117km/h | 11862m | 5.3m/s | -55.9°C | 63.7% | 215.3hPa | 2.7V | 00:00:00 | 00:00:00 | 00:00:00 | |
| DB0ND-19 | 2026-09-03 23:22:12 | 48.60670 | 9.67677 | 132° | 113km/h | 11853m | 4.8m/s | -55.9°C | 54.0% | 215.7hPa | 2.8V | 00:00:00 | 00:00:00 | 00:00:00 | |
| DN1GJH-1 | 2026-09-03 23:22:10 | 48.60670 | 9.67677 | 134° | 113km/h | 11853m | 4.8m/s | -55.9°C | 54.1% | 215.7hPa | 2.8V | 00:00:00 | 00:00:00 | 00:00:00 | |
| DF1GD-15 | 2026-09-03 23:22:08 | 48.60730 | 9.67580 | 134° | 117km/h | 11840m | 5.4m/s | -55.8°C | 54.8% | 216.1hPa | 2.8V | 00:00:00 | 00:00:00 | 00:00:00 | |
| DO3MHA-12 | 2026-09-03 23:22:07 | 48.60751 | 9.67547 | 135° | 115km/h | 11835m | 4.2m/s | -55.7°C | 65.9% | 216.2hPa | 2.8V | 00:00:00 | 00:52:40 | 00:00:00 | |
| DM0DOS-11 | 2026-09-03 23:22:06 | 48.60792 | 9.67483 | 134° | 119km/h | 11827m | 4.1m/s | -55.7°C | 66.3% | 216.6hPa | 2.8V | 08:30:00 | 00:52:38 | 00:00:00 | |
| DK7TD | 2026-09-03 23:22:04 | 48.60813 | 9.67451 | 134° | 120km/h | 11823m | 4.1m/s | -55.7°C | 59.4% | 216.6hPa | 2.8V | 18:12:15 | 00:52:37 | 00:00:00 | |
| DK5PH-5 | 2026-09-03 23:22:04 | 48.60813 | 9.67451 | 134° | 115km/h | 11823m | 4.1m/s | -55.6°C | 66.6% | 216.6hPa | 2.7V | 00:00:00 | 00:52:37 | 00:00:00 | |
| DJ8HS-15 | 2026-09-03 23:22:03 | 48.60834 | 9.67418 | 133° | 117km/h | 11820m | 2.6m/s | -55.6°C | 66.7% | 216.7hPa | 2.8V | 00:00:00 | 00:52:36 | 00:00:00 | |
| AZAK | 2026-09-03 23:21:59 | 48.60892 | 9.67322 | 135° | 110km/h | 11808m | 4.1m/s | -55.5°C | 55.6% | 217.2hPa | 2.8V | 00:00:00 | 00:00:00 | 00:00:00 | |
| NBG1-10 | 2026-09-03 23:21:57 | 48.60951 | 9.67232 | 135° | 119km/h | 11795m | 5.3m/s | -55.4°C | 65.5% | 217.6hPa | 2.8V | 00:00:00 | 00:52:30 | 00:00:00 | |
| DM0DOS-11 | 2026-09-03 23:21:56 | 48.60991 | 9.67169 | 134° | 119km/h | 11785m | 5.9m/s | -55.4°C | 65.3% | 217.9hPa | 2.8V | 08:30:00 | 00:52:28 | 00:00:00 | |
| DK7TD | 2026-09-03 23:21:54 | 48.61013 | 9.67136 | 135° | 124km/h | 11780m | 3.9m/s | -55.3°C | 59.6% | 218.1hPa | 2.8V | 18:12:15 | 00:52:27 | 00:00:00 | |
| OE5DXL-15 | 2026-09-03 23:21:50 | 48.61103 | 9.67005 | 137° | 119km/h | 11760m | 6.5m/s | 0°C | 0% | 0hPa | 2.8V | 00:00:00 | 00:00:00 | 00:00:00 | |
| DN1GJH-1 | 2026-09-03 23:21:49 | 48.61103 | 9.67006 | 137° | 120km/h | 11760m | 6.6m/s | -55.2°C | 54.6% | 218.8hPa | 2.8V | 00:00:00 | 00:00:00 | 00:00:00 | |
| DO3MHA-12 | 2026-09-03 23:21:47 | 48.61167 | 9.66911 | 137° | 115km/h | 11744m | 5.4m/s | -55.0°C | 64.7% | 219.2hPa | 2.8V | 00:00:00 | 00:52:20 | 00:00:00 | |
| DM0DOS-11 | 2026-09-03 23:21:46 | 48.61210 | 9.66851 | 137° | 117km/h | 11734m | 4.8m/s | -55°C | 64.9% | 219.7hPa | 2.8V | 08:30:00 | 00:52:18 | 00:00:00 | |
| DF3TZ-5 | 2026-09-03 23:21:46 | 48.61188 | 9.66881 | 137° | 115km/h | 11739m | 5.4m/s | -55.0°C | 55.0% | 219.5hPa | 2.7V | 00:00:00 | 00:00:00 | 00:00:00 | |
| DK7TD | 2026-09-03 23:21:43 | 48.61253 | 9.66790 | 137° | 117km/h | 11724m | 4.6m/s | -54.9°C | 59.6% | 220hPa | 2.7V | 18:12:15 | 00:52:16 | 00:00:00 | |
| DB0UT-7 | 2026-09-03 23:21:43 | 48.61253 | 9.66790 | 138° | 119km/h | 11724m | 4.5m/s | -54.8°C | 65.0% | 219.9hPa | 2.8V | 00:00:00 | 00:52:16 | 00:00:00 | |
| DB0ND-19 | 2026-09-03 23:21:41 | 48.61319 | 9.66704 | 139° | 111km/h | 11712m | 3.8m/s | -54.8°C | 54.8% | 220.4hPa | 2.8V | 00:00:00 | 00:00:00 | 00:00:00 | |
| AZAK | 2026-09-03 23:21:39 | 48.61340 | 9.66676 | 140° | 111km/h | 11707m | 4.9m/s | -54.7°C | 54.7% | 220.6hPa | 2.8V | 00:00:00 | 00:00:00 | 00:00:00 | |
| DO3MHA-12 | 2026-09-03 23:21:37 | 48.61381 | 9.66619 | 137° | 120km/h | 11699m | 4.6m/s | -54.6°C | 64.8% | 220.8hPa | 2.8V | 00:00:00 | 00:52:10 | 00:00:00 | |
| DM0DOS-11 | 2026-09-03 23:21:36 | 48.61423 | 9.66560 | 137° | 115km/h | 11691m | 4.1m/s | -54.6°C | 65.1% | 221.2hPa | 2.8V | 08:30:00 | 00:52:08 | 00:00:00 | |
| DK7TD | 2026-09-03 23:21:32 | 48.61489 | 9.66468 | 137° | 122km/h | 11678m | 4.2m/s | -54.5°C | 59.2% | 221.6hPa | 2.7V | 18:12:15 | 00:52:05 | 00:00:00 | |
| DM0DOS-11 | 2026-09-03 23:21:31 | 48.61649 | 9.66243 | 139° | 117km/h | 11650m | 4m/s | -54.3°C | 66% | 222.6hPa | 2.8V | 08:30:00 | 00:51:58 | 00:00:00 | |
| DK7TD | 2026-09-03 23:21:21 | 48.61735 | 9.66133 | 140° | 111km/h | 11632m | 4.4m/s | -54.2°C | 59.9% | 223.2hPa | 2.8V | 18:12:15 | 00:51:54 | 00:00:00 | |
| DM0DOS-11 | 2026-09-03 23:21:20 | 48.61875 | 9.65960 | 137° | 128km/h | 11603m | 3.2m/s | -53.9°C | 66% | 224.1hPa | 2.7V | 08:30:00 | 00:51:48 | 00:00:00 | |
| DK7TD | 2026-09-03 23:21:11 | 48.61966 | 9.65831 | 138° | 119km/h | 11585m | 6.3m/s | -53.7°C | 60.9% | 224.8hPa | 2.8V | 18:12:15 | 00:51:44 | 00:00:00 | |
| DK7TD | 2026-09-03 23:21:00 | 48.62217 | 9.65551 | 143° | 110km/h | 11519m | 6m/s | -53.2°C | 61.7% | 227.2hPa | 2.8V | 18:12:15 | 00:51:33 | 00:00:00 | |
| BIOWL1-15 | 2026-09-03 23:20:53 | 48.62371 | 9.65351 | 136° | 119km/h | 11482m | 4.1m/s | -52.8°C | 63.5% | 228.5hPa | 2.8V | 18:12:15 | 00:51:26 | 00:00:00 | |
| DK7TD | 2026-09-03 23:20:49 | 48.62466 | 9.65230 | 144° | 122km/h | 11457m | 5.8m/s | -52.6°C | 63.3% | 229.3hPa | 2.8V | 18:12:15 | 00:51:22 | 00:00:00 | |
| BIOWL1-15 | 2026-09-03 23:20:45 | 48.62604 | 9.65070 | 144° | 115km/h | 11418m | 5.5m/s | -52.3°C | 63.9% | 230.7hPa | 2.8V | 18:12:15 | 00:51:16 | 00:00:00 | |
| DB0NH | 2026-09-03 23:20:45 | 48.62558 | 9.65122 | 142° | 110km/h | 11429m | 5.0m/s | -52.3°C | 71.8% | 230.3hPa | 2.7V | 00:00:00 | 00:51:18 | 00:00:00 | |
| DF3TZ-5 | 2026-09-03 23:20:44 | 48.62604 | 9.65070 | 144° | 115km/h | 11418m | 5.5m/s | -52.3°C | 62.5% | 230.7hPa | 2.8V | 00:00:00 | 00:00:00 | 00:00:00 | |
| DJ8HS-15 | 2026-09-03 23:20:43 | 48.62604 | 9.65070 | 145° | 111km/h | 11418m | 5.4m/s | -52.2°C | 72.4% | 230.6hPa | 2.8V | 00:00:00 | 00:51:16 | 00:00:00 | |
| DM0DOS-11 | 2026-09-03 23:20:40 | 48.62785 | 9.64847 | 141° | 115km/h | 11374m | 6.8m/s | -51.9°C | 70.9% | 232.2hPa | 2.8V | 08:30:00 | 00:51:08 | 00:00:00 | |
| DK7TD | 2026-09-03 23:20:39 | 48.62699 | 9.64962 | 139° | 113km/h | 11397m | 4.8m/s | -52.2°C | 64.6% | 231.5hPa | 2.7V | 18:12:15 | 00:51:12 | 00:00:00 | |
| BIOWL1-15 | 2026-09-03 23:20:34 | 48.62852 | 9.64771 | 144° | 106km/h | 11353m | 8.2m/s | -51.8°C | 64.5% | 232.9hPa | 2.7V | 18:12:15 | 00:51:05 | 00:00:00 | |
| DK7TD | 2026-09-03 23:20:29 | 48.62916 | 9.64697 | 141° | 108km/h | 11332m | 4.9m/s | -51.6°C | 64.3% | 233.8hPa | 2.8V | 18:12:15 | 00:51:02 | 00:00:00 | |
| BIOWL1-15 | 2026-09-03 23:20:21 | 48.63086 | 9.64503 | 145° | 102km/h | 11291m | 4.2m/s | -51.2°C | 64% | 235.2hPa | 2.8V | 18:12:15 | 00:50:54 | 00:00:00 | |
| DL1ZP-14 | 2026-09-03 23:20:21 | 48.63107 | 9.64480 | 144° | 102km/h | 11286m | 4.8m/s | -51.2°C | 60.5% | 235.4hPa | 2.8V | 00:00:00 | 00:00:00 | 00:00:00 | |
| DM0DOS-11 | 2026-09-03 23:20:19 | 48.63213 | 9.64362 | 142° | 106km/h | 11264m | 4.3m/s | -51°C | 69.7% | 236.3hPa | 2.8V | 08:30:00 | 00:50:48 | 00:00:00 | |
| DK7TD | 2026-09-03 23:20:18 | 48.63149 | 9.64433 | 144° | 102km/h | 11278m | 5.1m/s | -51.1°C | 63.8% | 235.7hPa | 2.7V | 18:12:15 | 00:50:51 | 00:00:00 | |
| BIOWL1-15 | 2026-09-03 23:20:09 | 48.63341 | 9.64219 | 144° | 106km/h | 11239m | 3.8m/s | -50.8°C | 63.8% | 237.1hPa | 2.8V | 18:12:15 | 00:50:42 | 00:00:00 | |
| DK7TD | 2026-09-03 23:20:07 | 48.63384 | 9.64172 | 144° | 102km/h | 11231m | 4.3m/s | -50.7°C | 63.8% | 237.4hPa | 2.7V | 18:12:15 | 00:50:40 | 00:00:00 | |
| DM0DOS-11 | 2026-09-03 23:20:07 | 48.63425 | 9.64128 | 145° | 102km/h | 11222m | 5.1m/s | -50.6°C | 69.7% | 237.7hPa | 2.8V | 08:30:00 | 00:50:38 | 00:00:00 | |
| BIOWL1-15 | 2026-09-03 23:19:58 | 48.63598 | 9.63942 | 145° | 104km/h | 11189m | 4.5m/s | -50.3°C | 63.8% | 239hPa | 2.8V | 18:12:15 | 00:50:30 | 00:00:00 | |
| DK7TD | 2026-09-03 23:19:56 | 48.63620 | 9.63919 | 143° | 102km/h | 11184m | 5.3m/s | -50.3°C | 63.6% | 239.2hPa | 2.7V | 18:12:15 | 00:50:29 | 00:00:00 | |
| DL1ZP-14 | 2026-09-03 23:19:50 | 48.63765 | 9.63753 | 144° | 104km/h | 11151m | 4.3m/s | -50.0°C | 60.1% | 240.4hPa | 2.8V | 00:00:00 | 00:00:00 | 00:00:00 | |
| BIOWL1-15 | 2026-09-03 23:19:46 | 48.63893 | 9.63617 | 144° | 100km/h | 11125m | 5m/s | -49.7°C | 63.2% | 241.3hPa | 2.8V | 18:12:15 | 00:50:16 | 00:00:00 | |
| DK7TD | 2026-09-03 23:19:46 | 48.63830 | 9.63684 | 144° | 104km/h | 11139m | 3.3m/s | -49.9°C | 63.2% | 240.8hPa | 2.8V | 18:12:15 | 00:50:19 | 00:00:00 | |
| DK7TD | 2026-09-03 23:19:35 | 48.64054 | 9.63436 | 143° | 102km/h | 11090m | 3.7m/s | -49.4°C | 63.2% | 242.7hPa | 2.8V | 18:12:15 | 00:50:08 | 00:00:00 | |
| BIOWL1-15 | 2026-09-03 23:19:34 | 48.64095 | 9.63389 | 142° | 102km/h | 11081m | 4.2m/s | -49.3°C | 63.2% | 243hPa | 2.7V | 18:12:15 | 00:50:06 | 00:00:00 | |
| DK7TD | 2026-09-03 23:19:24 | 48.64279 | 9.63190 | 143° | 99km/h | 11040m | 4.3m/s | -49°C | 63.9% | 244.4hPa | 2.8V | 18:12:15 | 00:49:57 | 00:00:00 | |
| BIOWL1-15 | 2026-09-03 23:19:22 | 48.64320 | 9.63144 | 143° | 104km/h | 11031m | 5.5m/s | -48.9°C | 63.8% | 244.8hPa | 2.7V | 18:12:15 | 00:49:55 | 00:00:00 | |
| DL1ZP-14 | 2026-09-03 23:19:19 | 48.64404 | 9.63045 | 141° | 102km/h | 11014m | 4.3m/s | -48.7°C | 61.0% | 245.4hPa | 2.8V | 00:00:00 | 00:00:00 | 00:00:00 | |
| DM0DOS-11 | 2026-09-03 23:19:18 | 48.64467 | 9.62975 | 144° | 102km/h | 11000m | 4.4m/s | -48.6°C | 69.5% | 245.9hPa | 2.8V | 08:30:00 | 00:49:48 | 00:00:00 | |
| DK7TD | 2026-09-03 23:19:13 | 48.64508 | 9.62932 | 146° | 97km/h | 10992m | 3.7m/s | -48.5°C | 63.5% | 246.2hPa | 2.8V | 18:12:15 | 00:49:46 | 00:00:00 | |
| BIOWL1-15 | 2026-09-03 23:19:11 | 48.64587 | 9.62849 | 142° | 95km/h | 10975m | 3.8m/s | -48.4°C | 63.7% | 246.9hPa | 2.8V | 18:12:15 | 00:49:42 | 00:00:00 | |
| DF3TZ-5 | 2026-09-03 23:19:11 | 48.64568 | 9.62870 | 143° | 93km/h | 10979m | 4.9m/s | -48.4°C | 61.2% | 246.7hPa | 2.7V | 00:00:00 | 00:00:00 | 00:00:00 | |
| DM0DOS-11 | 2026-09-03 23:19:07 | 48.64663 | 9.62756 | 141° | 100km/h | 10957m | 4m/s | -48.2°C | 68.9% | 247.6hPa | 2.7V | 08:30:00 | 00:49:38 | 00:00:00 | |
| DK7TD | 2026-09-03 23:19:02 | 48.64724 | 9.62684 | 144° | 102km/h | 10942m | 4.2m/s | -48.1°C | 64% | 248.1hPa | 2.8V | 18:12:15 | 00:49:35 | 00:00:00 | |
| DM0DOS-11 | 2026-09-03 23:19:00 | 48.64863 | 9.62531 | 141° | 93km/h | 10911m | 5m/s | -47.8°C | 68.8% | 249.3hPa | 2.8V | 08:30:00 | 00:49:28 | 00:00:00 | |
| BIOWL1-15 | 2026-09-03 23:18:58 | 48.64917 | 9.62462 | 140° | 95km/h | 10897m | 4.2m/s | -47.7°C | 63.6% | 249.8hPa | 2.8V | 18:12:15 | 00:49:25 | 00:00:00 | |
| DK7TD | 2026-09-03 23:18:51 | 48.64936 | 9.62438 | 140° | 95km/h | 10893m | 4.2m/s | -47.7°C | 63.6% | 249.9hPa | 2.8V | 18:12:15 | 00:49:24 | 00:00:00 | |
| DM0DOS-11 | 2026-09-03 23:18:48 | 48.65050 | 9.62298 | 142° | 99km/h | 10866m | 4.1m/s | -47.4°C | 69.1% | 251hPa | 2.8V | 08:30:00 | 00:49:18 | 00:00:00 | |
| BIOWL1-15 | 2026-09-03 23:18:43 | 48.65090 | 9.62252 | 142° | 99km/h | 10857m | 3.9m/s | -47.3°C | 63.5% | 251.3hPa | 2.7V | 18:12:15 | 00:49:16 | 00:00:00 | |
| DK7TD | 2026-09-03 23:18:41 | 48.65129 | 9.62206 | 143° | 97km/h | 10848m | 4m/s | -47.3°C | 63.2% | 251.6hPa | 2.9V | 18:12:15 | 00:49:14 | 00:00:00 | |
| BIOWL1-15 | 2026-09-03 23:18:34 | 48.65298 | 9.61997 | 140° | 97km/h | 10808m | 4.2m/s | -46.9°C | 62.5% | 253.2hPa | 2.8V | 18:12:15 | 00:49:05 | 00:00:00 | |
| DK7TD | 2026-09-03 23:18:30 | 48.65336 | 9.61949 | 140° | 99km/h | 10798m | 4.1m/s | -46.8°C | 62.5% | 253.5hPa | 2.7V | 18:12:15 | 00:49:03 | 00:00:00 | |
| DF7PN | 2026-09-03 23:18:28 | 48.65393 | 9.61878 | 140° | 97km/h | 10786m | 5.1m/s | -46.7°C | 59.9% | 254.0hPa | 2.9V | 00:00:00 | 00:00:00 | 00:00:00 | |
| BIOWL9-15 | 2026-09-03 23:18:27 | 48.65412 | 9.61855 | 140° | 97km/h | 10781m | 4.0m/s | -46.6°C | 60.1% | 254.3hPa | 2.9V | 00:00:00 | 00:00:00 | 00:00:00 | |
| DN1GJH-1 | 2026-09-03 23:18:24 | 48.65432 | 9.61831 | 143° | 97km/h | 10777m | 4.7m/s | -46.6°C | 60.2% | 254.3hPa | 2.9V | 00:00:00 | 00:00:00 | 00:00:00 | |
| DJ8HS-15 | 2026-09-03 23:18:23 | 48.65470 | 9.61786 | 142° | 95km/h | 10768m | 4.9m/s | -46.5°C | 68.1% | 254.6hPa | 2.9V | 00:00:00 | 00:48:56 | 00:00:00 | |
| DM0DOS-11 | 2026-09-03 23:18:22 | 48.65580 | 9.61649 | 138° | 93km/h | 10742m | 3.5m/s | -46.3°C | 67% | 255.7hPa | 2.8V | 08:30:00 | 00:48:50 | 00:00:00 | |
| BIOWL1-15 | 2026-09-03 23:18:22 | 48.65489 | 9.61763 | 141° | 97km/h | 10764m | 3.8m/s | -46.5°C | 62.2% | 254.9hPa | 2.9V | 18:12:15 | 00:48:55 | 00:00:00 | |
| DK7TD | 2026-09-03 23:18:19 | 48.65544 | 9.61696 | 141° | 91km/h | 10751m | 4.2m/s | -46.4°C | 61.7% | 255.4hPa | 2.7V | 18:12:15 | 00:48:52 | 00:00:00 | |
| BIOWL1-15 | 2026-09-03 23:18:12 | 48.65731 | 9.61461 | 143° | 97km/h | 10706m | 3.7m/s | -46°C | 59.7% | 257.1hPa | 2.9V | 18:12:15 | 00:48:42 | 00:00:00 | |
| DK7TD | 2026-09-03 23:18:08 | 48.65750 | 9.61439 | 144° | 97km/h | 10702m | 4.9m/s | -45.9°C | 59.2% | 257.2hPa | 2.8V | 18:12:15 | 00:48:41 | 00:00:00 | |
| BIOWL1-15 | 2026-09-03 23:18:00 | 48.65902 | 9.61254 | 139° | 97km/h | 10667m | 4.8m/s | -45.6°C | 57.1% | 258.6hPa | 2.7V | 18:12:15 | 00:48:33 | 00:00:00 | |
| DK7TD | 2026-09-03 23:17:57 | 48.65957 | 9.61183 | 140° | 97km/h | 10652m | 4.1m/s | -45.5°C | 56.1% | 259.2hPa | 2.9V | 18:12:15 | 00:48:30 | 00:00:00 | |
| BIOWL1-15 | 2026-09-03 23:17:51 | 48.66115 | 9.60983 | 140° | 100km/h | 10620m | 3.6m/s | -45.1°C | 55.6% | 260.4hPa | 2.8V | 18:12:15 | 00:48:22 | 00:00:00 | |
| DK7TD | 2026-09-03 23:17:46 | 48.66171 | 9.60914 | 141° | 91km/h | 10607m | 4.3m/s | -45°C | 55.6% | 260.9hPa | 2.9V | 18:12:15 | 00:48:19 | 00:00:00 | |
| DL1ZP-14 | 2026-09-03 23:17:46 | 48.66188 | 9.60892 | 139° | 91km/h | 10602m | 5.8m/s | -44.9°C | 52.5% | 261.1hPa | 2.9V | 00:00:00 | 00:00:00 | 00:00:00 | |
| DK7TD | 2026-09-03 23:17:36 | 48.66360 | 9.60687 | 137° | 97km/h | 10559m | 4.6m/s | -44.5°C | 52.4% | 262.8hPa | 2.7V | 18:12:15 | 00:48:09 | 00:00:00 | |
| BIOWL1-15 | 2026-09-03 23:17:27 | 48.66529 | 9.60481 | 143° | 89km/h | 10519m | 4.7m/s | -44.1°C | 47.9% | 264.4hPa | 2.9V | 18:12:15 | 00:48:00 | 00:00:00 | |
| DK7TD | 2026-09-03 23:17:26 | 48.66547 | 9.60460 | 141° | 88km/h | 10514m | 5.1m/s | -44.1°C | 47.7% | 264.6hPa | 2.9V | 18:12:15 | 00:47:59 | 00:00:00 | |
| BIOWL1-15 | 2026-09-03 23:17:17 | 48.66807 | 9.60090 | 143° | 86km/h | 10430m | 6.3m/s | -43.3°C | 43.6% | 267.9hPa | 2.7V | 18:12:15 | 00:47:44 | 00:00:00 | |
| DK7TD | 2026-09-03 23:17:16 | 48.66720 | 9.60198 | 135° | 95km/h | 10467m | 7.6m/s | -43.6°C | 43.9% | 266.4hPa | 2.7V | 18:12:15 | 00:47:49 | 00:00:00 | |
| DB0NH | 2026-09-03 23:17:15 | 48.66737 | 9.60173 | 138° | 93km/h | 10459m | 8.0m/s | -43.5°C | 46.1% | 266.7hPa | 2.9V | 00:00:00 | 00:47:48 | 00:00:00 | |
| DL1ZP-14 | 2026-09-03 23:17:14 | 48.66755 | 9.60150 | 140° | 91km/h | 10451m | 8.0m/s | -43.5°C | 40.2% | 267.1hPa | 2.9V | 00:00:00 | 00:00:00 | 00:00:00 | |
| DB0UT-7 | 2026-09-03 23:17:13 | 48.66772 | 9.60128 | 144° | 91km/h | 10443m | 7.3m/s | -43.4°C | 46.0% | 267.3hPa | 2.9V | 00:00:00 | 00:00:00 | 00:00:00 | |
| DM0DOS-11 | 2026-09-03 23:17:11 | 48.66882 | 9.59990 | 138° | 110km/h | 10408m | 6.3m/s | -43.1°C | 46.5% | 268.8hPa | 2.9V | 08:30:00 | 00:47:40 | 00:00:00 | |
| DK7TD | 2026-09-03 23:17:05 | 48.66922 | 9.59935 | 136° | 102km/h | 10396m | 5.9m/s | -43°C | 45.2% | 269.3hPa | 2.8V | 18:12:15 | 00:47:38 | 00:00:00 | |
| BIOWL1-15 | 2026-09-03 23:17:03 | 48.66955 | 9.59883 | 131° | 86km/h | 10385m | 6m/s | -42.9°C | 45.7% | 269.6hPa | 2.7V | 18:12:15 | 00:47:36 | 00:00:00 | |
| DK7TD | 2026-09-03 23:16:54 | 48.67085 | 9.59658 | 135° | 84km/h | 10326m | 6.5m/s | -42.4°C | 45.7% | 272hPa | 2.9V | 18:12:15 | 00:47:27 | 00:00:00 | |
| BIOWL1-15 | 2026-09-03 23:16:52 | 48.67170 | 9.59536 | 136° | 97km/h | 10295m | 6.5m/s | -42.2°C | 43.4% | 273.3hPa | 2.9V | 18:12:15 | 00:47:22 | 00:00:00 | |
| DM0DOS-11 | 2026-09-03 23:16:50 | 48.67205 | 9.59486 | 136° | 93km/h | 10283m | 5.1m/s | -42.1°C | 43.2% | 273.8hPa | 2.9V | 08:30:00 | 00:47:20 | 00:00:00 | |
| DK7TD | 2026-09-03 23:16:43 | 48.67268 | 9.59389 | 135° | 84km/h | 10262m | 5.2m/s | -41.9°C | 39.7% | 274.6hPa | 2.9V | 18:12:15 | 00:47:16 | 00:00:00 | |
| BIOWL1-15 | 2026-09-03 23:16:41 | 48.67299 | 9.59344 | 136° | 88km/h | 10251m | 3.6m/s | -41.8°C | 38.3% | 275.1hPa | 2.9V | 18:12:15 | 00:47:14 | 00:00:00 | |
| DM0DOS-11 | 2026-09-03 23:16:38 | 48.67361 | 9.59247 | 133° | 88km/h | 10234m | 4.4m/s | -41.7°C | 38.4% | 275.7hPa | 2.8V | 08:30:00 | 00:47:10 | 00:00:00 | |
| DK7TD | 2026-09-03 23:16:33 | 48.67423 | 9.59152 | 134° | 86km/h | 10218m | 5.2m/s | -41.5°C | 37.1% | 276.4hPa | 2.9V | 18:12:15 | 00:47:06 | 00:00:00 | |
| BIOWL1-15 | 2026-09-03 23:16:30 | 48.67499 | 9.59029 | 133° | 88km/h | 10197m | 3.9m/s | -41.4°C | 37.8% | 277.2hPa | 2.9V | 18:12:15 | 00:47:01 | 00:00:00 | |
| DM0DOS-11 | 2026-09-03 23:16:30 | 48.67514 | 9.59004 | 132° | 88km/h | 10193m | 4.3m/s | -41.4°C | 38.7% | 277.4hPa | 2.9V | 08:30:00 | 00:47:00 | 00:00:00 | |
| DK7TD | 2026-09-03 23:16:22 | 48.67591 | 9.58882 | 134° | 88km/h | 10172m | 3.6m/s | -41.2°C | 37.4% | 278.3hPa | 2.9V | 18:12:15 | 00:46:55 | 00:00:00 | |
| BIOWL1-15 | 2026-09-03 23:16:18 | 48.67683 | 9.58740 | 134° | 84km/h | 10146m | 3.7m/s | -41°C | 36.5% | 279.4hPa | 2.9V | 18:12:15 | 00:46:49 | 00:00:00 | |
| DK7TD | 2026-09-03 23:16:12 | 48.67740 | 9.58649 | 134° | 82km/h | 10129m | 4.5m/s | -40.8°C | 36% | 280hPa | 2.7V | 18:12:15 | 00:46:45 | 00:00:00 | |
| DM0DOS-11 | 2026-09-03 23:16:10 | 48.67814 | 9.58535 | 134° | 82km/h | 10110m | 4m/s | -40.6°C | 36.7% | 280.8hPa | 2.9V | 08:30:00 | 00:46:40 | 00:00:00 | |
| DK7TD | 2026-09-03 23:16:01 | 48.67903 | 9.58392 | 133° | 84km/h | 10085m | 3.4m/s | -40.4°C | 36% | 281.9hPa | 2.9V | 18:12:15 | 00:46:34 | 00:00:00 | |
| DB0ND-19 | 2026-09-03 23:15:59 | 48.67932 | 9.58346 | 134° | 82km/h | 10077m | 3.8m/s | -40.3°C | 33.3% | 282.2hPa | 2.8V | 00:00:00 | 00:00:00 | 00:00:00 | |
| DM0DOS-11 | 2026-09-03 23:15:58 | 48.67962 | 9.58302 | 135° | 80km/h | 10068m | 4.4m/s | -40.3°C | 39.2% | 282.5hPa | 2.8V | 08:30:00 | 00:46:30 | 00:00:00 | |
| DM7RM-13 | 2026-09-03 23:15:57 | 48.67962 | 9.58302 | 137° | 80km/h | 10068m | 4.4m/s | -40.3°C | 34.5% | 282.5hPa | 2.9V | 00:00:00 | 00:00:00 | 00:00:00 | |
| DF1GD-15 | 2026-09-03 23:15:56 | 48.67962 | 9.58302 | 137° | 80km/h | 10068m | 4.4m/s | -40.3°C | 34.5% | 282.5hPa | 2.9V | 00:00:00 | 00:00:00 | 00:00:00 | |
| NBG1-10 | 2026-09-03 23:15:54 | 48.68006 | 9.58237 | 136° | 82km/h | 10056m | 3.9m/s | -40.2°C | 39.3% | 283.0hPa | 2.9V | 00:00:00 | 00:46:27 | 00:00:00 | |
| DO3MHA-12 | 2026-09-03 23:15:53 | 48.68021 | 9.58213 | 134° | 82km/h | 10053m | 3.5m/s | -40.2°C | 39.5% | 283.1hPa | 2.9V | 00:00:00 | 00:46:26 | 00:00:00 | |
| DM0DOS-11 | 2026-09-03 23:15:50 | 48.68106 | 9.58067 | 133° | 80km/h | 10029m | 4.3m/s | -40°C | 41.1% | 284.1hPa | 2.9V | 08:30:00 | 00:46:20 | 00:00:00 | |
| DK7TD | 2026-09-03 23:15:50 | 48.68065 | 9.58138 | 130° | 84km/h | 10041m | 3.5m/s | -40.1°C | 38.8% | 283.7hPa | 2.8V | 18:12:15 | 00:46:23 | 00:00:00 | |
| DK7TD | 2026-09-03 23:15:40 | 48.68206 | 9.57921 | 137° | 80km/h | 9999m | 4.3m/s | -39.8°C | 40.9% | 285.4hPa | 2.9V | 18:12:15 | 00:46:13 | 00:00:00 | |
| DM0DOS-11 | 2026-09-03 23:15:38 | 48.68252 | 9.57856 | 135° | 82km/h | 9987m | 4.4m/s | -39.7°C | 42.6% | 285.9hPa | 2.7V | 08:30:00 | 00:46:10 | 00:00:00 | |
| DK7TD | 2026-09-03 23:15:29 | 48.68359 | 9.57675 | 133° | 80km/h | 9954m | 4.3m/s | -39.4°C | 41.7% | 287.3hPa | 2.8V | 18:12:15 | 00:46:02 | 00:00:00 | |
| BIOWL1-15 | 2026-09-03 23:15:22 | 48.68591 | 9.57328 | 133° | 80km/h | 9890m | 4.8m/s | -38.8°C | 41.1% | 289.9hPa | 2.9V | 18:12:15 | 00:45:46 | 00:00:00 | |
| DK7TD | 2026-09-03 23:15:18 | 48.68523 | 9.57438 | 135° | 80km/h | 9911m | 4.5m/s | -39°C | 41.4% | 289.1hPa | 2.9V | 18:12:15 | 00:45:51 | 00:00:00 | |
| BIOWL1-15 | 2026-09-03 23:15:13 | 48.68619 | 9.57284 | 134° | 80km/h | 9882m | 4.6m/s | -38.7°C | 41.1% | 290.3hPa | 2.9V | 18:12:15 | 00:45:44 | 00:00:00 | |
| DB0UT-7 | 2026-09-03 23:15:13 | 48.68591 | 9.57328 | 134° | 78km/h | 9890m | 4.7m/s | -38.8°C | 42.9% | 289.9hPa | 2.8V | 00:00:00 | 00:00:00 | 00:00:00 | |
| DM0DOS-11 | 2026-09-03 23:15:10 | 48.68677 | 9.57195 | 134° | 82km/h | 9865m | 4.3m/s | -38.6°C | 43.5% | 291hPa | 2.8V | 08:30:00 | 00:45:40 | 00:00:00 | |
| DK7TD | 2026-09-03 23:15:08 | 48.68662 | 9.57217 | 135° | 82km/h | 9869m | 3.5m/s | -38.6°C | 41.6% | 290.9hPa | 2.7V | 18:12:15 | 00:45:41 | 00:00:00 | |
| BIOWL1-15 | 2026-09-03 23:15:01 | 48.68758 | 9.57062 | 134° | 78km/h | 9840m | 4.1m/s | -38.4°C | 43% | 292.1hPa | 2.8V | 18:12:15 | 00:45:34 | 00:00:00 | |
| DN1GJH-1 | 2026-09-03 23:15:00 | 48.68758 | 9.57062 | 135° | 78km/h | 9840m | 4.1m/s | -38.4°C | 39.8% | 292.1hPa | 2.9V | 00:00:00 | 00:00:00 | 00:00:00 | |
| DM0DOS-11 | 2026-09-03 23:14:58 | 48.68814 | 9.56974 | 135° | 78km/h | 9822m | 3.9m/s | -38.2°C | 46.8% | 292.8hPa | 2.9V | 08:30:00 | 00:45:30 | 00:00:00 | |
| DK7TD | 2026-09-03 23:14:57 | 48.68814 | 9.56974 | 135° | 78km/h | 9822m | 3.9m/s | -38.2°C | 44.8% | 292.8hPa | 2.9V | 18:12:15 | 00:45:30 | 00:00:00 | |
| BIOWL1-15 | 2026-09-03 23:14:52 | 48.68911 | 9.56823 | 133° | 82km/h | 9791m | 5.2m/s | -38°C | 45.7% | 294.1hPa | 2.9V | 18:12:15 | 00:45:23 | 00:00:00 | |
| DM0DOS-11 | 2026-09-03 23:14:50 | 48.68980 | 9.56713 | 133° | 73km/h | 9770m | 4.4m/s | -37.8°C | 48.6% | 295.1hPa | 2.8V | 08:30:00 | 00:45:18 | 00:00:00 | |
| DK7TD | 2026-09-03 23:14:46 | 48.68967 | 9.56733 | 135° | 77km/h | 9774m | 3.8m/s | -37.8°C | 46.8% | 294.9hPa | 2.8V | 18:12:15 | 00:45:19 | 00:00:00 | |
| BIOWL1-15 | 2026-09-03 23:14:40 | 48.69043 | 9.56606 | 132° | 80km/h | 9751m | 3.8m/s | -37.6°C | 47.6% | 295.9hPa | 2.9V | 18:12:15 | 00:45:13 | 00:00:00 | |
| DL1ZP-14 | 2026-09-03 23:14:39 | 48.69056 | 9.56583 | 131° | 80km/h | 9747m | 4.2m/s | -37.6°C | 44.8% | 296.1hPa | 2.8V | 00:00:00 | 00:00:00 | 00:00:00 | |
| DM0DOS-11 | 2026-09-03 23:14:38 | 48.69110 | 9.56487 | 131° | 84km/h | 9729m | 4.9m/s | -37.4°C | 0% | 296.8hPa | 2.9V | 08:30:00 | 00:45:08 | 00:00:00 | |
| DK7TD | 2026-09-03 23:14:36 | 48.69096 | 9.56511 | 131° | 82km/h | 9733m | 3.7m/s | -37.4°C | 47.2% | 296.6hPa | 2.9V | 18:12:15 | 00:45:09 | 00:00:00 | |
| BIOWL1-15 | 2026-09-03 23:14:29 | 48.69223 | 9.56306 | 133° | 78km/h | 9695m | 4.5m/s | -37.1°C | 47.6% | 298.3hPa | 2.9V | 18:12:15 | 00:45:00 | 00:00:00 | |
| DK7TD | 2026-09-03 23:14:26 | 48.69237 | 9.56284 | 131° | 77km/h | 9691m | 4.1m/s | -37.1°C | 47.7% | 298.5hPa | 2.9V | 18:12:15 | 00:44:59 | 00:00:00 | |
| BIOWL1-15 | 2026-09-03 23:14:18 | 48.69356 | 9.56077 | 133° | 82km/h | 9654m | 5.1m/s | -36.7°C | 48.1% | 0hPa | 2.9V | 18:12:15 | 00:44:50 | 00:00:00 | |
| DK7TD | 2026-09-03 23:14:15 | 48.69385 | 9.56030 | 133° | 86km/h | 9645m | 4.7m/s | -36.6°C | 48% | 300.5hPa | 2.9V | 18:12:15 | 00:44:48 | 00:00:00 | |
| DB0NH | 2026-09-03 23:14:15 | 48.69385 | 9.56030 | 133° | 82km/h | 9645m | 4.6m/s | -36.6°C | 50.1% | 300.4hPa | 2.9V | 00:00:00 | 00:44:48 | 00:00:00 | |
| DB0UT-7 | 2026-09-03 23:14:13 | 48.69414 | 9.55981 | 131° | 82km/h | 9636m | 3.5m/s | -36.5°C | 50.6% | 300.8hPa | 2.9V | 00:00:00 | 00:00:00 | 00:00:00 | |
| DM0DOS-11 | 2026-09-03 23:14:08 | 48.69509 | 9.55819 | 131° | 78km/h | 9606m | 4.1m/s | -36.3°C | 0% | 302.2hPa | 2.9V | 08:30:00 | 00:44:39 | 00:00:00 | |
| BIOWL1-15 | 2026-09-03 23:14:06 | 48.69509 | 9.55819 | 132° | 78km/h | 9606m | 4.1m/s | -36.3°C | 47.5% | 0hPa | 2.9V | 18:12:15 | 00:44:39 | 00:00:00 | |
| DK7TD | 2026-09-03 23:14:05 | 48.69522 | 9.55797 | 132° | 80km/h | 9602m | 4.7m/s | -36.2°C | 47.4% | 302.3hPa | 2.9V | 18:12:15 | 00:44:38 | 00:00:00 | |
| DK5PH-5 | 2026-09-03 23:14:04 | 48.69536 | 9.55774 | 133° | 82km/h | 9598m | 4.0m/s | -36.2°C | 49.2% | 302.4hPa | 2.8V | 00:00:00 | 00:44:37 | 00:00:00 | |
| DO3MHA-12 | 2026-09-03 23:14:03 | 48.69549 | 9.55752 | 131° | 82km/h | 9593m | 4.7m/s | -36.1°C | 49.0% | 302.6hPa | 2.8V | 00:00:00 | 00:44:36 | 00:00:00 | |
| BIOWL7-15 | 2026-09-03 23:14:01 | 48.69561 | 9.55729 | 130° | 78km/h | 9589m | 4.2m/s | 0°C | 0% | 0hPa | 2.8V | 00:00:00 | 00:00:00 | 00:00:00 | |
| DL6DJ-15 | 2026-09-03 23:14:00 | 48.69587 | 9.55681 | 129° | 82km/h | 9580m | 4.7m/s | -36.1°C | 44.3% | 303.3hPa | 2.8V | 00:00:00 | 00:00:00 | 00:00:00 | |
| DM0DOS-11 | 2026-09-03 23:13:58 | 48.69642 | 9.55580 | 130° | 84km/h | 9564m | 3.5m/s | -35.9°C | 0% | 303.9hPa | 2.8V | 08:30:00 | 00:44:29 | 00:00:00 | |
| BIOWL1-15 | 2026-09-03 23:13:56 | 48.69685 | 9.55509 | 132° | 86km/h | 9552m | 4.8m/s | -35.8°C | 46.8% | 0hPa | 2.9V | 18:12:15 | 00:44:26 | 00:00:00 | |
| DK7TD | 2026-09-03 23:13:54 | 48.69670 | 9.55533 | 133° | 84km/h | 9557m | 4m/s | -35.8°C | 46.8% | 304.3hPa | 2.9V | 18:12:15 | 00:44:27 | 00:00:00 | |
| DF7PN | 2026-09-03 23:13:48 | 48.69754 | 9.55394 | 132° | 78km/h | 9531m | 4.7m/s | -35.6°C | 43.3% | 305.4hPa | 2.9V | 00:00:00 | 00:00:00 | 00:00:00 | |
| DM0DOS-11 | 2026-09-03 23:13:48 | 48.69781 | 9.55347 | 128° | 82km/h | 9523m | 4.1m/s | -35.5°C | 0% | 305.8hPa | 2.9V | 08:30:00 | 00:44:19 | 00:00:00 | |
| BIOWL1-15 | 2026-09-03 23:13:43 | 48.69818 | 9.55272 | 127° | 82km/h | 9509m | 4.9m/s | 0°C | 0% | 0hPa | 2.9V | 18:12:15 | 00:44:16 | 00:00:00 | |
| DB0UT-7 | 2026-09-03 23:13:43 | 48.69818 | 9.55272 | 128° | 80km/h | 9509m | 4.8m/s | -35.4°C | 47.8% | 306.3hPa | 2.9V | 00:00:00 | 00:44:16 | 00:00:00 | |
| DO3MHA-11 | 2026-09-03 23:13:42 | 48.69831 | 9.55247 | 130° | 82km/h | 9505m | 4.5m/s | -35.3°C | 48.3% | 306.5hPa | 2.9V | 00:00:00 | 00:44:15 | 00:00:00 | |
| DM0DOS-11 | 2026-09-03 23:13:38 | 48.69912 | 9.55103 | 131° | 84km/h | 9478m | 5.1m/s | -35.2°C | 0% | 307.7hPa | 2.9V | 08:30:00 | 00:44:09 | 00:00:00 | |
| BIOWL1-15 | 2026-09-03 23:13:32 | 48.70002 | 9.54940 | 131° | 78km/h | 9443m | 5.9m/s | 0°C | 0% | 0hPa | 2.9V | 18:12:15 | 00:44:02 | 00:00:00 | |
| DK7TD | 2026-09-03 23:13:32 | 48.69964 | 9.55011 | 128° | 78km/h | 9459m | 5.2m/s | -35°C | 45.3% | 308.5hPa | 2.9V | 18:12:15 | 00:44:05 | 00:00:00 | |
| DO3MHA-11 | 2026-09-03 23:13:32 | 48.69964 | 9.55010 | 129° | 82km/h | 9459m | 5.1m/s | -34.9°C | 46.5% | 308.5hPa | 2.9V | 00:00:00 | 00:44:05 | 00:00:00 | |
| DM0DOS-11 | 2026-09-03 23:13:30 | 48.70044 | 9.54870 | 129° | 86km/h | 9430m | 3.9m/s | -34.8°C | 0% | 309.8hPa | 2.9V | 08:30:00 | 00:43:59 | 00:00:00 | |
| DK7TD | 2026-09-03 23:13:22 | 48.70099 | 9.54768 | 129° | 80km/h | 9412m | 3.6m/s | -34.6°C | 44.9% | 310.6hPa | 2.8V | 18:12:15 | 00:43:55 | 00:00:00 | |
| DK7TD | 2026-09-03 23:13:11 | 48.70232 | 9.54509 | 130° | 82km/h | 9363m | 4.8m/s | -34.2°C | 44.6% | 312.8hPa | 2.9V | 18:12:15 | 00:43:44 | 00:00:00 | |
| DK7TD | 2026-09-03 23:13:00 | 48.70373 | 9.54235 | 129° | 80km/h | 9314m | 4.2m/s | -33.9°C | 44.3% | 315hPa | 2.9V | 18:12:15 | 00:43:33 | 00:00:00 | |
| DK7TD | 2026-09-03 23:12:50 | 48.70497 | 9.53994 | 128° | 86km/h | 9272m | 5.4m/s | -33.5°C | 43.9% | 316.9hPa | 2.9V | 18:12:15 | 00:43:23 | 00:00:00 | |
| DM0DOS-11 | 2026-09-03 23:12:49 | 48.70549 | 9.53895 | 125° | 78km/h | 9253m | 5.3m/s | 0°C | 0% | 0hPa | 2.9V | 00:00:00 | 00:43:19 | 00:00:00 | |
| DF7PN | 2026-09-03 23:12:46 | 48.70549 | 9.53895 | 125° | 78km/h | 9253m | 5.3m/s | -33.4°C | 40.7% | 317.8hPa | 2.8V | 00:00:00 | 00:00:00 | 00:00:00 | |
| DK7TD | 2026-09-03 23:12:40 | 48.70617 | 9.53750 | 123° | 80km/h | 9227m | 5m/s | -33.3°C | 44.7% | 318.9hPa | 2.8V | 18:12:15 | 00:43:13 | 00:00:00 | |
| DM0DOS-11 | 2026-09-03 23:12:39 | 48.70664 | 9.53646 | 124° | 82km/h | 9208m | 6.6m/s | 0°C | 0% | 0hPa | 2.9V | 00:00:00 | 00:43:09 | 00:00:00 | |
| DK7TD | 2026-09-03 23:12:29 | 48.70745 | 9.53459 | 128° | 77km/h | 9171m | 4.3m/s | -33.1°C | 50.4% | 321.5hPa | 2.9V | 18:12:15 | 00:43:02 | 00:00:00 | |
| DM0DOS-11 | 2026-09-03 23:12:29 | 48.70778 | 9.53395 | 127° | 69km/h | 9156m | 5.1m/s | 0°C | 0% | 0hPa | 2.9V | 00:00:00 | 00:42:59 | 00:00:00 | |
| DK7TD | 2026-09-03 23:12:18 | 48.70872 | 9.53223 | 135° | 80km/h | 9114m | 7m/s | -33°C | 90.9% | 324hPa | 2.9V | 18:12:15 | 00:42:51 | 00:00:00 | |
| DK7TD | 2026-09-03 23:12:07 | 48.70990 | 9.52924 | 128° | 88km/h | 9039m | 7m/s | -32.4°C | 94.2% | 327.5hPa | 2.8V | 18:12:15 | 00:42:40 | 00:00:00 | |
| DK7TD | 2026-09-03 23:11:56 | 48.71128 | 9.52629 | 128° | 80km/h | 8975m | 5.6m/s | -31.9°C | 92.7% | 330.5hPa | 2.9V | 18:12:15 | 00:42:29 | 00:00:00 | |
| DK7TD | 2026-09-03 23:11:45 | 48.71245 | 9.52332 | 116° | 80km/h | 8906m | 6.9m/s | -31.3°C | 89.7% | 333.7hPa | 2.9V | 18:12:15 | 00:42:18 | 00:00:00 | |
| DF7PN | 2026-09-03 23:11:44 | 48.71254 | 9.52304 | 118° | 82km/h | 8900m | 5.8m/s | -31.2°C | 95.2% | 334.0hPa | 2.9V | 00:00:00 | 00:00:00 | 00:00:00 | |
| DK7TD | 2026-09-03 23:11:35 | 48.71371 | 9.52052 | 133° | 82km/h | 8839m | 7.1m/s | -30.7°C | 88.9% | 336.8hPa | 2.9V | 18:12:15 | 00:42:08 | 00:00:00 | |
| DK7TD | 2026-09-03 23:11:24 | 48.71499 | 9.51740 | 123° | 99km/h | 8770m | 5.7m/s | -30.1°C | 86.6% | 340.1hPa | 2.9V | 18:12:15 | 00:41:57 | 00:00:00 | |
| DK7TD | 2026-09-03 23:11:14 | 48.71624 | 9.51439 | 125° | 86km/h | 8704m | 6.4m/s | -29.5°C | 83.6% | 343.2hPa | 2.9V | 18:12:15 | 00:41:47 | 00:00:00 | |
| DK7TD | 2026-09-03 23:11:03 | 48.71759 | 9.51125 | 118° | 78km/h | 8637m | 6.2m/s | -28.9°C | 82.6% | 346.4hPa | 2.9V | 18:12:15 | 00:41:36 | 00:00:00 | |
| DK7TD | 2026-09-03 23:10:52 | 48.71877 | 9.50806 | 121° | 93km/h | 8576m | 6.7m/s | -28.3°C | 77.7% | 349.4hPa | 2.9V | 18:12:15 | 00:41:25 | 00:00:00 | |
| BIOWL1-15 | 2026-09-03 23:10:44 | 48.71972 | 9.50564 | 116° | 93km/h | 8527m | 8.6m/s | -27.9°C | 80.2% | 0hPa | 2.9V | 18:12:15 | 00:41:17 | 00:00:00 | |
| DK7TD | 2026-09-03 23:10:41 | 48.72010 | 9.50470 | 126° | 93km/h | 8507m | 6.1m/s | -27.8°C | 82.8% | 352.8hPa | 2.9V | 18:12:15 | 00:41:14 | 00:00:00 | |
| DK7TD | 2026-09-03 23:10:30 | 48.72138 | 9.50147 | 120° | 89km/h | 8437m | 7m/s | -27.2°C | 84.2% | 356.3hPa | 2.9V | 18:12:15 | 00:41:03 | 00:00:00 | |
| DK7TD | 2026-09-03 23:10:20 | 48.72245 | 9.49882 | 122° | 91km/h | 8385m | 5.3m/s | -26.8°C | 82.2% | 358.8hPa | 2.9V | 18:12:15 | 00:40:53 | 00:00:00 | |
| BIOWL1-15 | 2026-09-03 23:10:15 | 48.72402 | 9.49534 | 132° | 88km/h | 8312m | 6m/s | 0°C | 0% | 0hPa | 2.9V | 18:12:15 | 00:40:41 | 00:00:00 | |
| DK7TD | 2026-09-03 23:10:09 | 48.72387 | 9.49560 | 131° | 93km/h | 8318m | 5.8m/s | -26.4°C | 85.5% | 362.2hPa | 2.9V | 18:12:15 | 00:40:42 | 00:00:00 | |
| BIOWL1-15 | 2026-09-03 23:10:05 | 48.72471 | 9.49403 | 126° | 91km/h | 8279m | 6m/s | 0°C | 0% | 0hPa | 2.9V | 18:12:15 | 00:40:36 | 00:00:00 | |
| DK7TD | 2026-09-03 23:09:58 | 48.72542 | 9.49279 | 132° | 84km/h | 8252m | 5.3m/s | -25.9°C | 81.4% | 365.5hPa | 2.9V | 18:12:15 | 00:40:31 | 00:00:00 | |
| DK7TD | 2026-09-03 23:09:47 | 48.72706 | 9.48994 | 131° | 93km/h | 8198m | 4.3m/s | -25.4°C | 81.6% | 368.3hPa | 2.9V | 18:12:15 | 00:40:20 | 00:00:00 | |
| DB0ND-19 | 2026-09-03 23:09:47 | 48.72721 | 9.48966 | 127° | 91km/h | 8193m | 4.2m/s | -25.4°C | 85.2% | 368.5hPa | 2.9V | 00:00:00 | 00:00:00 | 00:00:00 | |
| DK7TD | 2026-09-03 23:09:36 | 48.72855 | 9.48707 | 132° | 91km/h | 8142m | 6.3m/s | -25.1°C | 71.9% | 371.2hPa | 2.9V | 18:12:15 | 00:40:09 | 00:00:00 | |
| DK7TD | 2026-09-03 23:09:26 | 48.72999 | 9.48456 | 126° | 89km/h | 8090m | 4.8m/s | -24.6°C | 72.1% | 373.8hPa | 2.9V | 18:12:15 | 00:39:59 | 00:00:00 | |
| DK7TD | 2026-09-03 23:09:16 | 48.73136 | 9.48196 | 129° | 91km/h | 8033m | 6.9m/s | -24.2°C | 45.9% | 376.7hPa | 2.9V | 18:12:15 | 00:39:49 | 00:00:00 | |
| DK7TD | 2026-09-03 23:09:06 | 48.73272 | 9.47942 | 133° | 82km/h | 7976m | 6.5m/s | -23.8°C | 48.1% | 379.6hPa | 2.8V | 18:12:15 | 00:39:39 | 00:00:00 | |
| DK7TD | 2026-09-03 23:08:55 | 48.73421 | 9.47662 | 133° | 84km/h | 7919m | 6.3m/s | -23.4°C | 51.8% | 382.6hPa | 2.9V | 18:12:15 | 00:39:28 | 00:00:00 | |
| DK7TD | 2026-09-03 23:08:44 | 48.73574 | 9.47390 | 125° | 84km/h | 7859m | 4.9m/s | -22.9°C | 49.3% | 385.7hPa | 2.9V | 18:12:15 | 00:39:17 | 00:00:00 | |
| DK7TD | 2026-09-03 23:08:34 | 48.73714 | 9.47143 | 132° | 82km/h | 7813m | 4.4m/s | -22.6°C | 57.1% | 388.2hPa | 2.8V | 18:12:15 | 00:39:07 | 00:00:00 | |
| DK7TD | 2026-09-03 23:08:23 | 48.73860 | 9.46883 | 128° | 80km/h | 7757m | 6.3m/s | -22.1°C | 54.5% | 391.1hPa | 2.9V | 18:12:15 | 00:38:56 | 00:00:00 | |
| DK7TD | 2026-09-03 23:08:13 | 48.73992 | 9.46637 | 129° | 91km/h | 7710m | 4.1m/s | -21.7°C | 52.1% | 393.7hPa | 2.9V | 18:12:15 | 00:38:46 | 00:00:00 | |
| DK7TD | 2026-09-03 23:08:02 | 48.74134 | 9.46358 | 128° | 80km/h | 7652m | 4.6m/s | -21.3°C | 50.3% | 396.8hPa | 2.8V | 18:12:15 | 00:38:35 | 00:00:00 | |
| DK7TD | 2026-09-03 23:07:52 | 48.74259 | 9.46109 | 129° | 80km/h | 7603m | 3.7m/s | -21°C | 52.8% | 399.3hPa | 2.9V | 18:12:15 | 00:38:25 | 00:00:00 | |
| DF3TZ-5 | 2026-09-03 23:07:48 | 48.74323 | 9.45990 | 129° | 80km/h | 7579m | 4.7m/s | -20.8°C | 51.4% | 400.7hPa | 2.9V | 00:00:00 | 00:00:00 | 00:00:00 | |
| DK7TD | 2026-09-03 23:07:41 | 48.74400 | 9.45843 | 128° | 80km/h | 7553m | 5.3m/s | -20.5°C | 51.9% | 402.2hPa | 2.9V | 18:12:15 | 00:38:14 | 00:00:00 | |
| DK7TD | 2026-09-03 23:07:31 | 48.74529 | 9.45609 | 127° | 84km/h | 7506m | 3.7m/s | -20.2°C | 50.9% | 404.7hPa | 2.9V | 18:12:15 | 00:38:04 | 00:00:00 | |
| DK7TD | 2026-09-03 23:07:20 | 48.74668 | 9.45344 | 129° | 82km/h | 7458m | 4.6m/s | -19.8°C | 50.9% | 407.3hPa | 2.9V | 18:12:15 | 00:37:53 | 00:00:00 | |
| DK7TD | 2026-09-03 23:07:09 | 48.74808 | 9.45087 | 127° | 75km/h | 7406m | 3.9m/s | -19.4°C | 49.5% | 410hPa | 2.9V | 18:12:15 | 00:37:42 | 00:00:00 | |
| DK7TD | 2026-09-03 23:06:59 | 48.74937 | 9.44862 | 133° | 77km/h | 7361m | 4.4m/s | -19°C | 47% | 412.6hPa | 2.9V | 18:12:15 | 00:37:32 | 00:00:00 | |
| DK7TD | 2026-09-03 23:06:48 | 48.75081 | 9.44603 | 135° | 80km/h | 7308m | 4.8m/s | -18.6°C | 44.7% | 415.6hPa | 2.9V | 18:12:15 | 00:37:21 | 00:00:00 | |
| DF3TZ-5 | 2026-09-03 23:06:46 | 48.75123 | 9.44539 | 136° | 78km/h | 7294m | 3.9m/s | -18.5°C | 43.0% | 416.3hPa | 2.9V | 00:00:00 | 00:00:00 | 00:00:00 | |
| DK7TD | 2026-09-03 23:06:37 | 48.75228 | 9.44349 | 127° | 84km/h | 7254m | 5.1m/s | -18.3°C | 52.2% | 418.5hPa | 2.9V | 18:12:15 | 00:37:10 | 00:00:00 | |
| DK7TD | 2026-09-03 23:06:27 | 48.75357 | 9.44109 | 129° | 78km/h | 7207m | 3.5m/s | -17.9°C | 51% | 421.2hPa | 2.8V | 18:12:15 | 00:37:00 | 00:00:00 | |
| DK7TD | 2026-09-03 23:06:16 | 48.75495 | 9.43831 | 129° | 84km/h | 7155m | 5m/s | -17.5°C | 51.1% | 424.2hPa | 2.9V | 18:12:15 | 00:36:49 | 00:00:00 | |
| DK7TD | 2026-09-03 23:06:06 | 48.75621 | 9.43587 | 132° | 84km/h | 7109m | 5.6m/s | -17.3°C | 56% | 426.8hPa | 2.9V | 18:12:15 | 00:36:39 | 00:00:00 | |
| DK7TD | 2026-09-03 23:05:56 | 48.75760 | 9.43346 | 127° | 86km/h | 7060m | 5.2m/s | -17°C | 51.1% | 429.5hPa | 2.9V | 18:12:15 | 00:36:29 | 00:00:00 | |
| DK7TD | 2026-09-03 23:05:45 | 48.75901 | 9.43050 | 132° | 88km/h | 6999m | 6.1m/s | -16.7°C | 56.9% | 433hPa | 2.9V | 18:12:15 | 00:36:18 | 00:00:00 | |
| DK7TD | 2026-09-03 23:05:35 | 48.76030 | 9.42793 | 125° | 84km/h | 6951m | 3.9m/s | -16.3°C | 58.5% | 435.9hPa | 2.9V | 18:12:15 | 00:36:08 | 00:00:00 | |
| DK7TD | 2026-09-03 23:05:25 | 48.76159 | 9.42538 | 126° | 88km/h | 6906m | 4.4m/s | -16°C | 58.8% | 438.6hPa | 2.9V | 18:12:15 | 00:35:58 | 00:00:00 | |
| DK7TD | 2026-09-03 23:05:14 | 48.76303 | 9.42254 | 128° | 84km/h | 6856m | 5m/s | -15.6°C | 57.4% | 441.4hPa | 2.9V | 18:12:15 | 00:35:47 | 00:00:00 | |
| DK7TD | 2026-09-03 23:05:04 | 48.76424 | 9.41995 | 127° | 84km/h | 6809m | 4.8m/s | -15.3°C | 53.3% | 444.2hPa | 2.9V | 18:12:15 | 00:35:37 | 00:00:00 | |
| DK7TD | 2026-09-03 23:04:53 | 48.76561 | 9.41733 | 126° | 84km/h | 6755m | 4.6m/s | -14.9°C | 37.3% | 447.4hPa | 2.9V | 18:12:15 | 00:35:26 | 00:00:00 | |
| DK7TD | 2026-09-03 23:04:43 | 48.76687 | 9.41454 | 132° | 82km/h | 6703m | 6.2m/s | -14.6°C | 52.4% | 450.4hPa | 2.9V | 18:12:15 | 00:35:16 | 00:00:00 | |
| DK7TD | 2026-09-03 23:04:32 | 48.76819 | 9.41171 | 124° | 84km/h | 6635m | 6.1m/s | -14.3°C | 61.4% | 454.4hPa | 2.9V | 18:12:15 | 00:35:05 | 00:00:00 | |
| DK7TD | 2026-09-03 23:04:22 | 48.76933 | 9.40911 | 119° | 84km/h | 6572m | 5.6m/s | -14°C | 55.1% | 458.1hPa | 2.9V | 18:12:15 | 00:34:55 | 00:00:00 | |
| DK7TD | 2026-09-03 23:04:12 | 48.77047 | 9.40651 | 127° | 80km/h | 6524m | 4.7m/s | -13.8°C | 52.5% | 461.1hPa | 2.9V | 18:12:15 | 00:34:45 | 00:00:00 | |
| DK7TD | 2026-09-03 23:04:02 | 48.77154 | 9.40377 | 122° | 71km/h | 6474m | 5.1m/s | -13.4°C | 45.9% | 464hPa | 2.9V | 18:12:15 | 00:34:35 | 00:00:00 | |
| DK7TD | 2026-09-03 23:03:51 | 48.77265 | 9.40094 | 125° | 88km/h | 6405m | 4.9m/s | -12.8°C | 36.4% | 468.3hPa | 2.9V | 18:12:15 | 00:34:24 | 00:00:00 | |
| DL1ZP-14 | 2026-09-03 23:03:46 | 48.77318 | 9.39964 | 121° | 73km/h | 6377m | 5.7m/s | -12.6°C | 33.5% | 470.1hPa | 2.9V | 00:00:00 | 00:00:00 | 00:00:00 | |
| DK7TD | 2026-09-03 23:03:41 | 48.77379 | 9.39839 | 125° | 88km/h | 6351m | 4.8m/s | -12.4°C | 33.8% | 471.6hPa | 2.9V | 18:12:15 | 00:34:14 | 00:00:00 | |
| DK7TD | 2026-09-03 23:03:30 | 48.77510 | 9.39544 | 128° | 71km/h | 6299m | 5.7m/s | -12.1°C | 37.9% | 475hPa | 2.9V | 18:12:15 | 00:34:03 | 00:00:00 | |
| DK7TD | 2026-09-03 23:03:19 | 48.77612 | 9.39256 | 114° | 73km/h | 6238m | 4.9m/s | -11.8°C | 39.3% | 478.8hPa | 2.9V | 18:12:15 | 00:33:52 | 00:00:00 | |
| DK7TD | 2026-09-03 23:03:09 | 48.77718 | 9.38968 | 113° | 73km/h | 6176m | 5.6m/s | -11.5°C | 32% | 482.6hPa | 2.9V | 18:12:15 | 00:33:42 | 00:00:00 | |
| DK7TD | 2026-09-03 23:02:58 | 48.77834 | 9.38688 | 124° | 78km/h | 6112m | 5.7m/s | -11.1°C | 31.5% | 486.8hPa | 2.9V | 18:12:15 | 00:33:31 | 00:00:00 | |
| DK7TD | 2026-09-03 23:02:48 | 48.77956 | 9.38392 | 121° | 86km/h | 6048m | 8m/s | -11°C | 36.1% | 490.7hPa | 2.9V | 18:12:15 | 00:33:20 | 00:00:00 | |
| DL1ZP-14 | 2026-09-03 23:02:44 | 48.77986 | 9.38312 | 118° | 77km/h | 6028m | 5.8m/s | -10.8°C | 33.2% | 492.2hPa | 2.9V | 00:00:00 | 00:00:00 | 00:00:00 | |
| DK7TD | 2026-09-03 23:02:37 | 48.78063 | 9.38132 | 125° | 86km/h | 5991m | 5.3m/s | -10.6°C | 34.7% | 494.5hPa | 2.9V | 18:12:15 | 00:33:10 | 00:00:00 | |
| DK7TD | 2026-09-03 23:02:27 | 48.78159 | 9.37895 | 118° | 68km/h | 5941m | 6.2m/s | -10.2°C | 20.6% | 497.7hPa | 2.9V | 18:12:15 | 00:33:00 | 00:00:00 | |
| DK7TD | 2026-09-03 23:02:16 | 48.78266 | 9.37625 | 119° | 71km/h | 5884m | 5.5m/s | -9.8°C | 21.7% | 501.4hPa | 2.9V | 18:12:15 | 00:32:49 | 00:00:00 | |
| DK7TD | 2026-09-03 23:02:05 | 48.78363 | 9.37332 | 117° | 77km/h | 5835m | 3.9m/s | -9.6°C | 34.2% | 504.5hPa | 2.9V | 18:12:15 | 00:32:38 | 00:00:00 | |
| DK7TD | 2026-09-03 23:01:54 | 48.78469 | 9.37035 | 124° | 88km/h | 5772m | 4.3m/s | -9.4°C | 39.4% | 508.6hPa | 2.9V | 18:12:15 | 00:32:27 | 00:00:00 | |
| DK7TD | 2026-09-03 23:01:44 | 48.78573 | 9.36807 | 133° | 80km/h | 5716m | 4.9m/s | -9.1°C | 37.7% | 512.3hPa | 2.9V | 18:12:15 | 00:32:17 | 00:00:00 | |
| DK7TD | 2026-09-03 23:01:33 | 48.78695 | 9.36561 | 131° | 73km/h | 5637m | 4.9m/s | -8.5°C | 40.6% | 517.6hPa | 2.9V | 18:12:15 | 00:32:06 | 00:00:00 | |
| DK7TD | 2026-09-03 23:01:22 | 48.78815 | 9.36320 | 124° | 73km/h | 5574m | 6.1m/s | -7.9°C | 39.6% | 521.8hPa | 2.9V | 18:12:15 | 00:31:55 | 00:00:00 | |
| DK7TD | 2026-09-03 23:01:11 | 48.78927 | 9.36051 | 121° | 73km/h | 5510m | 7.1m/s | -7.4°C | 46% | 526.1hPa | 2.9V | 18:12:15 | 00:31:44 | 00:00:00 | |
| DK7TD | 2026-09-03 23:01:01 | 48.79038 | 9.35852 | 118° | 80km/h | 5456m | 6.1m/s | -7.3°C | 68.2% | 529.7hPa | 2.9V | 18:12:15 | 00:31:34 | 00:00:00 | |
| DK7TD | 2026-09-03 23:00:50 | 48.79151 | 9.35604 | 120° | 64km/h | 5391m | 3.7m/s | -6.9°C | 58.6% | 534.2hPa | 2.9V | 18:12:15 | 00:31:23 | 00:00:00 | |
| DK7TD | 2026-09-03 23:00:40 | 48.79238 | 9.35415 | 131° | 77km/h | 5332m | 3.7m/s | -6.6°C | 58.6% | 538.1hPa | 2.9V | 18:12:15 | 00:31:13 | 00:00:00 | |
| DK7TD | 2026-09-03 23:00:30 | 48.79343 | 9.35183 | 124° | 66km/h | 5281m | 6.3m/s | -6.2°C | 60.9% | 541.7hPa | 2.9V | 18:12:15 | 00:31:03 | 00:00:00 | |
| DK7TD | 2026-09-03 23:00:19 | 48.79437 | 9.34934 | 119° | 66km/h | 5221m | 4.2m/s | -5.7°C | 58.4% | 545.8hPa | 2.9V | 18:12:15 | 00:30:52 | 00:00:00 | |
| DK7TD | 2026-09-03 23:00:08 | 48.79527 | 9.34705 | 123° | 66km/h | 5166m | 5.5m/s | -5.3°C | 61.8% | 549.7hPa | 2.9V | 18:12:15 | 00:30:41 | 00:00:00 | |
| DK7TD | 2026-09-03 22:59:58 | 48.79616 | 9.34508 | 120° | 73km/h | 5118m | 7.9m/s | -5°C | 63.3% | 553.1hPa | 2.9V | 18:12:15 | 00:30:31 | 00:00:00 | |
| DK7TD | 2026-09-03 22:59:47 | 48.79709 | 9.34282 | 131° | 64km/h | 5052m | 5.1m/s | -4.6°C | 63.1% | 557.9hPa | 2.9V | 18:12:15 | 00:30:20 | 00:00:00 | |
| DK7TD | 2026-09-03 22:59:36 | 48.79807 | 9.34043 | 126° | 69km/h | 4983m | 4.7m/s | -4°C | 63.8% | 562.8hPa | 2.9V | 18:12:15 | 00:30:09 | 00:00:00 | |
| DK7TD | 2026-09-03 22:59:26 | 48.79892 | 9.33827 | 117° | 68km/h | 4925m | 5.4m/s | -3.6°C | 65.1% | 566.8hPa | 2.9V | 18:12:15 | 00:29:59 | 00:00:00 | |
| DK7TD | 2026-09-03 22:59:16 | 48.79977 | 9.33617 | 117° | 64km/h | 4880m | 3.9m/s | -3.3°C | 60.8% | 570.3hPa | 2.9V | 18:12:15 | 00:29:49 | 00:00:00 | |
| DK7TD | 2026-09-03 22:59:06 | 48.80065 | 9.33424 | 123° | 71km/h | 4831m | 4.6m/s | -2.9°C | 66.6% | 573.7hPa | 2.9V | 18:12:15 | 00:29:39 | 00:00:00 | |
| DK7TD | 2026-09-03 22:58:53 | 48.80174 | 9.33171 | 120° | 55km/h | 4751m | 6.4m/s | -2.2°C | 57.2% | 579.5hPa | 2.9V | 18:12:15 | 00:29:26 | 00:00:00 | |
| DF7PN | 2026-09-03 22:58:47 | 48.80227 | 9.33050 | 123° | 73km/h | 4720m | 5.6m/s | -1.9°C | 53.6% | 581.8hPa | 2.9V | 00:00:00 | 00:00:00 | 00:00:00 | |
| DK7TD | 2026-09-03 22:58:42 | 48.80280 | 9.32942 | 124° | 60km/h | 4694m | 6.2m/s | -1.7°C | 58% | 583.6hPa | 2.9V | 18:12:15 | 00:29:15 | 00:00:00 | |
| DK7TD | 2026-09-03 22:58:32 | 48.80358 | 9.32749 | 121° | 60km/h | 4630m | 5.8m/s | -1.3°C | 60.9% | 588.3hPa | 2.9V | 18:12:15 | 00:29:05 | 00:00:00 | |
| DK7TD | 2026-09-03 22:58:21 | 48.80456 | 9.32523 | 114° | 55km/h | 4580m | 5.4m/s | -1°C | 68.7% | 592hPa | 2.9V | 18:12:15 | 00:28:54 | 00:00:00 | |
| DK7TD | 2026-09-03 22:58:10 | 48.80523 | 9.32307 | 122° | 53km/h | 4517m | 4.5m/s | -0.8°C | 66.1% | 596.5hPa | 2.9V | 18:12:15 | 00:28:43 | 00:00:00 | |
| DK7TD | 2026-09-03 22:57:59 | 48.80623 | 9.32077 | 124° | 66km/h | 4455m | 5.8m/s | -0.4°C | 69% | 601.1hPa | 2.9V | 18:12:15 | 00:28:32 | 00:00:00 | |
| DK7TD | 2026-09-03 22:57:48 | 48.80712 | 9.31852 | 126° | 68km/h | 4397m | 3.1m/s | -0°C | 66.1% | 605.6hPa | 2.9V | 18:12:15 | 00:28:21 | 00:00:00 | |
| DF7PN | 2026-09-03 22:57:45 | 48.80745 | 9.31794 | 134° | 62km/h | 4385m | 4.3m/s | 0.1°C | 61.8% | 606.4hPa | 2.9V | 00:00:00 | 00:00:00 | 00:00:00 | |
| DK7TD | 2026-09-03 22:57:38 | 48.80807 | 9.31671 | 132° | 57km/h | 4352m | 4.8m/s | 0.4°C | 61.1% | 609hPa | 2.9V | 18:12:15 | 00:28:11 | 00:00:00 | |
| DK7TD | 2026-09-03 22:57:27 | 48.80908 | 9.31454 | 117° | 62km/h | 4294m | 6.1m/s | 0.9°C | 59.1% | 613.5hPa | 2.9V | 18:12:15 | 00:28:00 | 00:00:00 | |
| DK7TD | 2026-09-03 22:57:16 | 48.80980 | 9.31256 | 117° | 62km/h | 4233m | 5m/s | 1.4°C | 59.3% | 618.2hPa | 2.9V | 18:12:15 | 00:27:49 | 00:00:00 | |
| DK7TD | 2026-09-03 22:57:06 | 48.81045 | 9.31068 | 118° | 51km/h | 4173m | 7.4m/s | 1.9°C | 55.8% | 622.8hPa | 2.9V | 18:12:15 | 00:27:39 | 00:00:00 | |
| DK7TD | 2026-09-03 22:56:56 | 48.81114 | 9.30890 | 120° | 62km/h | 4115m | 5.7m/s | 2.5°C | 30.8% | 627.3hPa | 2.9V | 18:12:15 | 00:27:29 | 00:00:00 | |
| DK7TD | 2026-09-03 22:56:45 | 48.81204 | 9.30667 | 128° | 60km/h | 4057m | 4.4m/s | 2.9°C | 6.1% | 631.8hPa | 2.9V | 18:12:15 | 00:27:18 | 00:00:00 | |
| DK7TD | 2026-09-03 22:56:35 | 48.81261 | 9.30491 | 111° | 60km/h | 4002m | 3.3m/s | 3.2°C | 2.2% | 636hPa | 2.9V | 18:12:15 | 00:27:08 | 00:00:00 | |
| DK7TD | 2026-09-03 22:56:25 | 48.81307 | 9.30298 | 113° | 66km/h | 3951m | 4.1m/s | 3.4°C | 4.1% | 640.1hPa | 2.9V | 18:12:15 | 00:26:58 | 00:00:00 | |
| DK7TD | 2026-09-03 22:56:14 | 48.81365 | 9.30087 | 104° | 49km/h | 3897m | 5.7m/s | 3.7°C | 2.9% | 644.5hPa | 2.9V | 18:12:15 | 00:26:47 | 00:00:00 | |
| DK7TD | 2026-09-03 22:56:04 | 48.81410 | 9.29898 | 117° | 47km/h | 3851m | 4.3m/s | 4°C | 3% | 648.1hPa | 2.9V | 18:12:15 | 00:26:37 | 00:00:00 | |
| DK7TD | 2026-09-03 22:55:53 | 48.81459 | 9.29701 | 108° | 53km/h | 3801m | 3.7m/s | 4°C | 3.9% | 652hPa | 2.9V | 18:12:15 | 00:26:26 | 00:00:00 | |
| DB0ND-19 | 2026-09-03 22:55:49 | 48.81490 | 9.29607 | 125° | 49km/h | 3776m | 5.5m/s | 4.1°C | 6.4% | 653.8hPa | 2.9V | 00:00:00 | 00:00:00 | 00:00:00 | |
| DK7TD | 2026-09-03 22:55:42 | 48.81526 | 9.29521 | 120° | 53km/h | 3745m | 5.4m/s | 4.3°C | 5.2% | 656.4hPa | 2.9V | 18:12:15 | 00:26:15 | 00:00:00 | |
| DK7TD | 2026-09-03 22:55:31 | 48.81598 | 9.29324 | 113° | 51km/h | 3690m | 4.7m/s | 4.4°C | 6.3% | 661hPa | 2.9V | 18:12:15 | 00:26:04 | 00:00:00 | |
| DK7TD | 2026-09-03 22:55:20 | 48.81663 | 9.29116 | 108° | 49km/h | 3631m | 4.7m/s | 4.3°C | 17.6% | 665.9hPa | 2.9V | 18:12:15 | 00:25:53 | 00:00:00 | |
| DK7TD | 2026-09-03 22:55:09 | 48.81711 | 9.28915 | 108° | 49km/h | 3576m | 5.2m/s | 4.1°C | 40.3% | 670.4hPa | 2.9V | 18:12:15 | 00:25:42 | 00:00:00 | |
| DK7TD | 2026-09-03 22:54:59 | 48.81761 | 9.28750 | 109° | 46km/h | 3521m | 4.4m/s | 4.3°C | 50.5% | 675hPa | 2.9V | 18:12:15 | 00:25:32 | 00:00:00 | |
| DK7TD | 2026-09-03 22:54:48 | 48.81809 | 9.28552 | 109° | 49km/h | 3466m | 5.8m/s | 4.1°C | 65.8% | 679.7hPa | 2.9V | 18:12:15 | 00:25:21 | 00:00:00 | |
| DB0ND-19 | 2026-09-03 22:54:47 | 48.81819 | 9.28517 | 117° | 46km/h | 3454m | 5.1m/s | 4.1°C | 62.9% | 680.6hPa | 2.9V | 00:00:00 | 00:00:00 | 00:00:00 | |
| DK7TD | 2026-09-03 22:54:38 | 48.81856 | 9.28393 | 105° | 44km/h | 3417m | 5.1m/s | 4.2°C | 69.4% | 683.6hPa | 2.9V | 18:12:15 | 00:25:11 | 00:00:00 | |
| DK7TD | 2026-09-03 22:54:27 | 48.81888 | 9.28211 | 101° | 44km/h | 3346m | 5.2m/s | 4.6°C | 74.8% | 689.5hPa | 2.9V | 18:12:15 | 00:25:00 | 00:00:00 | |
| DK7TD | 2026-09-03 22:54:16 | 48.81913 | 9.28011 | 109° | 57km/h | 3289m | 5.1m/s | 5°C | 72.2% | 694.4hPa | 2.9V | 18:12:15 | 00:24:49 | 00:00:00 | |
| DK7TD | 2026-09-03 22:54:08 | 48.81949 | 9.27816 | 101° | 47km/h | 3240m | 3.8m/s | 5.4°C | 69.2% | 698.6hPa | 2.9V | 18:12:15 | 00:24:39 | 00:00:00 | |
| DK7TD | 2026-09-03 22:53:55 | 48.81988 | 9.27623 | 103° | 37km/h | 3184m | 5.3m/s | 5.9°C | 67.9% | 703.6hPa | 2.9V | 18:12:15 | 00:24:28 | 00:00:00 | |
| DK7TD | 2026-09-03 22:53:44 | 48.82025 | 9.27448 | 108° | 49km/h | 3125m | 4.7m/s | 6.3°C | 61.5% | 708.6hPa | 2.9V | 18:12:15 | 00:24:17 | 00:00:00 | |
| DK7TD | 2026-09-03 22:53:33 | 48.82066 | 9.27241 | 115° | 46km/h | 3065m | 4.7m/s | 6.6°C | 54.7% | 713.6hPa | 2.9V | 18:12:15 | 00:24:06 | 00:00:00 | |
| DK7TD | 2026-09-03 22:53:22 | 48.82107 | 9.27063 | 103° | 53km/h | 3004m | 5.1m/s | 7°C | 49.9% | 719.1hPa | 2.9V | 18:12:15 | 00:23:55 | 00:00:00 | |
| DK7TD | 2026-09-03 22:53:11 | 48.82163 | 9.26881 | 115° | 37km/h | 2945m | 5.9m/s | 7.3°C | 43.1% | 724.2hPa | 2.9V | 18:12:15 | 00:23:44 | 00:00:00 | |
| DK7TD | 2026-09-03 22:53:01 | 48.82197 | 9.26743 | 105° | 46km/h | 2887m | 5.6m/s | 7.5°C | 54.8% | 729.3hPa | 2.9V | 18:12:15 | 00:23:34 | 00:00:00 | |
| DK7TD | 2026-09-03 22:52:50 | 48.82222 | 9.26557 | 101° | 44km/h | 2825m | 5.8m/s | 7.7°C | 58.5% | 734.6hPa | 2.9V | 18:12:15 | 00:23:23 | 00:00:00 | |
| DF3TZ-5 | 2026-09-03 22:52:47 | 48.82232 | 9.26501 | 110° | 51km/h | 2807m | 4.0m/s | 7.7°C | 54.7% | 736.0hPa | 2.9V | 00:00:00 | 00:00:00 | 00:00:00 | |
| DK7TD | 2026-09-03 22:52:39 | 48.82257 | 9.26352 | 103° | 53km/h | 2764m | 6.7m/s | 7.9°C | 60.9% | 740.1hPa | 2.9V | 18:12:15 | 00:23:12 | 00:00:00 | |
| DK7TD | 2026-09-03 22:52:28 | 48.82284 | 9.26196 | 114° | 38km/h | 2709m | 5.9m/s | 8.2°C | 61% | 745.1hPa | 2.9V | 18:12:15 | 00:23:01 | 00:00:00 | |
| DK7TD | 2026-09-03 22:52:17 | 48.82307 | 9.26037 | 111° | 42km/h | 2651m | 5.2m/s | 8.3°C | 65.2% | 750.3hPa | 2.9V | 18:12:15 | 00:22:50 | 00:00:00 | |
| DK7TD | 2026-09-03 22:52:06 | 48.82343 | 9.25881 | 114° | 38km/h | 2592m | 4m/s | 8°C | 80.9% | 756hPa | 2.9V | 18:12:15 | 00:22:39 | 00:00:00 | |
| DK7TD | 2026-09-03 22:51:56 | 48.82356 | 9.25759 | 100° | 46km/h | 2544m | 4.3m/s | 7°C | 96.8% | 760.1hPa | 2.9V | 18:12:15 | 00:22:29 | 00:00:00 | |
| DK7TD | 2026-09-03 22:51:45 | 48.82375 | 9.25585 | 78° | 38km/h | 2492m | 5.1m/s | 7.1°C | 95.8% | 765hPa | 2.9V | 18:12:15 | 00:22:18 | 00:00:00 | |
| DF3TZ-5 | 2026-09-03 22:51:45 | 48.82375 | 9.25585 | 77° | 38km/h | 2492m | 5.1m/s | 7.1°C | 97.7% | 765.0hPa | 2.9V | 00:00:00 | 00:00:00 | 00:00:00 | |
| DK7TD | 2026-09-03 22:51:35 | 48.82373 | 9.25446 | 103° | 31km/h | 2441m | 7m/s | 7.6°C | 94.8% | 769.9hPa | 2.9V | 18:12:15 | 00:22:08 | 00:00:00 | |
| DK7TD | 2026-09-03 22:51:25 | 48.82385 | 9.25301 | 92° | 29km/h | 2382m | 4.9m/s | 8.1°C | 93.7% | 775.3hPa | 2.9V | 18:12:15 | 00:21:58 | 00:00:00 | |
| DK7TD | 2026-09-03 22:51:14 | 48.82389 | 9.25161 | 96° | 33km/h | 2324m | 6.3m/s | 8.6°C | 89.4% | 780.6hPa | 2.9V | 18:12:15 | 00:21:47 | 00:00:00 | |
| DK7TD | 2026-09-03 22:51:04 | 48.82403 | 9.25009 | 98° | 47km/h | 2270m | 4.4m/s | 9.1°C | 90.1% | 785.8hPa | 2.9V | 18:12:15 | 00:21:37 | 00:00:00 | |
| DK7TD | 2026-09-03 22:50:54 | 48.82401 | 9.24844 | 93° | 47km/h | 2222m | 5.6m/s | 9.5°C | 88.1% | 790.3hPa | 2.9V | 18:12:15 | 00:21:27 | 00:00:00 | |
| DK7TD | 2026-09-03 22:50:44 | 48.82418 | 9.24690 | 91° | 40km/h | 2156m | 4.9m/s | 9.8°C | 91.3% | 796.7hPa | 2.9V | 18:12:15 | 00:21:16 | 00:00:00 | |
| DK7TD | 2026-09-03 22:50:33 | 48.82420 | 9.24535 | 90° | 33km/h | 2106m | 5m/s | 10.3°C | 89.5% | 801.6hPa | 2.9V | 18:12:15 | 00:21:06 | 00:00:00 | |
| DK7TD | 2026-09-03 22:50:23 | 48.82437 | 9.24380 | 104° | 38km/h | 2057m | 5.3m/s | 10.7°C | 87.1% | 806.4hPa | 2.9V | 18:12:15 | 00:20:56 | 00:00:00 | |
| DK7TD | 2026-09-03 22:50:12 | 48.82452 | 9.24250 | 106° | 46km/h | 1995m | 5.8m/s | 11.1°C | 88.3% | 812.5hPa | 2.9V | 18:12:15 | 00:20:45 | 00:00:00 | |
| DK7TD | 2026-09-03 22:50:10 | 48.82457 | 9.24214 | 94° | 51km/h | 1986m | 4.4m/s | 11.2°C | 87.8% | 813.5hPa | 2.9V | 18:12:15 | 00:20:43 | 00:00:00 | |
| DK7TD | 2026-09-03 22:50:08 | 48.82456 | 9.24175 | 86° | 49km/h | 1977m | 4.8m/s | 11.2°C | 87% | 814.2hPa | 2.9V | 18:12:15 | 00:20:41 | 00:00:00 | |
| DK7TD | 2026-09-03 22:50:06 | 48.82454 | 9.24142 | 84° | 37km/h | 1968m | 4.4m/s | 11.3°C | 87.1% | 815.1hPa | 2.9V | 18:12:15 | 00:20:39 | 00:00:00 | |
| DK7TD | 2026-09-03 22:50:04 | 48.82454 | 9.24118 | 95° | 27km/h | 1958m | 5.2m/s | 11.4°C | 87.6% | 816.1hPa | 2.9V | 18:12:15 | 00:20:37 | 00:00:00 | |
| DK7TD | 2026-09-03 22:50:02 | 48.82458 | 9.24097 | 112° | 31km/h | 1948m | 5.8m/s | 11.4°C | 87.8% | 817.1hPa | 2.9V | 18:12:15 | 00:20:35 | 00:00:00 | |
| DK7TD | 2026-09-03 22:50:00 | 48.82464 | 9.24072 | 106° | 40km/h | 1938m | 4.3m/s | 11.4°C | 87.7% | 818.1hPa | 2.9V | 18:12:15 | 00:20:33 | 00:00:00 | |
| DK7TD | 2026-09-03 22:49:58 | 48.82468 | 9.24038 | 94° | 47km/h | 1928m | 6.3m/s | 11.5°C | 88.1% | 818.9hPa | 2.9V | 18:12:15 | 00:20:31 | 00:00:00 | |
| DK7TD | 2026-09-03 22:49:57 | 48.82468 | 9.24020 | 89° | 47km/h | 1923m | 4.6m/s | 11.6°C | 87.7% | 819.5hPa | 2.9V | 18:12:15 | 00:20:30 | 00:00:00 | |
| DK7TD | 2026-09-03 22:49:55 | 48.82467 | 9.23984 | 90° | 44km/h | 1912m | 6.3m/s | 11.6°C | 87.5% | 820.6hPa | 2.9V | 18:12:15 | 00:20:28 | 00:00:00 | |
| DK7TD | 2026-09-03 22:49:53 | 48.82469 | 9.23951 | 98° | 42km/h | 1900m | 6.5m/s | 11.7°C | 87.3% | 821.8hPa | 2.9V | 18:12:15 | 00:20:26 | 00:00:00 | |
| DK7TD | 2026-09-03 22:49:51 | 48.82472 | 9.23919 | 96° | 42km/h | 1887m | 7.5m/s | 11.8°C | 86.3% | 823hPa | 2.9V | 18:12:15 | 00:20:24 | 00:00:00 | |
| DK7TD | 2026-09-03 22:49:50 | 48.82473 | 9.23903 | 94° | 42km/h | 1881m | 5.7m/s | 11.9°C | 85.7% | 823.6hPa | 2.9V | 18:12:15 | 00:20:23 | 00:00:00 | |
| DK7TD | 2026-09-03 22:49:48 | 48.82475 | 9.23871 | 100° | 42km/h | 1868m | 7.3m/s | 12°C | 85.4% | 824.6hPa | 2.9V | 18:12:15 | 00:20:21 | 00:00:00 | |
| DK7TD | 2026-09-03 22:49:47 | 48.82477 | 9.23856 | 102° | 37km/h | 1863m | 3.9m/s | 12°C | 85.2% | 825.2hPa | 2.9V | 18:12:15 | 00:20:20 | 00:00:00 | |
| DK7TD | 2026-09-03 22:49:46 | 48.82479 | 9.23844 | 100° | 31km/h | 1859m | 4.4m/s | 12°C | 85.9% | 825.6hPa | 2.9V | 18:12:15 | 00:20:19 | 00:00:00 | |
| DK7TD | 2026-09-03 22:49:45 | 48.82479 | 9.23807 | 81° | 38km/h | 1843m | 5.6m/s | 12.1°C | 86.7% | 827.3hPa | 2.9V | 18:12:15 | 00:20:16 | 00:00:00 | |
| DK7TD | 2026-09-03 22:49:44 | 48.82477 | 9.23791 | 83° | 46km/h | 1837m | 5.4m/s | 12.1°C | 86.8% | 827.9hPa | 2.9V | 18:12:15 | 00:20:15 | 00:00:00 | |
| DK7TD | 2026-09-03 22:49:40 | 48.82476 | 9.23754 | 93° | 51km/h | 1827m | 4.7m/s | 12.2°C | 86.6% | 828.9hPa | 2.9V | 18:12:15 | 00:20:13 | 00:00:00 | |
| DK7TD | 2026-09-03 22:49:39 | 48.82478 | 9.23735 | 100° | 51km/h | 1823m | 4.3m/s | 12.3°C | 86.5% | 829.2hPa | 2.9V | 18:12:15 | 00:20:12 | 00:00:00 | |
| DK7TD | 2026-09-03 22:49:37 | 48.82483 | 9.23699 | 107° | 46km/h | 1814m | 5.9m/s | 12.3°C | 86.1% | 830.3hPa | 2.9V | 18:12:15 | 00:20:10 | 00:00:00 | |
| DK7TD | 2026-09-03 22:49:35 | 48.82488 | 9.23670 | 101° | 33km/h | 1803m | 4.8m/s | 12.4°C | 85.8% | 831.1hPa | 2.9V | 18:12:15 | 00:20:08 | 00:00:00 | |
| DK7TD | 2026-09-03 22:49:34 | 48.82489 | 9.23658 | 92° | 31km/h | 1799m | 4.5m/s | 12.5°C | 86.2% | 831.5hPa | 2.9V | 18:12:15 | 00:20:07 | 00:00:00 | |
| DK7TD | 2026-09-03 22:49:32 | 48.82488 | 9.23634 | 79° | 37km/h | 1787m | 6.3m/s | 12.6°C | 85.2% | 832.8hPa | 2.9V | 18:12:15 | 00:20:05 | 00:00:00 | |
| DK7TD | 2026-09-03 22:49:31 | 48.82486 | 9.23619 | 83° | 40km/h | 1782m | 5.2m/s | 12.6°C | 84.6% | 833.3hPa | 2.9V | 18:12:15 | 00:20:04 | 00:00:00 | |
| DK7TD | 2026-09-03 22:49:30 | 48.82485 | 9.23603 | 90° | 44km/h | 1776m | 5.6m/s | 12.7°C | 84% | 834hPa | 2.9V | 18:12:15 | 00:20:03 | 00:00:00 | |
| DK7TD | 2026-09-03 22:49:29 | 48.82486 | 9.23585 | 98° | 46km/h | 1771m | 4.7m/s | 12.7°C | 83.7% | 834.2hPa | 2.9V | 18:12:15 | 00:20:02 | 00:00:00 | |
| DK7TD | 2026-09-03 22:49:28 | 48.82488 | 9.23568 | 103° | 46km/h | 1766m | 5.4m/s | 12.8°C | 83.4% | 835.1hPa | 2.9V | 18:12:15 | 00:20:01 | 00:00:00 | |
| DK7TD | 2026-09-03 22:49:26 | 48.82493 | 9.23536 | 103° | 40km/h | 1756m | 5.3m/s | 12.8°C | 82.7% | 836hPa | 2.9V | 18:12:15 | 00:19:59 | 00:00:00 | |
| DK7TD | 2026-09-03 22:49:24 | 48.82496 | 9.23506 | 93° | 42km/h | 1745m | 5.6m/s | 12.9°C | 83.4% | 837hPa | 2.9V | 18:12:15 | 00:19:57 | 00:00:00 | |
| DK7TD | 2026-09-03 22:49:22 | 48.82497 | 9.23472 | 96° | 46km/h | 1733m | 6.9m/s | 12.9°C | 82.9% | 837.9hPa | 2.9V | 18:12:15 | 00:19:55 | 00:00:00 | |
| DK7TD | 2026-09-03 22:49:21 | 48.82499 | 9.23455 | 102° | 42km/h | 1727m | 6.2m/s | 13°C | 82.7% | 838.7hPa | 2.9V | 18:12:15 | 00:19:54 | 00:00:00 | |
| DK7TD | 2026-09-03 22:49:19 | 48.82503 | 9.23428 | 102° | 33km/h | 1714m | 5.8m/s | 13.1°C | 82.2% | 840hPa | 2.9V | 18:12:15 | 00:19:52 | 00:00:00 | |
| DK7TD | 2026-09-03 22:49:18 | 48.82505 | 9.23416 | 97° | 31km/h | 1709m | 4.5m/s | 13.2°C | 81.7% | 840.4hPa | 2.9V | 18:12:15 | 00:19:51 | 00:00:00 | |
| DK7TD | 2026-09-03 22:49:16 | 48.82505 | 9.23392 | 88° | 35km/h | 1699m | 4.8m/s | 13.2°C | 79.4% | 841.7hPa | 2.9V | 18:12:15 | 00:19:49 | 00:00:00 | |
| DK7TD | 2026-09-03 22:49:14 | 48.82505 | 9.23362 | 92° | 46km/h | 1690m | 5.1m/s | 13.3°C | 79.6% | 842.3hPa | 2.9V | 18:12:15 | 00:19:47 | 00:00:00 | |
| DK7TD | 2026-09-03 22:49:12 | 48.82508 | 9.23325 | 102° | 51km/h | 1681m | 5.3m/s | 13.4°C | 80.8% | 843.4hPa | 2.9V | 18:12:15 | 00:19:45 | 00:00:00 | |
| DK7TD | 2026-09-03 22:49:10 | 48.82515 | 9.23289 | 114° | 44km/h | 1668m | 5.6m/s | 13.5°C | 80.5% | 844.4hPa | 2.9V | 18:12:15 | 00:19:43 | 00:00:00 | |
| DK7TD | 2026-09-03 22:49:08 | 48.82523 | 9.23262 | 114° | 35km/h | 1657m | 6.2m/s | 13.4°C | 80.4% | 845.5hPa | 2.9V | 18:12:15 | 00:19:41 | 00:00:00 | |
| DK7TD | 2026-09-03 22:49:06 | 48.82528 | 9.23239 | 100° | 31km/h | 1646m | 4.8m/s | 13.5°C | 79.7% | 846.5hPa | 2.9V | 18:12:15 | 00:19:39 | 00:00:00 | |
| DK7TD | 2026-09-03 22:49:05 | 48.82529 | 9.23227 | 92° | 33km/h | 1642m | 3.9m/s | 13.5°C | 79.3% | 847.1hPa | 2.9V | 18:12:15 | 00:19:38 | 00:00:00 | |
| DK7TD | 2026-09-03 22:49:03 | 48.82529 | 9.23199 | 88° | 40km/h | 1634m | 4.6m/s | 13.6°C | 79.9% | 848hPa | 2.9V | 18:12:15 | 00:19:36 | 00:00:00 | |
| DK7TD | 2026-09-03 22:49:01 | 48.82530 | 9.23165 | 97° | 47km/h | 1625m | 4.4m/s | 13.6°C | 80.7% | 849hPa | 2.9V | 18:12:15 | 00:19:34 | 00:00:00 | |
| DK7TD | 2026-09-03 22:49:00 | 48.82532 | 9.23147 | 103° | 47km/h | 1620m | 4.8m/s | 13.7°C | 80.7% | 849.4hPa | 2.9V | 18:12:15 | 00:19:33 | 00:00:00 | |
| DK7TD | 2026-09-03 22:48:58 | 48.82538 | 9.23115 | 108° | 40km/h | 1609m | 5.8m/s | 13.8°C | 80.2% | 850.6hPa | 2.9V | 18:12:15 | 00:19:31 | 00:00:00 | |
| DK7TD | 2026-09-03 22:48:57 | 48.82541 | 9.23101 | 103° | 35km/h | 1604m | 4.8m/s | 13.8°C | 80.4% | 851.1hPa | 2.9V | 18:12:15 | 00:19:30 | 00:00:00 | |
| DK7TD | 2026-09-03 22:48:56 | 48.82542 | 9.23088 | 96° | 35km/h | 1599m | 6m/s | 13.8°C | 81% | 851.5hPa | 2.9V | 18:12:15 | 00:19:29 | 00:00:00 | |
| DK7TD | 2026-09-03 22:48:55 | 48.82543 | 9.23075 | 91° | 35km/h | 1593m | 5m/s | 13.9°C | 81.9% | 852.2hPa | 2.9V | 18:12:15 | 00:19:28 | 00:00:00 | |
| DK7TD | 2026-09-03 22:48:53 | 48.82541 | 9.23046 | 86° | 42km/h | 1583m | 4.9m/s | 13.9°C | 82.8% | 853.1hPa | 2.9V | 18:12:15 | 00:19:26 | 00:00:00 | |
| DK7TD | 2026-09-03 22:48:52 | 48.82540 | 9.23030 | 85° | 46km/h | 1579m | 4.5m/s | 14°C | 82.7% | 853.6hPa | 2.9V | 18:12:15 | 00:19:25 | 00:00:00 | |
| DK7TD | 2026-09-03 22:48:51 | 48.82540 | 9.23013 | 88° | 46km/h | 1575m | 5m/s | 14°C | 82.8% | 854.2hPa | 2.9V | 18:12:15 | 00:19:24 | 00:00:00 | |
| DK7TD | 2026-09-03 22:48:50 | 48.82539 | 9.22995 | 85° | 46km/h | 1570m | 4.8m/s | 14.1°C | 82.3% | 854.6hPa | 2.9V | 18:12:15 | 00:19:23 | 00:00:00 | |
| DK7TD | 2026-09-03 22:48:48 | 48.82537 | 9.22962 | 86° | 42km/h | 1561m | 4.9m/s | 14.1°C | 81.1% | 855.6hPa | 2.9V | 18:12:15 | 00:19:21 | 00:00:00 | |
| DK7TD | 2026-09-03 22:48:46 | 48.82536 | 9.22933 | 92° | 37km/h | 1551m | 4.6m/s | 14.2°C | 80.3% | 856.6hPa | 2.9V | 18:12:15 | 00:19:19 | 00:00:00 | |
| DK7TD | 2026-09-03 22:48:44 | 48.82542 | 9.22891 | 110° | 40km/h | 1537m | 5.3m/s | 14.4°C | 81.5% | 858.1hPa | 2.9V | 18:12:15 | 00:19:16 | 00:00:00 | |
| DK7TD | 2026-09-03 22:48:44 | 48.82545 | 9.22876 | 110° | 46km/h | 1531m | 6.5m/s | 14.4°C | 81.6% | 858.7hPa | 2.9V | 18:12:15 | 00:19:15 | 00:00:00 | |
| DK7TD | 2026-09-03 22:48:41 | 48.82549 | 9.22859 | 107° | 47km/h | 1525m | 6.1m/s | 14.4°C | 81.1% | 859.1hPa | 2.9V | 18:12:15 | 00:19:14 | 00:00:00 | |
| DK7TD | 2026-09-03 22:48:39 | 48.82556 | 9.22826 | 108° | 44km/h | 1513m | 7.4m/s | 14.5°C | 80.1% | 860.4hPa | 2.9V | 18:12:15 | 00:19:12 | 00:00:00 | |
| DK7TD | 2026-09-03 22:48:37 | 48.82562 | 9.22797 | 106° | 37km/h | 1501m | 5.6m/s | 14.6°C | 78.5% | 861.7hPa | 2.9V | 18:12:15 | 00:19:10 | 00:00:00 | |
| DK7TD | 2026-09-03 22:48:36 | 48.82564 | 9.22784 | 101° | 35km/h | 1495m | 5.1m/s | 14.7°C | 78.6% | 862.2hPa | 2.9V | 18:12:15 | 00:19:09 | 00:00:00 | |
| DK7TD | 2026-09-03 22:48:35 | 48.82565 | 9.22771 | 95° | 35km/h | 1490m | 5.8m/s | 14.7°C | 78.9% | 862.7hPa | 2.9V | 18:12:15 | 00:19:08 | 00:00:00 | |
| DK7TD | 2026-09-03 22:48:33 | 48.82566 | 9.22742 | 96° | 40km/h | 1479m | 4.9m/s | 14.8°C | 78.2% | 863.8hPa | 2.9V | 18:12:15 | 00:19:06 | 00:00:00 | |
| DK7TD | 2026-09-03 22:48:32 | 48.82568 | 9.22727 | 98° | 38km/h | 1472m | 7.6m/s | 14.9°C | 78.2% | 864.3hPa | 2.9V | 18:12:15 | 00:19:05 | 00:00:00 | |
| DK7TD | 2026-09-03 22:48:31 | 48.82569 | 9.22713 | 102° | 37km/h | 1465m | 6m/s | 14.9°C | 77.6% | 865hPa | 2.9V | 18:12:15 | 00:19:04 | 00:00:00 | |
| DK7TD | 2026-09-03 22:48:29 | 48.82573 | 9.22686 | 103° | 37km/h | 1455m | 7.4m/s | 15°C | 78.6% | 866.1hPa | 2.9V | 18:12:15 | 00:19:02 | 00:00:00 | |
| DK7TD | 2026-09-03 22:48:28 | 48.82575 | 9.22672 | 103° | 40km/h | 1448m | 6.9m/s | 15.1°C | 78.2% | 866.8hPa | 2.9V | 18:12:15 | 00:19:01 | 00:00:00 | |
| DK7TD | 2026-09-03 22:48:26 | 48.82582 | 9.22641 | 114° | 40km/h | 1436m | 7.3m/s | 15.2°C | 78.5% | 868hPa | 2.9V | 18:12:15 | 00:18:59 | 00:00:00 | |
| DK7TD | 2026-09-03 22:48:25 | 48.82586 | 9.22628 | 117° | 37km/h | 1429m | 5.8m/s | 15.3°C | 78.3% | 868.7hPa | 2.9V | 18:12:15 | 00:18:58 | 00:00:00 | |
| DK7TD | 2026-09-03 22:48:23 | 48.82593 | 9.22607 | 115° | 26km/h | 1418m | 5m/s | 15.4°C | 78.3% | 869.8hPa | 2.9V | 18:12:15 | 00:18:56 | 00:00:00 | |
| DK7TD | 2026-09-03 22:48:22 | 48.82595 | 9.22598 | 104° | 26km/h | 1413m | 5.4m/s | 15.4°C | 78.1% | 870.2hPa | 2.9V | 18:12:15 | 00:18:55 | 00:00:00 | |
| DK7TD | 2026-09-03 22:48:20 | 48.82597 | 9.22575 | 94° | 35km/h | 1401m | 6.3m/s | 15.5°C | 77.3% | 871.6hPa | 2.9V | 18:12:15 | 00:18:53 | 00:00:00 | |
| DK7TD | 2026-09-03 22:48:19 | 48.82598 | 9.22561 | 97° | 40km/h | 1395m | 5.6m/s | 15.6°C | 77% | 872.2hPa | 2.9V | 18:12:15 | 00:18:52 | 00:00:00 | |
| DK7TD | 2026-09-03 22:48:18 | 48.82600 | 9.22545 | 102° | 42km/h | 1389m | 6m/s | 15.6°C | 76.6% | 872.8hPa | 2.9V | 18:12:15 | 00:18:51 | 00:00:00 | |
| DK7TD | 2026-09-03 22:48:16 | 48.82607 | 9.22514 | 115° | 40km/h | 1378m | 3.9m/s | 15.7°C | 0% | 873.8hPa | 2.9V | 18:12:15 | 00:18:49 | 00:00:00 | |
| DK7TD | 2026-09-03 22:48:15 | 48.82611 | 9.22501 | 118° | 38km/h | 1374m | 5m/s | 0°C | 0% | 874.4hPa | 2.9V | 18:12:15 | 00:18:48 | 00:00:00 | |
| DK7TD | 2026-09-03 22:48:13 | 48.82619 | 9.22476 | 109° | 35km/h | 1364m | 4.9m/s | 0°C | 0% | 875.5hPa | 2.9V | 18:12:15 | 00:18:46 | 00:00:00 | |
| DK7TD | 2026-09-03 22:48:12 | 48.82626 | 9.22433 | 103° | 40km/h | 1349m | 5.2m/s | 0°C | 0% | 876.8hPa | 2.9V | 18:12:15 | 00:18:43 | 00:00:00 | |
| DK7TD | 2026-09-03 22:48:11 | 48.82628 | 9.22418 | 107° | 38km/h | 1343m | 6.2m/s | 0°C | 0% | 877.5hPa | 2.9V | 18:12:15 | 00:18:42 | 00:00:00 | |
| DK7TD | 2026-09-03 22:48:07 | 48.82635 | 9.22393 | 116° | 33km/h | 1332m | 4.7m/s | 0°C | 0% | 878.8hPa | 2.9V | 18:12:15 | 00:18:40 | 00:00:00 | |
| DK7TD | 2026-09-03 22:48:05 | 48.82641 | 9.22371 | 99° | 29km/h | 1319m | 7.5m/s | 0°C | 0% | 880.1hPa | 2.9V | 18:12:15 | 00:18:38 | 00:00:00 | |
| DK7TD | 2026-09-03 22:48:04 | 48.82641 | 9.22359 | 91° | 33km/h | 1312m | 6.6m/s | 0°C | 0% | 880.8hPa | 2.9V | 18:12:15 | 00:18:37 | 00:00:00 | |
| DK7TD | 2026-09-03 22:48:02 | 48.82640 | 9.22333 | 85° | 37km/h | 1302m | 4.1m/s | 0°C | 0% | 881.8hPa | 2.9V | 18:12:15 | 00:18:35 | 00:00:00 | |
| DK7TD | 2026-09-03 22:48:01 | 48.82640 | 9.22319 | 87° | 37km/h | 1298m | 4.5m/s | 0°C | 0% | 882.3hPa | 2.9V | 18:12:15 | 00:18:34 | 00:00:00 | |
| DK7TD | 2026-09-03 22:47:59 | 48.82641 | 9.22294 | 101° | 31km/h | 1287m | 5.5m/s | 0°C | 0% | 0hPa | 2.9V | 18:12:15 | 00:18:32 | 00:00:00 | |
| DK7TD | 2026-09-03 22:47:57 | 48.82646 | 9.22272 | 118° | 33km/h | 1277m | 4.7m/s | 0°C | 0% | 0hPa | 2.9V | 18:12:15 | 00:18:30 | 00:00:00 | |
| DK7TD | 2026-09-03 22:47:55 | 48.82655 | 9.22246 | 114° | 40km/h | 1268m | 4.9m/s | 0°C | 0% | 0hPa | 2.9V | 18:12:15 | 00:18:28 | 00:00:00 | |
| DK7TD | 2026-09-03 22:47:54 | 48.82659 | 9.22232 | 112° | 40km/h | 1262m | 5.8m/s | 0°C | 0% | 0hPa | 2.9V | 18:12:15 | 00:18:27 | 00:00:00 | |
| DK7TD | 2026-09-03 22:47:53 | 48.82662 | 9.22217 | 107° | 40km/h | 1256m | 7.2m/s | 0°C | 0% | 0hPa | 2.9V | 18:12:15 | 00:18:26 | 00:00:00 | |
| DK7TD | 2026-09-03 22:47:51 | 48.82667 | 9.22188 | 100° | 38km/h | 1242m | 6.4m/s | 0°C | 0% | 0hPa | 2.9V | 18:12:15 | 00:18:24 | 00:00:00 | |
| DK7TD | 2026-09-03 22:47:50 | 48.82668 | 9.22173 | 92° | 40km/h | 1236m | 6.2m/s | 0°C | 0% | 0hPa | 2.9V | 18:12:15 | 00:18:23 | 00:00:00 | |
| DK7TD | 2026-09-03 22:47:49 | 48.82668 | 9.22157 | 89° | 46km/h | 1230m | 6.6m/s | 0°C | 0% | 0hPa | 2.9V | 18:12:15 | 00:18:22 | 00:00:00 | |
| DK7TD | 2026-09-03 22:47:47 | 48.82667 | 9.22120 | 87° | 49km/h | 1216m | 7.3m/s | 0°C | 0% | 0hPa | 2.9V | 18:12:15 | 00:18:20 | 00:00:00 | |
| DB0UT-7 | 2026-09-03 22:47:43 | 48.82668 | 9.22053 | 101° | 40km/h | 1193m | 5.0m/s | 0°C | 0% | 0hPa | 0V | 00:00:00 | 00:18:16 | 00:00:00 | |
| AZAK | 2026-09-03 22:47:41 | 48.82670 | 9.22038 | 108° | 38km/h | 1188m | 4.9m/s | 17.3°C | 64.0% | 893.6hPa | 0V | 00:00:00 | 00:00:00 | 00:00:00 | |
| DF3TZ-5 | 2026-09-03 22:47:37 | 48.82684 | 9.21947 | 98° | 31km/h | 1153m | 3.8m/s | 17.4°C | 63.3% | 897.2hPa | 0V | 00:00:00 | 00:00:00 | 00:00:00 | |
| DK5PH-5 | 2026-09-03 22:47:34 | 48.82687 | 9.21923 | 107° | 38km/h | 1143m | 4.7m/s | 0°C | 0% | 0hPa | 0V | 00:00:00 | 00:18:07 | 00:00:00 | |
| AZAK | 2026-09-03 22:47:23 | 48.82724 | 9.21741 | 106° | 35km/h | 1076m | 4.0m/s | 0°C | 0% | 905.4hPa | 0V | 00:00:00 | 00:00:00 | 00:00:00 | |
| AZAK | 2026-09-03 22:47:01 | 48.82773 | 9.21426 | 88° | 40km/h | 959m | 7.2m/s | 0°C | 0% | 917.7hPa | 0V | 00:00:00 | 00:00:00 | 00:00:00 | |
| AZAK | 2026-09-03 22:46:40 | 48.82839 | 9.21155 | 110° | 35km/h | 856m | 4.6m/s | 0°C | 0% | 0hPa | 0V | 00:00:00 | 00:00:00 | 00:00:00 | |
| DF3TZ-5 | 2026-09-03 22:46:35 | 48.82856 | 9.21059 | 85° | 24km/h | 819m | 5.9m/s | 20.2°C | -1.0% | 933.1hPa | 0V | 00:00:00 | 00:00:00 | 00:00:00 | |
| AZAK | 2026-09-03 22:46:05 | 48.82892 | 9.20685 | 90° | 31km/h | 677m | 5.4m/s | 0°C | 0% | 0hPa | 0V | 00:00:00 | 00:00:00 | 00:00:00 | |
| AZAK | 2026-09-03 22:45:43 | 48.82901 | 9.20417 | 73° | 35km/h | 564m | 4.6m/s | 0°C | 0% | 0hPa | 0V | 00:00:00 | 00:00:00 | 00:00:00 | |
| AZAK | 2026-09-03 22:45:21 | 48.82873 | 9.20199 | 355° | 13km/h | 443m | 5.0m/s | 0°C | 0% | 0hPa | 0V | 00:00:00 | 00:00:00 | 00:00:00 |